<?xml version='1.0' encoding='UTF-8'?><gpx version="1.1" creator="JPX - https://github.com/jenetics/jpx" xmlns="http://www.topografix.com/GPX/1/1"><trk><trkseg><trkpt lat="38.8252410748611" lon="-9.324914542592028"><ele>162.0</ele><time>2026-04-19T07:32:41.222Z</time></trkpt><trkpt lat="38.82518017806129" lon="-9.324942863344337"><ele>162.0</ele><time>2026-04-19T07:32:50.222Z</time></trkpt><trkpt lat="38.82522894105935" lon="-9.325000191479662"><ele>162.0</ele><time>2026-04-19T07:33:02.222Z</time></trkpt><trkpt lat="38.82529432173458" lon="-9.325008117180252"><ele>162.0</ele><time>2026-04-19T07:33:04.222Z</time></trkpt><trkpt lat="38.82535840001832" lon="-9.325013413840981"><ele>162.0</ele><time>2026-04-19T07:33:09.972Z</time></trkpt><trkpt lat="38.825396832905454" lon="-9.32491738853025"><ele>162.0</ele><time>2026-04-19T07:33:13.972Z</time></trkpt><trkpt lat="38.82543495387864" lon="-9.324991655204963"><ele>162.0</ele><time>2026-04-19T07:33:27.972Z</time></trkpt><trkpt lat="38.825446144097945" lon="-9.325093281225596"><ele>162.0</ele><time>2026-04-19T07:33:53.972Z</time></trkpt><trkpt lat="38.825374416431764" lon="-9.325159839760884"><ele>162.0</ele><time>2026-04-19T07:33:57.972Z</time></trkpt><trkpt lat="38.82532205479418" lon="-9.325243255208584"><ele>162.0</ele><time>2026-04-19T07:33:59.972Z</time></trkpt><trkpt lat="38.82526107040348" lon="-9.325337065300934"><ele>162.0</ele><time>2026-04-19T07:34:02.972Z</time></trkpt><trkpt lat="38.8252063292406" lon="-9.32541240102447"><ele>162.0</ele><time>2026-04-19T07:34:04.972Z</time></trkpt><trkpt lat="38.8251173599093" lon="-9.325417471143975"><ele>162.0</ele><time>2026-04-19T07:34:06.972Z</time></trkpt><trkpt lat="38.8250382025663" lon="-9.325339065254681"><ele>160.6</ele><time>2026-04-19T07:34:08.972Z</time></trkpt><trkpt lat="38.8249578448991" lon="-9.32525721872537"><ele>159.2</ele><time>2026-04-19T07:34:10.972Z</time></trkpt><trkpt lat="38.82485211661774" lon="-9.325190531710703"><ele>157.8</ele><time>2026-04-19T07:34:12.972Z</time></trkpt><trkpt lat="38.82475593684382" lon="-9.325169439516113"><ele>156.4</ele><time>2026-04-19T07:34:14.972Z</time></trkpt><trkpt lat="38.82467560529117" lon="-9.32510397759094"><ele>155.0</ele><time>2026-04-19T07:34:16.972Z</time></trkpt><trkpt lat="38.82459956515054" lon="-9.325075160237576"><ele>155.0</ele><time>2026-04-19T07:34:18.972Z</time></trkpt><trkpt lat="38.82453517496512" lon="-9.325049116520495"><ele>155.0</ele><time>2026-04-19T07:34:20.972Z</time></trkpt><trkpt lat="38.82460142575018" lon="-9.325044000166953"><ele>155.0</ele><time>2026-04-19T07:35:09.995Z</time></trkpt><trkpt lat="38.82469045845795" lon="-9.32509465072823"><ele>155.0</ele><time>2026-04-19T07:35:11.996Z</time></trkpt><trkpt lat="38.824793078784" lon="-9.325143442442585"><ele>155.0</ele><time>2026-04-19T07:35:13.996Z</time></trkpt><trkpt lat="38.82491375624645" lon="-9.325202911484517"><ele>155.0</ele><time>2026-04-19T07:35:15.997Z</time></trkpt><trkpt lat="38.824963493238755" lon="-9.325253140615496"><ele>155.0</ele><time>2026-04-19T07:35:16.997Z</time></trkpt><trkpt lat="38.825020990668726" lon="-9.32530556635479"><ele>155.0</ele><time>2026-04-19T07:35:17.997Z</time></trkpt><trkpt lat="38.825077817469015" lon="-9.325357939738488"><ele>155.0</ele><time>2026-04-19T07:35:18.998Z</time></trkpt><trkpt lat="38.82513385992828" lon="-9.325404005657283"><ele>155.0</ele><time>2026-04-19T07:35:19.998Z</time></trkpt><trkpt lat="38.8251974300194" lon="-9.32543775429176"><ele>155.0</ele><time>2026-04-19T07:35:20.998Z</time></trkpt><trkpt lat="38.8252634148997" lon="-9.32541810944377"><ele>155.0</ele><time>2026-04-19T07:35:21.998Z</time></trkpt><trkpt lat="38.82529167310353" lon="-9.325314229863663"><ele>156.0</ele><time>2026-04-19T07:35:22.998Z</time></trkpt><trkpt lat="38.825334166506245" lon="-9.325240084486577"><ele>157.0</ele><time>2026-04-19T07:35:23.999Z</time></trkpt><trkpt lat="38.82538013663919" lon="-9.325170165360854"><ele>158.0</ele><time>2026-04-19T07:35:24.999Z</time></trkpt><trkpt lat="38.82544242895218" lon="-9.325096861203138"><ele>159.0</ele><time>2026-04-19T07:35:25.999Z</time></trkpt><trkpt lat="38.82548002062962" lon="-9.325016976469344"><ele>160.0</ele><time>2026-04-19T07:35:26.999Z</time></trkpt><trkpt lat="38.82552253280361" lon="-9.324943098795993"><ele>161.0</ele><time>2026-04-19T07:35:27.999Z</time></trkpt><trkpt lat="38.82555823428739" lon="-9.324863074858508"><ele>162.0</ele><time>2026-04-19T07:35:28.999Z</time></trkpt><trkpt lat="38.82555226942451" lon="-9.324782178926258"><ele>162.0</ele><time>2026-04-19T07:35:29.999Z</time></trkpt><trkpt lat="38.825567408431226" lon="-9.324673123588418"><ele>162.0</ele><time>2026-04-19T07:35:32Z</time></trkpt><trkpt lat="38.82565336760488" lon="-9.324687650665211"><ele>162.0</ele><time>2026-04-19T07:35:35Z</time></trkpt><trkpt lat="38.82573754307835" lon="-9.324724761917667"><ele>162.0</ele><time>2026-04-19T07:35:37Z</time></trkpt><trkpt lat="38.82583569869768" lon="-9.324785224574137"><ele>162.0</ele><time>2026-04-19T07:35:39Z</time></trkpt><trkpt lat="38.8258989451623" lon="-9.324802476309275"><ele>162.0</ele><time>2026-04-19T07:35:40Z</time></trkpt><trkpt lat="38.825960639734525" lon="-9.324819150868457"><ele>162.33333333333334</ele><time>2026-04-19T07:35:41Z</time></trkpt><trkpt lat="38.82602538004672" lon="-9.324825055055754"><ele>162.66666666666666</ele><time>2026-04-19T07:35:42Z</time></trkpt><trkpt lat="38.8261001137122" lon="-9.324826382310977"><ele>163.0</ele><time>2026-04-19T07:35:43Z</time></trkpt><trkpt lat="38.826174881439385" lon="-9.324839513703884"><ele>163.33333333333331</ele><time>2026-04-19T07:35:44Z</time></trkpt><trkpt lat="38.82625274943962" lon="-9.324843067224949"><ele>163.66666666666666</ele><time>2026-04-19T07:35:45Z</time></trkpt><trkpt lat="38.82633886509733" lon="-9.324851396846176"><ele>164.0</ele><time>2026-04-19T07:35:46Z</time></trkpt><trkpt lat="38.82642953138406" lon="-9.324856297385244"><ele>164.0</ele><time>2026-04-19T07:35:47.001Z</time></trkpt><trkpt lat="38.82652195493539" lon="-9.324832336050248"><ele>164.0</ele><time>2026-04-19T07:35:48.001Z</time></trkpt><trkpt lat="38.82661882425056" lon="-9.324777340649788"><ele>164.0</ele><time>2026-04-19T07:35:49.001Z</time></trkpt><trkpt lat="38.82671244860566" lon="-9.3247135358157"><ele>164.0</ele><time>2026-04-19T07:35:50.001Z</time></trkpt><trkpt lat="38.826809025449954" lon="-9.324647982602754"><ele>164.0</ele><time>2026-04-19T07:35:51.001Z</time></trkpt><trkpt lat="38.82691338319546" lon="-9.32458220658228"><ele>164.6</ele><time>2026-04-19T07:35:52.001Z</time></trkpt><trkpt lat="38.82701175257444" lon="-9.324516813568003"><ele>165.2</ele><time>2026-04-19T07:35:53.001Z</time></trkpt><trkpt lat="38.827108655343885" lon="-9.324458833867654"><ele>165.79999999999998</ele><time>2026-04-19T07:35:54.001Z</time></trkpt><trkpt lat="38.82719710921053" lon="-9.324405469929246"><ele>166.39999999999998</ele><time>2026-04-19T07:35:55.001Z</time></trkpt><trkpt lat="38.827272420821004" lon="-9.32435126404773"><ele>167.0</ele><time>2026-04-19T07:35:56.001Z</time></trkpt><trkpt lat="38.82734830304588" lon="-9.324301279042578"><ele>167.0</ele><time>2026-04-19T07:35:57.001Z</time></trkpt><trkpt lat="38.82741544588216" lon="-9.32425663961505"><ele>167.0</ele><time>2026-04-19T07:35:58.001Z</time></trkpt><trkpt lat="38.827480315633586" lon="-9.324212340471158"><ele>167.0</ele><time>2026-04-19T07:35:59.001Z</time></trkpt><trkpt lat="38.82754324591146" lon="-9.324168344008308"><ele>167.0</ele><time>2026-04-19T07:36:00.001Z</time></trkpt><trkpt lat="38.827619497439706" lon="-9.32411367745105"><ele>167.0</ele><time>2026-04-19T07:36:01.001Z</time></trkpt><trkpt lat="38.82770867799043" lon="-9.32405274859847"><ele>167.0</ele><time>2026-04-19T07:36:02.001Z</time></trkpt><trkpt lat="38.82780650279493" lon="-9.323984039218134"><ele>166.5</ele><time>2026-04-19T07:36:03.001Z</time></trkpt><trkpt lat="38.827900912378844" lon="-9.32389073972961"><ele>166.0</ele><time>2026-04-19T07:36:04.001Z</time></trkpt><trkpt lat="38.828007049122654" lon="-9.323807688039004"><ele>165.5</ele><time>2026-04-19T07:36:05.001Z</time></trkpt><trkpt lat="38.828115714933915" lon="-9.323719981848893"><ele>165.0</ele><time>2026-04-19T07:36:06.001Z</time></trkpt><trkpt lat="38.82822655950929" lon="-9.323629362512657"><ele>165.0</ele><time>2026-04-19T07:36:07.001Z</time></trkpt><trkpt lat="38.82834297432063" lon="-9.323533275724284"><ele>165.0</ele><time>2026-04-19T07:36:08.001Z</time></trkpt><trkpt lat="38.82845900446481" lon="-9.323438056650126"><ele>165.0</ele><time>2026-04-19T07:36:09.001Z</time></trkpt><trkpt lat="38.82857833787439" lon="-9.323340126770656"><ele>165.0</ele><time>2026-04-19T07:36:10.001Z</time></trkpt><trkpt lat="38.828707038135164" lon="-9.32325779200084"><ele>165.0</ele><time>2026-04-19T07:36:11.001Z</time></trkpt><trkpt lat="38.82882373455544" lon="-9.323157845490321"><ele>165.0</ele><time>2026-04-19T07:36:12.001Z</time></trkpt><trkpt lat="38.828939089200595" lon="-9.323069288995189"><ele>165.0</ele><time>2026-04-19T07:36:13.001Z</time></trkpt><trkpt lat="38.829051836132635" lon="-9.322970028996009"><ele>165.0</ele><time>2026-04-19T07:36:14.001Z</time></trkpt><trkpt lat="38.82916670461198" lon="-9.322876135062122"><ele>165.0</ele><time>2026-04-19T07:36:15.001Z</time></trkpt><trkpt lat="38.829280043803976" lon="-9.322784432569822"><ele>165.0</ele><time>2026-04-19T07:36:16.001Z</time></trkpt><trkpt lat="38.82939813177233" lon="-9.322698326578887"><ele>165.0</ele><time>2026-04-19T07:36:17.001Z</time></trkpt><trkpt lat="38.829511703852305" lon="-9.322619342626698"><ele>165.0</ele><time>2026-04-19T07:36:18.001Z</time></trkpt><trkpt lat="38.829626169479866" lon="-9.322545338672464"><ele>162.5</ele><time>2026-04-19T07:36:19.001Z</time></trkpt><trkpt lat="38.829739996726715" lon="-9.322471580902794"><ele>160.0</ele><time>2026-04-19T07:36:20.001Z</time></trkpt><trkpt lat="38.82985836708711" lon="-9.322398983834143"><ele>157.5</ele><time>2026-04-19T07:36:21.001Z</time></trkpt><trkpt lat="38.829973555166646" lon="-9.322323586736326"><ele>155.0</ele><time>2026-04-19T07:36:22.001Z</time></trkpt><trkpt lat="38.83009016450593" lon="-9.322247167581496"><ele>156.25</ele><time>2026-04-19T07:36:23.001Z</time></trkpt><trkpt lat="38.830208347255244" lon="-9.322176292128802"><ele>157.5</ele><time>2026-04-19T07:36:24.001Z</time></trkpt><trkpt lat="38.83032024393344" lon="-9.322103405804954"><ele>158.75</ele><time>2026-04-19T07:36:25.001Z</time></trkpt><trkpt lat="38.8304362784467" lon="-9.322045673402766"><ele>160.0</ele><time>2026-04-19T07:36:26.001Z</time></trkpt><trkpt lat="38.83055497654549" lon="-9.32201656342497"><ele>160.0</ele><time>2026-04-19T07:36:27.001Z</time></trkpt><trkpt lat="38.83067407417901" lon="-9.322020304654396"><ele>160.0</ele><time>2026-04-19T07:36:28.001Z</time></trkpt><trkpt lat="38.83079614468875" lon="-9.322048494643404"><ele>160.0</ele><time>2026-04-19T07:36:29.001Z</time></trkpt><trkpt lat="38.830924679269245" lon="-9.322079606133943"><ele>160.0</ele><time>2026-04-19T07:36:30.001Z</time></trkpt><trkpt lat="38.8310637789982" lon="-9.32210186791515"><ele>157.75</ele><time>2026-04-19T07:36:31.001Z</time></trkpt><trkpt lat="38.83119060117141" lon="-9.322123606655786"><ele>155.5</ele><time>2026-04-19T07:36:32.001Z</time></trkpt><trkpt lat="38.831307417090464" lon="-9.322147527778952"><ele>153.25</ele><time>2026-04-19T07:36:33.001Z</time></trkpt><trkpt lat="38.83142226998741" lon="-9.322193407356693"><ele>151.0</ele><time>2026-04-19T07:36:34.001Z</time></trkpt><trkpt lat="38.83153679236568" lon="-9.322279036926505"><ele>151.0</ele><time>2026-04-19T07:36:35.001Z</time></trkpt><trkpt lat="38.831650141717006" lon="-9.322370418554529"><ele>151.0</ele><time>2026-04-19T07:36:36.001Z</time></trkpt><trkpt lat="38.83176151891394" lon="-9.32245459490398"><ele>151.0</ele><time>2026-04-19T07:36:37.001Z</time></trkpt><trkpt lat="38.83185496481091" lon="-9.322531295482381"><ele>151.0</ele><time>2026-04-19T07:36:38.001Z</time></trkpt><trkpt lat="38.83193338762452" lon="-9.322612339622218"><ele>151.0</ele><time>2026-04-19T07:36:39.001Z</time></trkpt><trkpt lat="38.83200401438466" lon="-9.322716202657524"><ele>151.0</ele><time>2026-04-19T07:36:40.001Z</time></trkpt><trkpt lat="38.83202485182144" lon="-9.322868041181007"><ele>151.0</ele><time>2026-04-19T07:36:41.001Z</time></trkpt><trkpt lat="38.832052168303946" lon="-9.32301532545215"><ele>151.0</ele><time>2026-04-19T07:36:42.001Z</time></trkpt><trkpt lat="38.83208810201157" lon="-9.323163199989771"><ele>150.5</ele><time>2026-04-19T07:36:43.001Z</time></trkpt><trkpt lat="38.8321078362674" lon="-9.323321637772187"><ele>150.0</ele><time>2026-04-19T07:36:44.001Z</time></trkpt><trkpt lat="38.8321233924737" lon="-9.323481058804337"><ele>149.5</ele><time>2026-04-19T07:36:45.001Z</time></trkpt><trkpt lat="38.832140624433514" lon="-9.323632227458369"><ele>149.0</ele><time>2026-04-19T07:36:46.001Z</time></trkpt><trkpt lat="38.83216145216601" lon="-9.323788140088666"><ele>148.0</ele><time>2026-04-19T07:36:47.001Z</time></trkpt><trkpt lat="38.83219056251089" lon="-9.323945457393055"><ele>147.0</ele><time>2026-04-19T07:36:48.001Z</time></trkpt><trkpt lat="38.83221881946784" lon="-9.324101890016108"><ele>146.0</ele><time>2026-04-19T07:36:49.001Z</time></trkpt><trkpt lat="38.832249009295225" lon="-9.32426922125556"><ele>145.0</ele><time>2026-04-19T07:36:50.002Z</time></trkpt><trkpt lat="38.8322637337145" lon="-9.324436762022753"><ele>145.0</ele><time>2026-04-19T07:36:51.002Z</time></trkpt><trkpt lat="38.832276853672404" lon="-9.324604700560178"><ele>145.0</ele><time>2026-04-19T07:36:52.002Z</time></trkpt><trkpt lat="38.832278779715324" lon="-9.324776276026132"><ele>145.0</ele><time>2026-04-19T07:36:53.002Z</time></trkpt><trkpt lat="38.83227637189152" lon="-9.324948123491335"><ele>145.0</ele><time>2026-04-19T07:36:54.002Z</time></trkpt><trkpt lat="38.83227743832107" lon="-9.325121754261856"><ele>144.25</ele><time>2026-04-19T07:36:55.001Z</time></trkpt><trkpt lat="38.83228180834829" lon="-9.325294048377696"><ele>143.5</ele><time>2026-04-19T07:36:56.001Z</time></trkpt><trkpt lat="38.832286282587056" lon="-9.325467724454825"><ele>142.75</ele><time>2026-04-19T07:36:57.001Z</time></trkpt><trkpt lat="38.832291675224305" lon="-9.325632639946198"><ele>142.0</ele><time>2026-04-19T07:36:58.001Z</time></trkpt><trkpt lat="38.83232158914733" lon="-9.325784494465486"><ele>141.5</ele><time>2026-04-19T07:36:59.001Z</time></trkpt><trkpt lat="38.83238075591342" lon="-9.325915331695349"><ele>141.0</ele><time>2026-04-19T07:37:00.001Z</time></trkpt><trkpt lat="38.83248937545181" lon="-9.325999818416626"><ele>140.5</ele><time>2026-04-19T07:37:01.001Z</time></trkpt><trkpt lat="38.83259971079893" lon="-9.326063459096982"><ele>140.0</ele><time>2026-04-19T07:37:02.001Z</time></trkpt><trkpt lat="38.832726723892506" lon="-9.326144445321436"><ele>139.75</ele><time>2026-04-19T07:37:03.001Z</time></trkpt><trkpt lat="38.832838387126536" lon="-9.326229563395158"><ele>139.5</ele><time>2026-04-19T07:37:04.001Z</time></trkpt><trkpt lat="38.83295946942657" lon="-9.326284069742952"><ele>139.25</ele><time>2026-04-19T07:37:05.001Z</time></trkpt><trkpt lat="38.833081174336144" lon="-9.326354919766336"><ele>139.0</ele><time>2026-04-19T07:37:06.001Z</time></trkpt><trkpt lat="38.83319602923577" lon="-9.32642629530502"><ele>138.75</ele><time>2026-04-19T07:37:07.001Z</time></trkpt><trkpt lat="38.83331145246167" lon="-9.326502239075685"><ele>138.5</ele><time>2026-04-19T07:37:08.001Z</time></trkpt><trkpt lat="38.83342811183995" lon="-9.326570530595296"><ele>138.25</ele><time>2026-04-19T07:37:09.001Z</time></trkpt><trkpt lat="38.8335454217501" lon="-9.326640400434966"><ele>138.0</ele><time>2026-04-19T07:37:10.001Z</time></trkpt><trkpt lat="38.833664935591216" lon="-9.326711051938089"><ele>137.5</ele><time>2026-04-19T07:37:11.001Z</time></trkpt><trkpt lat="38.83379146777778" lon="-9.326781808298124"><ele>137.0</ele><time>2026-04-19T07:37:12.001Z</time></trkpt><trkpt lat="38.83390057964864" lon="-9.326855286307975"><ele>136.5</ele><time>2026-04-19T07:37:13.001Z</time></trkpt><trkpt lat="38.83402081199951" lon="-9.326921129856018"><ele>136.0</ele><time>2026-04-19T07:37:14Z</time></trkpt><trkpt lat="38.83414965804538" lon="-9.326947709959763"><ele>136.0</ele><time>2026-04-19T07:37:15Z</time></trkpt><trkpt lat="38.8342770267764" lon="-9.326961961005535"><ele>136.0</ele><time>2026-04-19T07:37:16Z</time></trkpt><trkpt lat="38.83440798250698" lon="-9.326964279802034"><ele>136.0</ele><time>2026-04-19T07:37:17Z</time></trkpt><trkpt lat="38.834539443589506" lon="-9.326986828212561"><ele>136.0</ele><time>2026-04-19T07:37:18Z</time></trkpt><trkpt lat="38.83467052611302" lon="-9.326976567536436"><ele>136.5</ele><time>2026-04-19T07:37:19Z</time></trkpt><trkpt lat="38.8348049544583" lon="-9.326966888794455"><ele>137.0</ele><time>2026-04-19T07:37:20Z</time></trkpt><trkpt lat="38.834939688423944" lon="-9.326973720973028"><ele>137.5</ele><time>2026-04-19T07:37:21Z</time></trkpt><trkpt lat="38.83507344602893" lon="-9.326975709260475"><ele>138.0</ele><time>2026-04-19T07:37:22Z</time></trkpt><trkpt lat="38.83520752884275" lon="-9.326977089964666"><ele>138.25</ele><time>2026-04-19T07:37:23Z</time></trkpt><trkpt lat="38.83533938516712" lon="-9.326994629650926"><ele>138.5</ele><time>2026-04-19T07:37:24Z</time></trkpt><trkpt lat="38.835469820274845" lon="-9.327039232546356"><ele>138.75</ele><time>2026-04-19T07:37:25Z</time></trkpt><trkpt lat="38.83559545971691" lon="-9.327105105756726"><ele>139.0</ele><time>2026-04-19T07:37:26Z</time></trkpt><trkpt lat="38.83571114030783" lon="-9.327202453535481"><ele>139.75</ele><time>2026-04-19T07:37:27Z</time></trkpt><trkpt lat="38.835827513430665" lon="-9.327307160929212"><ele>140.5</ele><time>2026-04-19T07:37:28Z</time></trkpt><trkpt lat="38.835942740791765" lon="-9.327402470398086"><ele>141.25</ele><time>2026-04-19T07:37:29Z</time></trkpt><trkpt lat="38.836059677715774" lon="-9.327496442335892"><ele>142.0</ele><time>2026-04-19T07:37:30Z</time></trkpt><trkpt lat="38.83617762886084" lon="-9.327587970554704"><ele>142.25</ele><time>2026-04-19T07:37:31Z</time></trkpt><trkpt lat="38.8362990140996" lon="-9.32767178084139"><ele>142.5</ele><time>2026-04-19T07:37:32Z</time></trkpt><trkpt lat="38.83643365416798" lon="-9.327714263893034"><ele>142.75</ele><time>2026-04-19T07:37:33Z</time></trkpt><trkpt lat="38.83657732323759" lon="-9.327752346233103"><ele>143.0</ele><time>2026-04-19T07:37:34Z</time></trkpt><trkpt lat="38.836714538609115" lon="-9.32778161165568"><ele>143.0</ele><time>2026-04-19T07:37:35Z</time></trkpt><trkpt lat="38.83685202705238" lon="-9.327824526173618"><ele>143.0</ele><time>2026-04-19T07:37:36Z</time></trkpt><trkpt lat="38.83699882157596" lon="-9.327854993386714"><ele>143.0</ele><time>2026-04-19T07:37:37Z</time></trkpt><trkpt lat="38.837142122761335" lon="-9.327887759969643"><ele>143.0</ele><time>2026-04-19T07:37:38Z</time></trkpt><trkpt lat="38.83728387928778" lon="-9.327919198705878"><ele>143.0</ele><time>2026-04-19T07:37:39Z</time></trkpt><trkpt lat="38.837427142778004" lon="-9.32795681113791"><ele>143.0</ele><time>2026-04-19T07:37:40Z</time></trkpt><trkpt lat="38.83757241601676" lon="-9.327993026230939"><ele>143.0</ele><time>2026-04-19T07:37:41Z</time></trkpt><trkpt lat="38.83772084097482" lon="-9.328021615056633"><ele>143.0</ele><time>2026-04-19T07:37:42Z</time></trkpt><trkpt lat="38.83787042182291" lon="-9.32804074822891"><ele>142.66666666666666</ele><time>2026-04-19T07:37:43Z</time></trkpt><trkpt lat="38.83802343127588" lon="-9.328050016938853"><ele>142.33333333333334</ele><time>2026-04-19T07:37:44Z</time></trkpt><trkpt lat="38.83817875615066" lon="-9.328044451932323"><ele>142.0</ele><time>2026-04-19T07:37:45Z</time></trkpt><trkpt lat="38.83833195798599" lon="-9.328036526105988"><ele>142.33333333333334</ele><time>2026-04-19T07:37:46Z</time></trkpt><trkpt lat="38.8384853970566" lon="-9.32802733891442"><ele>142.66666666666666</ele><time>2026-04-19T07:37:47Z</time></trkpt><trkpt lat="38.83863502758407" lon="-9.328018336910626"><ele>143.0</ele><time>2026-04-19T07:37:48Z</time></trkpt><trkpt lat="38.83878228420409" lon="-9.328009260057394"><ele>143.0</ele><time>2026-04-19T07:37:49Z</time></trkpt><trkpt lat="38.838926599911936" lon="-9.328005274857883"><ele>143.0</ele><time>2026-04-19T07:37:50Z</time></trkpt><trkpt lat="38.83905370745285" lon="-9.327996164129699"><ele>143.0</ele><time>2026-04-19T07:37:51Z</time></trkpt><trkpt lat="38.83917025067237" lon="-9.328000550507495"><ele>143.0</ele><time>2026-04-19T07:37:52Z</time></trkpt><trkpt lat="38.839293325535685" lon="-9.328057527379569"><ele>141.75</ele><time>2026-04-19T07:37:53Z</time></trkpt><trkpt lat="38.83941755290492" lon="-9.32810605450313"><ele>140.5</ele><time>2026-04-19T07:37:54Z</time></trkpt><trkpt lat="38.839544004108404" lon="-9.328185192040918"><ele>139.25</ele><time>2026-04-19T07:37:55Z</time></trkpt><trkpt lat="38.83966205778587" lon="-9.32829321809169"><ele>138.0</ele><time>2026-04-19T07:37:56Z</time></trkpt><trkpt lat="38.83978005137565" lon="-9.328403847194886"><ele>138.0</ele><time>2026-04-19T07:37:57Z</time></trkpt><trkpt lat="38.83989526588407" lon="-9.328513261994665"><ele>138.0</ele><time>2026-04-19T07:37:58Z</time></trkpt><trkpt lat="38.840018929818584" lon="-9.328619298346025"><ele>138.0</ele><time>2026-04-19T07:37:59Z</time></trkpt><trkpt lat="38.84013887644158" lon="-9.32872263857444"><ele>138.0</ele><time>2026-04-19T07:38:00Z</time></trkpt><trkpt lat="38.8402589532601" lon="-9.32882678329979"><ele>138.25</ele><time>2026-04-19T07:38:01Z</time></trkpt><trkpt lat="38.8403789972304" lon="-9.32892679470187"><ele>138.5</ele><time>2026-04-19T07:38:02Z</time></trkpt><trkpt lat="38.84049597939836" lon="-9.329018674135098"><ele>138.75</ele><time>2026-04-19T07:38:03Z</time></trkpt><trkpt lat="38.84061256791459" lon="-9.32908635619553"><ele>139.0</ele><time>2026-04-19T07:38:04Z</time></trkpt><trkpt lat="38.840718240570425" lon="-9.329159045262195"><ele>139.0</ele><time>2026-04-19T07:38:05Z</time></trkpt><trkpt lat="38.84081803417149" lon="-9.329205438971975"><ele>139.0</ele><time>2026-04-19T07:38:06Z</time></trkpt><trkpt lat="38.840913157704996" lon="-9.329258371027594"><ele>139.0</ele><time>2026-04-19T07:38:07Z</time></trkpt><trkpt lat="38.84097847731193" lon="-9.3292978687079"><ele>139.0</ele><time>2026-04-19T07:38:08Z</time></trkpt><trkpt lat="38.84102275866649" lon="-9.329086798702878"><ele>138.5</ele><time>2026-04-19T07:38:11Z</time></trkpt><trkpt lat="38.84106691441521" lon="-9.328978243619655"><ele>138.0</ele><time>2026-04-19T07:38:12Z</time></trkpt><trkpt lat="38.841107842651425" lon="-9.328848100843704"><ele>137.5</ele><time>2026-04-19T07:38:13Z</time></trkpt><trkpt lat="38.84114869964825" lon="-9.328714975564871"><ele>137.0</ele><time>2026-04-19T07:38:14Z</time></trkpt><trkpt lat="38.84120184916573" lon="-9.328547415910062"><ele>137.0</ele><time>2026-04-19T07:38:15Z</time></trkpt><trkpt lat="38.84125873422681" lon="-9.328384035526934"><ele>137.0</ele><time>2026-04-19T07:38:16Z</time></trkpt><trkpt lat="38.841322526965534" lon="-9.328202965422873"><ele>137.0</ele><time>2026-04-19T07:38:17Z</time></trkpt><trkpt lat="38.84138824738654" lon="-9.328010983292442"><ele>136.75</ele><time>2026-04-19T07:38:18Z</time></trkpt><trkpt lat="38.84144654495959" lon="-9.327828420350045"><ele>136.5</ele><time>2026-04-19T07:38:19Z</time></trkpt><trkpt lat="38.841496509712044" lon="-9.32766633672972"><ele>136.25</ele><time>2026-04-19T07:38:20Z</time></trkpt><trkpt lat="38.84153705797635" lon="-9.327530970215946"><ele>136.0</ele><time>2026-04-19T07:38:21Z</time></trkpt><trkpt lat="38.84157378944369" lon="-9.327404593236485"><ele>136.0</ele><time>2026-04-19T07:38:22Z</time></trkpt><trkpt lat="38.84161967476219" lon="-9.327293100793462"><ele>136.0</ele><time>2026-04-19T07:38:23Z</time></trkpt><trkpt lat="38.84164582164451" lon="-9.327198048264076"><ele>136.0</ele><time>2026-04-19T07:38:24Z</time></trkpt><trkpt lat="38.84178284335086" lon="-9.327202638717512"><ele>136.0</ele><time>2026-04-19T07:38:25Z</time></trkpt><trkpt lat="38.84189664784646" lon="-9.327176424777452"><ele>136.0</ele><time>2026-04-19T07:38:26Z</time></trkpt><trkpt lat="38.84201365037386" lon="-9.327144433241646"><ele>136.5</ele><time>2026-04-19T07:38:27Z</time></trkpt><trkpt lat="38.84213738105177" lon="-9.327144680331575"><ele>137.0</ele><time>2026-04-19T07:38:28Z</time></trkpt><trkpt lat="38.842267649906624" lon="-9.327165460226805"><ele>137.5</ele><time>2026-04-19T07:38:29Z</time></trkpt><trkpt lat="38.84240372151426" lon="-9.32718990007204"><ele>138.0</ele><time>2026-04-19T07:38:30Z</time></trkpt><trkpt lat="38.842545468802584" lon="-9.327205871204956"><ele>138.25</ele><time>2026-04-19T07:38:31Z</time></trkpt><trkpt lat="38.84267321559739" lon="-9.32721530421342"><ele>138.5</ele><time>2026-04-19T07:38:32Z</time></trkpt><trkpt lat="38.84280993460906" lon="-9.327223133508769"><ele>138.75</ele><time>2026-04-19T07:38:33Z</time></trkpt><trkpt lat="38.842942057473685" lon="-9.327237514944278"><ele>139.0</ele><time>2026-04-19T07:38:34Z</time></trkpt><trkpt lat="38.843084391212045" lon="-9.327249276902236"><ele>139.0</ele><time>2026-04-19T07:38:35Z</time></trkpt><trkpt lat="38.843229497641744" lon="-9.32727240214528"><ele>139.0</ele><time>2026-04-19T07:38:36Z</time></trkpt><trkpt lat="38.84337106036272" lon="-9.327289778399303"><ele>139.0</ele><time>2026-04-19T07:38:37Z</time></trkpt><trkpt lat="38.84349792045524" lon="-9.327298460629525"><ele>139.0</ele><time>2026-04-19T07:38:38Z</time></trkpt><trkpt lat="38.843644393135186" lon="-9.327349860028061"><ele>139.0</ele><time>2026-04-19T07:38:39Z</time></trkpt><trkpt lat="38.84376309105042" lon="-9.327336554697204"><ele>139.0</ele><time>2026-04-19T07:38:40Z</time></trkpt><trkpt lat="38.84389069923681" lon="-9.32729097453155"><ele>139.0</ele><time>2026-04-19T07:38:41Z</time></trkpt><trkpt lat="38.84401376559024" lon="-9.327234172488154"><ele>139.0</ele><time>2026-04-19T07:38:42Z</time></trkpt><trkpt lat="38.8441494209144" lon="-9.327175061784157"><ele>139.0</ele><time>2026-04-19T07:38:43Z</time></trkpt><trkpt lat="38.84427912714304" lon="-9.3271185432488"><ele>139.0</ele><time>2026-04-19T07:38:44Z</time></trkpt><trkpt lat="38.84442472553896" lon="-9.327083148790896"><ele>139.0</ele><time>2026-04-19T07:38:45Z</time></trkpt><trkpt lat="38.84456780730017" lon="-9.327044817258175"><ele>139.0</ele><time>2026-04-19T07:38:46Z</time></trkpt><trkpt lat="38.84471489289208" lon="-9.326997173093098"><ele>137.66666666666669</ele><time>2026-04-19T07:38:47Z</time></trkpt><trkpt lat="38.844860769975334" lon="-9.32698505283277"><ele>136.33333333333334</ele><time>2026-04-19T07:38:48Z</time></trkpt><trkpt lat="38.84500784755136" lon="-9.32699333077116"><ele>135.0</ele><time>2026-04-19T07:38:49Z</time></trkpt><trkpt lat="38.84516557716745" lon="-9.32699568814939"><ele>135.0</ele><time>2026-04-19T07:38:50Z</time></trkpt><trkpt lat="38.84530892591568" lon="-9.326988281752818"><ele>135.0</ele><time>2026-04-19T07:38:51Z</time></trkpt><trkpt lat="38.84545194900968" lon="-9.326973513710433"><ele>135.0</ele><time>2026-04-19T07:38:52Z</time></trkpt><trkpt lat="38.84559449802789" lon="-9.326962647041723"><ele>135.0</ele><time>2026-04-19T07:38:53Z</time></trkpt><trkpt lat="38.84572772732171" lon="-9.326945494241757"><ele>135.0</ele><time>2026-04-19T07:38:54Z</time></trkpt><trkpt lat="38.84587142236242" lon="-9.32692265040855"><ele>135.0</ele><time>2026-04-19T07:38:55Z</time></trkpt><trkpt lat="38.84601023347766" lon="-9.326885220209554"><ele>135.0</ele><time>2026-04-19T07:38:56Z</time></trkpt><trkpt lat="38.84614761623284" lon="-9.326855397503504"><ele>135.0</ele><time>2026-04-19T07:38:57Z</time></trkpt><trkpt lat="38.84628686884842" lon="-9.326848780517183"><ele>134.66666666666666</ele><time>2026-04-19T07:38:58Z</time></trkpt><trkpt lat="38.8464343328293" lon="-9.326877479818169"><ele>134.33333333333331</ele><time>2026-04-19T07:38:59Z</time></trkpt><trkpt lat="38.8465846615033" lon="-9.326924413697165"><ele>134.0</ele><time>2026-04-19T07:39:00Z</time></trkpt><trkpt lat="38.8467384785054" lon="-9.326980384384791"><ele>133.66666666666666</ele><time>2026-04-19T07:39:01Z</time></trkpt><trkpt lat="38.846888326289054" lon="-9.327033839319828"><ele>133.33333333333334</ele><time>2026-04-19T07:39:02Z</time></trkpt><trkpt lat="38.847033290137105" lon="-9.327094067900727"><ele>133.0</ele><time>2026-04-19T07:39:03Z</time></trkpt><trkpt lat="38.847174275754924" lon="-9.327168939417504"><ele>133.25</ele><time>2026-04-19T07:39:04Z</time></trkpt><trkpt lat="38.847294978751705" lon="-9.327251822964296"><ele>133.5</ele><time>2026-04-19T07:39:05Z</time></trkpt><trkpt lat="38.84740244968442" lon="-9.327324664690309"><ele>133.75</ele><time>2026-04-19T07:39:06Z</time></trkpt><trkpt lat="38.847515169685984" lon="-9.327364468495443"><ele>134.0</ele><time>2026-04-19T07:39:07Z</time></trkpt><trkpt lat="38.84764240684349" lon="-9.327326486258944"><ele>133.0</ele><time>2026-04-19T07:39:08Z</time></trkpt><trkpt lat="38.8477724084124" lon="-9.327308485784748"><ele>132.0</ele><time>2026-04-19T07:39:09Z</time></trkpt><trkpt lat="38.847905371409276" lon="-9.327301863392096"><ele>131.0</ele><time>2026-04-19T07:39:10Z</time></trkpt><trkpt lat="38.84804242146371" lon="-9.327275015497626"><ele>130.0</ele><time>2026-04-19T07:39:11Z</time></trkpt><trkpt lat="38.84818557170641" lon="-9.3272393333196"><ele>129.75</ele><time>2026-04-19T07:39:12Z</time></trkpt><trkpt lat="38.84832826680156" lon="-9.327218867128149"><ele>129.5</ele><time>2026-04-19T07:39:13Z</time></trkpt><trkpt lat="38.848468815243365" lon="-9.32718952926377"><ele>129.25</ele><time>2026-04-19T07:39:14Z</time></trkpt><trkpt lat="38.848605165119956" lon="-9.327177652041634"><ele>129.0</ele><time>2026-04-19T07:39:15Z</time></trkpt><trkpt lat="38.84873813286088" lon="-9.327225413342987"><ele>128.0</ele><time>2026-04-19T07:39:16Z</time></trkpt><trkpt lat="38.848874446229885" lon="-9.327216156559354"><ele>127.0</ele><time>2026-04-19T07:39:17Z</time></trkpt><trkpt lat="38.84898727165049" lon="-9.327235208971508"><ele>126.0</ele><time>2026-04-19T07:39:18Z</time></trkpt><trkpt lat="38.84910781529957" lon="-9.327211367469104"><ele>125.0</ele><time>2026-04-19T07:39:19Z</time></trkpt><trkpt lat="38.849234418084635" lon="-9.3271545470187"><ele>125.0</ele><time>2026-04-19T07:39:20Z</time></trkpt><trkpt lat="38.84936540000278" lon="-9.327095241712495"><ele>125.0</ele><time>2026-04-19T07:39:21Z</time></trkpt><trkpt lat="38.84950940540863" lon="-9.327040083184817"><ele>125.0</ele><time>2026-04-19T07:39:22Z</time></trkpt><trkpt lat="38.849672921109295" lon="-9.326994162910868"><ele>125.0</ele><time>2026-04-19T07:39:23Z</time></trkpt><trkpt lat="38.849849183822414" lon="-9.326952251952392"><ele>125.0</ele><time>2026-04-19T07:39:24Z</time></trkpt><trkpt lat="38.850030499825486" lon="-9.326906777471196"><ele>125.0</ele><time>2026-04-19T07:39:25Z</time></trkpt><trkpt lat="38.850218131591774" lon="-9.32684668774196"><ele>126.66666666666666</ele><time>2026-04-19T07:39:26Z</time></trkpt><trkpt lat="38.850406455187965" lon="-9.326797074702815"><ele>128.33333333333334</ele><time>2026-04-19T07:39:27Z</time></trkpt><trkpt lat="38.850587359857805" lon="-9.326754375246306"><ele>130.0</ele><time>2026-04-19T07:39:28Z</time></trkpt><trkpt lat="38.8507672877808" lon="-9.32671922535661"><ele>130.0</ele><time>2026-04-19T07:39:29Z</time></trkpt><trkpt lat="38.850947296982966" lon="-9.326685913976071"><ele>130.0</ele><time>2026-04-19T07:39:30Z</time></trkpt><trkpt lat="38.85112437664983" lon="-9.32666455746922"><ele>130.0</ele><time>2026-04-19T07:39:31Z</time></trkpt><trkpt lat="38.85129613452593" lon="-9.32664826990217"><ele>131.66666666666669</ele><time>2026-04-19T07:39:32Z</time></trkpt><trkpt lat="38.851473578815806" lon="-9.326637130172545"><ele>133.33333333333334</ele><time>2026-04-19T07:39:33Z</time></trkpt><trkpt lat="38.851654321608166" lon="-9.32663464551721"><ele>135.0</ele><time>2026-04-19T07:39:34Z</time></trkpt><trkpt lat="38.85183249751722" lon="-9.326641318842029"><ele>136.33333333333334</ele><time>2026-04-19T07:39:35Z</time></trkpt><trkpt lat="38.85200848049719" lon="-9.326648448283875"><ele>137.66666666666669</ele><time>2026-04-19T07:39:36Z</time></trkpt><trkpt lat="38.852183940057934" lon="-9.326650273547347"><ele>139.0</ele><time>2026-04-19T07:39:37Z</time></trkpt><trkpt lat="38.852361431284734" lon="-9.326660219804854"><ele>139.0</ele><time>2026-04-19T07:39:38Z</time></trkpt><trkpt lat="38.852537533471356" lon="-9.32666177786386"><ele>139.0</ele><time>2026-04-19T07:39:39Z</time></trkpt><trkpt lat="38.85271394424315" lon="-9.326661839037866"><ele>139.0</ele><time>2026-04-19T07:39:40Z</time></trkpt><trkpt lat="38.852886131059364" lon="-9.326655070057107"><ele>140.66666666666669</ele><time>2026-04-19T07:39:41Z</time></trkpt><trkpt lat="38.853052574888935" lon="-9.326605271019119"><ele>142.33333333333334</ele><time>2026-04-19T07:39:42Z</time></trkpt><trkpt lat="38.85320617047062" lon="-9.326576713895866"><ele>144.0</ele><time>2026-04-19T07:39:43Z</time></trkpt><trkpt lat="38.853334536700864" lon="-9.326526164411042"><ele>144.0</ele><time>2026-04-19T07:39:44Z</time></trkpt><trkpt lat="38.85345141436498" lon="-9.32647558386756"><ele>144.0</ele><time>2026-04-19T07:39:45Z</time></trkpt><trkpt lat="38.85354680061925" lon="-9.326436781108272"><ele>144.0</ele><time>2026-04-19T07:39:46Z</time></trkpt><trkpt lat="38.8536492018843" lon="-9.32639882919589"><ele>144.0</ele><time>2026-04-19T07:39:47Z</time></trkpt><trkpt lat="38.853755107463" lon="-9.32636824152831"><ele>144.0</ele><time>2026-04-19T07:39:48Z</time></trkpt><trkpt lat="38.85386674563278" lon="-9.32631816384868"><ele>145.0</ele><time>2026-04-19T07:39:49Z</time></trkpt><trkpt lat="38.853984580906875" lon="-9.326272750621012"><ele>146.0</ele><time>2026-04-19T07:39:50Z</time></trkpt><trkpt lat="38.854106319748276" lon="-9.326242950596514"><ele>147.0</ele><time>2026-04-19T07:39:51Z</time></trkpt><trkpt lat="38.85422791347971" lon="-9.326186060383915"><ele>148.0</ele><time>2026-04-19T07:39:52Z</time></trkpt><trkpt lat="38.85434749507292" lon="-9.32617049649695"><ele>148.0</ele><time>2026-04-19T07:39:53Z</time></trkpt><trkpt lat="38.85447386784406" lon="-9.326196409585204"><ele>148.0</ele><time>2026-04-19T07:39:54Z</time></trkpt><trkpt lat="38.85460228736684" lon="-9.326241887346379"><ele>148.0</ele><time>2026-04-19T07:39:55Z</time></trkpt><trkpt lat="38.85472840853856" lon="-9.32630107131281"><ele>148.0</ele><time>2026-04-19T07:39:56Z</time></trkpt><trkpt lat="38.85485854166515" lon="-9.326337311013004"><ele>148.0</ele><time>2026-04-19T07:39:57Z</time></trkpt><trkpt lat="38.854990047982284" lon="-9.326269403265758"><ele>148.0</ele><time>2026-04-19T07:39:58Z</time></trkpt><trkpt lat="38.85512677533722" lon="-9.326213175942284"><ele>148.0</ele><time>2026-04-19T07:39:59Z</time></trkpt><trkpt lat="38.85525969745198" lon="-9.32615515949964"><ele>148.0</ele><time>2026-04-19T07:40:00Z</time></trkpt><trkpt lat="38.85538782305054" lon="-9.326088080103217"><ele>148.5</ele><time>2026-04-19T07:40:01Z</time></trkpt><trkpt lat="38.85551272085564" lon="-9.326034560195911"><ele>149.0</ele><time>2026-04-19T07:40:02Z</time></trkpt><trkpt lat="38.85564542526599" lon="-9.32597688681173"><ele>149.5</ele><time>2026-04-19T07:40:03Z</time></trkpt><trkpt lat="38.85578053957004" lon="-9.325942497636321"><ele>150.0</ele><time>2026-04-19T07:40:04Z</time></trkpt><trkpt lat="38.85590300193928" lon="-9.32590797508533"><ele>150.6</ele><time>2026-04-19T07:40:05Z</time></trkpt><trkpt lat="38.856013675452616" lon="-9.325876422604738"><ele>151.2</ele><time>2026-04-19T07:40:06Z</time></trkpt><trkpt lat="38.85610947368285" lon="-9.32586144488073"><ele>151.8</ele><time>2026-04-19T07:40:07Z</time></trkpt><trkpt lat="38.856194173248" lon="-9.325843670004891"><ele>152.4</ele><time>2026-04-19T07:40:08Z</time></trkpt><trkpt lat="38.85625968078196" lon="-9.325824338213375"><ele>153.0</ele><time>2026-04-19T07:40:09Z</time></trkpt><trkpt lat="38.85636964247773" lon="-9.325745027643542"><ele>153.0</ele><time>2026-04-19T07:40:11Z</time></trkpt><trkpt lat="38.85641034177898" lon="-9.32564075441488"><ele>153.0</ele><time>2026-04-19T07:40:12Z</time></trkpt><trkpt lat="38.85644669956414" lon="-9.325533632371998"><ele>153.0</ele><time>2026-04-19T07:40:13Z</time></trkpt><trkpt lat="38.85651570546564" lon="-9.32545018108998"><ele>153.0</ele><time>2026-04-19T07:40:14Z</time></trkpt><trkpt lat="38.85661052167183" lon="-9.325401474115298"><ele>153.0</ele><time>2026-04-19T07:40:15Z</time></trkpt><trkpt lat="38.8567129104561" lon="-9.325337991696427"><ele>154.75</ele><time>2026-04-19T07:40:16Z</time></trkpt><trkpt lat="38.85684275474095" lon="-9.325254961839407"><ele>156.5</ele><time>2026-04-19T07:40:17Z</time></trkpt><trkpt lat="38.8569757569226" lon="-9.325171809984218"><ele>158.25</ele><time>2026-04-19T07:40:18Z</time></trkpt><trkpt lat="38.85710577675011" lon="-9.325092788203122"><ele>160.0</ele><time>2026-04-19T07:40:19Z</time></trkpt><trkpt lat="38.85722676531265" lon="-9.32502930814891"><ele>160.0</ele><time>2026-04-19T07:40:20Z</time></trkpt><trkpt lat="38.85737501573782" lon="-9.324927069581062"><ele>160.0</ele><time>2026-04-19T07:40:21Z</time></trkpt><trkpt lat="38.8575385412898" lon="-9.324849958984284"><ele>160.0</ele><time>2026-04-19T07:40:22Z</time></trkpt><trkpt lat="38.8577080231182" lon="-9.32476726444963"><ele>161.66666666666669</ele><time>2026-04-19T07:40:23Z</time></trkpt><trkpt lat="38.857873325926484" lon="-9.324684684541344"><ele>163.33333333333334</ele><time>2026-04-19T07:40:24Z</time></trkpt><trkpt lat="38.85802519749048" lon="-9.32459894076545"><ele>165.0</ele><time>2026-04-19T07:40:25Z</time></trkpt><trkpt lat="38.85814653912368" lon="-9.324477465685026"><ele>165.0</ele><time>2026-04-19T07:40:26Z</time></trkpt><trkpt lat="38.85827153122112" lon="-9.324367427722002"><ele>165.0</ele><time>2026-04-19T07:40:27Z</time></trkpt><trkpt lat="38.85838339187468" lon="-9.32423043679458"><ele>165.0</ele><time>2026-04-19T07:40:28Z</time></trkpt><trkpt lat="38.858507493543364" lon="-9.32411319261793"><ele>164.66666666666666</ele><time>2026-04-19T07:40:29Z</time></trkpt><trkpt lat="38.858650249881954" lon="-9.324017017877681"><ele>164.33333333333331</ele><time>2026-04-19T07:40:30Z</time></trkpt><trkpt lat="38.8588008016771" lon="-9.323931047949879"><ele>164.0</ele><time>2026-04-19T07:40:31Z</time></trkpt><trkpt lat="38.85894360192548" lon="-9.323845859395858"><ele>164.75</ele><time>2026-04-19T07:40:32Z</time></trkpt><trkpt lat="38.85907008793045" lon="-9.323749845969955"><ele>165.5</ele><time>2026-04-19T07:40:33Z</time></trkpt><trkpt lat="38.859182628965534" lon="-9.323679617267215"><ele>166.25</ele><time>2026-04-19T07:40:34Z</time></trkpt><trkpt lat="38.85928264610934" lon="-9.323622950350188"><ele>167.0</ele><time>2026-04-19T07:40:35Z</time></trkpt><trkpt lat="38.85937323929163" lon="-9.323585509876706"><ele>167.39999999999998</ele><time>2026-04-19T07:40:36Z</time></trkpt><trkpt lat="38.85945764592177" lon="-9.323584924064342"><ele>167.79999999999998</ele><time>2026-04-19T07:40:37Z</time></trkpt><trkpt lat="38.859537244411285" lon="-9.323576244182606"><ele>168.2</ele><time>2026-04-19T07:40:38Z</time></trkpt><trkpt lat="38.859605633561095" lon="-9.323564505037481"><ele>168.6</ele><time>2026-04-19T07:40:39Z</time></trkpt><trkpt lat="38.859596263033616" lon="-9.323298524343137"><ele>169.0</ele><time>2026-04-19T07:40:40Z</time></trkpt><trkpt lat="38.85964233007549" lon="-9.323166847982087"><ele>168.25</ele><time>2026-04-19T07:40:41Z</time></trkpt><trkpt lat="38.85970708605995" lon="-9.32303206961047"><ele>167.5</ele><time>2026-04-19T07:40:42Z</time></trkpt><trkpt lat="38.85976246634431" lon="-9.322871373501572"><ele>166.75</ele><time>2026-04-19T07:40:43Z</time></trkpt><trkpt lat="38.859821459425945" lon="-9.322685989331639"><ele>166.0</ele><time>2026-04-19T07:40:44Z</time></trkpt><trkpt lat="38.85989250290559" lon="-9.322493936564989"><ele>166.0</ele><time>2026-04-19T07:40:45Z</time></trkpt><trkpt lat="38.859962288797455" lon="-9.322287749358342"><ele>166.0</ele><time>2026-04-19T07:40:46Z</time></trkpt><trkpt lat="38.86003940568075" lon="-9.322077046525953"><ele>166.0</ele><time>2026-04-19T07:40:47Z</time></trkpt><trkpt lat="38.860109516282215" lon="-9.321881308641709"><ele>166.66666666666669</ele><time>2026-04-19T07:40:48Z</time></trkpt><trkpt lat="38.86018103065333" lon="-9.321671372883042"><ele>167.33333333333334</ele><time>2026-04-19T07:40:49Z</time></trkpt><trkpt lat="38.860252944158255" lon="-9.321462782489712"><ele>168.0</ele><time>2026-04-19T07:40:50Z</time></trkpt><trkpt lat="38.8603249901649" lon="-9.321251911322987"><ele>168.33333333333334</ele><time>2026-04-19T07:40:51Z</time></trkpt><trkpt lat="38.86039984152274" lon="-9.321048011733069"><ele>168.66666666666669</ele><time>2026-04-19T07:40:52Z</time></trkpt><trkpt lat="38.860475630930814" lon="-9.320830272447404"><ele>169.0</ele><time>2026-04-19T07:40:53Z</time></trkpt><trkpt lat="38.86055056753303" lon="-9.320613915649032"><ele>168.33333333333334</ele><time>2026-04-19T07:40:54Z</time></trkpt><trkpt lat="38.8606301700718" lon="-9.320413278261224"><ele>167.66666666666666</ele><time>2026-04-19T07:40:55Z</time></trkpt><trkpt lat="38.86071753306525" lon="-9.320213223404819"><ele>167.0</ele><time>2026-04-19T07:40:56Z</time></trkpt><trkpt lat="38.8608004828764" lon="-9.320003111053094"><ele>167.0</ele><time>2026-04-19T07:40:57Z</time></trkpt><trkpt lat="38.86088158757005" lon="-9.319801185631874"><ele>167.0</ele><time>2026-04-19T07:40:58Z</time></trkpt><trkpt lat="38.860951131371564" lon="-9.319595000240943"><ele>167.0</ele><time>2026-04-19T07:40:59Z</time></trkpt><trkpt lat="38.861001466022614" lon="-9.319381699859148"><ele>168.0</ele><time>2026-04-19T07:41:00Z</time></trkpt><trkpt lat="38.86101992386475" lon="-9.31915946776734"><ele>169.0</ele><time>2026-04-19T07:41:01Z</time></trkpt><trkpt lat="38.86096292194211" lon="-9.318948548365329"><ele>170.0</ele><time>2026-04-19T07:41:02Z</time></trkpt><trkpt lat="38.86091402295364" lon="-9.318727523420948"><ele>167.0</ele><time>2026-04-19T07:41:03Z</time></trkpt><trkpt lat="38.86082738229596" lon="-9.31852339216071"><ele>164.0</ele><time>2026-04-19T07:41:04Z</time></trkpt><trkpt lat="38.86074650922154" lon="-9.318307970396717"><ele>161.0</ele><time>2026-04-19T07:41:05Z</time></trkpt><trkpt lat="38.860662860370525" lon="-9.318094380749509"><ele>160.66666666666666</ele><time>2026-04-19T07:41:06Z</time></trkpt><trkpt lat="38.86057537931528" lon="-9.317884290835892"><ele>160.33333333333334</ele><time>2026-04-19T07:41:07Z</time></trkpt><trkpt lat="38.86048749758779" lon="-9.317681176714093"><ele>160.0</ele><time>2026-04-19T07:41:08Z</time></trkpt><trkpt lat="38.86039298273368" lon="-9.317475633508543"><ele>160.0</ele><time>2026-04-19T07:41:09Z</time></trkpt><trkpt lat="38.86031342931603" lon="-9.317266558607633"><ele>160.0</ele><time>2026-04-19T07:41:10Z</time></trkpt><trkpt lat="38.86022003972269" lon="-9.317066207889683"><ele>160.0</ele><time>2026-04-19T07:41:11Z</time></trkpt><trkpt lat="38.86013546071619" lon="-9.31685946581845"><ele>159.66666666666669</ele><time>2026-04-19T07:41:12Z</time></trkpt><trkpt lat="38.860067335615156" lon="-9.316653601393266"><ele>159.33333333333334</ele><time>2026-04-19T07:41:13Z</time></trkpt><trkpt lat="38.86001495720856" lon="-9.316438258376627"><ele>159.0</ele><time>2026-04-19T07:41:14Z</time></trkpt><trkpt lat="38.859997641799986" lon="-9.316228508923109"><ele>158.0</ele><time>2026-04-19T07:41:15Z</time></trkpt><trkpt lat="38.86002168795315" lon="-9.316012060595783"><ele>157.0</ele><time>2026-04-19T07:41:16Z</time></trkpt><trkpt lat="38.860066661432995" lon="-9.315788707852088"><ele>156.0</ele><time>2026-04-19T07:41:17Z</time></trkpt><trkpt lat="38.860125627111586" lon="-9.315570527537487"><ele>158.0</ele><time>2026-04-19T07:41:18Z</time></trkpt><trkpt lat="38.86019403055185" lon="-9.315353491327928"><ele>160.0</ele><time>2026-04-19T07:41:19Z</time></trkpt><trkpt lat="38.86025932169805" lon="-9.315140188034436"><ele>162.0</ele><time>2026-04-19T07:41:20Z</time></trkpt><trkpt lat="38.86032139971264" lon="-9.314919194881407"><ele>162.33333333333334</ele><time>2026-04-19T07:41:21Z</time></trkpt><trkpt lat="38.86038481435366" lon="-9.314703344700431"><ele>162.66666666666669</ele><time>2026-04-19T07:41:22Z</time></trkpt><trkpt lat="38.8604520931988" lon="-9.31448967294492"><ele>163.0</ele><time>2026-04-19T07:41:23Z</time></trkpt><trkpt lat="38.8605147277115" lon="-9.314271022496797"><ele>163.0</ele><time>2026-04-19T07:41:24Z</time></trkpt><trkpt lat="38.86056405423857" lon="-9.314054319486212"><ele>163.0</ele><time>2026-04-19T07:41:25Z</time></trkpt><trkpt lat="38.86060104471257" lon="-9.313870823830777"><ele>163.0</ele><time>2026-04-19T07:41:26Z</time></trkpt><trkpt lat="38.860626926519636" lon="-9.313689479499377"><ele>162.66666666666669</ele><time>2026-04-19T07:41:27Z</time></trkpt><trkpt lat="38.860663467762315" lon="-9.313489043278194"><ele>162.33333333333334</ele><time>2026-04-19T07:41:28Z</time></trkpt><trkpt lat="38.86069282778208" lon="-9.313272013780567"><ele>162.0</ele><time>2026-04-19T07:41:29Z</time></trkpt><trkpt lat="38.86068981627618" lon="-9.313047324972068"><ele>162.0</ele><time>2026-04-19T07:41:30Z</time></trkpt><trkpt lat="38.860695203134505" lon="-9.312826271545896"><ele>162.0</ele><time>2026-04-19T07:41:31Z</time></trkpt><trkpt lat="38.860714592372396" lon="-9.312595760822454"><ele>162.0</ele><time>2026-04-19T07:41:32Z</time></trkpt><trkpt lat="38.86070968094271" lon="-9.31237643648262"><ele>162.25</ele><time>2026-04-19T07:41:33Z</time></trkpt><trkpt lat="38.86070603268617" lon="-9.312165624378052"><ele>162.5</ele><time>2026-04-19T07:41:34Z</time></trkpt><trkpt lat="38.86070374523049" lon="-9.311976993754628"><ele>162.75</ele><time>2026-04-19T07:41:35Z</time></trkpt><trkpt lat="38.86070402884237" lon="-9.311804518352906"><ele>163.0</ele><time>2026-04-19T07:41:36Z</time></trkpt><trkpt lat="38.86070738370843" lon="-9.311634995085937"><ele>163.0</ele><time>2026-04-19T07:41:37Z</time></trkpt><trkpt lat="38.860729303618555" lon="-9.31148470383737"><ele>163.0</ele><time>2026-04-19T07:41:38Z</time></trkpt><trkpt lat="38.86077339403777" lon="-9.311329203916001"><ele>163.0</ele><time>2026-04-19T07:41:39Z</time></trkpt><trkpt lat="38.860851994148696" lon="-9.311175500930506"><ele>163.0</ele><time>2026-04-19T07:41:40Z</time></trkpt><trkpt lat="38.86095938362876" lon="-9.311041596568701"><ele>164.66666666666669</ele><time>2026-04-19T07:41:41Z</time></trkpt><trkpt lat="38.861084711234945" lon="-9.310925873571547"><ele>166.33333333333334</ele><time>2026-04-19T07:41:42Z</time></trkpt><trkpt lat="38.861213982182726" lon="-9.310812978510802"><ele>168.0</ele><time>2026-04-19T07:41:43Z</time></trkpt><trkpt lat="38.86133871130875" lon="-9.310687718005942"><ele>168.75</ele><time>2026-04-19T07:41:44Z</time></trkpt><trkpt lat="38.861463459332114" lon="-9.310564837340694"><ele>169.5</ele><time>2026-04-19T07:41:45Z</time></trkpt><trkpt lat="38.86156575392995" lon="-9.310440042460007"><ele>170.25</ele><time>2026-04-19T07:41:46Z</time></trkpt><trkpt lat="38.86164167814875" lon="-9.310304281641438"><ele>171.0</ele><time>2026-04-19T07:41:47Z</time></trkpt><trkpt lat="38.861685395261276" lon="-9.310139828297782"><ele>171.0</ele><time>2026-04-19T07:41:48Z</time></trkpt><trkpt lat="38.861722281168824" lon="-9.309975303501663"><ele>171.0</ele><time>2026-04-19T07:41:49Z</time></trkpt><trkpt lat="38.861742380673235" lon="-9.309830920071281"><ele>171.0</ele><time>2026-04-19T07:41:50Z</time></trkpt><trkpt lat="38.86177109979789" lon="-9.309704373664593"><ele>171.0</ele><time>2026-04-19T07:41:51Z</time></trkpt><trkpt lat="38.86173061702953" lon="-9.309586388945032"><ele>170.0</ele><time>2026-04-19T07:41:52Z</time></trkpt><trkpt lat="38.861683989702804" lon="-9.309468282428279"><ele>169.0</ele><time>2026-04-19T07:41:53Z</time></trkpt><trkpt lat="38.86159181183928" lon="-9.309379682350515"><ele>168.0</ele><time>2026-04-19T07:41:54Z</time></trkpt><trkpt lat="38.86149002096944" lon="-9.309248972181917"><ele>167.0</ele><time>2026-04-19T07:41:55Z</time></trkpt><trkpt lat="38.861400522278906" lon="-9.30910072302716"><ele>167.0</ele><time>2026-04-19T07:41:56Z</time></trkpt><trkpt lat="38.86129584735413" lon="-9.308976353407084"><ele>167.0</ele><time>2026-04-19T07:41:57Z</time></trkpt><trkpt lat="38.861200383801474" lon="-9.308843819119753"><ele>167.0</ele><time>2026-04-19T07:41:58Z</time></trkpt><trkpt lat="38.86109839098914" lon="-9.308712844662667"><ele>167.0</ele><time>2026-04-19T07:41:59Z</time></trkpt><trkpt lat="38.86100797081518" lon="-9.30859814156468"><ele>165.0</ele><time>2026-04-19T07:42:00Z</time></trkpt><trkpt lat="38.86091942677663" lon="-9.308485061261312"><ele>163.0</ele><time>2026-04-19T07:42:01Z</time></trkpt><trkpt lat="38.860849501635094" lon="-9.308376915633195"><ele>161.0</ele><time>2026-04-19T07:42:02Z</time></trkpt><trkpt lat="38.86080226465191" lon="-9.308259438856519"><ele>159.0</ele><time>2026-04-19T07:42:03Z</time></trkpt><trkpt lat="38.86080267110385" lon="-9.308126307656414"><ele>157.0</ele><time>2026-04-19T07:42:04Z</time></trkpt><trkpt lat="38.86083879452024" lon="-9.307976852364437"><ele>156.0</ele><time>2026-04-19T07:42:05Z</time></trkpt><trkpt lat="38.86092189770178" lon="-9.307838635578324"><ele>155.0</ele><time>2026-04-19T07:42:06Z</time></trkpt><trkpt lat="38.86103381042945" lon="-9.307700658307525"><ele>154.0</ele><time>2026-04-19T07:42:07Z</time></trkpt><trkpt lat="38.8611716829455" lon="-9.307550552929522"><ele>154.0</ele><time>2026-04-19T07:42:08Z</time></trkpt><trkpt lat="38.86131860768542" lon="-9.307396454209432"><ele>154.0</ele><time>2026-04-19T07:42:09Z</time></trkpt><trkpt lat="38.86146350710173" lon="-9.307228577504638"><ele>154.0</ele><time>2026-04-19T07:42:10Z</time></trkpt><trkpt lat="38.8616140720728" lon="-9.307056688494878"><ele>154.0</ele><time>2026-04-19T07:42:11Z</time></trkpt><trkpt lat="38.861770942599726" lon="-9.306880318967142"><ele>154.0</ele><time>2026-04-19T07:42:12Z</time></trkpt><trkpt lat="38.86191958602633" lon="-9.306701690219967"><ele>154.0</ele><time>2026-04-19T07:42:13Z</time></trkpt><trkpt lat="38.86207512505755" lon="-9.306505454219279"><ele>153.66666666666669</ele><time>2026-04-19T07:42:14Z</time></trkpt><trkpt lat="38.862233062244805" lon="-9.306304262999394"><ele>153.33333333333334</ele><time>2026-04-19T07:42:15Z</time></trkpt><trkpt lat="38.862382504561474" lon="-9.306088910407464"><ele>153.0</ele><time>2026-04-19T07:42:16Z</time></trkpt><trkpt lat="38.86252424926077" lon="-9.305860450479864"><ele>153.0</ele><time>2026-04-19T07:42:17Z</time></trkpt><trkpt lat="38.862666226104956" lon="-9.305625387030656"><ele>153.0</ele><time>2026-04-19T07:42:18Z</time></trkpt><trkpt lat="38.86280751344016" lon="-9.305394502567196"><ele>153.0</ele><time>2026-04-19T07:42:19Z</time></trkpt><trkpt lat="38.862942139952445" lon="-9.305171734643416"><ele>153.0</ele><time>2026-04-19T07:42:20Z</time></trkpt><trkpt lat="38.86308471082211" lon="-9.30493768811435"><ele>153.33333333333334</ele><time>2026-04-19T07:42:21Z</time></trkpt><trkpt lat="38.86321438460687" lon="-9.304722234772136"><ele>153.66666666666669</ele><time>2026-04-19T07:42:22Z</time></trkpt><trkpt lat="38.863327458383786" lon="-9.304537757683821"><ele>154.0</ele><time>2026-04-19T07:42:23Z</time></trkpt><trkpt lat="38.86343242774655" lon="-9.304381314266392"><ele>154.0</ele><time>2026-04-19T07:42:24Z</time></trkpt><trkpt lat="38.86348717642678" lon="-9.30426088098289"><ele>154.0</ele><time>2026-04-19T07:42:25Z</time></trkpt><trkpt lat="38.8635132521411" lon="-9.304167914183772"><ele>154.0</ele><time>2026-04-19T07:42:26Z</time></trkpt><trkpt lat="38.863575253070614" lon="-9.30404762459244"><ele>154.0</ele><time>2026-04-19T07:42:28Z</time></trkpt><trkpt lat="38.863616364051644" lon="-9.3039609075868"><ele>154.0</ele><time>2026-04-19T07:42:29Z</time></trkpt><trkpt lat="38.863660933699904" lon="-9.303862627552551"><ele>154.2</ele><time>2026-04-19T07:42:30Z</time></trkpt><trkpt lat="38.863703314952915" lon="-9.303764848663974"><ele>154.4</ele><time>2026-04-19T07:42:31Z</time></trkpt><trkpt lat="38.86374849144925" lon="-9.303676538819346"><ele>154.6</ele><time>2026-04-19T07:42:32Z</time></trkpt><trkpt lat="38.86379837717355" lon="-9.303585699686284"><ele>154.8</ele><time>2026-04-19T07:42:33Z</time></trkpt><trkpt lat="38.863848230209705" lon="-9.303484304103701"><ele>155.0</ele><time>2026-04-19T07:42:34Z</time></trkpt><trkpt lat="38.863876121375704" lon="-9.303342244556509"><ele>155.0</ele><time>2026-04-19T07:42:35Z</time></trkpt><trkpt lat="38.86391374814947" lon="-9.303190124415076"><ele>155.0</ele><time>2026-04-19T07:42:36Z</time></trkpt><trkpt lat="38.86395992274898" lon="-9.303038583754866"><ele>155.0</ele><time>2026-04-19T07:42:37Z</time></trkpt><trkpt lat="38.863984877551474" lon="-9.30287869588027"><ele>155.0</ele><time>2026-04-19T07:42:38Z</time></trkpt><trkpt lat="38.86401285949591" lon="-9.302715276540876"><ele>155.25</ele><time>2026-04-19T07:42:39Z</time></trkpt><trkpt lat="38.86403398293484" lon="-9.30254254584871"><ele>155.5</ele><time>2026-04-19T07:42:40Z</time></trkpt><trkpt lat="38.864031862438814" lon="-9.302364020550677"><ele>155.75</ele><time>2026-04-19T07:42:41Z</time></trkpt><trkpt lat="38.86403933399354" lon="-9.302183833542035"><ele>156.0</ele><time>2026-04-19T07:42:42Z</time></trkpt><trkpt lat="38.86404315505537" lon="-9.301983277313841"><ele>156.33333333333334</ele><time>2026-04-19T07:42:43Z</time></trkpt><trkpt lat="38.8640430310466" lon="-9.301763466771467"><ele>156.66666666666669</ele><time>2026-04-19T07:42:44Z</time></trkpt><trkpt lat="38.86404267307524" lon="-9.301520510528903"><ele>157.0</ele><time>2026-04-19T07:42:45Z</time></trkpt><trkpt lat="38.86405458016151" lon="-9.301273610734512"><ele>158.0</ele><time>2026-04-19T07:42:46Z</time></trkpt><trkpt lat="38.864042420940066" lon="-9.301017721454782"><ele>159.0</ele><time>2026-04-19T07:42:47Z</time></trkpt><trkpt lat="38.86406399460307" lon="-9.300755814331131"><ele>160.0</ele><time>2026-04-19T07:42:48Z</time></trkpt><trkpt lat="38.86410547632885" lon="-9.30050472600198"><ele>160.0</ele><time>2026-04-19T07:42:49Z</time></trkpt><trkpt lat="38.86417673581548" lon="-9.30026433465861"><ele>160.0</ele><time>2026-04-19T07:42:50Z</time></trkpt><trkpt lat="38.86425721522185" lon="-9.30005809148659"><ele>160.0</ele><time>2026-04-19T07:42:51Z</time></trkpt><trkpt lat="38.8643415693388" lon="-9.299884104505074"><ele>160.4</ele><time>2026-04-19T07:42:52Z</time></trkpt><trkpt lat="38.86443187802692" lon="-9.299738993677812"><ele>160.8</ele><time>2026-04-19T07:42:53Z</time></trkpt><trkpt lat="38.864511339437136" lon="-9.299633442538017"><ele>161.2</ele><time>2026-04-19T07:42:54Z</time></trkpt><trkpt lat="38.86457453699857" lon="-9.299538104561755"><ele>161.6</ele><time>2026-04-19T07:42:55Z</time></trkpt><trkpt lat="38.86460301949584" lon="-9.299441953552533"><ele>162.0</ele><time>2026-04-19T07:42:56Z</time></trkpt><trkpt lat="38.864578786876905" lon="-9.29932966162045"><ele>162.0</ele><time>2026-04-19T07:42:57Z</time></trkpt><trkpt lat="38.86451630911978" lon="-9.299214655502185"><ele>162.0</ele><time>2026-04-19T07:42:58Z</time></trkpt><trkpt lat="38.864475991058626" lon="-9.299094291250796"><ele>162.0</ele><time>2026-04-19T07:42:59Z</time></trkpt><trkpt lat="38.86449031997841" lon="-9.298992700848965"><ele>162.0</ele><time>2026-04-19T07:43:00Z</time></trkpt><trkpt lat="38.86454638113957" lon="-9.298880196580196"><ele>162.0</ele><time>2026-04-19T07:43:01Z</time></trkpt><trkpt lat="38.864626075630504" lon="-9.298741546429152"><ele>162.66666666666666</ele><time>2026-04-19T07:43:02Z</time></trkpt><trkpt lat="38.86470176657068" lon="-9.29856765679199"><ele>163.33333333333331</ele><time>2026-04-19T07:43:03Z</time></trkpt><trkpt lat="38.86474536943236" lon="-9.298353256143088"><ele>164.0</ele><time>2026-04-19T07:43:04Z</time></trkpt><trkpt lat="38.86476293204477" lon="-9.298113732954938"><ele>164.0</ele><time>2026-04-19T07:43:05Z</time></trkpt><trkpt lat="38.864784846139884" lon="-9.297865990524336"><ele>164.0</ele><time>2026-04-19T07:43:06Z</time></trkpt><trkpt lat="38.86481135465067" lon="-9.297611154052511"><ele>164.0</ele><time>2026-04-19T07:43:07Z</time></trkpt><trkpt lat="38.864836780149076" lon="-9.29734980837617"><ele>164.0</ele><time>2026-04-19T07:43:08Z</time></trkpt><trkpt lat="38.8648681370904" lon="-9.297079715413997"><ele>164.0</ele><time>2026-04-19T07:43:09Z</time></trkpt><trkpt lat="38.86490577440571" lon="-9.29680395646429"><ele>164.0</ele><time>2026-04-19T07:43:10Z</time></trkpt><trkpt lat="38.86495359698373" lon="-9.296521329916304"><ele>164.66666666666666</ele><time>2026-04-19T07:43:11Z</time></trkpt><trkpt lat="38.86502212540542" lon="-9.296244528071304"><ele>165.33333333333334</ele><time>2026-04-19T07:43:12Z</time></trkpt><trkpt lat="38.8650927834199" lon="-9.296002079363193"><ele>166.0</ele><time>2026-04-19T07:43:13Z</time></trkpt><trkpt lat="38.86516689410179" lon="-9.295804203826926"><ele>166.0</ele><time>2026-04-19T07:43:14Z</time></trkpt><trkpt lat="38.86524540087362" lon="-9.29563252296149"><ele>166.0</ele><time>2026-04-19T07:43:15Z</time></trkpt><trkpt lat="38.86531585513776" lon="-9.295478777715532"><ele>166.0</ele><time>2026-04-19T07:43:16Z</time></trkpt><trkpt lat="38.86539379616387" lon="-9.295315152706918"><ele>166.0</ele><time>2026-04-19T07:43:17Z</time></trkpt><trkpt lat="38.865482667694934" lon="-9.295138779519744"><ele>166.66666666666669</ele><time>2026-04-19T07:43:18Z</time></trkpt><trkpt lat="38.865569938720455" lon="-9.29494244262711"><ele>167.33333333333334</ele><time>2026-04-19T07:43:19Z</time></trkpt><trkpt lat="38.86565271719706" lon="-9.29473118752313"><ele>168.0</ele><time>2026-04-19T07:43:20Z</time></trkpt><trkpt lat="38.86574213618167" lon="-9.29452147540585"><ele>169.33333333333334</ele><time>2026-04-19T07:43:21Z</time></trkpt><trkpt lat="38.86582985307209" lon="-9.29429950343723"><ele>170.66666666666669</ele><time>2026-04-19T07:43:22Z</time></trkpt><trkpt lat="38.8659226595293" lon="-9.29407209601702"><ele>172.0</ele><time>2026-04-19T07:43:23Z</time></trkpt><trkpt lat="38.866014001085226" lon="-9.293870500927659"><ele>173.5</ele><time>2026-04-19T07:43:24Z</time></trkpt><trkpt lat="38.86608748269852" lon="-9.293706110639876"><ele>175.0</ele><time>2026-04-19T07:43:25Z</time></trkpt><trkpt lat="38.86615260521715" lon="-9.29356534061543"><ele>176.5</ele><time>2026-04-19T07:43:26Z</time></trkpt><trkpt lat="38.86620676110866" lon="-9.293442518828632"><ele>178.0</ele><time>2026-04-19T07:43:27Z</time></trkpt><trkpt lat="38.86625127394216" lon="-9.293354194549377"><ele>178.0</ele><time>2026-04-19T07:43:28Z</time></trkpt><trkpt lat="38.86627887505195" lon="-9.293274731266413"><ele>178.0</ele><time>2026-04-19T07:43:30Z</time></trkpt><trkpt lat="38.86641909668092" lon="-9.29350778781492"><ele>178.0</ele><time>2026-04-19T07:43:32Z</time></trkpt><trkpt lat="38.866453909062265" lon="-9.29366103255567"><ele>178.0</ele><time>2026-04-19T07:43:33Z</time></trkpt><trkpt lat="38.86640064858751" lon="-9.293818977417889"><ele>178.0</ele><time>2026-04-19T07:43:34Z</time></trkpt><trkpt lat="38.86633041758611" lon="-9.293916095997632"><ele>178.0</ele><time>2026-04-19T07:43:35Z</time></trkpt><trkpt lat="38.86623755981858" lon="-9.294010555787033"><ele>178.0</ele><time>2026-04-19T07:43:36Z</time></trkpt><trkpt lat="38.86616719174445" lon="-9.294112103176266"><ele>178.0</ele><time>2026-04-19T07:43:37Z</time></trkpt><trkpt lat="38.86613366940065" lon="-9.294245362458991"><ele>178.0</ele><time>2026-04-19T07:43:38Z</time></trkpt><trkpt lat="38.86611416133462" lon="-9.29436975229355"><ele>177.4</ele><time>2026-04-19T07:43:39Z</time></trkpt><trkpt lat="38.86611994439292" lon="-9.294501066068664"><ele>176.8</ele><time>2026-04-19T07:43:40Z</time></trkpt><trkpt lat="38.86614757592409" lon="-9.294625676807204"><ele>176.2</ele><time>2026-04-19T07:43:41Z</time></trkpt><trkpt lat="38.86618601813082" lon="-9.294742257405138"><ele>175.6</ele><time>2026-04-19T07:43:42Z</time></trkpt><trkpt lat="38.86622607949281" lon="-9.294848740799425"><ele>175.0</ele><time>2026-04-19T07:43:43Z</time></trkpt><trkpt lat="38.86626346509308" lon="-9.294947984592707"><ele>171.0</ele><time>2026-04-19T07:43:44Z</time></trkpt><trkpt lat="38.8662969416295" lon="-9.295036850284099"><ele>171.0</ele><time>2026-04-19T07:43:45Z</time></trkpt><trkpt lat="38.866328052524565" lon="-9.29511448276442"><ele>171.0</ele><time>2026-04-19T07:43:46Z</time></trkpt><trkpt lat="38.86639968128873" lon="-9.295124319641758"><ele>171.0</ele><time>2026-04-19T07:43:47Z</time></trkpt><trkpt lat="38.86646324940566" lon="-9.29515125395006"><ele>171.0</ele><time>2026-04-19T07:46:58.999Z</time></trkpt></trkseg><trkseg><trkpt lat="38.866523658149575" lon="-9.295148561748906"><ele>171.0</ele><time>2026-04-19T08:08:26.193Z</time></trkpt><trkpt lat="38.86644407730018" lon="-9.295149218098677"><ele>171.0</ele><time>2026-04-19T08:08:31.19Z</time></trkpt><trkpt lat="38.866505793145194" lon="-9.295173205911054"><ele>171.0</ele><time>2026-04-19T08:09:41Z</time></trkpt><trkpt lat="38.8665701512738" lon="-9.29516434572313"><ele>171.0</ele><time>2026-04-19T08:09:49Z</time></trkpt><trkpt lat="38.86649544727689" lon="-9.295183154973152"><ele>171.0</ele><time>2026-04-19T08:10:07Z</time></trkpt><trkpt lat="38.866433233762585" lon="-9.295165203702119"><ele>171.0</ele><time>2026-04-19T08:10:23Z</time></trkpt><trkpt lat="38.86633645037678" lon="-9.2950466576473"><ele>171.0</ele><time>2026-04-19T08:22:05.999Z</time></trkpt><trkpt lat="38.86627507624543" lon="-9.295003583891333"><ele>171.0</ele><time>2026-04-19T08:22:06.999Z</time></trkpt><trkpt lat="38.8662186316168" lon="-9.294888397224014"><ele>171.0</ele><time>2026-04-19T08:22:08.999Z</time></trkpt><trkpt lat="38.866175090204" lon="-9.294810408745857"><ele>171.0</ele><time>2026-04-19T08:22:09.999Z</time></trkpt><trkpt lat="38.86614658123689" lon="-9.294729475751637"><ele>171.0</ele><time>2026-04-19T08:22:10.999Z</time></trkpt><trkpt lat="38.866117002117385" lon="-9.294649287038657"><ele>171.0</ele><time>2026-04-19T08:22:12.999Z</time></trkpt><trkpt lat="38.866151588653075" lon="-9.294742949715367"><ele>172.0</ele><time>2026-04-19T08:22:14.999Z</time></trkpt><trkpt lat="38.86612557239028" lon="-9.294659347423059"><ele>173.0</ele><time>2026-04-19T08:22:19Z</time></trkpt><trkpt lat="38.86608485601268" lon="-9.29446009641552"><ele>174.0</ele><time>2026-04-19T08:22:22Z</time></trkpt><trkpt lat="38.866101103020455" lon="-9.294273790144508"><ele>175.0</ele><time>2026-04-19T08:22:23Z</time></trkpt><trkpt lat="38.86612401131539" lon="-9.294122525180587"><ele>175.0</ele><time>2026-04-19T08:22:24Z</time></trkpt><trkpt lat="38.86621556209009" lon="-9.29399425193043"><ele>175.0</ele><time>2026-04-19T08:22:25Z</time></trkpt><trkpt lat="38.86631207547378" lon="-9.293847562083082"><ele>175.0</ele><time>2026-04-19T08:22:26Z</time></trkpt><trkpt lat="38.866390348284874" lon="-9.293706033856097"><ele>175.0</ele><time>2026-04-19T08:22:27Z</time></trkpt><trkpt lat="38.86644930418761" lon="-9.293611250460668"><ele>175.5</ele><time>2026-04-19T08:22:28Z</time></trkpt><trkpt lat="38.866425905975724" lon="-9.293513371446648"><ele>176.0</ele><time>2026-04-19T08:22:29Z</time></trkpt><trkpt lat="38.86637391161275" lon="-9.293466565440271"><ele>176.5</ele><time>2026-04-19T08:22:30Z</time></trkpt><trkpt lat="38.86633138309023" lon="-9.293400044902723"><ele>177.0</ele><time>2026-04-19T08:22:31Z</time></trkpt><trkpt lat="38.86640175837335" lon="-9.293548404516484"><ele>177.5</ele><time>2026-04-19T08:22:36Z</time></trkpt><trkpt lat="38.86642613222931" lon="-9.293661820521011"><ele>178.0</ele><time>2026-04-19T08:22:38Z</time></trkpt><trkpt lat="38.866422033963396" lon="-9.293772590504208"><ele>178.0</ele><time>2026-04-19T08:22:39Z</time></trkpt><trkpt lat="38.86614782192527" lon="-9.293698799920417"><ele>178.0</ele><time>2026-04-19T08:22:40Z</time></trkpt><trkpt lat="38.866111046646175" lon="-9.293783841061222"><ele>178.0</ele><time>2026-04-19T08:22:41Z</time></trkpt><trkpt lat="38.86607273846679" lon="-9.293871989021723"><ele>178.0</ele><time>2026-04-19T08:22:42Z</time></trkpt><trkpt lat="38.866031289616096" lon="-9.29396737237714"><ele>177.5</ele><time>2026-04-19T08:22:43Z</time></trkpt><trkpt lat="38.86599560774957" lon="-9.294049308317287"><ele>177.0</ele><time>2026-04-19T08:22:44Z</time></trkpt><trkpt lat="38.86596315682547" lon="-9.294123825297739"><ele>176.5</ele><time>2026-04-19T08:22:45Z</time></trkpt><trkpt lat="38.865904563451316" lon="-9.29426044007983"><ele>176.0</ele><time>2026-04-19T08:22:47Z</time></trkpt><trkpt lat="38.86585042307682" lon="-9.294387157830998"><ele>175.5</ele><time>2026-04-19T08:22:49Z</time></trkpt><trkpt lat="38.865857045177115" lon="-9.294470106697489"><ele>175.0</ele><time>2026-04-19T08:22:51Z</time></trkpt><trkpt lat="38.86580521701584" lon="-9.29454519775813"><ele>175.0</ele><time>2026-04-19T08:22:53Z</time></trkpt><trkpt lat="38.86575148965589" lon="-9.294617611826144"><ele>175.0</ele><time>2026-04-19T08:22:55Z</time></trkpt><trkpt lat="38.866094996621946" lon="-9.29466224569267"><ele>175.0</ele><time>2026-04-19T08:22:58Z</time></trkpt><trkpt lat="38.86615093006435" lon="-9.294595027775959"><ele>175.0</ele><time>2026-04-19T08:23:00Z</time></trkpt><trkpt lat="38.86607599483183" lon="-9.294600963575313"><ele>175.0</ele><time>2026-04-19T08:23:01Z</time></trkpt><trkpt lat="38.866153432059384" lon="-9.294600420626994"><ele>175.0</ele><time>2026-04-19T08:23:07.001Z</time></trkpt><trkpt lat="38.86616804150753" lon="-9.294718452266103"><ele>175.0</ele><time>2026-04-19T08:23:09.001Z</time></trkpt><trkpt lat="38.86608902446664" lon="-9.294752457958706"><ele>175.0</ele><time>2026-04-19T08:23:11.001Z</time></trkpt><trkpt lat="38.86607114503431" lon="-9.294674321044624"><ele>175.0</ele><time>2026-04-19T08:23:12.001Z</time></trkpt><trkpt lat="38.86610616437243" lon="-9.29460153066103"><ele>175.0</ele><time>2026-04-19T08:23:13Z</time></trkpt><trkpt lat="38.8661131302407" lon="-9.294443263078351"><ele>175.0</ele><time>2026-04-19T08:23:15Z</time></trkpt><trkpt lat="38.86609470259331" lon="-9.294311934195232"><ele>175.0</ele><time>2026-04-19T08:23:16Z</time></trkpt><trkpt lat="38.86610935962995" lon="-9.294207529747458"><ele>175.0</ele><time>2026-04-19T08:23:17Z</time></trkpt><trkpt lat="38.86611783369372" lon="-9.294127343606895"><ele>175.0</ele><time>2026-04-19T08:23:18Z</time></trkpt><trkpt lat="38.86616626509503" lon="-9.294067291502913"><ele>175.0</ele><time>2026-04-19T08:23:19Z</time></trkpt><trkpt lat="38.86621416845865" lon="-9.29399636963993"><ele>175.5</ele><time>2026-04-19T08:23:20Z</time></trkpt><trkpt lat="38.8662693037681" lon="-9.29391279663908"><ele>176.0</ele><time>2026-04-19T08:23:21Z</time></trkpt><trkpt lat="38.86629909487677" lon="-9.293837213728036"><ele>176.5</ele><time>2026-04-19T08:23:22Z</time></trkpt><trkpt lat="38.866347824937414" lon="-9.293780660960286"><ele>177.0</ele><time>2026-04-19T08:23:23Z</time></trkpt><trkpt lat="38.86641700441073" lon="-9.293677677220803"><ele>177.5</ele><time>2026-04-19T08:23:25Z</time></trkpt><trkpt lat="38.86642180776637" lon="-9.293554087947795"><ele>178.0</ele><time>2026-04-19T08:23:27Z</time></trkpt><trkpt lat="38.866354357357835" lon="-9.293446049559718"><ele>178.0</ele><time>2026-04-19T08:23:29Z</time></trkpt><trkpt lat="38.86633034605255" lon="-9.293360497114769"><ele>178.0</ele><time>2026-04-19T08:23:31Z</time></trkpt><trkpt lat="38.86627019716667" lon="-9.293270023698824"><ele>178.0</ele><time>2026-04-19T08:23:41Z</time></trkpt><trkpt lat="38.86621978421347" lon="-9.293175592963564"><ele>178.0</ele><time>2026-04-19T08:23:43Z</time></trkpt><trkpt lat="38.86611512164516" lon="-9.293299834828668"><ele>178.0</ele><time>2026-04-19T08:23:44Z</time></trkpt><trkpt lat="38.86606621407731" lon="-9.293399707819253"><ele>178.0</ele><time>2026-04-19T08:23:45Z</time></trkpt><trkpt lat="38.86600735561666" lon="-9.293505209098525"><ele>178.0</ele><time>2026-04-19T08:23:46Z</time></trkpt><trkpt lat="38.86594660417311" lon="-9.2936304073124"><ele>178.0</ele><time>2026-04-19T08:23:47Z</time></trkpt><trkpt lat="38.86587488378645" lon="-9.29370290313909"><ele>178.0</ele><time>2026-04-19T08:23:48Z</time></trkpt><trkpt lat="38.8658223971521" lon="-9.293762948848332"><ele>178.0</ele><time>2026-04-19T08:23:49Z</time></trkpt><trkpt lat="38.86575321286256" lon="-9.293776068494465"><ele>178.0</ele><time>2026-04-19T08:23:50Z</time></trkpt><trkpt lat="38.86568854294436" lon="-9.293762806340187"><ele>177.5</ele><time>2026-04-19T08:23:51Z</time></trkpt><trkpt lat="38.865626070315535" lon="-9.293721324025125"><ele>177.0</ele><time>2026-04-19T08:23:52Z</time></trkpt><trkpt lat="38.86558373362456" lon="-9.29365563723794"><ele>176.5</ele><time>2026-04-19T08:23:53Z</time></trkpt><trkpt lat="38.86551440647221" lon="-9.293532975469384"><ele>176.0</ele><time>2026-04-19T08:23:55Z</time></trkpt><trkpt lat="38.865459388827865" lon="-9.29347269600291"><ele>175.5</ele><time>2026-04-19T08:23:56Z</time></trkpt><trkpt lat="38.86541140714069" lon="-9.293399633822307"><ele>175.0</ele><time>2026-04-19T08:23:57Z</time></trkpt><trkpt lat="38.86535632115342" lon="-9.29332091281753"><ele>175.0</ele><time>2026-04-19T08:23:58.001Z</time></trkpt><trkpt lat="38.86528938397041" lon="-9.293275576998271"><ele>175.0</ele><time>2026-04-19T08:23:59.001Z</time></trkpt><trkpt lat="38.86521760369761" lon="-9.293213219341824"><ele>175.0</ele><time>2026-04-19T08:24:00.001Z</time></trkpt><trkpt lat="38.86514790689341" lon="-9.293150862553913"><ele>175.0</ele><time>2026-04-19T08:24:01.001Z</time></trkpt><trkpt lat="38.86508941500265" lon="-9.293070898637707"><ele>175.0</ele><time>2026-04-19T08:24:02.001Z</time></trkpt><trkpt lat="38.86505202014374" lon="-9.292983336578828"><ele>175.0</ele><time>2026-04-19T08:24:03.001Z</time></trkpt><trkpt lat="38.86500784115329" lon="-9.292912445279129"><ele>175.5</ele><time>2026-04-19T08:24:04.001Z</time></trkpt><trkpt lat="38.86497073112083" lon="-9.292828411578109"><ele>176.0</ele><time>2026-04-19T08:24:05.001Z</time></trkpt><trkpt lat="38.86492109424253" lon="-9.292742842892789"><ele>176.5</ele><time>2026-04-19T08:24:06.001Z</time></trkpt><trkpt lat="38.86487930503187" lon="-9.29265537861785"><ele>177.0</ele><time>2026-04-19T08:24:07.001Z</time></trkpt><trkpt lat="38.864860157034116" lon="-9.292560662193274"><ele>177.5</ele><time>2026-04-19T08:24:08.001Z</time></trkpt><trkpt lat="38.8648207144258" lon="-9.29247597267173"><ele>178.0</ele><time>2026-04-19T08:24:09.001Z</time></trkpt><trkpt lat="38.864815922658316" lon="-9.292356537166334"><ele>178.60000000000002</ele><time>2026-04-19T08:24:10.001Z</time></trkpt><trkpt lat="38.86483416561588" lon="-9.292223747526556"><ele>179.20000000000002</ele><time>2026-04-19T08:24:11.001Z</time></trkpt><trkpt lat="38.86482670312485" lon="-9.292108069271423"><ele>179.8</ele><time>2026-04-19T08:24:12.001Z</time></trkpt><trkpt lat="38.864812949684485" lon="-9.291992274045658"><ele>180.4</ele><time>2026-04-19T08:24:13.001Z</time></trkpt><trkpt lat="38.86476583770976" lon="-9.291878054794386"><ele>181.0</ele><time>2026-04-19T08:24:14.001Z</time></trkpt><trkpt lat="38.86472417578419" lon="-9.291758832948227"><ele>181.0</ele><time>2026-04-19T08:24:15.001Z</time></trkpt><trkpt lat="38.864685813905005" lon="-9.291651852833056"><ele>181.0</ele><time>2026-04-19T08:24:16.001Z</time></trkpt><trkpt lat="38.86465342979808" lon="-9.291564983370513"><ele>181.0</ele><time>2026-04-19T08:24:17.001Z</time></trkpt><trkpt lat="38.86462718886917" lon="-9.291487887052492"><ele>181.0</ele><time>2026-04-19T08:24:18.001Z</time></trkpt><trkpt lat="38.8645992361497" lon="-9.29140958648976"><ele>181.0</ele><time>2026-04-19T08:24:19.001Z</time></trkpt><trkpt lat="38.86457111979112" lon="-9.29132839488824"><ele>181.0</ele><time>2026-04-19T08:24:20.001Z</time></trkpt><trkpt lat="38.8645459146012" lon="-9.291235131330756"><ele>181.0</ele><time>2026-04-19T08:24:21.001Z</time></trkpt><trkpt lat="38.864525309725416" lon="-9.291148513528267"><ele>180.33333333333334</ele><time>2026-04-19T08:24:22.001Z</time></trkpt><trkpt lat="38.864501473891316" lon="-9.291073231829277"><ele>179.66666666666669</ele><time>2026-04-19T08:24:23.001Z</time></trkpt><trkpt lat="38.86445026514944" lon="-9.29092842031749"><ele>179.0</ele><time>2026-04-19T08:24:25.001Z</time></trkpt><trkpt lat="38.86442337745738" lon="-9.290853676696988"><ele>178.33333333333334</ele><time>2026-04-19T08:24:26.001Z</time></trkpt><trkpt lat="38.86437111656922" lon="-9.290710718735365"><ele>177.66666666666666</ele><time>2026-04-19T08:24:28.001Z</time></trkpt><trkpt lat="38.864341937807446" lon="-9.290628388272637"><ele>177.0</ele><time>2026-04-19T08:24:29.001Z</time></trkpt><trkpt lat="38.86432969774345" lon="-9.290545250085446"><ele>176.39999999999998</ele><time>2026-04-19T08:24:30.001Z</time></trkpt><trkpt lat="38.8642808635016" lon="-9.290404637761377"><ele>175.79999999999998</ele><time>2026-04-19T08:24:32.001Z</time></trkpt><trkpt lat="38.86422386108926" lon="-9.290295229388995"><ele>175.2</ele><time>2026-04-19T08:24:34.001Z</time></trkpt><trkpt lat="38.864187341052485" lon="-9.290192187711654"><ele>174.6</ele><time>2026-04-19T08:24:36.001Z</time></trkpt><trkpt lat="38.86415645665317" lon="-9.290082477922427"><ele>174.0</ele><time>2026-04-19T08:24:38.001Z</time></trkpt><trkpt lat="38.864084852555315" lon="-9.290024597099292"><ele>174.0</ele><time>2026-04-19T08:24:40.001Z</time></trkpt><trkpt lat="38.863972224180536" lon="-9.290031376611562"><ele>174.0</ele><time>2026-04-19T08:24:42.001Z</time></trkpt><trkpt lat="38.863904069607166" lon="-9.290020348813801"><ele>174.0</ele><time>2026-04-19T08:24:43.001Z</time></trkpt><trkpt lat="38.863856302075156" lon="-9.289933715498579"><ele>174.0</ele><time>2026-04-19T08:24:44.001Z</time></trkpt><trkpt lat="38.86379378296796" lon="-9.289863899269271"><ele>174.0</ele><time>2026-04-19T08:24:45.001Z</time></trkpt><trkpt lat="38.86373979065209" lon="-9.28981146914964"><ele>174.0</ele><time>2026-04-19T08:24:46.001Z</time></trkpt><trkpt lat="38.86367917285569" lon="-9.289752570950935"><ele>174.0</ele><time>2026-04-19T08:24:47.001Z</time></trkpt><trkpt lat="38.863620794284486" lon="-9.289696067433656"><ele>174.0</ele><time>2026-04-19T08:24:48.001Z</time></trkpt><trkpt lat="38.863505553744545" lon="-9.28965030586786"><ele>174.0</ele><time>2026-04-19T08:24:50.001Z</time></trkpt><trkpt lat="38.86344669724825" lon="-9.289555566243008"><ele>174.0</ele><time>2026-04-19T08:24:52.001Z</time></trkpt><trkpt lat="38.86335687912876" lon="-9.289460144694853"><ele>174.0</ele><time>2026-04-19T08:24:54.001Z</time></trkpt><trkpt lat="38.863276239950736" lon="-9.28934607055213"><ele>173.6</ele><time>2026-04-19T08:24:56.001Z</time></trkpt><trkpt lat="38.86318774539984" lon="-9.2892534154839"><ele>173.2</ele><time>2026-04-19T08:24:58.001Z</time></trkpt><trkpt lat="38.863110443964004" lon="-9.289171684529661"><ele>172.79999999999998</ele><time>2026-04-19T08:25:00.001Z</time></trkpt><trkpt lat="38.86303203926759" lon="-9.289080494477526"><ele>172.39999999999998</ele><time>2026-04-19T08:25:02.001Z</time></trkpt><trkpt lat="38.86295990770896" lon="-9.28900839189223"><ele>172.0</ele><time>2026-04-19T08:25:04.001Z</time></trkpt><trkpt lat="38.86288690812362" lon="-9.288940317310242"><ele>172.2</ele><time>2026-04-19T08:25:06.001Z</time></trkpt><trkpt lat="38.86281433270296" lon="-9.288869360516086"><ele>172.39999999999998</ele><time>2026-04-19T08:25:08.001Z</time></trkpt><trkpt lat="38.862771973682975" lon="-9.288747533521592"><ele>172.60000000000002</ele><time>2026-04-19T08:25:10.001Z</time></trkpt><trkpt lat="38.86277032001818" lon="-9.28859579510166"><ele>172.8</ele><time>2026-04-19T08:25:12.001Z</time></trkpt><trkpt lat="38.86277211034887" lon="-9.288499691846285"><ele>173.0</ele><time>2026-04-19T08:25:13.001Z</time></trkpt><trkpt lat="38.862744691791434" lon="-9.288401313037138"><ele>173.0</ele><time>2026-04-19T08:25:14.001Z</time></trkpt><trkpt lat="38.862713655413444" lon="-9.288305903400687"><ele>173.0</ele><time>2026-04-19T08:25:15.001Z</time></trkpt><trkpt lat="38.86269887220956" lon="-9.288195495347493"><ele>173.0</ele><time>2026-04-19T08:25:16.001Z</time></trkpt><trkpt lat="38.86268123877414" lon="-9.288085192754572"><ele>173.0</ele><time>2026-04-19T08:25:17.001Z</time></trkpt><trkpt lat="38.86266686700887" lon="-9.287971274989106"><ele>173.0</ele><time>2026-04-19T08:25:18.001Z</time></trkpt><trkpt lat="38.8626543647277" lon="-9.287865127431761"><ele>173.0</ele><time>2026-04-19T08:25:19.001Z</time></trkpt><trkpt lat="38.86264061553285" lon="-9.287756753528765"><ele>173.0</ele><time>2026-04-19T08:25:20.001Z</time></trkpt><trkpt lat="38.86262913193931" lon="-9.287645007138545"><ele>173.0</ele><time>2026-04-19T08:25:21.001Z</time></trkpt><trkpt lat="38.86262483360365" lon="-9.287532051538426"><ele>173.0</ele><time>2026-04-19T08:25:22.001Z</time></trkpt><trkpt lat="38.8626293736083" lon="-9.287406570045642"><ele>173.0</ele><time>2026-04-19T08:25:23.001Z</time></trkpt><trkpt lat="38.86262567559543" lon="-9.287283178814688"><ele>173.0</ele><time>2026-04-19T08:25:24.001Z</time></trkpt><trkpt lat="38.8626310589704" lon="-9.287186419254178"><ele>173.0</ele><time>2026-04-19T08:25:25.001Z</time></trkpt><trkpt lat="38.862631505627235" lon="-9.287083359718133"><ele>173.0</ele><time>2026-04-19T08:25:26.001Z</time></trkpt><trkpt lat="38.862638284802244" lon="-9.286962444936849"><ele>173.0</ele><time>2026-04-19T08:25:27.001Z</time></trkpt><trkpt lat="38.86264596244048" lon="-9.286838752379659"><ele>173.0</ele><time>2026-04-19T08:25:28.001Z</time></trkpt><trkpt lat="38.86265048592562" lon="-9.286724266482473"><ele>173.0</ele><time>2026-04-19T08:25:29.001Z</time></trkpt><trkpt lat="38.86265718823564" lon="-9.28660846521383"><ele>173.0</ele><time>2026-04-19T08:25:30.001Z</time></trkpt><trkpt lat="38.86266431109383" lon="-9.286491293918177"><ele>172.83333333333331</ele><time>2026-04-19T08:25:31.001Z</time></trkpt><trkpt lat="38.862663664473985" lon="-9.286378851594879"><ele>172.66666666666666</ele><time>2026-04-19T08:25:32.001Z</time></trkpt><trkpt lat="38.86266359654154" lon="-9.286289830550244"><ele>172.5</ele><time>2026-04-19T08:25:33.001Z</time></trkpt><trkpt lat="38.86267626823359" lon="-9.286193381430138"><ele>172.33333333333334</ele><time>2026-04-19T08:25:34.001Z</time></trkpt><trkpt lat="38.862696997451955" lon="-9.286097122161099"><ele>172.16666666666669</ele><time>2026-04-19T08:25:35.001Z</time></trkpt><trkpt lat="38.862719881438764" lon="-9.286012345715886"><ele>172.0</ele><time>2026-04-19T08:25:36.001Z</time></trkpt><trkpt lat="38.86271163555627" lon="-9.285871005600505"><ele>172.0</ele><time>2026-04-19T08:25:38.001Z</time></trkpt><trkpt lat="38.86267642296386" lon="-9.285799496145428"><ele>172.0</ele><time>2026-04-19T08:25:39.001Z</time></trkpt><trkpt lat="38.86264573305212" lon="-9.285716404845138"><ele>172.0</ele><time>2026-04-19T08:25:40.001Z</time></trkpt><trkpt lat="38.86261169357217" lon="-9.285624925704003"><ele>172.0</ele><time>2026-04-19T08:25:41.001Z</time></trkpt><trkpt lat="38.86257569441794" lon="-9.285522540868408"><ele>172.0</ele><time>2026-04-19T08:25:42.001Z</time></trkpt><trkpt lat="38.86254170677874" lon="-9.285422505235609"><ele>172.0</ele><time>2026-04-19T08:25:43.001Z</time></trkpt><trkpt lat="38.86250673603693" lon="-9.28533189659653"><ele>172.66666666666669</ele><time>2026-04-19T08:25:44.001Z</time></trkpt><trkpt lat="38.86247012863603" lon="-9.285242631274263"><ele>173.33333333333334</ele><time>2026-04-19T08:25:45.001Z</time></trkpt><trkpt lat="38.86243049092981" lon="-9.285152463945108"><ele>174.0</ele><time>2026-04-19T08:25:46.001Z</time></trkpt><trkpt lat="38.862398258440464" lon="-9.28506891731833"><ele>174.66666666666666</ele><time>2026-04-19T08:25:47.001Z</time></trkpt><trkpt lat="38.86235472962101" lon="-9.284979715731591"><ele>175.33333333333331</ele><time>2026-04-19T08:25:48.001Z</time></trkpt><trkpt lat="38.862312766383965" lon="-9.284902106302068"><ele>176.0</ele><time>2026-04-19T08:25:49.001Z</time></trkpt><trkpt lat="38.86224903319086" lon="-9.2847728618788"><ele>176.20000000000002</ele><time>2026-04-19T08:25:51.001Z</time></trkpt><trkpt lat="38.86225486669468" lon="-9.28468531171695"><ele>176.4</ele><time>2026-04-19T08:25:52.001Z</time></trkpt><trkpt lat="38.86229606369417" lon="-9.284566684633692"><ele>176.6</ele><time>2026-04-19T08:25:53.001Z</time></trkpt><trkpt lat="38.86234199290717" lon="-9.284423563105307"><ele>176.8</ele><time>2026-04-19T08:25:54.001Z</time></trkpt><trkpt lat="38.86239383770461" lon="-9.284264790665228"><ele>177.0</ele><time>2026-04-19T08:25:55.001Z</time></trkpt><trkpt lat="38.86243710145809" lon="-9.28409632678022"><ele>177.0</ele><time>2026-04-19T08:25:56.001Z</time></trkpt><trkpt lat="38.86247800131929" lon="-9.283926115922434"><ele>177.0</ele><time>2026-04-19T08:25:57.001Z</time></trkpt><trkpt lat="38.86251726769021" lon="-9.283748416705826"><ele>177.0</ele><time>2026-04-19T08:25:58.001Z</time></trkpt><trkpt lat="38.86254271281314" lon="-9.28356850641196"><ele>177.0</ele><time>2026-04-19T08:25:59.001Z</time></trkpt><trkpt lat="38.862574079060686" lon="-9.283377534842797"><ele>177.0</ele><time>2026-04-19T08:26:00.001Z</time></trkpt><trkpt lat="38.86260663638813" lon="-9.283176725375641"><ele>177.0</ele><time>2026-04-19T08:26:01.001Z</time></trkpt><trkpt lat="38.86263703791981" lon="-9.283010258586344"><ele>177.0</ele><time>2026-04-19T08:26:02.001Z</time></trkpt><trkpt lat="38.86266978591813" lon="-9.282880303004566"><ele>177.0</ele><time>2026-04-19T08:26:03.001Z</time></trkpt><trkpt lat="38.86270994126823" lon="-9.282744600627655"><ele>177.0</ele><time>2026-04-19T08:26:04.001Z</time></trkpt><trkpt lat="38.86274911423943" lon="-9.282588482053182"><ele>177.0</ele><time>2026-04-19T08:26:05.001Z</time></trkpt><trkpt lat="38.862794219513674" lon="-9.282450851749129"><ele>177.0</ele><time>2026-04-19T08:26:06.001Z</time></trkpt><trkpt lat="38.86285157553022" lon="-9.282320633722795"><ele>177.0</ele><time>2026-04-19T08:26:07.001Z</time></trkpt><trkpt lat="38.86293005828226" lon="-9.282190294371294"><ele>177.0</ele><time>2026-04-19T08:26:08.001Z</time></trkpt><trkpt lat="38.86301151172232" lon="-9.282077931336662"><ele>177.0</ele><time>2026-04-19T08:26:09.001Z</time></trkpt><trkpt lat="38.86309285256151" lon="-9.281974068865967"><ele>177.0</ele><time>2026-04-19T08:26:10.001Z</time></trkpt><trkpt lat="38.8631736174204" lon="-9.281869020779649"><ele>177.0</ele><time>2026-04-19T08:26:11.001Z</time></trkpt><trkpt lat="38.863240709616136" lon="-9.281782900254905"><ele>177.0</ele><time>2026-04-19T08:26:12.001Z</time></trkpt><trkpt lat="38.86331536170545" lon="-9.281691887908075"><ele>177.0</ele><time>2026-04-19T08:26:13.001Z</time></trkpt><trkpt lat="38.863381295071264" lon="-9.281588675833346"><ele>177.0</ele><time>2026-04-19T08:26:14.001Z</time></trkpt><trkpt lat="38.86346215424212" lon="-9.281509935819203"><ele>177.0</ele><time>2026-04-19T08:26:15.001Z</time></trkpt><trkpt lat="38.863528849939684" lon="-9.281423506231178"><ele>177.0</ele><time>2026-04-19T08:26:16.001Z</time></trkpt><trkpt lat="38.8636011626803" lon="-9.281336549346186"><ele>177.0</ele><time>2026-04-19T08:26:17.001Z</time></trkpt><trkpt lat="38.86367683062066" lon="-9.28124102729176"><ele>177.33333333333334</ele><time>2026-04-19T08:26:18.001Z</time></trkpt><trkpt lat="38.86377388677895" lon="-9.281181328242079"><ele>177.66666666666666</ele><time>2026-04-19T08:26:19.001Z</time></trkpt><trkpt lat="38.86384582588805" lon="-9.281125669972793"><ele>178.0</ele><time>2026-04-19T08:26:20.001Z</time></trkpt><trkpt lat="38.8638980193404" lon="-9.281053821394304"><ele>178.33333333333331</ele><time>2026-04-19T08:26:21.001Z</time></trkpt><trkpt lat="38.86394671337602" lon="-9.280986511401785"><ele>178.66666666666666</ele><time>2026-04-19T08:26:22.001Z</time></trkpt><trkpt lat="38.864001414666276" lon="-9.280926285145597"><ele>179.0</ele><time>2026-04-19T08:26:23.001Z</time></trkpt><trkpt lat="38.86411431986715" lon="-9.281014172601955"><ele>179.0</ele><time>2026-04-19T08:26:25.001Z</time></trkpt><trkpt lat="38.86414231130784" lon="-9.281136143010825"><ele>179.0</ele><time>2026-04-19T08:26:26.001Z</time></trkpt><trkpt lat="38.86419494562397" lon="-9.281265004261972"><ele>179.0</ele><time>2026-04-19T08:26:27.001Z</time></trkpt><trkpt lat="38.86427448333592" lon="-9.28139284977229"><ele>179.0</ele><time>2026-04-19T08:26:28.001Z</time></trkpt><trkpt lat="38.86435965957376" lon="-9.281558146388978"><ele>178.33333333333331</ele><time>2026-04-19T08:26:29.001Z</time></trkpt><trkpt lat="38.864469868689774" lon="-9.281743454647128"><ele>177.66666666666666</ele><time>2026-04-19T08:26:30.001Z</time></trkpt><trkpt lat="38.864598873581826" lon="-9.281909995936703"><ele>177.0</ele><time>2026-04-19T08:26:31.001Z</time></trkpt><trkpt lat="38.864766753360875" lon="-9.28203924936017"><ele>177.0</ele><time>2026-04-19T08:26:32.001Z</time></trkpt><trkpt lat="38.864945917007255" lon="-9.28216071078771"><ele>177.0</ele><time>2026-04-19T08:26:33.001Z</time></trkpt><trkpt lat="38.86513850484792" lon="-9.282283296775715"><ele>177.0</ele><time>2026-04-19T08:26:34.001Z</time></trkpt><trkpt lat="38.86533389548039" lon="-9.282410171078295"><ele>177.0</ele><time>2026-04-19T08:26:35.001Z</time></trkpt><trkpt lat="38.865517519035336" lon="-9.282521918835354"><ele>177.0</ele><time>2026-04-19T08:26:36.001Z</time></trkpt><trkpt lat="38.86570157667604" lon="-9.28262996399838"><ele>177.0</ele><time>2026-04-19T08:26:37.001Z</time></trkpt><trkpt lat="38.865863660580274" lon="-9.282749274387276"><ele>177.33333333333334</ele><time>2026-04-19T08:26:38.001Z</time></trkpt><trkpt lat="38.86602021524991" lon="-9.282882653177515"><ele>177.66666666666669</ele><time>2026-04-19T08:26:39.001Z</time></trkpt><trkpt lat="38.866159540718385" lon="-9.283033315629755"><ele>178.0</ele><time>2026-04-19T08:26:40.001Z</time></trkpt><trkpt lat="38.86628313331158" lon="-9.283168216522427"><ele>178.0</ele><time>2026-04-19T08:26:41.001Z</time></trkpt><trkpt lat="38.86638884546507" lon="-9.28329499161521"><ele>178.0</ele><time>2026-04-19T08:26:42.001Z</time></trkpt><trkpt lat="38.86649619775721" lon="-9.2834132872502"><ele>178.0</ele><time>2026-04-19T08:26:43.001Z</time></trkpt><trkpt lat="38.86660968957024" lon="-9.28352652135017"><ele>178.0</ele><time>2026-04-19T08:26:44.001Z</time></trkpt><trkpt lat="38.866718016141846" lon="-9.283646657363327"><ele>179.0</ele><time>2026-04-19T08:26:45.001Z</time></trkpt><trkpt lat="38.86681726503156" lon="-9.283756527548624"><ele>180.0</ele><time>2026-04-19T08:26:46.001Z</time></trkpt><trkpt lat="38.86689973563609" lon="-9.283856464290421"><ele>181.0</ele><time>2026-04-19T08:26:47.001Z</time></trkpt><trkpt lat="38.86696033157541" lon="-9.283954238345373"><ele>182.0</ele><time>2026-04-19T08:26:48.001Z</time></trkpt><trkpt lat="38.867023977030726" lon="-9.284033572457917"><ele>183.0</ele><time>2026-04-19T08:26:49.001Z</time></trkpt><trkpt lat="38.86708908434857" lon="-9.284079510485"><ele>183.0</ele><time>2026-04-19T08:26:50.001Z</time></trkpt><trkpt lat="38.8671515002617" lon="-9.284111732980081"><ele>183.0</ele><time>2026-04-19T08:26:51.001Z</time></trkpt><trkpt lat="38.86725995839361" lon="-9.284083200489633"><ele>183.0</ele><time>2026-04-19T08:26:53.001Z</time></trkpt><trkpt lat="38.86729559311561" lon="-9.284007458120275"><ele>183.0</ele><time>2026-04-19T08:26:54.001Z</time></trkpt><trkpt lat="38.86724001046921" lon="-9.28388576436519"><ele>183.0</ele><time>2026-04-19T08:26:55.001Z</time></trkpt><trkpt lat="38.867241042344254" lon="-9.283756583559615"><ele>183.0</ele><time>2026-04-19T08:26:56.001Z</time></trkpt><trkpt lat="38.86723871161674" lon="-9.283580669542445"><ele>183.0</ele><time>2026-04-19T08:26:57.001Z</time></trkpt><trkpt lat="38.867232869150506" lon="-9.283390494231295"><ele>183.0</ele><time>2026-04-19T08:26:58.001Z</time></trkpt><trkpt lat="38.867225577030624" lon="-9.283178123823852"><ele>183.66666666666666</ele><time>2026-04-19T08:26:59.001Z</time></trkpt><trkpt lat="38.867218183033806" lon="-9.282950485931105"><ele>184.33333333333331</ele><time>2026-04-19T08:27:00.001Z</time></trkpt><trkpt lat="38.867212218433416" lon="-9.282710720776095"><ele>185.0</ele><time>2026-04-19T08:27:01.001Z</time></trkpt><trkpt lat="38.86720802275447" lon="-9.282483912869212"><ele>185.0</ele><time>2026-04-19T08:27:02.001Z</time></trkpt><trkpt lat="38.86720623429846" lon="-9.282292668983713"><ele>185.0</ele><time>2026-04-19T08:27:03.001Z</time></trkpt><trkpt lat="38.86722203821213" lon="-9.28212151499498"><ele>185.0</ele><time>2026-04-19T08:27:04.001Z</time></trkpt><trkpt lat="38.8672332331533" lon="-9.281977161361887"><ele>185.0</ele><time>2026-04-19T08:27:05.001Z</time></trkpt><trkpt lat="38.86727118491211" lon="-9.281831622678594"><ele>183.66666666666666</ele><time>2026-04-19T08:27:06.001Z</time></trkpt><trkpt lat="38.86733845701552" lon="-9.281661933841987"><ele>182.33333333333334</ele><time>2026-04-19T08:27:07.001Z</time></trkpt><trkpt lat="38.86741668092484" lon="-9.281479563551516"><ele>181.0</ele><time>2026-04-19T08:27:08.001Z</time></trkpt><trkpt lat="38.867492708292254" lon="-9.281301777660303"><ele>181.0</ele><time>2026-04-19T08:27:09.001Z</time></trkpt><trkpt lat="38.86756345121619" lon="-9.281145854650285"><ele>181.0</ele><time>2026-04-19T08:27:10.001Z</time></trkpt><trkpt lat="38.86761791116191" lon="-9.281005281467491"><ele>181.0</ele><time>2026-04-19T08:27:11.001Z</time></trkpt><trkpt lat="38.86767160426173" lon="-9.280873348534236"><ele>181.0</ele><time>2026-04-19T08:27:12.001Z</time></trkpt><trkpt lat="38.867682676670086" lon="-9.28075648449807"><ele>181.60000000000002</ele><time>2026-04-19T08:27:13.001Z</time></trkpt><trkpt lat="38.86771839365683" lon="-9.280651643593796"><ele>182.2</ele><time>2026-04-19T08:27:14.001Z</time></trkpt><trkpt lat="38.86779004379516" lon="-9.280558515496287"><ele>182.8</ele><time>2026-04-19T08:27:15.001Z</time></trkpt><trkpt lat="38.86788290275782" lon="-9.28048012367778"><ele>183.39999999999998</ele><time>2026-04-19T08:27:16.001Z</time></trkpt><trkpt lat="38.86798101352565" lon="-9.280367646276522"><ele>184.0</ele><time>2026-04-19T08:27:17.001Z</time></trkpt><trkpt lat="38.86808788498208" lon="-9.280246102888219"><ele>184.0</ele><time>2026-04-19T08:27:18.001Z</time></trkpt><trkpt lat="38.8681981760638" lon="-9.280112841835836"><ele>184.0</ele><time>2026-04-19T08:27:19.001Z</time></trkpt><trkpt lat="38.86830754210194" lon="-9.279961862691541"><ele>184.0</ele><time>2026-04-19T08:27:20.001Z</time></trkpt><trkpt lat="38.8684241171826" lon="-9.279818438825863"><ele>184.0</ele><time>2026-04-19T08:27:21.001Z</time></trkpt><trkpt lat="38.86852175235944" lon="-9.279707451077536"><ele>184.0</ele><time>2026-04-19T08:27:22.001Z</time></trkpt><trkpt lat="38.86862277728248" lon="-9.279589103787046"><ele>184.0</ele><time>2026-04-19T08:27:23.001Z</time></trkpt><trkpt lat="38.86870755183598" lon="-9.279481178683847"><ele>184.0</ele><time>2026-04-19T08:27:24.001Z</time></trkpt><trkpt lat="38.86875527134012" lon="-9.279377644760686"><ele>184.0</ele><time>2026-04-19T08:27:25.001Z</time></trkpt><trkpt lat="38.86878205046394" lon="-9.279276137252495"><ele>184.0</ele><time>2026-04-19T08:27:26.001Z</time></trkpt><trkpt lat="38.868776392295814" lon="-9.27914859736122"><ele>184.0</ele><time>2026-04-19T08:27:27.001Z</time></trkpt><trkpt lat="38.86879176894207" lon="-9.278971812625551"><ele>184.0</ele><time>2026-04-19T08:27:28.001Z</time></trkpt><trkpt lat="38.8688269937427" lon="-9.2787726507228"><ele>184.66666666666669</ele><time>2026-04-19T08:27:29.001Z</time></trkpt><trkpt lat="38.86886628936418" lon="-9.278573260142993"><ele>185.33333333333334</ele><time>2026-04-19T08:27:30.001Z</time></trkpt><trkpt lat="38.86890766128892" lon="-9.278370202034125"><ele>186.0</ele><time>2026-04-19T08:27:31.001Z</time></trkpt><trkpt lat="38.86894685323898" lon="-9.278205112177941"><ele>186.60000000000002</ele><time>2026-04-19T08:27:32.001Z</time></trkpt><trkpt lat="38.869001824847665" lon="-9.278082658603587"><ele>187.2</ele><time>2026-04-19T08:27:33.001Z</time></trkpt><trkpt lat="38.86903837672847" lon="-9.277982260659778"><ele>187.8</ele><time>2026-04-19T08:27:34.001Z</time></trkpt><trkpt lat="38.8690945175139" lon="-9.27791335924317"><ele>188.39999999999998</ele><time>2026-04-19T08:27:35.001Z</time></trkpt><trkpt lat="38.86918694016128" lon="-9.277932659940902"><ele>189.0</ele><time>2026-04-19T08:27:36.001Z</time></trkpt><trkpt lat="38.869291081107605" lon="-9.277879972464795"><ele>190.25</ele><time>2026-04-19T08:27:37.001Z</time></trkpt><trkpt lat="38.869415208255134" lon="-9.27786671981516"><ele>191.5</ele><time>2026-04-19T08:27:38.001Z</time></trkpt><trkpt lat="38.86952206617311" lon="-9.277841959567928"><ele>192.75</ele><time>2026-04-19T08:27:39.001Z</time></trkpt><trkpt lat="38.86964550140831" lon="-9.277862421524135"><ele>194.0</ele><time>2026-04-19T08:27:40.001Z</time></trkpt><trkpt lat="38.86976090069633" lon="-9.277943088444983"><ele>194.0</ele><time>2026-04-19T08:27:41.001Z</time></trkpt><trkpt lat="38.86990391402092" lon="-9.277998690184136"><ele>194.0</ele><time>2026-04-19T08:27:42.001Z</time></trkpt><trkpt lat="38.870031797263415" lon="-9.278082472101028"><ele>194.0</ele><time>2026-04-19T08:27:43.001Z</time></trkpt><trkpt lat="38.87014687372518" lon="-9.278115713637565"><ele>194.0</ele><time>2026-04-19T08:27:44.001Z</time></trkpt><trkpt lat="38.8702450305793" lon="-9.278145105211403"><ele>195.16666666666669</ele><time>2026-04-19T08:27:45.001Z</time></trkpt><trkpt lat="38.87033179324698" lon="-9.278170025637708"><ele>196.33333333333334</ele><time>2026-04-19T08:27:46.001Z</time></trkpt><trkpt lat="38.87039580197264" lon="-9.278126269485558"><ele>197.5</ele><time>2026-04-19T08:27:47.001Z</time></trkpt><trkpt lat="38.87047963820157" lon="-9.278120829201958"><ele>198.66666666666669</ele><time>2026-04-19T08:27:48.001Z</time></trkpt><trkpt lat="38.87056142525856" lon="-9.278093384358947"><ele>199.83333333333334</ele><time>2026-04-19T08:27:49.001Z</time></trkpt><trkpt lat="38.87064049300091" lon="-9.278091997074199"><ele>201.0</ele><time>2026-04-19T08:27:50.001Z</time></trkpt><trkpt lat="38.87071713445165" lon="-9.278110515905448"><ele>201.0</ele><time>2026-04-19T08:27:51.001Z</time></trkpt><trkpt lat="38.87078259081278" lon="-9.278130531944399"><ele>201.0</ele><time>2026-04-19T08:27:52.001Z</time></trkpt><trkpt lat="38.87086095622178" lon="-9.278116036994774"><ele>201.0</ele><time>2026-04-19T08:27:53.001Z</time></trkpt><trkpt lat="38.870934676598154" lon="-9.278110433175783"><ele>201.0</ele><time>2026-04-19T08:27:54.001Z</time></trkpt><trkpt lat="38.871034132439" lon="-9.278111408270648"><ele>201.0</ele><time>2026-04-19T08:27:55.001Z</time></trkpt><trkpt lat="38.871140215315094" lon="-9.278098581044967"><ele>201.0</ele><time>2026-04-19T08:27:56.001Z</time></trkpt><trkpt lat="38.87124661058677" lon="-9.278051362365655"><ele>203.4</ele><time>2026-04-19T08:27:57.001Z</time></trkpt><trkpt lat="38.87136073208395" lon="-9.27802219772161"><ele>205.8</ele><time>2026-04-19T08:27:58.001Z</time></trkpt><trkpt lat="38.87148395180344" lon="-9.27801257362902"><ele>208.20000000000002</ele><time>2026-04-19T08:27:59.001Z</time></trkpt><trkpt lat="38.87159513225858" lon="-9.277987992981402"><ele>210.60000000000002</ele><time>2026-04-19T08:28:00.001Z</time></trkpt><trkpt lat="38.87168647683972" lon="-9.277963692967303"><ele>213.0</ele><time>2026-04-19T08:28:01.001Z</time></trkpt><trkpt lat="38.8717944508793" lon="-9.27795577243766"><ele>214.5</ele><time>2026-04-19T08:28:02.001Z</time></trkpt><trkpt lat="38.87191424360031" lon="-9.277990166971334"><ele>216.0</ele><time>2026-04-19T08:28:03.001Z</time></trkpt><trkpt lat="38.87203440795263" lon="-9.277961775599286"><ele>217.5</ele><time>2026-04-19T08:28:04.001Z</time></trkpt><trkpt lat="38.872152072485825" lon="-9.277944217168075"><ele>219.0</ele><time>2026-04-19T08:28:05.001Z</time></trkpt><trkpt lat="38.87225218322584" lon="-9.277936386820345"><ele>219.0</ele><time>2026-04-19T08:28:06.001Z</time></trkpt><trkpt lat="38.87237411004525" lon="-9.277931385064024"><ele>219.0</ele><time>2026-04-19T08:28:07.001Z</time></trkpt><trkpt lat="38.872489750553534" lon="-9.27793685059103"><ele>219.0</ele><time>2026-04-19T08:28:08.001Z</time></trkpt><trkpt lat="38.872601991481105" lon="-9.277953007814936"><ele>219.0</ele><time>2026-04-19T08:28:09.001Z</time></trkpt><trkpt lat="38.872709318649704" lon="-9.2779634679084"><ele>219.79999999999998</ele><time>2026-04-19T08:28:10.001Z</time></trkpt><trkpt lat="38.87280895267754" lon="-9.277975727557589"><ele>220.59999999999997</ele><time>2026-04-19T08:28:11.001Z</time></trkpt><trkpt lat="38.872911439290995" lon="-9.277988122350234"><ele>221.4</ele><time>2026-04-19T08:28:12.001Z</time></trkpt><trkpt lat="38.87301467004381" lon="-9.278002263190434"><ele>222.2</ele><time>2026-04-19T08:28:13.001Z</time></trkpt><trkpt lat="38.8731353918361" lon="-9.278051944093821"><ele>223.0</ele><time>2026-04-19T08:28:14.001Z</time></trkpt><trkpt lat="38.87325197761171" lon="-9.278082139926248"><ele>221.49999999999997</ele><time>2026-04-19T08:28:15.001Z</time></trkpt><trkpt lat="38.87333986013179" lon="-9.278111629203897"><ele>220.0</ele><time>2026-04-19T08:28:16.001Z</time></trkpt><trkpt lat="38.873423949287606" lon="-9.278134728097495"><ele>218.5</ele><time>2026-04-19T08:28:17.001Z</time></trkpt><trkpt lat="38.873503209318336" lon="-9.278142646564392"><ele>217.0</ele><time>2026-04-19T08:28:18.001Z</time></trkpt><trkpt lat="38.87358736320434" lon="-9.27815055884476"><ele>215.49999999999997</ele><time>2026-04-19T08:28:19.001Z</time></trkpt><trkpt lat="38.87367114137622" lon="-9.278154726663383"><ele>214.0</ele><time>2026-04-19T08:28:20.001Z</time></trkpt><trkpt lat="38.87374498079083" lon="-9.278158962185948"><ele>213.49999999999997</ele><time>2026-04-19T08:28:21.001Z</time></trkpt><trkpt lat="38.873815930847414" lon="-9.2781923322875"><ele>213.0</ele><time>2026-04-19T08:28:22.001Z</time></trkpt><trkpt lat="38.87390215590443" lon="-9.27821118163938"><ele>212.5</ele><time>2026-04-19T08:28:23.001Z</time></trkpt><trkpt lat="38.87398163845618" lon="-9.278210098257404"><ele>212.0</ele><time>2026-04-19T08:28:24.001Z</time></trkpt><trkpt lat="38.87405949231778" lon="-9.278211082608331"><ele>211.49999999999997</ele><time>2026-04-19T08:28:25.001Z</time></trkpt><trkpt lat="38.87413627267508" lon="-9.278212654809225"><ele>211.0</ele><time>2026-04-19T08:28:26.001Z</time></trkpt><trkpt lat="38.874199355773634" lon="-9.27823571512761"><ele>210.83333333333331</ele><time>2026-04-19T08:28:27.001Z</time></trkpt><trkpt lat="38.87427549849391" lon="-9.278226883097403"><ele>210.66666666666666</ele><time>2026-04-19T08:28:30.001Z</time></trkpt><trkpt lat="38.874345868509295" lon="-9.278218999166944"><ele>210.5</ele><time>2026-04-19T08:28:33.001Z</time></trkpt><trkpt lat="38.874421006307614" lon="-9.278218325458784"><ele>210.33333333333331</ele><time>2026-04-19T08:28:36.001Z</time></trkpt><trkpt lat="38.87449028391482" lon="-9.27821543588577"><ele>210.16666666666666</ele><time>2026-04-19T08:28:38.001Z</time></trkpt><trkpt lat="38.87457756765006" lon="-9.278208024237513"><ele>210.0</ele><time>2026-04-19T08:28:40.001Z</time></trkpt><trkpt lat="38.87468897736755" lon="-9.278199948103921"><ele>210.0</ele><time>2026-04-19T08:28:42.001Z</time></trkpt><trkpt lat="38.87479594508851" lon="-9.278207215754376"><ele>210.0</ele><time>2026-04-19T08:28:43.001Z</time></trkpt><trkpt lat="38.87491763464384" lon="-9.278208561336935"><ele>210.0</ele><time>2026-04-19T08:28:44.001Z</time></trkpt><trkpt lat="38.87506256741962" lon="-9.278204566688963"><ele>210.0</ele><time>2026-04-19T08:28:45.001Z</time></trkpt><trkpt lat="38.87521494484167" lon="-9.27820426172856"><ele>211.0</ele><time>2026-04-19T08:28:46.001Z</time></trkpt><trkpt lat="38.87533696668173" lon="-9.278131056098493"><ele>212.0</ele><time>2026-04-19T08:28:47.001Z</time></trkpt><trkpt lat="38.87549672301962" lon="-9.278098415835055"><ele>213.0</ele><time>2026-04-19T08:28:48.001Z</time></trkpt><trkpt lat="38.87561245329348" lon="-9.278071706955881"><ele>214.0</ele><time>2026-04-19T08:28:49.001Z</time></trkpt><trkpt lat="38.87573028061844" lon="-9.278068347428842"><ele>214.0</ele><time>2026-04-19T08:28:50.001Z</time></trkpt><trkpt lat="38.875880005314194" lon="-9.278089407166943"><ele>214.0</ele><time>2026-04-19T08:28:51.001Z</time></trkpt><trkpt lat="38.87604573670092" lon="-9.278141146146659"><ele>214.0</ele><time>2026-04-19T08:28:52.001Z</time></trkpt><trkpt lat="38.87622915461159" lon="-9.278176434251028"><ele>214.0</ele><time>2026-04-19T08:28:53.001Z</time></trkpt><trkpt lat="38.87643392255837" lon="-9.278171409112828"><ele>214.0</ele><time>2026-04-19T08:28:54.001Z</time></trkpt><trkpt lat="38.87662058781895" lon="-9.27815838695184"><ele>214.0</ele><time>2026-04-19T08:28:55.001Z</time></trkpt><trkpt lat="38.876818843315505" lon="-9.278153985522602"><ele>214.33333333333331</ele><time>2026-04-19T08:28:56.001Z</time></trkpt><trkpt lat="38.87701376292691" lon="-9.278137543396939"><ele>214.66666666666669</ele><time>2026-04-19T08:28:57.001Z</time></trkpt><trkpt lat="38.87717272556956" lon="-9.278082403333197"><ele>215.0</ele><time>2026-04-19T08:28:58.001Z</time></trkpt><trkpt lat="38.87732497416445" lon="-9.27806810335507"><ele>215.4</ele><time>2026-04-19T08:28:59.001Z</time></trkpt><trkpt lat="38.87745342579694" lon="-9.27804574389915"><ele>215.8</ele><time>2026-04-19T08:29:00.001Z</time></trkpt><trkpt lat="38.87755709317379" lon="-9.278036973342942"><ele>216.2</ele><time>2026-04-19T08:29:01.001Z</time></trkpt><trkpt lat="38.87764602434232" lon="-9.278036136512146"><ele>216.6</ele><time>2026-04-19T08:29:02.001Z</time></trkpt><trkpt lat="38.877731739586416" lon="-9.278108864127034"><ele>217.0</ele><time>2026-04-19T08:29:03.001Z</time></trkpt><trkpt lat="38.877846183585326" lon="-9.278198702888192"><ele>217.16666666666666</ele><time>2026-04-19T08:29:04.001Z</time></trkpt><trkpt lat="38.87798415771215" lon="-9.278225791150744"><ele>217.33333333333331</ele><time>2026-04-19T08:29:05.001Z</time></trkpt><trkpt lat="38.87808182938199" lon="-9.278264908821116"><ele>217.5</ele><time>2026-04-19T08:29:06.001Z</time></trkpt><trkpt lat="38.87814931802689" lon="-9.278267708946478"><ele>217.66666666666669</ele><time>2026-04-19T08:29:07.001Z</time></trkpt><trkpt lat="38.87822081824107" lon="-9.278285023073694"><ele>217.83333333333334</ele><time>2026-04-19T08:29:09.001Z</time></trkpt><trkpt lat="38.87828426747408" lon="-9.278308586251287"><ele>218.0</ele><time>2026-04-19T08:30:17.001Z</time></trkpt><trkpt lat="38.87834631634608" lon="-9.278332969858868"><ele>218.00000000000003</ele><time>2026-04-19T08:30:24.001Z</time></trkpt><trkpt lat="38.87828220816087" lon="-9.278322604151768"><ele>218.0</ele><time>2026-04-19T08:30:43.001Z</time></trkpt><trkpt lat="38.87828040197002" lon="-9.278239533695311"><ele>218.0</ele><time>2026-04-19T08:31:27.001Z</time></trkpt><trkpt lat="38.878248668195624" lon="-9.278129528854322"><ele>218.0</ele><time>2026-04-19T08:31:36.001Z</time></trkpt><trkpt lat="38.87833347147311" lon="-9.278144058655108"><ele>218.00000000000003</ele><time>2026-04-19T08:32:31.001Z</time></trkpt><trkpt lat="38.87832661901625" lon="-9.278276282664839"><ele>218.0</ele><time>2026-04-19T08:32:38.001Z</time></trkpt><trkpt lat="38.8783081736719" lon="-9.278443301848078"><ele>218.0</ele><time>2026-04-19T08:32:42.001Z</time></trkpt><trkpt lat="38.87832170924812" lon="-9.278346393007329"><ele>218.0</ele><time>2026-04-19T08:32:46.001Z</time></trkpt><trkpt lat="38.87837979505551" lon="-9.278250104861135"><ele>218.0</ele><time>2026-04-19T08:33:08.406Z</time></trkpt><trkpt lat="38.87852485873951" lon="-9.278135971197193"><ele>218.0</ele><time>2026-04-19T08:33:14.376Z</time></trkpt><trkpt lat="38.87846539535393" lon="-9.27818853377176"><ele>218.0</ele><time>2026-04-19T08:33:27.359Z</time></trkpt><trkpt lat="38.878421366620934" lon="-9.27829448559697"><ele>218.0</ele><time>2026-04-19T08:33:36.71Z</time></trkpt><trkpt lat="38.87850014749251" lon="-9.278168333791989"><ele>218.0</ele><time>2026-04-19T08:33:42.364Z</time></trkpt><trkpt lat="38.878313199874476" lon="-9.278484122359442"><ele>218.0</ele><time>2026-04-19T08:34:13.674Z</time></trkpt><trkpt lat="38.878321754339865" lon="-9.278299674614033"><ele>218.0</ele><time>2026-04-19T08:34:14.351Z</time></trkpt><trkpt lat="38.878443844276696" lon="-9.278216330452814"><ele>218.0</ele><time>2026-04-19T08:34:23.071Z</time></trkpt><trkpt lat="38.87832938123334" lon="-9.278446334556637"><ele>218.0</ele><time>2026-04-19T08:34:58.001Z</time></trkpt><trkpt lat="38.87829569142811" lon="-9.278362002075898"><ele>218.0</ele><time>2026-04-19T08:35:05Z</time></trkpt><trkpt lat="38.87823435545493" lon="-9.278334659871216"><ele>218.00000000000003</ele><time>2026-04-19T08:35:13Z</time></trkpt><trkpt lat="38.878297042131265" lon="-9.278313584969723"><ele>218.0</ele><time>2026-04-19T08:39:46Z</time></trkpt><trkpt lat="38.8783832993556" lon="-9.278330537308966"><ele>218.0</ele><time>2026-04-19T08:39:48Z</time></trkpt><trkpt lat="38.87845959901716" lon="-9.278244398093872"><ele>218.0</ele><time>2026-04-19T08:39:50Z</time></trkpt><trkpt lat="38.87849990631235" lon="-9.278158754587178"><ele>218.00000000000003</ele><time>2026-04-19T08:39:51Z</time></trkpt><trkpt lat="38.87854584184613" lon="-9.278044500718986"><ele>218.0</ele><time>2026-04-19T08:39:52Z</time></trkpt><trkpt lat="38.878606839021565" lon="-9.277926966644365"><ele>218.25</ele><time>2026-04-19T08:39:53Z</time></trkpt><trkpt lat="38.87867418938638" lon="-9.277792091539615"><ele>218.5</ele><time>2026-04-19T08:39:54Z</time></trkpt><trkpt lat="38.878747698519" lon="-9.277640808405195"><ele>218.75</ele><time>2026-04-19T08:39:55Z</time></trkpt><trkpt lat="38.87882943404699" lon="-9.277469226373096"><ele>219.0</ele><time>2026-04-19T08:39:56Z</time></trkpt><trkpt lat="38.87891384833105" lon="-9.277296602298607"><ele>219.5</ele><time>2026-04-19T08:39:57Z</time></trkpt><trkpt lat="38.879001245226874" lon="-9.277140987886707"><ele>220.0</ele><time>2026-04-19T08:39:58Z</time></trkpt><trkpt lat="38.87908776223858" lon="-9.276985072280256"><ele>220.5</ele><time>2026-04-19T08:39:59Z</time></trkpt><trkpt lat="38.879163491883524" lon="-9.276848958738578"><ele>221.0</ele><time>2026-04-19T08:40:00Z</time></trkpt><trkpt lat="38.879206597476106" lon="-9.276725992192334"><ele>221.0</ele><time>2026-04-19T08:40:01Z</time></trkpt><trkpt lat="38.87924022395598" lon="-9.276635002632332"><ele>221.0</ele><time>2026-04-19T08:40:02Z</time></trkpt><trkpt lat="38.879245891016446" lon="-9.276490928330391"><ele>221.0</ele><time>2026-04-19T08:40:04Z</time></trkpt><trkpt lat="38.879251085329344" lon="-9.276388275440794"><ele>221.0</ele><time>2026-04-19T08:40:06Z</time></trkpt><trkpt lat="38.87945444131106" lon="-9.276400433621243"><ele>222.20000000000002</ele><time>2026-04-19T08:40:07Z</time></trkpt><trkpt lat="38.87956660743627" lon="-9.276394342463508"><ele>223.40000000000003</ele><time>2026-04-19T08:40:08Z</time></trkpt><trkpt lat="38.87965800187932" lon="-9.276352781684716"><ele>224.6</ele><time>2026-04-19T08:40:09Z</time></trkpt><trkpt lat="38.879724930218416" lon="-9.276251561131314"><ele>225.8</ele><time>2026-04-19T08:40:10Z</time></trkpt><trkpt lat="38.879830974191464" lon="-9.276166234858113"><ele>227.0</ele><time>2026-04-19T08:40:11Z</time></trkpt><trkpt lat="38.879938336413545" lon="-9.276066908613945"><ele>227.0</ele><time>2026-04-19T08:40:12Z</time></trkpt><trkpt lat="38.880045378821386" lon="-9.275987273005954"><ele>227.0</ele><time>2026-04-19T08:40:13Z</time></trkpt><trkpt lat="38.880156559984435" lon="-9.275900946458915"><ele>227.0</ele><time>2026-04-19T08:40:14Z</time></trkpt><trkpt lat="38.880290975758335" lon="-9.275817559849179"><ele>227.0</ele><time>2026-04-19T08:40:15Z</time></trkpt><trkpt lat="38.88042435473267" lon="-9.275740897282674"><ele>228.75</ele><time>2026-04-19T08:40:16Z</time></trkpt><trkpt lat="38.88052011759638" lon="-9.275605590888464"><ele>230.5</ele><time>2026-04-19T08:40:17Z</time></trkpt><trkpt lat="38.88055518415332" lon="-9.275477253369019"><ele>232.25</ele><time>2026-04-19T08:40:18Z</time></trkpt><trkpt lat="38.88061842418711" lon="-9.275335217212614"><ele>234.0</ele><time>2026-04-19T08:40:19Z</time></trkpt><trkpt lat="38.880687747813774" lon="-9.275206639684978"><ele>234.5</ele><time>2026-04-19T08:40:20Z</time></trkpt><trkpt lat="38.880771694979046" lon="-9.275099627331022"><ele>235.0</ele><time>2026-04-19T08:40:21Z</time></trkpt><trkpt lat="38.880842565854344" lon="-9.275020968871583"><ele>235.5</ele><time>2026-04-19T08:40:22Z</time></trkpt><trkpt lat="38.88089805511579" lon="-9.274951192869365"><ele>236.0</ele><time>2026-04-19T08:40:23Z</time></trkpt><trkpt lat="38.88102151948187" lon="-9.275094539727961"><ele>238.4</ele><time>2026-04-19T08:40:26Z</time></trkpt><trkpt lat="38.88107815233042" lon="-9.2751531860297"><ele>240.8</ele><time>2026-04-19T08:40:27Z</time></trkpt><trkpt lat="38.88113006524012" lon="-9.275244954652285"><ele>243.20000000000002</ele><time>2026-04-19T08:40:28Z</time></trkpt><trkpt lat="38.88119750879978" lon="-9.275349690699928"><ele>245.60000000000002</ele><time>2026-04-19T08:40:29Z</time></trkpt><trkpt lat="38.88126781141631" lon="-9.275452792910531"><ele>248.0</ele><time>2026-04-19T08:40:30Z</time></trkpt><trkpt lat="38.88134182321831" lon="-9.275561413750044"><ele>246.75</ele><time>2026-04-19T08:40:31Z</time></trkpt><trkpt lat="38.88142374501133" lon="-9.275665944112422"><ele>245.5</ele><time>2026-04-19T08:40:32Z</time></trkpt><trkpt lat="38.88152228854652" lon="-9.275793422479948"><ele>244.25</ele><time>2026-04-19T08:40:33Z</time></trkpt><trkpt lat="38.88162334776308" lon="-9.275916475838187"><ele>243.0</ele><time>2026-04-19T08:40:34Z</time></trkpt><trkpt lat="38.88172040171425" lon="-9.276018770910975"><ele>243.8</ele><time>2026-04-19T08:40:35Z</time></trkpt><trkpt lat="38.881801559602586" lon="-9.276093554887568"><ele>244.60000000000002</ele><time>2026-04-19T08:40:36Z</time></trkpt><trkpt lat="38.88187196081008" lon="-9.276152725770501"><ele>245.39999999999998</ele><time>2026-04-19T08:40:37Z</time></trkpt><trkpt lat="38.88190317156155" lon="-9.276258583109202"><ele>246.2</ele><time>2026-04-19T08:40:38Z</time></trkpt><trkpt lat="38.88203768368186" lon="-9.276120519206419"><ele>247.0</ele><time>2026-04-19T08:40:39Z</time></trkpt><trkpt lat="38.88213887385274" lon="-9.27610970399046"><ele>247.0</ele><time>2026-04-19T08:40:40Z</time></trkpt><trkpt lat="38.882239749721144" lon="-9.276079258841529"><ele>247.0</ele><time>2026-04-19T08:40:41Z</time></trkpt><trkpt lat="38.88234807698703" lon="-9.276042843558626"><ele>247.0</ele><time>2026-04-19T08:40:42Z</time></trkpt><trkpt lat="38.882482571860166" lon="-9.276012067766098"><ele>247.0</ele><time>2026-04-19T08:40:43Z</time></trkpt><trkpt lat="38.88260497549293" lon="-9.27595862545965"><ele>248.2</ele><time>2026-04-19T08:40:44Z</time></trkpt><trkpt lat="38.88272281984627" lon="-9.275935814032703"><ele>249.39999999999998</ele><time>2026-04-19T08:40:45Z</time></trkpt><trkpt lat="38.882825744422455" lon="-9.27591677623971"><ele>250.60000000000002</ele><time>2026-04-19T08:40:46Z</time></trkpt><trkpt lat="38.88293151994099" lon="-9.275924407090791"><ele>251.8</ele><time>2026-04-19T08:40:47Z</time></trkpt><trkpt lat="38.883002769028785" lon="-9.275982916856966"><ele>253.0</ele><time>2026-04-19T08:40:48Z</time></trkpt><trkpt lat="38.88307622205777" lon="-9.276008027406567"><ele>253.0</ele><time>2026-04-19T08:40:49Z</time></trkpt><trkpt lat="38.883164157825746" lon="-9.27609846900633"><ele>253.0</ele><time>2026-04-19T08:40:51Z</time></trkpt><trkpt lat="38.883228372053935" lon="-9.276165923691286"><ele>253.0</ele><time>2026-04-19T08:41:34Z</time></trkpt><trkpt lat="38.8833109141283" lon="-9.2762290180301"><ele>253.0</ele><time>2026-04-19T08:41:36Z</time></trkpt><trkpt lat="38.88338816521782" lon="-9.276291371401749"><ele>253.0</ele><time>2026-04-19T08:41:37Z</time></trkpt><trkpt lat="38.88346522766814" lon="-9.276350859037606"><ele>253.66666666666666</ele><time>2026-04-19T08:41:38Z</time></trkpt><trkpt lat="38.883543317658834" lon="-9.276392280656738"><ele>254.33333333333331</ele><time>2026-04-19T08:41:39Z</time></trkpt><trkpt lat="38.88362410432861" lon="-9.27643365069541"><ele>255.0</ele><time>2026-04-19T08:41:40Z</time></trkpt><trkpt lat="38.88371751521792" lon="-9.27646335060536"><ele>255.66666666666669</ele><time>2026-04-19T08:41:41Z</time></trkpt><trkpt lat="38.883814283827185" lon="-9.276494422582868"><ele>256.33333333333337</ele><time>2026-04-19T08:41:42Z</time></trkpt><trkpt lat="38.88388906951283" lon="-9.276529644422823"><ele>257.0</ele><time>2026-04-19T08:41:43Z</time></trkpt><trkpt lat="38.88396254664635" lon="-9.276544273634247"><ele>257.0</ele><time>2026-04-19T08:41:44Z</time></trkpt><trkpt lat="38.88403962244578" lon="-9.276559403427878"><ele>257.0</ele><time>2026-04-19T08:41:45Z</time></trkpt><trkpt lat="38.88411870908613" lon="-9.276580326174079"><ele>257.0</ele><time>2026-04-19T08:41:46Z</time></trkpt><trkpt lat="38.8841935012794" lon="-9.276598399885685"><ele>257.0</ele><time>2026-04-19T08:41:47Z</time></trkpt><trkpt lat="38.88429166316338" lon="-9.27666005370637"><ele>257.0</ele><time>2026-04-19T08:41:49Z</time></trkpt><trkpt lat="38.88439479283219" lon="-9.276552686413693"><ele>257.0</ele><time>2026-04-19T08:41:51Z</time></trkpt><trkpt lat="38.88445667837892" lon="-9.276487765485475"><ele>257.0</ele><time>2026-04-19T08:41:52Z</time></trkpt><trkpt lat="38.88453048029373" lon="-9.276439817153738"><ele>257.0</ele><time>2026-04-19T08:41:53Z</time></trkpt><trkpt lat="38.88458803283463" lon="-9.276390150281166"><ele>257.0</ele><time>2026-04-19T08:41:54Z</time></trkpt><trkpt lat="38.88463555181164" lon="-9.276326041818102"><ele>257.0</ele><time>2026-04-19T08:41:55Z</time></trkpt><trkpt lat="38.88468100358431" lon="-9.276267466376229"><ele>257.0</ele><time>2026-04-19T08:41:56Z</time></trkpt><trkpt lat="38.88473851417181" lon="-9.276218517038158"><ele>257.0</ele><time>2026-04-19T08:41:57Z</time></trkpt><trkpt lat="38.884808661057946" lon="-9.276102172148498"><ele>257.0</ele><time>2026-04-19T08:41:59Z</time></trkpt><trkpt lat="38.88484327414405" lon="-9.276025719527293"><ele>257.0</ele><time>2026-04-19T08:42:00Z</time></trkpt><trkpt lat="38.88491342624503" lon="-9.275878570183476"><ele>257.0</ele><time>2026-04-19T08:42:02Z</time></trkpt><trkpt lat="38.88494595382099" lon="-9.275772999031858"><ele>257.0</ele><time>2026-04-19T08:42:03Z</time></trkpt><trkpt lat="38.88502783315481" lon="-9.275683103263152"><ele>257.0</ele><time>2026-04-19T08:42:04Z</time></trkpt><trkpt lat="38.88511072776507" lon="-9.275574157751771"><ele>258.0</ele><time>2026-04-19T08:42:05Z</time></trkpt><trkpt lat="38.885220856762245" lon="-9.275494533519655"><ele>259.0</ele><time>2026-04-19T08:42:06Z</time></trkpt><trkpt lat="38.885335036505346" lon="-9.275400392290274"><ele>260.0</ele><time>2026-04-19T08:42:07Z</time></trkpt><trkpt lat="38.88546289039197" lon="-9.275291156520142"><ele>261.0</ele><time>2026-04-19T08:42:08Z</time></trkpt><trkpt lat="38.88556569095966" lon="-9.275141311221084"><ele>261.0</ele><time>2026-04-19T08:42:09Z</time></trkpt><trkpt lat="38.88566886947753" lon="-9.27500446485736"><ele>261.0</ele><time>2026-04-19T08:42:10Z</time></trkpt><trkpt lat="38.88579578243829" lon="-9.274886007525565"><ele>261.0</ele><time>2026-04-19T08:42:11Z</time></trkpt><trkpt lat="38.88590497085325" lon="-9.274772671265284"><ele>261.0</ele><time>2026-04-19T08:42:12Z</time></trkpt><trkpt lat="38.88600021249406" lon="-9.2746899210352"><ele>262.40000000000003</ele><time>2026-04-19T08:42:13Z</time></trkpt><trkpt lat="38.88608293325555" lon="-9.274621287447024"><ele>263.8</ele><time>2026-04-19T08:42:14Z</time></trkpt><trkpt lat="38.886194924142906" lon="-9.274590524603363"><ele>265.20000000000005</ele><time>2026-04-19T08:42:15Z</time></trkpt><trkpt lat="38.88630466520138" lon="-9.274607505571364"><ele>266.6</ele><time>2026-04-19T08:42:16Z</time></trkpt><trkpt lat="38.88641317728145" lon="-9.27465624369076"><ele>268.0</ele><time>2026-04-19T08:42:17Z</time></trkpt><trkpt lat="38.88653711355176" lon="-9.274665575171307"><ele>268.0</ele><time>2026-04-19T08:42:18Z</time></trkpt><trkpt lat="38.88665810888766" lon="-9.274658315607134"><ele>268.0</ele><time>2026-04-19T08:42:19Z</time></trkpt><trkpt lat="38.88677977122209" lon="-9.274623408779975"><ele>268.0</ele><time>2026-04-19T08:42:20Z</time></trkpt><trkpt lat="38.886896667179386" lon="-9.274583866235854"><ele>268.0</ele><time>2026-04-19T08:42:21Z</time></trkpt><trkpt lat="38.8869937031753" lon="-9.274547475430277"><ele>268.0</ele><time>2026-04-19T08:42:22Z</time></trkpt><trkpt lat="38.88707191002329" lon="-9.274504227212768"><ele>268.0</ele><time>2026-04-19T08:42:23Z</time></trkpt><trkpt lat="38.88714870263965" lon="-9.274446227528228"><ele>268.0</ele><time>2026-04-19T08:42:24Z</time></trkpt><trkpt lat="38.88722949131861" lon="-9.274381759910897"><ele>268.0</ele><time>2026-04-19T08:42:25Z</time></trkpt><trkpt lat="38.88730596462977" lon="-9.274315680289254"><ele>268.0</ele><time>2026-04-19T08:42:26Z</time></trkpt><trkpt lat="38.88738500846179" lon="-9.274257457800386"><ele>268.0</ele><time>2026-04-19T08:42:27Z</time></trkpt><trkpt lat="38.88746502997519" lon="-9.274191836809484"><ele>268.0</ele><time>2026-04-19T08:42:28Z</time></trkpt><trkpt lat="38.88754805324907" lon="-9.274126325417702"><ele>268.0</ele><time>2026-04-19T08:42:29Z</time></trkpt><trkpt lat="38.88761320174009" lon="-9.274032284526074"><ele>268.0</ele><time>2026-04-19T08:42:30Z</time></trkpt><trkpt lat="38.88767839836899" lon="-9.273953176984515"><ele>268.0</ele><time>2026-04-19T08:42:31Z</time></trkpt><trkpt lat="38.88774788387113" lon="-9.273860370117749"><ele>270.0</ele><time>2026-04-19T08:42:32Z</time></trkpt><trkpt lat="38.88781751698872" lon="-9.273763044010153"><ele>272.0</ele><time>2026-04-19T08:42:33Z</time></trkpt><trkpt lat="38.887886281404306" lon="-9.2736644883457"><ele>274.0</ele><time>2026-04-19T08:42:34Z</time></trkpt><trkpt lat="38.88795264066301" lon="-9.273562580994062"><ele>276.0</ele><time>2026-04-19T08:42:35Z</time></trkpt><trkpt lat="38.88801571768156" lon="-9.273467046378139"><ele>278.0</ele><time>2026-04-19T08:42:36Z</time></trkpt><trkpt lat="38.88807255013303" lon="-9.273393614188556"><ele>278.0</ele><time>2026-04-19T08:42:37Z</time></trkpt><trkpt lat="38.888129016160036" lon="-9.273325702742673"><ele>278.0</ele><time>2026-04-19T08:42:38Z</time></trkpt><trkpt lat="38.88821991250009" lon="-9.273297301697005"><ele>278.0</ele><time>2026-04-19T08:42:39Z</time></trkpt><trkpt lat="38.888319720018664" lon="-9.27326493498701"><ele>278.0</ele><time>2026-04-19T08:42:40Z</time></trkpt><trkpt lat="38.88837951786862" lon="-9.273171726359402"><ele>278.0</ele><time>2026-04-19T08:42:41Z</time></trkpt><trkpt lat="38.88844017091793" lon="-9.273092182145334"><ele>278.25</ele><time>2026-04-19T08:42:42Z</time></trkpt><trkpt lat="38.88852738606789" lon="-9.27299355287115"><ele>278.5</ele><time>2026-04-19T08:42:43Z</time></trkpt><trkpt lat="38.88861982614293" lon="-9.272878046463552"><ele>278.75</ele><time>2026-04-19T08:42:44Z</time></trkpt><trkpt lat="38.88872323244288" lon="-9.272762247996832"><ele>279.0</ele><time>2026-04-19T08:42:45Z</time></trkpt><trkpt lat="38.88883089280162" lon="-9.272651938724874"><ele>279.0</ele><time>2026-04-19T08:42:46Z</time></trkpt><trkpt lat="38.88893212578926" lon="-9.272551801877588"><ele>279.0</ele><time>2026-04-19T08:42:47Z</time></trkpt><trkpt lat="38.88900350401055" lon="-9.272419579924069"><ele>279.0</ele><time>2026-04-19T08:42:48Z</time></trkpt><trkpt lat="38.88907480475703" lon="-9.272311212638181"><ele>279.0</ele><time>2026-04-19T08:42:49Z</time></trkpt><trkpt lat="38.889142112521775" lon="-9.272192908695063"><ele>279.0</ele><time>2026-04-19T08:42:50Z</time></trkpt><trkpt lat="38.88919821710997" lon="-9.272078631342238"><ele>279.0</ele><time>2026-04-19T08:42:51Z</time></trkpt><trkpt lat="38.889247840949416" lon="-9.27196494500155"><ele>279.0</ele><time>2026-04-19T08:42:52Z</time></trkpt><trkpt lat="38.88929748797934" lon="-9.271838345194364"><ele>279.0</ele><time>2026-04-19T08:42:53Z</time></trkpt><trkpt lat="38.88934743386351" lon="-9.271702317168"><ele>279.0</ele><time>2026-04-19T08:42:54Z</time></trkpt><trkpt lat="38.88938313156453" lon="-9.271600690437007"><ele>279.0</ele><time>2026-04-19T08:42:55Z</time></trkpt><trkpt lat="38.88941238532821" lon="-9.271516063518112"><ele>279.0</ele><time>2026-04-19T08:42:56Z</time></trkpt><trkpt lat="38.88944841680193" lon="-9.271411828031933"><ele>279.0</ele><time>2026-04-19T08:42:58Z</time></trkpt><trkpt lat="38.88955016969752" lon="-9.271508166226123"><ele>279.0</ele><time>2026-04-19T08:42:59Z</time></trkpt><trkpt lat="38.88962640168124" lon="-9.271550105959838"><ele>279.0</ele><time>2026-04-19T08:43:00Z</time></trkpt><trkpt lat="38.88973506437705" lon="-9.271543334600935"><ele>279.0</ele><time>2026-04-19T08:43:01Z</time></trkpt><trkpt lat="38.889836719649914" lon="-9.27154022677549"><ele>279.0</ele><time>2026-04-19T08:43:02Z</time></trkpt><trkpt lat="38.889940844044816" lon="-9.271552366385503"><ele>279.0</ele><time>2026-04-19T08:43:03Z</time></trkpt><trkpt lat="38.890060778566024" lon="-9.27153889361169"><ele>279.0</ele><time>2026-04-19T08:43:04Z</time></trkpt><trkpt lat="38.890182424141514" lon="-9.271525606520974"><ele>279.0</ele><time>2026-04-19T08:43:05Z</time></trkpt><trkpt lat="38.89028594372538" lon="-9.271521019687542"><ele>278.4</ele><time>2026-04-19T08:43:06Z</time></trkpt><trkpt lat="38.89038561161002" lon="-9.271520954825244"><ele>277.79999999999995</ele><time>2026-04-19T08:43:07Z</time></trkpt><trkpt lat="38.890476531803245" lon="-9.271514643249509"><ele>277.20000000000005</ele><time>2026-04-19T08:43:08Z</time></trkpt><trkpt lat="38.890560524780305" lon="-9.271514840434053"><ele>276.6</ele><time>2026-04-19T08:43:09Z</time></trkpt><trkpt lat="38.89064842347733" lon="-9.271572955341048"><ele>276.0</ele><time>2026-04-19T08:43:10Z</time></trkpt><trkpt lat="38.89074458060914" lon="-9.271658446204636"><ele>276.0</ele><time>2026-04-19T08:43:11Z</time></trkpt><trkpt lat="38.890854473846424" lon="-9.27173878739397"><ele>276.0</ele><time>2026-04-19T08:43:12Z</time></trkpt><trkpt lat="38.89098004131457" lon="-9.271815303578023"><ele>276.0</ele><time>2026-04-19T08:43:13Z</time></trkpt><trkpt lat="38.89111580848548" lon="-9.27188153943301"><ele>276.0</ele><time>2026-04-19T08:43:14Z</time></trkpt><trkpt lat="38.89123851297538" lon="-9.271946428464451"><ele>276.5</ele><time>2026-04-19T08:43:15Z</time></trkpt><trkpt lat="38.89135833668297" lon="-9.271969257527424"><ele>277.0</ele><time>2026-04-19T08:43:16Z</time></trkpt><trkpt lat="38.89149356099834" lon="-9.272012091721285"><ele>277.5</ele><time>2026-04-19T08:43:17Z</time></trkpt><trkpt lat="38.89164456635277" lon="-9.272021919455034"><ele>278.0</ele><time>2026-04-19T08:43:18Z</time></trkpt><trkpt lat="38.89178949907934" lon="-9.27203067599039"><ele>278.25</ele><time>2026-04-19T08:43:19Z</time></trkpt><trkpt lat="38.89191996460038" lon="-9.272040084523946"><ele>278.5</ele><time>2026-04-19T08:43:20Z</time></trkpt><trkpt lat="38.89203942476455" lon="-9.272080205261751"><ele>278.75</ele><time>2026-04-19T08:43:21Z</time></trkpt><trkpt lat="38.89215087686294" lon="-9.272141544922286"><ele>279.0</ele><time>2026-04-19T08:43:22Z</time></trkpt><trkpt lat="38.89227096884454" lon="-9.272143622425755"><ele>279.0</ele><time>2026-04-19T08:43:23Z</time></trkpt><trkpt lat="38.892391064469315" lon="-9.272111478475797"><ele>279.0</ele><time>2026-04-19T08:43:24Z</time></trkpt><trkpt lat="38.89251096149639" lon="-9.272107297550166"><ele>279.0</ele><time>2026-04-19T08:43:25Z</time></trkpt><trkpt lat="38.892646721125395" lon="-9.272044024850107"><ele>279.0</ele><time>2026-04-19T08:43:26Z</time></trkpt><trkpt lat="38.892795195868715" lon="-9.272025202702231"><ele>278.0</ele><time>2026-04-19T08:43:27Z</time></trkpt><trkpt lat="38.89294972671856" lon="-9.272039646545075"><ele>277.0</ele><time>2026-04-19T08:43:28Z</time></trkpt><trkpt lat="38.893110850237335" lon="-9.272049501756852"><ele>276.0</ele><time>2026-04-19T08:43:29Z</time></trkpt><trkpt lat="38.89327827949817" lon="-9.2720232593299"><ele>275.0</ele><time>2026-04-19T08:43:30Z</time></trkpt><trkpt lat="38.89344557172348" lon="-9.271999723835942"><ele>274.0</ele><time>2026-04-19T08:43:31Z</time></trkpt><trkpt lat="38.89359838515446" lon="-9.271996225171993"><ele>273.0</ele><time>2026-04-19T08:43:32Z</time></trkpt><trkpt lat="38.89375586176813" lon="-9.272001379301534"><ele>273.0</ele><time>2026-04-19T08:43:33Z</time></trkpt><trkpt lat="38.89391157640536" lon="-9.272027634790554"><ele>273.0</ele><time>2026-04-19T08:43:34Z</time></trkpt><trkpt lat="38.894055963044" lon="-9.272012289015805"><ele>273.0</ele><time>2026-04-19T08:43:35Z</time></trkpt><trkpt lat="38.89420359763342" lon="-9.272012054719376"><ele>273.75</ele><time>2026-04-19T08:43:36Z</time></trkpt><trkpt lat="38.894355460476206" lon="-9.271998272621751"><ele>274.5</ele><time>2026-04-19T08:43:37Z</time></trkpt><trkpt lat="38.894500522213825" lon="-9.271978145642162"><ele>275.25</ele><time>2026-04-19T08:43:38Z</time></trkpt><trkpt lat="38.89462685366082" lon="-9.271949412530976"><ele>276.0</ele><time>2026-04-19T08:43:39Z</time></trkpt><trkpt lat="38.894766847873235" lon="-9.27195542671508"><ele>276.0</ele><time>2026-04-19T08:43:40Z</time></trkpt><trkpt lat="38.89492219019213" lon="-9.271981934529355"><ele>276.0</ele><time>2026-04-19T08:43:41Z</time></trkpt><trkpt lat="38.89508036319118" lon="-9.27202819022047"><ele>276.0</ele><time>2026-04-19T08:43:42Z</time></trkpt><trkpt lat="38.895245077144864" lon="-9.27208274102374"><ele>277.0</ele><time>2026-04-19T08:43:43Z</time></trkpt><trkpt lat="38.895414440775816" lon="-9.27212610950721"><ele>278.0</ele><time>2026-04-19T08:43:44Z</time></trkpt><trkpt lat="38.895584493541016" lon="-9.272142768924871"><ele>279.0</ele><time>2026-04-19T08:43:45Z</time></trkpt><trkpt lat="38.89574832340574" lon="-9.272157783444424"><ele>279.0</ele><time>2026-04-19T08:43:46Z</time></trkpt><trkpt lat="38.89591100660914" lon="-9.272185941493767"><ele>279.0</ele><time>2026-04-19T08:43:47Z</time></trkpt><trkpt lat="38.896055020472694" lon="-9.272227853295057"><ele>279.0</ele><time>2026-04-19T08:43:48Z</time></trkpt><trkpt lat="38.89617779530183" lon="-9.27228267245094"><ele>279.0</ele><time>2026-04-19T08:43:49Z</time></trkpt><trkpt lat="38.89630207660459" lon="-9.272332334498232"><ele>279.75</ele><time>2026-04-19T08:43:50Z</time></trkpt><trkpt lat="38.8964295043082" lon="-9.272386702715416"><ele>280.5</ele><time>2026-04-19T08:43:51Z</time></trkpt><trkpt lat="38.89656491146364" lon="-9.272437409305816"><ele>281.25</ele><time>2026-04-19T08:43:52Z</time></trkpt><trkpt lat="38.896692447490615" lon="-9.272485503150918"><ele>282.0</ele><time>2026-04-19T08:43:53Z</time></trkpt><trkpt lat="38.89680036943701" lon="-9.272516294327975"><ele>282.5</ele><time>2026-04-19T08:43:54Z</time></trkpt><trkpt lat="38.89688922218242" lon="-9.272542542496911"><ele>283.0</ele><time>2026-04-19T08:43:55Z</time></trkpt><trkpt lat="38.89696651817688" lon="-9.272529433697883"><ele>283.5</ele><time>2026-04-19T08:43:56Z</time></trkpt><trkpt lat="38.89704452388228" lon="-9.272518943675557"><ele>284.0</ele><time>2026-04-19T08:43:57Z</time></trkpt><trkpt lat="38.89710775443354" lon="-9.272529942921496"><ele>284.5</ele><time>2026-04-19T08:43:58Z</time></trkpt><trkpt lat="38.89718061086233" lon="-9.272493075738296"><ele>285.0</ele><time>2026-04-19T08:43:59Z</time></trkpt><trkpt lat="38.89725204973172" lon="-9.272484102293658"><ele>285.0</ele><time>2026-04-19T08:44:00Z</time></trkpt><trkpt lat="38.89733494502413" lon="-9.27245485660907"><ele>285.0</ele><time>2026-04-19T08:44:01Z</time></trkpt><trkpt lat="38.89742454100984" lon="-9.272432894501097"><ele>285.0</ele><time>2026-04-19T08:44:02Z</time></trkpt><trkpt lat="38.8975076270466" lon="-9.272412010113129"><ele>285.0</ele><time>2026-04-19T08:44:03Z</time></trkpt><trkpt lat="38.89758743106187" lon="-9.272391363945689"><ele>285.0</ele><time>2026-04-19T08:44:04Z</time></trkpt><trkpt lat="38.89768051385376" lon="-9.272357010570335"><ele>285.0</ele><time>2026-04-19T08:44:05Z</time></trkpt><trkpt lat="38.89778381224599" lon="-9.272334495383724"><ele>285.0</ele><time>2026-04-19T08:44:06Z</time></trkpt><trkpt lat="38.897897786461435" lon="-9.272274711993518"><ele>285.0</ele><time>2026-04-19T08:44:07Z</time></trkpt><trkpt lat="38.898026756017444" lon="-9.272213932891658"><ele>285.0</ele><time>2026-04-19T08:44:08Z</time></trkpt><trkpt lat="38.89816318217373" lon="-9.272154404724759"><ele>285.0</ele><time>2026-04-19T08:44:09Z</time></trkpt><trkpt lat="38.89830617732103" lon="-9.272100422088563"><ele>284.5</ele><time>2026-04-19T08:44:10Z</time></trkpt><trkpt lat="38.89845556251341" lon="-9.2720470226496"><ele>284.0</ele><time>2026-04-19T08:44:11Z</time></trkpt><trkpt lat="38.898604077400236" lon="-9.272014549196173"><ele>283.5</ele><time>2026-04-19T08:44:12Z</time></trkpt><trkpt lat="38.898746599396816" lon="-9.271997044796901"><ele>283.0</ele><time>2026-04-19T08:44:13Z</time></trkpt><trkpt lat="38.89889498486526" lon="-9.272008432347423"><ele>283.0</ele><time>2026-04-19T08:44:14Z</time></trkpt><trkpt lat="38.89902386654645" lon="-9.272025856384738"><ele>283.0</ele><time>2026-04-19T08:44:15Z</time></trkpt><trkpt lat="38.89914570570049" lon="-9.272046529686802"><ele>283.0</ele><time>2026-04-19T08:44:16Z</time></trkpt><trkpt lat="38.89925427850981" lon="-9.272067360188732"><ele>283.0</ele><time>2026-04-19T08:44:17Z</time></trkpt><trkpt lat="38.89937415835984" lon="-9.272106366540083"><ele>282.0</ele><time>2026-04-19T08:44:18Z</time></trkpt><trkpt lat="38.89949008175847" lon="-9.27219300378727"><ele>281.0</ele><time>2026-04-19T08:44:19Z</time></trkpt><trkpt lat="38.899600481218286" lon="-9.272290792094532"><ele>280.0</ele><time>2026-04-19T08:44:20Z</time></trkpt><trkpt lat="38.899709449073235" lon="-9.27232891741408"><ele>279.0</ele><time>2026-04-19T08:44:21Z</time></trkpt><trkpt lat="38.89983112427886" lon="-9.272335366460533"><ele>280.5</ele><time>2026-04-19T08:44:22Z</time></trkpt><trkpt lat="38.899964649073794" lon="-9.272356783530304"><ele>282.0</ele><time>2026-04-19T08:44:23Z</time></trkpt><trkpt lat="38.90010060559505" lon="-9.272355758022568"><ele>283.5</ele><time>2026-04-19T08:44:24Z</time></trkpt><trkpt lat="38.90023647716589" lon="-9.272367502828294"><ele>285.0</ele><time>2026-04-19T08:44:25Z</time></trkpt><trkpt lat="38.90037450390703" lon="-9.27242977261157"><ele>285.0</ele><time>2026-04-19T08:44:26Z</time></trkpt><trkpt lat="38.90052299385025" lon="-9.272484418280454"><ele>285.0</ele><time>2026-04-19T08:44:27Z</time></trkpt><trkpt lat="38.90067468842488" lon="-9.272541299185194"><ele>285.0</ele><time>2026-04-19T08:44:28Z</time></trkpt><trkpt lat="38.900833887646556" lon="-9.272619238551158"><ele>283.6666666666667</ele><time>2026-04-19T08:44:29Z</time></trkpt><trkpt lat="38.90100222874942" lon="-9.272692184460528"><ele>282.33333333333337</ele><time>2026-04-19T08:44:30Z</time></trkpt><trkpt lat="38.90116481546245" lon="-9.272754444329964"><ele>281.0</ele><time>2026-04-19T08:44:31Z</time></trkpt><trkpt lat="38.901334263035494" lon="-9.272822766834599"><ele>281.0</ele><time>2026-04-19T08:44:32Z</time></trkpt><trkpt lat="38.90149710947525" lon="-9.272906874739498"><ele>281.0</ele><time>2026-04-19T08:44:33Z</time></trkpt><trkpt lat="38.90163102657506" lon="-9.272991099844775"><ele>281.0</ele><time>2026-04-19T08:44:34Z</time></trkpt><trkpt lat="38.90175970091065" lon="-9.273072442944995"><ele>282.5</ele><time>2026-04-19T08:44:35Z</time></trkpt><trkpt lat="38.90188660724314" lon="-9.273151351308295"><ele>284.0</ele><time>2026-04-19T08:44:36Z</time></trkpt><trkpt lat="38.90200746590594" lon="-9.273220925428491"><ele>285.5</ele><time>2026-04-19T08:44:37Z</time></trkpt><trkpt lat="38.902116586688734" lon="-9.27328107678173"><ele>287.0</ele><time>2026-04-19T08:44:38Z</time></trkpt><trkpt lat="38.90223167634897" lon="-9.27332563798628"><ele>287.0</ele><time>2026-04-19T08:44:39Z</time></trkpt><trkpt lat="38.90233794520013" lon="-9.273380631071854"><ele>287.0</ele><time>2026-04-19T08:44:40Z</time></trkpt><trkpt lat="38.90243105034135" lon="-9.273432452596035"><ele>287.0</ele><time>2026-04-19T08:44:41Z</time></trkpt><trkpt lat="38.90251881736162" lon="-9.273469249981318"><ele>287.0</ele><time>2026-04-19T08:44:42Z</time></trkpt><trkpt lat="38.90259981233958" lon="-9.273514080990255"><ele>287.0</ele><time>2026-04-19T08:44:43Z</time></trkpt><trkpt lat="38.902676370675415" lon="-9.2735232540462"><ele>286.8</ele><time>2026-04-19T08:44:44Z</time></trkpt><trkpt lat="38.902753076589796" lon="-9.273527674144534"><ele>286.6</ele><time>2026-04-19T08:44:45Z</time></trkpt><trkpt lat="38.9028303801479" lon="-9.273508423827822"><ele>286.40000000000003</ele><time>2026-04-19T08:44:46Z</time></trkpt><trkpt lat="38.902931415812176" lon="-9.273491819761135"><ele>286.2</ele><time>2026-04-19T08:44:47Z</time></trkpt><trkpt lat="38.90302331652459" lon="-9.273529014088576"><ele>286.0</ele><time>2026-04-19T08:44:48Z</time></trkpt><trkpt lat="38.90312388131119" lon="-9.273609536752115"><ele>286.0</ele><time>2026-04-19T08:44:49Z</time></trkpt><trkpt lat="38.90322079824026" lon="-9.273718599802612"><ele>286.0</ele><time>2026-04-19T08:44:50Z</time></trkpt><trkpt lat="38.90330219798108" lon="-9.273838070119458"><ele>286.0</ele><time>2026-04-19T08:44:51Z</time></trkpt><trkpt lat="38.903383574779355" lon="-9.27398265849071"><ele>286.0</ele><time>2026-04-19T08:44:52Z</time></trkpt><trkpt lat="38.90347578552491" lon="-9.274131713705424"><ele>289.66666666666663</ele><time>2026-04-19T08:44:53Z</time></trkpt><trkpt lat="38.90356946575778" lon="-9.27428237431457"><ele>293.3333333333333</ele><time>2026-04-19T08:44:54Z</time></trkpt><trkpt lat="38.90367381153841" lon="-9.274438103423064"><ele>297.0</ele><time>2026-04-19T08:44:55Z</time></trkpt><trkpt lat="38.903773289841304" lon="-9.274586202390497"><ele>297.0</ele><time>2026-04-19T08:44:56Z</time></trkpt><trkpt lat="38.90389851892067" lon="-9.274668807128966"><ele>297.0</ele><time>2026-04-19T08:44:57Z</time></trkpt><trkpt lat="38.90402876677101" lon="-9.274755181622906"><ele>297.0</ele><time>2026-04-19T08:44:58Z</time></trkpt><trkpt lat="38.90416032126502" lon="-9.274855120856266"><ele>297.0</ele><time>2026-04-19T08:44:59Z</time></trkpt><trkpt lat="38.904302092686265" lon="-9.274930183915524"><ele>302.0</ele><time>2026-04-19T08:45:00Z</time></trkpt><trkpt lat="38.90444132026161" lon="-9.27502896934307"><ele>307.0</ele><time>2026-04-19T08:45:01Z</time></trkpt><trkpt lat="38.90457682837146" lon="-9.27512954674739"><ele>312.0</ele><time>2026-04-19T08:45:02Z</time></trkpt><trkpt lat="38.904719747035756" lon="-9.275222142204555"><ele>312.0</ele><time>2026-04-19T08:45:03Z</time></trkpt><trkpt lat="38.904852111503736" lon="-9.27532907062063"><ele>312.0</ele><time>2026-04-19T08:45:04Z</time></trkpt><trkpt lat="38.904975479564975" lon="-9.275447331506093"><ele>312.0</ele><time>2026-04-19T08:45:05Z</time></trkpt><trkpt lat="38.90508748989094" lon="-9.27557959977758"><ele>317.3333333333333</ele><time>2026-04-19T08:45:06Z</time></trkpt><trkpt lat="38.90520300166677" lon="-9.275702200437744"><ele>322.66666666666663</ele><time>2026-04-19T08:45:07Z</time></trkpt><trkpt lat="38.90532857191804" lon="-9.275813904464215"><ele>328.0</ele><time>2026-04-19T08:45:08Z</time></trkpt><trkpt lat="38.905456446981255" lon="-9.275923815062965"><ele>328.0</ele><time>2026-04-19T08:45:09Z</time></trkpt><trkpt lat="38.905580469320846" lon="-9.276029998613103"><ele>328.0</ele><time>2026-04-19T08:45:10Z</time></trkpt><trkpt lat="38.9057033750914" lon="-9.276128979698537"><ele>328.0</ele><time>2026-04-19T08:45:11Z</time></trkpt><trkpt lat="38.90581633721486" lon="-9.276209134600942"><ele>328.0</ele><time>2026-04-19T08:45:12Z</time></trkpt><trkpt lat="38.90591975325208" lon="-9.276288638936014"><ele>330.2</ele><time>2026-04-19T08:45:13Z</time></trkpt><trkpt lat="38.90600276046857" lon="-9.276361207187922"><ele>332.4</ele><time>2026-04-19T08:45:14Z</time></trkpt><trkpt lat="38.906068860720296" lon="-9.276442581049512"><ele>334.59999999999997</ele><time>2026-04-19T08:45:15Z</time></trkpt><trkpt lat="38.906130516628636" lon="-9.27655599045155"><ele>336.79999999999995</ele><time>2026-04-19T08:45:16Z</time></trkpt><trkpt lat="38.9062121641055" lon="-9.276655257990408"><ele>339.0</ele><time>2026-04-19T08:45:17Z</time></trkpt><trkpt lat="38.90631209362835" lon="-9.276704652772976"><ele>339.0</ele><time>2026-04-19T08:45:18Z</time></trkpt><trkpt lat="38.90641311672648" lon="-9.276711180097877"><ele>339.0</ele><time>2026-04-19T08:45:19Z</time></trkpt><trkpt lat="38.906533721249524" lon="-9.276724439643758"><ele>339.0</ele><time>2026-04-19T08:45:20Z</time></trkpt><trkpt lat="38.90663377681794" lon="-9.27675751781362"><ele>339.0</ele><time>2026-04-19T08:45:21Z</time></trkpt><trkpt lat="38.90670289033231" lon="-9.276782267953292"><ele>339.0</ele><time>2026-04-19T08:45:22Z</time></trkpt><trkpt lat="38.90677646155337" lon="-9.27681574989452"><ele>342.4</ele><time>2026-04-19T08:45:24Z</time></trkpt><trkpt lat="38.90678000220411" lon="-9.27668171811156"><ele>345.79999999999995</ele><time>2026-04-19T08:45:35Z</time></trkpt><trkpt lat="38.90681549605755" lon="-9.276583881249326"><ele>349.20000000000005</ele><time>2026-04-19T08:45:36Z</time></trkpt><trkpt lat="38.90688123020458" lon="-9.276472055164248"><ele>352.6</ele><time>2026-04-19T08:45:37Z</time></trkpt><trkpt lat="38.90694739361133" lon="-9.276352906168407"><ele>356.0</ele><time>2026-04-19T08:45:38Z</time></trkpt><trkpt lat="38.90702065425683" lon="-9.276212889646656"><ele>356.0</ele><time>2026-04-19T08:45:39Z</time></trkpt><trkpt lat="38.907078081947525" lon="-9.276055398993707"><ele>356.0</ele><time>2026-04-19T08:45:40Z</time></trkpt><trkpt lat="38.90712667129315" lon="-9.27589349360777"><ele>356.0</ele><time>2026-04-19T08:45:41Z</time></trkpt><trkpt lat="38.90716863445924" lon="-9.275711986791972"><ele>356.0</ele><time>2026-04-19T08:45:42Z</time></trkpt><trkpt lat="38.90720899641396" lon="-9.27553185265211"><ele>355.25</ele><time>2026-04-19T08:45:43Z</time></trkpt><trkpt lat="38.9072434307971" lon="-9.275385753874867"><ele>354.5</ele><time>2026-04-19T08:45:44Z</time></trkpt><trkpt lat="38.90728996335365" lon="-9.275219621175234"><ele>353.75</ele><time>2026-04-19T08:45:45Z</time></trkpt><trkpt lat="38.907361503705815" lon="-9.275080462452468"><ele>353.0</ele><time>2026-04-19T08:45:46Z</time></trkpt><trkpt lat="38.90745322700567" lon="-9.274952322559528"><ele>353.0</ele><time>2026-04-19T08:45:47Z</time></trkpt><trkpt lat="38.90755455786099" lon="-9.274838751878217"><ele>353.0</ele><time>2026-04-19T08:45:48Z</time></trkpt><trkpt lat="38.90762565093765" lon="-9.274782248273336"><ele>353.0</ele><time>2026-04-19T08:45:49Z</time></trkpt><trkpt lat="38.907690036383" lon="-9.27472393698889"><ele>353.0</ele><time>2026-04-19T08:45:50Z</time></trkpt><trkpt lat="38.90776394627755" lon="-9.274618235581299"><ele>353.0</ele><time>2026-04-19T08:45:51Z</time></trkpt><trkpt lat="38.907847207626794" lon="-9.274496331023368"><ele>356.0</ele><time>2026-04-19T08:45:52Z</time></trkpt><trkpt lat="38.90792376869881" lon="-9.274367774695694"><ele>359.0</ele><time>2026-04-19T08:45:53Z</time></trkpt><trkpt lat="38.90799224809699" lon="-9.274239590347213"><ele>362.0</ele><time>2026-04-19T08:45:54Z</time></trkpt><trkpt lat="38.90808167183216" lon="-9.274108446983846"><ele>365.0</ele><time>2026-04-19T08:45:55Z</time></trkpt><trkpt lat="38.90815372881052" lon="-9.273967022609886"><ele>364.5</ele><time>2026-04-19T08:45:56Z</time></trkpt><trkpt lat="38.90823737082842" lon="-9.273821867106463"><ele>364.0</ele><time>2026-04-19T08:45:57Z</time></trkpt><trkpt lat="38.908319623983395" lon="-9.273694092549901"><ele>363.5</ele><time>2026-04-19T08:45:58Z</time></trkpt><trkpt lat="38.9084200351581" lon="-9.27356576845133"><ele>363.0</ele><time>2026-04-19T08:45:59Z</time></trkpt><trkpt lat="38.90852023662088" lon="-9.273427020871303"><ele>363.0</ele><time>2026-04-19T08:46:00Z</time></trkpt><trkpt lat="38.908619583466745" lon="-9.273322330181388"><ele>363.0</ele><time>2026-04-19T08:46:01Z</time></trkpt><trkpt lat="38.908698601741676" lon="-9.273196297930102"><ele>363.0</ele><time>2026-04-19T08:46:02Z</time></trkpt><trkpt lat="38.90877338380079" lon="-9.273082755891748"><ele>363.0</ele><time>2026-04-19T08:46:03Z</time></trkpt><trkpt lat="38.90883666152658" lon="-9.27297089906984"><ele>359.25</ele><time>2026-04-19T08:46:04Z</time></trkpt><trkpt lat="38.908896242507936" lon="-9.272871040582322"><ele>355.5</ele><time>2026-04-19T08:46:05Z</time></trkpt><trkpt lat="38.90896072498947" lon="-9.272758405118829"><ele>351.75</ele><time>2026-04-19T08:46:06Z</time></trkpt><trkpt lat="38.909026492757" lon="-9.27262452755143"><ele>348.0</ele><time>2026-04-19T08:46:07Z</time></trkpt><trkpt lat="38.90909867079532" lon="-9.272488339691904"><ele>348.0</ele><time>2026-04-19T08:46:08Z</time></trkpt><trkpt lat="38.90916811297481" lon="-9.272346274616284"><ele>348.0</ele><time>2026-04-19T08:46:09Z</time></trkpt><trkpt lat="38.90924059260269" lon="-9.272220722929926"><ele>348.0</ele><time>2026-04-19T08:46:10Z</time></trkpt><trkpt lat="38.9093089226044" lon="-9.272111461072535"><ele>348.0</ele><time>2026-04-19T08:46:11Z</time></trkpt><trkpt lat="38.909372955463375" lon="-9.27201340060167"><ele>348.3333333333333</ele><time>2026-04-19T08:46:12Z</time></trkpt><trkpt lat="38.909438294500575" lon="-9.271923220762481"><ele>348.6666666666667</ele><time>2026-04-19T08:46:13Z</time></trkpt><trkpt lat="38.90950119639448" lon="-9.27183759416274"><ele>349.0</ele><time>2026-04-19T08:46:14Z</time></trkpt><trkpt lat="38.90956279730569" lon="-9.271759203904171"><ele>349.33333333333337</ele><time>2026-04-19T08:46:15Z</time></trkpt><trkpt lat="38.90962736152699" lon="-9.27168537321769"><ele>349.6666666666667</ele><time>2026-04-19T08:46:16Z</time></trkpt><trkpt lat="38.90966882755339" lon="-9.271591706470604"><ele>350.0</ele><time>2026-04-19T08:46:17Z</time></trkpt><trkpt lat="38.90969958731483" lon="-9.271498349295248"><ele>347.6666666666667</ele><time>2026-04-19T08:46:18Z</time></trkpt><trkpt lat="38.90971327479836" lon="-9.271405478465844"><ele>345.33333333333337</ele><time>2026-04-19T08:46:19Z</time></trkpt><trkpt lat="38.90971126906073" lon="-9.271309072346115"><ele>343.0</ele><time>2026-04-19T08:46:20Z</time></trkpt><trkpt lat="38.90968967533963" lon="-9.27121663018051"><ele>340.6666666666667</ele><time>2026-04-19T08:46:21Z</time></trkpt><trkpt lat="38.90965800059909" lon="-9.271128682840354"><ele>338.3333333333333</ele><time>2026-04-19T08:46:22Z</time></trkpt><trkpt lat="38.90962527470042" lon="-9.271016162075933"><ele>336.0</ele><time>2026-04-19T08:46:23Z</time></trkpt><trkpt lat="38.90960693838689" lon="-9.270865709683575"><ele>336.0</ele><time>2026-04-19T08:46:24Z</time></trkpt><trkpt lat="38.9095777908559" lon="-9.270761684220625"><ele>336.0</ele><time>2026-04-19T08:46:25Z</time></trkpt><trkpt lat="38.909612857364536" lon="-9.270594977347859"><ele>336.0</ele><time>2026-04-19T08:46:26Z</time></trkpt><trkpt lat="38.909699331791465" lon="-9.270473652964087"><ele>336.0</ele><time>2026-04-19T08:46:27Z</time></trkpt><trkpt lat="38.90974879061251" lon="-9.270365605865063"><ele>336.0</ele><time>2026-04-19T08:46:28Z</time></trkpt><trkpt lat="38.90981108020883" lon="-9.270253586914832"><ele>334.8</ele><time>2026-04-19T08:46:29Z</time></trkpt><trkpt lat="38.90987452829057" lon="-9.270134082647532"><ele>333.6</ele><time>2026-04-19T08:46:30Z</time></trkpt><trkpt lat="38.90993232310337" lon="-9.27001213935821"><ele>332.4</ele><time>2026-04-19T08:46:31Z</time></trkpt><trkpt lat="38.909989100000544" lon="-9.269899527288903"><ele>331.2</ele><time>2026-04-19T08:46:32Z</time></trkpt><trkpt lat="38.91004038423729" lon="-9.269794060069861"><ele>330.0</ele><time>2026-04-19T08:46:33Z</time></trkpt><trkpt lat="38.91009320820619" lon="-9.26969027754476"><ele>329.8333333333333</ele><time>2026-04-19T08:46:34Z</time></trkpt><trkpt lat="38.910143255595735" lon="-9.26958500116215"><ele>329.6666666666667</ele><time>2026-04-19T08:46:35Z</time></trkpt><trkpt lat="38.91018707916519" lon="-9.269485524820112"><ele>329.5</ele><time>2026-04-19T08:46:36Z</time></trkpt><trkpt lat="38.9102359285533" lon="-9.269394036103716"><ele>329.33333333333337</ele><time>2026-04-19T08:46:37Z</time></trkpt><trkpt lat="38.91027465928094" lon="-9.26930051724132"><ele>329.1666666666667</ele><time>2026-04-19T08:46:38Z</time></trkpt><trkpt lat="38.91031677651755" lon="-9.269213173055192"><ele>329.0</ele><time>2026-04-19T08:46:39Z</time></trkpt><trkpt lat="38.91035400017193" lon="-9.269130462591296"><ele>329.0</ele><time>2026-04-19T08:46:40Z</time></trkpt><trkpt lat="38.91039280451035" lon="-9.269051717121814"><ele>329.0</ele><time>2026-04-19T08:46:41Z</time></trkpt><trkpt lat="38.91042323128072" lon="-9.268928950414704"><ele>329.0</ele><time>2026-04-19T08:46:43Z</time></trkpt><trkpt lat="38.91051477912696" lon="-9.268965788814716"><ele>329.0</ele><time>2026-04-19T08:46:45Z</time></trkpt><trkpt lat="38.9105934858659" lon="-9.269062432491484"><ele>329.0</ele><time>2026-04-19T08:46:47Z</time></trkpt><trkpt lat="38.91063042362685" lon="-9.269134920720932"><ele>329.0</ele><time>2026-04-19T08:46:48Z</time></trkpt><trkpt lat="38.91067963582757" lon="-9.26921334159251"><ele>329.0</ele><time>2026-04-19T08:46:49Z</time></trkpt><trkpt lat="38.910735920026134" lon="-9.269296337635748"><ele>329.0</ele><time>2026-04-19T08:46:50Z</time></trkpt><trkpt lat="38.91079353506671" lon="-9.269389098661168"><ele>329.0</ele><time>2026-04-19T08:46:51Z</time></trkpt><trkpt lat="38.91084884372653" lon="-9.269492490121253"><ele>329.0</ele><time>2026-04-19T08:46:52Z</time></trkpt><trkpt lat="38.9109166316312" lon="-9.269629504441776"><ele>329.0</ele><time>2026-04-19T08:46:53Z</time></trkpt><trkpt lat="38.91099311906338" lon="-9.269763709355676"><ele>330.5</ele><time>2026-04-19T08:46:54Z</time></trkpt><trkpt lat="38.91105136011046" lon="-9.269864035193956"><ele>332.0</ele><time>2026-04-19T08:46:55Z</time></trkpt><trkpt lat="38.911090999068556" lon="-9.269966721315665"><ele>333.5</ele><time>2026-04-19T08:46:56Z</time></trkpt><trkpt lat="38.911093184414625" lon="-9.270072305106748"><ele>335.0</ele><time>2026-04-19T08:46:58Z</time></trkpt><trkpt lat="38.91106648749909" lon="-9.269987523707398"><ele>336.5</ele><time>2026-04-19T08:47:02Z</time></trkpt><trkpt lat="38.911085545102814" lon="-9.270069594856121"><ele>338.0</ele><time>2026-04-19T08:47:07Z</time></trkpt><trkpt lat="38.911051096323035" lon="-9.269958644253547"><ele>338.0</ele><time>2026-04-19T08:47:21Z</time></trkpt><trkpt lat="38.911029284960904" lon="-9.269875574758268"><ele>338.0</ele><time>2026-04-19T08:47:24Z</time></trkpt><trkpt lat="38.910998347531326" lon="-9.269771803105597"><ele>338.0</ele><time>2026-04-19T08:47:36Z</time></trkpt><trkpt lat="38.910911761655555" lon="-9.269638263963005"><ele>338.0</ele><time>2026-04-19T08:47:38Z</time></trkpt><trkpt lat="38.91085150175196" lon="-9.269533383404388"><ele>338.0</ele><time>2026-04-19T08:47:39Z</time></trkpt><trkpt lat="38.91078077128226" lon="-9.26946034071729"><ele>336.2</ele><time>2026-04-19T08:47:40Z</time></trkpt><trkpt lat="38.91073002784481" lon="-9.269370107964294"><ele>334.4</ele><time>2026-04-19T08:47:41Z</time></trkpt><trkpt lat="38.91065857285808" lon="-9.269257879833857"><ele>332.59999999999997</ele><time>2026-04-19T08:47:42Z</time></trkpt><trkpt lat="38.91058023215946" lon="-9.269142553270493"><ele>330.79999999999995</ele><time>2026-04-19T08:47:43Z</time></trkpt><trkpt lat="38.91050738703563" lon="-9.269049483269566"><ele>329.0</ele><time>2026-04-19T08:47:44Z</time></trkpt><trkpt lat="38.910448605112286" lon="-9.268969262294714"><ele>326.25</ele><time>2026-04-19T08:47:45Z</time></trkpt><trkpt lat="38.9103919940703" lon="-9.268892040892819"><ele>323.5</ele><time>2026-04-19T08:47:46Z</time></trkpt><trkpt lat="38.91038548348655" lon="-9.268733151964629"><ele>320.75</ele><time>2026-04-19T08:47:47Z</time></trkpt><trkpt lat="38.91034710377312" lon="-9.26856025911577"><ele>318.0</ele><time>2026-04-19T08:47:48Z</time></trkpt><trkpt lat="38.91030579719243" lon="-9.268374242688976"><ele>318.0</ele><time>2026-04-19T08:47:49Z</time></trkpt><trkpt lat="38.91023670778774" lon="-9.268174974145195"><ele>318.0</ele><time>2026-04-19T08:47:50Z</time></trkpt><trkpt lat="38.910184061716905" lon="-9.267981229479046"><ele>318.0</ele><time>2026-04-19T08:47:51Z</time></trkpt><trkpt lat="38.91013755339417" lon="-9.267808108506895"><ele>318.5</ele><time>2026-04-19T08:47:52Z</time></trkpt><trkpt lat="38.91010808801701" lon="-9.26763235258064"><ele>319.0</ele><time>2026-04-19T08:47:53Z</time></trkpt><trkpt lat="38.91006571841882" lon="-9.267470008798982"><ele>319.5</ele><time>2026-04-19T08:47:54Z</time></trkpt><trkpt lat="38.91004823177446" lon="-9.267328792982024"><ele>320.0</ele><time>2026-04-19T08:47:55Z</time></trkpt><trkpt lat="38.91006458329813" lon="-9.267188512462695"><ele>319.0</ele><time>2026-04-19T08:47:56Z</time></trkpt><trkpt lat="38.9101091668932" lon="-9.267030582397535"><ele>318.0</ele><time>2026-04-19T08:47:57Z</time></trkpt><trkpt lat="38.91014939485053" lon="-9.2668662747216"><ele>317.0</ele><time>2026-04-19T08:47:58Z</time></trkpt><trkpt lat="38.91018449612883" lon="-9.266718478547604"><ele>316.0</ele><time>2026-04-19T08:47:59Z</time></trkpt><trkpt lat="38.91020896642211" lon="-9.266585246453891"><ele>316.0</ele><time>2026-04-19T08:48:00Z</time></trkpt><trkpt lat="38.9102164138735" lon="-9.266478665604264"><ele>316.0</ele><time>2026-04-19T08:48:01Z</time></trkpt><trkpt lat="38.91026574164637" lon="-9.266418474486192"><ele>316.0</ele><time>2026-04-19T08:48:03Z</time></trkpt><trkpt lat="38.910451529699834" lon="-9.266530069363114"><ele>316.0</ele><time>2026-04-19T08:48:06Z</time></trkpt><trkpt lat="38.910533790226246" lon="-9.266574042318016"><ele>316.0</ele><time>2026-04-19T08:48:07Z</time></trkpt><trkpt lat="38.91060618719653" lon="-9.266619676384325"><ele>316.0</ele><time>2026-04-19T08:48:08Z</time></trkpt><trkpt lat="38.91068356616814" lon="-9.266660526956404"><ele>316.0</ele><time>2026-04-19T08:48:09Z</time></trkpt><trkpt lat="38.91076135630752" lon="-9.266690494468476"><ele>316.0</ele><time>2026-04-19T08:48:10Z</time></trkpt><trkpt lat="38.9108400343438" lon="-9.26668082359037"><ele>316.0</ele><time>2026-04-19T08:48:11Z</time></trkpt><trkpt lat="38.910908317532616" lon="-9.266650336265153"><ele>316.0</ele><time>2026-04-19T08:48:12Z</time></trkpt><trkpt lat="38.91097112704006" lon="-9.266605888994093"><ele>316.0</ele><time>2026-04-19T08:48:13Z</time></trkpt><trkpt lat="38.911030505799744" lon="-9.266550087672872"><ele>314.28571428571433</ele><time>2026-04-19T08:48:14Z</time></trkpt><trkpt lat="38.91107288481606" lon="-9.266478951063906"><ele>312.57142857142856</ele><time>2026-04-19T08:48:15Z</time></trkpt><trkpt lat="38.91113177573521" lon="-9.26643911327811"><ele>310.8571428571429</ele><time>2026-04-19T08:48:16Z</time></trkpt><trkpt lat="38.911180952222665" lon="-9.266382986834593"><ele>309.14285714285717</ele><time>2026-04-19T08:48:17Z</time></trkpt><trkpt lat="38.911215592604314" lon="-9.266313005666992"><ele>307.42857142857144</ele><time>2026-04-19T08:48:18Z</time></trkpt><trkpt lat="38.911258896860446" lon="-9.266251881855357"><ele>305.7142857142857</ele><time>2026-04-19T08:48:19Z</time></trkpt><trkpt lat="38.911277283641446" lon="-9.266151569656397"><ele>304.0</ele><time>2026-04-19T08:48:20Z</time></trkpt><trkpt lat="38.911296940447066" lon="-9.266050230752654"><ele>302.8333333333333</ele><time>2026-04-19T08:48:21Z</time></trkpt><trkpt lat="38.91128636197997" lon="-9.265950041136506"><ele>301.66666666666663</ele><time>2026-04-19T08:48:22Z</time></trkpt><trkpt lat="38.91127919610595" lon="-9.265837592125882"><ele>300.5</ele><time>2026-04-19T08:48:23Z</time></trkpt><trkpt lat="38.91126388236859" lon="-9.265719396671185"><ele>299.3333333333333</ele><time>2026-04-19T08:48:24Z</time></trkpt><trkpt lat="38.911247944333375" lon="-9.26561100317996"><ele>298.1666666666667</ele><time>2026-04-19T08:48:25Z</time></trkpt><trkpt lat="38.91123105512652" lon="-9.265500359388913"><ele>297.0</ele><time>2026-04-19T08:48:26Z</time></trkpt><trkpt lat="38.91121439915465" lon="-9.265389919124608"><ele>295.4</ele><time>2026-04-19T08:48:27Z</time></trkpt><trkpt lat="38.911199937319246" lon="-9.265281720156993"><ele>293.79999999999995</ele><time>2026-04-19T08:48:28Z</time></trkpt><trkpt lat="38.91118559106277" lon="-9.265170963918658"><ele>292.2</ele><time>2026-04-19T08:48:29Z</time></trkpt><trkpt lat="38.91117054374595" lon="-9.265063015729208"><ele>290.59999999999997</ele><time>2026-04-19T08:48:30Z</time></trkpt><trkpt lat="38.911153916145025" lon="-9.264951427033342"><ele>289.0</ele><time>2026-04-19T08:48:31Z</time></trkpt><trkpt lat="38.91113051762149" lon="-9.26481117783353"><ele>288.2</ele><time>2026-04-19T08:48:32Z</time></trkpt><trkpt lat="38.91110633702401" lon="-9.264678817534593"><ele>287.4</ele><time>2026-04-19T08:48:33Z</time></trkpt><trkpt lat="38.91108005624047" lon="-9.264558331427997"><ele>286.6</ele><time>2026-04-19T08:48:34Z</time></trkpt><trkpt lat="38.9110482420153" lon="-9.264445466061689"><ele>285.8</ele><time>2026-04-19T08:48:35Z</time></trkpt><trkpt lat="38.91100473171441" lon="-9.26433216114992"><ele>285.0</ele><time>2026-04-19T08:48:36Z</time></trkpt><trkpt lat="38.91095566843989" lon="-9.264214409291862"><ele>286.4</ele><time>2026-04-19T08:48:37Z</time></trkpt><trkpt lat="38.91090484560596" lon="-9.26409343784914"><ele>287.8</ele><time>2026-04-19T08:48:38Z</time></trkpt><trkpt lat="38.91085359881379" lon="-9.26397327710925"><ele>289.2</ele><time>2026-04-19T08:48:39Z</time></trkpt><trkpt lat="38.910800868621884" lon="-9.263850687809375"><ele>290.6</ele><time>2026-04-19T08:48:40Z</time></trkpt><trkpt lat="38.91076459601805" lon="-9.263718740025897"><ele>292.0</ele><time>2026-04-19T08:48:41Z</time></trkpt><trkpt lat="38.91070734551392" lon="-9.26359807750544"><ele>292.0</ele><time>2026-04-19T08:48:42Z</time></trkpt><trkpt lat="38.91065516108911" lon="-9.263479543255404"><ele>292.0</ele><time>2026-04-19T08:48:43Z</time></trkpt><trkpt lat="38.910591328432375" lon="-9.263381186564525"><ele>292.0</ele><time>2026-04-19T08:48:44Z</time></trkpt><trkpt lat="38.91053245803677" lon="-9.263298049364668"><ele>292.0</ele><time>2026-04-19T08:48:45Z</time></trkpt><trkpt lat="38.91047030383181" lon="-9.26322213429435"><ele>292.0</ele><time>2026-04-19T08:48:46Z</time></trkpt><trkpt lat="38.91040442949737" lon="-9.263143637331474"><ele>291.16666666666663</ele><time>2026-04-19T08:48:47Z</time></trkpt><trkpt lat="38.91034484612161" lon="-9.263082068395304"><ele>290.3333333333333</ele><time>2026-04-19T08:48:48Z</time></trkpt><trkpt lat="38.910281616341884" lon="-9.263017852794404"><ele>289.5</ele><time>2026-04-19T08:48:49Z</time></trkpt><trkpt lat="38.91028093332037" lon="-9.262868092410029"><ele>288.6666666666667</ele><time>2026-04-19T08:48:50Z</time></trkpt><trkpt lat="38.91026704960673" lon="-9.26276040013518"><ele>287.83333333333337</ele><time>2026-04-19T08:48:51Z</time></trkpt><trkpt lat="38.91025965264947" lon="-9.262660337778069"><ele>287.0</ele><time>2026-04-19T08:48:52Z</time></trkpt><trkpt lat="38.910248700852826" lon="-9.262567635218518"><ele>287.0</ele><time>2026-04-19T08:48:53Z</time></trkpt><trkpt lat="38.910237424708285" lon="-9.262476063716068"><ele>287.0</ele><time>2026-04-19T08:48:54Z</time></trkpt><trkpt lat="38.91020806161267" lon="-9.262389646452288"><ele>287.0</ele><time>2026-04-19T08:48:55Z</time></trkpt><trkpt lat="38.91019467358089" lon="-9.262306004987144"><ele>287.0</ele><time>2026-04-19T08:48:56Z</time></trkpt><trkpt lat="38.910168905939" lon="-9.262174077405435"><ele>287.0</ele><time>2026-04-19T08:48:58Z</time></trkpt><trkpt lat="38.910150500883574" lon="-9.262077568838768"><ele>287.0</ele><time>2026-04-19T08:49:02Z</time></trkpt><trkpt lat="38.91020920864006" lon="-9.262008583534135"><ele>288.0</ele><time>2026-04-19T08:49:03Z</time></trkpt><trkpt lat="38.91027633100632" lon="-9.261870858707502"><ele>289.0</ele><time>2026-04-19T08:49:05Z</time></trkpt><trkpt lat="38.91033896928589" lon="-9.261775251597681"><ele>290.0</ele><time>2026-04-19T08:49:06Z</time></trkpt><trkpt lat="38.910406173658224" lon="-9.261666262551492"><ele>291.0</ele><time>2026-04-19T08:49:07Z</time></trkpt><trkpt lat="38.910473431125695" lon="-9.261563216632084"><ele>292.0</ele><time>2026-04-19T08:49:08Z</time></trkpt><trkpt lat="38.910513988573065" lon="-9.261492563270895"><ele>292.0</ele><time>2026-04-19T08:49:09Z</time></trkpt><trkpt lat="38.91067082342287" lon="-9.261590114702702"><ele>292.0</ele><time>2026-04-19T08:49:12Z</time></trkpt><trkpt lat="38.91075323299619" lon="-9.261656633177932"><ele>292.0</ele><time>2026-04-19T08:49:13Z</time></trkpt><trkpt lat="38.91085113911341" lon="-9.261745987470013"><ele>292.0</ele><time>2026-04-19T08:49:14Z</time></trkpt><trkpt lat="38.910982135023154" lon="-9.26182795313047"><ele>293.5</ele><time>2026-04-19T08:49:15Z</time></trkpt><trkpt lat="38.91109497884073" lon="-9.261889468026366"><ele>295.0</ele><time>2026-04-19T08:49:16Z</time></trkpt><trkpt lat="38.91120947881041" lon="-9.26196191656627"><ele>296.5</ele><time>2026-04-19T08:49:17Z</time></trkpt><trkpt lat="38.91132943834516" lon="-9.262082142303033"><ele>298.0</ele><time>2026-04-19T08:49:18Z</time></trkpt><trkpt lat="38.91139539747366" lon="-9.262229566717801"><ele>295.75</ele><time>2026-04-19T08:49:19Z</time></trkpt><trkpt lat="38.91147192008015" lon="-9.26234476405235"><ele>293.5</ele><time>2026-04-19T08:49:20Z</time></trkpt><trkpt lat="38.91153252253526" lon="-9.262485719197926"><ele>291.25</ele><time>2026-04-19T08:49:21Z</time></trkpt><trkpt lat="38.91160102393855" lon="-9.262635546016833"><ele>289.0</ele><time>2026-04-19T08:49:22Z</time></trkpt><trkpt lat="38.91165903805668" lon="-9.262802386338667"><ele>289.0</ele><time>2026-04-19T08:49:23Z</time></trkpt><trkpt lat="38.9117053993474" lon="-9.262958439256908"><ele>289.0</ele><time>2026-04-19T08:49:24Z</time></trkpt><trkpt lat="38.9117393475233" lon="-9.26311002035275"><ele>289.0</ele><time>2026-04-19T08:49:25Z</time></trkpt><trkpt lat="38.91177847623809" lon="-9.263244874568255"><ele>289.0</ele><time>2026-04-19T08:49:26Z</time></trkpt><trkpt lat="38.91181477165617" lon="-9.263384834849413"><ele>289.4</ele><time>2026-04-19T08:49:27Z</time></trkpt><trkpt lat="38.911854054265206" lon="-9.263511797211486"><ele>289.79999999999995</ele><time>2026-04-19T08:49:28Z</time></trkpt><trkpt lat="38.91189579572564" lon="-9.263635525650036"><ele>290.20000000000005</ele><time>2026-04-19T08:49:29Z</time></trkpt><trkpt lat="38.911939699927565" lon="-9.263758650133012"><ele>290.6</ele><time>2026-04-19T08:49:30Z</time></trkpt><trkpt lat="38.91195898500665" lon="-9.263837795935052"><ele>291.0</ele><time>2026-04-19T08:49:31Z</time></trkpt><trkpt lat="38.91203559250571" lon="-9.263972447919889"><ele>289.6</ele><time>2026-04-19T08:49:32Z</time></trkpt><trkpt lat="38.91210141270273" lon="-9.26408354879568"><ele>288.20000000000005</ele><time>2026-04-19T08:49:33Z</time></trkpt><trkpt lat="38.91216653241304" lon="-9.26419395987997"><ele>286.79999999999995</ele><time>2026-04-19T08:49:34Z</time></trkpt><trkpt lat="38.91223101806361" lon="-9.264301351488553"><ele>285.4</ele><time>2026-04-19T08:49:35Z</time></trkpt><trkpt lat="38.912297927017455" lon="-9.264409248430168"><ele>284.0</ele><time>2026-04-19T08:49:36Z</time></trkpt><trkpt lat="38.91236252525555" lon="-9.264500992636714"><ele>284.0</ele><time>2026-04-19T08:49:37Z</time></trkpt><trkpt lat="38.91243229306062" lon="-9.264585286741562"><ele>284.0</ele><time>2026-04-19T08:49:38Z</time></trkpt><trkpt lat="38.9124976765719" lon="-9.264669803725994"><ele>284.0</ele><time>2026-04-19T08:49:39Z</time></trkpt><trkpt lat="38.912572577406586" lon="-9.264738123600477"><ele>284.0</ele><time>2026-04-19T08:49:40Z</time></trkpt><trkpt lat="38.91264979131278" lon="-9.264799653849142"><ele>284.0</ele><time>2026-04-19T08:49:41Z</time></trkpt><trkpt lat="38.91272822072988" lon="-9.264870757327405"><ele>283.8</ele><time>2026-04-19T08:49:42Z</time></trkpt><trkpt lat="38.91280314016368" lon="-9.264949540713175"><ele>283.59999999999997</ele><time>2026-04-19T08:49:43Z</time></trkpt><trkpt lat="38.9128703405313" lon="-9.265051332537299"><ele>283.4</ele><time>2026-04-19T08:49:44Z</time></trkpt><trkpt lat="38.91293022875539" lon="-9.265178918348893"><ele>283.2</ele><time>2026-04-19T08:49:45Z</time></trkpt><trkpt lat="38.912993799749614" lon="-9.265322506175819"><ele>283.0</ele><time>2026-04-19T08:49:46Z</time></trkpt><trkpt lat="38.91306423850994" lon="-9.265471428831155"><ele>280.0</ele><time>2026-04-19T08:49:47Z</time></trkpt><trkpt lat="38.91312313795872" lon="-9.265612956643896"><ele>277.0</ele><time>2026-04-19T08:49:48Z</time></trkpt><trkpt lat="38.91318374174636" lon="-9.26574640939211"><ele>274.0</ele><time>2026-04-19T08:49:49Z</time></trkpt><trkpt lat="38.91324549756144" lon="-9.265879831170313"><ele>271.0</ele><time>2026-04-19T08:49:50Z</time></trkpt><trkpt lat="38.91330746111393" lon="-9.266006580869343"><ele>271.0</ele><time>2026-04-19T08:49:51Z</time></trkpt><trkpt lat="38.913369084478944" lon="-9.266124701036102"><ele>271.0</ele><time>2026-04-19T08:49:52Z</time></trkpt><trkpt lat="38.91343429657508" lon="-9.266233589354504"><ele>271.0</ele><time>2026-04-19T08:49:53Z</time></trkpt><trkpt lat="38.913491710863056" lon="-9.266342040945348"><ele>271.0</ele><time>2026-04-19T08:49:54Z</time></trkpt><trkpt lat="38.9135476180995" lon="-9.266454092501927"><ele>271.0</ele><time>2026-04-19T08:49:55Z</time></trkpt><trkpt lat="38.91361512296548" lon="-9.266559953766023"><ele>267.25</ele><time>2026-04-19T08:49:56Z</time></trkpt><trkpt lat="38.91369502522723" lon="-9.266657425240933"><ele>263.5</ele><time>2026-04-19T08:49:57Z</time></trkpt><trkpt lat="38.913786913231306" lon="-9.266746045213267"><ele>259.75</ele><time>2026-04-19T08:49:58Z</time></trkpt><trkpt lat="38.91387994926469" lon="-9.266848836882913"><ele>256.0</ele><time>2026-04-19T08:49:59Z</time></trkpt><trkpt lat="38.91398762243266" lon="-9.266940124819406"><ele>256.0</ele><time>2026-04-19T08:50:00Z</time></trkpt><trkpt lat="38.91409557561916" lon="-9.267026989845299"><ele>256.0</ele><time>2026-04-19T08:50:01Z</time></trkpt><trkpt lat="38.91420943078338" lon="-9.267103626948773"><ele>256.0</ele><time>2026-04-19T08:50:02Z</time></trkpt><trkpt lat="38.914327614871475" lon="-9.26716066317171"><ele>256.0</ele><time>2026-04-19T08:50:03Z</time></trkpt><trkpt lat="38.914438483484254" lon="-9.267213789757829"><ele>256.25</ele><time>2026-04-19T08:50:04Z</time></trkpt><trkpt lat="38.91454552398719" lon="-9.267259480084224"><ele>256.5</ele><time>2026-04-19T08:50:05Z</time></trkpt><trkpt lat="38.91465901169983" lon="-9.267305802749142"><ele>256.75</ele><time>2026-04-19T08:50:06Z</time></trkpt><trkpt lat="38.91478472551913" lon="-9.267366274950541"><ele>257.0</ele><time>2026-04-19T08:50:07Z</time></trkpt><trkpt lat="38.91492770081376" lon="-9.26743597530588"><ele>262.33333333333337</ele><time>2026-04-19T08:50:08Z</time></trkpt><trkpt lat="38.915072096857884" lon="-9.267528293614303"><ele>267.6666666666667</ele><time>2026-04-19T08:50:09Z</time></trkpt><trkpt lat="38.91520873573167" lon="-9.267639784879496"><ele>273.0</ele><time>2026-04-19T08:50:10Z</time></trkpt><trkpt lat="38.915321220657304" lon="-9.267772241105623"><ele>273.0</ele><time>2026-04-19T08:50:11Z</time></trkpt><trkpt lat="38.9154180079053" lon="-9.26791197114868"><ele>273.0</ele><time>2026-04-19T08:50:12Z</time></trkpt><trkpt lat="38.91551751238613" lon="-9.26802599893101"><ele>273.0</ele><time>2026-04-19T08:50:13Z</time></trkpt><trkpt lat="38.915629111052574" lon="-9.268109636506678"><ele>273.0</ele><time>2026-04-19T08:50:14Z</time></trkpt><trkpt lat="38.915765430532936" lon="-9.268109442218691"><ele>272.0</ele><time>2026-04-19T08:50:15Z</time></trkpt><trkpt lat="38.91589099506348" lon="-9.268144046467242"><ele>271.0</ele><time>2026-04-19T08:50:16Z</time></trkpt><trkpt lat="38.91601700588821" lon="-9.268197541225149"><ele>270.0</ele><time>2026-04-19T08:50:17Z</time></trkpt><trkpt lat="38.91612940619905" lon="-9.268291985188611"><ele>269.0</ele><time>2026-04-19T08:50:18Z</time></trkpt><trkpt lat="38.91623981695271" lon="-9.268397767906967"><ele>269.0</ele><time>2026-04-19T08:50:19Z</time></trkpt><trkpt lat="38.91635840754155" lon="-9.268496494389897"><ele>269.0</ele><time>2026-04-19T08:50:20Z</time></trkpt><trkpt lat="38.9164901573804" lon="-9.268617734542076"><ele>269.0</ele><time>2026-04-19T08:50:21Z</time></trkpt><trkpt lat="38.91662402027872" lon="-9.268769036991415"><ele>269.6666666666667</ele><time>2026-04-19T08:50:22Z</time></trkpt><trkpt lat="38.916757775691075" lon="-9.268910458126202"><ele>270.3333333333333</ele><time>2026-04-19T08:50:23Z</time></trkpt><trkpt lat="38.916876285600395" lon="-9.269028015281073"><ele>271.0</ele><time>2026-04-19T08:50:24Z</time></trkpt><trkpt lat="38.91698403859283" lon="-9.269130284464365"><ele>271.0</ele><time>2026-04-19T08:50:25Z</time></trkpt><trkpt lat="38.917087071789595" lon="-9.269238803170134"><ele>271.0</ele><time>2026-04-19T08:50:26Z</time></trkpt><trkpt lat="38.91718052572628" lon="-9.269364327906624"><ele>271.0</ele><time>2026-04-19T08:50:27Z</time></trkpt><trkpt lat="38.91726571855326" lon="-9.269505327727403"><ele>271.0</ele><time>2026-04-19T08:50:28Z</time></trkpt><trkpt lat="38.91733172831691" lon="-9.269642854410993"><ele>271.0</ele><time>2026-04-19T08:50:29Z</time></trkpt><trkpt lat="38.91736419539309" lon="-9.269772348615836"><ele>271.0</ele><time>2026-04-19T08:50:30Z</time></trkpt><trkpt lat="38.917413828547076" lon="-9.26990749592546"><ele>271.0</ele><time>2026-04-19T08:50:31Z</time></trkpt><trkpt lat="38.9174217592034" lon="-9.270054861318185"><ele>271.0</ele><time>2026-04-19T08:50:32Z</time></trkpt><trkpt lat="38.91743350097899" lon="-9.270199754654811"><ele>267.5</ele><time>2026-04-19T08:50:33Z</time></trkpt><trkpt lat="38.917472438635784" lon="-9.270348871577452"><ele>264.0</ele><time>2026-04-19T08:50:34Z</time></trkpt><trkpt lat="38.91752677837232" lon="-9.270501799433951"><ele>260.5</ele><time>2026-04-19T08:50:35Z</time></trkpt><trkpt lat="38.91759598247905" lon="-9.270631066227654"><ele>257.0</ele><time>2026-04-19T08:50:36Z</time></trkpt><trkpt lat="38.91765254142552" lon="-9.270759074753274"><ele>257.0</ele><time>2026-04-19T08:50:37Z</time></trkpt><trkpt lat="38.91770919609541" lon="-9.270879204663492"><ele>257.0</ele><time>2026-04-19T08:50:38Z</time></trkpt><trkpt lat="38.91776990494381" lon="-9.271001409015946"><ele>257.0</ele><time>2026-04-19T08:50:39Z</time></trkpt><trkpt lat="38.917826029791996" lon="-9.271124059085993"><ele>257.0</ele><time>2026-04-19T08:50:40Z</time></trkpt><trkpt lat="38.91787488079946" lon="-9.271249645361827"><ele>257.0</ele><time>2026-04-19T08:50:41Z</time></trkpt><trkpt lat="38.91792091903833" lon="-9.271380719004771"><ele>254.5</ele><time>2026-04-19T08:50:42Z</time></trkpt><trkpt lat="38.91797634102188" lon="-9.271495256003847"><ele>252.0</ele><time>2026-04-19T08:50:43Z</time></trkpt><trkpt lat="38.91805532492096" lon="-9.271622332848292"><ele>249.5</ele><time>2026-04-19T08:50:44Z</time></trkpt><trkpt lat="38.918135983116144" lon="-9.271741834400146"><ele>247.0</ele><time>2026-04-19T08:50:45Z</time></trkpt><trkpt lat="38.91820250734893" lon="-9.271844858269398"><ele>247.0</ele><time>2026-04-19T08:50:46Z</time></trkpt><trkpt lat="38.91822491761627" lon="-9.271964828783714"><ele>247.0</ele><time>2026-04-19T08:50:47Z</time></trkpt><trkpt lat="38.9182335213352" lon="-9.272088587660757"><ele>247.0</ele><time>2026-04-19T08:50:48Z</time></trkpt><trkpt lat="38.91824896691525" lon="-9.272210708057782"><ele>247.0</ele><time>2026-04-19T08:50:49Z</time></trkpt><trkpt lat="38.91826082644591" lon="-9.272319336983843"><ele>247.0</ele><time>2026-04-19T08:50:50Z</time></trkpt><trkpt lat="38.91830203509724" lon="-9.272437640146816"><ele>245.75</ele><time>2026-04-19T08:50:51Z</time></trkpt><trkpt lat="38.918359453973984" lon="-9.272558359795879"><ele>244.5</ele><time>2026-04-19T08:50:52Z</time></trkpt><trkpt lat="38.91844579667714" lon="-9.27265826205848"><ele>243.25</ele><time>2026-04-19T08:50:53Z</time></trkpt><trkpt lat="38.91854218659711" lon="-9.272732595425138"><ele>242.0</ele><time>2026-04-19T08:50:54Z</time></trkpt><trkpt lat="38.91865346739046" lon="-9.272793179671277"><ele>242.0</ele><time>2026-04-19T08:50:55Z</time></trkpt><trkpt lat="38.91875022093496" lon="-9.272861908857125"><ele>242.0</ele><time>2026-04-19T08:50:56Z</time></trkpt><trkpt lat="38.91884872099263" lon="-9.27291609474841"><ele>242.0</ele><time>2026-04-19T08:50:57Z</time></trkpt><trkpt lat="38.91893238441994" lon="-9.272997292856287"><ele>242.0</ele><time>2026-04-19T08:50:58Z</time></trkpt><trkpt lat="38.918979284876905" lon="-9.27309910302077"><ele>242.0</ele><time>2026-04-19T08:50:59Z</time></trkpt><trkpt lat="38.9190185683543" lon="-9.273199011871263"><ele>240.39999999999998</ele><time>2026-04-19T08:51:00Z</time></trkpt><trkpt lat="38.91900557161565" lon="-9.27333439294192"><ele>238.79999999999998</ele><time>2026-04-19T08:51:01Z</time></trkpt><trkpt lat="38.91896448682593" lon="-9.273457807812344"><ele>237.2</ele><time>2026-04-19T08:51:02Z</time></trkpt><trkpt lat="38.91893002083483" lon="-9.273584344072434"><ele>235.6</ele><time>2026-04-19T08:51:03Z</time></trkpt><trkpt lat="38.91889596261251" lon="-9.273721702617246"><ele>234.0</ele><time>2026-04-19T08:51:04Z</time></trkpt><trkpt lat="38.91888387473762" lon="-9.273865132726206"><ele>231.0</ele><time>2026-04-19T08:51:05Z</time></trkpt><trkpt lat="38.91888899074352" lon="-9.274010754628966"><ele>227.99999999999997</ele><time>2026-04-19T08:51:06Z</time></trkpt><trkpt lat="38.91890296969746" lon="-9.274155905097091"><ele>224.99999999999997</ele><time>2026-04-19T08:51:07Z</time></trkpt><trkpt lat="38.91892003040249" lon="-9.274296957442843"><ele>222.0</ele><time>2026-04-19T08:51:08Z</time></trkpt><trkpt lat="38.91894078639825" lon="-9.274436804417414"><ele>219.0</ele><time>2026-04-19T08:51:09Z</time></trkpt><trkpt lat="38.91896526396107" lon="-9.274583414542064"><ele>219.0</ele><time>2026-04-19T08:51:10Z</time></trkpt><trkpt lat="38.91899719607433" lon="-9.274729458641879"><ele>219.0</ele><time>2026-04-19T08:51:11Z</time></trkpt><trkpt lat="38.91902557054409" lon="-9.274881076425467"><ele>219.0</ele><time>2026-04-19T08:51:12Z</time></trkpt><trkpt lat="38.91905510375219" lon="-9.275029528614954"><ele>219.0</ele><time>2026-04-19T08:51:13Z</time></trkpt><trkpt lat="38.91908562932615" lon="-9.275178337567455"><ele>217.25</ele><time>2026-04-19T08:51:14Z</time></trkpt><trkpt lat="38.919116884296955" lon="-9.27533556192104"><ele>215.5</ele><time>2026-04-19T08:51:15Z</time></trkpt><trkpt lat="38.91914276660312" lon="-9.275486436259373"><ele>213.75</ele><time>2026-04-19T08:51:16Z</time></trkpt><trkpt lat="38.91917489957773" lon="-9.275640677234366"><ele>212.0</ele><time>2026-04-19T08:51:17Z</time></trkpt><trkpt lat="38.91920240319989" lon="-9.275792513429856"><ele>210.39999999999998</ele><time>2026-04-19T08:51:18Z</time></trkpt><trkpt lat="38.919218345048776" lon="-9.275938669524136"><ele>208.79999999999998</ele><time>2026-04-19T08:51:19Z</time></trkpt><trkpt lat="38.91922721766326" lon="-9.276089633332559"><ele>207.2</ele><time>2026-04-19T08:51:20Z</time></trkpt><trkpt lat="38.91923427154009" lon="-9.276233311550278"><ele>205.6</ele><time>2026-04-19T08:51:21Z</time></trkpt><trkpt lat="38.91923224852564" lon="-9.276367811284572"><ele>204.0</ele><time>2026-04-19T08:51:22Z</time></trkpt><trkpt lat="38.91922462145962" lon="-9.276498056882284"><ele>202.66666666666666</ele><time>2026-04-19T08:51:23Z</time></trkpt><trkpt lat="38.919220396573614" lon="-9.276629203098738"><ele>201.33333333333331</ele><time>2026-04-19T08:51:24Z</time></trkpt><trkpt lat="38.91921703725303" lon="-9.276743291245014"><ele>200.0</ele><time>2026-04-19T08:51:25Z</time></trkpt><trkpt lat="38.91919495655622" lon="-9.276845275529487"><ele>198.66666666666666</ele><time>2026-04-19T08:51:26Z</time></trkpt><trkpt lat="38.919162756752016" lon="-9.276947439072531"><ele>197.33333333333331</ele><time>2026-04-19T08:51:27Z</time></trkpt><trkpt lat="38.919150150818645" lon="-9.277037201756798"><ele>196.0</ele><time>2026-04-19T08:51:28Z</time></trkpt><trkpt lat="38.919242744784285" lon="-9.277132780010021"><ele>194.4</ele><time>2026-04-19T08:51:31Z</time></trkpt><trkpt lat="38.91933510807734" lon="-9.27725556894609"><ele>192.8</ele><time>2026-04-19T08:51:33Z</time></trkpt><trkpt lat="38.91939909892838" lon="-9.27733270931875"><ele>191.20000000000002</ele><time>2026-04-19T08:51:34Z</time></trkpt><trkpt lat="38.91946571682238" lon="-9.27743259653527"><ele>189.60000000000002</ele><time>2026-04-19T08:51:35Z</time></trkpt><trkpt lat="38.91952569292478" lon="-9.277561814337977"><ele>188.0</ele><time>2026-04-19T08:51:36Z</time></trkpt><trkpt lat="38.91956294148836" lon="-9.277707555155452"><ele>188.0</ele><time>2026-04-19T08:51:37Z</time></trkpt><trkpt lat="38.919582595752445" lon="-9.27784672561569"><ele>188.0</ele><time>2026-04-19T08:51:38Z</time></trkpt><trkpt lat="38.91960383983447" lon="-9.277976716151022"><ele>188.0</ele><time>2026-04-19T08:51:39Z</time></trkpt><trkpt lat="38.91963357029131" lon="-9.278099444454872"><ele>188.0</ele><time>2026-04-19T08:51:40Z</time></trkpt><trkpt lat="38.91966576649" lon="-9.278207928992606"><ele>188.0</ele><time>2026-04-19T08:51:41Z</time></trkpt><trkpt lat="38.9197108309545" lon="-9.278300713999455"><ele>187.8</ele><time>2026-04-19T08:51:42Z</time></trkpt><trkpt lat="38.91979189254225" lon="-9.278315853578853"><ele>187.60000000000002</ele><time>2026-04-19T08:51:43Z</time></trkpt><trkpt lat="38.91987520007314" lon="-9.278289555630593"><ele>187.39999999999998</ele><time>2026-04-19T08:51:44Z</time></trkpt><trkpt lat="38.91998832550923" lon="-9.278294730493574"><ele>187.2</ele><time>2026-04-19T08:51:45Z</time></trkpt><trkpt lat="38.92010134439472" lon="-9.278269046653916"><ele>187.0</ele><time>2026-04-19T08:51:46Z</time></trkpt><trkpt lat="38.92021390891904" lon="-9.27825081232833"><ele>189.6</ele><time>2026-04-19T08:51:47Z</time></trkpt><trkpt lat="38.92030685815112" lon="-9.278234086659516"><ele>192.2</ele><time>2026-04-19T08:51:48Z</time></trkpt><trkpt lat="38.92037681998743" lon="-9.278204861363664"><ele>194.8</ele><time>2026-04-19T08:51:49Z</time></trkpt><trkpt lat="38.92044093576353" lon="-9.278183814466178"><ele>197.4</ele><time>2026-04-19T08:51:51Z</time></trkpt><trkpt lat="38.920469480918364" lon="-9.278345233791526"><ele>200.0</ele><time>2026-04-19T08:51:53Z</time></trkpt><trkpt lat="38.920478511522454" lon="-9.278459824699956"><ele>200.0</ele><time>2026-04-19T08:51:54Z</time></trkpt><trkpt lat="38.920479153170575" lon="-9.27860111986763"><ele>200.0</ele><time>2026-04-19T08:51:55Z</time></trkpt><trkpt lat="38.920467971286875" lon="-9.278737828500715"><ele>200.0</ele><time>2026-04-19T08:51:56Z</time></trkpt><trkpt lat="38.92044212969889" lon="-9.278880838367982"><ele>200.0</ele><time>2026-04-19T08:51:57Z</time></trkpt><trkpt lat="38.92040378797358" lon="-9.279038569440102"><ele>201.25</ele><time>2026-04-19T08:51:58Z</time></trkpt><trkpt lat="38.92034789187024" lon="-9.279196002442822"><ele>202.5</ele><time>2026-04-19T08:51:59Z</time></trkpt><trkpt lat="38.92028800640768" lon="-9.279337935165557"><ele>203.75</ele><time>2026-04-19T08:52:00Z</time></trkpt><trkpt lat="38.92021111787654" lon="-9.279477943631845"><ele>205.0</ele><time>2026-04-19T08:52:01Z</time></trkpt><trkpt lat="38.920130244811155" lon="-9.279633553775156"><ele>202.33333333333331</ele><time>2026-04-19T08:52:02Z</time></trkpt><trkpt lat="38.92003517372275" lon="-9.279801846676916"><ele>199.66666666666669</ele><time>2026-04-19T08:52:03Z</time></trkpt><trkpt lat="38.91993947103531" lon="-9.279984714798086"><ele>197.0</ele><time>2026-04-19T08:52:04Z</time></trkpt><trkpt lat="38.91985556633795" lon="-9.280152934401299"><ele>197.0</ele><time>2026-04-19T08:52:05Z</time></trkpt><trkpt lat="38.919768447683815" lon="-9.280316471179948"><ele>197.0</ele><time>2026-04-19T08:52:06Z</time></trkpt><trkpt lat="38.91969171384581" lon="-9.280463591122674"><ele>197.0</ele><time>2026-04-19T08:52:07Z</time></trkpt><trkpt lat="38.91960578993901" lon="-9.280628481183104"><ele>197.0</ele><time>2026-04-19T08:52:08Z</time></trkpt><trkpt lat="38.91952373127818" lon="-9.280793787842125"><ele>200.66666666666669</ele><time>2026-04-19T08:52:09Z</time></trkpt><trkpt lat="38.91944436255007" lon="-9.28096184304194"><ele>204.33333333333331</ele><time>2026-04-19T08:52:10Z</time></trkpt><trkpt lat="38.919360238418015" lon="-9.281147385152712"><ele>208.0</ele><time>2026-04-19T08:52:11Z</time></trkpt><trkpt lat="38.919276341212885" lon="-9.281335675420573"><ele>203.33333333333331</ele><time>2026-04-19T08:52:12Z</time></trkpt><trkpt lat="38.91919375188329" lon="-9.281512449070526"><ele>198.66666666666669</ele><time>2026-04-19T08:52:13Z</time></trkpt><trkpt lat="38.91911166148874" lon="-9.281694367839487"><ele>194.0</ele><time>2026-04-19T08:52:14Z</time></trkpt><trkpt lat="38.919021610963235" lon="-9.28188591137342"><ele>194.0</ele><time>2026-04-19T08:52:15Z</time></trkpt><trkpt lat="38.9189266734004" lon="-9.282097584070035"><ele>194.0</ele><time>2026-04-19T08:52:16Z</time></trkpt><trkpt lat="38.91883271996893" lon="-9.282319148954445"><ele>194.0</ele><time>2026-04-19T08:52:17Z</time></trkpt><trkpt lat="38.91876055673775" lon="-9.282509294881743"><ele>197.33333333333334</ele><time>2026-04-19T08:52:18Z</time></trkpt><trkpt lat="38.91869841273512" lon="-9.28269929964625"><ele>200.66666666666669</ele><time>2026-04-19T08:52:19Z</time></trkpt><trkpt lat="38.91864270155638" lon="-9.282890549195464"><ele>204.0</ele><time>2026-04-19T08:52:20Z</time></trkpt><trkpt lat="38.918599552093106" lon="-9.283078469093814"><ele>204.75</ele><time>2026-04-19T08:52:21Z</time></trkpt><trkpt lat="38.91855497826546" lon="-9.283259227354083"><ele>205.5</ele><time>2026-04-19T08:52:22Z</time></trkpt><trkpt lat="38.91851264547259" lon="-9.283426701521341"><ele>206.25</ele><time>2026-04-19T08:52:23Z</time></trkpt><trkpt lat="38.918472705307714" lon="-9.283602722136367"><ele>207.0</ele><time>2026-04-19T08:52:24Z</time></trkpt><trkpt lat="38.918436431390525" lon="-9.283779064700857"><ele>204.25</ele><time>2026-04-19T08:52:25Z</time></trkpt><trkpt lat="38.918397059380794" lon="-9.283951763713164"><ele>201.5</ele><time>2026-04-19T08:52:26Z</time></trkpt><trkpt lat="38.91835917755794" lon="-9.284116987505545"><ele>198.75</ele><time>2026-04-19T08:52:27Z</time></trkpt><trkpt lat="38.91830796422885" lon="-9.284271921789282"><ele>196.0</ele><time>2026-04-19T08:52:28Z</time></trkpt><trkpt lat="38.91823107270604" lon="-9.284412168300964"><ele>196.0</ele><time>2026-04-19T08:52:29Z</time></trkpt><trkpt lat="38.91814239120124" lon="-9.284537209077156"><ele>196.0</ele><time>2026-04-19T08:52:30Z</time></trkpt><trkpt lat="38.918052640403566" lon="-9.284656684917588"><ele>196.0</ele><time>2026-04-19T08:52:31Z</time></trkpt><trkpt lat="38.9179842131741" lon="-9.284776686615302"><ele>196.0</ele><time>2026-04-19T08:52:32Z</time></trkpt><trkpt lat="38.917951137658385" lon="-9.284916560641747"><ele>195.5</ele><time>2026-04-19T08:52:33Z</time></trkpt><trkpt lat="38.91794803490353" lon="-9.28507108967841"><ele>195.0</ele><time>2026-04-19T08:52:34Z</time></trkpt><trkpt lat="38.91797563439754" lon="-9.285227210875354"><ele>194.5</ele><time>2026-04-19T08:52:35Z</time></trkpt><trkpt lat="38.918047613342495" lon="-9.285350401830913"><ele>194.0</ele><time>2026-04-19T08:52:36Z</time></trkpt><trkpt lat="38.91811525473151" lon="-9.285461465935997"><ele>194.0</ele><time>2026-04-19T08:52:37Z</time></trkpt><trkpt lat="38.91819992424752" lon="-9.285575273402001"><ele>194.0</ele><time>2026-04-19T08:52:38Z</time></trkpt><trkpt lat="38.91831269274292" lon="-9.285663367186226"><ele>194.0</ele><time>2026-04-19T08:52:39Z</time></trkpt><trkpt lat="38.918390009826574" lon="-9.285768925309142"><ele>194.0</ele><time>2026-04-19T08:52:40Z</time></trkpt><trkpt lat="38.91843451899922" lon="-9.28590847330921"><ele>192.25</ele><time>2026-04-19T08:52:41Z</time></trkpt><trkpt lat="38.918457332210835" lon="-9.286081120896293"><ele>190.5</ele><time>2026-04-19T08:52:42Z</time></trkpt><trkpt lat="38.9184576970578" lon="-9.286271424941983"><ele>188.75</ele><time>2026-04-19T08:52:43Z</time></trkpt><trkpt lat="38.91843522455872" lon="-9.286476059417078"><ele>187.0</ele><time>2026-04-19T08:52:44Z</time></trkpt><trkpt lat="38.91841654767658" lon="-9.286698206736096"><ele>187.0</ele><time>2026-04-19T08:52:45Z</time></trkpt><trkpt lat="38.918404093293596" lon="-9.286925044713735"><ele>187.0</ele><time>2026-04-19T08:52:46Z</time></trkpt><trkpt lat="38.91838849354878" lon="-9.287124747462473"><ele>187.0</ele><time>2026-04-19T08:52:47Z</time></trkpt><trkpt lat="38.91838121506588" lon="-9.287303498389289"><ele>187.0</ele><time>2026-04-19T08:52:48Z</time></trkpt><trkpt lat="38.91837957206586" lon="-9.287482038963931"><ele>187.0</ele><time>2026-04-19T08:52:49Z</time></trkpt><trkpt lat="38.91840062485386" lon="-9.287673585294591"><ele>187.0</ele><time>2026-04-19T08:52:50Z</time></trkpt><trkpt lat="38.91844557965216" lon="-9.287880436741482"><ele>188.25</ele><time>2026-04-19T08:52:51Z</time></trkpt><trkpt lat="38.918491046725634" lon="-9.288072614975471"><ele>189.5</ele><time>2026-04-19T08:52:52Z</time></trkpt><trkpt lat="38.918528635548626" lon="-9.288247264187317"><ele>190.75</ele><time>2026-04-19T08:52:53Z</time></trkpt><trkpt lat="38.91856380773189" lon="-9.288418490330969"><ele>192.0</ele><time>2026-04-19T08:52:54Z</time></trkpt><trkpt lat="38.918603531216554" lon="-9.288599326240094"><ele>194.0</ele><time>2026-04-19T08:52:55Z</time></trkpt><trkpt lat="38.918635305098945" lon="-9.28878195905759"><ele>196.0</ele><time>2026-04-19T08:52:56Z</time></trkpt><trkpt lat="38.91867062391768" lon="-9.28896150122707"><ele>198.0</ele><time>2026-04-19T08:52:57Z</time></trkpt><trkpt lat="38.91869507971436" lon="-9.289142050763276"><ele>200.0</ele><time>2026-04-19T08:52:58Z</time></trkpt><trkpt lat="38.91872139720994" lon="-9.289325926430427"><ele>201.0</ele><time>2026-04-19T08:52:59Z</time></trkpt><trkpt lat="38.91873359216361" lon="-9.289510265271263"><ele>202.0</ele><time>2026-04-19T08:53:00Z</time></trkpt><trkpt lat="38.91874984156303" lon="-9.28970033051334"><ele>203.0</ele><time>2026-04-19T08:53:01Z</time></trkpt><trkpt lat="38.91876343479054" lon="-9.289888768108995"><ele>204.0</ele><time>2026-04-19T08:53:02Z</time></trkpt><trkpt lat="38.918787833004785" lon="-9.290072858095714"><ele>204.25</ele><time>2026-04-19T08:53:03Z</time></trkpt><trkpt lat="38.91882688368883" lon="-9.29025497314018"><ele>204.5</ele><time>2026-04-19T08:53:04Z</time></trkpt><trkpt lat="38.91890175104509" lon="-9.290405508842259"><ele>204.75</ele><time>2026-04-19T08:53:05Z</time></trkpt><trkpt lat="38.918965715049744" lon="-9.290561602681395"><ele>205.0</ele><time>2026-04-19T08:53:06Z</time></trkpt><trkpt lat="38.91904280346319" lon="-9.29071593974748"><ele>205.0</ele><time>2026-04-19T08:53:07Z</time></trkpt><trkpt lat="38.9191242720605" lon="-9.290879704229004"><ele>205.0</ele><time>2026-04-19T08:53:08Z</time></trkpt><trkpt lat="38.91920881129078" lon="-9.291037107342712"><ele>205.0</ele><time>2026-04-19T08:53:09Z</time></trkpt><trkpt lat="38.91928434830348" lon="-9.29119525222128"><ele>205.0</ele><time>2026-04-19T08:53:10Z</time></trkpt><trkpt lat="38.919366021591806" lon="-9.291347740911624"><ele>205.5</ele><time>2026-04-19T08:53:11Z</time></trkpt><trkpt lat="38.91945108157326" lon="-9.291493540496022"><ele>206.0</ele><time>2026-04-19T08:53:12Z</time></trkpt><trkpt lat="38.91953507814977" lon="-9.291632879647349"><ele>206.5</ele><time>2026-04-19T08:53:13Z</time></trkpt><trkpt lat="38.91961840013237" lon="-9.291762219429721"><ele>207.0</ele><time>2026-04-19T08:53:14Z</time></trkpt><trkpt lat="38.91969622774699" lon="-9.291881502737661"><ele>207.0</ele><time>2026-04-19T08:53:15Z</time></trkpt><trkpt lat="38.9197730751499" lon="-9.29201594384455"><ele>207.0</ele><time>2026-04-19T08:53:16Z</time></trkpt><trkpt lat="38.91984113110607" lon="-9.29215936368178"><ele>207.0</ele><time>2026-04-19T08:53:17Z</time></trkpt><trkpt lat="38.91989085182498" lon="-9.292316034348483"><ele>207.0</ele><time>2026-04-19T08:53:18Z</time></trkpt><trkpt lat="38.91993468291058" lon="-9.292475501339265"><ele>207.25</ele><time>2026-04-19T08:53:19Z</time></trkpt><trkpt lat="38.919993373130595" lon="-9.292628880384166"><ele>207.5</ele><time>2026-04-19T08:53:20Z</time></trkpt><trkpt lat="38.92007173585699" lon="-9.292764002887127"><ele>207.75</ele><time>2026-04-19T08:53:21Z</time></trkpt><trkpt lat="38.92016767284594" lon="-9.292875660368018"><ele>208.0</ele><time>2026-04-19T08:53:22Z</time></trkpt><trkpt lat="38.920279262029936" lon="-9.29295853357092"><ele>209.33333333333331</ele><time>2026-04-19T08:53:23Z</time></trkpt><trkpt lat="38.9203928626699" lon="-9.293045771623033"><ele>210.66666666666669</ele><time>2026-04-19T08:53:24Z</time></trkpt><trkpt lat="38.92051861434203" lon="-9.293161385543035"><ele>212.0</ele><time>2026-04-19T08:53:25Z</time></trkpt><trkpt lat="38.92065777650785" lon="-9.293295865142513"><ele>212.33333333333334</ele><time>2026-04-19T08:53:26Z</time></trkpt><trkpt lat="38.92081085770082" lon="-9.293438103469612"><ele>212.66666666666669</ele><time>2026-04-19T08:53:27Z</time></trkpt><trkpt lat="38.92097015714493" lon="-9.293581402789572"><ele>213.0</ele><time>2026-04-19T08:53:28Z</time></trkpt><trkpt lat="38.92110901101087" lon="-9.293704771899002"><ele>214.5</ele><time>2026-04-19T08:53:29Z</time></trkpt><trkpt lat="38.921238318836195" lon="-9.293810925805774"><ele>216.0</ele><time>2026-04-19T08:53:30Z</time></trkpt><trkpt lat="38.921358570752304" lon="-9.293913581075337"><ele>217.5</ele><time>2026-04-19T08:53:31Z</time></trkpt><trkpt lat="38.92147575113486" lon="-9.294009742594605"><ele>219.0</ele><time>2026-04-19T08:53:32Z</time></trkpt><trkpt lat="38.921591934079856" lon="-9.294099525154802"><ele>219.75</ele><time>2026-04-19T08:53:33Z</time></trkpt><trkpt lat="38.92170635941132" lon="-9.294181756952254"><ele>220.5</ele><time>2026-04-19T08:53:34Z</time></trkpt><trkpt lat="38.921819055952085" lon="-9.294250290602859"><ele>221.25</ele><time>2026-04-19T08:53:35Z</time></trkpt><trkpt lat="38.92193301833455" lon="-9.294307554004197"><ele>222.0</ele><time>2026-04-19T08:53:36Z</time></trkpt><trkpt lat="38.92204513818151" lon="-9.294355115472001"><ele>223.75</ele><time>2026-04-19T08:53:37Z</time></trkpt><trkpt lat="38.92216039158593" lon="-9.294398518614035"><ele>225.5</ele><time>2026-04-19T08:53:38Z</time></trkpt><trkpt lat="38.92227698562671" lon="-9.29444144338411"><ele>227.25</ele><time>2026-04-19T08:53:39Z</time></trkpt><trkpt lat="38.92238944982413" lon="-9.294488505015938"><ele>229.0</ele><time>2026-04-19T08:53:40Z</time></trkpt><trkpt lat="38.92249512912355" lon="-9.2945330360294"><ele>229.6</ele><time>2026-04-19T08:53:41Z</time></trkpt><trkpt lat="38.92258403336965" lon="-9.294601353069064"><ele>230.2</ele><time>2026-04-19T08:53:42Z</time></trkpt><trkpt lat="38.922629516334084" lon="-9.2946963564215"><ele>230.79999999999998</ele><time>2026-04-19T08:53:43Z</time></trkpt><trkpt lat="38.922626274941805" lon="-9.294832664979845"><ele>231.39999999999998</ele><time>2026-04-19T08:53:44Z</time></trkpt><trkpt lat="38.92257036543896" lon="-9.294947724820666"><ele>232.0</ele><time>2026-04-19T08:53:45Z</time></trkpt><trkpt lat="38.92247226450975" lon="-9.29502860711627"><ele>232.0</ele><time>2026-04-19T08:53:46Z</time></trkpt><trkpt lat="38.92238650710393" lon="-9.295108017621606"><ele>232.0</ele><time>2026-04-19T08:53:47Z</time></trkpt><trkpt lat="38.922291640457054" lon="-9.29518628820375"><ele>232.0</ele><time>2026-04-19T08:53:48Z</time></trkpt><trkpt lat="38.92219747284026" lon="-9.29526588466875"><ele>232.0</ele><time>2026-04-19T08:53:49Z</time></trkpt><trkpt lat="38.92211755027033" lon="-9.295369512397137"><ele>232.0</ele><time>2026-04-19T08:53:50Z</time></trkpt><trkpt lat="38.922097837178" lon="-9.295507421295746"><ele>232.8</ele><time>2026-04-19T08:53:51Z</time></trkpt><trkpt lat="38.92207202003811" lon="-9.29564796878023"><ele>233.6</ele><time>2026-04-19T08:53:52Z</time></trkpt><trkpt lat="38.92208253844951" lon="-9.295794261745433"><ele>234.40000000000003</ele><time>2026-04-19T08:53:53Z</time></trkpt><trkpt lat="38.922106720492074" lon="-9.295916933836285"><ele>235.20000000000002</ele><time>2026-04-19T08:53:54Z</time></trkpt><trkpt lat="38.92213619064388" lon="-9.296012197695067"><ele>236.0</ele><time>2026-04-19T08:53:55Z</time></trkpt><trkpt lat="38.922175477128704" lon="-9.29608321232294"><ele>236.0</ele><time>2026-04-19T08:53:56Z</time></trkpt><trkpt lat="38.922211218458536" lon="-9.296162504027343"><ele>236.0</ele><time>2026-04-19T08:53:58Z</time></trkpt><trkpt lat="38.92203117875569" lon="-9.296168707559332"><ele>236.0</ele><time>2026-04-19T08:54:00Z</time></trkpt><trkpt lat="38.921951408403004" lon="-9.296110855537524"><ele>236.0</ele><time>2026-04-19T08:54:01Z</time></trkpt><trkpt lat="38.92187741242249" lon="-9.296010792134577"><ele>236.0</ele><time>2026-04-19T08:54:02Z</time></trkpt><trkpt lat="38.92183845499605" lon="-9.295878919513221"><ele>236.0</ele><time>2026-04-19T08:54:03Z</time></trkpt><trkpt lat="38.921807168642744" lon="-9.295717650417032"><ele>236.0</ele><time>2026-04-19T08:54:04Z</time></trkpt><trkpt lat="38.92174524480924" lon="-9.295579905167791"><ele>236.0</ele><time>2026-04-19T08:54:05Z</time></trkpt><trkpt lat="38.92165651134193" lon="-9.295490039147902"><ele>234.8</ele><time>2026-04-19T08:54:06Z</time></trkpt><trkpt lat="38.92152451564955" lon="-9.295513826081237"><ele>233.60000000000002</ele><time>2026-04-19T08:54:07Z</time></trkpt><trkpt lat="38.921407834875616" lon="-9.295521491863473"><ele>232.4</ele><time>2026-04-19T08:54:08Z</time></trkpt><trkpt lat="38.921294007648314" lon="-9.295532030125136"><ele>231.2</ele><time>2026-04-19T08:54:09Z</time></trkpt><trkpt lat="38.9212113526458" lon="-9.295540990926401"><ele>230.0</ele><time>2026-04-19T08:54:10Z</time></trkpt><trkpt lat="38.9211482566759" lon="-9.295547831288337"><ele>229.25</ele><time>2026-04-19T08:54:11Z</time></trkpt><trkpt lat="38.9212301617322" lon="-9.295804089558768"><ele>228.5</ele><time>2026-04-19T08:54:14Z</time></trkpt><trkpt lat="38.92131127073346" lon="-9.295892469068878"><ele>227.75</ele><time>2026-04-19T08:54:15Z</time></trkpt><trkpt lat="38.92137698222079" lon="-9.296012440173616"><ele>227.0</ele><time>2026-04-19T08:54:16Z</time></trkpt><trkpt lat="38.92144169590392" lon="-9.296147771307531"><ele>227.00000000000003</ele><time>2026-04-19T08:54:17Z</time></trkpt><trkpt lat="38.92148030274998" lon="-9.296283083681958"><ele>227.0</ele><time>2026-04-19T08:54:18Z</time></trkpt><trkpt lat="38.92152431167978" lon="-9.296397530504928"><ele>227.0</ele><time>2026-04-19T08:54:19Z</time></trkpt><trkpt lat="38.9215691011368" lon="-9.296489325284707"><ele>227.0</ele><time>2026-04-19T08:54:20Z</time></trkpt><trkpt lat="38.921600850333775" lon="-9.296591299631885"><ele>227.00000000000003</ele><time>2026-04-19T08:54:21Z</time></trkpt><trkpt lat="38.921601660131074" lon="-9.296676005454106"><ele>227.0</ele><time>2026-04-19T08:54:22Z</time></trkpt><trkpt lat="38.921597732000436" lon="-9.296783070108011"><ele>226.5</ele><time>2026-04-19T08:54:23Z</time></trkpt><trkpt lat="38.92159406407493" lon="-9.2969036313972"><ele>226.0</ele><time>2026-04-19T08:54:24Z</time></trkpt><trkpt lat="38.92149510747445" lon="-9.297006963253713"><ele>225.5</ele><time>2026-04-19T08:54:25Z</time></trkpt><trkpt lat="38.92143289408453" lon="-9.297174893940388"><ele>225.0</ele><time>2026-04-19T08:54:26Z</time></trkpt><trkpt lat="38.92135887093363" lon="-9.297331876858479"><ele>225.0</ele><time>2026-04-19T08:54:27Z</time></trkpt><trkpt lat="38.921326030136214" lon="-9.29750545143016"><ele>225.0</ele><time>2026-04-19T08:54:28Z</time></trkpt><trkpt lat="38.92129335188579" lon="-9.297672382886017"><ele>225.0</ele><time>2026-04-19T08:54:29Z</time></trkpt><trkpt lat="38.92126308894922" lon="-9.297796642620556"><ele>225.0</ele><time>2026-04-19T08:54:30Z</time></trkpt><trkpt lat="38.92123268489836" lon="-9.297917567539324"><ele>225.0</ele><time>2026-04-19T08:54:31Z</time></trkpt><trkpt lat="38.921212074111125" lon="-9.29804620595004"><ele>225.0</ele><time>2026-04-19T08:54:32Z</time></trkpt><trkpt lat="38.92121713644184" lon="-9.298178419159965"><ele>225.0</ele><time>2026-04-19T08:54:33Z</time></trkpt><trkpt lat="38.92122095307288" lon="-9.298312235326673"><ele>225.0</ele><time>2026-04-19T08:54:34Z</time></trkpt><trkpt lat="38.92120444610808" lon="-9.298405896520778"><ele>225.0</ele><time>2026-04-19T08:54:35Z</time></trkpt><trkpt lat="38.921202087139605" lon="-9.298508928274225"><ele>226.0</ele><time>2026-04-19T08:54:37Z</time></trkpt><trkpt lat="38.921167263511265" lon="-9.29860784394843"><ele>227.0</ele><time>2026-04-19T08:54:41Z</time></trkpt><trkpt lat="38.92110638392724" lon="-9.298638341636421"><ele>228.0</ele><time>2026-04-19T08:54:42Z</time></trkpt><trkpt lat="38.9210328616" lon="-9.298691164683296"><ele>229.0</ele><time>2026-04-19T08:54:43Z</time></trkpt><trkpt lat="38.92095599265347" lon="-9.298764711409627"><ele>230.0</ele><time>2026-04-19T08:54:44Z</time></trkpt><trkpt lat="38.920872610290985" lon="-9.29888396472795"><ele>230.5</ele><time>2026-04-19T08:54:45Z</time></trkpt><trkpt lat="38.920832601124026" lon="-9.299061649241601"><ele>231.0</ele><time>2026-04-19T08:54:46Z</time></trkpt><trkpt lat="38.920797813318494" lon="-9.299213351410778"><ele>231.5</ele><time>2026-04-19T08:54:47Z</time></trkpt><trkpt lat="38.92085045296324" lon="-9.299387423560882"><ele>232.0</ele><time>2026-04-19T08:54:48Z</time></trkpt><trkpt lat="38.92089819247444" lon="-9.299547458737978"><ele>232.25</ele><time>2026-04-19T08:54:49Z</time></trkpt><trkpt lat="38.92094940163394" lon="-9.29969895069046"><ele>232.5</ele><time>2026-04-19T08:54:50Z</time></trkpt><trkpt lat="38.921007782161226" lon="-9.29982380118034"><ele>232.75</ele><time>2026-04-19T08:54:51Z</time></trkpt><trkpt lat="38.92106681033644" lon="-9.299946512341904"><ele>233.0</ele><time>2026-04-19T08:54:52Z</time></trkpt><trkpt lat="38.921136596089404" lon="-9.30006973330001"><ele>233.0</ele><time>2026-04-19T08:54:53Z</time></trkpt><trkpt lat="38.92121951927082" lon="-9.30016245207307"><ele>233.0</ele><time>2026-04-19T08:54:54Z</time></trkpt><trkpt lat="38.92130752030388" lon="-9.30025397532039"><ele>233.0</ele><time>2026-04-19T08:54:55Z</time></trkpt><trkpt lat="38.921401351639204" lon="-9.300345019082716"><ele>233.0</ele><time>2026-04-19T08:54:56Z</time></trkpt><trkpt lat="38.921494037580985" lon="-9.300433086295254"><ele>233.0</ele><time>2026-04-19T08:54:57Z</time></trkpt><trkpt lat="38.92159511858972" lon="-9.30050822551606"><ele>233.0</ele><time>2026-04-19T08:54:58Z</time></trkpt><trkpt lat="38.92170108414595" lon="-9.300557154884183"><ele>233.0</ele><time>2026-04-19T08:54:59Z</time></trkpt><trkpt lat="38.921817665050476" lon="-9.300582411372634"><ele>233.0</ele><time>2026-04-19T08:55:00Z</time></trkpt><trkpt lat="38.921934779241965" lon="-9.300607072481515"><ele>230.0</ele><time>2026-04-19T08:55:01Z</time></trkpt><trkpt lat="38.92204424038024" lon="-9.300645356588225"><ele>227.0</ele><time>2026-04-19T08:55:02Z</time></trkpt><trkpt lat="38.922144496649075" lon="-9.300663990095158"><ele>224.0</ele><time>2026-04-19T08:55:03Z</time></trkpt><trkpt lat="38.92224928049952" lon="-9.300679878425576"><ele>221.0</ele><time>2026-04-19T08:55:04Z</time></trkpt><trkpt lat="38.92236466015122" lon="-9.300694191750907"><ele>218.0</ele><time>2026-04-19T08:55:05Z</time></trkpt><trkpt lat="38.92248790966452" lon="-9.300722005544063"><ele>217.75</ele><time>2026-04-19T08:55:06Z</time></trkpt><trkpt lat="38.92261801450182" lon="-9.300764974521421"><ele>217.5</ele><time>2026-04-19T08:55:07Z</time></trkpt><trkpt lat="38.922742844638584" lon="-9.300797418595813"><ele>217.25</ele><time>2026-04-19T08:55:08Z</time></trkpt><trkpt lat="38.9228720067852" lon="-9.300825992282249"><ele>217.0</ele><time>2026-04-19T08:55:09Z</time></trkpt><trkpt lat="38.922990353751906" lon="-9.300863615400122"><ele>217.0</ele><time>2026-04-19T08:55:10Z</time></trkpt><trkpt lat="38.92310334620611" lon="-9.300893867965847"><ele>217.0</ele><time>2026-04-19T08:55:11Z</time></trkpt><trkpt lat="38.923206703244944" lon="-9.300935812094604"><ele>217.0</ele><time>2026-04-19T08:55:12Z</time></trkpt><trkpt lat="38.92330047998864" lon="-9.300998839547404"><ele>217.0</ele><time>2026-04-19T08:55:13Z</time></trkpt><trkpt lat="38.923372930326515" lon="-9.301077527358908"><ele>217.0</ele><time>2026-04-19T08:55:14Z</time></trkpt><trkpt lat="38.923434218892254" lon="-9.301196514118365"><ele>219.0</ele><time>2026-04-19T08:55:16Z</time></trkpt><trkpt lat="38.92348976341292" lon="-9.301140483059527"><ele>221.0</ele><time>2026-04-19T08:55:23Z</time></trkpt><trkpt lat="38.923522437623994" lon="-9.301044708313189"><ele>223.0</ele><time>2026-04-19T08:55:25Z</time></trkpt><trkpt lat="38.92358216645022" lon="-9.300877072259762"><ele>225.0</ele><time>2026-04-19T08:55:27Z</time></trkpt><trkpt lat="38.92362533431247" lon="-9.300746498724228"><ele>227.0</ele><time>2026-04-19T08:55:28Z</time></trkpt><trkpt lat="38.923660769925085" lon="-9.30059155740622"><ele>229.0</ele><time>2026-04-19T08:55:29Z</time></trkpt><trkpt lat="38.923748996731156" lon="-9.30046131258476"><ele>231.0</ele><time>2026-04-19T08:55:30Z</time></trkpt><trkpt lat="38.92382404234479" lon="-9.300324400628286"><ele>233.0</ele><time>2026-04-19T08:55:31Z</time></trkpt><trkpt lat="38.92388656475514" lon="-9.300169293725038"><ele>235.0</ele><time>2026-04-19T08:55:32Z</time></trkpt><trkpt lat="38.923941016420464" lon="-9.300022571081302"><ele>235.0</ele><time>2026-04-19T08:55:33Z</time></trkpt><trkpt lat="38.92396945678385" lon="-9.2999371260127"><ele>235.0</ele><time>2026-04-19T08:55:34Z</time></trkpt><trkpt lat="38.92399740063946" lon="-9.299833868401757"><ele>235.0</ele><time>2026-04-19T08:55:36Z</time></trkpt><trkpt lat="38.9240222248537" lon="-9.299660953301784"><ele>235.0</ele><time>2026-04-19T08:55:38Z</time></trkpt><trkpt lat="38.92403100876801" lon="-9.29953554665154"><ele>235.0</ele><time>2026-04-19T08:55:40Z</time></trkpt><trkpt lat="38.924034076421826" lon="-9.299421940548362"><ele>236.6</ele><time>2026-04-19T08:55:42Z</time></trkpt><trkpt lat="38.92403723509568" lon="-9.29929040865804"><ele>238.2</ele><time>2026-04-19T08:55:44Z</time></trkpt><trkpt lat="38.9240562285329" lon="-9.299160905496818"><ele>239.8</ele><time>2026-04-19T08:55:46Z</time></trkpt><trkpt lat="38.92407223796136" lon="-9.299036957410033"><ele>241.4</ele><time>2026-04-19T08:55:48Z</time></trkpt><trkpt lat="38.9242021654389" lon="-9.298965037916112"><ele>243.0</ele><time>2026-04-19T08:55:49Z</time></trkpt><trkpt lat="38.92428814233367" lon="-9.29893966152636"><ele>244.60000000000002</ele><time>2026-04-19T08:55:50Z</time></trkpt><trkpt lat="38.924376102163045" lon="-9.298918002479322"><ele>246.20000000000002</ele><time>2026-04-19T08:55:51Z</time></trkpt><trkpt lat="38.92447257868977" lon="-9.29885663737708"><ele>247.8</ele><time>2026-04-19T08:55:52Z</time></trkpt><trkpt lat="38.924579177297375" lon="-9.2987899849387"><ele>249.4</ele><time>2026-04-19T08:55:53Z</time></trkpt><trkpt lat="38.92467965349948" lon="-9.298729770183"><ele>251.0</ele><time>2026-04-19T08:55:54Z</time></trkpt><trkpt lat="38.92478334486888" lon="-9.298646313763797"><ele>251.0</ele><time>2026-04-19T08:55:55Z</time></trkpt><trkpt lat="38.9249036283828" lon="-9.298573465796583"><ele>251.0</ele><time>2026-04-19T08:55:56Z</time></trkpt><trkpt lat="38.92503566225987" lon="-9.298493693170812"><ele>251.0</ele><time>2026-04-19T08:55:57Z</time></trkpt><trkpt lat="38.92516841659839" lon="-9.298407041078327"><ele>251.0</ele><time>2026-04-19T08:55:58Z</time></trkpt><trkpt lat="38.9252680414652" lon="-9.298336347814876"><ele>251.4</ele><time>2026-04-19T08:55:59Z</time></trkpt><trkpt lat="38.92535634787164" lon="-9.298272637209417"><ele>251.8</ele><time>2026-04-19T08:56:00Z</time></trkpt><trkpt lat="38.92543889920936" lon="-9.298213578685234"><ele>252.20000000000002</ele><time>2026-04-19T08:56:01Z</time></trkpt><trkpt lat="38.925520182542165" lon="-9.298151074953358"><ele>252.60000000000002</ele><time>2026-04-19T08:56:02Z</time></trkpt><trkpt lat="38.92559945174741" lon="-9.298083878748889"><ele>253.0</ele><time>2026-04-19T08:56:03Z</time></trkpt><trkpt lat="38.92567577462693" lon="-9.298008422592519"><ele>252.99999999999997</ele><time>2026-04-19T08:56:04Z</time></trkpt><trkpt lat="38.9257441984396" lon="-9.29794014547027"><ele>253.0</ele><time>2026-04-19T08:56:05Z</time></trkpt><trkpt lat="38.9258022168102" lon="-9.297881270577538"><ele>253.0</ele><time>2026-04-19T08:56:06Z</time></trkpt><trkpt lat="38.925874836485164" lon="-9.297825367362453"><ele>253.0</ele><time>2026-04-19T08:56:07Z</time></trkpt><trkpt lat="38.925932184103125" lon="-9.297748724383776"><ele>252.99999999999997</ele><time>2026-04-19T08:56:08Z</time></trkpt><trkpt lat="38.92597485683311" lon="-9.297661337871014"><ele>253.0</ele><time>2026-04-19T08:56:09Z</time></trkpt><trkpt lat="38.926035894788484" lon="-9.297571525587545"><ele>252.83333333333331</ele><time>2026-04-19T08:56:10Z</time></trkpt><trkpt lat="38.92611115274124" lon="-9.297497518564112"><ele>252.66666666666666</ele><time>2026-04-19T08:56:11Z</time></trkpt><trkpt lat="38.92616113956492" lon="-9.297412461262823"><ele>252.5</ele><time>2026-04-19T08:56:12Z</time></trkpt><trkpt lat="38.926208255743795" lon="-9.297344866906805"><ele>252.33333333333331</ele><time>2026-04-19T08:56:13Z</time></trkpt><trkpt lat="38.92624878024067" lon="-9.297282529065559"><ele>252.16666666666666</ele><time>2026-04-19T08:56:14Z</time></trkpt><trkpt lat="38.92628920880855" lon="-9.297219360793461"><ele>252.0</ele><time>2026-04-19T08:56:15Z</time></trkpt><trkpt lat="38.926347771516106" lon="-9.297136832463064"><ele>252.0</ele><time>2026-04-19T08:56:17Z</time></trkpt><trkpt lat="38.92637931152041" lon="-9.29706135275923"><ele>252.0</ele><time>2026-04-19T08:56:23Z</time></trkpt><trkpt lat="38.92642861706688" lon="-9.296972194968308"><ele>252.0</ele><time>2026-04-19T08:56:28Z</time></trkpt><trkpt lat="38.926415449748376" lon="-9.2971039450014"><ele>252.0</ele><time>2026-04-19T08:56:30Z</time></trkpt><trkpt lat="38.92630648404367" lon="-9.297123482838451"><ele>252.0</ele><time>2026-04-19T08:56:32Z</time></trkpt><trkpt lat="38.92621394274255" lon="-9.297377475632691"><ele>252.0</ele><time>2026-04-19T08:56:33Z</time></trkpt><trkpt lat="38.92612136799527" lon="-9.297510249701482"><ele>252.0</ele><time>2026-04-19T08:56:34Z</time></trkpt><trkpt lat="38.926014271706805" lon="-9.297654764253481"><ele>252.0</ele><time>2026-04-19T08:56:35Z</time></trkpt><trkpt lat="38.92589733107908" lon="-9.29781316413523"><ele>252.33333333333331</ele><time>2026-04-19T08:56:36Z</time></trkpt><trkpt lat="38.925772148353225" lon="-9.297963868715227"><ele>252.66666666666666</ele><time>2026-04-19T08:56:37Z</time></trkpt><trkpt lat="38.92565661498853" lon="-9.298086537746773"><ele>253.0</ele><time>2026-04-19T08:56:38Z</time></trkpt><trkpt lat="38.92554220333699" lon="-9.298181490959244"><ele>253.0</ele><time>2026-04-19T08:56:39Z</time></trkpt><trkpt lat="38.92540330665639" lon="-9.298290014382241"><ele>253.0</ele><time>2026-04-19T08:56:40Z</time></trkpt><trkpt lat="38.92525345589197" lon="-9.298400593402276"><ele>253.0</ele><time>2026-04-19T08:56:41Z</time></trkpt><trkpt lat="38.92511787811456" lon="-9.298501002455824"><ele>252.33333333333331</ele><time>2026-04-19T08:56:42Z</time></trkpt><trkpt lat="38.92496538261742" lon="-9.298603512742291"><ele>251.66666666666669</ele><time>2026-04-19T08:56:43Z</time></trkpt><trkpt lat="38.924829144646246" lon="-9.298680371680696"><ele>251.0</ele><time>2026-04-19T08:56:44Z</time></trkpt><trkpt lat="38.92471064232475" lon="-9.298755654575828"><ele>251.0</ele><time>2026-04-19T08:56:45Z</time></trkpt><trkpt lat="38.92460044361412" lon="-9.298833140576015"><ele>251.0</ele><time>2026-04-19T08:56:46Z</time></trkpt><trkpt lat="38.92448037333379" lon="-9.29890050133296"><ele>251.0</ele><time>2026-04-19T08:56:47Z</time></trkpt><trkpt lat="38.9243734703324" lon="-9.298962931868742"><ele>251.0</ele><time>2026-04-19T08:56:48Z</time></trkpt><trkpt lat="38.924257506419316" lon="-9.299018591092173"><ele>249.0</ele><time>2026-04-19T08:56:49Z</time></trkpt><trkpt lat="38.92414846794029" lon="-9.299044433891769"><ele>247.0</ele><time>2026-04-19T08:56:50Z</time></trkpt><trkpt lat="38.92406441925857" lon="-9.29906680472942"><ele>245.0</ele><time>2026-04-19T08:56:51Z</time></trkpt><trkpt lat="38.92406514410262" lon="-9.299288152788618"><ele>243.0</ele><time>2026-04-19T08:56:52Z</time></trkpt><trkpt lat="38.92406745331278" lon="-9.29942156404262"><ele>243.0</ele><time>2026-04-19T08:56:53Z</time></trkpt><trkpt lat="38.92405037318634" lon="-9.29955538844934"><ele>243.0</ele><time>2026-04-19T08:56:54Z</time></trkpt><trkpt lat="38.92404072345882" lon="-9.299677123742335"><ele>243.0</ele><time>2026-04-19T08:56:55Z</time></trkpt><trkpt lat="38.924039308642065" lon="-9.299792828073226"><ele>243.0</ele><time>2026-04-19T08:56:56Z</time></trkpt><trkpt lat="38.924016386071116" lon="-9.299908742372514"><ele>243.0</ele><time>2026-04-19T08:56:57Z</time></trkpt><trkpt lat="38.9239814491356" lon="-9.30002636203106"><ele>241.4</ele><time>2026-04-19T08:56:58Z</time></trkpt><trkpt lat="38.92394352427628" lon="-9.300141512283119"><ele>239.8</ele><time>2026-04-19T08:56:59Z</time></trkpt><trkpt lat="38.92387904919794" lon="-9.300245753957325"><ele>238.2</ele><time>2026-04-19T08:57:00Z</time></trkpt><trkpt lat="38.923819771863904" lon="-9.300386731091947"><ele>236.6</ele><time>2026-04-19T08:57:01Z</time></trkpt><trkpt lat="38.92373842897729" lon="-9.300501159586622"><ele>235.0</ele><time>2026-04-19T08:57:02Z</time></trkpt><trkpt lat="38.92367999079963" lon="-9.30062841546365"><ele>233.66666666666666</ele><time>2026-04-19T08:57:03Z</time></trkpt><trkpt lat="38.92363346934562" lon="-9.300746651289794"><ele>232.33333333333331</ele><time>2026-04-19T08:57:04Z</time></trkpt><trkpt lat="38.92358861560331" lon="-9.30085621516249"><ele>231.0</ele><time>2026-04-19T08:57:05Z</time></trkpt><trkpt lat="38.92354799007436" lon="-9.300955468768674"><ele>229.66666666666669</ele><time>2026-04-19T08:57:06Z</time></trkpt><trkpt lat="38.92350569412352" lon="-9.301036343252434"><ele>228.33333333333334</ele><time>2026-04-19T08:57:07Z</time></trkpt><trkpt lat="38.92347051864127" lon="-9.301120389821072"><ele>227.0</ele><time>2026-04-19T08:57:08Z</time></trkpt><trkpt lat="38.92343944752927" lon="-9.301198769826604"><ele>227.0</ele><time>2026-04-19T08:57:09Z</time></trkpt><trkpt lat="38.9234110166635" lon="-9.301291135308311"><ele>227.0</ele><time>2026-04-19T08:57:10Z</time></trkpt><trkpt lat="38.92345096401346" lon="-9.301408584021438"><ele>227.0</ele><time>2026-04-19T08:57:11Z</time></trkpt><trkpt lat="38.92343928511483" lon="-9.301560661038776"><ele>227.0</ele><time>2026-04-19T08:57:12Z</time></trkpt><trkpt lat="38.92343679848505" lon="-9.301720992084906"><ele>227.0</ele><time>2026-04-19T08:57:13Z</time></trkpt><trkpt lat="38.92341709650409" lon="-9.301910098886907"><ele>225.25</ele><time>2026-04-19T08:57:14Z</time></trkpt><trkpt lat="38.9233978147178" lon="-9.302105530408271"><ele>223.5</ele><time>2026-04-19T08:57:15Z</time></trkpt><trkpt lat="38.923380552908995" lon="-9.302298346482436"><ele>221.75</ele><time>2026-04-19T08:57:16Z</time></trkpt><trkpt lat="38.92337073441521" lon="-9.302465223976128"><ele>220.0</ele><time>2026-04-19T08:57:17Z</time></trkpt><trkpt lat="38.923360790434785" lon="-9.302607709042652"><ele>217.16666666666666</ele><time>2026-04-19T08:57:18Z</time></trkpt><trkpt lat="38.92334437004765" lon="-9.302736130698847"><ele>214.33333333333331</ele><time>2026-04-19T08:57:19Z</time></trkpt><trkpt lat="38.92332486364642" lon="-9.30285344846154"><ele>211.5</ele><time>2026-04-19T08:57:20Z</time></trkpt><trkpt lat="38.92330981937453" lon="-9.30294675452912"><ele>208.66666666666669</ele><time>2026-04-19T08:57:21Z</time></trkpt><trkpt lat="38.923304399538814" lon="-9.30305131865614"><ele>205.83333333333334</ele><time>2026-04-19T08:57:23Z</time></trkpt><trkpt lat="38.92329065969211" lon="-9.303150019767733"><ele>203.0</ele><time>2026-04-19T08:57:28Z</time></trkpt><trkpt lat="38.92328241008681" lon="-9.303242328743465"><ele>202.00000000000003</ele><time>2026-04-19T08:57:29Z</time></trkpt><trkpt lat="38.92327766606619" lon="-9.303324850420523"><ele>201.0</ele><time>2026-04-19T08:57:30Z</time></trkpt><trkpt lat="38.92326611297362" lon="-9.303422344773143"><ele>200.0</ele><time>2026-04-19T08:57:32Z</time></trkpt><trkpt lat="38.92325035356291" lon="-9.303517108574264"><ele>199.0</ele><time>2026-04-19T08:57:37Z</time></trkpt><trkpt lat="38.92322650500462" lon="-9.303652277718678"><ele>198.00000000000003</ele><time>2026-04-19T08:57:39Z</time></trkpt><trkpt lat="38.92322866986517" lon="-9.303761299301474"><ele>197.0</ele><time>2026-04-19T08:57:41Z</time></trkpt><trkpt lat="38.92320094101333" lon="-9.303842272559518"><ele>197.8</ele><time>2026-04-19T08:57:48Z</time></trkpt><trkpt lat="38.92314486246804" lon="-9.303969309811725"><ele>198.6</ele><time>2026-04-19T08:57:50Z</time></trkpt><trkpt lat="38.92309612528617" lon="-9.304053026713724"><ele>199.4</ele><time>2026-04-19T08:57:51Z</time></trkpt><trkpt lat="38.923026099761984" lon="-9.304152964903972"><ele>200.20000000000002</ele><time>2026-04-19T08:57:52Z</time></trkpt><trkpt lat="38.92294114807998" lon="-9.30425168643916"><ele>201.0</ele><time>2026-04-19T08:57:53Z</time></trkpt><trkpt lat="38.92284309055485" lon="-9.304350040894489"><ele>201.0</ele><time>2026-04-19T08:57:54Z</time></trkpt><trkpt lat="38.922745448711666" lon="-9.304462212260095"><ele>201.0</ele><time>2026-04-19T08:57:55Z</time></trkpt><trkpt lat="38.92265368560448" lon="-9.304570869720061"><ele>201.0</ele><time>2026-04-19T08:57:56Z</time></trkpt><trkpt lat="38.922556663883434" lon="-9.304691221877478"><ele>201.0</ele><time>2026-04-19T08:57:57Z</time></trkpt><trkpt lat="38.922451365219516" lon="-9.304811679826896"><ele>203.5</ele><time>2026-04-19T08:57:58Z</time></trkpt><trkpt lat="38.922344442208264" lon="-9.304950128647137"><ele>206.0</ele><time>2026-04-19T08:57:59Z</time></trkpt><trkpt lat="38.92221498302128" lon="-9.305065240560525"><ele>208.5</ele><time>2026-04-19T08:58:00Z</time></trkpt><trkpt lat="38.92211135615629" lon="-9.305183916957814"><ele>211.0</ele><time>2026-04-19T08:58:01Z</time></trkpt><trkpt lat="38.92198301708455" lon="-9.305318285796037"><ele>211.0</ele><time>2026-04-19T08:58:02Z</time></trkpt><trkpt lat="38.9218338375118" lon="-9.30545610382758"><ele>211.0</ele><time>2026-04-19T08:58:03Z</time></trkpt><trkpt lat="38.92168206956147" lon="-9.305592936777396"><ele>211.0</ele><time>2026-04-19T08:58:04Z</time></trkpt><trkpt lat="38.921524238048356" lon="-9.305749894310438"><ele>212.66666666666666</ele><time>2026-04-19T08:58:05Z</time></trkpt><trkpt lat="38.921379376689096" lon="-9.305895517588432"><ele>214.33333333333331</ele><time>2026-04-19T08:58:06Z</time></trkpt><trkpt lat="38.92127891793857" lon="-9.306040496829326"><ele>216.0</ele><time>2026-04-19T08:58:07Z</time></trkpt><trkpt lat="38.92117633706312" lon="-9.306217048617254"><ele>216.0</ele><time>2026-04-19T08:58:08Z</time></trkpt><trkpt lat="38.92106515177057" lon="-9.306424078084062"><ele>216.0</ele><time>2026-04-19T08:58:09Z</time></trkpt><trkpt lat="38.920946334274326" lon="-9.306642805841834"><ele>216.0</ele><time>2026-04-19T08:58:10Z</time></trkpt><trkpt lat="38.92080890057147" lon="-9.306848432559308"><ele>216.0</ele><time>2026-04-19T08:58:11Z</time></trkpt><trkpt lat="38.920673191364116" lon="-9.307058022525544"><ele>216.0</ele><time>2026-04-19T08:58:12Z</time></trkpt><trkpt lat="38.920530220593825" lon="-9.307264093414394"><ele>216.0</ele><time>2026-04-19T08:58:13Z</time></trkpt><trkpt lat="38.92038189340566" lon="-9.30746682738053"><ele>218.33333333333331</ele><time>2026-04-19T08:58:14Z</time></trkpt><trkpt lat="38.92025536443184" lon="-9.307647212447339"><ele>220.66666666666666</ele><time>2026-04-19T08:58:15Z</time></trkpt><trkpt lat="38.92014230641136" lon="-9.30780178217284"><ele>223.0</ele><time>2026-04-19T08:58:16Z</time></trkpt><trkpt lat="38.92003097339197" lon="-9.307935873766894"><ele>223.0</ele><time>2026-04-19T08:58:17Z</time></trkpt><trkpt lat="38.91992203433996" lon="-9.308072669495855"><ele>223.0</ele><time>2026-04-19T08:58:18Z</time></trkpt><trkpt lat="38.91982220336166" lon="-9.308196220642122"><ele>223.0</ele><time>2026-04-19T08:58:19Z</time></trkpt><trkpt lat="38.919738817644586" lon="-9.308328878925634"><ele>223.0</ele><time>2026-04-19T08:58:20Z</time></trkpt><trkpt lat="38.91970449095604" lon="-9.308485965555391"><ele>222.4</ele><time>2026-04-19T08:58:21Z</time></trkpt><trkpt lat="38.919694769430265" lon="-9.30862798917322"><ele>221.8</ele><time>2026-04-19T08:58:22Z</time></trkpt><trkpt lat="38.91971485628845" lon="-9.30875596561419"><ele>221.2</ele><time>2026-04-19T08:58:23Z</time></trkpt><trkpt lat="38.91977465166997" lon="-9.308873271910366"><ele>220.6</ele><time>2026-04-19T08:58:24Z</time></trkpt><trkpt lat="38.9198609307498" lon="-9.30899380678421"><ele>220.0</ele><time>2026-04-19T08:58:25Z</time></trkpt><trkpt lat="38.91994761579478" lon="-9.30911351446747"><ele>220.0</ele><time>2026-04-19T08:58:26Z</time></trkpt><trkpt lat="38.920029475941554" lon="-9.309220621095466"><ele>220.0</ele><time>2026-04-19T08:58:27Z</time></trkpt><trkpt lat="38.92010378824998" lon="-9.309326256222827"><ele>220.0</ele><time>2026-04-19T08:58:28Z</time></trkpt><trkpt lat="38.920198338742736" lon="-9.309412429363864"><ele>220.0</ele><time>2026-04-19T08:58:29Z</time></trkpt><trkpt lat="38.92029071715374" lon="-9.309504454238292"><ele>220.25</ele><time>2026-04-19T08:58:30Z</time></trkpt><trkpt lat="38.920380578551686" lon="-9.309598035076878"><ele>220.5</ele><time>2026-04-19T08:58:31Z</time></trkpt><trkpt lat="38.920477973776954" lon="-9.30968972467299"><ele>220.75</ele><time>2026-04-19T08:58:32Z</time></trkpt><trkpt lat="38.920555465688274" lon="-9.309789018839552"><ele>221.0</ele><time>2026-04-19T08:58:33Z</time></trkpt><trkpt lat="38.92062040472895" lon="-9.309896260277084"><ele>219.20000000000002</ele><time>2026-04-19T08:58:34Z</time></trkpt><trkpt lat="38.92065120756823" lon="-9.310024174207353"><ele>217.40000000000003</ele><time>2026-04-19T08:58:35Z</time></trkpt><trkpt lat="38.92065779697036" lon="-9.310158369632296"><ele>215.6</ele><time>2026-04-19T08:58:36Z</time></trkpt><trkpt lat="38.92065036800094" lon="-9.310287859733222"><ele>213.8</ele><time>2026-04-19T08:58:37Z</time></trkpt><trkpt lat="38.920617554378055" lon="-9.310416201068353"><ele>212.0</ele><time>2026-04-19T08:58:38Z</time></trkpt><trkpt lat="38.920550272197765" lon="-9.310538230870874"><ele>212.25</ele><time>2026-04-19T08:58:39Z</time></trkpt><trkpt lat="38.92045272125686" lon="-9.310644258257671"><ele>212.5</ele><time>2026-04-19T08:58:40Z</time></trkpt><trkpt lat="38.92032693430555" lon="-9.310729885656855"><ele>212.75</ele><time>2026-04-19T08:58:41Z</time></trkpt><trkpt lat="38.92018282504383" lon="-9.310785129568085"><ele>213.0</ele><time>2026-04-19T08:58:42Z</time></trkpt><trkpt lat="38.92001289406247" lon="-9.310812653270085"><ele>210.75</ele><time>2026-04-19T08:58:43Z</time></trkpt><trkpt lat="38.91985703198575" lon="-9.310811655672747"><ele>208.5</ele><time>2026-04-19T08:58:44Z</time></trkpt><trkpt lat="38.91971605356647" lon="-9.310793731933595"><ele>206.25</ele><time>2026-04-19T08:58:45Z</time></trkpt><trkpt lat="38.91957841735246" lon="-9.31078473920653"><ele>204.0</ele><time>2026-04-19T08:58:46Z</time></trkpt><trkpt lat="38.91944388569608" lon="-9.310801047788825"><ele>204.0</ele><time>2026-04-19T08:58:47Z</time></trkpt><trkpt lat="38.91932427190953" lon="-9.310868380845639"><ele>204.0</ele><time>2026-04-19T08:58:48Z</time></trkpt><trkpt lat="38.919215226903724" lon="-9.31095202554242"><ele>204.0</ele><time>2026-04-19T08:58:49Z</time></trkpt><trkpt lat="38.91910740499402" lon="-9.311044597780466"><ele>204.0</ele><time>2026-04-19T08:58:50Z</time></trkpt><trkpt lat="38.91899675093771" lon="-9.311139398858035"><ele>204.5</ele><time>2026-04-19T08:58:51Z</time></trkpt><trkpt lat="38.9188842117291" lon="-9.311232575707734"><ele>205.0</ele><time>2026-04-19T08:58:52Z</time></trkpt><trkpt lat="38.918767742817536" lon="-9.311327840557631"><ele>205.5</ele><time>2026-04-19T08:58:53Z</time></trkpt><trkpt lat="38.91865154524233" lon="-9.311407128359198"><ele>206.0</ele><time>2026-04-19T08:58:54Z</time></trkpt><trkpt lat="38.91855685832121" lon="-9.311518159787703"><ele>206.0</ele><time>2026-04-19T08:58:55Z</time></trkpt><trkpt lat="38.918504791072564" lon="-9.31165840109997"><ele>206.0</ele><time>2026-04-19T08:58:56Z</time></trkpt><trkpt lat="38.91844117881061" lon="-9.311799549415957"><ele>206.0</ele><time>2026-04-19T08:58:57Z</time></trkpt><trkpt lat="38.91837002626867" lon="-9.311957243415641"><ele>206.0</ele><time>2026-04-19T08:58:58Z</time></trkpt><trkpt lat="38.91828479146781" lon="-9.312132262487713"><ele>204.66666666666669</ele><time>2026-04-19T08:58:59Z</time></trkpt><trkpt lat="38.91819681220304" lon="-9.312314943693776"><ele>203.33333333333331</ele><time>2026-04-19T08:59:00Z</time></trkpt><trkpt lat="38.91810739377171" lon="-9.312498646382961"><ele>202.0</ele><time>2026-04-19T08:59:01Z</time></trkpt><trkpt lat="38.91803252873816" lon="-9.312648284446315"><ele>202.0</ele><time>2026-04-19T08:59:02Z</time></trkpt><trkpt lat="38.91796919698593" lon="-9.312778329312987"><ele>202.0</ele><time>2026-04-19T08:59:03Z</time></trkpt><trkpt lat="38.91790770075005" lon="-9.312903862565005"><ele>202.0</ele><time>2026-04-19T08:59:04Z</time></trkpt><trkpt lat="38.91787796289945" lon="-9.313055638109926"><ele>202.0</ele><time>2026-04-19T08:59:05Z</time></trkpt><trkpt lat="38.91785498493821" lon="-9.313222709397639"><ele>202.75</ele><time>2026-04-19T08:59:06Z</time></trkpt><trkpt lat="38.91786485803637" lon="-9.313394389525685"><ele>203.5</ele><time>2026-04-19T08:59:07Z</time></trkpt><trkpt lat="38.917905127441074" lon="-9.313565087396723"><ele>204.25</ele><time>2026-04-19T08:59:08Z</time></trkpt><trkpt lat="38.91795697140465" lon="-9.313754751207679"><ele>205.0</ele><time>2026-04-19T08:59:09Z</time></trkpt><trkpt lat="38.91799182066127" lon="-9.313927055737823"><ele>203.25</ele><time>2026-04-19T08:59:10Z</time></trkpt><trkpt lat="38.91804353610441" lon="-9.314087855489644"><ele>201.5</ele><time>2026-04-19T08:59:11Z</time></trkpt><trkpt lat="38.91809313110713" lon="-9.314256809965864"><ele>199.75</ele><time>2026-04-19T08:59:12Z</time></trkpt><trkpt lat="38.918143433777935" lon="-9.314417052831864"><ele>198.0</ele><time>2026-04-19T08:59:13Z</time></trkpt><trkpt lat="38.9181933040653" lon="-9.31457090698378"><ele>198.0</ele><time>2026-04-19T08:59:14Z</time></trkpt><trkpt lat="38.91823651810698" lon="-9.314726807113011"><ele>198.0</ele><time>2026-04-19T08:59:15Z</time></trkpt><trkpt lat="38.91828099773639" lon="-9.314890427179748"><ele>198.0</ele><time>2026-04-19T08:59:16Z</time></trkpt><trkpt lat="38.918299562383545" lon="-9.315046812660466"><ele>198.0</ele><time>2026-04-19T08:59:17Z</time></trkpt><trkpt lat="38.918287406059456" lon="-9.315208839563587"><ele>197.0</ele><time>2026-04-19T08:59:18Z</time></trkpt><trkpt lat="38.91824292936787" lon="-9.31537020515713"><ele>196.0</ele><time>2026-04-19T08:59:19Z</time></trkpt><trkpt lat="38.91816736945202" lon="-9.315509690793322"><ele>195.0</ele><time>2026-04-19T08:59:20Z</time></trkpt><trkpt lat="38.91807034163346" lon="-9.315613523538406"><ele>194.0</ele><time>2026-04-19T08:59:21Z</time></trkpt><trkpt lat="38.91795161675222" lon="-9.315670919986228"><ele>196.75</ele><time>2026-04-19T08:59:22Z</time></trkpt><trkpt lat="38.917813074769114" lon="-9.31568100452147"><ele>199.5</ele><time>2026-04-19T08:59:23Z</time></trkpt><trkpt lat="38.91766264905787" lon="-9.315679096013005"><ele>202.25</ele><time>2026-04-19T08:59:24Z</time></trkpt><trkpt lat="38.917509195803085" lon="-9.31567929993314"><ele>205.0</ele><time>2026-04-19T08:59:25Z</time></trkpt><trkpt lat="38.917361423547156" lon="-9.315714976470385"><ele>205.66666666666666</ele><time>2026-04-19T08:59:26Z</time></trkpt><trkpt lat="38.917214942414084" lon="-9.315760154316434"><ele>206.33333333333331</ele><time>2026-04-19T08:59:27Z</time></trkpt><trkpt lat="38.91706796284366" lon="-9.315845094027615"><ele>207.0</ele><time>2026-04-19T08:59:28Z</time></trkpt><trkpt lat="38.91693193863846" lon="-9.315948555774792"><ele>207.0</ele><time>2026-04-19T08:59:29Z</time></trkpt><trkpt lat="38.91681595669629" lon="-9.316101197572817"><ele>207.0</ele><time>2026-04-19T08:59:30Z</time></trkpt><trkpt lat="38.91669759902805" lon="-9.31626375486791"><ele>207.0</ele><time>2026-04-19T08:59:31Z</time></trkpt><trkpt lat="38.916587597631" lon="-9.31642496904225"><ele>211.0</ele><time>2026-04-19T08:59:32Z</time></trkpt><trkpt lat="38.916503224215845" lon="-9.316597194534447"><ele>215.0</ele><time>2026-04-19T08:59:33Z</time></trkpt><trkpt lat="38.916443025140154" lon="-9.316776311112815"><ele>219.0</ele><time>2026-04-19T08:59:34Z</time></trkpt><trkpt lat="38.91642682203198" lon="-9.316956451739943"><ele>219.0</ele><time>2026-04-19T08:59:35Z</time></trkpt><trkpt lat="38.91644006422729" lon="-9.317123480686831"><ele>219.0</ele><time>2026-04-19T08:59:36Z</time></trkpt><trkpt lat="38.91649100405038" lon="-9.317314360308272"><ele>219.0</ele><time>2026-04-19T08:59:37Z</time></trkpt><trkpt lat="38.91654305125143" lon="-9.317530252194492"><ele>221.0</ele><time>2026-04-19T08:59:38Z</time></trkpt><trkpt lat="38.91661263831545" lon="-9.317746668473223"><ele>223.0</ele><time>2026-04-19T08:59:39Z</time></trkpt><trkpt lat="38.916683243471915" lon="-9.317980774861995"><ele>225.0</ele><time>2026-04-19T08:59:40Z</time></trkpt><trkpt lat="38.91675662160559" lon="-9.318211105281701"><ele>228.33333333333331</ele><time>2026-04-19T08:59:41Z</time></trkpt><trkpt lat="38.91681035102631" lon="-9.318431993879992"><ele>231.66666666666666</ele><time>2026-04-19T08:59:42Z</time></trkpt><trkpt lat="38.91683872112693" lon="-9.318634531957983"><ele>235.0</ele><time>2026-04-19T08:59:43Z</time></trkpt><trkpt lat="38.91684426039786" lon="-9.318844811583777"><ele>235.66666666666666</ele><time>2026-04-19T08:59:44Z</time></trkpt><trkpt lat="38.916851959422694" lon="-9.319081196271718"><ele>236.33333333333331</ele><time>2026-04-19T08:59:45Z</time></trkpt><trkpt lat="38.91686527228764" lon="-9.319316037693763"><ele>237.0</ele><time>2026-04-19T08:59:46Z</time></trkpt><trkpt lat="38.916871068017805" lon="-9.31952918815878"><ele>237.0</ele><time>2026-04-19T08:59:47Z</time></trkpt><trkpt lat="38.916847468342326" lon="-9.319726111560525"><ele>237.0</ele><time>2026-04-19T08:59:48Z</time></trkpt><trkpt lat="38.91676505785212" lon="-9.319926484450848"><ele>237.0</ele><time>2026-04-19T08:59:49Z</time></trkpt><trkpt lat="38.91666555290925" lon="-9.320157365259469"><ele>234.33333333333331</ele><time>2026-04-19T08:59:50Z</time></trkpt><trkpt lat="38.91656381630132" lon="-9.320412250094286"><ele>231.66666666666666</ele><time>2026-04-19T08:59:51Z</time></trkpt><trkpt lat="38.916465856529555" lon="-9.320673811429813"><ele>229.0</ele><time>2026-04-19T08:59:52Z</time></trkpt><trkpt lat="38.91636693930751" lon="-9.320942974899953"><ele>229.0</ele><time>2026-04-19T08:59:53Z</time></trkpt><trkpt lat="38.91628268476896" lon="-9.321232306972128"><ele>229.0</ele><time>2026-04-19T08:59:54Z</time></trkpt><trkpt lat="38.916214979816345" lon="-9.321528664869367"><ele>229.0</ele><time>2026-04-19T08:59:55Z</time></trkpt><trkpt lat="38.91615142626743" lon="-9.321823703072287"><ele>229.0</ele><time>2026-04-19T08:59:56Z</time></trkpt><trkpt lat="38.91610108336516" lon="-9.322081033686034"><ele>229.0</ele><time>2026-04-19T08:59:57Z</time></trkpt><trkpt lat="38.91605842150365" lon="-9.322281234870548"><ele>228.79999999999998</ele><time>2026-04-19T08:59:58Z</time></trkpt><trkpt lat="38.91602728557989" lon="-9.322441046334404"><ele>228.59999999999997</ele><time>2026-04-19T08:59:59Z</time></trkpt><trkpt lat="38.91604231012134" lon="-9.322562539750736"><ele>228.4</ele><time>2026-04-19T09:00:00Z</time></trkpt><trkpt lat="38.91607763893802" lon="-9.322641637708676"><ele>228.2</ele><time>2026-04-19T09:00:01Z</time></trkpt><trkpt lat="38.91612863089098" lon="-9.322718217989033"><ele>228.0</ele><time>2026-04-19T09:00:03Z</time></trkpt><trkpt lat="38.91628069680283" lon="-9.322618466825842"><ele>228.0</ele><time>2026-04-19T09:00:12Z</time></trkpt><trkpt lat="38.91636313791965" lon="-9.322560190255983"><ele>228.0</ele><time>2026-04-19T09:00:13Z</time></trkpt><trkpt lat="38.91646459195735" lon="-9.322472890403825"><ele>228.0</ele><time>2026-04-19T09:00:14Z</time></trkpt><trkpt lat="38.916565837040714" lon="-9.322392624361433"><ele>228.0</ele><time>2026-04-19T09:00:15Z</time></trkpt><trkpt lat="38.91669040145197" lon="-9.322301121338064"><ele>230.33333333333331</ele><time>2026-04-19T09:00:16Z</time></trkpt><trkpt lat="38.91683910105699" lon="-9.322227786653974"><ele>232.66666666666666</ele><time>2026-04-19T09:00:17Z</time></trkpt><trkpt lat="38.91699830505949" lon="-9.322170157830737"><ele>235.0</ele><time>2026-04-19T09:00:18Z</time></trkpt><trkpt lat="38.917172357237106" lon="-9.322113701037772"><ele>235.0</ele><time>2026-04-19T09:00:19Z</time></trkpt><trkpt lat="38.91738562457881" lon="-9.322099140839834"><ele>235.0</ele><time>2026-04-19T09:00:20Z</time></trkpt><trkpt lat="38.91762031881967" lon="-9.322095584447634"><ele>235.0</ele><time>2026-04-19T09:00:21Z</time></trkpt><trkpt lat="38.91781829535843" lon="-9.32208622018285"><ele>236.33333333333331</ele><time>2026-04-19T09:00:22Z</time></trkpt><trkpt lat="38.91799672338043" lon="-9.322080491106695"><ele>237.66666666666669</ele><time>2026-04-19T09:00:23Z</time></trkpt><trkpt lat="38.91813941176075" lon="-9.322090350263325"><ele>239.0</ele><time>2026-04-19T09:00:24Z</time></trkpt><trkpt lat="38.91826734968845" lon="-9.322126512109044"><ele>239.0</ele><time>2026-04-19T09:00:25Z</time></trkpt><trkpt lat="38.91838964976233" lon="-9.322170987653143"><ele>239.0</ele><time>2026-04-19T09:00:26Z</time></trkpt><trkpt lat="38.91851811417715" lon="-9.322213030949651"><ele>239.0</ele><time>2026-04-19T09:00:27Z</time></trkpt><trkpt lat="38.91863157770397" lon="-9.322264173293448"><ele>239.0</ele><time>2026-04-19T09:00:28Z</time></trkpt><trkpt lat="38.918717613279725" lon="-9.322327311239734"><ele>238.79999999999998</ele><time>2026-04-19T09:00:29Z</time></trkpt><trkpt lat="38.91879307179184" lon="-9.322350875723039"><ele>238.59999999999997</ele><time>2026-04-19T09:00:30Z</time></trkpt><trkpt lat="38.91882582948663" lon="-9.322518478098896"><ele>238.4</ele><time>2026-04-19T09:00:31Z</time></trkpt><trkpt lat="38.918911347352264" lon="-9.322611204087899"><ele>238.2</ele><time>2026-04-19T09:00:32Z</time></trkpt><trkpt lat="38.91898920294888" lon="-9.322731569353838"><ele>238.0</ele><time>2026-04-19T09:00:33Z</time></trkpt><trkpt lat="38.919060014202365" lon="-9.322850651631786"><ele>238.0</ele><time>2026-04-19T09:00:34Z</time></trkpt><trkpt lat="38.919103795414095" lon="-9.323005871851114"><ele>238.0</ele><time>2026-04-19T09:00:35Z</time></trkpt><trkpt lat="38.919144618861274" lon="-9.323183910034935"><ele>238.0</ele><time>2026-04-19T09:00:36Z</time></trkpt><trkpt lat="38.91915680445793" lon="-9.323399398033539"><ele>238.0</ele><time>2026-04-19T09:00:37Z</time></trkpt><trkpt lat="38.919156827960144" lon="-9.323613717141436"><ele>236.0</ele><time>2026-04-19T09:00:38Z</time></trkpt><trkpt lat="38.91915717460346" lon="-9.323850905713048"><ele>234.0</ele><time>2026-04-19T09:00:39Z</time></trkpt><trkpt lat="38.91916205525112" lon="-9.324087682940377"><ele>232.0</ele><time>2026-04-19T09:00:40Z</time></trkpt><trkpt lat="38.919174438479054" lon="-9.324337578586944"><ele>232.0</ele><time>2026-04-19T09:00:41Z</time></trkpt><trkpt lat="38.91915794007395" lon="-9.324556354041855"><ele>232.0</ele><time>2026-04-19T09:00:42Z</time></trkpt><trkpt lat="38.91914603510017" lon="-9.32477648495432"><ele>232.0</ele><time>2026-04-19T09:00:43Z</time></trkpt><trkpt lat="38.919135578463944" lon="-9.324953996934903"><ele>232.0</ele><time>2026-04-19T09:00:44Z</time></trkpt><trkpt lat="38.91913054236171" lon="-9.32514000800726"><ele>232.0</ele><time>2026-04-19T09:00:45Z</time></trkpt><trkpt lat="38.91914664018524" lon="-9.325339877446934"><ele>232.0</ele><time>2026-04-19T09:00:46Z</time></trkpt><trkpt lat="38.91917421165014" lon="-9.325546575658155"><ele>230.5</ele><time>2026-04-19T09:00:47Z</time></trkpt><trkpt lat="38.919222098428" lon="-9.325729568791326"><ele>229.0</ele><time>2026-04-19T09:00:48Z</time></trkpt><trkpt lat="38.9192588403572" lon="-9.325899245002276"><ele>227.5</ele><time>2026-04-19T09:00:49Z</time></trkpt><trkpt lat="38.919298094578686" lon="-9.326053245918704"><ele>226.0</ele><time>2026-04-19T09:00:50Z</time></trkpt><trkpt lat="38.919318232658185" lon="-9.326214889976107"><ele>225.5</ele><time>2026-04-19T09:00:51Z</time></trkpt><trkpt lat="38.91929921386969" lon="-9.326392206157184"><ele>225.0</ele><time>2026-04-19T09:00:52Z</time></trkpt><trkpt lat="38.91925633591621" lon="-9.326559787529053"><ele>224.5</ele><time>2026-04-19T09:00:53Z</time></trkpt><trkpt lat="38.91920652653111" lon="-9.326715980179053"><ele>224.0</ele><time>2026-04-19T09:00:54Z</time></trkpt><trkpt lat="38.91916760117548" lon="-9.326863538830066"><ele>223.79999999999998</ele><time>2026-04-19T09:00:55Z</time></trkpt><trkpt lat="38.91913555828011" lon="-9.327006061210085"><ele>223.59999999999997</ele><time>2026-04-19T09:00:56Z</time></trkpt><trkpt lat="38.91911024903326" lon="-9.327142733420162"><ele>223.4</ele><time>2026-04-19T09:00:57Z</time></trkpt><trkpt lat="38.91908197287992" lon="-9.327268721629888"><ele>223.2</ele><time>2026-04-19T09:00:58Z</time></trkpt><trkpt lat="38.919054075325846" lon="-9.327381477155644"><ele>223.0</ele><time>2026-04-19T09:00:59Z</time></trkpt><trkpt lat="38.91902657174832" lon="-9.327492669273612"><ele>222.8</ele><time>2026-04-19T09:01:00Z</time></trkpt><trkpt lat="38.919004988144714" lon="-9.327614728481288"><ele>222.60000000000002</ele><time>2026-04-19T09:01:01Z</time></trkpt><trkpt lat="38.9189948271682" lon="-9.327743436774313"><ele>222.39999999999998</ele><time>2026-04-19T09:01:02Z</time></trkpt><trkpt lat="38.91899993370549" lon="-9.32788454094282"><ele>222.2</ele><time>2026-04-19T09:01:03Z</time></trkpt><trkpt lat="38.918988917484256" lon="-9.328036221009517"><ele>222.0</ele><time>2026-04-19T09:01:04Z</time></trkpt><trkpt lat="38.91895912982983" lon="-9.32819508935637"><ele>221.39999999999998</ele><time>2026-04-19T09:01:05Z</time></trkpt><trkpt lat="38.91892747270245" lon="-9.328348817786022"><ele>220.79999999999998</ele><time>2026-04-19T09:01:06Z</time></trkpt><trkpt lat="38.918905265945426" lon="-9.3284857546648"><ele>220.2</ele><time>2026-04-19T09:01:07Z</time></trkpt><trkpt lat="38.9189126053972" lon="-9.328619542794755"><ele>219.6</ele><time>2026-04-19T09:01:08Z</time></trkpt><trkpt lat="38.918923215060985" lon="-9.328754475493264"><ele>219.0</ele><time>2026-04-19T09:01:09Z</time></trkpt><trkpt lat="38.91892505125231" lon="-9.328854746326588"><ele>218.6</ele><time>2026-04-19T09:01:10Z</time></trkpt><trkpt lat="38.918923724207005" lon="-9.328961445376947"><ele>218.2</ele><time>2026-04-19T09:01:11Z</time></trkpt><trkpt lat="38.918905175600386" lon="-9.32905169159575"><ele>217.79999999999998</ele><time>2026-04-19T09:01:12Z</time></trkpt><trkpt lat="38.91889288817478" lon="-9.329153488409656"><ele>217.39999999999998</ele><time>2026-04-19T09:01:13Z</time></trkpt><trkpt lat="38.91886012256418" lon="-9.32928753503317"><ele>217.0</ele><time>2026-04-19T09:01:14Z</time></trkpt><trkpt lat="38.91883383482469" lon="-9.329457294126364"><ele>217.0</ele><time>2026-04-19T09:01:15Z</time></trkpt><trkpt lat="38.91879948038486" lon="-9.32962277107033"><ele>217.0</ele><time>2026-04-19T09:01:16Z</time></trkpt><trkpt lat="38.91877632294584" lon="-9.329784821816467"><ele>217.0</ele><time>2026-04-19T09:01:17Z</time></trkpt><trkpt lat="38.91876027449633" lon="-9.329923594655456"><ele>217.0</ele><time>2026-04-19T09:01:18Z</time></trkpt><trkpt lat="38.918754083683766" lon="-9.330021239460574"><ele>217.0</ele><time>2026-04-19T09:01:19Z</time></trkpt><trkpt lat="38.91876121414889" lon="-9.3301082663372"><ele>216.0</ele><time>2026-04-19T09:01:20Z</time></trkpt><trkpt lat="38.9187095630249" lon="-9.330248939512588"><ele>215.0</ele><time>2026-04-19T09:01:22Z</time></trkpt><trkpt lat="38.91847762231648" lon="-9.330187763659563"><ele>214.0</ele><time>2026-04-19T09:01:24Z</time></trkpt><trkpt lat="38.918371821682534" lon="-9.330116575239431"><ele>213.5</ele><time>2026-04-19T09:01:25Z</time></trkpt><trkpt lat="38.91825435475618" lon="-9.3300482527151"><ele>213.0</ele><time>2026-04-19T09:01:26Z</time></trkpt><trkpt lat="38.91811469552212" lon="-9.330008970475294"><ele>212.5</ele><time>2026-04-19T09:01:27Z</time></trkpt><trkpt lat="38.91798387599233" lon="-9.329978053925965"><ele>212.0</ele><time>2026-04-19T09:01:28Z</time></trkpt><trkpt lat="38.917852960079315" lon="-9.329956726382589"><ele>212.0</ele><time>2026-04-19T09:01:29Z</time></trkpt><trkpt lat="38.917735392187865" lon="-9.32995080883817"><ele>212.0</ele><time>2026-04-19T09:01:30Z</time></trkpt><trkpt lat="38.91762470274491" lon="-9.329947807562368"><ele>212.0</ele><time>2026-04-19T09:01:31Z</time></trkpt><trkpt lat="38.91750090747224" lon="-9.329947966945808"><ele>212.0</ele><time>2026-04-19T09:01:32Z</time></trkpt><trkpt lat="38.91736105335594" lon="-9.32994472865368"><ele>210.25</ele><time>2026-04-19T09:01:33Z</time></trkpt><trkpt lat="38.917209148392985" lon="-9.329924327254536"><ele>208.5</ele><time>2026-04-19T09:01:34Z</time></trkpt><trkpt lat="38.91706669818056" lon="-9.32990489977922"><ele>206.75</ele><time>2026-04-19T09:01:35Z</time></trkpt><trkpt lat="38.91694204024241" lon="-9.329884006555224"><ele>205.0</ele><time>2026-04-19T09:01:36Z</time></trkpt><trkpt lat="38.9168213853868" lon="-9.32986370807193"><ele>203.75</ele><time>2026-04-19T09:01:37Z</time></trkpt><trkpt lat="38.91671171646666" lon="-9.329869621945928"><ele>202.5</ele><time>2026-04-19T09:01:38Z</time></trkpt><trkpt lat="38.916609415423" lon="-9.329913296259821"><ele>201.25</ele><time>2026-04-19T09:01:39Z</time></trkpt><trkpt lat="38.91649848473321" lon="-9.329994974676877"><ele>200.0</ele><time>2026-04-19T09:01:40Z</time></trkpt><trkpt lat="38.916387681896914" lon="-9.330064139349625"><ele>200.0</ele><time>2026-04-19T09:01:41Z</time></trkpt><trkpt lat="38.91625990362248" lon="-9.330068863147822"><ele>200.0</ele><time>2026-04-19T09:01:42Z</time></trkpt><trkpt lat="38.91612483924439" lon="-9.330040270635903"><ele>200.0</ele><time>2026-04-19T09:01:43Z</time></trkpt><trkpt lat="38.91599864923489" lon="-9.330016788268225"><ele>200.0</ele><time>2026-04-19T09:01:44Z</time></trkpt><trkpt lat="38.91587018452129" lon="-9.329980995281575"><ele>199.2</ele><time>2026-04-19T09:01:45Z</time></trkpt><trkpt lat="38.91574832720464" lon="-9.32994836237486"><ele>198.4</ele><time>2026-04-19T09:01:46Z</time></trkpt><trkpt lat="38.91563369915388" lon="-9.329924947774497"><ele>197.60000000000002</ele><time>2026-04-19T09:01:47Z</time></trkpt><trkpt lat="38.91553035791089" lon="-9.329889147573475"><ele>196.8</ele><time>2026-04-19T09:01:48Z</time></trkpt><trkpt lat="38.91544100599892" lon="-9.329856745295375"><ele>196.0</ele><time>2026-04-19T09:01:49Z</time></trkpt><trkpt lat="38.91535545063328" lon="-9.329839809552984"><ele>196.0</ele><time>2026-04-19T09:01:50Z</time></trkpt><trkpt lat="38.91529116384353" lon="-9.329877185234139"><ele>196.0</ele><time>2026-04-19T09:01:51Z</time></trkpt><trkpt lat="38.91524395765838" lon="-9.329983030744268"><ele>196.0</ele><time>2026-04-19T09:01:52Z</time></trkpt><trkpt lat="38.915228905574416" lon="-9.330092347879788"><ele>196.0</ele><time>2026-04-19T09:01:53Z</time></trkpt><trkpt lat="38.91524071127779" lon="-9.330190533429226"><ele>196.0</ele><time>2026-04-19T09:01:54Z</time></trkpt><trkpt lat="38.91525776574073" lon="-9.330344984846453"><ele>196.0</ele><time>2026-04-19T09:01:56Z</time></trkpt><trkpt lat="38.91528801792752" lon="-9.330452665365977"><ele>196.0</ele><time>2026-04-19T09:01:57Z</time></trkpt><trkpt lat="38.915348104979444" lon="-9.330564075889885"><ele>196.0</ele><time>2026-04-19T09:01:58Z</time></trkpt><trkpt lat="38.91541676450068" lon="-9.330679029501589"><ele>196.0</ele><time>2026-04-19T09:01:59Z</time></trkpt><trkpt lat="38.91549114474898" lon="-9.33078236992937"><ele>196.0</ele><time>2026-04-19T09:02:00Z</time></trkpt><trkpt lat="38.9155371845388" lon="-9.330875257244783"><ele>196.0</ele><time>2026-04-19T09:02:01Z</time></trkpt><trkpt lat="38.91550851844499" lon="-9.330965673132681"><ele>196.0</ele><time>2026-04-19T09:02:02Z</time></trkpt><trkpt lat="38.91544220495326" lon="-9.33103143649573"><ele>196.0</ele><time>2026-04-19T09:02:03Z</time></trkpt><trkpt lat="38.91536863483682" lon="-9.331078835035946"><ele>196.0</ele><time>2026-04-19T09:02:04Z</time></trkpt><trkpt lat="38.915242928725256" lon="-9.331005244755922"><ele>196.0</ele><time>2026-04-19T09:02:05Z</time></trkpt><trkpt lat="38.91512784282924" lon="-9.330800150046832"><ele>196.0</ele><time>2026-04-19T09:02:08Z</time></trkpt><trkpt lat="38.91508986151465" lon="-9.330682053898464"><ele>196.0</ele><time>2026-04-19T09:02:09Z</time></trkpt><trkpt lat="38.91505229854839" lon="-9.33057859317096"><ele>196.0</ele><time>2026-04-19T09:02:10Z</time></trkpt><trkpt lat="38.9150003394985" lon="-9.330434972461827"><ele>196.0</ele><time>2026-04-19T09:02:11Z</time></trkpt><trkpt lat="38.914932266249465" lon="-9.330292756839798"><ele>196.0</ele><time>2026-04-19T09:02:12Z</time></trkpt><trkpt lat="38.91482147689606" lon="-9.330158573812058"><ele>198.0</ele><time>2026-04-19T09:02:13Z</time></trkpt><trkpt lat="38.914686673755384" lon="-9.330049361629492"><ele>200.0</ele><time>2026-04-19T09:02:14Z</time></trkpt><trkpt lat="38.91453442841445" lon="-9.329950657757095"><ele>202.0</ele><time>2026-04-19T09:02:15Z</time></trkpt><trkpt lat="38.9143733717637" lon="-9.329850604842017"><ele>205.0</ele><time>2026-04-19T09:02:16Z</time></trkpt><trkpt lat="38.914207448675214" lon="-9.329741646380878"><ele>208.0</ele><time>2026-04-19T09:02:17Z</time></trkpt><trkpt lat="38.914034341017285" lon="-9.329638811207868"><ele>211.0</ele><time>2026-04-19T09:02:18Z</time></trkpt><trkpt lat="38.91386213103535" lon="-9.329538268121974"><ele>212.0</ele><time>2026-04-19T09:02:19Z</time></trkpt><trkpt lat="38.91369419555237" lon="-9.32944918060254"><ele>213.0</ele><time>2026-04-19T09:02:20Z</time></trkpt><trkpt lat="38.913549551365946" lon="-9.32938429669955"><ele>214.0</ele><time>2026-04-19T09:02:21Z</time></trkpt><trkpt lat="38.91344074270725" lon="-9.329311276739794"><ele>214.49999999999997</ele><time>2026-04-19T09:02:22Z</time></trkpt><trkpt lat="38.91335553868195" lon="-9.329254097426015"><ele>215.0</ele><time>2026-04-19T09:02:23Z</time></trkpt><trkpt lat="38.913294879456366" lon="-9.329214342734572"><ele>215.5</ele><time>2026-04-19T09:02:24Z</time></trkpt><trkpt lat="38.91322152312036" lon="-9.329164926054842"><ele>216.0</ele><time>2026-04-19T09:02:26Z</time></trkpt><trkpt lat="38.91317834498582" lon="-9.329230068764417"><ele>216.49999999999997</ele><time>2026-04-19T09:02:34Z</time></trkpt><trkpt lat="38.913140344325384" lon="-9.329305271525389"><ele>217.0</ele><time>2026-04-19T09:02:35Z</time></trkpt><trkpt lat="38.91308771664698" lon="-9.32941782548985"><ele>217.0</ele><time>2026-04-19T09:02:36Z</time></trkpt><trkpt lat="38.913027181631946" lon="-9.32954066125155"><ele>217.0</ele><time>2026-04-19T09:02:37Z</time></trkpt><trkpt lat="38.912953031917404" lon="-9.329676019366172"><ele>217.0</ele><time>2026-04-19T09:02:38Z</time></trkpt><trkpt lat="38.91286727869739" lon="-9.329822768915733"><ele>217.0</ele><time>2026-04-19T09:02:39Z</time></trkpt><trkpt lat="38.91276912158452" lon="-9.329994500059414"><ele>216.66666666666666</ele><time>2026-04-19T09:02:40Z</time></trkpt><trkpt lat="38.91266931407087" lon="-9.33019671751205"><ele>216.33333333333331</ele><time>2026-04-19T09:02:41Z</time></trkpt><trkpt lat="38.912559591060315" lon="-9.330378516239294"><ele>216.0</ele><time>2026-04-19T09:02:42Z</time></trkpt><trkpt lat="38.91246084491418" lon="-9.33058566810918"><ele>215.33333333333331</ele><time>2026-04-19T09:02:43Z</time></trkpt><trkpt lat="38.91235857871653" lon="-9.330800760013448"><ele>214.66666666666666</ele><time>2026-04-19T09:02:44Z</time></trkpt><trkpt lat="38.91227556756165" lon="-9.331019467816992"><ele>214.0</ele><time>2026-04-19T09:02:45Z</time></trkpt><trkpt lat="38.912217234027004" lon="-9.33125970954465"><ele>213.0</ele><time>2026-04-19T09:02:46Z</time></trkpt><trkpt lat="38.91216083988112" lon="-9.331487027897188"><ele>212.0</ele><time>2026-04-19T09:02:47Z</time></trkpt><trkpt lat="38.912101389238224" lon="-9.33169080106414"><ele>211.0</ele><time>2026-04-19T09:02:48Z</time></trkpt><trkpt lat="38.91202389345754" lon="-9.3318651402997"><ele>211.0</ele><time>2026-04-19T09:02:49Z</time></trkpt><trkpt lat="38.91193169365424" lon="-9.332004934943573"><ele>211.0</ele><time>2026-04-19T09:02:50Z</time></trkpt><trkpt lat="38.91182687132389" lon="-9.332144081372599"><ele>211.0</ele><time>2026-04-19T09:02:51Z</time></trkpt><trkpt lat="38.91170303807099" lon="-9.332263828352072"><ele>211.0</ele><time>2026-04-19T09:02:52Z</time></trkpt><trkpt lat="38.91157849690907" lon="-9.332346551366896"><ele>210.5</ele><time>2026-04-19T09:02:53Z</time></trkpt><trkpt lat="38.91144218829424" lon="-9.332401107498955"><ele>210.0</ele><time>2026-04-19T09:02:54Z</time></trkpt><trkpt lat="38.91130371859576" lon="-9.332432878177407"><ele>209.5</ele><time>2026-04-19T09:02:55Z</time></trkpt><trkpt lat="38.91115510156671" lon="-9.332465901847604"><ele>209.0</ele><time>2026-04-19T09:02:56Z</time></trkpt><trkpt lat="38.91099829572978" lon="-9.332504717459353"><ele>208.66666666666669</ele><time>2026-04-19T09:02:57Z</time></trkpt><trkpt lat="38.91085749388902" lon="-9.332570512397073"><ele>208.33333333333331</ele><time>2026-04-19T09:02:58Z</time></trkpt><trkpt lat="38.91071951847782" lon="-9.332702832888216"><ele>208.0</ele><time>2026-04-19T09:02:59Z</time></trkpt><trkpt lat="38.91057332492077" lon="-9.332855114883465"><ele>208.0</ele><time>2026-04-19T09:03:00Z</time></trkpt><trkpt lat="38.91045090039672" lon="-9.333031176007541"><ele>208.0</ele><time>2026-04-19T09:03:01Z</time></trkpt><trkpt lat="38.9103415285579" lon="-9.333237605527327"><ele>208.0</ele><time>2026-04-19T09:03:02Z</time></trkpt><trkpt lat="38.910226190609755" lon="-9.333446970644076"><ele>207.33333333333331</ele><time>2026-04-19T09:03:03Z</time></trkpt><trkpt lat="38.91011132475373" lon="-9.333655478814883"><ele>206.66666666666669</ele><time>2026-04-19T09:03:04Z</time></trkpt><trkpt lat="38.90999192363884" lon="-9.333845722659616"><ele>206.0</ele><time>2026-04-19T09:03:05Z</time></trkpt><trkpt lat="38.90989441002092" lon="-9.334035988616035"><ele>204.66666666666669</ele><time>2026-04-19T09:03:06Z</time></trkpt><trkpt lat="38.90979496432754" lon="-9.334210506837122"><ele>203.33333333333331</ele><time>2026-04-19T09:03:07Z</time></trkpt><trkpt lat="38.90969592743583" lon="-9.334391117176542"><ele>202.0</ele><time>2026-04-19T09:03:08Z</time></trkpt><trkpt lat="38.90960073899805" lon="-9.334567379255175"><ele>200.0</ele><time>2026-04-19T09:03:09Z</time></trkpt><trkpt lat="38.909498740802896" lon="-9.334757521537849"><ele>198.0</ele><time>2026-04-19T09:03:10Z</time></trkpt><trkpt lat="38.90940003907187" lon="-9.33494477291136"><ele>196.0</ele><time>2026-04-19T09:03:11Z</time></trkpt><trkpt lat="38.909296624267334" lon="-9.335131906357276"><ele>197.0</ele><time>2026-04-19T09:03:12Z</time></trkpt><trkpt lat="38.909195930581554" lon="-9.335308785956585"><ele>198.0</ele><time>2026-04-19T09:03:13Z</time></trkpt><trkpt lat="38.909095128116725" lon="-9.33548292917325"><ele>199.0</ele><time>2026-04-19T09:03:14Z</time></trkpt><trkpt lat="38.90900668166982" lon="-9.335652121398674"><ele>199.0</ele><time>2026-04-19T09:03:15Z</time></trkpt><trkpt lat="38.908956518769834" lon="-9.335830608311417"><ele>199.0</ele><time>2026-04-19T09:03:16Z</time></trkpt><trkpt lat="38.908922393706554" lon="-9.33599714514378"><ele>199.0</ele><time>2026-04-19T09:03:17Z</time></trkpt><trkpt lat="38.908923324250274" lon="-9.33617090877653"><ele>199.0</ele><time>2026-04-19T09:03:18Z</time></trkpt><trkpt lat="38.90893692025026" lon="-9.336355234759928"><ele>197.66666666666666</ele><time>2026-04-19T09:03:19Z</time></trkpt><trkpt lat="38.908944405370185" lon="-9.336551249933391"><ele>196.33333333333331</ele><time>2026-04-19T09:03:20Z</time></trkpt><trkpt lat="38.90897887009573" lon="-9.33675032824275"><ele>195.0</ele><time>2026-04-19T09:03:21Z</time></trkpt><trkpt lat="38.90900824874661" lon="-9.336963423357794"><ele>195.0</ele><time>2026-04-19T09:03:22Z</time></trkpt><trkpt lat="38.909040582455795" lon="-9.337177400747363"><ele>195.0</ele><time>2026-04-19T09:03:23Z</time></trkpt><trkpt lat="38.90906477296318" lon="-9.33738322175624"><ele>195.0</ele><time>2026-04-19T09:03:24Z</time></trkpt><trkpt lat="38.909081677624535" lon="-9.337579484555608"><ele>194.0</ele><time>2026-04-19T09:03:25Z</time></trkpt><trkpt lat="38.90910104083315" lon="-9.337763137043726"><ele>193.0</ele><time>2026-04-19T09:03:26Z</time></trkpt><trkpt lat="38.909120525604955" lon="-9.3379356388327"><ele>192.0</ele><time>2026-04-19T09:03:27Z</time></trkpt><trkpt lat="38.90914395686237" lon="-9.338099569458272"><ele>191.0</ele><time>2026-04-19T09:03:28Z</time></trkpt><trkpt lat="38.90917099908905" lon="-9.338263747616159"><ele>190.0</ele><time>2026-04-19T09:03:29Z</time></trkpt><trkpt lat="38.909199210376514" lon="-9.338436531821014"><ele>189.0</ele><time>2026-04-19T09:03:30Z</time></trkpt><trkpt lat="38.90921916871192" lon="-9.338603778744638"><ele>188.0</ele><time>2026-04-19T09:03:31Z</time></trkpt><trkpt lat="38.90923334000675" lon="-9.338760881835574"><ele>187.0</ele><time>2026-04-19T09:03:32Z</time></trkpt><trkpt lat="38.90923610742027" lon="-9.33890965047204"><ele>186.25</ele><time>2026-04-19T09:03:33Z</time></trkpt><trkpt lat="38.90921880638492" lon="-9.339065054482935"><ele>185.5</ele><time>2026-04-19T09:03:34Z</time></trkpt><trkpt lat="38.90917592295666" lon="-9.339238023647315"><ele>184.75</ele><time>2026-04-19T09:03:35Z</time></trkpt><trkpt lat="38.909127733116485" lon="-9.33941803703819"><ele>184.0</ele><time>2026-04-19T09:03:36Z</time></trkpt><trkpt lat="38.90908089439318" lon="-9.339605895126196"><ele>182.75</ele><time>2026-04-19T09:03:37Z</time></trkpt><trkpt lat="38.90903709973966" lon="-9.339795798212865"><ele>181.5</ele><time>2026-04-19T09:03:38Z</time></trkpt><trkpt lat="38.90899557752263" lon="-9.339965765228587"><ele>180.25</ele><time>2026-04-19T09:03:39Z</time></trkpt><trkpt lat="38.90895956420414" lon="-9.340124283259641"><ele>179.0</ele><time>2026-04-19T09:03:40Z</time></trkpt><trkpt lat="38.908926241234134" lon="-9.340277505852663"><ele>179.0</ele><time>2026-04-19T09:03:41Z</time></trkpt><trkpt lat="38.90890503859228" lon="-9.340443220786986"><ele>179.0</ele><time>2026-04-19T09:03:42Z</time></trkpt><trkpt lat="38.90891057730199" lon="-9.34062192012108"><ele>179.0</ele><time>2026-04-19T09:03:43Z</time></trkpt><trkpt lat="38.908930219215755" lon="-9.34080820741879"><ele>179.0</ele><time>2026-04-19T09:03:44Z</time></trkpt><trkpt lat="38.9089554840063" lon="-9.341001692724415"><ele>178.0</ele><time>2026-04-19T09:03:45Z</time></trkpt><trkpt lat="38.90898125815381" lon="-9.341181816382095"><ele>177.0</ele><time>2026-04-19T09:03:46Z</time></trkpt><trkpt lat="38.90901215074669" lon="-9.341351941977516"><ele>176.0</ele><time>2026-04-19T09:03:47Z</time></trkpt><trkpt lat="38.90905425794269" lon="-9.341514499290492"><ele>175.0</ele><time>2026-04-19T09:03:48Z</time></trkpt><trkpt lat="38.909096936468984" lon="-9.341668883773945"><ele>173.5</ele><time>2026-04-19T09:03:49Z</time></trkpt><trkpt lat="38.90913440044354" lon="-9.341826013200167"><ele>172.0</ele><time>2026-04-19T09:03:50Z</time></trkpt><trkpt lat="38.909178680816424" lon="-9.34200604333651"><ele>170.5</ele><time>2026-04-19T09:03:51Z</time></trkpt><trkpt lat="38.909226467219526" lon="-9.34218601537546"><ele>169.0</ele><time>2026-04-19T09:03:52Z</time></trkpt><trkpt lat="38.90926414294246" lon="-9.34235662705688"><ele>162.25</ele><time>2026-04-19T09:03:53Z</time></trkpt><trkpt lat="38.90929503628772" lon="-9.342522972492084"><ele>155.5</ele><time>2026-04-19T09:03:54Z</time></trkpt><trkpt lat="38.9093117061364" lon="-9.342708840355446"><ele>148.75</ele><time>2026-04-19T09:03:55Z</time></trkpt><trkpt lat="38.909304401821835" lon="-9.34290773433064"><ele>142.0</ele><time>2026-04-19T09:03:56Z</time></trkpt><trkpt lat="38.90927873898282" lon="-9.343097199907904"><ele>139.75</ele><time>2026-04-19T09:03:57Z</time></trkpt><trkpt lat="38.909255158521994" lon="-9.343277301838052"><ele>137.5</ele><time>2026-04-19T09:03:58Z</time></trkpt><trkpt lat="38.90923013280389" lon="-9.34345301634353"><ele>135.25</ele><time>2026-04-19T09:03:59Z</time></trkpt><trkpt lat="38.9092093768387" lon="-9.343637494772866"><ele>133.0</ele><time>2026-04-19T09:04:00Z</time></trkpt><trkpt lat="38.90918714640118" lon="-9.343819024997808"><ele>137.5</ele><time>2026-04-19T09:04:01Z</time></trkpt><trkpt lat="38.90915968580144" lon="-9.343987006032568"><ele>142.0</ele><time>2026-04-19T09:04:02Z</time></trkpt><trkpt lat="38.90913853849713" lon="-9.344157057241"><ele>146.5</ele><time>2026-04-19T09:04:03Z</time></trkpt><trkpt lat="38.909122759331176" lon="-9.344333614201302"><ele>151.0</ele><time>2026-04-19T09:04:04Z</time></trkpt><trkpt lat="38.90911013224511" lon="-9.344515230327382"><ele>151.0</ele><time>2026-04-19T09:04:05Z</time></trkpt><trkpt lat="38.90909837797608" lon="-9.34469574941649"><ele>151.0</ele><time>2026-04-19T09:04:06Z</time></trkpt><trkpt lat="38.909092523242116" lon="-9.344865438587938"><ele>151.0</ele><time>2026-04-19T09:04:07Z</time></trkpt><trkpt lat="38.909090520448025" lon="-9.345028176805107"><ele>151.0</ele><time>2026-04-19T09:04:08Z</time></trkpt><trkpt lat="38.90908193167692" lon="-9.345198593411085"><ele>149.5</ele><time>2026-04-19T09:04:09Z</time></trkpt><trkpt lat="38.90907412849311" lon="-9.345369993197009"><ele>148.0</ele><time>2026-04-19T09:04:10Z</time></trkpt><trkpt lat="38.90907172355231" lon="-9.345535590118077"><ele>146.5</ele><time>2026-04-19T09:04:11Z</time></trkpt><trkpt lat="38.90906407571699" lon="-9.345707451114182"><ele>145.0</ele><time>2026-04-19T09:04:12Z</time></trkpt><trkpt lat="38.9090642313633" lon="-9.345881681237158"><ele>143.5</ele><time>2026-04-19T09:04:13Z</time></trkpt><trkpt lat="38.909065444789384" lon="-9.346063622027172"><ele>142.0</ele><time>2026-04-19T09:04:14Z</time></trkpt><trkpt lat="38.90905867110147" lon="-9.346258605294928"><ele>140.5</ele><time>2026-04-19T09:04:15Z</time></trkpt><trkpt lat="38.90904728588718" lon="-9.346453486758362"><ele>139.0</ele><time>2026-04-19T09:04:16Z</time></trkpt><trkpt lat="38.90903715897939" lon="-9.346650145845345"><ele>136.33333333333334</ele><time>2026-04-19T09:04:17Z</time></trkpt><trkpt lat="38.909030222650756" lon="-9.34686625078027"><ele>133.66666666666666</ele><time>2026-04-19T09:04:18Z</time></trkpt><trkpt lat="38.90902519133929" lon="-9.347089745748386"><ele>131.0</ele><time>2026-04-19T09:04:19Z</time></trkpt><trkpt lat="38.909018648254246" lon="-9.347296575083169"><ele>130.66666666666666</ele><time>2026-04-19T09:04:20Z</time></trkpt><trkpt lat="38.909026154352155" lon="-9.34750430447468"><ele>130.33333333333334</ele><time>2026-04-19T09:04:21Z</time></trkpt><trkpt lat="38.90903707377976" lon="-9.347707106177952"><ele>130.0</ele><time>2026-04-19T09:04:22Z</time></trkpt><trkpt lat="38.90905050413167" lon="-9.347915496383775"><ele>130.33333333333334</ele><time>2026-04-19T09:04:23Z</time></trkpt><trkpt lat="38.90907082234611" lon="-9.348114671087474"><ele>130.66666666666666</ele><time>2026-04-19T09:04:24Z</time></trkpt><trkpt lat="38.909084635273146" lon="-9.34830454044486"><ele>131.0</ele><time>2026-04-19T09:04:25Z</time></trkpt><trkpt lat="38.90910410607091" lon="-9.348489706999793"><ele>131.0</ele><time>2026-04-19T09:04:26Z</time></trkpt><trkpt lat="38.909137525640176" lon="-9.348667928153908"><ele>131.0</ele><time>2026-04-19T09:04:27Z</time></trkpt><trkpt lat="38.9091816679733" lon="-9.348834421084646"><ele>131.0</ele><time>2026-04-19T09:04:28Z</time></trkpt><trkpt lat="38.909214857364965" lon="-9.349007100459206"><ele>131.0</ele><time>2026-04-19T09:04:29Z</time></trkpt><trkpt lat="38.90922193894261" lon="-9.3491865216997"><ele>131.5</ele><time>2026-04-19T09:04:30Z</time></trkpt><trkpt lat="38.909209941149484" lon="-9.349369742099823"><ele>132.0</ele><time>2026-04-19T09:04:31Z</time></trkpt><trkpt lat="38.90917414048855" lon="-9.349556040923222"><ele>132.5</ele><time>2026-04-19T09:04:32Z</time></trkpt><trkpt lat="38.90910972428008" lon="-9.349730762722595"><ele>133.0</ele><time>2026-04-19T09:04:33Z</time></trkpt><trkpt lat="38.909033074739504" lon="-9.34990718523476"><ele>133.0</ele><time>2026-04-19T09:04:34Z</time></trkpt><trkpt lat="38.908945857458754" lon="-9.35008132829031"><ele>133.0</ele><time>2026-04-19T09:04:35Z</time></trkpt><trkpt lat="38.9088506498104" lon="-9.350245105316294"><ele>133.0</ele><time>2026-04-19T09:04:36Z</time></trkpt><trkpt lat="38.90875033870206" lon="-9.350393468084862"><ele>133.0</ele><time>2026-04-19T09:04:37Z</time></trkpt><trkpt lat="38.908645183456336" lon="-9.350523663539688"><ele>133.0</ele><time>2026-04-19T09:04:38Z</time></trkpt><trkpt lat="38.908521428097664" lon="-9.35065306788162"><ele>133.0</ele><time>2026-04-19T09:04:39Z</time></trkpt><trkpt lat="38.9083838096454" lon="-9.350789132143483"><ele>132.0</ele><time>2026-04-19T09:04:40Z</time></trkpt><trkpt lat="38.908242255012105" lon="-9.350926038710854"><ele>131.0</ele><time>2026-04-19T09:04:41Z</time></trkpt><trkpt lat="38.90811271281705" lon="-9.35104929493909"><ele>130.0</ele><time>2026-04-19T09:04:42Z</time></trkpt><trkpt lat="38.9079924814437" lon="-9.351161439800496"><ele>130.0</ele><time>2026-04-19T09:04:43Z</time></trkpt><trkpt lat="38.90787947772896" lon="-9.351261585038644"><ele>130.0</ele><time>2026-04-19T09:04:44Z</time></trkpt><trkpt lat="38.90777852497635" lon="-9.351363272184521"><ele>130.0</ele><time>2026-04-19T09:04:45Z</time></trkpt><trkpt lat="38.90768303116366" lon="-9.3514669328191"><ele>130.0</ele><time>2026-04-19T09:04:46Z</time></trkpt><trkpt lat="38.90759059760732" lon="-9.35155650659146"><ele>128.25</ele><time>2026-04-19T09:04:47Z</time></trkpt><trkpt lat="38.90749616328718" lon="-9.351646338145848"><ele>126.5</ele><time>2026-04-19T09:04:48Z</time></trkpt><trkpt lat="38.90739613220238" lon="-9.351753621773739"><ele>124.75</ele><time>2026-04-19T09:04:49Z</time></trkpt><trkpt lat="38.907288210384685" lon="-9.351861276498374"><ele>123.0</ele><time>2026-04-19T09:04:50Z</time></trkpt><trkpt lat="38.90717733556822" lon="-9.351964324707014"><ele>123.0</ele><time>2026-04-19T09:04:51Z</time></trkpt><trkpt lat="38.90705877081738" lon="-9.352058270534316"><ele>123.0</ele><time>2026-04-19T09:04:52Z</time></trkpt><trkpt lat="38.90694352169221" lon="-9.352146607931957"><ele>123.0</ele><time>2026-04-19T09:04:53Z</time></trkpt><trkpt lat="38.90686346181321" lon="-9.352187837767032"><ele>123.0</ele><time>2026-04-19T09:04:54Z</time></trkpt><trkpt lat="38.90673802641828" lon="-9.35229075898699"><ele>121.75</ele><time>2026-04-19T09:04:55Z</time></trkpt><trkpt lat="38.90661769354043" lon="-9.352367626093365"><ele>120.5</ele><time>2026-04-19T09:04:56Z</time></trkpt><trkpt lat="38.9064942856128" lon="-9.352447933782527"><ele>119.25</ele><time>2026-04-19T09:04:57Z</time></trkpt><trkpt lat="38.90636971083144" lon="-9.352533238187615"><ele>118.0</ele><time>2026-04-19T09:04:58Z</time></trkpt><trkpt lat="38.906249181923364" lon="-9.352618171466304"><ele>118.0</ele><time>2026-04-19T09:04:59Z</time></trkpt><trkpt lat="38.90612971007975" lon="-9.352701624210754"><ele>118.0</ele><time>2026-04-19T09:05:00Z</time></trkpt><trkpt lat="38.90602221727471" lon="-9.352784945623926"><ele>118.0</ele><time>2026-04-19T09:05:01Z</time></trkpt><trkpt lat="38.90589731148403" lon="-9.35286959997355"><ele>118.0</ele><time>2026-04-19T09:05:02Z</time></trkpt><trkpt lat="38.90578495681558" lon="-9.352951873411175"><ele>116.25</ele><time>2026-04-19T09:05:03Z</time></trkpt><trkpt lat="38.905676509692" lon="-9.353026788685796"><ele>114.5</ele><time>2026-04-19T09:05:04Z</time></trkpt><trkpt lat="38.905571803211814" lon="-9.353097075932107"><ele>112.75</ele><time>2026-04-19T09:05:05Z</time></trkpt><trkpt lat="38.90546818122874" lon="-9.353155032459755"><ele>111.0</ele><time>2026-04-19T09:05:06Z</time></trkpt><trkpt lat="38.90537057011883" lon="-9.35323604413326"><ele>111.0</ele><time>2026-04-19T09:05:07Z</time></trkpt><trkpt lat="38.90527084854208" lon="-9.353305272045326"><ele>111.0</ele><time>2026-04-19T09:05:08Z</time></trkpt><trkpt lat="38.90517563386823" lon="-9.353371371239813"><ele>111.0</ele><time>2026-04-19T09:05:09Z</time></trkpt><trkpt lat="38.905074654955364" lon="-9.35341716749958"><ele>111.0</ele><time>2026-04-19T09:05:10Z</time></trkpt><trkpt lat="38.90498727780439" lon="-9.35348952599924"><ele>111.0</ele><time>2026-04-19T09:05:11Z</time></trkpt><trkpt lat="38.9048969317912" lon="-9.353551603569052"><ele>108.8</ele><time>2026-04-19T09:05:12Z</time></trkpt><trkpt lat="38.90481050905701" lon="-9.353606187322102"><ele>106.6</ele><time>2026-04-19T09:05:13Z</time></trkpt><trkpt lat="38.90472327896902" lon="-9.353672027636781"><ele>104.4</ele><time>2026-04-19T09:05:14Z</time></trkpt><trkpt lat="38.90463604669529" lon="-9.353730718814822"><ele>102.2</ele><time>2026-04-19T09:05:15Z</time></trkpt><trkpt lat="38.904552902700466" lon="-9.35378676538552"><ele>100.0</ele><time>2026-04-19T09:05:16Z</time></trkpt><trkpt lat="38.90446610727405" lon="-9.353847986432989"><ele>100.6</ele><time>2026-04-19T09:05:17Z</time></trkpt><trkpt lat="38.90438433660925" lon="-9.353902635605447"><ele>101.2</ele><time>2026-04-19T09:05:18Z</time></trkpt><trkpt lat="38.90430491538502" lon="-9.353975066964255"><ele>101.80000000000001</ele><time>2026-04-19T09:05:19Z</time></trkpt><trkpt lat="38.90422065356084" lon="-9.354033869401375"><ele>102.4</ele><time>2026-04-19T09:05:20Z</time></trkpt><trkpt lat="38.90413891599058" lon="-9.354090419443565"><ele>103.0</ele><time>2026-04-19T09:05:21Z</time></trkpt><trkpt lat="38.904054874676675" lon="-9.354149448562424"><ele>101.0</ele><time>2026-04-19T09:05:22Z</time></trkpt><trkpt lat="38.903973693798896" lon="-9.354207906274091"><ele>99.0</ele><time>2026-04-19T09:05:23Z</time></trkpt><trkpt lat="38.903886940263604" lon="-9.354248683246768"><ele>97.0</ele><time>2026-04-19T09:05:24Z</time></trkpt><trkpt lat="38.903808185438166" lon="-9.354315008682775"><ele>95.0</ele><time>2026-04-19T09:05:25Z</time></trkpt><trkpt lat="38.90372885966638" lon="-9.354375258877331"><ele>93.0</ele><time>2026-04-19T09:05:26Z</time></trkpt><trkpt lat="38.90365192267156" lon="-9.354436094363802"><ele>93.0</ele><time>2026-04-19T09:05:27Z</time></trkpt><trkpt lat="38.903569880459465" lon="-9.354502398897182"><ele>93.0</ele><time>2026-04-19T09:05:28Z</time></trkpt><trkpt lat="38.903491214332576" lon="-9.354566408723624"><ele>93.0</ele><time>2026-04-19T09:05:29Z</time></trkpt><trkpt lat="38.90341218728234" lon="-9.354636672332513"><ele>93.0</ele><time>2026-04-19T09:05:30Z</time></trkpt><trkpt lat="38.903334944968925" lon="-9.354704592200271"><ele>93.0</ele><time>2026-04-19T09:05:31Z</time></trkpt><trkpt lat="38.903261602993176" lon="-9.354782801538388"><ele>91.0</ele><time>2026-04-19T09:05:32Z</time></trkpt><trkpt lat="38.90322500664925" lon="-9.354896960021046"><ele>89.0</ele><time>2026-04-19T09:05:33Z</time></trkpt><trkpt lat="38.90319294978786" lon="-9.355007243387583"><ele>87.0</ele><time>2026-04-19T09:05:34Z</time></trkpt><trkpt lat="38.90314622716463" lon="-9.355112248361971"><ele>85.0</ele><time>2026-04-19T09:05:35Z</time></trkpt><trkpt lat="38.90310393390565" lon="-9.355223837526083"><ele>83.0</ele><time>2026-04-19T09:05:36Z</time></trkpt><trkpt lat="38.90305169450415" lon="-9.355322880490636"><ele>83.0</ele><time>2026-04-19T09:05:37Z</time></trkpt><trkpt lat="38.90298409869054" lon="-9.355412866871468"><ele>83.0</ele><time>2026-04-19T09:05:38Z</time></trkpt><trkpt lat="38.902918396796956" lon="-9.355472193165468"><ele>83.0</ele><time>2026-04-19T09:05:39Z</time></trkpt><trkpt lat="38.902869471916375" lon="-9.355539230900506"><ele>83.0</ele><time>2026-04-19T09:05:40Z</time></trkpt><trkpt lat="38.902793994168825" lon="-9.355646027309307"><ele>83.0</ele><time>2026-04-19T09:05:42Z</time></trkpt><trkpt lat="38.90273146414901" lon="-9.355736912110284"><ele>84.0</ele><time>2026-04-19T09:05:44Z</time></trkpt><trkpt lat="38.90270916281707" lon="-9.355824144946965"><ele>85.0</ele><time>2026-04-19T09:05:45Z</time></trkpt><trkpt lat="38.90267587427039" lon="-9.355925506365422"><ele>86.0</ele><time>2026-04-19T09:05:46Z</time></trkpt><trkpt lat="38.90264479460864" lon="-9.356025530133277"><ele>87.0</ele><time>2026-04-19T09:05:47Z</time></trkpt><trkpt lat="38.90261660194265" lon="-9.356116610390519"><ele>88.0</ele><time>2026-04-19T09:05:48Z</time></trkpt><trkpt lat="38.902577514297825" lon="-9.356205951551436"><ele>89.0</ele><time>2026-04-19T09:05:49Z</time></trkpt><trkpt lat="38.90255783143673" lon="-9.356298623612986"><ele>86.57142857142857</ele><time>2026-04-19T09:05:50Z</time></trkpt><trkpt lat="38.902531391154426" lon="-9.356374548401869"><ele>84.14285714285714</ele><time>2026-04-19T09:05:51Z</time></trkpt><trkpt lat="38.90248860496448" lon="-9.356451422067654"><ele>81.71428571428572</ele><time>2026-04-19T09:05:52Z</time></trkpt><trkpt lat="38.90243904339557" lon="-9.356511557421513"><ele>79.28571428571428</ele><time>2026-04-19T09:05:53Z</time></trkpt><trkpt lat="38.902389229981985" lon="-9.356574547052366"><ele>76.85714285714286</ele><time>2026-04-19T09:05:54Z</time></trkpt><trkpt lat="38.90234480748204" lon="-9.3566368591289"><ele>74.42857142857143</ele><time>2026-04-19T09:05:55Z</time></trkpt><trkpt lat="38.902281830444835" lon="-9.356732278313103"><ele>72.0</ele><time>2026-04-19T09:05:57Z</time></trkpt><trkpt lat="38.90224083217597" lon="-9.356807664975683"><ele>72.0</ele><time>2026-04-19T09:06:00Z</time></trkpt><trkpt lat="38.90217346769274" lon="-9.356949686378124"><ele>72.0</ele><time>2026-04-19T09:06:03Z</time></trkpt><trkpt lat="38.90213678654153" lon="-9.357069576884253"><ele>72.0</ele><time>2026-04-19T09:06:04Z</time></trkpt><trkpt lat="38.90209440412317" lon="-9.357207912250233"><ele>72.0</ele><time>2026-04-19T09:06:05Z</time></trkpt><trkpt lat="38.90204635519284" lon="-9.357354887162815"><ele>73.4</ele><time>2026-04-19T09:06:06Z</time></trkpt><trkpt lat="38.901995720549465" lon="-9.357497924515796"><ele>74.80000000000001</ele><time>2026-04-19T09:06:07Z</time></trkpt><trkpt lat="38.901952398456494" lon="-9.357622824992744"><ele>76.2</ele><time>2026-04-19T09:06:08Z</time></trkpt><trkpt lat="38.901909624670836" lon="-9.357753175836011"><ele>77.60000000000001</ele><time>2026-04-19T09:06:09Z</time></trkpt><trkpt lat="38.90186802565788" lon="-9.357877075552825"><ele>79.0</ele><time>2026-04-19T09:06:10Z</time></trkpt><trkpt lat="38.901829837257196" lon="-9.357990184993957"><ele>78.0</ele><time>2026-04-19T09:06:11Z</time></trkpt><trkpt lat="38.901795791246386" lon="-9.358092179871429"><ele>77.0</ele><time>2026-04-19T09:06:12Z</time></trkpt><trkpt lat="38.90177116326457" lon="-9.35820539325059"><ele>76.0</ele><time>2026-04-19T09:06:13Z</time></trkpt><trkpt lat="38.90173875710114" lon="-9.358311412730066"><ele>75.0</ele><time>2026-04-19T09:06:14Z</time></trkpt><trkpt lat="38.90169833242159" lon="-9.358417180561105"><ele>74.0</ele><time>2026-04-19T09:06:15Z</time></trkpt><trkpt lat="38.90166786907931" lon="-9.358523683324943"><ele>73.0</ele><time>2026-04-19T09:06:15.999Z</time></trkpt><trkpt lat="38.901644831206085" lon="-9.358630576096726"><ele>67.8</ele><time>2026-04-19T09:06:16.999Z</time></trkpt><trkpt lat="38.90162465663717" lon="-9.35874611031029"><ele>62.599999999999994</ele><time>2026-04-19T09:06:17.999Z</time></trkpt><trkpt lat="38.901610860803004" lon="-9.358862356544194"><ele>57.400000000000006</ele><time>2026-04-19T09:06:18.999Z</time></trkpt><trkpt lat="38.901628703289745" lon="-9.358975526513603"><ele>52.2</ele><time>2026-04-19T09:06:19.999Z</time></trkpt><trkpt lat="38.90162766879618" lon="-9.359086355432401"><ele>47.0</ele><time>2026-04-19T09:06:20.999Z</time></trkpt><trkpt lat="38.90165523950736" lon="-9.359199402300401"><ele>46.6</ele><time>2026-04-19T09:06:21.999Z</time></trkpt><trkpt lat="38.90167739559031" lon="-9.359311860710728"><ele>46.2</ele><time>2026-04-19T09:06:22.999Z</time></trkpt><trkpt lat="38.90173531600488" lon="-9.359425236002489"><ele>45.8</ele><time>2026-04-19T09:06:23.999Z</time></trkpt><trkpt lat="38.90181542349118" lon="-9.359507386585667"><ele>45.4</ele><time>2026-04-19T09:06:24.999Z</time></trkpt><trkpt lat="38.901896451789476" lon="-9.359579347284917"><ele>45.0</ele><time>2026-04-19T09:06:25.999Z</time></trkpt><trkpt lat="38.90198596575682" lon="-9.359650310111203"><ele>43.4</ele><time>2026-04-19T09:06:26.999Z</time></trkpt><trkpt lat="38.9020736619393" lon="-9.359714344673455"><ele>41.8</ele><time>2026-04-19T09:06:27.999Z</time></trkpt><trkpt lat="38.90215591840907" lon="-9.359792729909994"><ele>40.2</ele><time>2026-04-19T09:06:28.999Z</time></trkpt><trkpt lat="38.90225328456714" lon="-9.359848814336258"><ele>38.6</ele><time>2026-04-19T09:06:29.999Z</time></trkpt><trkpt lat="38.902361522693546" lon="-9.359872811006706"><ele>37.0</ele><time>2026-04-19T09:06:31Z</time></trkpt><trkpt lat="38.90246829703357" lon="-9.359883809157548"><ele>37.0</ele><time>2026-04-19T09:06:32Z</time></trkpt><trkpt lat="38.90257624090884" lon="-9.359930182591633"><ele>37.0</ele><time>2026-04-19T09:06:33Z</time></trkpt><trkpt lat="38.9026829621639" lon="-9.359915927024849"><ele>37.0</ele><time>2026-04-19T09:06:34Z</time></trkpt><trkpt lat="38.90278177322051" lon="-9.35990123710094"><ele>37.0</ele><time>2026-04-19T09:06:35Z</time></trkpt><trkpt lat="38.902865069089714" lon="-9.359894980885976"><ele>37.0</ele><time>2026-04-19T09:06:36Z</time></trkpt><trkpt lat="38.90296385014565" lon="-9.359824581754191"><ele>36.2</ele><time>2026-04-19T09:06:37Z</time></trkpt><trkpt lat="38.90307248984793" lon="-9.359795076077852"><ele>35.400000000000006</ele><time>2026-04-19T09:06:38Z</time></trkpt><trkpt lat="38.90317183684483" lon="-9.359777527490587"><ele>34.599999999999994</ele><time>2026-04-19T09:06:39Z</time></trkpt><trkpt lat="38.90326860455345" lon="-9.359747606757917"><ele>33.8</ele><time>2026-04-19T09:06:40Z</time></trkpt><trkpt lat="38.90335956615927" lon="-9.359697577946624"><ele>33.0</ele><time>2026-04-19T09:06:41Z</time></trkpt><trkpt lat="38.90343130328077" lon="-9.35965124170738"><ele>33.0</ele><time>2026-04-19T09:06:42Z</time></trkpt><trkpt lat="38.90349389934472" lon="-9.359630491349323"><ele>33.0</ele><time>2026-04-19T09:06:43Z</time></trkpt><trkpt lat="38.90358018781946" lon="-9.359751479678637"><ele>33.0</ele><time>2026-04-19T09:06:45Z</time></trkpt><trkpt lat="38.903610876955035" lon="-9.359880778198699"><ele>33.0</ele><time>2026-04-19T09:06:46Z</time></trkpt><trkpt lat="38.90366167946343" lon="-9.360008048831789"><ele>33.0</ele><time>2026-04-19T09:06:47Z</time></trkpt><trkpt lat="38.903695854218064" lon="-9.360143940512573"><ele>31.5</ele><time>2026-04-19T09:06:48Z</time></trkpt><trkpt lat="38.90372956217175" lon="-9.360306351434337"><ele>30.0</ele><time>2026-04-19T09:06:49Z</time></trkpt><trkpt lat="38.90374869522361" lon="-9.36047047707986"><ele>28.5</ele><time>2026-04-19T09:06:50Z</time></trkpt><trkpt lat="38.90376281398539" lon="-9.360638725995694"><ele>27.0</ele><time>2026-04-19T09:06:51Z</time></trkpt><trkpt lat="38.90376957658104" lon="-9.360778558230889"><ele>26.5</ele><time>2026-04-19T09:06:52Z</time></trkpt><trkpt lat="38.90377768152319" lon="-9.360890824394515"><ele>26.0</ele><time>2026-04-19T09:06:53Z</time></trkpt><trkpt lat="38.90379448890047" lon="-9.36101122888046"><ele>25.5</ele><time>2026-04-19T09:06:55Z</time></trkpt><trkpt lat="38.90380291606572" lon="-9.361108062758694"><ele>25.0</ele><time>2026-04-19T09:06:57Z</time></trkpt><trkpt lat="38.90385519301268" lon="-9.361204390951208"><ele>24.5</ele><time>2026-04-19T09:06:59Z</time></trkpt><trkpt lat="38.9039349401053" lon="-9.361191597525616"><ele>24.0</ele><time>2026-04-19T09:07:00Z</time></trkpt><trkpt lat="38.90402775701432" lon="-9.361235388246442"><ele>24.0</ele><time>2026-04-19T09:07:01Z</time></trkpt><trkpt lat="38.90397558290331" lon="-9.361170700741624"><ele>24.0</ele><time>2026-04-19T09:07:06Z</time></trkpt><trkpt lat="38.90390488502518" lon="-9.3611347766878"><ele>24.0</ele><time>2026-04-19T09:07:08Z</time></trkpt><trkpt lat="38.903832542001126" lon="-9.361171513363331"><ele>24.0</ele><time>2026-04-19T09:07:10Z</time></trkpt><trkpt lat="38.903830493462436" lon="-9.361057489066058"><ele>24.0</ele><time>2026-04-19T09:07:14Z</time></trkpt><trkpt lat="38.90394292792297" lon="-9.361169694514247"><ele>24.0</ele><time>2026-04-19T09:07:19Z</time></trkpt><trkpt lat="38.90406984302379" lon="-9.361232537410606"><ele>24.0</ele><time>2026-04-19T09:07:21Z</time></trkpt><trkpt lat="38.90413987131178" lon="-9.361262549091009"><ele>24.0</ele><time>2026-04-19T09:07:22Z</time></trkpt><trkpt lat="38.90425072864214" lon="-9.361318828673692"><ele>24.0</ele><time>2026-04-19T09:07:24Z</time></trkpt><trkpt lat="38.904312457343124" lon="-9.36133651112857"><ele>24.0</ele><time>2026-04-19T09:07:25Z</time></trkpt><trkpt lat="38.90438309049249" lon="-9.361385882454758"><ele>24.0</ele><time>2026-04-19T09:07:27Z</time></trkpt><trkpt lat="38.904513773301716" lon="-9.361499318406848"><ele>24.0</ele><time>2026-04-19T09:07:28Z</time></trkpt><trkpt lat="38.90480620664928" lon="-9.360860945727085"><ele>24.0</ele><time>2026-04-19T09:07:29Z</time></trkpt><trkpt lat="38.90488599658027" lon="-9.360848648052457"><ele>24.0</ele><time>2026-04-19T09:07:30Z</time></trkpt><trkpt lat="38.90497429999789" lon="-9.360845964853347"><ele>24.0</ele><time>2026-04-19T09:07:31Z</time></trkpt><trkpt lat="38.90505129225277" lon="-9.360863803401426"><ele>24.0</ele><time>2026-04-19T09:07:32Z</time></trkpt><trkpt lat="38.90512580044107" lon="-9.360890697616057"><ele>24.0</ele><time>2026-04-19T09:07:33Z</time></trkpt><trkpt lat="38.90520243260589" lon="-9.360886493137674"><ele>24.0</ele><time>2026-04-19T09:07:34Z</time></trkpt><trkpt lat="38.905288243257466" lon="-9.36089184566056"><ele>24.666666666666668</ele><time>2026-04-19T09:07:35Z</time></trkpt><trkpt lat="38.905358789097136" lon="-9.360910848296673"><ele>25.333333333333336</ele><time>2026-04-19T09:07:36Z</time></trkpt><trkpt lat="38.90543351077102" lon="-9.360933641323262"><ele>26.0</ele><time>2026-04-19T09:07:37Z</time></trkpt><trkpt lat="38.90550273704548" lon="-9.360983811213039"><ele>26.666666666666668</ele><time>2026-04-19T09:07:38Z</time></trkpt><trkpt lat="38.90556646887546" lon="-9.361044195769798"><ele>27.333333333333336</ele><time>2026-04-19T09:07:39Z</time></trkpt><trkpt lat="38.90561701618376" lon="-9.361127208694759"><ele>28.0</ele><time>2026-04-19T09:07:40Z</time></trkpt><trkpt lat="38.905652204302555" lon="-9.361246324198326"><ele>28.0</ele><time>2026-04-19T09:07:41Z</time></trkpt><trkpt lat="38.905672983353824" lon="-9.361361963171236"><ele>27.999999999999996</ele><time>2026-04-19T09:07:42Z</time></trkpt><trkpt lat="38.905675119737865" lon="-9.361490430482439"><ele>27.999999999999996</ele><time>2026-04-19T09:07:43Z</time></trkpt><trkpt lat="38.9056823670272" lon="-9.361611747139932"><ele>28.0</ele><time>2026-04-19T09:07:44Z</time></trkpt><trkpt lat="38.90568170104719" lon="-9.361734032572524"><ele>28.0</ele><time>2026-04-19T09:07:45Z</time></trkpt><trkpt lat="38.90569658971702" lon="-9.361850883139438"><ele>28.0</ele><time>2026-04-19T09:07:46Z</time></trkpt><trkpt lat="38.905717698829406" lon="-9.361975775343584"><ele>27.999999999999996</ele><time>2026-04-19T09:07:47Z</time></trkpt><trkpt lat="38.90573118119524" lon="-9.362115562366721"><ele>27.999999999999996</ele><time>2026-04-19T09:07:48Z</time></trkpt><trkpt lat="38.90574260656041" lon="-9.36225405824135"><ele>28.0</ele><time>2026-04-19T09:07:49Z</time></trkpt><trkpt lat="38.90573990611454" lon="-9.36237907524667"><ele>28.0</ele><time>2026-04-19T09:07:50Z</time></trkpt><trkpt lat="38.90573745682111" lon="-9.36248125721067"><ele>28.000000000000004</ele><time>2026-04-19T09:07:51Z</time></trkpt><trkpt lat="38.905728428340325" lon="-9.362587099192298"><ele>28.0</ele><time>2026-04-19T09:07:52Z</time></trkpt><trkpt lat="38.90569914127973" lon="-9.362700177028454"><ele>28.0</ele><time>2026-04-19T09:07:53Z</time></trkpt><trkpt lat="38.90567137282341" lon="-9.362811291572887"><ele>28.0</ele><time>2026-04-19T09:07:54Z</time></trkpt><trkpt lat="38.90564668466287" lon="-9.362905168242023"><ele>28.000000000000004</ele><time>2026-04-19T09:07:55Z</time></trkpt><trkpt lat="38.90560890965522" lon="-9.362987259262844"><ele>28.0</ele><time>2026-04-19T09:07:56Z</time></trkpt><trkpt lat="38.90557600849749" lon="-9.363062841560318"><ele>28.2</ele><time>2026-04-19T09:07:57Z</time></trkpt><trkpt lat="38.90555328995387" lon="-9.363140077024934"><ele>28.4</ele><time>2026-04-19T09:07:58Z</time></trkpt><trkpt lat="38.90549596706667" lon="-9.363290967848156"><ele>28.599999999999998</ele><time>2026-04-19T09:08:00Z</time></trkpt><trkpt lat="38.90547801375852" lon="-9.363376795964847"><ele>28.799999999999997</ele><time>2026-04-19T09:08:01Z</time></trkpt><trkpt lat="38.90545487211125" lon="-9.363520266092806"><ele>29.0</ele><time>2026-04-19T09:08:03Z</time></trkpt><trkpt lat="38.905441848299695" lon="-9.363663360597764"><ele>29.0</ele><time>2026-04-19T09:08:05Z</time></trkpt><trkpt lat="38.905425174268785" lon="-9.363772870874172"><ele>29.0</ele><time>2026-04-19T09:08:07Z</time></trkpt><trkpt lat="38.905431075856576" lon="-9.363945309283597"><ele>29.0</ele><time>2026-04-19T09:08:09Z</time></trkpt><trkpt lat="38.905432053096725" lon="-9.364047691262096"><ele>29.0</ele><time>2026-04-19T09:08:10Z</time></trkpt><trkpt lat="38.90541756531627" lon="-9.364140508715495"><ele>29.0</ele><time>2026-04-19T09:08:11Z</time></trkpt><trkpt lat="38.905424592047694" lon="-9.364237737021936"><ele>29.666666666666664</ele><time>2026-04-19T09:08:12Z</time></trkpt><trkpt lat="38.905414557325244" lon="-9.364333315347869"><ele>30.333333333333332</ele><time>2026-04-19T09:08:13Z</time></trkpt><trkpt lat="38.905400517255444" lon="-9.36444140597501"><ele>31.0</ele><time>2026-04-19T09:08:14Z</time></trkpt><trkpt lat="38.90540080444269" lon="-9.36454159530737"><ele>31.666666666666664</ele><time>2026-04-19T09:08:15Z</time></trkpt><trkpt lat="38.905395251385066" lon="-9.364641577322713"><ele>32.333333333333336</ele><time>2026-04-19T09:08:16Z</time></trkpt><trkpt lat="38.90538233800189" lon="-9.364745951693061"><ele>33.0</ele><time>2026-04-19T09:08:17Z</time></trkpt><trkpt lat="38.90535117752549" lon="-9.364850063083354"><ele>33.166666666666664</ele><time>2026-04-19T09:08:18Z</time></trkpt><trkpt lat="38.905316988491684" lon="-9.364949968232944"><ele>33.333333333333336</ele><time>2026-04-19T09:08:19Z</time></trkpt><trkpt lat="38.905289783042804" lon="-9.365057134978112"><ele>33.5</ele><time>2026-04-19T09:08:20Z</time></trkpt><trkpt lat="38.905254384728195" lon="-9.365164873611873"><ele>33.66666666666667</ele><time>2026-04-19T09:08:21Z</time></trkpt><trkpt lat="38.905204807588035" lon="-9.365270679282181"><ele>33.833333333333336</ele><time>2026-04-19T09:08:21.999Z</time></trkpt><trkpt lat="38.90516404220156" lon="-9.365370060127418"><ele>34.0</ele><time>2026-04-19T09:08:22.999Z</time></trkpt><trkpt lat="38.90512176582893" lon="-9.3654616092747"><ele>32.5</ele><time>2026-04-19T09:08:23.999Z</time></trkpt><trkpt lat="38.90506512345866" lon="-9.365537763038489"><ele>31.0</ele><time>2026-04-19T09:08:24.999Z</time></trkpt><trkpt lat="38.90499599163148" lon="-9.365632763200978"><ele>29.5</ele><time>2026-04-19T09:08:25.999Z</time></trkpt><trkpt lat="38.90493764009064" lon="-9.365702145794431"><ele>28.0</ele><time>2026-04-19T09:08:26.999Z</time></trkpt><trkpt lat="38.90488376055681" lon="-9.36577239492476"><ele>26.500000000000004</ele><time>2026-04-19T09:08:27.999Z</time></trkpt><trkpt lat="38.904830096256916" lon="-9.365852390764728"><ele>25.0</ele><time>2026-04-19T09:08:28.999Z</time></trkpt><trkpt lat="38.90476543269995" lon="-9.365919570798054"><ele>25.000000000000004</ele><time>2026-04-19T09:08:29.999Z</time></trkpt><trkpt lat="38.90473345299655" lon="-9.366000906150727"><ele>25.0</ele><time>2026-04-19T09:08:30.999Z</time></trkpt><trkpt lat="38.904702578150626" lon="-9.366080067524019"><ele>25.0</ele><time>2026-04-19T09:08:31.999Z</time></trkpt><trkpt lat="38.90465775567878" lon="-9.366145915558297"><ele>25.0</ele><time>2026-04-19T09:08:32.999Z</time></trkpt><trkpt lat="38.904616405796" lon="-9.366215904543905"><ele>25.000000000000004</ele><time>2026-04-19T09:08:33.999Z</time></trkpt><trkpt lat="38.90453829934963" lon="-9.366343535803733"><ele>25.0</ele><time>2026-04-19T09:08:35.999Z</time></trkpt><trkpt lat="38.90447988659941" lon="-9.36641704846925"><ele>24.8</ele><time>2026-04-19T09:08:37Z</time></trkpt><trkpt lat="38.904401082980634" lon="-9.366497179094864"><ele>24.6</ele><time>2026-04-19T09:08:38Z</time></trkpt><trkpt lat="38.90434509331085" lon="-9.366587214136949"><ele>24.4</ele><time>2026-04-19T09:08:39Z</time></trkpt><trkpt lat="38.90433396039287" lon="-9.366687131098773"><ele>24.2</ele><time>2026-04-19T09:08:40Z</time></trkpt><trkpt lat="38.904349687202085" lon="-9.36681995106802"><ele>24.0</ele><time>2026-04-19T09:08:41Z</time></trkpt><trkpt lat="38.90433921574853" lon="-9.366934953132576"><ele>24.0</ele><time>2026-04-19T09:08:42Z</time></trkpt><trkpt lat="38.904309760492815" lon="-9.367028501604516"><ele>24.0</ele><time>2026-04-19T09:08:43Z</time></trkpt><trkpt lat="38.90430165085958" lon="-9.367149379736382"><ele>24.0</ele><time>2026-04-19T09:08:44Z</time></trkpt><trkpt lat="38.904319837700676" lon="-9.367277013058336"><ele>24.0</ele><time>2026-04-19T09:08:45Z</time></trkpt><trkpt lat="38.904334171177716" lon="-9.367381501884989"><ele>24.0</ele><time>2026-04-19T09:08:46Z</time></trkpt><trkpt lat="38.9043497193473" lon="-9.367498267244777"><ele>24.0</ele><time>2026-04-19T09:08:47Z</time></trkpt><trkpt lat="38.90436992745176" lon="-9.36759067773322"><ele>24.0</ele><time>2026-04-19T09:08:48Z</time></trkpt><trkpt lat="38.9044097287878" lon="-9.367686736080682"><ele>24.0</ele><time>2026-04-19T09:08:49Z</time></trkpt><trkpt lat="38.90446244235389" lon="-9.36777955719885"><ele>24.0</ele><time>2026-04-19T09:08:50Z</time></trkpt><trkpt lat="38.9045110608383" lon="-9.367838734101035"><ele>24.0</ele><time>2026-04-19T09:08:52Z</time></trkpt><trkpt lat="38.9045667889522" lon="-9.367896627655828"><ele>24.0</ele><time>2026-04-19T09:08:57Z</time></trkpt><trkpt lat="38.90462432849631" lon="-9.368012286876535"><ele>24.0</ele><time>2026-04-19T09:09:30Z</time></trkpt><trkpt lat="38.90467747891745" lon="-9.368139517878854"><ele>23.0</ele><time>2026-04-19T09:09:32Z</time></trkpt><trkpt lat="38.904737773669545" lon="-9.36819820874414"><ele>22.0</ele><time>2026-04-19T09:09:33Z</time></trkpt><trkpt lat="38.90480068219331" lon="-9.36826667395415"><ele>21.0</ele><time>2026-04-19T09:09:34Z</time></trkpt><trkpt lat="38.904871601433584" lon="-9.368365405986381"><ele>20.0</ele><time>2026-04-19T09:09:36Z</time></trkpt><trkpt lat="38.90493776414707" lon="-9.368474760426814"><ele>19.0</ele><time>2026-04-19T09:09:38Z</time></trkpt><trkpt lat="38.90500042585525" lon="-9.368564852667468"><ele>19.0</ele><time>2026-04-19T09:09:40Z</time></trkpt><trkpt lat="38.90506942550161" lon="-9.368654344977212"><ele>19.0</ele><time>2026-04-19T09:09:42Z</time></trkpt><trkpt lat="38.90513843712991" lon="-9.368745772837505"><ele>19.0</ele><time>2026-04-19T09:09:44Z</time></trkpt><trkpt lat="38.90520782121238" lon="-9.368819846370492"><ele>19.0</ele><time>2026-04-19T09:09:46Z</time></trkpt><trkpt lat="38.90527216535878" lon="-9.36891786741971"><ele>19.0</ele><time>2026-04-19T09:09:48Z</time></trkpt><trkpt lat="38.90532071729934" lon="-9.369015370113294"><ele>19.5</ele><time>2026-04-19T09:09:50Z</time></trkpt><trkpt lat="38.905376796338835" lon="-9.369112652754321"><ele>20.0</ele><time>2026-04-19T09:09:52Z</time></trkpt><trkpt lat="38.90540043500805" lon="-9.369204579577682"><ele>20.5</ele><time>2026-04-19T09:09:54Z</time></trkpt><trkpt lat="38.90545427459203" lon="-9.369280030041393"><ele>21.0</ele><time>2026-04-19T09:09:56Z</time></trkpt><trkpt lat="38.90553045587527" lon="-9.369315213767404"><ele>21.5</ele><time>2026-04-19T09:09:58Z</time></trkpt><trkpt lat="38.90561297069732" lon="-9.36940474439154"><ele>22.0</ele><time>2026-04-19T09:10:00Z</time></trkpt><trkpt lat="38.90564646344712" lon="-9.369520503089378"><ele>22.0</ele><time>2026-04-19T09:10:02Z</time></trkpt><trkpt lat="38.905699317954394" lon="-9.369614696666535"><ele>22.0</ele><time>2026-04-19T09:10:04Z</time></trkpt><trkpt lat="38.90575653581593" lon="-9.369693849274352"><ele>22.0</ele><time>2026-04-19T09:10:06Z</time></trkpt><trkpt lat="38.90581411753681" lon="-9.369806872162199"><ele>22.0</ele><time>2026-04-19T09:10:08Z</time></trkpt><trkpt lat="38.905887471163155" lon="-9.369915191667301"><ele>22.0</ele><time>2026-04-19T09:10:10Z</time></trkpt><trkpt lat="38.90595533657377" lon="-9.370024292458936"><ele>23.200000000000003</ele><time>2026-04-19T09:10:12Z</time></trkpt><trkpt lat="38.906039937429405" lon="-9.37005180595044"><ele>24.4</ele><time>2026-04-19T09:10:14Z</time></trkpt><trkpt lat="38.906116881534615" lon="-9.370065392614395"><ele>25.599999999999998</ele><time>2026-04-19T09:10:17Z</time></trkpt><trkpt lat="38.90622502123303" lon="-9.370072694231318"><ele>26.799999999999997</ele><time>2026-04-19T09:10:19Z</time></trkpt><trkpt lat="38.90632334846076" lon="-9.370060597234362"><ele>28.0</ele><time>2026-04-19T09:10:21Z</time></trkpt><trkpt lat="38.90643031119483" lon="-9.370040184167568"><ele>28.000000000000004</ele><time>2026-04-19T09:10:23Z</time></trkpt><trkpt lat="38.906496412872485" lon="-9.370030080041095"><ele>28.0</ele><time>2026-04-19T09:10:24Z</time></trkpt><trkpt lat="38.90656157611086" lon="-9.370032165354049"><ele>28.0</ele><time>2026-04-19T09:10:25Z</time></trkpt><trkpt lat="38.9066555486897" lon="-9.37002690233781"><ele>28.0</ele><time>2026-04-19T09:10:27Z</time></trkpt><trkpt lat="38.90674034475528" lon="-9.370028706715662"><ele>28.000000000000004</ele><time>2026-04-19T09:10:31.999Z</time></trkpt><trkpt lat="38.90683029446442" lon="-9.36998935108254"><ele>28.0</ele><time>2026-04-19T09:10:34.999Z</time></trkpt><trkpt lat="38.90693439546324" lon="-9.369999784117878"><ele>27.0</ele><time>2026-04-19T09:10:36.999Z</time></trkpt><trkpt lat="38.907038041759954" lon="-9.369972282026211"><ele>25.999999999999996</ele><time>2026-04-19T09:10:38.999Z</time></trkpt><trkpt lat="38.907140957258605" lon="-9.369947467441486"><ele>25.0</ele><time>2026-04-19T09:10:40.999Z</time></trkpt><trkpt lat="38.907225964113564" lon="-9.369901118457385"><ele>24.0</ele><time>2026-04-19T09:10:43Z</time></trkpt><trkpt lat="38.90733663883003" lon="-9.369861229204066"><ele>23.0</ele><time>2026-04-19T09:10:45Z</time></trkpt><trkpt lat="38.90741019047842" lon="-9.36986318270253"><ele>23.0</ele><time>2026-04-19T09:10:46Z</time></trkpt><trkpt lat="38.90749067601353" lon="-9.369859849245092"><ele>23.0</ele><time>2026-04-19T09:10:47Z</time></trkpt><trkpt lat="38.907615702703325" lon="-9.369855777657053"><ele>23.0</ele><time>2026-04-19T09:10:49Z</time></trkpt><trkpt lat="38.907678743494436" lon="-9.369879175343439"><ele>23.0</ele><time>2026-04-19T09:10:50Z</time></trkpt><trkpt lat="38.90774117112521" lon="-9.369893603253216"><ele>23.0</ele><time>2026-04-19T09:10:51Z</time></trkpt><trkpt lat="38.90781588136187" lon="-9.369905850043482"><ele>23.0</ele><time>2026-04-19T09:10:52Z</time></trkpt><trkpt lat="38.9079269910464" lon="-9.369925839143121"><ele>22.833333333333336</ele><time>2026-04-19T09:10:54Z</time></trkpt><trkpt lat="38.90803630494529" lon="-9.369936566825645"><ele>22.666666666666668</ele><time>2026-04-19T09:10:56Z</time></trkpt><trkpt lat="38.90812268618517" lon="-9.369940292928371"><ele>22.5</ele><time>2026-04-19T09:10:58Z</time></trkpt><trkpt lat="38.90818633316812" lon="-9.369959097126163"><ele>22.333333333333332</ele><time>2026-04-19T09:11:00Z</time></trkpt><trkpt lat="38.90827945203542" lon="-9.369982548949693"><ele>22.166666666666664</ele><time>2026-04-19T09:11:03Z</time></trkpt><trkpt lat="38.90834013035819" lon="-9.370014746733291"><ele>22.0</ele><time>2026-04-19T09:11:09Z</time></trkpt><trkpt lat="38.90842135452962" lon="-9.370048323543628"><ele>21.666666666666664</ele><time>2026-04-19T09:11:13Z</time></trkpt><trkpt lat="38.90849405391067" lon="-9.370100082334117"><ele>21.333333333333332</ele><time>2026-04-19T09:11:18Z</time></trkpt><trkpt lat="38.908567421751876" lon="-9.37015583498287"><ele>21.0</ele><time>2026-04-19T09:11:22Z</time></trkpt><trkpt lat="38.908648559503" lon="-9.370205363418538"><ele>20.666666666666668</ele><time>2026-04-19T09:11:25Z</time></trkpt><trkpt lat="38.90871968020182" lon="-9.370229895305554"><ele>20.333333333333336</ele><time>2026-04-19T09:11:27Z</time></trkpt><trkpt lat="38.90881444819786" lon="-9.370277464060667"><ele>20.0</ele><time>2026-04-19T09:11:29Z</time></trkpt><trkpt lat="38.90888508229105" lon="-9.370355176691357"><ele>20.0</ele><time>2026-04-19T09:11:31Z</time></trkpt><trkpt lat="38.90897155760454" lon="-9.370372991535705"><ele>20.0</ele><time>2026-04-19T09:11:33Z</time></trkpt><trkpt lat="38.90906177643973" lon="-9.370381213524402"><ele>20.0</ele><time>2026-04-19T09:11:35Z</time></trkpt><trkpt lat="38.90914232535185" lon="-9.370353081418921"><ele>20.0</ele><time>2026-04-19T09:11:37Z</time></trkpt><trkpt lat="38.909211346678596" lon="-9.370308112857678"><ele>20.0</ele><time>2026-04-19T09:11:39Z</time></trkpt><trkpt lat="38.90928745650392" lon="-9.370289062965355"><ele>20.0</ele><time>2026-04-19T09:11:41Z</time></trkpt><trkpt lat="38.90936400692355" lon="-9.370299494841007"><ele>21.0</ele><time>2026-04-19T09:11:43Z</time></trkpt><trkpt lat="38.90943659597348" lon="-9.37033260042643"><ele>22.0</ele><time>2026-04-19T09:11:45Z</time></trkpt><trkpt lat="38.909523814029" lon="-9.370335341772513"><ele>23.0</ele><time>2026-04-19T09:11:48Z</time></trkpt><trkpt lat="38.90962240312525" lon="-9.370313674500425"><ele>24.0</ele><time>2026-04-19T09:11:50Z</time></trkpt><trkpt lat="38.90969425536104" lon="-9.370324167866956"><ele>24.999999999999996</ele><time>2026-04-19T09:11:52Z</time></trkpt><trkpt lat="38.909755162662094" lon="-9.37028996693723"><ele>26.0</ele><time>2026-04-19T09:11:55Z</time></trkpt><trkpt lat="38.90982856186071" lon="-9.370256790858427"><ele>25.999999999999996</ele><time>2026-04-19T09:11:57Z</time></trkpt><trkpt lat="38.909909062429755" lon="-9.370226683757522"><ele>26.0</ele><time>2026-04-19T09:11:59Z</time></trkpt><trkpt lat="38.90998256838989" lon="-9.37019010146166"><ele>26.0</ele><time>2026-04-19T09:12:01Z</time></trkpt><trkpt lat="38.91007336813352" lon="-9.370231171811175"><ele>26.0</ele><time>2026-04-19T09:12:03Z</time></trkpt><trkpt lat="38.91013575417251" lon="-9.370187119066674"><ele>25.999999999999996</ele><time>2026-04-19T09:12:04Z</time></trkpt><trkpt lat="38.910192519763626" lon="-9.370131430298523"><ele>26.0</ele><time>2026-04-19T09:12:05Z</time></trkpt><trkpt lat="38.910258734323975" lon="-9.370049244702974"><ele>26.4</ele><time>2026-04-19T09:12:07Z</time></trkpt><trkpt lat="38.91036204578959" lon="-9.369971210239258"><ele>26.8</ele><time>2026-04-19T09:12:09Z</time></trkpt><trkpt lat="38.91042203876324" lon="-9.36994136486196"><ele>27.199999999999996</ele><time>2026-04-19T09:12:10Z</time></trkpt><trkpt lat="38.91053569452192" lon="-9.369884919476338"><ele>27.599999999999998</ele><time>2026-04-19T09:12:12Z</time></trkpt><trkpt lat="38.910628681216394" lon="-9.369855022046105"><ele>28.0</ele><time>2026-04-19T09:12:14Z</time></trkpt><trkpt lat="38.910735338207" lon="-9.369862418566527"><ele>28.000000000000004</ele><time>2026-04-19T09:12:16Z</time></trkpt><trkpt lat="38.91081032921548" lon="-9.369906914359742"><ele>28.0</ele><time>2026-04-19T09:12:18Z</time></trkpt><trkpt lat="38.91090621289152" lon="-9.36990090597742"><ele>28.0</ele><time>2026-04-19T09:12:20Z</time></trkpt><trkpt lat="38.91097350396576" lon="-9.36989359415827"><ele>28.0</ele><time>2026-04-19T09:12:21Z</time></trkpt><trkpt lat="38.91107496477472" lon="-9.369871720905895"><ele>28.000000000000004</ele><time>2026-04-19T09:12:22.999Z</time></trkpt><trkpt lat="38.911167115597316" lon="-9.369821850878983"><ele>28.0</ele><time>2026-04-19T09:12:24.999Z</time></trkpt><trkpt lat="38.91126589974154" lon="-9.369797186631589"><ele>28.4</ele><time>2026-04-19T09:12:26.999Z</time></trkpt><trkpt lat="38.91136754514331" lon="-9.369780302922983"><ele>28.799999999999997</ele><time>2026-04-19T09:12:28.999Z</time></trkpt><trkpt lat="38.911465395197766" lon="-9.36973911231297"><ele>29.2</ele><time>2026-04-19T09:12:30.999Z</time></trkpt><trkpt lat="38.911534361758925" lon="-9.36972723013828"><ele>29.6</ele><time>2026-04-19T09:12:31.999Z</time></trkpt><trkpt lat="38.91163192208645" lon="-9.369704433333297"><ele>30.0</ele><time>2026-04-19T09:12:32.999Z</time></trkpt><trkpt lat="38.911707145828636" lon="-9.369684364195301"><ele>29.166666666666668</ele><time>2026-04-19T09:12:33.999Z</time></trkpt><trkpt lat="38.91183242714449" lon="-9.369637128683424"><ele>28.333333333333336</ele><time>2026-04-19T09:12:35.999Z</time></trkpt><trkpt lat="38.91189431552378" lon="-9.369618791963466"><ele>27.5</ele><time>2026-04-19T09:12:36.999Z</time></trkpt><trkpt lat="38.91198654051328" lon="-9.369611932364009"><ele>26.666666666666668</ele><time>2026-04-19T09:12:38.999Z</time></trkpt><trkpt lat="38.912063337244106" lon="-9.369596039011949"><ele>25.833333333333336</ele><time>2026-04-19T09:12:40.999Z</time></trkpt><trkpt lat="38.91214084163727" lon="-9.369591126014347"><ele>25.0</ele><time>2026-04-19T09:12:44.999Z</time></trkpt><trkpt lat="38.91222887423364" lon="-9.36962801416544"><ele>25.000000000000004</ele><time>2026-04-19T09:12:49Z</time></trkpt><trkpt lat="38.91226761786378" lon="-9.369714359877694"><ele>25.0</ele><time>2026-04-19T09:12:52Z</time></trkpt><trkpt lat="38.91233556523314" lon="-9.369780333722483"><ele>25.0</ele><time>2026-04-19T09:12:54Z</time></trkpt><trkpt lat="38.91241008604394" lon="-9.36985890648882"><ele>25.0</ele><time>2026-04-19T09:12:56Z</time></trkpt><trkpt lat="38.91247234448841" lon="-9.369930267832117"><ele>25.000000000000004</ele><time>2026-04-19T09:12:58Z</time></trkpt><trkpt lat="38.91249109650863" lon="-9.370010662321093"><ele>25.0</ele><time>2026-04-19T09:13:07Z</time></trkpt><trkpt lat="38.91248367429474" lon="-9.370124946492302"><ele>25.000000000000004</ele><time>2026-04-19T09:13:10Z</time></trkpt><trkpt lat="38.91248096093077" lon="-9.370231437839156"><ele>25.0</ele><time>2026-04-19T09:13:12Z</time></trkpt><trkpt lat="38.912471750576934" lon="-9.370312195400047"><ele>25.0</ele><time>2026-04-19T09:13:14Z</time></trkpt><trkpt lat="38.91247632395882" lon="-9.370416343685386"><ele>25.0</ele><time>2026-04-19T09:13:16Z</time></trkpt><trkpt lat="38.91249476496818" lon="-9.370538209554732"><ele>25.000000000000004</ele><time>2026-04-19T09:13:18Z</time></trkpt><trkpt lat="38.91253056853574" lon="-9.370662575420237"><ele>25.0</ele><time>2026-04-19T09:13:20Z</time></trkpt><trkpt lat="38.91256281523374" lon="-9.370778168179944"><ele>26.166666666666668</ele><time>2026-04-19T09:13:22Z</time></trkpt><trkpt lat="38.91257741375339" lon="-9.370857551717952"><ele>27.333333333333336</ele><time>2026-04-19T09:13:23Z</time></trkpt><trkpt lat="38.91257729655509" lon="-9.370998902653843"><ele>28.5</ele><time>2026-04-19T09:13:25Z</time></trkpt><trkpt lat="38.91254865573642" lon="-9.371126014239431"><ele>29.666666666666664</ele><time>2026-04-19T09:13:27Z</time></trkpt><trkpt lat="38.912567831691895" lon="-9.371231163499866"><ele>30.833333333333332</ele><time>2026-04-19T09:13:29Z</time></trkpt><trkpt lat="38.912577586877184" lon="-9.371320212132465"><ele>32.0</ele><time>2026-04-19T09:13:31Z</time></trkpt><trkpt lat="38.91259789306166" lon="-9.371436816158692"><ele>33.2</ele><time>2026-04-19T09:13:33Z</time></trkpt><trkpt lat="38.91264792700015" lon="-9.371558237026775"><ele>34.400000000000006</ele><time>2026-04-19T09:13:35Z</time></trkpt><trkpt lat="38.91267349155786" lon="-9.37175933116874"><ele>35.599999999999994</ele><time>2026-04-19T09:13:37Z</time></trkpt><trkpt lat="38.91268436360897" lon="-9.371870864336369"><ele>36.8</ele><time>2026-04-19T09:13:38Z</time></trkpt><trkpt lat="38.91268708291427" lon="-9.371960704379942"><ele>38.0</ele><time>2026-04-19T09:13:39Z</time></trkpt><trkpt lat="38.91269336689553" lon="-9.372100703792759"><ele>37.166666666666664</ele><time>2026-04-19T09:13:41Z</time></trkpt><trkpt lat="38.91270024408081" lon="-9.372191969763982"><ele>36.33333333333333</ele><time>2026-04-19T09:13:43Z</time></trkpt><trkpt lat="38.9126926835629" lon="-9.372278708188157"><ele>35.5</ele><time>2026-04-19T09:13:45Z</time></trkpt><trkpt lat="38.912668454319075" lon="-9.372385622816589"><ele>34.666666666666664</ele><time>2026-04-19T09:13:47Z</time></trkpt><trkpt lat="38.9126535409161" lon="-9.372475744748767"><ele>33.833333333333336</ele><time>2026-04-19T09:13:49Z</time></trkpt><trkpt lat="38.91263298333144" lon="-9.37257557263818"><ele>33.0</ele><time>2026-04-19T09:13:51Z</time></trkpt><trkpt lat="38.91262402700988" lon="-9.372669029489677"><ele>33.0</ele><time>2026-04-19T09:13:53Z</time></trkpt><trkpt lat="38.912669404241846" lon="-9.372730612306258"><ele>33.0</ele><time>2026-04-19T09:13:55Z</time></trkpt><trkpt lat="38.91268710007157" lon="-9.372851141845455"><ele>33.0</ele><time>2026-04-19T09:13:58Z</time></trkpt><trkpt lat="38.91267981453716" lon="-9.372945416628458"><ele>33.0</ele><time>2026-04-19T09:13:59.999Z</time></trkpt><trkpt lat="38.91269544367391" lon="-9.373085013089177"><ele>33.0</ele><time>2026-04-19T09:14:02.999Z</time></trkpt><trkpt lat="38.91271936232251" lon="-9.373228764556233"><ele>32.199999999999996</ele><time>2026-04-19T09:14:04.999Z</time></trkpt><trkpt lat="38.912719517843456" lon="-9.373381917715822"><ele>31.4</ele><time>2026-04-19T09:14:06.999Z</time></trkpt><trkpt lat="38.912704425007185" lon="-9.373491995481162"><ele>30.599999999999998</ele><time>2026-04-19T09:14:08.999Z</time></trkpt><trkpt lat="38.91272082100127" lon="-9.373612487512462"><ele>29.799999999999997</ele><time>2026-04-19T09:14:10.999Z</time></trkpt><trkpt lat="38.91271319191799" lon="-9.373728909826857"><ele>29.0</ele><time>2026-04-19T09:14:12.999Z</time></trkpt><trkpt lat="38.91273538549251" lon="-9.373829270073045"><ele>28.333333333333332</ele><time>2026-04-19T09:14:14.999Z</time></trkpt><trkpt lat="38.9127744188296" lon="-9.37389905439972"><ele>27.666666666666664</ele><time>2026-04-19T09:14:16.999Z</time></trkpt><trkpt lat="38.912789016453075" lon="-9.373985784789724"><ele>27.0</ele><time>2026-04-19T09:14:18.999Z</time></trkpt><trkpt lat="38.91279160869607" lon="-9.374098365551902"><ele>26.333333333333336</ele><time>2026-04-19T09:14:20.999Z</time></trkpt><trkpt lat="38.91279134117436" lon="-9.374195201898733"><ele>25.666666666666668</ele><time>2026-04-19T09:14:22.999Z</time></trkpt><trkpt lat="38.91279242609161" lon="-9.37432667260214"><ele>25.0</ele><time>2026-04-19T09:14:25.999Z</time></trkpt><trkpt lat="38.91279130093797" lon="-9.374426132028207"><ele>25.000000000000004</ele><time>2026-04-19T09:14:27.999Z</time></trkpt><trkpt lat="38.912802996523915" lon="-9.374509301406944"><ele>25.0</ele><time>2026-04-19T09:14:29.999Z</time></trkpt><trkpt lat="38.91281409080304" lon="-9.374591507212049"><ele>25.0</ele><time>2026-04-19T09:14:31.999Z</time></trkpt><trkpt lat="38.912814427019086" lon="-9.374679286853853"><ele>25.0</ele><time>2026-04-19T09:14:33.999Z</time></trkpt><trkpt lat="38.912823058088726" lon="-9.374786077339065"><ele>25.0</ele><time>2026-04-19T09:14:35.999Z</time></trkpt><trkpt lat="38.91283864451622" lon="-9.37488575371766"><ele>25.000000000000004</ele><time>2026-04-19T09:14:37.999Z</time></trkpt><trkpt lat="38.91287554454376" lon="-9.374969093877892"><ele>25.0</ele><time>2026-04-19T09:14:39.999Z</time></trkpt><trkpt lat="38.9129227096417" lon="-9.37505366133832"><ele>24.8</ele><time>2026-04-19T09:14:41.999Z</time></trkpt><trkpt lat="38.91294647287645" lon="-9.375174527603528"><ele>24.6</ele><time>2026-04-19T09:14:43.999Z</time></trkpt><trkpt lat="38.91294060762389" lon="-9.375324828102917"><ele>24.4</ele><time>2026-04-19T09:14:45.999Z</time></trkpt><trkpt lat="38.912978050889905" lon="-9.375393765340242"><ele>24.2</ele><time>2026-04-19T09:14:46.999Z</time></trkpt><trkpt lat="38.91302534662598" lon="-9.375496455687028"><ele>24.0</ele><time>2026-04-19T09:14:48.999Z</time></trkpt><trkpt lat="38.91307115538554" lon="-9.37560917885298"><ele>24.0</ele><time>2026-04-19T09:14:50.999Z</time></trkpt><trkpt lat="38.913136121836416" lon="-9.375659792033971"><ele>24.0</ele><time>2026-04-19T09:14:52.999Z</time></trkpt><trkpt lat="38.91322774623524" lon="-9.375691024082982"><ele>24.0</ele><time>2026-04-19T09:14:56Z</time></trkpt><trkpt lat="38.913293192662756" lon="-9.375741768101753"><ele>24.0</ele><time>2026-04-19T09:15:02Z</time></trkpt><trkpt lat="38.91333877589609" lon="-9.37580130772407"><ele>24.0</ele><time>2026-04-19T09:15:08Z</time></trkpt><trkpt lat="38.91339828943445" lon="-9.375851243657065"><ele>24.0</ele><time>2026-04-19T09:15:13Z</time></trkpt><trkpt lat="38.91347126272183" lon="-9.375876121475928"><ele>27.666666666666668</ele><time>2026-04-19T09:15:18Z</time></trkpt><trkpt lat="38.91355291392545" lon="-9.37582234326198"><ele>31.333333333333336</ele><time>2026-04-19T09:15:21Z</time></trkpt><trkpt lat="38.9136219526078" lon="-9.375766610006767"><ele>35.0</ele><time>2026-04-19T09:15:23Z</time></trkpt><trkpt lat="38.913687014748724" lon="-9.375697713243818"><ele>38.66666666666667</ele><time>2026-04-19T09:15:25Z</time></trkpt><trkpt lat="38.913766681957966" lon="-9.375630903479072"><ele>42.333333333333336</ele><time>2026-04-19T09:15:27Z</time></trkpt><trkpt lat="38.913835846686226" lon="-9.375551573981905"><ele>46.0</ele><time>2026-04-19T09:15:29Z</time></trkpt><trkpt lat="38.913897583013565" lon="-9.375521073860034"><ele>43.833333333333336</ele><time>2026-04-19T09:15:31Z</time></trkpt><trkpt lat="38.913941975763805" lon="-9.375421105853535"><ele>41.66666666666667</ele><time>2026-04-19T09:15:33Z</time></trkpt><trkpt lat="38.91399848360698" lon="-9.375308771382167"><ele>39.5</ele><time>2026-04-19T09:15:35Z</time></trkpt><trkpt lat="38.91403783072785" lon="-9.375215906632228"><ele>37.333333333333336</ele><time>2026-04-19T09:15:37Z</time></trkpt><trkpt lat="38.914058152941735" lon="-9.375119121533652"><ele>35.166666666666664</ele><time>2026-04-19T09:15:40Z</time></trkpt><trkpt lat="38.91409322787948" lon="-9.375047647659542"><ele>33.0</ele><time>2026-04-19T09:15:44Z</time></trkpt><trkpt lat="38.91413148245059" lon="-9.37493509747081"><ele>33.0</ele><time>2026-04-19T09:16:01Z</time></trkpt><trkpt lat="38.91417375655323" lon="-9.374869275747804"><ele>33.0</ele><time>2026-04-19T09:16:02.999Z</time></trkpt><trkpt lat="38.91419894148254" lon="-9.37477032238373"><ele>33.0</ele><time>2026-04-19T09:16:04.999Z</time></trkpt><trkpt lat="38.914246401768786" lon="-9.374674783155255"><ele>33.0</ele><time>2026-04-19T09:16:06.999Z</time></trkpt><trkpt lat="38.91427601590994" lon="-9.374590474733282"><ele>33.0</ele><time>2026-04-19T09:16:08.999Z</time></trkpt><trkpt lat="38.91430494283856" lon="-9.37447543057598"><ele>33.0</ele><time>2026-04-19T09:16:11.999Z</time></trkpt><trkpt lat="38.91433959543535" lon="-9.374403043936649"><ele>35.166666666666664</ele><time>2026-04-19T09:16:14.999Z</time></trkpt><trkpt lat="38.914366023467764" lon="-9.374328263591671"><ele>37.333333333333336</ele><time>2026-04-19T09:16:19.999Z</time></trkpt><trkpt lat="38.914381677940405" lon="-9.374233480924968"><ele>39.5</ele><time>2026-04-19T09:16:35.999Z</time></trkpt><trkpt lat="38.91439622732068" lon="-9.37413507621912"><ele>41.66666666666667</ele><time>2026-04-19T09:16:38.999Z</time></trkpt><trkpt lat="38.914455698216905" lon="-9.374051313974991"><ele>43.833333333333336</ele><time>2026-04-19T09:16:41.999Z</time></trkpt><trkpt lat="38.91450395218687" lon="-9.37398846904976"><ele>46.0</ele><time>2026-04-19T09:16:44.999Z</time></trkpt><trkpt lat="38.91454627755661" lon="-9.373908282472948"><ele>43.714285714285715</ele><time>2026-04-19T09:16:46.999Z</time></trkpt><trkpt lat="38.91458768301449" lon="-9.373842029608614"><ele>41.42857142857142</ele><time>2026-04-19T09:16:48.999Z</time></trkpt><trkpt lat="38.91461126387668" lon="-9.373760901188776"><ele>39.14285714285714</ele><time>2026-04-19T09:17:01Z</time></trkpt><trkpt lat="38.91466494494874" lon="-9.373705277828687"><ele>36.85714285714286</ele><time>2026-04-19T09:17:04Z</time></trkpt><trkpt lat="38.9147275736464" lon="-9.373695040670011"><ele>34.57142857142857</ele><time>2026-04-19T09:17:09Z</time></trkpt><trkpt lat="38.914771434010625" lon="-9.373603152259264"><ele>32.285714285714285</ele><time>2026-04-19T09:17:26Z</time></trkpt><trkpt lat="38.91484460377493" lon="-9.373571246215011"><ele>30.0</ele><time>2026-04-19T09:17:28Z</time></trkpt><trkpt lat="38.914939116409805" lon="-9.373584028460673"><ele>30.0</ele><time>2026-04-19T09:17:30Z</time></trkpt><trkpt lat="38.91502495875129" lon="-9.373529617197484"><ele>30.0</ele><time>2026-04-19T09:17:32Z</time></trkpt><trkpt lat="38.915119394717955" lon="-9.373416706538453"><ele>30.0</ele><time>2026-04-19T09:17:34Z</time></trkpt><trkpt lat="38.915183060516576" lon="-9.373362950697746"><ele>30.0</ele><time>2026-04-19T09:17:35Z</time></trkpt><trkpt lat="38.915278926951714" lon="-9.373306091981739"><ele>30.0</ele><time>2026-04-19T09:17:37Z</time></trkpt><trkpt lat="38.91535670505212" lon="-9.37323514121192"><ele>31.333333333333332</ele><time>2026-04-19T09:17:39Z</time></trkpt><trkpt lat="38.915464847067824" lon="-9.37318069590004"><ele>32.666666666666664</ele><time>2026-04-19T09:17:41Z</time></trkpt><trkpt lat="38.91557183035631" lon="-9.373150693200854"><ele>34.0</ele><time>2026-04-19T09:17:42.999Z</time></trkpt><trkpt lat="38.91563523891627" lon="-9.373146643129212"><ele>35.33333333333333</ele><time>2026-04-19T09:17:43.999Z</time></trkpt><trkpt lat="38.91570148994324" lon="-9.373115866084593"><ele>36.666666666666664</ele><time>2026-04-19T09:17:44.999Z</time></trkpt><trkpt lat="38.91577680643894" lon="-9.373074961834156"><ele>38.0</ele><time>2026-04-19T09:17:45.999Z</time></trkpt><trkpt lat="38.91583789560589" lon="-9.373044109880084"><ele>36.8</ele><time>2026-04-19T09:17:46.999Z</time></trkpt><trkpt lat="38.91593958590142" lon="-9.373048058488173"><ele>35.599999999999994</ele><time>2026-04-19T09:17:48.999Z</time></trkpt><trkpt lat="38.91607869712359" lon="-9.373060074501916"><ele>34.400000000000006</ele><time>2026-04-19T09:17:50.999Z</time></trkpt><trkpt lat="38.91615023986939" lon="-9.373051162606144"><ele>33.2</ele><time>2026-04-19T09:17:51.999Z</time></trkpt><trkpt lat="38.91624529166108" lon="-9.373017658808648"><ele>32.0</ele><time>2026-04-19T09:17:52.999Z</time></trkpt><trkpt lat="38.91634371249131" lon="-9.373010640788102"><ele>32.0</ele><time>2026-04-19T09:17:55.999Z</time></trkpt><trkpt lat="38.91643335775983" lon="-9.372997919796404"><ele>32.0</ele><time>2026-04-19T09:17:57.999Z</time></trkpt><trkpt lat="38.91651887235199" lon="-9.37297542704232"><ele>32.0</ele><time>2026-04-19T09:17:59.999Z</time></trkpt><trkpt lat="38.916543491187525" lon="-9.373115325121727"><ele>32.0</ele><time>2026-04-19T09:18:01.999Z</time></trkpt><trkpt lat="38.91652704336737" lon="-9.373195313328843"><ele>32.0</ele><time>2026-04-19T09:18:02.999Z</time></trkpt><trkpt lat="38.916478708437054" lon="-9.373321315057092"><ele>32.0</ele><time>2026-04-19T09:18:04.999Z</time></trkpt><trkpt lat="38.916404092485585" lon="-9.373387986635349"><ele>32.0</ele><time>2026-04-19T09:18:06.999Z</time></trkpt><trkpt lat="38.91633689549157" lon="-9.37348486410618"><ele>32.0</ele><time>2026-04-19T09:18:08.999Z</time></trkpt><trkpt lat="38.916275027693125" lon="-9.373596653926079"><ele>32.0</ele><time>2026-04-19T09:18:10.999Z</time></trkpt><trkpt lat="38.91621053620555" lon="-9.373666284897407"><ele>32.0</ele><time>2026-04-19T09:18:12.999Z</time></trkpt><trkpt lat="38.916160972990134" lon="-9.3737827491695"><ele>35.2</ele><time>2026-04-19T09:18:14.999Z</time></trkpt><trkpt lat="38.91615339151889" lon="-9.37391546071365"><ele>38.400000000000006</ele><time>2026-04-19T09:18:16.999Z</time></trkpt><trkpt lat="38.91607211774028" lon="-9.374009297463012"><ele>41.599999999999994</ele><time>2026-04-19T09:18:18.999Z</time></trkpt><trkpt lat="38.91596341391119" lon="-9.374019681004182"><ele>44.8</ele><time>2026-04-19T09:18:20.999Z</time></trkpt><trkpt lat="38.91589649739624" lon="-9.374021623731716"><ele>48.0</ele><time>2026-04-19T09:18:21.999Z</time></trkpt><trkpt lat="38.91583376102072" lon="-9.374013458648214"><ele>49.333333333333336</ele><time>2026-04-19T09:18:22.999Z</time></trkpt><trkpt lat="38.915736321730584" lon="-9.374006284569061"><ele>50.66666666666667</ele><time>2026-04-19T09:18:24.999Z</time></trkpt><trkpt lat="38.91567318472183" lon="-9.374051959173334"><ele>52.0</ele><time>2026-04-19T09:18:25.999Z</time></trkpt><trkpt lat="38.91559812171682" lon="-9.37408601204791"><ele>53.333333333333336</ele><time>2026-04-19T09:18:26.999Z</time></trkpt><trkpt lat="38.91552384196022" lon="-9.37412267509686"><ele>54.66666666666667</ele><time>2026-04-19T09:18:27.999Z</time></trkpt><trkpt lat="38.915459739569336" lon="-9.374197525098166"><ele>56.0</ele><time>2026-04-19T09:18:28.999Z</time></trkpt><trkpt lat="38.91537958555488" lon="-9.374243816426482"><ele>56.0</ele><time>2026-04-19T09:18:29.999Z</time></trkpt><trkpt lat="38.91532359541458" lon="-9.374348552140063"><ele>55.99999999999999</ele><time>2026-04-19T09:18:31.999Z</time></trkpt><trkpt lat="38.91536346225634" lon="-9.374418127492548"><ele>55.99999999999999</ele><time>2026-04-19T09:18:32.999Z</time></trkpt><trkpt lat="38.9153942905817" lon="-9.374556225836944"><ele>56.0</ele><time>2026-04-19T09:18:34.999Z</time></trkpt><trkpt lat="38.91542940567193" lon="-9.374708310026886"><ele>56.0</ele><time>2026-04-19T09:18:36.999Z</time></trkpt><trkpt lat="38.91541129387634" lon="-9.37478714785039"><ele>57.333333333333336</ele><time>2026-04-19T09:18:37.999Z</time></trkpt><trkpt lat="38.91531219602745" lon="-9.374856417773952"><ele>58.66666666666667</ele><time>2026-04-19T09:18:39.999Z</time></trkpt><trkpt lat="38.91524215237397" lon="-9.374856151938792"><ele>60.0</ele><time>2026-04-19T09:18:40.999Z</time></trkpt><trkpt lat="38.915129391100876" lon="-9.37485498933715"><ele>61.33333333333333</ele><time>2026-04-19T09:18:42.999Z</time></trkpt><trkpt lat="38.91509755630842" lon="-9.37495334016655"><ele>62.666666666666664</ele><time>2026-04-19T09:18:44.999Z</time></trkpt><trkpt lat="38.91514702318974" lon="-9.375012601678284"><ele>64.0</ele><time>2026-04-19T09:18:45.999Z</time></trkpt><trkpt lat="38.91520927142332" lon="-9.375103938788893"><ele>64.0</ele><time>2026-04-19T09:18:47.999Z</time></trkpt><trkpt lat="38.915266867467174" lon="-9.37523883805727"><ele>64.0</ele><time>2026-04-19T09:18:49.999Z</time></trkpt><trkpt lat="38.915346018232" lon="-9.375346917146755"><ele>64.0</ele><time>2026-04-19T09:18:51.999Z</time></trkpt><trkpt lat="38.91541587699383" lon="-9.375431648465561"><ele>64.0</ele><time>2026-04-19T09:18:53.999Z</time></trkpt><trkpt lat="38.91549477101098" lon="-9.375466769323634"><ele>64.0</ele><time>2026-04-19T09:18:54.999Z</time></trkpt><trkpt lat="38.915567885094774" lon="-9.375518627584322"><ele>67.33333333333333</ele><time>2026-04-19T09:18:55.999Z</time></trkpt><trkpt lat="38.91562565012308" lon="-9.375592815277512"><ele>70.66666666666666</ele><time>2026-04-19T09:18:56.999Z</time></trkpt><trkpt lat="38.915659594591276" lon="-9.375676846509176"><ele>74.0</ele><time>2026-04-19T09:18:57.999Z</time></trkpt><trkpt lat="38.91569989274809" lon="-9.375740948138656"><ele>77.33333333333333</ele><time>2026-04-19T09:18:58.999Z</time></trkpt><trkpt lat="38.915754282134436" lon="-9.375792475126303"><ele>80.66666666666667</ele><time>2026-04-19T09:18:59.999Z</time></trkpt><trkpt lat="38.91584300413293" lon="-9.37586415550397"><ele>84.0</ele><time>2026-04-19T09:19:01.999Z</time></trkpt><trkpt lat="38.91590343607619" lon="-9.375936048448033"><ele>84.0</ele><time>2026-04-19T09:19:04Z</time></trkpt><trkpt lat="38.915848886206405" lon="-9.376029780681804"><ele>84.0</ele><time>2026-04-19T09:19:06Z</time></trkpt><trkpt lat="38.91577743823903" lon="-9.376010658157435"><ele>84.0</ele><time>2026-04-19T09:19:07Z</time></trkpt><trkpt lat="38.91571598624838" lon="-9.375988052084592"><ele>84.0</ele><time>2026-04-19T09:19:08Z</time></trkpt><trkpt lat="38.91565006483176" lon="-9.375997774152117"><ele>84.0</ele><time>2026-04-19T09:19:09Z</time></trkpt><trkpt lat="38.915582286150276" lon="-9.37598722274169"><ele>84.0</ele><time>2026-04-19T09:19:10Z</time></trkpt><trkpt lat="38.915515638820004" lon="-9.37598815664444"><ele>84.0</ele><time>2026-04-19T09:19:11Z</time></trkpt><trkpt lat="38.915462052020054" lon="-9.37609749967062"><ele>84.0</ele><time>2026-04-19T09:19:13Z</time></trkpt><trkpt lat="38.91552604517536" lon="-9.376244269675555"><ele>84.0</ele><time>2026-04-19T09:19:15Z</time></trkpt><trkpt lat="38.91560946062463" lon="-9.37632963215102"><ele>84.0</ele><time>2026-04-19T09:19:17Z</time></trkpt><trkpt lat="38.91567118089374" lon="-9.376354790010266"><ele>84.0</ele><time>2026-04-19T09:19:18Z</time></trkpt><trkpt lat="38.91576601355533" lon="-9.376427404238363"><ele>84.0</ele><time>2026-04-19T09:19:20Z</time></trkpt><trkpt lat="38.9158480798649" lon="-9.376547418731073"><ele>87.6</ele><time>2026-04-19T09:19:22Z</time></trkpt><trkpt lat="38.91590870114884" lon="-9.37660626466403"><ele>91.2</ele><time>2026-04-19T09:19:23Z</time></trkpt><trkpt lat="38.91598133765274" lon="-9.376627991455024"><ele>94.8</ele><time>2026-04-19T09:19:24Z</time></trkpt><trkpt lat="38.91606544982155" lon="-9.37667699365674"><ele>98.39999999999999</ele><time>2026-04-19T09:19:26Z</time></trkpt><trkpt lat="38.91602652029582" lon="-9.376808142073262"><ele>102.0</ele><time>2026-04-19T09:19:28Z</time></trkpt><trkpt lat="38.915948648560295" lon="-9.376917944193842"><ele>102.0</ele><time>2026-04-19T09:19:30Z</time></trkpt><trkpt lat="38.91588442873386" lon="-9.377054547083294"><ele>102.0</ele><time>2026-04-19T09:19:32Z</time></trkpt><trkpt lat="38.91586313250509" lon="-9.377163516595816"><ele>102.0</ele><time>2026-04-19T09:19:33Z</time></trkpt><trkpt lat="38.91585405031068" lon="-9.377266396938916"><ele>102.0</ele><time>2026-04-19T09:19:34Z</time></trkpt><trkpt lat="38.91587166621491" lon="-9.377351611746693"><ele>102.0</ele><time>2026-04-19T09:19:35Z</time></trkpt><trkpt lat="38.91593502967123" lon="-9.377426684821058"><ele>102.0</ele><time>2026-04-19T09:19:36Z</time></trkpt><trkpt lat="38.91598749881378" lon="-9.377475208273362"><ele>104.83333333333333</ele><time>2026-04-19T09:19:37Z</time></trkpt><trkpt lat="38.91602465218497" lon="-9.377584682138213"><ele>107.66666666666666</ele><time>2026-04-19T09:19:39Z</time></trkpt><trkpt lat="38.915999255012764" lon="-9.377689920945018"><ele>110.5</ele><time>2026-04-19T09:20:06.999Z</time></trkpt><trkpt lat="38.91600000426642" lon="-9.377811711561671"><ele>113.33333333333333</ele><time>2026-04-19T09:20:08.999Z</time></trkpt><trkpt lat="38.91599652647297" lon="-9.377897638530813"><ele>116.16666666666666</ele><time>2026-04-19T09:20:09.999Z</time></trkpt><trkpt lat="38.91596563212374" lon="-9.377996746156958"><ele>119.0</ele><time>2026-04-19T09:20:10.999Z</time></trkpt><trkpt lat="38.91593601493139" lon="-9.378112931627296"><ele>120.16666666666666</ele><time>2026-04-19T09:20:11.999Z</time></trkpt><trkpt lat="38.915906145866074" lon="-9.378240405861465"><ele>121.33333333333333</ele><time>2026-04-19T09:20:12.999Z</time></trkpt><trkpt lat="38.91587093249493" lon="-9.378358695345584"><ele>122.5</ele><time>2026-04-19T09:20:13.999Z</time></trkpt><trkpt lat="38.915813033674425" lon="-9.378431859292357"><ele>123.66666666666666</ele><time>2026-04-19T09:20:14.999Z</time></trkpt><trkpt lat="38.91577252827654" lon="-9.378507034007095"><ele>124.83333333333333</ele><time>2026-04-19T09:20:15.999Z</time></trkpt><trkpt lat="38.91571353410976" lon="-9.378570884382354"><ele>126.0</ele><time>2026-04-19T09:20:16.999Z</time></trkpt><trkpt lat="38.915625942005676" lon="-9.378590607727606"><ele>126.0</ele><time>2026-04-19T09:20:17.999Z</time></trkpt><trkpt lat="38.91554516955503" lon="-9.378675123033855"><ele>126.0</ele><time>2026-04-19T09:20:19.999Z</time></trkpt><trkpt lat="38.91552129868918" lon="-9.378766168262667"><ele>126.0</ele><time>2026-04-19T09:20:21.999Z</time></trkpt><trkpt lat="38.91568303321199" lon="-9.378933042976707"><ele>126.0</ele><time>2026-04-19T09:20:23.999Z</time></trkpt><trkpt lat="38.91575339086122" lon="-9.379022495269238"><ele>127.25</ele><time>2026-04-19T09:20:24.999Z</time></trkpt><trkpt lat="38.91581156401808" lon="-9.379122881278747"><ele>128.5</ele><time>2026-04-19T09:20:26.999Z</time></trkpt><trkpt lat="38.915714127426774" lon="-9.379276938937316"><ele>129.75</ele><time>2026-04-19T09:20:28.999Z</time></trkpt><trkpt lat="38.91571073698635" lon="-9.379404213642516"><ele>131.0</ele><time>2026-04-19T09:20:29.999Z</time></trkpt><trkpt lat="38.915669250496826" lon="-9.379535533948161"><ele>131.0</ele><time>2026-04-19T09:20:30.999Z</time></trkpt><trkpt lat="38.91561238748157" lon="-9.379651557233295"><ele>131.0</ele><time>2026-04-19T09:20:31.999Z</time></trkpt><trkpt lat="38.915564520524455" lon="-9.379765954431326"><ele>131.0</ele><time>2026-04-19T09:20:33.999Z</time></trkpt><trkpt lat="38.91566927417187" lon="-9.37983742170054"><ele>131.0</ele><time>2026-04-19T09:20:36.999Z</time></trkpt><trkpt lat="38.91576084555681" lon="-9.379887415948753"><ele>131.0</ele><time>2026-04-19T09:20:38.999Z</time></trkpt><trkpt lat="38.91581289580897" lon="-9.379965989833813"><ele>132.33333333333331</ele><time>2026-04-19T09:20:39.999Z</time></trkpt><trkpt lat="38.91585044496555" lon="-9.380084935840701"><ele>133.66666666666666</ele><time>2026-04-19T09:20:40.999Z</time></trkpt><trkpt lat="38.9158833909821" lon="-9.380185309750287"><ele>135.0</ele><time>2026-04-19T09:20:41.999Z</time></trkpt><trkpt lat="38.915926531585846" lon="-9.380283605363848"><ele>136.33333333333334</ele><time>2026-04-19T09:20:42.999Z</time></trkpt><trkpt lat="38.91598330755343" lon="-9.380339731313308"><ele>137.66666666666669</ele><time>2026-04-19T09:20:44.999Z</time></trkpt><trkpt lat="38.91602426671792" lon="-9.380422881704403"><ele>139.0</ele><time>2026-04-19T09:20:47.999Z</time></trkpt><trkpt lat="38.91614341287103" lon="-9.380270503020016"><ele>140.16666666666669</ele><time>2026-04-19T09:20:48.999Z</time></trkpt><trkpt lat="38.9162224170138" lon="-9.380219223033203"><ele>141.33333333333334</ele><time>2026-04-19T09:20:49.999Z</time></trkpt><trkpt lat="38.91630111349621" lon="-9.380164513072035"><ele>142.5</ele><time>2026-04-19T09:20:50.999Z</time></trkpt><trkpt lat="38.91635161514663" lon="-9.380093086392483"><ele>143.66666666666666</ele><time>2026-04-19T09:20:51.999Z</time></trkpt><trkpt lat="38.9163964227437" lon="-9.379993136012311"><ele>144.83333333333331</ele><time>2026-04-19T09:20:52.999Z</time></trkpt><trkpt lat="38.91645252626673" lon="-9.379904067427038"><ele>146.0</ele><time>2026-04-19T09:20:53.999Z</time></trkpt><trkpt lat="38.91650561226427" lon="-9.379834932231535"><ele>146.0</ele><time>2026-04-19T09:20:54.999Z</time></trkpt><trkpt lat="38.91656931566957" lon="-9.379761096243486"><ele>146.0</ele><time>2026-04-19T09:20:55.999Z</time></trkpt><trkpt lat="38.91661895104074" lon="-9.379663352727713"><ele>146.0</ele><time>2026-04-19T09:20:56.999Z</time></trkpt><trkpt lat="38.91666954259904" lon="-9.379575515023513"><ele>146.0</ele><time>2026-04-19T09:20:57.999Z</time></trkpt><trkpt lat="38.9167158194844" lon="-9.379486776092513"><ele>146.0</ele><time>2026-04-19T09:20:58.999Z</time></trkpt><trkpt lat="38.91676521298669" lon="-9.379407203229354"><ele>146.0</ele><time>2026-04-19T09:20:59.999Z</time></trkpt><trkpt lat="38.916828696015315" lon="-9.379332963741389"><ele>145.33333333333331</ele><time>2026-04-19T09:21:00.999Z</time></trkpt><trkpt lat="38.916884981776526" lon="-9.379288563016953"><ele>144.66666666666666</ele><time>2026-04-19T09:21:01.999Z</time></trkpt><trkpt lat="38.91694752369505" lon="-9.379204877144886"><ele>144.0</ele><time>2026-04-19T09:21:03.999Z</time></trkpt><trkpt lat="38.917015449665215" lon="-9.379231351003892"><ele>143.33333333333334</ele><time>2026-04-19T09:21:28Z</time></trkpt><trkpt lat="38.91713177265717" lon="-9.37923639793167"><ele>142.66666666666669</ele><time>2026-04-19T09:21:30Z</time></trkpt><trkpt lat="38.91722668298531" lon="-9.379252644142133"><ele>142.0</ele><time>2026-04-19T09:21:31Z</time></trkpt><trkpt lat="38.917324800567286" lon="-9.379240161087212"><ele>142.0</ele><time>2026-04-19T09:21:32Z</time></trkpt><trkpt lat="38.91745135103291" lon="-9.379227414824406"><ele>142.0</ele><time>2026-04-19T09:21:33Z</time></trkpt><trkpt lat="38.91756766167034" lon="-9.379241772152913"><ele>142.0</ele><time>2026-04-19T09:21:34Z</time></trkpt><trkpt lat="38.9176612289852" lon="-9.379245117510703"><ele>142.0</ele><time>2026-04-19T09:21:35Z</time></trkpt><trkpt lat="38.91774756718928" lon="-9.379254114857101"><ele>142.0</ele><time>2026-04-19T09:21:36Z</time></trkpt><trkpt lat="38.91782568962759" lon="-9.37925367316706"><ele>141.83333333333334</ele><time>2026-04-19T09:21:37Z</time></trkpt><trkpt lat="38.91790935623121" lon="-9.379263836628503"><ele>141.66666666666669</ele><time>2026-04-19T09:21:38Z</time></trkpt><trkpt lat="38.91798106456032" lon="-9.379295285277964"><ele>141.5</ele><time>2026-04-19T09:21:39Z</time></trkpt><trkpt lat="38.91805175861211" lon="-9.379340201284723"><ele>141.33333333333334</ele><time>2026-04-19T09:21:40Z</time></trkpt><trkpt lat="38.918079793872415" lon="-9.379455585836737"><ele>141.16666666666666</ele><time>2026-04-19T09:21:41Z</time></trkpt><trkpt lat="38.91812715074987" lon="-9.379584151033647"><ele>141.0</ele><time>2026-04-19T09:21:42Z</time></trkpt><trkpt lat="38.91817074276373" lon="-9.379711030539132"><ele>141.0</ele><time>2026-04-19T09:21:43Z</time></trkpt><trkpt lat="38.918210766715596" lon="-9.379835003772595"><ele>141.0</ele><time>2026-04-19T09:21:44Z</time></trkpt><trkpt lat="38.91824917831134" lon="-9.379951729595922"><ele>141.0</ele><time>2026-04-19T09:21:45Z</time></trkpt><trkpt lat="38.91827889425052" lon="-9.380052281863755"><ele>141.0</ele><time>2026-04-19T09:21:46Z</time></trkpt><trkpt lat="38.91830718866473" lon="-9.380146278803094"><ele>141.0</ele><time>2026-04-19T09:21:47Z</time></trkpt><trkpt lat="38.91834362118883" lon="-9.380255079824046"><ele>141.0</ele><time>2026-04-19T09:21:48Z</time></trkpt><trkpt lat="38.91838036688697" lon="-9.380361978054086"><ele>141.0</ele><time>2026-04-19T09:21:49Z</time></trkpt><trkpt lat="38.91842798982715" lon="-9.380434565451457"><ele>141.0</ele><time>2026-04-19T09:21:50Z</time></trkpt><trkpt lat="38.91851282217511" lon="-9.380533324080332"><ele>141.0</ele><time>2026-04-19T09:21:51.999Z</time></trkpt><trkpt lat="38.918640776551506" lon="-9.380546330218401"><ele>141.0</ele><time>2026-04-19T09:21:53.999Z</time></trkpt><trkpt lat="38.91876586138575" lon="-9.380558357181757"><ele>139.8</ele><time>2026-04-19T09:21:55.999Z</time></trkpt><trkpt lat="38.91875705384413" lon="-9.380767139501332"><ele>138.6</ele><time>2026-04-19T09:21:56.999Z</time></trkpt><trkpt lat="38.918765695862696" lon="-9.380853772913328"><ele>137.4</ele><time>2026-04-19T09:21:57.999Z</time></trkpt><trkpt lat="38.91878914486767" lon="-9.380937019208085"><ele>136.2</ele><time>2026-04-19T09:21:58.999Z</time></trkpt><trkpt lat="38.91882869510874" lon="-9.381019212074941"><ele>135.0</ele><time>2026-04-19T09:21:59.999Z</time></trkpt><trkpt lat="38.91887994040744" lon="-9.381103352063123"><ele>135.0</ele><time>2026-04-19T09:22:00.999Z</time></trkpt><trkpt lat="38.91893566521257" lon="-9.3811945043094"><ele>135.0</ele><time>2026-04-19T09:22:01.999Z</time></trkpt><trkpt lat="38.91898617888832" lon="-9.38128094017982"><ele>135.0</ele><time>2026-04-19T09:22:02.999Z</time></trkpt><trkpt lat="38.91904351166978" lon="-9.381358854019657"><ele>135.0</ele><time>2026-04-19T09:22:03.999Z</time></trkpt><trkpt lat="38.91908213720947" lon="-9.381432047147843"><ele>135.0</ele><time>2026-04-19T09:22:04.999Z</time></trkpt><trkpt lat="38.919198874653844" lon="-9.381363969553899"><ele>134.4</ele><time>2026-04-19T09:22:05.999Z</time></trkpt><trkpt lat="38.9193051927014" lon="-9.381360150306365"><ele>133.8</ele><time>2026-04-19T09:22:06.999Z</time></trkpt><trkpt lat="38.91940727150483" lon="-9.381307485693643"><ele>133.2</ele><time>2026-04-19T09:22:07.999Z</time></trkpt><trkpt lat="38.91949852709843" lon="-9.381250068685288"><ele>132.6</ele><time>2026-04-19T09:22:08.999Z</time></trkpt><trkpt lat="38.91957350973792" lon="-9.381174306986708"><ele>132.0</ele><time>2026-04-19T09:22:09.999Z</time></trkpt><trkpt lat="38.919657581325325" lon="-9.381083741338946"><ele>132.0</ele><time>2026-04-19T09:22:10.999Z</time></trkpt><trkpt lat="38.91973240675324" lon="-9.380997846418891"><ele>132.0</ele><time>2026-04-19T09:22:11.999Z</time></trkpt><trkpt lat="38.91980330872087" lon="-9.380932541546564"><ele>132.0</ele><time>2026-04-19T09:22:12.999Z</time></trkpt><trkpt lat="38.91986027765262" lon="-9.380874293934824"><ele>132.0</ele><time>2026-04-19T09:22:13.999Z</time></trkpt><trkpt lat="38.91993612983149" lon="-9.380917282730632"><ele>132.0</ele><time>2026-04-19T09:22:14.999Z</time></trkpt><trkpt lat="38.92000843963893" lon="-9.380907983849506"><ele>132.0</ele><time>2026-04-19T09:22:15.999Z</time></trkpt><trkpt lat="38.92007102193746" lon="-9.380935231073831"><ele>129.66666666666666</ele><time>2026-04-19T09:22:16.999Z</time></trkpt><trkpt lat="38.92013697770455" lon="-9.380943048740324"><ele>127.33333333333334</ele><time>2026-04-19T09:22:17.999Z</time></trkpt><trkpt lat="38.92022146106492" lon="-9.380941237453834"><ele>125.0</ele><time>2026-04-19T09:22:18.999Z</time></trkpt><trkpt lat="38.92030520630735" lon="-9.380934817597467"><ele>122.66666666666667</ele><time>2026-04-19T09:22:19.999Z</time></trkpt><trkpt lat="38.92039275326464" lon="-9.38091573023582"><ele>120.33333333333334</ele><time>2026-04-19T09:22:20.999Z</time></trkpt><trkpt lat="38.92048693698043" lon="-9.380889937836468"><ele>118.0</ele><time>2026-04-19T09:22:21.999Z</time></trkpt><trkpt lat="38.920566329568324" lon="-9.380855280909094"><ele>118.0</ele><time>2026-04-19T09:22:22.999Z</time></trkpt><trkpt lat="38.9206502856169" lon="-9.380813624615953"><ele>118.00000000000001</ele><time>2026-04-19T09:22:23.999Z</time></trkpt><trkpt lat="38.92074713667088" lon="-9.38075832988466"><ele>118.00000000000001</ele><time>2026-04-19T09:22:24.999Z</time></trkpt><trkpt lat="38.92082726386201" lon="-9.38068803551057"><ele>118.0</ele><time>2026-04-19T09:22:25.999Z</time></trkpt><trkpt lat="38.92093786399146" lon="-9.380591525294225"><ele>118.0</ele><time>2026-04-19T09:22:26.999Z</time></trkpt><trkpt lat="38.921035916892805" lon="-9.380511602752483"><ele>116.4</ele><time>2026-04-19T09:22:27.999Z</time></trkpt><trkpt lat="38.92110655049292" lon="-9.38042301761205"><ele>114.80000000000001</ele><time>2026-04-19T09:22:28.999Z</time></trkpt><trkpt lat="38.92117877280429" lon="-9.380328947021907"><ele>113.2</ele><time>2026-04-19T09:22:29.999Z</time></trkpt><trkpt lat="38.921250237436325" lon="-9.38023915299784"><ele>111.6</ele><time>2026-04-19T09:22:30.999Z</time></trkpt><trkpt lat="38.92134925806077" lon="-9.380161258359161"><ele>110.0</ele><time>2026-04-19T09:22:31.999Z</time></trkpt><trkpt lat="38.92145610448105" lon="-9.380130073190282"><ele>110.0</ele><time>2026-04-19T09:22:32.999Z</time></trkpt><trkpt lat="38.92155782852996" lon="-9.380095655189278"><ele>110.0</ele><time>2026-04-19T09:22:33.999Z</time></trkpt><trkpt lat="38.92165512785566" lon="-9.380055006810274"><ele>110.0</ele><time>2026-04-19T09:22:34.999Z</time></trkpt><trkpt lat="38.921780163365824" lon="-9.380032958361085"><ele>110.0</ele><time>2026-04-19T09:22:35.999Z</time></trkpt><trkpt lat="38.92191909687566" lon="-9.38003340791262"><ele>109.5</ele><time>2026-04-19T09:22:36.999Z</time></trkpt><trkpt lat="38.92206932238337" lon="-9.380034204586742"><ele>109.0</ele><time>2026-04-19T09:22:37.999Z</time></trkpt><trkpt lat="38.922194437837504" lon="-9.380029350949398"><ele>108.5</ele><time>2026-04-19T09:22:38.999Z</time></trkpt><trkpt lat="38.92232609776172" lon="-9.380021614110351"><ele>108.0</ele><time>2026-04-19T09:22:39.999Z</time></trkpt><trkpt lat="38.92247330004896" lon="-9.380001298512347"><ele>107.0</ele><time>2026-04-19T09:22:40.999Z</time></trkpt><trkpt lat="38.92262011633432" lon="-9.379983966451471"><ele>106.0</ele><time>2026-04-19T09:22:41.999Z</time></trkpt><trkpt lat="38.92276470920144" lon="-9.379965579659258"><ele>105.0</ele><time>2026-04-19T09:22:42.999Z</time></trkpt><trkpt lat="38.92289394103605" lon="-9.379960713174695"><ele>104.0</ele><time>2026-04-19T09:22:43.999Z</time></trkpt><trkpt lat="38.92301976152811" lon="-9.37997842181687"><ele>104.0</ele><time>2026-04-19T09:22:44.999Z</time></trkpt><trkpt lat="38.92313352781693" lon="-9.379992081368412"><ele>104.0</ele><time>2026-04-19T09:22:45.999Z</time></trkpt><trkpt lat="38.92326273945616" lon="-9.37999606402505"><ele>104.0</ele><time>2026-04-19T09:22:46.999Z</time></trkpt><trkpt lat="38.923386302845344" lon="-9.380001728203545"><ele>104.0</ele><time>2026-04-19T09:22:47.999Z</time></trkpt><trkpt lat="38.92352763030802" lon="-9.380018734270136"><ele>103.5</ele><time>2026-04-19T09:22:48.999Z</time></trkpt><trkpt lat="38.923680560119074" lon="-9.380021435856124"><ele>103.0</ele><time>2026-04-19T09:22:49.999Z</time></trkpt><trkpt lat="38.923822419697274" lon="-9.380017479692961"><ele>102.5</ele><time>2026-04-19T09:22:50.999Z</time></trkpt><trkpt lat="38.9239369566579" lon="-9.380001271267686"><ele>102.0</ele><time>2026-04-19T09:22:51.999Z</time></trkpt><trkpt lat="38.92405047609818" lon="-9.379978879635477"><ele>102.0</ele><time>2026-04-19T09:22:52.999Z</time></trkpt><trkpt lat="38.92416740083991" lon="-9.379936974703304"><ele>102.0</ele><time>2026-04-19T09:22:53.999Z</time></trkpt><trkpt lat="38.924281370702076" lon="-9.379888292821663"><ele>102.0</ele><time>2026-04-19T09:22:54.999Z</time></trkpt><trkpt lat="38.92438772141047" lon="-9.379908269758547"><ele>102.0</ele><time>2026-04-19T09:22:55.999Z</time></trkpt><trkpt lat="38.92450562609523" lon="-9.379895540173681"><ele>103.39999999999999</ele><time>2026-04-19T09:22:56.999Z</time></trkpt><trkpt lat="38.92462436935636" lon="-9.37991144963093"><ele>104.8</ele><time>2026-04-19T09:22:57.999Z</time></trkpt><trkpt lat="38.92474485477916" lon="-9.379930278450834"><ele>106.2</ele><time>2026-04-19T09:22:58.999Z</time></trkpt><trkpt lat="38.92483275930653" lon="-9.379886417942698"><ele>107.6</ele><time>2026-04-19T09:22:59.999Z</time></trkpt><trkpt lat="38.92493166641045" lon="-9.37985425765122"><ele>109.0</ele><time>2026-04-19T09:23:00.999Z</time></trkpt><trkpt lat="38.92504591516887" lon="-9.379809730190745"><ele>109.75</ele><time>2026-04-19T09:23:01.999Z</time></trkpt><trkpt lat="38.92515919409227" lon="-9.37977968678602"><ele>110.5</ele><time>2026-04-19T09:23:02.999Z</time></trkpt><trkpt lat="38.92525646504743" lon="-9.379730947052078"><ele>111.25</ele><time>2026-04-19T09:23:03.999Z</time></trkpt><trkpt lat="38.925362059956825" lon="-9.379659302264178"><ele>112.0</ele><time>2026-04-19T09:23:04.999Z</time></trkpt><trkpt lat="38.92546702934714" lon="-9.37959978907463"><ele>110.25</ele><time>2026-04-19T09:23:05.999Z</time></trkpt><trkpt lat="38.92558403076271" lon="-9.379610727183353"><ele>108.5</ele><time>2026-04-19T09:23:06.999Z</time></trkpt><trkpt lat="38.92571443954099" lon="-9.379603896930252"><ele>106.75</ele><time>2026-04-19T09:23:07.999Z</time></trkpt><trkpt lat="38.92584315504425" lon="-9.379586515389779"><ele>105.0</ele><time>2026-04-19T09:23:08.999Z</time></trkpt><trkpt lat="38.92597871385331" lon="-9.379592149264814"><ele>103.5</ele><time>2026-04-19T09:23:09.999Z</time></trkpt><trkpt lat="38.92612165893761" lon="-9.379570563393978"><ele>102.0</ele><time>2026-04-19T09:23:10.999Z</time></trkpt><trkpt lat="38.92625525012957" lon="-9.379567445014926"><ele>100.5</ele><time>2026-04-19T09:23:11.999Z</time></trkpt><trkpt lat="38.92636789154518" lon="-9.379564856619538"><ele>99.0</ele><time>2026-04-19T09:23:12.999Z</time></trkpt><trkpt lat="38.92646022371285" lon="-9.379628016299963"><ele>101.2</ele><time>2026-04-19T09:23:13.999Z</time></trkpt><trkpt lat="38.926533854490835" lon="-9.37969804961746"><ele>103.4</ele><time>2026-04-19T09:23:15Z</time></trkpt><trkpt lat="38.92658992237527" lon="-9.379785405848905"><ele>105.6</ele><time>2026-04-19T09:23:16Z</time></trkpt><trkpt lat="38.92662260813981" lon="-9.379918039954138"><ele>107.8</ele><time>2026-04-19T09:23:17Z</time></trkpt><trkpt lat="38.926662761122316" lon="-9.380034368797874"><ele>110.0</ele><time>2026-04-19T09:23:18Z</time></trkpt><trkpt lat="38.92671431505656" lon="-9.380165123047947"><ele>104.66666666666666</ele><time>2026-04-19T09:23:19Z</time></trkpt><trkpt lat="38.926781519401395" lon="-9.380251658586278"><ele>99.33333333333333</ele><time>2026-04-19T09:23:20Z</time></trkpt><trkpt lat="38.926844321454595" lon="-9.38033938011406"><ele>94.0</ele><time>2026-04-19T09:23:22Z</time></trkpt><trkpt lat="38.92690211879007" lon="-9.38039044654227"><ele>88.66666666666666</ele><time>2026-04-19T09:23:27Z</time></trkpt><trkpt lat="38.9269620828131" lon="-9.380473109893876"><ele>83.33333333333333</ele><time>2026-04-19T09:23:31Z</time></trkpt><trkpt lat="38.92703463339693" lon="-9.38053399747969"><ele>78.0</ele><time>2026-04-19T09:23:33Z</time></trkpt><trkpt lat="38.92709847275904" lon="-9.380603040546875"><ele>78.0</ele><time>2026-04-19T09:23:35Z</time></trkpt><trkpt lat="38.92713803808755" lon="-9.380685055966362"><ele>78.0</ele><time>2026-04-19T09:23:38Z</time></trkpt><trkpt lat="38.92711201507979" lon="-9.380780918844023"><ele>78.0</ele><time>2026-04-19T09:23:44Z</time></trkpt><trkpt lat="38.9271175514048" lon="-9.380653926888705"><ele>78.0</ele><time>2026-04-19T09:23:47Z</time></trkpt><trkpt lat="38.92705902558303" lon="-9.380538378101258"><ele>78.0</ele><time>2026-04-19T09:23:49Z</time></trkpt><trkpt lat="38.926965137008956" lon="-9.380463146059679"><ele>77.0</ele><time>2026-04-19T09:23:51Z</time></trkpt><trkpt lat="38.92685348655703" lon="-9.380392668521937"><ele>76.0</ele><time>2026-04-19T09:23:53Z</time></trkpt><trkpt lat="38.92679243932226" lon="-9.380324294020554"><ele>75.0</ele><time>2026-04-19T09:23:54Z</time></trkpt><trkpt lat="38.926733220753995" lon="-9.380255853442087"><ele>74.0</ele><time>2026-04-19T09:23:54.999Z</time></trkpt><trkpt lat="38.92668381596159" lon="-9.380176580740397"><ele>73.0</ele><time>2026-04-19T09:23:55.999Z</time></trkpt><trkpt lat="38.92664371509662" lon="-9.380094231837543"><ele>72.0</ele><time>2026-04-19T09:23:56.999Z</time></trkpt><trkpt lat="38.92661183699784" lon="-9.379999899534383"><ele>77.4</ele><time>2026-04-19T09:23:57.999Z</time></trkpt><trkpt lat="38.9265755719859" lon="-9.379882472164216"><ele>82.80000000000001</ele><time>2026-04-19T09:23:58.999Z</time></trkpt><trkpt lat="38.92652966706625" lon="-9.379757363450153"><ele>88.2</ele><time>2026-04-19T09:23:59.999Z</time></trkpt><trkpt lat="38.92647879589559" lon="-9.379670901126811"><ele>93.60000000000001</ele><time>2026-04-19T09:24:00.999Z</time></trkpt><trkpt lat="38.926399306738766" lon="-9.37963246260245"><ele>99.0</ele><time>2026-04-19T09:24:01.999Z</time></trkpt><trkpt lat="38.92630153101049" lon="-9.379609372131172"><ele>99.0</ele><time>2026-04-19T09:24:02.999Z</time></trkpt><trkpt lat="38.92618347965922" lon="-9.379610807540512"><ele>99.0</ele><time>2026-04-19T09:24:03.999Z</time></trkpt><trkpt lat="38.926054887455784" lon="-9.379633797069344"><ele>99.0</ele><time>2026-04-19T09:24:04.999Z</time></trkpt><trkpt lat="38.92596105009531" lon="-9.379637098290283"><ele>99.0</ele><time>2026-04-19T09:24:05.999Z</time></trkpt><trkpt lat="38.925876091320156" lon="-9.37963990393057"><ele>99.0</ele><time>2026-04-19T09:24:06.999Z</time></trkpt><trkpt lat="38.925798756161285" lon="-9.379642471421382"><ele>100.2</ele><time>2026-04-19T09:24:07.999Z</time></trkpt><trkpt lat="38.92571098388158" lon="-9.379646808672405"><ele>101.4</ele><time>2026-04-19T09:24:08.999Z</time></trkpt><trkpt lat="38.92563398650201" lon="-9.379650946354452"><ele>102.6</ele><time>2026-04-19T09:24:09.999Z</time></trkpt><trkpt lat="38.92556871907122" lon="-9.37965476031875"><ele>103.8</ele><time>2026-04-19T09:24:10.999Z</time></trkpt><trkpt lat="38.92547355601467" lon="-9.379664170021291"><ele>105.0</ele><time>2026-04-19T09:24:12.999Z</time></trkpt><trkpt lat="38.925604896228265" lon="-9.37947161166161"><ele>105.0</ele><time>2026-04-19T09:24:17.999Z</time></trkpt><trkpt lat="38.92566280113353" lon="-9.379421183928935"><ele>105.0</ele><time>2026-04-19T09:24:18.999Z</time></trkpt><trkpt lat="38.92572295679662" lon="-9.379377365125224"><ele>105.0</ele><time>2026-04-19T09:24:19.999Z</time></trkpt><trkpt lat="38.92581174386964" lon="-9.379287647013474"><ele>105.0</ele><time>2026-04-19T09:24:21.999Z</time></trkpt><trkpt lat="38.92587675035599" lon="-9.379249829035283"><ele>105.0</ele><time>2026-04-19T09:24:22.999Z</time></trkpt><trkpt lat="38.925968327266574" lon="-9.379171780890532"><ele>105.0</ele><time>2026-04-19T09:24:24.999Z</time></trkpt><trkpt lat="38.926035129647325" lon="-9.379136884228542"><ele>103.8</ele><time>2026-04-19T09:24:25.999Z</time></trkpt><trkpt lat="38.92615659936191" lon="-9.379121237162702"><ele>102.6</ele><time>2026-04-19T09:24:27.999Z</time></trkpt><trkpt lat="38.92622172475721" lon="-9.379117236904511"><ele>101.4</ele><time>2026-04-19T09:24:28.999Z</time></trkpt><trkpt lat="38.92628836023206" lon="-9.379120675966167"><ele>100.2</ele><time>2026-04-19T09:24:29.999Z</time></trkpt><trkpt lat="38.926405626856486" lon="-9.379107250701955"><ele>99.0</ele><time>2026-04-19T09:24:31.999Z</time></trkpt><trkpt lat="38.92648430990756" lon="-9.379075870632809"><ele>99.0</ele><time>2026-04-19T09:24:33.999Z</time></trkpt><trkpt lat="38.92654340150253" lon="-9.379033334004816"><ele>99.0</ele><time>2026-04-19T09:24:35.999Z</time></trkpt><trkpt lat="38.926611834532686" lon="-9.379017101032838"><ele>99.0</ele><time>2026-04-19T09:24:37.999Z</time></trkpt><trkpt lat="38.926692944833164" lon="-9.378985652494634"><ele>99.0</ele><time>2026-04-19T09:24:40.999Z</time></trkpt><trkpt lat="38.926770087382494" lon="-9.378955351285473"><ele>99.0</ele><time>2026-04-19T09:24:42.999Z</time></trkpt><trkpt lat="38.9268633821994" lon="-9.378995591138695"><ele>99.0</ele><time>2026-04-19T09:24:44.999Z</time></trkpt><trkpt lat="38.92694978097538" lon="-9.378991330782815"><ele>93.0</ele><time>2026-04-19T09:24:46.999Z</time></trkpt><trkpt lat="38.92691192500389" lon="-9.37888192161455"><ele>87.0</ele><time>2026-04-19T09:24:48.999Z</time></trkpt><trkpt lat="38.92678942455231" lon="-9.378869333096494"><ele>81.0</ele><time>2026-04-19T09:24:50.999Z</time></trkpt><trkpt lat="38.926676113988876" lon="-9.378807202255265"><ele>75.0</ele><time>2026-04-19T09:24:52.999Z</time></trkpt><trkpt lat="38.92658203335523" lon="-9.378726075426473"><ele>75.0</ele><time>2026-04-19T09:24:54.999Z</time></trkpt><trkpt lat="38.92649866176982" lon="-9.378645752221939"><ele>75.0</ele><time>2026-04-19T09:24:56.999Z</time></trkpt><trkpt lat="38.926421965811905" lon="-9.378569335387043"><ele>75.0</ele><time>2026-04-19T09:24:58.999Z</time></trkpt><trkpt lat="38.926392877573306" lon="-9.3784785804134"><ele>75.0</ele><time>2026-04-19T09:25:00.999Z</time></trkpt><trkpt lat="38.926359118825786" lon="-9.378394853954443"><ele>75.0</ele><time>2026-04-19T09:25:02.999Z</time></trkpt><trkpt lat="38.92627626463097" lon="-9.378360200486812"><ele>75.0</ele><time>2026-04-19T09:25:04.999Z</time></trkpt><trkpt lat="38.92616639405268" lon="-9.378365991686394"><ele>75.0</ele><time>2026-04-19T09:25:06.999Z</time></trkpt><trkpt lat="38.92608796285094" lon="-9.378336974190631"><ele>75.0</ele><time>2026-04-19T09:25:11Z</time></trkpt><trkpt lat="38.92612845518061" lon="-9.378254886462324"><ele>75.0</ele><time>2026-04-19T09:25:13Z</time></trkpt><trkpt lat="38.92616805889178" lon="-9.378162390707155"><ele>75.0</ele><time>2026-04-19T09:25:16Z</time></trkpt><trkpt lat="38.92621660220601" lon="-9.378025057579507"><ele>75.0</ele><time>2026-04-19T09:25:18Z</time></trkpt><trkpt lat="38.92627089760165" lon="-9.377954286278715"><ele>75.0</ele><time>2026-04-19T09:25:19Z</time></trkpt><trkpt lat="38.92635212640677" lon="-9.377894897394217"><ele>75.0</ele><time>2026-04-19T09:25:20Z</time></trkpt><trkpt lat="38.926414639506945" lon="-9.377854023933489"><ele>75.0</ele><time>2026-04-19T09:25:21.001Z</time></trkpt><trkpt lat="38.92648025546442" lon="-9.37781187724251"><ele>75.0</ele><time>2026-04-19T09:25:23.001Z</time></trkpt><trkpt lat="38.926549177493314" lon="-9.377844160151184"><ele>75.0</ele><time>2026-04-19T09:25:25.001Z</time></trkpt><trkpt lat="38.92662842582232" lon="-9.377911621589927"><ele>75.0</ele><time>2026-04-19T09:25:27.001Z</time></trkpt><trkpt lat="38.9266390607976" lon="-9.378021725901833"><ele>75.0</ele><time>2026-04-19T09:25:29.001Z</time></trkpt><trkpt lat="38.92669611922087" lon="-9.378118451553236"><ele>71.42857142857142</ele><time>2026-04-19T09:25:34.001Z</time></trkpt><trkpt lat="38.926746791502445" lon="-9.37818488915709"><ele>67.85714285714286</ele><time>2026-04-19T09:25:36.001Z</time></trkpt><trkpt lat="38.92680789465204" lon="-9.378214043072477"><ele>64.28571428571428</ele><time>2026-04-19T09:25:38.001Z</time></trkpt><trkpt lat="38.926875808460295" lon="-9.378253126764458"><ele>60.71428571428571</ele><time>2026-04-19T09:25:40.001Z</time></trkpt><trkpt lat="38.926973766640884" lon="-9.378259908851982"><ele>57.14285714285714</ele><time>2026-04-19T09:25:43.001Z</time></trkpt><trkpt lat="38.927036311181844" lon="-9.378243284937986"><ele>53.57142857142858</ele><time>2026-04-19T09:25:45.001Z</time></trkpt><trkpt lat="38.92710687478264" lon="-9.378234887445137"><ele>50.0</ele><time>2026-04-19T09:25:48.001Z</time></trkpt><trkpt lat="38.92718225058533" lon="-9.378235167137607"><ele>50.00000000000001</ele><time>2026-04-19T09:25:51Z</time></trkpt><trkpt lat="38.92725447668264" lon="-9.378232665930064"><ele>50.0</ele><time>2026-04-19T09:25:54Z</time></trkpt><trkpt lat="38.92733790373796" lon="-9.378244239337503"><ele>50.0</ele><time>2026-04-19T09:25:58Z</time></trkpt><trkpt lat="38.927428336899474" lon="-9.378283672305761"><ele>50.0</ele><time>2026-04-19T09:26:01Z</time></trkpt><trkpt lat="38.92748591543444" lon="-9.378319225025944"><ele>50.00000000000001</ele><time>2026-04-19T09:26:04Z</time></trkpt><trkpt lat="38.927545695471345" lon="-9.378356754121729"><ele>50.0</ele><time>2026-04-19T09:26:07Z</time></trkpt><trkpt lat="38.92761095611574" lon="-9.37840805644803"><ele>45.85714285714286</ele><time>2026-04-19T09:26:10Z</time></trkpt><trkpt lat="38.927664480260106" lon="-9.378480884748683"><ele>41.714285714285715</ele><time>2026-04-19T09:26:13Z</time></trkpt><trkpt lat="38.92769377283472" lon="-9.378563750416491"><ele>37.57142857142857</ele><time>2026-04-19T09:26:17Z</time></trkpt><trkpt lat="38.92773101758549" lon="-9.378641299956469"><ele>33.42857142857143</ele><time>2026-04-19T09:26:21Z</time></trkpt><trkpt lat="38.92779038067794" lon="-9.378685290785379"><ele>29.285714285714285</ele><time>2026-04-19T09:26:25Z</time></trkpt><trkpt lat="38.92782221547253" lon="-9.378614226525897"><ele>25.142857142857142</ele><time>2026-04-19T09:26:27Z</time></trkpt><trkpt lat="38.92782585567556" lon="-9.378514831847236"><ele>21.0</ele><time>2026-04-19T09:26:30Z</time></trkpt><trkpt lat="38.92783190551812" lon="-9.3784181170184"><ele>21.0</ele><time>2026-04-19T09:26:32Z</time></trkpt><trkpt lat="38.927848306030846" lon="-9.37831169625284"><ele>21.0</ele><time>2026-04-19T09:26:35Z</time></trkpt><trkpt lat="38.92781482792923" lon="-9.378215304291535"><ele>21.0</ele><time>2026-04-19T09:26:38Z</time></trkpt><trkpt lat="38.92777857095343" lon="-9.378148470223442"><ele>21.0</ele><time>2026-04-19T09:26:40Z</time></trkpt><trkpt lat="38.927741761772964" lon="-9.378070800118882"><ele>21.0</ele><time>2026-04-19T09:26:43Z</time></trkpt><trkpt lat="38.92771391609567" lon="-9.377993246483916"><ele>21.0</ele><time>2026-04-19T09:26:47Z</time></trkpt><trkpt lat="38.92768552709491" lon="-9.377913756038483"><ele>21.0</ele><time>2026-04-19T09:26:53Z</time></trkpt><trkpt lat="38.92774494657497" lon="-9.377847380694151"><ele>21.5</ele><time>2026-04-19T09:26:57Z</time></trkpt><trkpt lat="38.92782314314015" lon="-9.377885888353621"><ele>22.0</ele><time>2026-04-19T09:27:02Z</time></trkpt><trkpt lat="38.927882792783464" lon="-9.377943698085422"><ele>22.5</ele><time>2026-04-19T09:27:06Z</time></trkpt><trkpt lat="38.92795234156409" lon="-9.377985219652297"><ele>23.0</ele><time>2026-04-19T09:27:10Z</time></trkpt><trkpt lat="38.92802392868281" lon="-9.37794060850109"><ele>23.5</ele><time>2026-04-19T09:27:13Z</time></trkpt><trkpt lat="38.92809802589568" lon="-9.377910023383537"><ele>24.0</ele><time>2026-04-19T09:27:16Z</time></trkpt><trkpt lat="38.928175904997616" lon="-9.377891685022538"><ele>24.0</ele><time>2026-04-19T09:27:20Z</time></trkpt><trkpt lat="38.92824223543756" lon="-9.377838281250844"><ele>24.0</ele><time>2026-04-19T09:27:23Z</time></trkpt><trkpt lat="38.928305773615335" lon="-9.377753837846763"><ele>24.0</ele><time>2026-04-19T09:27:27.001Z</time></trkpt><trkpt lat="38.92837546444749" lon="-9.377664251049271"><ele>24.0</ele><time>2026-04-19T09:27:30.001Z</time></trkpt><trkpt lat="38.92841625963208" lon="-9.377571151326812"><ele>24.0</ele><time>2026-04-19T09:27:32.001Z</time></trkpt><trkpt lat="38.928470569479465" lon="-9.377487851316875"><ele>24.0</ele><time>2026-04-19T09:27:34.001Z</time></trkpt><trkpt lat="38.92846049034475" lon="-9.37736213522539"><ele>22.2</ele><time>2026-04-19T09:27:37.001Z</time></trkpt><trkpt lat="38.92844795127166" lon="-9.37728127487448"><ele>20.4</ele><time>2026-04-19T09:27:39.001Z</time></trkpt><trkpt lat="38.92845750459095" lon="-9.377197033435877"><ele>18.6</ele><time>2026-04-19T09:27:42.001Z</time></trkpt><trkpt lat="38.928564599244304" lon="-9.377203765075732"><ele>16.8</ele><time>2026-04-19T09:31:19Z</time></trkpt><trkpt lat="38.92870004377439" lon="-9.377350740436356"><ele>15.0</ele><time>2026-04-19T09:31:29Z</time></trkpt><trkpt lat="38.928722097547166" lon="-9.377439025723723"><ele>15.0</ele><time>2026-04-19T09:31:32Z</time></trkpt><trkpt lat="38.92877084546567" lon="-9.377504297761714"><ele>15.0</ele><time>2026-04-19T09:31:34Z</time></trkpt><trkpt lat="38.92883672330421" lon="-9.377487173486974"><ele>15.0</ele><time>2026-04-19T09:31:56Z</time></trkpt><trkpt lat="38.92886151248861" lon="-9.377406767258814"><ele>15.0</ele><time>2026-04-19T09:31:58Z</time></trkpt><trkpt lat="38.92879743151418" lon="-9.377473408689907"><ele>15.0</ele><time>2026-04-19T09:32:05Z</time></trkpt><trkpt lat="38.928780763548914" lon="-9.377391828203303"><ele>15.0</ele><time>2026-04-19T09:33:59Z</time></trkpt><trkpt lat="38.928758766598875" lon="-9.377480882910612"><ele>15.0</ele><time>2026-04-19T09:34:32Z</time></trkpt><trkpt lat="38.9287206839201" lon="-9.377593560592521"><ele>15.0</ele><time>2026-04-19T09:36:19Z</time></trkpt><trkpt lat="38.928668753877375" lon="-9.377698846015202"><ele>15.0</ele><time>2026-04-19T09:36:21Z</time></trkpt><trkpt lat="38.92862778939163" lon="-9.37781057130383"><ele>15.0</ele><time>2026-04-19T09:36:23Z</time></trkpt><trkpt lat="38.92860339003755" lon="-9.37795477306681"><ele>15.0</ele><time>2026-04-19T09:36:25Z</time></trkpt><trkpt lat="38.92860793196875" lon="-9.378076734902475"><ele>15.0</ele><time>2026-04-19T09:36:27Z</time></trkpt><trkpt lat="38.92863500718269" lon="-9.378247586930717"><ele>15.166666666666666</ele><time>2026-04-19T09:36:29Z</time></trkpt><trkpt lat="38.928687176761244" lon="-9.378395643646483"><ele>15.333333333333332</ele><time>2026-04-19T09:36:31Z</time></trkpt><trkpt lat="38.928715897924256" lon="-9.378470914202452"><ele>15.5</ele><time>2026-04-19T09:36:32Z</time></trkpt><trkpt lat="38.92875305910479" lon="-9.378564638908225"><ele>15.666666666666666</ele><time>2026-04-19T09:36:33Z</time></trkpt><trkpt lat="38.92876995010925" lon="-9.378650454588469"><ele>15.833333333333332</ele><time>2026-04-19T09:36:34Z</time></trkpt><trkpt lat="38.92875167417741" lon="-9.378731967749454"><ele>16.0</ele><time>2026-04-19T09:36:35Z</time></trkpt><trkpt lat="38.92871105870134" lon="-9.378802312300216"><ele>16.5</ele><time>2026-04-19T09:36:36Z</time></trkpt><trkpt lat="38.928678721319294" lon="-9.378900906316764"><ele>17.0</ele><time>2026-04-19T09:36:37Z</time></trkpt><trkpt lat="38.92863793074045" lon="-9.379011784792691"><ele>17.5</ele><time>2026-04-19T09:36:38Z</time></trkpt><trkpt lat="38.92857921272103" lon="-9.379103510802924"><ele>18.0</ele><time>2026-04-19T09:36:39Z</time></trkpt><trkpt lat="38.928539516409536" lon="-9.379199450315982"><ele>18.5</ele><time>2026-04-19T09:36:40Z</time></trkpt><trkpt lat="38.92852234277873" lon="-9.379316915024557"><ele>19.0</ele><time>2026-04-19T09:36:41Z</time></trkpt><trkpt lat="38.92851977492649" lon="-9.379431087373197"><ele>19.0</ele><time>2026-04-19T09:36:42Z</time></trkpt><trkpt lat="38.92851661765675" lon="-9.379548188673299"><ele>19.0</ele><time>2026-04-19T09:36:43Z</time></trkpt><trkpt lat="38.928510773198354" lon="-9.379665453860333"><ele>19.0</ele><time>2026-04-19T09:36:44Z</time></trkpt><trkpt lat="38.92851911897604" lon="-9.379809147766668"><ele>19.0</ele><time>2026-04-19T09:36:45Z</time></trkpt><trkpt lat="38.92854885903027" lon="-9.37994110057475"><ele>19.0</ele><time>2026-04-19T09:36:46Z</time></trkpt><trkpt lat="38.928576631503006" lon="-9.380057768236302"><ele>18.8</ele><time>2026-04-19T09:36:47Z</time></trkpt><trkpt lat="38.928606541299146" lon="-9.380177176206988"><ele>18.599999999999998</ele><time>2026-04-19T09:36:48Z</time></trkpt><trkpt lat="38.928646806990386" lon="-9.380319769718756"><ele>18.4</ele><time>2026-04-19T09:36:49Z</time></trkpt><trkpt lat="38.92869257182422" lon="-9.380439814036162"><ele>18.2</ele><time>2026-04-19T09:36:50Z</time></trkpt><trkpt lat="38.92874151740521" lon="-9.380562877385115"><ele>18.0</ele><time>2026-04-19T09:36:51Z</time></trkpt><trkpt lat="38.928781543120124" lon="-9.380671712623798"><ele>17.666666666666668</ele><time>2026-04-19T09:36:52Z</time></trkpt><trkpt lat="38.92884228968784" lon="-9.380744541959132"><ele>17.333333333333332</ele><time>2026-04-19T09:36:53Z</time></trkpt><trkpt lat="38.92890501502246" lon="-9.380815522897098"><ele>17.0</ele><time>2026-04-19T09:36:54Z</time></trkpt><trkpt lat="38.92896236695293" lon="-9.38086348794787"><ele>16.666666666666664</ele><time>2026-04-19T09:36:55Z</time></trkpt><trkpt lat="38.928993998864875" lon="-9.380957872205284"><ele>16.333333333333332</ele><time>2026-04-19T09:36:56Z</time></trkpt><trkpt lat="38.92904074143902" lon="-9.381056284689867"><ele>16.0</ele><time>2026-04-19T09:36:57Z</time></trkpt><trkpt lat="38.929089213871826" lon="-9.381161881803516"><ele>16.0</ele><time>2026-04-19T09:36:58Z</time></trkpt><trkpt lat="38.92918515724001" lon="-9.381237670182536"><ele>16.0</ele><time>2026-04-19T09:36:59Z</time></trkpt><trkpt lat="38.929315130163545" lon="-9.381307905362192"><ele>16.0</ele><time>2026-04-19T09:37:00Z</time></trkpt><trkpt lat="38.92942234693266" lon="-9.381379967385039"><ele>16.0</ele><time>2026-04-19T09:37:01Z</time></trkpt><trkpt lat="38.92951783023142" lon="-9.381444005193329"><ele>16.5</ele><time>2026-04-19T09:37:02Z</time></trkpt><trkpt lat="38.92962314752494" lon="-9.381499627796437"><ele>17.0</ele><time>2026-04-19T09:37:03Z</time></trkpt><trkpt lat="38.929743433946044" lon="-9.3815706213144"><ele>17.5</ele><time>2026-04-19T09:37:04Z</time></trkpt><trkpt lat="38.929871888407874" lon="-9.381647566644642"><ele>18.0</ele><time>2026-04-19T09:37:05Z</time></trkpt><trkpt lat="38.92997906425893" lon="-9.381717782524355"><ele>19.0</ele><time>2026-04-19T09:37:06Z</time></trkpt><trkpt lat="38.930092850721685" lon="-9.381788390767287"><ele>20.0</ele><time>2026-04-19T09:37:07Z</time></trkpt><trkpt lat="38.93019222688338" lon="-9.38185756304077"><ele>21.0</ele><time>2026-04-19T09:37:08Z</time></trkpt><trkpt lat="38.930296763120154" lon="-9.381879563270875"><ele>22.0</ele><time>2026-04-19T09:37:09Z</time></trkpt><trkpt lat="38.930392429120374" lon="-9.381904819321562"><ele>23.0</ele><time>2026-04-19T09:37:10Z</time></trkpt><trkpt lat="38.9304658068099" lon="-9.381930608778475"><ele>23.0</ele><time>2026-04-19T09:37:11Z</time></trkpt><trkpt lat="38.930576693564014" lon="-9.38199108605274"><ele>23.0</ele><time>2026-04-19T09:37:13Z</time></trkpt><trkpt lat="38.93063851003039" lon="-9.382016820040635"><ele>23.0</ele><time>2026-04-19T09:37:14Z</time></trkpt><trkpt lat="38.930700869012284" lon="-9.382041691534132"><ele>23.0</ele><time>2026-04-19T09:37:15Z</time></trkpt><trkpt lat="38.930775981258066" lon="-9.382074690142858"><ele>23.0</ele><time>2026-04-19T09:37:16Z</time></trkpt><trkpt lat="38.93084289464954" lon="-9.382103817526817"><ele>23.0</ele><time>2026-04-19T09:37:17Z</time></trkpt><trkpt lat="38.930918833385576" lon="-9.382114583729862"><ele>21.799999999999997</ele><time>2026-04-19T09:37:18Z</time></trkpt><trkpt lat="38.931012950740794" lon="-9.382163685209669"><ele>20.599999999999998</ele><time>2026-04-19T09:37:19Z</time></trkpt><trkpt lat="38.931107230580416" lon="-9.382250458397584"><ele>19.4</ele><time>2026-04-19T09:37:20Z</time></trkpt><trkpt lat="38.93118801822315" lon="-9.382339878213097"><ele>18.2</ele><time>2026-04-19T09:37:21Z</time></trkpt><trkpt lat="38.931272102176905" lon="-9.382407337742057"><ele>17.0</ele><time>2026-04-19T09:37:22Z</time></trkpt><trkpt lat="38.93135717122876" lon="-9.382449897601859"><ele>17.0</ele><time>2026-04-19T09:37:23Z</time></trkpt><trkpt lat="38.93141693216477" lon="-9.382525235033551"><ele>17.0</ele><time>2026-04-19T09:37:24Z</time></trkpt><trkpt lat="38.93145653611193" lon="-9.382605879623519"><ele>17.0</ele><time>2026-04-19T09:37:25Z</time></trkpt><trkpt lat="38.93155327209363" lon="-9.382705629274525"><ele>17.0</ele><time>2026-04-19T09:37:27Z</time></trkpt><trkpt lat="38.93160443828962" lon="-9.38276672386368"><ele>17.0</ele><time>2026-04-19T09:37:28Z</time></trkpt><trkpt lat="38.931672661082416" lon="-9.382829020578605"><ele>17.0</ele><time>2026-04-19T09:37:29Z</time></trkpt><trkpt lat="38.93174343708106" lon="-9.382889213205514"><ele>16.333333333333336</ele><time>2026-04-19T09:37:30Z</time></trkpt><trkpt lat="38.931785835026695" lon="-9.38296610739125"><ele>15.666666666666668</ele><time>2026-04-19T09:37:31Z</time></trkpt><trkpt lat="38.931783763809285" lon="-9.383050924379706"><ele>15.0</ele><time>2026-04-19T09:37:32Z</time></trkpt><trkpt lat="38.93182619591162" lon="-9.383118835591917"><ele>14.333333333333332</ele><time>2026-04-19T09:37:34Z</time></trkpt><trkpt lat="38.93187741789805" lon="-9.382972321886443"><ele>13.666666666666666</ele><time>2026-04-19T09:37:36Z</time></trkpt><trkpt lat="38.931865506732464" lon="-9.382869796031763"><ele>13.0</ele><time>2026-04-19T09:37:37Z</time></trkpt><trkpt lat="38.93184219307657" lon="-9.382752449161865"><ele>12.999999999999998</ele><time>2026-04-19T09:37:38Z</time></trkpt><trkpt lat="38.931819405231145" lon="-9.38266230738196"><ele>13.0</ele><time>2026-04-19T09:37:39Z</time></trkpt><trkpt lat="38.93180918950406" lon="-9.382573747627193"><ele>13.0</ele><time>2026-04-19T09:37:40Z</time></trkpt><trkpt lat="38.931812322218285" lon="-9.382486761389453"><ele>13.0</ele><time>2026-04-19T09:37:41Z</time></trkpt><trkpt lat="38.9318148852743" lon="-9.382380682183918"><ele>12.999999999999998</ele><time>2026-04-19T09:37:42Z</time></trkpt><trkpt lat="38.93181187830296" lon="-9.3822632177694"><ele>13.0</ele><time>2026-04-19T09:37:43Z</time></trkpt><trkpt lat="38.93183372914304" lon="-9.38216957596766"><ele>13.333333333333332</ele><time>2026-04-19T09:37:44Z</time></trkpt><trkpt lat="38.931852656279595" lon="-9.382073126998192"><ele>13.666666666666666</ele><time>2026-04-19T09:37:45Z</time></trkpt><trkpt lat="38.931886903365516" lon="-9.381977636176536"><ele>14.0</ele><time>2026-04-19T09:37:46Z</time></trkpt><trkpt lat="38.93190849760528" lon="-9.381890181577026"><ele>14.333333333333332</ele><time>2026-04-19T09:37:47Z</time></trkpt><trkpt lat="38.93194552210265" lon="-9.38178708151562"><ele>14.666666666666666</ele><time>2026-04-19T09:37:49Z</time></trkpt><trkpt lat="38.93195224492792" lon="-9.381642978638858"><ele>15.0</ele><time>2026-04-19T09:37:51Z</time></trkpt><trkpt lat="38.9319904778513" lon="-9.381528448357418"><ele>15.0</ele><time>2026-04-19T09:37:53Z</time></trkpt><trkpt lat="38.93200874190695" lon="-9.381395938883875"><ele>15.0</ele><time>2026-04-19T09:37:55Z</time></trkpt><trkpt lat="38.93204563456653" lon="-9.381276327396947"><ele>15.0</ele><time>2026-04-19T09:37:57Z</time></trkpt><trkpt lat="38.93206584540583" lon="-9.381192634403572"><ele>15.0</ele><time>2026-04-19T09:37:58Z</time></trkpt><trkpt lat="38.9321131888529" lon="-9.381060163603365"><ele>15.0</ele><time>2026-04-19T09:38:00Z</time></trkpt><trkpt lat="38.932163027528816" lon="-9.3809258451039"><ele>17.8</ele><time>2026-04-19T09:38:02Z</time></trkpt><trkpt lat="38.93220365971569" lon="-9.380801562023292"><ele>20.6</ele><time>2026-04-19T09:38:04Z</time></trkpt><trkpt lat="38.93226274309611" lon="-9.380676620856173"><ele>23.4</ele><time>2026-04-19T09:38:06Z</time></trkpt><trkpt lat="38.93231363052503" lon="-9.380564764569149"><ele>26.2</ele><time>2026-04-19T09:38:08Z</time></trkpt><trkpt lat="38.932375782303254" lon="-9.38049831927725"><ele>29.0</ele><time>2026-04-19T09:38:10Z</time></trkpt><trkpt lat="38.93244087086167" lon="-9.380410249318185"><ele>32.6</ele><time>2026-04-19T09:38:12Z</time></trkpt><trkpt lat="38.93251908964783" lon="-9.380313218900243"><ele>36.2</ele><time>2026-04-19T09:38:14Z</time></trkpt><trkpt lat="38.93257803027909" lon="-9.380200874951996"><ele>39.800000000000004</ele><time>2026-04-19T09:38:16Z</time></trkpt><trkpt lat="38.932630713372845" lon="-9.380137169209911"><ele>43.4</ele><time>2026-04-19T09:38:17Z</time></trkpt><trkpt lat="38.93270813359132" lon="-9.380086551148992"><ele>47.0</ele><time>2026-04-19T09:38:18Z</time></trkpt><trkpt lat="38.9328135118948" lon="-9.380055319792698"><ele>47.0</ele><time>2026-04-19T09:38:19Z</time></trkpt><trkpt lat="38.93291065678715" lon="-9.380010987021626"><ele>47.0</ele><time>2026-04-19T09:38:20Z</time></trkpt><trkpt lat="38.93299150907245" lon="-9.379980150900828"><ele>47.0</ele><time>2026-04-19T09:38:21Z</time></trkpt><trkpt lat="38.933046346413626" lon="-9.379934064900757"><ele>47.0</ele><time>2026-04-19T09:38:22Z</time></trkpt><trkpt lat="38.93310036532591" lon="-9.379879073128096"><ele>47.0</ele><time>2026-04-19T09:38:23Z</time></trkpt><trkpt lat="38.93315398130812" lon="-9.379828983417399"><ele>47.0</ele><time>2026-04-19T09:38:24Z</time></trkpt><trkpt lat="38.93321340648269" lon="-9.379725061086527"><ele>50.5</ele><time>2026-04-19T09:38:26Z</time></trkpt><trkpt lat="38.933225939395676" lon="-9.37961623727445"><ele>54.0</ele><time>2026-04-19T09:38:28Z</time></trkpt><trkpt lat="38.93323182911426" lon="-9.379497608416386"><ele>57.5</ele><time>2026-04-19T09:38:30Z</time></trkpt><trkpt lat="38.93322427368717" lon="-9.379350508230685"><ele>61.0</ele><time>2026-04-19T09:38:32Z</time></trkpt><trkpt lat="38.93322120550289" lon="-9.379264223638739"><ele>64.5</ele><time>2026-04-19T09:38:33Z</time></trkpt><trkpt lat="38.93320979626203" lon="-9.379179520091068"><ele>68.0</ele><time>2026-04-19T09:38:34Z</time></trkpt><trkpt lat="38.93319555615667" lon="-9.379097156164397"><ele>68.0</ele><time>2026-04-19T09:38:35Z</time></trkpt><trkpt lat="38.933186696007624" lon="-9.379009383811693"><ele>68.0</ele><time>2026-04-19T09:38:36Z</time></trkpt><trkpt lat="38.93318025858706" lon="-9.378919841380945"><ele>68.0</ele><time>2026-04-19T09:38:37Z</time></trkpt><trkpt lat="38.933160734547656" lon="-9.378837038740514"><ele>68.0</ele><time>2026-04-19T09:38:38Z</time></trkpt><trkpt lat="38.93313215948043" lon="-9.378744704892954"><ele>68.0</ele><time>2026-04-19T09:38:39Z</time></trkpt><trkpt lat="38.93310839884581" lon="-9.378664347802658"><ele>68.0</ele><time>2026-04-19T09:38:40Z</time></trkpt><trkpt lat="38.93306089702941" lon="-9.378529400286572"><ele>71.2</ele><time>2026-04-19T09:38:42Z</time></trkpt><trkpt lat="38.93300601108296" lon="-9.378421146687009"><ele>74.4</ele><time>2026-04-19T09:38:44Z</time></trkpt><trkpt lat="38.93295409595182" lon="-9.378305416744885"><ele>77.60000000000001</ele><time>2026-04-19T09:38:46Z</time></trkpt><trkpt lat="38.93297978663265" lon="-9.378185228596886"><ele>80.8</ele><time>2026-04-19T09:38:48Z</time></trkpt><trkpt lat="38.933104527357436" lon="-9.378165622550789"><ele>84.0</ele><time>2026-04-19T09:38:50Z</time></trkpt><trkpt lat="38.93313618299637" lon="-9.378247082495063"><ele>84.0</ele><time>2026-04-19T09:38:51Z</time></trkpt><trkpt lat="38.93318789663938" lon="-9.378375281619686"><ele>84.0</ele><time>2026-04-19T09:38:53Z</time></trkpt><trkpt lat="38.93330064210336" lon="-9.378462219073128"><ele>84.0</ele><time>2026-04-19T09:38:55Z</time></trkpt><trkpt lat="38.93336626814072" lon="-9.37849808182809"><ele>84.0</ele><time>2026-04-19T09:38:56Z</time></trkpt><trkpt lat="38.93342964110241" lon="-9.378525860140275"><ele>84.0</ele><time>2026-04-19T09:38:57Z</time></trkpt><trkpt lat="38.933545290137076" lon="-9.378487158194329"><ele>84.33333333333333</ele><time>2026-04-19T09:38:59Z</time></trkpt><trkpt lat="38.93356726795909" lon="-9.378349402290963"><ele>84.66666666666667</ele><time>2026-04-19T09:39:01Z</time></trkpt><trkpt lat="38.93351597279501" lon="-9.378287505712773"><ele>85.0</ele><time>2026-04-19T09:39:02Z</time></trkpt><trkpt lat="38.93346052114744" lon="-9.37820275396238"><ele>85.33333333333334</ele><time>2026-04-19T09:39:03Z</time></trkpt><trkpt lat="38.93343208600501" lon="-9.378095903431428"><ele>85.66666666666667</ele><time>2026-04-19T09:39:04Z</time></trkpt><trkpt lat="38.93339313656569" lon="-9.377992192517079"><ele>86.0</ele><time>2026-04-19T09:39:05Z</time></trkpt><trkpt lat="38.93334472258304" lon="-9.377884432604327"><ele>88.6</ele><time>2026-04-19T09:39:06Z</time></trkpt><trkpt lat="38.93330455286096" lon="-9.377782519836673"><ele>91.19999999999999</ele><time>2026-04-19T09:39:07Z</time></trkpt><trkpt lat="38.93328374272239" lon="-9.377659094950802"><ele>93.80000000000001</ele><time>2026-04-19T09:39:08Z</time></trkpt><trkpt lat="38.93325109744484" lon="-9.37753692482649"><ele>96.4</ele><time>2026-04-19T09:39:09Z</time></trkpt><trkpt lat="38.93322362860853" lon="-9.377436325869066"><ele>99.0</ele><time>2026-04-19T09:39:10Z</time></trkpt><trkpt lat="38.9332005986848" lon="-9.37731303045647"><ele>99.0</ele><time>2026-04-19T09:39:11Z</time></trkpt><trkpt lat="38.933164007265205" lon="-9.37719883886619"><ele>99.0</ele><time>2026-04-19T09:39:12Z</time></trkpt><trkpt lat="38.93314882724622" lon="-9.377093129347086"><ele>99.0</ele><time>2026-04-19T09:39:13Z</time></trkpt><trkpt lat="38.93318316393143" lon="-9.37696461282792"><ele>99.0</ele><time>2026-04-19T09:39:15Z</time></trkpt><trkpt lat="38.93325386273348" lon="-9.376929601156037"><ele>99.0</ele><time>2026-04-19T09:39:16Z</time></trkpt><trkpt lat="38.933346262483326" lon="-9.37692671066641"><ele>100.4</ele><time>2026-04-19T09:39:17Z</time></trkpt><trkpt lat="38.93343703094104" lon="-9.376914067138731"><ele>101.80000000000001</ele><time>2026-04-19T09:39:18Z</time></trkpt><trkpt lat="38.933478785861226" lon="-9.376825956564618"><ele>103.19999999999999</ele><time>2026-04-19T09:39:19Z</time></trkpt><trkpt lat="38.93352540777094" lon="-9.37673810575485"><ele>104.6</ele><time>2026-04-19T09:39:20Z</time></trkpt><trkpt lat="38.933598341443556" lon="-9.376652852796246"><ele>106.0</ele><time>2026-04-19T09:39:21Z</time></trkpt><trkpt lat="38.93366649049956" lon="-9.376551670425753"><ele>106.00000000000001</ele><time>2026-04-19T09:39:22Z</time></trkpt><trkpt lat="38.933732469378995" lon="-9.376453793607755"><ele>106.0</ele><time>2026-04-19T09:39:23Z</time></trkpt><trkpt lat="38.93376903643848" lon="-9.376356359367936"><ele>106.0</ele><time>2026-04-19T09:39:25Z</time></trkpt><trkpt lat="38.933829063930446" lon="-9.376287351707523"><ele>106.0</ele><time>2026-04-19T09:39:37Z</time></trkpt><trkpt lat="38.93390699420975" lon="-9.376239320486219"><ele>106.00000000000001</ele><time>2026-04-19T09:39:38Z</time></trkpt><trkpt lat="38.93398276423843" lon="-9.376203453702662"><ele>106.0</ele><time>2026-04-19T09:39:39Z</time></trkpt><trkpt lat="38.93405538763914" lon="-9.376172840268802"><ele>107.8</ele><time>2026-04-19T09:39:40Z</time></trkpt><trkpt lat="38.93411848614156" lon="-9.376149773569017"><ele>109.6</ele><time>2026-04-19T09:39:41Z</time></trkpt><trkpt lat="38.934241763067504" lon="-9.376112548368027"><ele>111.4</ele><time>2026-04-19T09:39:43Z</time></trkpt><trkpt lat="38.934335480303275" lon="-9.37608274679997"><ele>113.2</ele><time>2026-04-19T09:39:44Z</time></trkpt><trkpt lat="38.93442827205021" lon="-9.376038612820649"><ele>115.0</ele><time>2026-04-19T09:39:45Z</time></trkpt><trkpt lat="38.934520162128955" lon="-9.376003561251364"><ele>115.00000000000001</ele><time>2026-04-19T09:39:46Z</time></trkpt><trkpt lat="38.93458646096287" lon="-9.375931426484591"><ele>115.0</ele><time>2026-04-19T09:39:47Z</time></trkpt><trkpt lat="38.93465670785314" lon="-9.375865530313208"><ele>115.0</ele><time>2026-04-19T09:39:48Z</time></trkpt><trkpt lat="38.93471839770087" lon="-9.375806436050642"><ele>115.0</ele><time>2026-04-19T09:39:49Z</time></trkpt><trkpt lat="38.93477923350304" lon="-9.37578467791077"><ele>115.00000000000001</ele><time>2026-04-19T09:39:50Z</time></trkpt><trkpt lat="38.93478435349493" lon="-9.375650118042602"><ele>115.0</ele><time>2026-04-19T09:39:52Z</time></trkpt><trkpt lat="38.93473567510304" lon="-9.3755895630281"><ele>115.0</ele><time>2026-04-19T09:39:53Z</time></trkpt><trkpt lat="38.934643260392924" lon="-9.375623295976023"><ele>115.0</ele><time>2026-04-19T09:39:54Z</time></trkpt><trkpt lat="38.934558220467" lon="-9.375604472445932"><ele>115.0</ele><time>2026-04-19T09:39:55Z</time></trkpt><trkpt lat="38.9344777246755" lon="-9.37558685676263"><ele>115.0</ele><time>2026-04-19T09:39:56Z</time></trkpt><trkpt lat="38.93439613545986" lon="-9.375571364227392"><ele>115.0</ele><time>2026-04-19T09:39:57Z</time></trkpt><trkpt lat="38.934288169834495" lon="-9.375559733548219"><ele>115.25</ele><time>2026-04-19T09:39:59Z</time></trkpt><trkpt lat="38.93417523121482" lon="-9.375511359334254"><ele>115.5</ele><time>2026-04-19T09:40:01Z</time></trkpt><trkpt lat="38.93408119649123" lon="-9.37549036779084"><ele>115.75</ele><time>2026-04-19T09:40:03Z</time></trkpt><trkpt lat="38.934049643225094" lon="-9.375294621895419"><ele>116.0</ele><time>2026-04-19T09:40:05Z</time></trkpt><trkpt lat="38.93402626341672" lon="-9.3751760404135"><ele>115.99999999999999</ele><time>2026-04-19T09:40:07Z</time></trkpt><trkpt lat="38.93394696832406" lon="-9.37505086438597"><ele>116.0</ele><time>2026-04-19T09:40:09Z</time></trkpt><trkpt lat="38.9338999050538" lon="-9.374977935415428"><ele>116.0</ele><time>2026-04-19T09:40:10Z</time></trkpt><trkpt lat="38.93388334052139" lon="-9.374866762222858"><ele>116.0</ele><time>2026-04-19T09:40:12Z</time></trkpt><trkpt lat="38.93388065638323" lon="-9.374771680466255"><ele>115.99999999999999</ele><time>2026-04-19T09:40:13Z</time></trkpt><trkpt lat="38.933884689359765" lon="-9.374683243796513"><ele>116.0</ele><time>2026-04-19T09:40:14Z</time></trkpt><trkpt lat="38.933892068259546" lon="-9.374542807009075"><ele>113.75</ele><time>2026-04-19T09:40:16Z</time></trkpt><trkpt lat="38.93389705987613" lon="-9.374447805439"><ele>111.5</ele><time>2026-04-19T09:40:18Z</time></trkpt><trkpt lat="38.93409782426605" lon="-9.374371918316596"><ele>109.25</ele><time>2026-04-19T09:40:20Z</time></trkpt><trkpt lat="38.93410845319911" lon="-9.374241942356123"><ele>107.0</ele><time>2026-04-19T09:40:22Z</time></trkpt><trkpt lat="38.93412715515633" lon="-9.374130646356532"><ele>107.0</ele><time>2026-04-19T09:40:24Z</time></trkpt><trkpt lat="38.93410264336596" lon="-9.374016031264413"><ele>106.99999999999999</ele><time>2026-04-19T09:40:26Z</time></trkpt><trkpt lat="38.93409316727288" lon="-9.373902958095359"><ele>106.99999999999999</ele><time>2026-04-19T09:40:28Z</time></trkpt><trkpt lat="38.934104400501944" lon="-9.373767738615964"><ele>107.0</ele><time>2026-04-19T09:40:30Z</time></trkpt><trkpt lat="38.9341095696787" lon="-9.373685781660251"><ele>107.0</ele><time>2026-04-19T09:40:31Z</time></trkpt><trkpt lat="38.93410950774388" lon="-9.3735383913333"><ele>104.83333333333333</ele><time>2026-04-19T09:40:33Z</time></trkpt><trkpt lat="38.93408924401535" lon="-9.373432992615541"><ele>102.66666666666666</ele><time>2026-04-19T09:40:35Z</time></trkpt><trkpt lat="38.934047281769445" lon="-9.373341451468038"><ele>100.5</ele><time>2026-04-19T09:40:37Z</time></trkpt><trkpt lat="38.93398196199539" lon="-9.373234998518228"><ele>98.33333333333333</ele><time>2026-04-19T09:40:39Z</time></trkpt><trkpt lat="38.93391889435981" lon="-9.37314687314739"><ele>96.16666666666666</ele><time>2026-04-19T09:40:41Z</time></trkpt><trkpt lat="38.933882904227936" lon="-9.373054218306109"><ele>94.0</ele><time>2026-04-19T09:40:43Z</time></trkpt><trkpt lat="38.93386852174694" lon="-9.372931479511948"><ele>93.2</ele><time>2026-04-19T09:40:45Z</time></trkpt><trkpt lat="38.9339827084995" lon="-9.372850778740608"><ele>92.4</ele><time>2026-04-19T09:40:47Z</time></trkpt><trkpt lat="38.9340639091304" lon="-9.372842485920664"><ele>91.6</ele><time>2026-04-19T09:40:48Z</time></trkpt><trkpt lat="38.934135033878974" lon="-9.37286174398104"><ele>90.8</ele><time>2026-04-19T09:40:49Z</time></trkpt><trkpt lat="38.934254389120085" lon="-9.372891582606256"><ele>90.0</ele><time>2026-04-19T09:40:51Z</time></trkpt><trkpt lat="38.93436774410119" lon="-9.372937178480345"><ele>90.0</ele><time>2026-04-19T09:40:53Z</time></trkpt><trkpt lat="38.93446804091306" lon="-9.372978931797556"><ele>90.0</ele><time>2026-04-19T09:40:55Z</time></trkpt><trkpt lat="38.93451102618978" lon="-9.373043570418618"><ele>90.0</ele><time>2026-04-19T09:40:56Z</time></trkpt><trkpt lat="38.934598832698256" lon="-9.373113638083199"><ele>90.0</ele><time>2026-04-19T09:40:58Z</time></trkpt><trkpt lat="38.93470540058234" lon="-9.373129017288928"><ele>90.0</ele><time>2026-04-19T09:41:00Z</time></trkpt><trkpt lat="38.93474348002181" lon="-9.373049630506834"><ele>90.0</ele><time>2026-04-19T09:41:02Z</time></trkpt><trkpt lat="38.934680861174165" lon="-9.373010807236279"><ele>90.0</ele><time>2026-04-19T09:41:03Z</time></trkpt><trkpt lat="38.93461248877862" lon="-9.373018379795932"><ele>90.0</ele><time>2026-04-19T09:41:04Z</time></trkpt><trkpt lat="38.934562672752094" lon="-9.372846251104919"><ele>90.0</ele><time>2026-04-19T09:41:06Z</time></trkpt><trkpt lat="38.93451453483804" lon="-9.37273648983546"><ele>90.0</ele><time>2026-04-19T09:41:07Z</time></trkpt><trkpt lat="38.93446490681062" lon="-9.372674582324791"><ele>90.0</ele><time>2026-04-19T09:41:08Z</time></trkpt><trkpt lat="38.93441607874625" lon="-9.372621852626366"><ele>90.0</ele><time>2026-04-19T09:41:09Z</time></trkpt><trkpt lat="38.93436317773848" lon="-9.372565335347801"><ele>90.0</ele><time>2026-04-19T09:41:10Z</time></trkpt><trkpt lat="38.93430830010238" lon="-9.37252510605202"><ele>90.0</ele><time>2026-04-19T09:41:11Z</time></trkpt><trkpt lat="38.93420248366213" lon="-9.372444443197908"><ele>90.0</ele><time>2026-04-19T09:41:13Z</time></trkpt><trkpt lat="38.9341099573887" lon="-9.372397966012906"><ele>90.0</ele><time>2026-04-19T09:41:15Z</time></trkpt><trkpt lat="38.93401908421728" lon="-9.372306345457162"><ele>86.0</ele><time>2026-04-19T09:41:17Z</time></trkpt><trkpt lat="38.933934019439846" lon="-9.372184063670025"><ele>82.0</ele><time>2026-04-19T09:41:19Z</time></trkpt><trkpt lat="38.93388335419225" lon="-9.37212560004902"><ele>78.0</ele><time>2026-04-19T09:41:20Z</time></trkpt><trkpt lat="38.933788370815044" lon="-9.37204307394262"><ele>74.0</ele><time>2026-04-19T09:41:22Z</time></trkpt><trkpt lat="38.93369378020757" lon="-9.37201598906091"><ele>70.0</ele><time>2026-04-19T09:41:24Z</time></trkpt><trkpt lat="38.933594708472874" lon="-9.372011051824073"><ele>70.0</ele><time>2026-04-19T09:41:26Z</time></trkpt><trkpt lat="38.93354470379752" lon="-9.3720641408732"><ele>70.0</ele><time>2026-04-19T09:41:27Z</time></trkpt><trkpt lat="38.93346055934435" lon="-9.372122801765169"><ele>70.0</ele><time>2026-04-19T09:41:28Z</time></trkpt><trkpt lat="38.93339884680106" lon="-9.372184953227334"><ele>70.0</ele><time>2026-04-19T09:41:29Z</time></trkpt><trkpt lat="38.933338769077714" lon="-9.37223709091352"><ele>70.0</ele><time>2026-04-19T09:41:30Z</time></trkpt><trkpt lat="38.93325441541001" lon="-9.372300412013121"><ele>70.0</ele><time>2026-04-19T09:41:31Z</time></trkpt><trkpt lat="38.933166708473216" lon="-9.37236083343975"><ele>67.75</ele><time>2026-04-19T09:41:32Z</time></trkpt><trkpt lat="38.933074976319624" lon="-9.37242124824386"><ele>65.5</ele><time>2026-04-19T09:41:33Z</time></trkpt><trkpt lat="38.932952240461546" lon="-9.372493719625503"><ele>63.25</ele><time>2026-04-19T09:41:34Z</time></trkpt><trkpt lat="38.93284209388059" lon="-9.372553494305112"><ele>61.0</ele><time>2026-04-19T09:41:35Z</time></trkpt><trkpt lat="38.93271609938809" lon="-9.372610205815455"><ele>61.0</ele><time>2026-04-19T09:41:36Z</time></trkpt><trkpt lat="38.93259989878386" lon="-9.372689389434646"><ele>60.99999999999999</ele><time>2026-04-19T09:41:37Z</time></trkpt><trkpt lat="38.93250227457738" lon="-9.372753371285853"><ele>60.99999999999999</ele><time>2026-04-19T09:41:38Z</time></trkpt><trkpt lat="38.9324220864691" lon="-9.372793176768695"><ele>61.0</ele><time>2026-04-19T09:41:39Z</time></trkpt><trkpt lat="38.93234946526009" lon="-9.372835523893036"><ele>61.0</ele><time>2026-04-19T09:41:40Z</time></trkpt><trkpt lat="38.9322806296666" lon="-9.372897668793714"><ele>61.99999999999999</ele><time>2026-04-19T09:41:41Z</time></trkpt><trkpt lat="38.93223778868228" lon="-9.372988481213222"><ele>63.0</ele><time>2026-04-19T09:41:42Z</time></trkpt><trkpt lat="38.93216135759363" lon="-9.373041778611137"><ele>64.0</ele><time>2026-04-19T09:41:43Z</time></trkpt><trkpt lat="38.932085963452494" lon="-9.373079707143038"><ele>65.0</ele><time>2026-04-19T09:41:44Z</time></trkpt><trkpt lat="38.932021681656686" lon="-9.37311037706064"><ele>66.0</ele><time>2026-04-19T09:41:45Z</time></trkpt><trkpt lat="38.931945057033836" lon="-9.37311395044023"><ele>67.0</ele><time>2026-04-19T09:41:46Z</time></trkpt><trkpt lat="38.93187724932254" lon="-9.373090536997108"><ele>67.0</ele><time>2026-04-19T09:41:47Z</time></trkpt><trkpt lat="38.93179669417043" lon="-9.373176185147168"><ele>67.0</ele><time>2026-04-19T09:41:49Z</time></trkpt><trkpt lat="38.9317374202543" lon="-9.373316095802812"><ele>67.0</ele><time>2026-04-19T09:41:51Z</time></trkpt><trkpt lat="38.93167858380223" lon="-9.373408269964983"><ele>67.0</ele><time>2026-04-19T09:41:53Z</time></trkpt><trkpt lat="38.93158531725048" lon="-9.373482489968314"><ele>67.0</ele><time>2026-04-19T09:41:55Z</time></trkpt><trkpt lat="38.931476586832986" lon="-9.373531020164085"><ele>62.666666666666664</ele><time>2026-04-19T09:41:57Z</time></trkpt><trkpt lat="38.931406034669436" lon="-9.373561623916263"><ele>58.33333333333333</ele><time>2026-04-19T09:41:58Z</time></trkpt><trkpt lat="38.93132712886535" lon="-9.373585485353939"><ele>54.0</ele><time>2026-04-19T09:41:59Z</time></trkpt><trkpt lat="38.93123750759296" lon="-9.37359453090793"><ele>49.666666666666664</ele><time>2026-04-19T09:42:00Z</time></trkpt><trkpt lat="38.931165259768505" lon="-9.373593770720957"><ele>45.33333333333333</ele><time>2026-04-19T09:42:01Z</time></trkpt><trkpt lat="38.931089066607306" lon="-9.373602641209212"><ele>41.0</ele><time>2026-04-19T09:42:02Z</time></trkpt><trkpt lat="38.93100287726123" lon="-9.373636427952949"><ele>41.0</ele><time>2026-04-19T09:42:03Z</time></trkpt><trkpt lat="38.93091290362584" lon="-9.373661270631516"><ele>41.0</ele><time>2026-04-19T09:42:04Z</time></trkpt><trkpt lat="38.93083575384043" lon="-9.373646598943873"><ele>41.0</ele><time>2026-04-19T09:42:05Z</time></trkpt><trkpt lat="38.93078666128564" lon="-9.373592860589923"><ele>41.0</ele><time>2026-04-19T09:42:06Z</time></trkpt><trkpt lat="38.93071787323502" lon="-9.373539092494696"><ele>41.0</ele><time>2026-04-19T09:42:08Z</time></trkpt><trkpt lat="38.93064506062966" lon="-9.37365412449075"><ele>41.0</ele><time>2026-04-19T09:42:10Z</time></trkpt><trkpt lat="38.93060941014244" lon="-9.373766518058222"><ele>40.75</ele><time>2026-04-19T09:42:11Z</time></trkpt><trkpt lat="38.930554257188355" lon="-9.373904849371803"><ele>40.5</ele><time>2026-04-19T09:42:12Z</time></trkpt><trkpt lat="38.930490234463434" lon="-9.374044291788914"><ele>40.25</ele><time>2026-04-19T09:42:13Z</time></trkpt><trkpt lat="38.930429547137344" lon="-9.374183233111353"><ele>40.0</ele><time>2026-04-19T09:42:14Z</time></trkpt><trkpt lat="38.93038129979619" lon="-9.37427758090899"><ele>40.0</ele><time>2026-04-19T09:42:15Z</time></trkpt><trkpt lat="38.93031581287873" lon="-9.37437945353937"><ele>40.0</ele><time>2026-04-19T09:42:16Z</time></trkpt><trkpt lat="38.93025297092054" lon="-9.374489665162056"><ele>40.0</ele><time>2026-04-19T09:42:17Z</time></trkpt><trkpt lat="38.9302060445248" lon="-9.374609346436225"><ele>40.0</ele><time>2026-04-19T09:42:18Z</time></trkpt><trkpt lat="38.930158909604465" lon="-9.374727019785048"><ele>40.0</ele><time>2026-04-19T09:42:19Z</time></trkpt><trkpt lat="38.93011906090297" lon="-9.374815338742"><ele>37.5</ele><time>2026-04-19T09:42:20Z</time></trkpt><trkpt lat="38.9300791895993" lon="-9.374909466021569"><ele>35.0</ele><time>2026-04-19T09:42:21Z</time></trkpt><trkpt lat="38.930043831157164" lon="-9.375015640808641"><ele>32.5</ele><time>2026-04-19T09:42:22Z</time></trkpt><trkpt lat="38.930020503955824" lon="-9.375121128560851"><ele>30.0</ele><time>2026-04-19T09:42:23Z</time></trkpt><trkpt lat="38.92997511246152" lon="-9.3752054538251"><ele>27.500000000000004</ele><time>2026-04-19T09:42:24Z</time></trkpt><trkpt lat="38.929922131462945" lon="-9.375330153611444"><ele>25.0</ele><time>2026-04-19T09:42:26Z</time></trkpt><trkpt lat="38.92988063627087" lon="-9.375406566899278"><ele>25.0</ele><time>2026-04-19T09:42:27Z</time></trkpt><trkpt lat="38.9298373099684" lon="-9.375500836218158"><ele>25.0</ele><time>2026-04-19T09:42:28Z</time></trkpt><trkpt lat="38.92980181229304" lon="-9.37560342188571"><ele>25.0</ele><time>2026-04-19T09:42:29Z</time></trkpt><trkpt lat="38.92979470552317" lon="-9.375726656140285"><ele>25.0</ele><time>2026-04-19T09:42:30Z</time></trkpt><trkpt lat="38.929733233827946" lon="-9.37583398442925"><ele>25.0</ele><time>2026-04-19T09:42:31Z</time></trkpt><trkpt lat="38.92965513309537" lon="-9.375944153373828"><ele>26.833333333333336</ele><time>2026-04-19T09:42:32Z</time></trkpt><trkpt lat="38.92959982423804" lon="-9.37605880122694"><ele>28.666666666666668</ele><time>2026-04-19T09:42:33Z</time></trkpt><trkpt lat="38.92956286964906" lon="-9.376148403217925"><ele>30.5</ele><time>2026-04-19T09:42:34Z</time></trkpt><trkpt lat="38.92953031833394" lon="-9.376228927903703"><ele>32.333333333333336</ele><time>2026-04-19T09:42:35Z</time></trkpt><trkpt lat="38.929498908916" lon="-9.376335210982477"><ele>34.166666666666664</ele><time>2026-04-19T09:42:36Z</time></trkpt><trkpt lat="38.92949114251246" lon="-9.376447076049814"><ele>36.0</ele><time>2026-04-19T09:42:37Z</time></trkpt><trkpt lat="38.929494768003764" lon="-9.376561897648655"><ele>37.6</ele><time>2026-04-19T09:42:38Z</time></trkpt><trkpt lat="38.929508215646884" lon="-9.376683514341199"><ele>39.2</ele><time>2026-04-19T09:42:39Z</time></trkpt><trkpt lat="38.92953200684998" lon="-9.376814767174658"><ele>40.800000000000004</ele><time>2026-04-19T09:42:40Z</time></trkpt><trkpt lat="38.929529103757105" lon="-9.376924364014505"><ele>42.400000000000006</ele><time>2026-04-19T09:42:41Z</time></trkpt><trkpt lat="38.92952438727046" lon="-9.37704721486652"><ele>44.0</ele><time>2026-04-19T09:42:42Z</time></trkpt><trkpt lat="38.929559534891574" lon="-9.377164989763749"><ele>44.0</ele><time>2026-04-19T09:42:43Z</time></trkpt><trkpt lat="38.929601223240894" lon="-9.377295090443194"><ele>44.0</ele><time>2026-04-19T09:42:44Z</time></trkpt><trkpt lat="38.929593364047435" lon="-9.377438723076985"><ele>44.0</ele><time>2026-04-19T09:42:45Z</time></trkpt><trkpt lat="38.92958988503338" lon="-9.377556692465001"><ele>44.0</ele><time>2026-04-19T09:42:46Z</time></trkpt><trkpt lat="38.92959421617194" lon="-9.37765784726889"><ele>44.0</ele><time>2026-04-19T09:42:47Z</time></trkpt><trkpt lat="38.92958755937557" lon="-9.377740973407082"><ele>44.0</ele><time>2026-04-19T09:42:48Z</time></trkpt><trkpt lat="38.92957062877961" lon="-9.377834670901603"><ele>44.0</ele><time>2026-04-19T09:42:49Z</time></trkpt><trkpt lat="38.92954760089669" lon="-9.377938490787749"><ele>44.0</ele><time>2026-04-19T09:42:50Z</time></trkpt><trkpt lat="38.92952408914424" lon="-9.378043329336265"><ele>44.0</ele><time>2026-04-19T09:42:51Z</time></trkpt><trkpt lat="38.92949961447977" lon="-9.378137409805408"><ele>44.0</ele><time>2026-04-19T09:42:52Z</time></trkpt><trkpt lat="38.92948100804418" lon="-9.378249638731214"><ele>44.0</ele><time>2026-04-19T09:42:53Z</time></trkpt><trkpt lat="38.92944551391645" lon="-9.37838770251967"><ele>45.400000000000006</ele><time>2026-04-19T09:42:54Z</time></trkpt><trkpt lat="38.929411822708474" lon="-9.37851031292521"><ele>46.8</ele><time>2026-04-19T09:42:55Z</time></trkpt><trkpt lat="38.92937969032226" lon="-9.378610557038789"><ele>48.2</ele><time>2026-04-19T09:42:56Z</time></trkpt><trkpt lat="38.92935616003204" lon="-9.37873192062395"><ele>49.599999999999994</ele><time>2026-04-19T09:42:57Z</time></trkpt><trkpt lat="38.92933524814965" lon="-9.378838780321969"><ele>51.0</ele><time>2026-04-19T09:42:58Z</time></trkpt><trkpt lat="38.9293022913171" lon="-9.37895724029455"><ele>51.166666666666664</ele><time>2026-04-19T09:42:59Z</time></trkpt><trkpt lat="38.929272245085286" lon="-9.37906543391202"><ele>51.33333333333333</ele><time>2026-04-19T09:43:00Z</time></trkpt><trkpt lat="38.92923529081223" lon="-9.379167544865812"><ele>51.5</ele><time>2026-04-19T09:43:01Z</time></trkpt><trkpt lat="38.92921805482833" lon="-9.379298498343223"><ele>51.666666666666664</ele><time>2026-04-19T09:43:02Z</time></trkpt><trkpt lat="38.92919977804462" lon="-9.379398180002179"><ele>51.83333333333333</ele><time>2026-04-19T09:43:03Z</time></trkpt><trkpt lat="38.929175700152086" lon="-9.379475613946717"><ele>52.0</ele><time>2026-04-19T09:43:04Z</time></trkpt><trkpt lat="38.92914663113971" lon="-9.379632477299191"><ele>50.14285714285714</ele><time>2026-04-19T09:43:06Z</time></trkpt><trkpt lat="38.9291464089437" lon="-9.379717263401162"><ele>48.28571428571429</ele><time>2026-04-19T09:43:07Z</time></trkpt><trkpt lat="38.92916197171121" lon="-9.379818654808632"><ele>46.42857142857143</ele><time>2026-04-19T09:43:08Z</time></trkpt><trkpt lat="38.929188879269915" lon="-9.379902345177952"><ele>44.57142857142857</ele><time>2026-04-19T09:43:09Z</time></trkpt><trkpt lat="38.92921177719565" lon="-9.379995528212172"><ele>42.71428571428571</ele><time>2026-04-19T09:43:10Z</time></trkpt><trkpt lat="38.92924136956632" lon="-9.38007540291359"><ele>40.85714285714286</ele><time>2026-04-19T09:43:11Z</time></trkpt><trkpt lat="38.92930493594243" lon="-9.380137642556727"><ele>39.0</ele><time>2026-04-19T09:43:12Z</time></trkpt><trkpt lat="38.92937088918682" lon="-9.380194378113709"><ele>39.0</ele><time>2026-04-19T09:43:13Z</time></trkpt><trkpt lat="38.929420092712725" lon="-9.38024981841897"><ele>39.0</ele><time>2026-04-19T09:43:14Z</time></trkpt><trkpt lat="38.92948581275466" lon="-9.380292854210165"><ele>39.0</ele><time>2026-04-19T09:43:15Z</time></trkpt><trkpt lat="38.92957770120088" lon="-9.380387892291852"><ele>39.0</ele><time>2026-04-19T09:43:16Z</time></trkpt><trkpt lat="38.92959996122402" lon="-9.380478850410757"><ele>39.0</ele><time>2026-04-19T09:43:18Z</time></trkpt><trkpt lat="38.92971361321103" lon="-9.380481941570787"><ele>39.0</ele><time>2026-04-19T09:43:20Z</time></trkpt><trkpt lat="38.92978544328924" lon="-9.380537215397661"><ele>39.8</ele><time>2026-04-19T09:43:21Z</time></trkpt><trkpt lat="38.929840481075004" lon="-9.380581216496427"><ele>40.599999999999994</ele><time>2026-04-19T09:43:22Z</time></trkpt><trkpt lat="38.92992911137458" lon="-9.380677343938471"><ele>41.4</ele><time>2026-04-19T09:43:24Z</time></trkpt><trkpt lat="38.9299947545238" lon="-9.380722461608228"><ele>42.199999999999996</ele><time>2026-04-19T09:43:25Z</time></trkpt><trkpt lat="38.93005649914002" lon="-9.380761779090687"><ele>43.0</ele><time>2026-04-19T09:43:26Z</time></trkpt><trkpt lat="38.93017618121985" lon="-9.380832624223054"><ele>43.0</ele><time>2026-04-19T09:43:28Z</time></trkpt><trkpt lat="38.930235136427996" lon="-9.380909127651929"><ele>43.0</ele><time>2026-04-19T09:43:29Z</time></trkpt><trkpt lat="38.93028387965985" lon="-9.381001641087256"><ele>43.0</ele><time>2026-04-19T09:43:30Z</time></trkpt><trkpt lat="38.93034899753855" lon="-9.381101281654965"><ele>43.0</ele><time>2026-04-19T09:43:31Z</time></trkpt><trkpt lat="38.930412307023445" lon="-9.381195392839654"><ele>43.0</ele><time>2026-04-19T09:43:32Z</time></trkpt><trkpt lat="38.930476447354685" lon="-9.381276366609256"><ele>43.0</ele><time>2026-04-19T09:43:33Z</time></trkpt><trkpt lat="38.93053679406593" lon="-9.38134355255725"><ele>43.0</ele><time>2026-04-19T09:43:34Z</time></trkpt><trkpt lat="38.930596641401074" lon="-9.381388887397684"><ele>43.0</ele><time>2026-04-19T09:43:35Z</time></trkpt><trkpt lat="38.93065601786891" lon="-9.381433171493166"><ele>43.0</ele><time>2026-04-19T09:43:36Z</time></trkpt><trkpt lat="38.930706480549794" lon="-9.38149352695809"><ele>43.0</ele><time>2026-04-19T09:43:37Z</time></trkpt><trkpt lat="38.930747408670925" lon="-9.381570492313688"><ele>43.0</ele><time>2026-04-19T09:43:38Z</time></trkpt><trkpt lat="38.93081941093841" lon="-9.381697617198643"><ele>41.0</ele><time>2026-04-19T09:43:40Z</time></trkpt><trkpt lat="38.930865157250395" lon="-9.381784221154835"><ele>39.0</ele><time>2026-04-19T09:43:41Z</time></trkpt><trkpt lat="38.9309214881311" lon="-9.381863682198292"><ele>37.0</ele><time>2026-04-19T09:43:42Z</time></trkpt><trkpt lat="38.93098245857339" lon="-9.381969530385753"><ele>35.0</ele><time>2026-04-19T09:43:43Z</time></trkpt><trkpt lat="38.93103620233478" lon="-9.382059735705166"><ele>33.0</ele><time>2026-04-19T09:43:44Z</time></trkpt><trkpt lat="38.93109498877628" lon="-9.382133291668543"><ele>31.0</ele><time>2026-04-19T09:43:45Z</time></trkpt><trkpt lat="38.9311488744074" lon="-9.38221709181992"><ele>28.666666666666668</ele><time>2026-04-19T09:43:46Z</time></trkpt><trkpt lat="38.93121958457923" lon="-9.382309581469604"><ele>26.333333333333336</ele><time>2026-04-19T09:43:47Z</time></trkpt><trkpt lat="38.93127884934767" lon="-9.382382900160245"><ele>24.0</ele><time>2026-04-19T09:43:48Z</time></trkpt><trkpt lat="38.93133367509585" lon="-9.382452278695999"><ele>21.666666666666668</ele><time>2026-04-19T09:43:49Z</time></trkpt><trkpt lat="38.93139122005115" lon="-9.382532741882907"><ele>19.333333333333336</ele><time>2026-04-19T09:43:50Z</time></trkpt><trkpt lat="38.93145086321219" lon="-9.382612002804843"><ele>17.0</ele><time>2026-04-19T09:43:51Z</time></trkpt><trkpt lat="38.931508510319574" lon="-9.382683818834273"><ele>17.0</ele><time>2026-04-19T09:43:52Z</time></trkpt><trkpt lat="38.93155947683274" lon="-9.382766840123615"><ele>17.0</ele><time>2026-04-19T09:43:53Z</time></trkpt><trkpt lat="38.93161472711994" lon="-9.382853519942259"><ele>17.0</ele><time>2026-04-19T09:43:54Z</time></trkpt><trkpt lat="38.93166711627805" lon="-9.382946517699406"><ele>17.0</ele><time>2026-04-19T09:43:55Z</time></trkpt><trkpt lat="38.93173008291887" lon="-9.383021879020006"><ele>17.0</ele><time>2026-04-19T09:43:56Z</time></trkpt><trkpt lat="38.931791417193516" lon="-9.38309826042312"><ele>17.0</ele><time>2026-04-19T09:43:57Z</time></trkpt><trkpt lat="38.9318292376418" lon="-9.383180293881546"><ele>16.166666666666668</ele><time>2026-04-19T09:43:58Z</time></trkpt><trkpt lat="38.93184456814171" lon="-9.383270569584536"><ele>15.333333333333334</ele><time>2026-04-19T09:43:59Z</time></trkpt><trkpt lat="38.931841682357096" lon="-9.383360139130655"><ele>14.5</ele><time>2026-04-19T09:44:00Z</time></trkpt><trkpt lat="38.93180845926437" lon="-9.383452875081245"><ele>13.666666666666668</ele><time>2026-04-19T09:44:01Z</time></trkpt><trkpt lat="38.931764652095694" lon="-9.38352435311357"><ele>12.833333333333334</ele><time>2026-04-19T09:44:02Z</time></trkpt><trkpt lat="38.93175001631564" lon="-9.383605639274188"><ele>12.0</ele><time>2026-04-19T09:44:03Z</time></trkpt><trkpt lat="38.93185758961074" lon="-9.383687368879176"><ele>12.0</ele><time>2026-04-19T09:44:05Z</time></trkpt><trkpt lat="38.93194860867866" lon="-9.383657776736769"><ele>12.0</ele><time>2026-04-19T09:44:06Z</time></trkpt><trkpt lat="38.93205095740293" lon="-9.383649914057553"><ele>12.0</ele><time>2026-04-19T09:44:07Z</time></trkpt><trkpt lat="38.932167494491026" lon="-9.383656915619534"><ele>12.0</ele><time>2026-04-19T09:44:08Z</time></trkpt><trkpt lat="38.93226927199297" lon="-9.383634132568412"><ele>12.0</ele><time>2026-04-19T09:44:09Z</time></trkpt><trkpt lat="38.93233321957867" lon="-9.383577703216881"><ele>12.0</ele><time>2026-04-19T09:44:10Z</time></trkpt><trkpt lat="38.93243192640445" lon="-9.383508950692361"><ele>12.0</ele><time>2026-04-19T09:44:12Z</time></trkpt><trkpt lat="38.93253483039272" lon="-9.383537287377553"><ele>12.0</ele><time>2026-04-19T09:44:14Z</time></trkpt><trkpt lat="38.93261294459675" lon="-9.383549597856632"><ele>12.0</ele><time>2026-04-19T09:44:15Z</time></trkpt><trkpt lat="38.932708724672985" lon="-9.383550445919767"><ele>12.0</ele><time>2026-04-19T09:44:16Z</time></trkpt><trkpt lat="38.93281880843415" lon="-9.383541531906308"><ele>12.6</ele><time>2026-04-19T09:44:17Z</time></trkpt><trkpt lat="38.93290919207923" lon="-9.383516741860625"><ele>13.2</ele><time>2026-04-19T09:44:18Z</time></trkpt><trkpt lat="38.93297502280594" lon="-9.383479312871716"><ele>13.8</ele><time>2026-04-19T09:44:19Z</time></trkpt><trkpt lat="38.93307254817558" lon="-9.383382411783966"><ele>14.4</ele><time>2026-04-19T09:44:21Z</time></trkpt><trkpt lat="38.93309695562445" lon="-9.383282788581534"><ele>15.0</ele><time>2026-04-19T09:44:22Z</time></trkpt><trkpt lat="38.93308898515287" lon="-9.383158910002846"><ele>15.0</ele><time>2026-04-19T09:44:23Z</time></trkpt><trkpt lat="38.93308590957821" lon="-9.383053330818095"><ele>15.0</ele><time>2026-04-19T09:44:24Z</time></trkpt><trkpt lat="38.93308670496824" lon="-9.382954445395573"><ele>15.0</ele><time>2026-04-19T09:44:25Z</time></trkpt><trkpt lat="38.93309144670564" lon="-9.382863792723644"><ele>15.0</ele><time>2026-04-19T09:44:26Z</time></trkpt><trkpt lat="38.933103232718445" lon="-9.382764252584995"><ele>15.0</ele><time>2026-04-19T09:44:27Z</time></trkpt><trkpt lat="38.933122793536775" lon="-9.382670438548269"><ele>15.0</ele><time>2026-04-19T09:44:28Z</time></trkpt><trkpt lat="38.93314081599526" lon="-9.3825866594727"><ele>14.666666666666666</ele><time>2026-04-19T09:44:29Z</time></trkpt><trkpt lat="38.93317382929754" lon="-9.382507066753181"><ele>14.333333333333332</ele><time>2026-04-19T09:44:30Z</time></trkpt><trkpt lat="38.933213448760526" lon="-9.382423653137765"><ele>14.0</ele><time>2026-04-19T09:44:31Z</time></trkpt><trkpt lat="38.93326436458786" lon="-9.382340675634529"><ele>13.666666666666666</ele><time>2026-04-19T09:44:32Z</time></trkpt><trkpt lat="38.93332946040141" lon="-9.38227632797867"><ele>13.333333333333332</ele><time>2026-04-19T09:44:33Z</time></trkpt><trkpt lat="38.93338817932643" lon="-9.38222273139604"><ele>13.0</ele><time>2026-04-19T09:44:34Z</time></trkpt><trkpt lat="38.933441917867114" lon="-9.382160780796923"><ele>14.333333333333332</ele><time>2026-04-19T09:44:35Z</time></trkpt><trkpt lat="38.93350166203842" lon="-9.382096793855984"><ele>15.666666666666666</ele><time>2026-04-19T09:44:36Z</time></trkpt><trkpt lat="38.93357130299731" lon="-9.38206728325886"><ele>17.0</ele><time>2026-04-19T09:44:37Z</time></trkpt><trkpt lat="38.933672180404564" lon="-9.382073498145475"><ele>18.333333333333332</ele><time>2026-04-19T09:44:39Z</time></trkpt><trkpt lat="38.93375401998376" lon="-9.3820669906849"><ele>19.666666666666668</ele><time>2026-04-19T09:44:41Z</time></trkpt><trkpt lat="38.933821157576816" lon="-9.382083396504312"><ele>21.0</ele><time>2026-04-19T09:44:43Z</time></trkpt><trkpt lat="38.93388534210499" lon="-9.382129961145626"><ele>20.0</ele><time>2026-04-19T09:44:45Z</time></trkpt><trkpt lat="38.93392552983643" lon="-9.382216022468086"><ele>19.0</ele><time>2026-04-19T09:44:47Z</time></trkpt><trkpt lat="38.93390186927379" lon="-9.382326616658617"><ele>18.0</ele><time>2026-04-19T09:44:49Z</time></trkpt><trkpt lat="38.933933920388924" lon="-9.38241643602984"><ele>17.0</ele><time>2026-04-19T09:44:50Z</time></trkpt><trkpt lat="38.93396679816838" lon="-9.382488033795747"><ele>16.0</ele><time>2026-04-19T09:44:51Z</time></trkpt><trkpt lat="38.9340027055458" lon="-9.382586132117481"><ele>15.0</ele><time>2026-04-19T09:44:52Z</time></trkpt><trkpt lat="38.934039097889276" lon="-9.38268743604959"><ele>15.0</ele><time>2026-04-19T09:44:53Z</time></trkpt><trkpt lat="38.93408113460234" lon="-9.382787755054004"><ele>15.0</ele><time>2026-04-19T09:44:54Z</time></trkpt><trkpt lat="38.934131438354804" lon="-9.38290757384778"><ele>15.0</ele><time>2026-04-19T09:44:55Z</time></trkpt><trkpt lat="38.93416439053541" lon="-9.383045979610175"><ele>15.0</ele><time>2026-04-19T09:44:56Z</time></trkpt><trkpt lat="38.93419325221407" lon="-9.383162764626018"><ele>15.0</ele><time>2026-04-19T09:44:57Z</time></trkpt><trkpt lat="38.934242743665976" lon="-9.38328269435725"><ele>14.6</ele><time>2026-04-19T09:44:58Z</time></trkpt><trkpt lat="38.93429940113903" lon="-9.383393092944576"><ele>14.2</ele><time>2026-04-19T09:44:59Z</time></trkpt><trkpt lat="38.93435884759766" lon="-9.383516443811605"><ele>13.8</ele><time>2026-04-19T09:45:00Z</time></trkpt><trkpt lat="38.93441071732383" lon="-9.38365074866602"><ele>13.4</ele><time>2026-04-19T09:45:01Z</time></trkpt><trkpt lat="38.93442387162384" lon="-9.383767665471003"><ele>13.0</ele><time>2026-04-19T09:45:02Z</time></trkpt><trkpt lat="38.93445705019129" lon="-9.383891192651483"><ele>12.999999999999998</ele><time>2026-04-19T09:45:03Z</time></trkpt><trkpt lat="38.934511951852514" lon="-9.383991506980086"><ele>13.0</ele><time>2026-04-19T09:45:04Z</time></trkpt><trkpt lat="38.934544376073696" lon="-9.38406502099539"><ele>13.0</ele><time>2026-04-19T09:45:05Z</time></trkpt><trkpt lat="38.934585341673944" lon="-9.38414043359133"><ele>13.0</ele><time>2026-04-19T09:45:06Z</time></trkpt><trkpt lat="38.93464020151412" lon="-9.384213276092737"><ele>12.999999999999998</ele><time>2026-04-19T09:45:07Z</time></trkpt><trkpt lat="38.93471504312379" lon="-9.38427841573588"><ele>13.0</ele><time>2026-04-19T09:45:08Z</time></trkpt><trkpt lat="38.93477500331167" lon="-9.384348957762516"><ele>12.999999999999998</ele><time>2026-04-19T09:45:09Z</time></trkpt><trkpt lat="38.93482545326029" lon="-9.384438417417018"><ele>13.0</ele><time>2026-04-19T09:45:10Z</time></trkpt><trkpt lat="38.9348731627114" lon="-9.384531313344088"><ele>13.0</ele><time>2026-04-19T09:45:11Z</time></trkpt><trkpt lat="38.934916586565315" lon="-9.384628892750754"><ele>13.0</ele><time>2026-04-19T09:45:12Z</time></trkpt><trkpt lat="38.934946106725626" lon="-9.384733649286138"><ele>12.999999999999998</ele><time>2026-04-19T09:45:13Z</time></trkpt><trkpt lat="38.93496339707101" lon="-9.384846063972317"><ele>13.0</ele><time>2026-04-19T09:45:14Z</time></trkpt><trkpt lat="38.93494916725862" lon="-9.38493014401544"><ele>12.499999999999998</ele><time>2026-04-19T09:45:15Z</time></trkpt><trkpt lat="38.93495657217114" lon="-9.385013311495783"><ele>12.0</ele><time>2026-04-19T09:45:16Z</time></trkpt><trkpt lat="38.93495925454087" lon="-9.385100108789324"><ele>11.5</ele><time>2026-04-19T09:45:17Z</time></trkpt><trkpt lat="38.934965242706106" lon="-9.385185380305595"><ele>11.0</ele><time>2026-04-19T09:45:18Z</time></trkpt><trkpt lat="38.93497807402105" lon="-9.385272055688171"><ele>10.5</ele><time>2026-04-19T09:45:19Z</time></trkpt><trkpt lat="38.93500161122588" lon="-9.385407520794253"><ele>10.0</ele><time>2026-04-19T09:45:21Z</time></trkpt><trkpt lat="38.935044286751484" lon="-9.385509167987172"><ele>11.0</ele><time>2026-04-19T09:45:22Z</time></trkpt><trkpt lat="38.93507642096264" lon="-9.385614901325864"><ele>12.0</ele><time>2026-04-19T09:45:23Z</time></trkpt><trkpt lat="38.93509881013067" lon="-9.385732939513066"><ele>13.0</ele><time>2026-04-19T09:45:24Z</time></trkpt><trkpt lat="38.93513459580462" lon="-9.385848876931368"><ele>14.0</ele><time>2026-04-19T09:45:25Z</time></trkpt><trkpt lat="38.93517759100303" lon="-9.385949954171855"><ele>15.0</ele><time>2026-04-19T09:45:26Z</time></trkpt><trkpt lat="38.935219196965726" lon="-9.386058142202003"><ele>15.0</ele><time>2026-04-19T09:45:27Z</time></trkpt><trkpt lat="38.93526323897707" lon="-9.3861832218868"><ele>15.0</ele><time>2026-04-19T09:45:28Z</time></trkpt><trkpt lat="38.935317567509436" lon="-9.386312066964734"><ele>15.0</ele><time>2026-04-19T09:45:29Z</time></trkpt><trkpt lat="38.935366443692494" lon="-9.386416033220074"><ele>15.0</ele><time>2026-04-19T09:45:30Z</time></trkpt><trkpt lat="38.935400409027814" lon="-9.386507141465128"><ele>15.0</ele><time>2026-04-19T09:45:31Z</time></trkpt><trkpt lat="38.93543338545057" lon="-9.3865865000292"><ele>14.714285714285715</ele><time>2026-04-19T09:45:32Z</time></trkpt><trkpt lat="38.93546665055945" lon="-9.386664450684929"><ele>14.428571428571427</ele><time>2026-04-19T09:45:33Z</time></trkpt><trkpt lat="38.935497786644255" lon="-9.386749319246853"><ele>14.142857142857142</ele><time>2026-04-19T09:45:34Z</time></trkpt><trkpt lat="38.935523976005875" lon="-9.386823815455685"><ele>13.857142857142858</ele><time>2026-04-19T09:45:35Z</time></trkpt><trkpt lat="38.93555227912582" lon="-9.386903274384318"><ele>13.571428571428573</ele><time>2026-04-19T09:45:36Z</time></trkpt><trkpt lat="38.935580932490254" lon="-9.38699008803657"><ele>13.285714285714285</ele><time>2026-04-19T09:45:37Z</time></trkpt><trkpt lat="38.935606597128185" lon="-9.387064605172764"><ele>13.0</ele><time>2026-04-19T09:45:38Z</time></trkpt><trkpt lat="38.93562572269944" lon="-9.387149260738624"><ele>12.499999999999998</ele><time>2026-04-19T09:45:39Z</time></trkpt><trkpt lat="38.93564717886826" lon="-9.387238670764763"><ele>12.0</ele><time>2026-04-19T09:45:40Z</time></trkpt><trkpt lat="38.93566063949058" lon="-9.38732851521297"><ele>11.5</ele><time>2026-04-19T09:45:41Z</time></trkpt><trkpt lat="38.93566899257686" lon="-9.387409550895697"><ele>11.0</ele><time>2026-04-19T09:45:42Z</time></trkpt><trkpt lat="38.9357043099389" lon="-9.387562380344644"><ele>10.5</ele><time>2026-04-19T09:45:44Z</time></trkpt><trkpt lat="38.93573033719303" lon="-9.38764335987347"><ele>10.0</ele><time>2026-04-19T09:45:45Z</time></trkpt><trkpt lat="38.9357706386539" lon="-9.387725744466227"><ele>10.0</ele><time>2026-04-19T09:45:46Z</time></trkpt><trkpt lat="38.93580249612483" lon="-9.387803324980025"><ele>10.0</ele><time>2026-04-19T09:45:47Z</time></trkpt><trkpt lat="38.93584286772767" lon="-9.38789967795121"><ele>10.0</ele><time>2026-04-19T09:45:48Z</time></trkpt><trkpt lat="38.9359102336444" lon="-9.388011648407126"><ele>10.0</ele><time>2026-04-19T09:45:49Z</time></trkpt><trkpt lat="38.9359692122402" lon="-9.388105202180686"><ele>10.0</ele><time>2026-04-19T09:45:50Z</time></trkpt><trkpt lat="38.93600964992085" lon="-9.388176333948538"><ele>10.0</ele><time>2026-04-19T09:45:51Z</time></trkpt><trkpt lat="38.936000579984636" lon="-9.388289607812546"><ele>10.0</ele><time>2026-04-19T09:45:53Z</time></trkpt><trkpt lat="38.935926802435894" lon="-9.388334946075393"><ele>10.0</ele><time>2026-04-19T09:45:54Z</time></trkpt><trkpt lat="38.93588640845197" lon="-9.388406798343734"><ele>10.0</ele><time>2026-04-19T09:45:55Z</time></trkpt><trkpt lat="38.935926229062" lon="-9.388478589519723"><ele>10.0</ele><time>2026-04-19T09:45:56Z</time></trkpt><trkpt lat="38.93600505218859" lon="-9.388528221290835"><ele>10.0</ele><time>2026-04-19T09:45:57Z</time></trkpt><trkpt lat="38.936076547520884" lon="-9.388527850004445"><ele>10.0</ele><time>2026-04-19T09:45:58Z</time></trkpt><trkpt lat="38.936171228887915" lon="-9.388602440130972"><ele>11.333333333333334</ele><time>2026-04-19T09:46:00Z</time></trkpt><trkpt lat="38.936178654667025" lon="-9.388709536463027"><ele>12.666666666666668</ele><time>2026-04-19T09:46:01Z</time></trkpt><trkpt lat="38.93618275075698" lon="-9.388841191284289"><ele>14.0</ele><time>2026-04-19T09:46:02Z</time></trkpt><trkpt lat="38.93618784398644" lon="-9.38896065588418"><ele>15.333333333333334</ele><time>2026-04-19T09:46:03Z</time></trkpt><trkpt lat="38.936172448594085" lon="-9.389074154332874"><ele>16.666666666666668</ele><time>2026-04-19T09:46:04Z</time></trkpt><trkpt lat="38.93613172470136" lon="-9.389158460161024"><ele>18.0</ele><time>2026-04-19T09:46:05Z</time></trkpt><trkpt lat="38.93609751130805" lon="-9.389254566027255"><ele>18.0</ele><time>2026-04-19T09:46:06Z</time></trkpt><trkpt lat="38.93605248040058" lon="-9.38935667624819"><ele>18.0</ele><time>2026-04-19T09:46:07Z</time></trkpt><trkpt lat="38.93600617636099" lon="-9.389459368057034"><ele>18.0</ele><time>2026-04-19T09:46:08Z</time></trkpt><trkpt lat="38.93595908925431" lon="-9.389546859308487"><ele>18.0</ele><time>2026-04-19T09:46:09Z</time></trkpt><trkpt lat="38.935920071965" lon="-9.389662995162581"><ele>18.0</ele><time>2026-04-19T09:46:10Z</time></trkpt><trkpt lat="38.935874891683284" lon="-9.389800396861991"><ele>16.5</ele><time>2026-04-19T09:46:11Z</time></trkpt><trkpt lat="38.93583836857981" lon="-9.389938797622735"><ele>15.0</ele><time>2026-04-19T09:46:12Z</time></trkpt><trkpt lat="38.935802241917926" lon="-9.390097820890059"><ele>13.5</ele><time>2026-04-19T09:46:13Z</time></trkpt><trkpt lat="38.935767242779654" lon="-9.390233161276702"><ele>12.0</ele><time>2026-04-19T09:46:14Z</time></trkpt><trkpt lat="38.935734979743316" lon="-9.390381035351714"><ele>12.0</ele><time>2026-04-19T09:46:15Z</time></trkpt><trkpt lat="38.9357082675037" lon="-9.390499118907229"><ele>12.0</ele><time>2026-04-19T09:46:16Z</time></trkpt><trkpt lat="38.935676109964064" lon="-9.390616792628089"><ele>12.0</ele><time>2026-04-19T09:46:17Z</time></trkpt><trkpt lat="38.93564599340176" lon="-9.390731128406555"><ele>12.0</ele><time>2026-04-19T09:46:18Z</time></trkpt><trkpt lat="38.93561597800728" lon="-9.39084711360024"><ele>12.0</ele><time>2026-04-19T09:46:19Z</time></trkpt><trkpt lat="38.93558488749926" lon="-9.390980141623126"><ele>12.0</ele><time>2026-04-19T09:46:20Z</time></trkpt><trkpt lat="38.93553971624738" lon="-9.39111179679938"><ele>12.0</ele><time>2026-04-19T09:46:21Z</time></trkpt><trkpt lat="38.93549889821978" lon="-9.39124645670253"><ele>12.0</ele><time>2026-04-19T09:46:22Z</time></trkpt><trkpt lat="38.93545145135673" lon="-9.391379892761133"><ele>12.0</ele><time>2026-04-19T09:46:23Z</time></trkpt><trkpt lat="38.935400319004586" lon="-9.391528556914354"><ele>11.75</ele><time>2026-04-19T09:46:24Z</time></trkpt><trkpt lat="38.93534581320461" lon="-9.391682438719984"><ele>11.5</ele><time>2026-04-19T09:46:25Z</time></trkpt><trkpt lat="38.93529841136415" lon="-9.391830481583288"><ele>11.25</ele><time>2026-04-19T09:46:26Z</time></trkpt><trkpt lat="38.93524691273535" lon="-9.391968119597712"><ele>11.0</ele><time>2026-04-19T09:46:27Z</time></trkpt><trkpt lat="38.935226210427494" lon="-9.392086809022638"><ele>10.8</ele><time>2026-04-19T09:46:28Z</time></trkpt><trkpt lat="38.935251737422064" lon="-9.392214987120997"><ele>10.600000000000001</ele><time>2026-04-19T09:46:29Z</time></trkpt><trkpt lat="38.93530971913228" lon="-9.392322421312487"><ele>10.4</ele><time>2026-04-19T09:46:30Z</time></trkpt><trkpt lat="38.935372844045155" lon="-9.392404619741644"><ele>10.2</ele><time>2026-04-19T09:46:31Z</time></trkpt><trkpt lat="38.93546562529277" lon="-9.392486743427693"><ele>10.0</ele><time>2026-04-19T09:46:32Z</time></trkpt><trkpt lat="38.93556403932096" lon="-9.392561685715716"><ele>10.0</ele><time>2026-04-19T09:46:33Z</time></trkpt><trkpt lat="38.93565778418438" lon="-9.392627421877066"><ele>10.0</ele><time>2026-04-19T09:46:34Z</time></trkpt><trkpt lat="38.93575463796932" lon="-9.392666582989698"><ele>10.0</ele><time>2026-04-19T09:46:35Z</time></trkpt><trkpt lat="38.93584061409584" lon="-9.392705805662965"><ele>10.0</ele><time>2026-04-19T09:46:36Z</time></trkpt><trkpt lat="38.93592050048051" lon="-9.392777454838182"><ele>10.0</ele><time>2026-04-19T09:46:37Z</time></trkpt><trkpt lat="38.93598834652083" lon="-9.39286023662331"><ele>9.833333333333334</ele><time>2026-04-19T09:46:38Z</time></trkpt><trkpt lat="38.93603506998612" lon="-9.39292904844537"><ele>9.666666666666668</ele><time>2026-04-19T09:46:39Z</time></trkpt><trkpt lat="38.93613281110755" lon="-9.393007892478966"><ele>9.5</ele><time>2026-04-19T09:46:41Z</time></trkpt><trkpt lat="38.936203575066436" lon="-9.393055331903284"><ele>9.333333333333334</ele><time>2026-04-19T09:46:42Z</time></trkpt><trkpt lat="38.936285467361586" lon="-9.393084002356222"><ele>9.166666666666666</ele><time>2026-04-19T09:46:44Z</time></trkpt><trkpt lat="38.9363534688479" lon="-9.393105737654762"><ele>9.0</ele><time>2026-04-19T09:46:49Z</time></trkpt><trkpt lat="38.936363758220786" lon="-9.393023088812052"><ele>9.0</ele><time>2026-04-19T09:46:51Z</time></trkpt><trkpt lat="38.93636766742649" lon="-9.39292795203457"><ele>9.0</ele><time>2026-04-19T09:46:58Z</time></trkpt><trkpt lat="38.93637411550641" lon="-9.392816269845525"><ele>9.0</ele><time>2026-04-19T09:47:08Z</time></trkpt><trkpt lat="38.93642540979261" lon="-9.392753880723886"><ele>9.0</ele><time>2026-04-19T09:47:11Z</time></trkpt><trkpt lat="38.93651193859445" lon="-9.392786978921652"><ele>9.0</ele><time>2026-04-19T09:47:13Z</time></trkpt><trkpt lat="38.93663050047149" lon="-9.3928083022347"><ele>9.0</ele><time>2026-04-19T09:47:15Z</time></trkpt><trkpt lat="38.93674562224229" lon="-9.392768764432377"><ele>10.285714285714286</ele><time>2026-04-19T09:47:17Z</time></trkpt><trkpt lat="38.93681355371139" lon="-9.392747587469197"><ele>11.571428571428573</ele><time>2026-04-19T09:47:18Z</time></trkpt><trkpt lat="38.93688800178216" lon="-9.392689329599074"><ele>12.857142857142858</ele><time>2026-04-19T09:47:20Z</time></trkpt><trkpt lat="38.93693793358295" lon="-9.392634082963166"><ele>14.142857142857144</ele><time>2026-04-19T09:47:23Z</time></trkpt><trkpt lat="38.93696694177197" lon="-9.392553843447917"><ele>15.428571428571429</ele><time>2026-04-19T09:47:55Z</time></trkpt><trkpt lat="38.93690499853529" lon="-9.392571982304316"><ele>16.714285714285715</ele><time>2026-04-19T09:47:57Z</time></trkpt><trkpt lat="38.936897355837374" lon="-9.392687628854587"><ele>18.0</ele><time>2026-04-19T09:47:59Z</time></trkpt><trkpt lat="38.93679645825669" lon="-9.39274718599095"><ele>18.0</ele><time>2026-04-19T09:48:01Z</time></trkpt><trkpt lat="38.93672433614452" lon="-9.39278282199063"><ele>18.0</ele><time>2026-04-19T09:48:02Z</time></trkpt><trkpt lat="38.93660436404449" lon="-9.392811520127754"><ele>18.0</ele><time>2026-04-19T09:48:04Z</time></trkpt><trkpt lat="38.9365326910558" lon="-9.392813355741694"><ele>18.0</ele><time>2026-04-19T09:48:05Z</time></trkpt><trkpt lat="38.93642482425616" lon="-9.392782566868641"><ele>18.0</ele><time>2026-04-19T09:48:07Z</time></trkpt><trkpt lat="38.93635188978794" lon="-9.392796207047239"><ele>18.833333333333332</ele><time>2026-04-19T09:48:09Z</time></trkpt><trkpt lat="38.9363457505072" lon="-9.392912243140096"><ele>19.666666666666668</ele><time>2026-04-19T09:48:11Z</time></trkpt><trkpt lat="38.93634628238304" lon="-9.393048464047022"><ele>20.5</ele><time>2026-04-19T09:48:13Z</time></trkpt><trkpt lat="38.93638653221182" lon="-9.393137549099547"><ele>21.333333333333336</ele><time>2026-04-19T09:48:15Z</time></trkpt><trkpt lat="38.93646721691972" lon="-9.393140235595453"><ele>22.166666666666668</ele><time>2026-04-19T09:48:16Z</time></trkpt><trkpt lat="38.93655630530813" lon="-9.393137861251205"><ele>23.0</ele><time>2026-04-19T09:48:17Z</time></trkpt><trkpt lat="38.93665249777354" lon="-9.393159298475295"><ele>22.0</ele><time>2026-04-19T09:48:18Z</time></trkpt><trkpt lat="38.936763971837905" lon="-9.393122834306617"><ele>21.0</ele><time>2026-04-19T09:48:19Z</time></trkpt><trkpt lat="38.93685954161183" lon="-9.393034582781167"><ele>20.0</ele><time>2026-04-19T09:48:20Z</time></trkpt><trkpt lat="38.93693014866963" lon="-9.392973851681573"><ele>19.0</ele><time>2026-04-19T09:48:21Z</time></trkpt><trkpt lat="38.9370194930444" lon="-9.392933831118967"><ele>18.0</ele><time>2026-04-19T09:48:22Z</time></trkpt><trkpt lat="38.937114625261465" lon="-9.392902502165347"><ele>18.0</ele><time>2026-04-19T09:48:23Z</time></trkpt><trkpt lat="38.937204319131034" lon="-9.392876707938678"><ele>18.0</ele><time>2026-04-19T09:48:24Z</time></trkpt><trkpt lat="38.937292780568406" lon="-9.392837119372894"><ele>18.0</ele><time>2026-04-19T09:48:25Z</time></trkpt><trkpt lat="38.937362645498375" lon="-9.39274472757254"><ele>18.0</ele><time>2026-04-19T09:48:26Z</time></trkpt><trkpt lat="38.93747363583039" lon="-9.392677791199882"><ele>18.0</ele><time>2026-04-19T09:48:27Z</time></trkpt><trkpt lat="38.93756359798821" lon="-9.392613410276619"><ele>17.333333333333332</ele><time>2026-04-19T09:48:28Z</time></trkpt><trkpt lat="38.93764013062268" lon="-9.392562274052935"><ele>16.666666666666668</ele><time>2026-04-19T09:48:29Z</time></trkpt><trkpt lat="38.93768946967956" lon="-9.392492009520806"><ele>16.0</ele><time>2026-04-19T09:48:30Z</time></trkpt><trkpt lat="38.93772458933468" lon="-9.392377532176889"><ele>15.333333333333334</ele><time>2026-04-19T09:48:32Z</time></trkpt><trkpt lat="38.93768636446403" lon="-9.392301144768625"><ele>14.666666666666668</ele><time>2026-04-19T09:48:33Z</time></trkpt><trkpt lat="38.93762613147457" lon="-9.392229707868411"><ele>14.0</ele><time>2026-04-19T09:48:34Z</time></trkpt><trkpt lat="38.937633482858615" lon="-9.392136459111134"><ele>14.000000000000002</ele><time>2026-04-19T09:48:35Z</time></trkpt><trkpt lat="38.93769016771086" lon="-9.392025506382213"><ele>14.0</ele><time>2026-04-19T09:48:36Z</time></trkpt><trkpt lat="38.93776248398921" lon="-9.391939863855177"><ele>14.0</ele><time>2026-04-19T09:48:37Z</time></trkpt><trkpt lat="38.93781041168261" lon="-9.391840999666371"><ele>14.0</ele><time>2026-04-19T09:48:38Z</time></trkpt><trkpt lat="38.93786651570835" lon="-9.391787787909779"><ele>14.000000000000002</ele><time>2026-04-19T09:48:39Z</time></trkpt><trkpt lat="38.937929996539935" lon="-9.39174315670256"><ele>14.0</ele><time>2026-04-19T09:48:40Z</time></trkpt><trkpt lat="38.93801787660996" lon="-9.39169691823818"><ele>14.0</ele><time>2026-04-19T09:48:41Z</time></trkpt><trkpt lat="38.938104609483496" lon="-9.391627299268265"><ele>13.999999999999998</ele><time>2026-04-19T09:48:42Z</time></trkpt><trkpt lat="38.9382067446164" lon="-9.391549143898407"><ele>13.999999999999998</ele><time>2026-04-19T09:48:43Z</time></trkpt><trkpt lat="38.93830089861971" lon="-9.391479892459008"><ele>14.0</ele><time>2026-04-19T09:48:44Z</time></trkpt><trkpt lat="38.93837454581247" lon="-9.391410673120136"><ele>14.0</ele><time>2026-04-19T09:48:45Z</time></trkpt><trkpt lat="38.93844868240708" lon="-9.391342576571533"><ele>13.666666666666668</ele><time>2026-04-19T09:48:46Z</time></trkpt><trkpt lat="38.938511647554186" lon="-9.391266977356562"><ele>13.333333333333334</ele><time>2026-04-19T09:48:47Z</time></trkpt><trkpt lat="38.938561880235035" lon="-9.391192522475684"><ele>13.0</ele><time>2026-04-19T09:48:48Z</time></trkpt><trkpt lat="38.93861638210262" lon="-9.39110507680759"><ele>12.666666666666668</ele><time>2026-04-19T09:48:49Z</time></trkpt><trkpt lat="38.93866978402622" lon="-9.39100799153239"><ele>12.333333333333334</ele><time>2026-04-19T09:48:50Z</time></trkpt><trkpt lat="38.938706005343874" lon="-9.390927230751817"><ele>12.0</ele><time>2026-04-19T09:48:51Z</time></trkpt><trkpt lat="38.93876271609103" lon="-9.390863547565312"><ele>12.0</ele><time>2026-04-19T09:48:52Z</time></trkpt><trkpt lat="38.93883987197553" lon="-9.390810137674464"><ele>12.0</ele><time>2026-04-19T09:48:53Z</time></trkpt><trkpt lat="38.93890291201829" lon="-9.390763185519976"><ele>12.0</ele><time>2026-04-19T09:48:54Z</time></trkpt><trkpt lat="38.938957837720174" lon="-9.390712708232059"><ele>12.0</ele><time>2026-04-19T09:48:55Z</time></trkpt><trkpt lat="38.93903496854177" lon="-9.39069350971992"><ele>12.0</ele><time>2026-04-19T09:48:56Z</time></trkpt><trkpt lat="38.9391132678026" lon="-9.390651503801054"><ele>12.0</ele><time>2026-04-19T09:48:57Z</time></trkpt><trkpt lat="38.93919490558887" lon="-9.390594651473421"><ele>12.0</ele><time>2026-04-19T09:48:58Z</time></trkpt><trkpt lat="38.93930344452217" lon="-9.390517281529785"><ele>12.0</ele><time>2026-04-19T09:48:59Z</time></trkpt><trkpt lat="38.93938115927672" lon="-9.390462800929045"><ele>12.0</ele><time>2026-04-19T09:49:00Z</time></trkpt><trkpt lat="38.939460543893" lon="-9.390410705703738"><ele>12.0</ele><time>2026-04-19T09:49:01Z</time></trkpt><trkpt lat="38.93953811284489" lon="-9.390370450497604"><ele>12.0</ele><time>2026-04-19T09:49:02Z</time></trkpt><trkpt lat="38.93962058909999" lon="-9.390337421804718"><ele>12.0</ele><time>2026-04-19T09:49:03Z</time></trkpt><trkpt lat="38.939691593037786" lon="-9.390277511803452"><ele>12.0</ele><time>2026-04-19T09:49:04Z</time></trkpt><trkpt lat="38.939767623255065" lon="-9.390198870408804"><ele>12.0</ele><time>2026-04-19T09:49:05Z</time></trkpt><trkpt lat="38.939862236761925" lon="-9.39017846755936"><ele>12.0</ele><time>2026-04-19T09:49:06Z</time></trkpt><trkpt lat="38.93993332980159" lon="-9.390089815843558"><ele>12.0</ele><time>2026-04-19T09:49:07Z</time></trkpt><trkpt lat="38.9400195140845" lon="-9.390048435919944"><ele>12.2</ele><time>2026-04-19T09:49:08Z</time></trkpt><trkpt lat="38.94009467600939" lon="-9.390038300746246"><ele>12.399999999999999</ele><time>2026-04-19T09:49:09Z</time></trkpt><trkpt lat="38.94017443120758" lon="-9.390035619196366"><ele>12.600000000000001</ele><time>2026-04-19T09:49:10Z</time></trkpt><trkpt lat="38.94025643913649" lon="-9.390039865943757"><ele>12.8</ele><time>2026-04-19T09:49:11Z</time></trkpt><trkpt lat="38.94035847337263" lon="-9.39009629674618"><ele>13.0</ele><time>2026-04-19T09:49:12Z</time></trkpt><trkpt lat="38.94046344768587" lon="-9.390160113913879"><ele>12.999999999999998</ele><time>2026-04-19T09:49:13Z</time></trkpt><trkpt lat="38.94055757213957" lon="-9.390219945699052"><ele>13.0</ele><time>2026-04-19T09:49:14Z</time></trkpt><trkpt lat="38.94063143893791" lon="-9.390303671422737"><ele>13.0</ele><time>2026-04-19T09:49:15Z</time></trkpt><trkpt lat="38.94068154611546" lon="-9.390374935747744"><ele>13.0</ele><time>2026-04-19T09:49:16Z</time></trkpt><trkpt lat="38.940742926944296" lon="-9.390410168779262"><ele>12.999999999999998</ele><time>2026-04-19T09:49:17Z</time></trkpt><trkpt lat="38.94083013045334" lon="-9.390393663274352"><ele>13.0</ele><time>2026-04-19T09:49:18Z</time></trkpt><trkpt lat="38.94092813086049" lon="-9.390373534270708"><ele>12.5</ele><time>2026-04-19T09:49:19Z</time></trkpt><trkpt lat="38.94103645862464" lon="-9.390428465796223"><ele>12.0</ele><time>2026-04-19T09:49:20Z</time></trkpt><trkpt lat="38.94115192478675" lon="-9.390487707953024"><ele>11.5</ele><time>2026-04-19T09:49:21Z</time></trkpt><trkpt lat="38.941282492050334" lon="-9.390556608051567"><ele>11.0</ele><time>2026-04-19T09:49:22Z</time></trkpt><trkpt lat="38.94139622919833" lon="-9.390618958434569"><ele>11.0</ele><time>2026-04-19T09:49:23Z</time></trkpt><trkpt lat="38.94148823994164" lon="-9.390692540500542"><ele>11.0</ele><time>2026-04-19T09:49:24Z</time></trkpt><trkpt lat="38.941580648288515" lon="-9.390725700723193"><ele>11.0</ele><time>2026-04-19T09:49:25Z</time></trkpt><trkpt lat="38.94169654590309" lon="-9.390699296318365"><ele>11.0</ele><time>2026-04-19T09:49:26Z</time></trkpt><trkpt lat="38.94180017639205" lon="-9.390686957213509"><ele>11.0</ele><time>2026-04-19T09:49:27Z</time></trkpt><trkpt lat="38.94190226904191" lon="-9.390694217958027"><ele>10.600000000000001</ele><time>2026-04-19T09:49:28Z</time></trkpt><trkpt lat="38.94199594476753" lon="-9.390737048110147"><ele>10.200000000000001</ele><time>2026-04-19T09:49:29Z</time></trkpt><trkpt lat="38.94209282253608" lon="-9.390795634657657"><ele>9.8</ele><time>2026-04-19T09:49:30Z</time></trkpt><trkpt lat="38.94217028833921" lon="-9.39085203160849"><ele>9.4</ele><time>2026-04-19T09:49:31Z</time></trkpt><trkpt lat="38.94225607712557" lon="-9.390880649970182"><ele>9.0</ele><time>2026-04-19T09:49:32Z</time></trkpt><trkpt lat="38.94235678371184" lon="-9.390901862211205"><ele>9.0</ele><time>2026-04-19T09:49:33Z</time></trkpt><trkpt lat="38.94245679547806" lon="-9.390914691725934"><ele>9.0</ele><time>2026-04-19T09:49:34Z</time></trkpt><trkpt lat="38.94254518369362" lon="-9.390917165329082"><ele>9.0</ele><time>2026-04-19T09:49:35Z</time></trkpt><trkpt lat="38.94263183884656" lon="-9.39087035816337"><ele>9.0</ele><time>2026-04-19T09:49:36Z</time></trkpt><trkpt lat="38.942713660985525" lon="-9.39084639859366"><ele>9.0</ele><time>2026-04-19T09:49:37Z</time></trkpt><trkpt lat="38.942818748089344" lon="-9.390862174381274"><ele>8.75</ele><time>2026-04-19T09:49:38Z</time></trkpt><trkpt lat="38.94291893295919" lon="-9.390890234360839"><ele>8.5</ele><time>2026-04-19T09:49:39Z</time></trkpt><trkpt lat="38.943028306884635" lon="-9.390909704102416"><ele>8.25</ele><time>2026-04-19T09:49:40Z</time></trkpt><trkpt lat="38.943156863801" lon="-9.390903423665234"><ele>8.0</ele><time>2026-04-19T09:49:41Z</time></trkpt><trkpt lat="38.94329935359407" lon="-9.390904468753662"><ele>8.0</ele><time>2026-04-19T09:49:42Z</time></trkpt><trkpt lat="38.943404967984065" lon="-9.390929480398365"><ele>8.0</ele><time>2026-04-19T09:49:43Z</time></trkpt><trkpt lat="38.94349234849005" lon="-9.390936745610144"><ele>8.0</ele><time>2026-04-19T09:49:44Z</time></trkpt><trkpt lat="38.94356902459106" lon="-9.390949720679"><ele>8.0</ele><time>2026-04-19T09:49:45Z</time></trkpt><trkpt lat="38.943651917061594" lon="-9.390974784081754"><ele>8.0</ele><time>2026-04-19T09:49:46Z</time></trkpt><trkpt lat="38.94375485546562" lon="-9.390985066449451"><ele>8.0</ele><time>2026-04-19T09:49:47Z</time></trkpt><trkpt lat="38.94387393110036" lon="-9.391006810324681"><ele>8.0</ele><time>2026-04-19T09:49:48Z</time></trkpt><trkpt lat="38.943977707209626" lon="-9.391061046574329"><ele>8.0</ele><time>2026-04-19T09:49:49Z</time></trkpt><trkpt lat="38.94408769113454" lon="-9.391096327175482"><ele>8.0</ele><time>2026-04-19T09:49:50Z</time></trkpt><trkpt lat="38.94418925047847" lon="-9.391117864104684"><ele>8.0</ele><time>2026-04-19T09:49:51Z</time></trkpt><trkpt lat="38.94429770703785" lon="-9.391119671098682"><ele>8.0</ele><time>2026-04-19T09:49:52Z</time></trkpt><trkpt lat="38.94439493444032" lon="-9.39110881538871"><ele>8.0</ele><time>2026-04-19T09:49:53Z</time></trkpt><trkpt lat="38.94450352838922" lon="-9.391105204191097"><ele>8.0</ele><time>2026-04-19T09:49:54Z</time></trkpt><trkpt lat="38.94461337592213" lon="-9.391103277602392"><ele>8.0</ele><time>2026-04-19T09:49:55Z</time></trkpt><trkpt lat="38.94472087985344" lon="-9.391086010079304"><ele>8.0</ele><time>2026-04-19T09:49:56Z</time></trkpt><trkpt lat="38.94481604928953" lon="-9.39111267083408"><ele>8.0</ele><time>2026-04-19T09:49:57Z</time></trkpt><trkpt lat="38.94492811487073" lon="-9.391149951169375"><ele>8.0</ele><time>2026-04-19T09:49:58Z</time></trkpt><trkpt lat="38.94503832480227" lon="-9.39121060342029"><ele>8.0</ele><time>2026-04-19T09:49:59Z</time></trkpt><trkpt lat="38.945132794140754" lon="-9.391232262959706"><ele>8.0</ele><time>2026-04-19T09:50:00Z</time></trkpt><trkpt lat="38.945205203632305" lon="-9.391238160961194"><ele>8.0</ele><time>2026-04-19T09:50:01Z</time></trkpt><trkpt lat="38.94527362640513" lon="-9.391186520067938"><ele>7.6000000000000005</ele><time>2026-04-19T10:04:21Z</time></trkpt><trkpt lat="38.94537137171578" lon="-9.3911804638771"><ele>7.200000000000001</ele><time>2026-04-19T10:04:23Z</time></trkpt><trkpt lat="38.94545235391369" lon="-9.391168190446429"><ele>6.8</ele><time>2026-04-19T10:04:26Z</time></trkpt><trkpt lat="38.945541422736504" lon="-9.39117853183151"><ele>6.4</ele><time>2026-04-19T10:04:28Z</time></trkpt><trkpt lat="38.945635327221034" lon="-9.391192938784606"><ele>6.0</ele><time>2026-04-19T10:04:30Z</time></trkpt><trkpt lat="38.94574769637024" lon="-9.391196834281661"><ele>6.0</ele><time>2026-04-19T10:04:32Z</time></trkpt><trkpt lat="38.94584143377165" lon="-9.391192847037413"><ele>6.0</ele><time>2026-04-19T10:04:35Z</time></trkpt><trkpt lat="38.945914226501415" lon="-9.391216559161654"><ele>6.0</ele><time>2026-04-19T10:04:37Z</time></trkpt><trkpt lat="38.945978137004694" lon="-9.391220055656452"><ele>6.0</ele><time>2026-04-19T10:04:39Z</time></trkpt><trkpt lat="38.94607962659725" lon="-9.391215572166479"><ele>6.0</ele><time>2026-04-19T10:04:50Z</time></trkpt><trkpt lat="38.9461554262697" lon="-9.391224570425134"><ele>6.0</ele><time>2026-04-19T10:04:51Z</time></trkpt><trkpt lat="38.94625727165177" lon="-9.391234026419534"><ele>6.0</ele><time>2026-04-19T10:04:52Z</time></trkpt><trkpt lat="38.9463667138602" lon="-9.391230111957706"><ele>6.0</ele><time>2026-04-19T10:04:53Z</time></trkpt><trkpt lat="38.94649276321896" lon="-9.391225366750785"><ele>6.0</ele><time>2026-04-19T10:04:54Z</time></trkpt><trkpt lat="38.94662917456938" lon="-9.391228640852713"><ele>6.0</ele><time>2026-04-19T10:04:55Z</time></trkpt><trkpt lat="38.946772869738076" lon="-9.391224664245788"><ele>6.0</ele><time>2026-04-19T10:04:56Z</time></trkpt><trkpt lat="38.94689317446191" lon="-9.391210662580276"><ele>6.0</ele><time>2026-04-19T10:04:57Z</time></trkpt><trkpt lat="38.94698943970933" lon="-9.391155616152632"><ele>6.0</ele><time>2026-04-19T10:04:58Z</time></trkpt><trkpt lat="38.94707795985197" lon="-9.391052145227022"><ele>6.0</ele><time>2026-04-19T10:04:59Z</time></trkpt><trkpt lat="38.9471598234535" lon="-9.3909365061364"><ele>6.0</ele><time>2026-04-19T10:05:00Z</time></trkpt><trkpt lat="38.94723843860455" lon="-9.390860404231669"><ele>6.0</ele><time>2026-04-19T10:05:00.999Z</time></trkpt><trkpt lat="38.9473122402155" lon="-9.390776631069098"><ele>6.0</ele><time>2026-04-19T10:05:01.999Z</time></trkpt><trkpt lat="38.94736711053763" lon="-9.390689153150628"><ele>6.0</ele><time>2026-04-19T10:05:02.999Z</time></trkpt><trkpt lat="38.9474297310634" lon="-9.390608251905986"><ele>6.0</ele><time>2026-04-19T10:05:03.999Z</time></trkpt><trkpt lat="38.94749374323137" lon="-9.390563198367541"><ele>6.0</ele><time>2026-04-19T10:05:04.999Z</time></trkpt><trkpt lat="38.94758167785302" lon="-9.390541645749149"><ele>7.666666666666666</ele><time>2026-04-19T10:05:05.999Z</time></trkpt><trkpt lat="38.94768696085666" lon="-9.39056586826015"><ele>9.333333333333332</ele><time>2026-04-19T10:05:06.999Z</time></trkpt><trkpt lat="38.94776427124391" lon="-9.390577960030656"><ele>11.0</ele><time>2026-04-19T10:05:07.999Z</time></trkpt><trkpt lat="38.94785786341375" lon="-9.390602622152837"><ele>12.666666666666666</ele><time>2026-04-19T10:05:08.999Z</time></trkpt><trkpt lat="38.94793413978935" lon="-9.390657951960614"><ele>14.333333333333332</ele><time>2026-04-19T10:05:10Z</time></trkpt><trkpt lat="38.94797355146484" lon="-9.390740252498217"><ele>16.0</ele><time>2026-04-19T10:05:11Z</time></trkpt><trkpt lat="38.94801437127537" lon="-9.390826648740047"><ele>16.0</ele><time>2026-04-19T10:05:12Z</time></trkpt><trkpt lat="38.94804956957957" lon="-9.39093516821662"><ele>16.0</ele><time>2026-04-19T10:05:13Z</time></trkpt><trkpt lat="38.948081331229105" lon="-9.391061491981477"><ele>16.0</ele><time>2026-04-19T10:05:14Z</time></trkpt><trkpt lat="38.94810539913606" lon="-9.391187504623892"><ele>16.0</ele><time>2026-04-19T10:05:15Z</time></trkpt><trkpt lat="38.94812085872094" lon="-9.391323136299617"><ele>16.0</ele><time>2026-04-19T10:05:16Z</time></trkpt><trkpt lat="38.948137858094405" lon="-9.391438092485021"><ele>15.0</ele><time>2026-04-19T10:05:17Z</time></trkpt><trkpt lat="38.948155249044554" lon="-9.39154109461559"><ele>13.999999999999998</ele><time>2026-04-19T10:05:18Z</time></trkpt><trkpt lat="38.94817932471882" lon="-9.391636566854368"><ele>13.0</ele><time>2026-04-19T10:05:19Z</time></trkpt><trkpt lat="38.94820957798254" lon="-9.391725281510762"><ele>12.0</ele><time>2026-04-19T10:05:20Z</time></trkpt><trkpt lat="38.94825111978292" lon="-9.39180177640622"><ele>11.0</ele><time>2026-04-19T10:05:21Z</time></trkpt><trkpt lat="38.948292644762354" lon="-9.39186521805419"><ele>10.0</ele><time>2026-04-19T10:05:22Z</time></trkpt><trkpt lat="38.94832789901684" lon="-9.39193624770834"><ele>9.0</ele><time>2026-04-19T10:05:23Z</time></trkpt><trkpt lat="38.94836425578749" lon="-9.392016370524003"><ele>8.5</ele><time>2026-04-19T10:05:24Z</time></trkpt><trkpt lat="38.948407673663354" lon="-9.392108263490393"><ele>8.0</ele><time>2026-04-19T10:05:25Z</time></trkpt><trkpt lat="38.948455375651506" lon="-9.3921896832768"><ele>7.5</ele><time>2026-04-19T10:05:26Z</time></trkpt><trkpt lat="38.948505005682065" lon="-9.392267993769662"><ele>7.0</ele><time>2026-04-19T10:05:27Z</time></trkpt><trkpt lat="38.94855318515185" lon="-9.392362542908995"><ele>6.5</ele><time>2026-04-19T10:05:28Z</time></trkpt><trkpt lat="38.94859781936152" lon="-9.392457577418934"><ele>6.0</ele><time>2026-04-19T10:05:29Z</time></trkpt><trkpt lat="38.948636386793254" lon="-9.392539841156431"><ele>5.999999999999999</ele><time>2026-04-19T10:05:30Z</time></trkpt><trkpt lat="38.9486767549564" lon="-9.39263233620674"><ele>6.0</ele><time>2026-04-19T10:05:31Z</time></trkpt><trkpt lat="38.948716397717405" lon="-9.392712616794848"><ele>6.0</ele><time>2026-04-19T10:05:32Z</time></trkpt><trkpt lat="38.9487577587186" lon="-9.392788070423588"><ele>6.0</ele><time>2026-04-19T10:05:33Z</time></trkpt><trkpt lat="38.94879990137054" lon="-9.392853786562426"><ele>6.0</ele><time>2026-04-19T10:05:34Z</time></trkpt><trkpt lat="38.94884156981613" lon="-9.392921950624897"><ele>5.999999999999999</ele><time>2026-04-19T10:05:35Z</time></trkpt><trkpt lat="38.948885376659106" lon="-9.393001317591274"><ele>6.0</ele><time>2026-04-19T10:05:36Z</time></trkpt><trkpt lat="38.94894792684442" lon="-9.39313096240201"><ele>6.0</ele><time>2026-04-19T10:05:38Z</time></trkpt><trkpt lat="38.94898042809598" lon="-9.393203735672218"><ele>6.0</ele><time>2026-04-19T10:05:39Z</time></trkpt><trkpt lat="38.949020940342685" lon="-9.393275315812573"><ele>6.0</ele><time>2026-04-19T10:05:40Z</time></trkpt><trkpt lat="38.9490702600337" lon="-9.393355889551293"><ele>6.0</ele><time>2026-04-19T10:05:41Z</time></trkpt><trkpt lat="38.94912311459508" lon="-9.393439532820116"><ele>6.0</ele><time>2026-04-19T10:05:42Z</time></trkpt><trkpt lat="38.94917592578921" lon="-9.393512312392438"><ele>6.0</ele><time>2026-04-19T10:05:43Z</time></trkpt><trkpt lat="38.94922738318619" lon="-9.393583189303426"><ele>6.199999999999999</ele><time>2026-04-19T10:05:44Z</time></trkpt><trkpt lat="38.94928435858111" lon="-9.393657694566691"><ele>6.3999999999999995</ele><time>2026-04-19T10:05:45Z</time></trkpt><trkpt lat="38.94933657875452" lon="-9.393729378303691"><ele>6.6</ele><time>2026-04-19T10:05:46Z</time></trkpt><trkpt lat="38.94937980223407" lon="-9.39379291503551"><ele>6.8</ele><time>2026-04-19T10:05:47Z</time></trkpt><trkpt lat="38.94945257352344" lon="-9.393914720043268"><ele>7.0</ele><time>2026-04-19T10:05:49Z</time></trkpt><trkpt lat="38.94952599232418" lon="-9.394018981928328"><ele>7.6</ele><time>2026-04-19T10:05:51Z</time></trkpt><trkpt lat="38.9495846149918" lon="-9.39411376969769"><ele>8.2</ele><time>2026-04-19T10:05:53Z</time></trkpt><trkpt lat="38.949624482755254" lon="-9.394243032908474"><ele>8.8</ele><time>2026-04-19T10:05:55Z</time></trkpt><trkpt lat="38.949643529551174" lon="-9.39432230513388"><ele>9.4</ele><time>2026-04-19T10:05:56Z</time></trkpt><trkpt lat="38.94967699505242" lon="-9.394457428794981"><ele>10.0</ele><time>2026-04-19T10:05:58Z</time></trkpt><trkpt lat="38.94969568433766" lon="-9.394609380497304"><ele>10.0</ele><time>2026-04-19T10:06:00Z</time></trkpt><trkpt lat="38.94970063211421" lon="-9.394707432098777"><ele>10.0</ele><time>2026-04-19T10:06:03Z</time></trkpt><trkpt lat="38.94975243626933" lon="-9.39475843000521"><ele>10.0</ele><time>2026-04-19T10:06:09Z</time></trkpt><trkpt lat="38.94982586071599" lon="-9.394704853606383"><ele>10.0</ele><time>2026-04-19T10:06:11Z</time></trkpt><trkpt lat="38.94994033712959" lon="-9.394649339592688"><ele>10.0</ele><time>2026-04-19T10:06:13Z</time></trkpt><trkpt lat="38.950029447129005" lon="-9.394624870444037"><ele>10.0</ele><time>2026-04-19T10:06:15Z</time></trkpt><trkpt lat="38.95009672480805" lon="-9.394782038961425"><ele>14.333333333333334</ele><time>2026-04-19T10:06:17Z</time></trkpt><trkpt lat="38.95013494177717" lon="-9.394902716160335"><ele>18.666666666666668</ele><time>2026-04-19T10:06:18Z</time></trkpt><trkpt lat="38.95017180644733" lon="-9.39498224372579"><ele>23.0</ele><time>2026-04-19T10:06:19Z</time></trkpt><trkpt lat="38.95021130646345" lon="-9.395109109112845"><ele>27.333333333333332</ele><time>2026-04-19T10:06:21Z</time></trkpt><trkpt lat="38.95025912093335" lon="-9.395210210173987"><ele>31.666666666666668</ele><time>2026-04-19T10:06:23Z</time></trkpt><trkpt lat="38.95028116706546" lon="-9.395290000594708"><ele>36.0</ele><time>2026-04-19T10:06:24Z</time></trkpt><trkpt lat="38.95030869230904" lon="-9.395389278826359"><ele>36.0</ele><time>2026-04-19T10:06:25Z</time></trkpt><trkpt lat="38.950345641168965" lon="-9.39549926936455"><ele>36.0</ele><time>2026-04-19T10:06:26Z</time></trkpt><trkpt lat="38.95038993273052" lon="-9.395596719554533"><ele>36.0</ele><time>2026-04-19T10:06:27Z</time></trkpt><trkpt lat="38.95043051785506" lon="-9.395666237188587"><ele>36.0</ele><time>2026-04-19T10:06:28Z</time></trkpt><trkpt lat="38.95041876451436" lon="-9.395763967682147"><ele>36.0</ele><time>2026-04-19T10:06:29Z</time></trkpt><trkpt lat="38.950424035057424" lon="-9.39590328731981"><ele>36.0</ele><time>2026-04-19T10:06:30Z</time></trkpt><trkpt lat="38.950432255343934" lon="-9.396076964369392"><ele>33.4</ele><time>2026-04-19T10:06:31Z</time></trkpt><trkpt lat="38.95044008034321" lon="-9.396237908739359"><ele>30.8</ele><time>2026-04-19T10:06:32Z</time></trkpt><trkpt lat="38.95044376091918" lon="-9.396351108781978"><ele>28.2</ele><time>2026-04-19T10:06:33Z</time></trkpt><trkpt lat="38.95044393223693" lon="-9.396448388112246"><ele>25.599999999999998</ele><time>2026-04-19T10:06:34Z</time></trkpt><trkpt lat="38.95043787511427" lon="-9.396561893722167"><ele>23.0</ele><time>2026-04-19T10:06:35Z</time></trkpt><trkpt lat="38.950422284869106" lon="-9.396692268954256"><ele>23.0</ele><time>2026-04-19T10:06:36Z</time></trkpt><trkpt lat="38.950391397687895" lon="-9.396862471241306"><ele>23.0</ele><time>2026-04-19T10:06:37Z</time></trkpt><trkpt lat="38.9503592717254" lon="-9.397040066557325"><ele>23.0</ele><time>2026-04-19T10:06:38Z</time></trkpt><trkpt lat="38.95032314398619" lon="-9.39718986703661"><ele>23.0</ele><time>2026-04-19T10:06:39Z</time></trkpt><trkpt lat="38.95027485734162" lon="-9.397311763934605"><ele>31.333333333333336</ele><time>2026-04-19T10:06:40Z</time></trkpt><trkpt lat="38.95023770271228" lon="-9.397468826664673"><ele>39.666666666666664</ele><time>2026-04-19T10:06:41Z</time></trkpt><trkpt lat="38.95019305396258" lon="-9.39766969525649"><ele>48.0</ele><time>2026-04-19T10:06:42Z</time></trkpt><trkpt lat="38.95014797187429" lon="-9.397890796679217"><ele>51.0</ele><time>2026-04-19T10:06:43Z</time></trkpt><trkpt lat="38.95010012142734" lon="-9.398111274758328"><ele>54.0</ele><time>2026-04-19T10:06:44Z</time></trkpt><trkpt lat="38.95005868092143" lon="-9.398362466747404"><ele>57.0</ele><time>2026-04-19T10:06:45Z</time></trkpt><trkpt lat="38.9500139625325" lon="-9.398561882430528"><ele>50.6</ele><time>2026-04-19T10:06:46Z</time></trkpt><trkpt lat="38.94996962437597" lon="-9.398705993070486"><ele>44.2</ele><time>2026-04-19T10:06:47Z</time></trkpt><trkpt lat="38.949927138093024" lon="-9.398841092376454"><ele>37.8</ele><time>2026-04-19T10:06:48Z</time></trkpt><trkpt lat="38.94992012890797" lon="-9.398979548448887"><ele>31.4</ele><time>2026-04-19T10:06:49Z</time></trkpt><trkpt lat="38.94990069861666" lon="-9.399111247251573"><ele>25.0</ele><time>2026-04-19T10:06:50Z</time></trkpt><trkpt lat="38.949867237451826" lon="-9.399237564771687"><ele>25.0</ele><time>2026-04-19T10:06:51Z</time></trkpt><trkpt lat="38.949769263548355" lon="-9.399316354902936"><ele>25.0</ele><time>2026-04-19T10:06:52Z</time></trkpt><trkpt lat="38.94969053276318" lon="-9.39942767681869"><ele>25.0</ele><time>2026-04-19T10:06:53Z</time></trkpt><trkpt lat="38.94958466870081" lon="-9.399521879377732"><ele>25.0</ele><time>2026-04-19T10:06:54Z</time></trkpt><trkpt lat="38.94946432864146" lon="-9.399614175136486"><ele>26.5</ele><time>2026-04-19T10:06:55Z</time></trkpt><trkpt lat="38.949312915045034" lon="-9.399672216898953"><ele>28.0</ele><time>2026-04-19T10:06:56Z</time></trkpt><trkpt lat="38.94917500144836" lon="-9.399709468126721"><ele>29.5</ele><time>2026-04-19T10:06:56.999Z</time></trkpt><trkpt lat="38.949052997928746" lon="-9.399735163325916"><ele>31.0</ele><time>2026-04-19T10:06:57.999Z</time></trkpt><trkpt lat="38.94894908396493" lon="-9.399795708272018"><ele>31.0</ele><time>2026-04-19T10:06:58.999Z</time></trkpt><trkpt lat="38.94884611739107" lon="-9.399841627323518"><ele>31.0</ele><time>2026-04-19T10:06:59.999Z</time></trkpt><trkpt lat="38.94874723311093" lon="-9.39990057256741"><ele>31.0</ele><time>2026-04-19T10:07:00.999Z</time></trkpt><trkpt lat="38.9486595549718" lon="-9.39996171301361"><ele>31.0</ele><time>2026-04-19T10:07:01.999Z</time></trkpt><trkpt lat="38.9485840226819" lon="-9.4000285798952"><ele>31.0</ele><time>2026-04-19T10:07:02.999Z</time></trkpt><trkpt lat="38.94850209011306" lon="-9.400081728357872"><ele>31.000000000000004</ele><time>2026-04-19T10:07:03.999Z</time></trkpt><trkpt lat="38.948443733542454" lon="-9.400148327685718"><ele>31.0</ele><time>2026-04-19T10:07:04.999Z</time></trkpt><trkpt lat="38.94839304723131" lon="-9.400223568253175"><ele>31.0</ele><time>2026-04-19T10:07:06.999Z</time></trkpt><trkpt lat="38.948382494886836" lon="-9.400345370491932"><ele>31.0</ele><time>2026-04-19T10:07:08.999Z</time></trkpt><trkpt lat="38.94837810068256" lon="-9.40044316226709"><ele>31.000000000000004</ele><time>2026-04-19T10:07:09.999Z</time></trkpt><trkpt lat="38.948388994713625" lon="-9.40056053507761"><ele>31.0</ele><time>2026-04-19T10:07:10.999Z</time></trkpt><trkpt lat="38.948397248237136" lon="-9.40067756090184"><ele>29.166666666666668</ele><time>2026-04-19T10:07:11.999Z</time></trkpt><trkpt lat="38.94841252469813" lon="-9.400777950390049"><ele>27.333333333333336</ele><time>2026-04-19T10:07:12.999Z</time></trkpt><trkpt lat="38.9484722481852" lon="-9.400872759296348"><ele>25.5</ele><time>2026-04-19T10:07:13.999Z</time></trkpt><trkpt lat="38.94851249015284" lon="-9.400961590750338"><ele>23.666666666666668</ele><time>2026-04-19T10:07:14.999Z</time></trkpt><trkpt lat="38.94854154224912" lon="-9.401036452075111"><ele>21.833333333333336</ele><time>2026-04-19T10:07:16Z</time></trkpt><trkpt lat="38.948600214771325" lon="-9.401155236867416"><ele>20.0</ele><time>2026-04-19T10:07:18Z</time></trkpt><trkpt lat="38.94834017096651" lon="-9.401049752270033"><ele>20.0</ele><time>2026-04-19T10:07:19Z</time></trkpt><trkpt lat="38.9483004458518" lon="-9.400939031716833"><ele>20.0</ele><time>2026-04-19T10:07:22Z</time></trkpt><trkpt lat="38.948189066469745" lon="-9.400847030648245"><ele>20.0</ele><time>2026-04-19T10:07:23Z</time></trkpt><trkpt lat="38.94807352088379" lon="-9.40074806255736"><ele>20.0</ele><time>2026-04-19T10:07:24Z</time></trkpt><trkpt lat="38.94798924100129" lon="-9.400676365748842"><ele>20.0</ele><time>2026-04-19T10:07:25Z</time></trkpt><trkpt lat="38.94790864304321" lon="-9.400607801125659"><ele>20.0</ele><time>2026-04-19T10:07:26Z</time></trkpt><trkpt lat="38.94782961801382" lon="-9.400540574603648"><ele>20.0</ele><time>2026-04-19T10:07:27Z</time></trkpt><trkpt lat="38.94777227789512" lon="-9.400491795399512"><ele>20.0</ele><time>2026-04-19T10:07:28Z</time></trkpt><trkpt lat="38.9476402426639" lon="-9.400584233543407"><ele>20.0</ele><time>2026-04-19T10:07:29Z</time></trkpt><trkpt lat="38.94758275091934" lon="-9.400534704580966"><ele>18.5</ele><time>2026-04-19T10:07:30Z</time></trkpt><trkpt lat="38.947524936944106" lon="-9.400494503774908"><ele>17.0</ele><time>2026-04-19T10:07:32Z</time></trkpt><trkpt lat="38.947438782063664" lon="-9.40043724960786"><ele>15.5</ele><time>2026-04-19T10:07:34Z</time></trkpt><trkpt lat="38.94737159839743" lon="-9.40042902114058"><ele>14.0</ele><time>2026-04-19T10:07:35Z</time></trkpt><trkpt lat="38.9473213499793" lon="-9.400509152082057"><ele>12.5</ele><time>2026-04-19T10:07:36Z</time></trkpt><trkpt lat="38.94723371960685" lon="-9.400590081125165"><ele>11.0</ele><time>2026-04-19T10:07:37Z</time></trkpt><trkpt lat="38.94713821400852" lon="-9.400682737266308"><ele>11.0</ele><time>2026-04-19T10:07:38Z</time></trkpt><trkpt lat="38.94703322654397" lon="-9.400766256779983"><ele>11.0</ele><time>2026-04-19T10:07:39Z</time></trkpt><trkpt lat="38.94692429320378" lon="-9.400887818501108"><ele>11.0</ele><time>2026-04-19T10:07:40Z</time></trkpt><trkpt lat="38.94682222211128" lon="-9.40101533379276"><ele>11.0</ele><time>2026-04-19T10:07:41Z</time></trkpt><trkpt lat="38.946700341224364" lon="-9.401134408939448"><ele>10.0</ele><time>2026-04-19T10:07:42Z</time></trkpt><trkpt lat="38.94659807514201" lon="-9.401218338533104"><ele>9.0</ele><time>2026-04-19T10:07:43Z</time></trkpt><trkpt lat="38.94648400683523" lon="-9.401274694404258"><ele>8.0</ele><time>2026-04-19T10:07:44Z</time></trkpt><trkpt lat="38.94635514290349" lon="-9.40131161943803"><ele>7.0</ele><time>2026-04-19T10:07:45Z</time></trkpt><trkpt lat="38.94620272055784" lon="-9.401358938923941"><ele>7.0</ele><time>2026-04-19T10:07:46Z</time></trkpt><trkpt lat="38.94605175468017" lon="-9.401428163456217"><ele>7.0</ele><time>2026-04-19T10:07:47Z</time></trkpt><trkpt lat="38.9459106547116" lon="-9.401496620750716"><ele>7.0</ele><time>2026-04-19T10:07:48Z</time></trkpt><trkpt lat="38.94578836772086" lon="-9.401547519893484"><ele>7.0</ele><time>2026-04-19T10:07:49Z</time></trkpt><trkpt lat="38.94569434053503" lon="-9.401598841203311"><ele>7.0</ele><time>2026-04-19T10:07:50Z</time></trkpt><trkpt lat="38.94561881513007" lon="-9.401649055266393"><ele>6.999999999999999</ele><time>2026-04-19T10:07:51Z</time></trkpt><trkpt lat="38.94555229192701" lon="-9.401677647867164"><ele>6.999999999999999</ele><time>2026-04-19T10:07:52Z</time></trkpt><trkpt lat="38.94542602729736" lon="-9.401741841747446"><ele>7.0</ele><time>2026-04-19T10:07:54Z</time></trkpt><trkpt lat="38.94535736045984" lon="-9.401784990063053"><ele>7.0</ele><time>2026-04-19T10:07:55Z</time></trkpt><trkpt lat="38.94525594090036" lon="-9.40183255656136"><ele>7.0</ele><time>2026-04-19T10:07:56Z</time></trkpt><trkpt lat="38.94516672376266" lon="-9.401879533842315"><ele>7.0</ele><time>2026-04-19T10:07:57Z</time></trkpt><trkpt lat="38.9450532673791" lon="-9.401949822868827"><ele>7.0</ele><time>2026-04-19T10:07:58Z</time></trkpt><trkpt lat="38.94491637129366" lon="-9.402030458384251"><ele>7.0</ele><time>2026-04-19T10:07:59Z</time></trkpt><trkpt lat="38.94478199983435" lon="-9.402126192630956"><ele>6.75</ele><time>2026-04-19T10:08:00Z</time></trkpt><trkpt lat="38.94464621179667" lon="-9.402214419603455"><ele>6.5</ele><time>2026-04-19T10:08:01Z</time></trkpt><trkpt lat="38.94453392675245" lon="-9.40228541177"><ele>6.25</ele><time>2026-04-19T10:08:02Z</time></trkpt><trkpt lat="38.944435636715205" lon="-9.402362895615978"><ele>6.0</ele><time>2026-04-19T10:08:03Z</time></trkpt><trkpt lat="38.944345273331294" lon="-9.4024668680002"><ele>6.0</ele><time>2026-04-19T10:08:04Z</time></trkpt><trkpt lat="38.9442640136583" lon="-9.402555087437646"><ele>6.0</ele><time>2026-04-19T10:08:05Z</time></trkpt><trkpt lat="38.94421360759929" lon="-9.402676147979376"><ele>6.0</ele><time>2026-04-19T10:08:06Z</time></trkpt><trkpt lat="38.94417886593965" lon="-9.402804908093927"><ele>6.0</ele><time>2026-04-19T10:08:07Z</time></trkpt><trkpt lat="38.94417751090534" lon="-9.402956827047147"><ele>6.0</ele><time>2026-04-19T10:08:08Z</time></trkpt><trkpt lat="38.94420240777854" lon="-9.403127263656224"><ele>5.75</ele><time>2026-04-19T10:08:09Z</time></trkpt><trkpt lat="38.94420847237985" lon="-9.403301119264583"><ele>5.5</ele><time>2026-04-19T10:08:10Z</time></trkpt><trkpt lat="38.94424744636401" lon="-9.403463603385605"><ele>5.25</ele><time>2026-04-19T10:08:11Z</time></trkpt><trkpt lat="38.94431644386824" lon="-9.403631904870425"><ele>5.0</ele><time>2026-04-19T10:08:12Z</time></trkpt><trkpt lat="38.94435495993821" lon="-9.403808162246271"><ele>5.25</ele><time>2026-04-19T10:08:13Z</time></trkpt><trkpt lat="38.94440437677127" lon="-9.403975085725692"><ele>5.5</ele><time>2026-04-19T10:08:14Z</time></trkpt><trkpt lat="38.94444099424883" lon="-9.404129070832443"><ele>5.75</ele><time>2026-04-19T10:08:15Z</time></trkpt><trkpt lat="38.94447920162921" lon="-9.404303786443124"><ele>6.0</ele><time>2026-04-19T10:08:16Z</time></trkpt><trkpt lat="38.94451366458272" lon="-9.404487117831392"><ele>6.0</ele><time>2026-04-19T10:08:17Z</time></trkpt><trkpt lat="38.94453261680205" lon="-9.404637811925848"><ele>6.0</ele><time>2026-04-19T10:08:18Z</time></trkpt><trkpt lat="38.94454763580903" lon="-9.404812418863463"><ele>6.0</ele><time>2026-04-19T10:08:19Z</time></trkpt><trkpt lat="38.944551359411754" lon="-9.404963456490819"><ele>6.0</ele><time>2026-04-19T10:08:20Z</time></trkpt><trkpt lat="38.94455095208757" lon="-9.405128166063427"><ele>6.0</ele><time>2026-04-19T10:08:21Z</time></trkpt><trkpt lat="38.944538459347726" lon="-9.405308726940506"><ele>6.0</ele><time>2026-04-19T10:08:22Z</time></trkpt><trkpt lat="38.944515522721034" lon="-9.40547904309011"><ele>6.0</ele><time>2026-04-19T10:08:23Z</time></trkpt><trkpt lat="38.944505113110715" lon="-9.405639801630894"><ele>6.0</ele><time>2026-04-19T10:08:24Z</time></trkpt><trkpt lat="38.94450001031708" lon="-9.4057954062487"><ele>7.25</ele><time>2026-04-19T10:08:25Z</time></trkpt><trkpt lat="38.94449521023794" lon="-9.405941583406518"><ele>8.5</ele><time>2026-04-19T10:08:26Z</time></trkpt><trkpt lat="38.94449610111196" lon="-9.406087035746744"><ele>9.75</ele><time>2026-04-19T10:08:27Z</time></trkpt><trkpt lat="38.944500254077795" lon="-9.406266982395728"><ele>11.0</ele><time>2026-04-19T10:08:28Z</time></trkpt><trkpt lat="38.94451850638321" lon="-9.406425646081024"><ele>12.600000000000001</ele><time>2026-04-19T10:08:29Z</time></trkpt><trkpt lat="38.94453035612677" lon="-9.406562961889627"><ele>14.2</ele><time>2026-04-19T10:08:30Z</time></trkpt><trkpt lat="38.94453840015808" lon="-9.406692211838855"><ele>15.799999999999999</ele><time>2026-04-19T10:08:31Z</time></trkpt><trkpt lat="38.944539502105165" lon="-9.406803801242896"><ele>17.4</ele><time>2026-04-19T10:08:32Z</time></trkpt><trkpt lat="38.94453566189796" lon="-9.406931560424082"><ele>19.0</ele><time>2026-04-19T10:08:34Z</time></trkpt><trkpt lat="38.94446906359613" lon="-9.407057837491276"><ele>19.6</ele><time>2026-04-19T10:08:36Z</time></trkpt><trkpt lat="38.94444888927059" lon="-9.40718533652291"><ele>20.2</ele><time>2026-04-19T10:08:37Z</time></trkpt><trkpt lat="38.944460035589955" lon="-9.40726763154694"><ele>20.8</ele><time>2026-04-19T10:08:38Z</time></trkpt><trkpt lat="38.94450564229078" lon="-9.407352232191812"><ele>21.400000000000002</ele><time>2026-04-19T10:08:39Z</time></trkpt><trkpt lat="38.94458653927974" lon="-9.407443372736749"><ele>22.0</ele><time>2026-04-19T10:08:40Z</time></trkpt><trkpt lat="38.944688898162916" lon="-9.407525878203188"><ele>22.0</ele><time>2026-04-19T10:08:41Z</time></trkpt><trkpt lat="38.94479811989505" lon="-9.407613655448191"><ele>22.0</ele><time>2026-04-19T10:08:42Z</time></trkpt><trkpt lat="38.94492025793851" lon="-9.40770269786409"><ele>22.0</ele><time>2026-04-19T10:08:43Z</time></trkpt><trkpt lat="38.94501520885275" lon="-9.407744370704414"><ele>22.0</ele><time>2026-04-19T10:08:44Z</time></trkpt><trkpt lat="38.945077199144336" lon="-9.407788128970589"><ele>22.0</ele><time>2026-04-19T10:08:45Z</time></trkpt><trkpt lat="38.94512002098805" lon="-9.407848350297552"><ele>24.0</ele><time>2026-04-19T10:08:47Z</time></trkpt><trkpt lat="38.94514251687261" lon="-9.407924282281886"><ele>26.0</ele><time>2026-04-19T10:08:56.999Z</time></trkpt><trkpt lat="38.9450859306882" lon="-9.408084043027946"><ele>28.000000000000004</ele><time>2026-04-19T10:08:58.999Z</time></trkpt><trkpt lat="38.94500739912657" lon="-9.40816645704003"><ele>30.0</ele><time>2026-04-19T10:08:59.999Z</time></trkpt><trkpt lat="38.9448718283483" lon="-9.408204314626854"><ele>32.0</ele><time>2026-04-19T10:09:00.999Z</time></trkpt><trkpt lat="38.944739429138544" lon="-9.408280188381378"><ele>32.0</ele><time>2026-04-19T10:09:01.999Z</time></trkpt><trkpt lat="38.94460980831744" lon="-9.40839757767799"><ele>32.0</ele><time>2026-04-19T10:09:02.999Z</time></trkpt><trkpt lat="38.94449969631345" lon="-9.40855634637914"><ele>32.0</ele><time>2026-04-19T10:09:03.999Z</time></trkpt><trkpt lat="38.9444179938114" lon="-9.408764309120338"><ele>37.33333333333333</ele><time>2026-04-19T10:09:04.999Z</time></trkpt><trkpt lat="38.94437839761612" lon="-9.408943646965971"><ele>42.666666666666664</ele><time>2026-04-19T10:09:05.999Z</time></trkpt><trkpt lat="38.9444038468491" lon="-9.409125765168014"><ele>48.0</ele><time>2026-04-19T10:09:06.999Z</time></trkpt><trkpt lat="38.944433381298275" lon="-9.409337054544686"><ele>48.0</ele><time>2026-04-19T10:09:07.999Z</time></trkpt><trkpt lat="38.94445313559916" lon="-9.4095011333319"><ele>48.0</ele><time>2026-04-19T10:09:08.999Z</time></trkpt><trkpt lat="38.94443915404579" lon="-9.409631923876946"><ele>48.0</ele><time>2026-04-19T10:09:09.999Z</time></trkpt><trkpt lat="38.94436516817593" lon="-9.409764564068961"><ele>48.0</ele><time>2026-04-19T10:09:10.999Z</time></trkpt><trkpt lat="38.94424825919417" lon="-9.409845549238472"><ele>45.5</ele><time>2026-04-19T10:09:11.999Z</time></trkpt><trkpt lat="38.944107587004375" lon="-9.409864303763975"><ele>43.0</ele><time>2026-04-19T10:09:12.999Z</time></trkpt><trkpt lat="38.94397532805405" lon="-9.409888904909245"><ele>40.5</ele><time>2026-04-19T10:09:13.999Z</time></trkpt><trkpt lat="38.943862629310935" lon="-9.409931580479181"><ele>38.0</ele><time>2026-04-19T10:09:14.999Z</time></trkpt><trkpt lat="38.943777256343495" lon="-9.41002525947608"><ele>38.0</ele><time>2026-04-19T10:09:15.999Z</time></trkpt><trkpt lat="38.9437347337519" lon="-9.410155898746815"><ele>38.0</ele><time>2026-04-19T10:09:16.999Z</time></trkpt><trkpt lat="38.94368793122772" lon="-9.410286413232644"><ele>38.0</ele><time>2026-04-19T10:09:17.999Z</time></trkpt><trkpt lat="38.943643059965915" lon="-9.41041085074948"><ele>38.0</ele><time>2026-04-19T10:09:18.999Z</time></trkpt><trkpt lat="38.943591196484746" lon="-9.410538211609643"><ele>38.0</ele><time>2026-04-19T10:09:19.999Z</time></trkpt><trkpt lat="38.94350959535012" lon="-9.410648293382662"><ele>37.25</ele><time>2026-04-19T10:09:20.999Z</time></trkpt><trkpt lat="38.94339949192078" lon="-9.410746610669367"><ele>36.5</ele><time>2026-04-19T10:09:22Z</time></trkpt><trkpt lat="38.94330198195654" lon="-9.410864179590433"><ele>35.75</ele><time>2026-04-19T10:09:23Z</time></trkpt><trkpt lat="38.9432150624735" lon="-9.410966008779415"><ele>35.0</ele><time>2026-04-19T10:09:24Z</time></trkpt><trkpt lat="38.94314399754113" lon="-9.411051242879987"><ele>35.0</ele><time>2026-04-19T10:09:25Z</time></trkpt><trkpt lat="38.94307786189097" lon="-9.411141803389413"><ele>35.0</ele><time>2026-04-19T10:09:26Z</time></trkpt><trkpt lat="38.943022254676215" lon="-9.41124316898731"><ele>35.0</ele><time>2026-04-19T10:09:27Z</time></trkpt><trkpt lat="38.94298557600374" lon="-9.4113407671343"><ele>35.0</ele><time>2026-04-19T10:09:28Z</time></trkpt><trkpt lat="38.94297879286008" lon="-9.411449363738514"><ele>35.0</ele><time>2026-04-19T10:09:29Z</time></trkpt><trkpt lat="38.94299867137947" lon="-9.4115767171156"><ele>35.8</ele><time>2026-04-19T10:09:30Z</time></trkpt><trkpt lat="38.94305917330168" lon="-9.411653177298236"><ele>36.6</ele><time>2026-04-19T10:09:31Z</time></trkpt><trkpt lat="38.94314928797929" lon="-9.411716378080735"><ele>37.4</ele><time>2026-04-19T10:09:38Z</time></trkpt><trkpt lat="38.94324004003886" lon="-9.411740941702162"><ele>38.2</ele><time>2026-04-19T10:09:43Z</time></trkpt><trkpt lat="38.94333988586807" lon="-9.411760691774894"><ele>39.0</ele><time>2026-04-19T10:09:45Z</time></trkpt><trkpt lat="38.94342319426005" lon="-9.411779017639459"><ele>40.6</ele><time>2026-04-19T10:09:47Z</time></trkpt><trkpt lat="38.94350902887991" lon="-9.411797051311606"><ele>42.2</ele><time>2026-04-19T10:09:49Z</time></trkpt><trkpt lat="38.94357300370728" lon="-9.411803054890283"><ele>43.800000000000004</ele><time>2026-04-19T10:09:51Z</time></trkpt><trkpt lat="38.94365881040971" lon="-9.41182688846134"><ele>45.4</ele><time>2026-04-19T10:09:53Z</time></trkpt><trkpt lat="38.943793964390295" lon="-9.411945547255646"><ele>47.0</ele><time>2026-04-19T10:09:55Z</time></trkpt><trkpt lat="38.94357875749494" lon="-9.411952347436912"><ele>47.0</ele><time>2026-04-19T10:09:56Z</time></trkpt><trkpt lat="38.94350213385559" lon="-9.411931209644768"><ele>47.0</ele><time>2026-04-19T10:09:57Z</time></trkpt><trkpt lat="38.94335640103856" lon="-9.411917843069773"><ele>47.0</ele><time>2026-04-19T10:09:59Z</time></trkpt><trkpt lat="38.94326700614664" lon="-9.411907700315323"><ele>47.0</ele><time>2026-04-19T10:10:00Z</time></trkpt><trkpt lat="38.94317638558942" lon="-9.41190045163731"><ele>47.0</ele><time>2026-04-19T10:10:01Z</time></trkpt><trkpt lat="38.943083537094026" lon="-9.411894499100402"><ele>45.4</ele><time>2026-04-19T10:10:02Z</time></trkpt><trkpt lat="38.94298855088173" lon="-9.411887119212132"><ele>43.800000000000004</ele><time>2026-04-19T10:10:03Z</time></trkpt><trkpt lat="38.9428940057183" lon="-9.411879299773647"><ele>42.2</ele><time>2026-04-19T10:10:04Z</time></trkpt><trkpt lat="38.94279100645297" lon="-9.411871348964825"><ele>40.6</ele><time>2026-04-19T10:10:05Z</time></trkpt><trkpt lat="38.94268838138328" lon="-9.411850707722019"><ele>39.0</ele><time>2026-04-19T10:10:06Z</time></trkpt><trkpt lat="38.94258999627934" lon="-9.411869170360367"><ele>36.4</ele><time>2026-04-19T10:10:07Z</time></trkpt><trkpt lat="38.94249172423022" lon="-9.411896788591122"><ele>33.8</ele><time>2026-04-19T10:10:08Z</time></trkpt><trkpt lat="38.94239521577089" lon="-9.411919258090851"><ele>31.200000000000003</ele><time>2026-04-19T10:10:09Z</time></trkpt><trkpt lat="38.942308012580966" lon="-9.411963781819825"><ele>28.6</ele><time>2026-04-19T10:10:10Z</time></trkpt><trkpt lat="38.942217989966075" lon="-9.412015519133556"><ele>26.0</ele><time>2026-04-19T10:10:11Z</time></trkpt><trkpt lat="38.942146032717204" lon="-9.412101644431093"><ele>24.8</ele><time>2026-04-19T10:10:12Z</time></trkpt><trkpt lat="38.94205955267785" lon="-9.412160384815389"><ele>23.6</ele><time>2026-04-19T10:10:13Z</time></trkpt><trkpt lat="38.94198366585524" lon="-9.412234499646164"><ele>22.4</ele><time>2026-04-19T10:10:14Z</time></trkpt><trkpt lat="38.94190292984654" lon="-9.41228413424739"><ele>21.2</ele><time>2026-04-19T10:10:15Z</time></trkpt><trkpt lat="38.941820167130274" lon="-9.412352518015084"><ele>20.0</ele><time>2026-04-19T10:10:16Z</time></trkpt><trkpt lat="38.94173842739799" lon="-9.41241821223204"><ele>19.2</ele><time>2026-04-19T10:10:17Z</time></trkpt><trkpt lat="38.94165438420556" lon="-9.412484781966496"><ele>18.4</ele><time>2026-04-19T10:10:18Z</time></trkpt><trkpt lat="38.94156379473554" lon="-9.412554522840363"><ele>17.6</ele><time>2026-04-19T10:10:19Z</time></trkpt><trkpt lat="38.94146296169682" lon="-9.41263856510538"><ele>16.8</ele><time>2026-04-19T10:10:20Z</time></trkpt><trkpt lat="38.94137267444711" lon="-9.41271305070672"><ele>16.0</ele><time>2026-04-19T10:10:21Z</time></trkpt><trkpt lat="38.94128465395915" lon="-9.412783268594053"><ele>15.999999999999998</ele><time>2026-04-19T10:10:22Z</time></trkpt><trkpt lat="38.941215086606434" lon="-9.412840897356284"><ele>16.0</ele><time>2026-04-19T10:10:23Z</time></trkpt><trkpt lat="38.9411502607047" lon="-9.41289088426734"><ele>16.0</ele><time>2026-04-19T10:10:24Z</time></trkpt><trkpt lat="38.941084764538964" lon="-9.412933337454325"><ele>16.0</ele><time>2026-04-19T10:10:25Z</time></trkpt><trkpt lat="38.94102327638236" lon="-9.412981119134304"><ele>15.999999999999998</ele><time>2026-04-19T10:10:26Z</time></trkpt><trkpt lat="38.940952220591335" lon="-9.413019134097539"><ele>16.0</ele><time>2026-04-19T10:10:27Z</time></trkpt><trkpt lat="38.94086039967078" lon="-9.413027660315683"><ele>15.666666666666666</ele><time>2026-04-19T10:10:28Z</time></trkpt><trkpt lat="38.94076917585887" lon="-9.412982220615751"><ele>15.333333333333332</ele><time>2026-04-19T10:10:29Z</time></trkpt><trkpt lat="38.940696220369574" lon="-9.41295015884654"><ele>15.0</ele><time>2026-04-19T10:10:30Z</time></trkpt><trkpt lat="38.94063352084246" lon="-9.412915958325351"><ele>14.666666666666668</ele><time>2026-04-19T10:10:31Z</time></trkpt><trkpt lat="38.94056507207603" lon="-9.412870581908763"><ele>14.333333333333334</ele><time>2026-04-19T10:10:32Z</time></trkpt><trkpt lat="38.940495307095176" lon="-9.412806957961179"><ele>14.0</ele><time>2026-04-19T10:10:33Z</time></trkpt><trkpt lat="38.94044665816613" lon="-9.412726138452532"><ele>14.0</ele><time>2026-04-19T10:10:34Z</time></trkpt><trkpt lat="38.940410655712945" lon="-9.412657685197258"><ele>13.999999999999998</ele><time>2026-04-19T10:10:35Z</time></trkpt><trkpt lat="38.94034411682682" lon="-9.412519805389103"><ele>13.999999999999998</ele><time>2026-04-19T10:10:37Z</time></trkpt><trkpt lat="38.94028493525088" lon="-9.412440861883631"><ele>14.0</ele><time>2026-04-19T10:10:38Z</time></trkpt><trkpt lat="38.940225466975676" lon="-9.412329977967294"><ele>14.0</ele><time>2026-04-19T10:10:39Z</time></trkpt><trkpt lat="38.94014595994037" lon="-9.412181729964383"><ele>14.333333333333334</ele><time>2026-04-19T10:10:40Z</time></trkpt><trkpt lat="38.94005278796182" lon="-9.412013295153615"><ele>14.666666666666668</ele><time>2026-04-19T10:10:41Z</time></trkpt><trkpt lat="38.93995250616468" lon="-9.411831663893413"><ele>15.0</ele><time>2026-04-19T10:10:42Z</time></trkpt><trkpt lat="38.93985655676432" lon="-9.411654049499113"><ele>15.5</ele><time>2026-04-19T10:10:43Z</time></trkpt><trkpt lat="38.93977991763455" lon="-9.41151088251336"><ele>16.0</ele><time>2026-04-19T10:10:44Z</time></trkpt><trkpt lat="38.939702775787836" lon="-9.411366065897152"><ele>16.5</ele><time>2026-04-19T10:10:45Z</time></trkpt><trkpt lat="38.93963171173766" lon="-9.411232658980028"><ele>17.0</ele><time>2026-04-19T10:10:46Z</time></trkpt><trkpt lat="38.93956797772737" lon="-9.411111484734903"><ele>17.0</ele><time>2026-04-19T10:10:47Z</time></trkpt><trkpt lat="38.939511291573346" lon="-9.411003432607838"><ele>17.0</ele><time>2026-04-19T10:10:48Z</time></trkpt><trkpt lat="38.93946007701174" lon="-9.41090951584425"><ele>17.0</ele><time>2026-04-19T10:10:49Z</time></trkpt><trkpt lat="38.939400842042595" lon="-9.410822592368017"><ele>17.0</ele><time>2026-04-19T10:10:50Z</time></trkpt><trkpt lat="38.939317699955694" lon="-9.410726731243907"><ele>17.0</ele><time>2026-04-19T10:10:51Z</time></trkpt><trkpt lat="38.93922792630281" lon="-9.410625774842966"><ele>15.666666666666668</ele><time>2026-04-19T10:10:52Z</time></trkpt><trkpt lat="38.93916484212301" lon="-9.410537873830906"><ele>14.333333333333334</ele><time>2026-04-19T10:10:53Z</time></trkpt><trkpt lat="38.93911758912266" lon="-9.410468811539573"><ele>13.0</ele><time>2026-04-19T10:10:54Z</time></trkpt><trkpt lat="38.939116101212825" lon="-9.410365873446217"><ele>11.666666666666668</ele><time>2026-04-19T10:10:55.999Z</time></trkpt><trkpt lat="38.93916709845178" lon="-9.410269702290883"><ele>10.333333333333334</ele><time>2026-04-19T10:10:57.999Z</time></trkpt><trkpt lat="38.939104513071996" lon="-9.410329172958706"><ele>9.0</ele><time>2026-04-19T10:11:34Z</time></trkpt><trkpt lat="38.939120852130905" lon="-9.410424993445078"><ele>8.6</ele><time>2026-04-19T10:11:44Z</time></trkpt><trkpt lat="38.939170212496975" lon="-9.410511691251546"><ele>8.2</ele><time>2026-04-19T10:11:45Z</time></trkpt><trkpt lat="38.93920891884396" lon="-9.410593155766279"><ele>7.799999999999999</ele><time>2026-04-19T10:11:46Z</time></trkpt><trkpt lat="38.939301801096995" lon="-9.410650867833986"><ele>7.3999999999999995</ele><time>2026-04-19T10:11:47Z</time></trkpt><trkpt lat="38.939381266609296" lon="-9.410742703999736"><ele>7.0</ele><time>2026-04-19T10:11:48Z</time></trkpt><trkpt lat="38.93944702411159" lon="-9.41085276904603"><ele>8.25</ele><time>2026-04-19T10:11:49Z</time></trkpt><trkpt lat="38.939516022557896" lon="-9.410965193296017"><ele>9.5</ele><time>2026-04-19T10:11:50Z</time></trkpt><trkpt lat="38.93959708412352" lon="-9.411097539606793"><ele>10.75</ele><time>2026-04-19T10:11:51Z</time></trkpt><trkpt lat="38.93966878407772" lon="-9.411240073010529"><ele>12.0</ele><time>2026-04-19T10:11:52Z</time></trkpt><trkpt lat="38.93973454924454" lon="-9.411360519345035"><ele>12.0</ele><time>2026-04-19T10:11:53Z</time></trkpt><trkpt lat="38.93978908994428" lon="-9.411464430053245"><ele>12.0</ele><time>2026-04-19T10:11:54Z</time></trkpt><trkpt lat="38.93984329365722" lon="-9.411554257932238"><ele>12.0</ele><time>2026-04-19T10:11:55Z</time></trkpt><trkpt lat="38.939888805260566" lon="-9.411635924205793"><ele>12.0</ele><time>2026-04-19T10:11:56Z</time></trkpt><trkpt lat="38.939932639615286" lon="-9.411710990263401"><ele>12.0</ele><time>2026-04-19T10:11:58Z</time></trkpt><trkpt lat="38.93998337183127" lon="-9.411813838150673"><ele>12.0</ele><time>2026-04-19T10:12:01Z</time></trkpt><trkpt lat="38.940023611528595" lon="-9.411883888256089"><ele>12.399999999999999</ele><time>2026-04-19T10:12:04Z</time></trkpt><trkpt lat="38.94006987573445" lon="-9.411973079913409"><ele>12.799999999999999</ele><time>2026-04-19T10:12:07Z</time></trkpt><trkpt lat="38.940134994161426" lon="-9.412105581013357"><ele>13.2</ele><time>2026-04-19T10:12:10Z</time></trkpt><trkpt lat="38.94017593699855" lon="-9.412180896218947"><ele>13.6</ele><time>2026-04-19T10:12:11Z</time></trkpt><trkpt lat="38.9402290170543" lon="-9.41229149180796"><ele>14.0</ele><time>2026-04-19T10:12:12Z</time></trkpt><trkpt lat="38.94029770693157" lon="-9.412418755339143"><ele>14.0</ele><time>2026-04-19T10:12:13Z</time></trkpt><trkpt lat="38.94037552863552" lon="-9.412559266984985"><ele>14.0</ele><time>2026-04-19T10:12:14Z</time></trkpt><trkpt lat="38.94046851411225" lon="-9.41269854754849"><ele>14.0</ele><time>2026-04-19T10:12:15Z</time></trkpt><trkpt lat="38.94055840242277" lon="-9.412809053534588"><ele>14.0</ele><time>2026-04-19T10:12:16Z</time></trkpt><trkpt lat="38.94066774313382" lon="-9.412877143101465"><ele>14.0</ele><time>2026-04-19T10:12:17Z</time></trkpt><trkpt lat="38.94079760098059" lon="-9.412927939264506"><ele>14.0</ele><time>2026-04-19T10:12:18Z</time></trkpt><trkpt lat="38.94093865018269" lon="-9.41295267923679"><ele>14.0</ele><time>2026-04-19T10:12:19Z</time></trkpt><trkpt lat="38.941054132476026" lon="-9.412933008653654"><ele>14.0</ele><time>2026-04-19T10:12:20Z</time></trkpt><trkpt lat="38.94113541139327" lon="-9.412834492306002"><ele>14.5</ele><time>2026-04-19T10:12:21Z</time></trkpt><trkpt lat="38.9412537686661" lon="-9.412742819579043"><ele>15.0</ele><time>2026-04-19T10:12:22Z</time></trkpt><trkpt lat="38.94138137599667" lon="-9.412643229367827"><ele>15.5</ele><time>2026-04-19T10:12:23Z</time></trkpt><trkpt lat="38.94151281441215" lon="-9.412542624891126"><ele>16.0</ele><time>2026-04-19T10:12:24Z</time></trkpt><trkpt lat="38.94164851753172" lon="-9.412439093244725"><ele>17.333333333333332</ele><time>2026-04-19T10:12:25Z</time></trkpt><trkpt lat="38.94179878920772" lon="-9.412344977360048"><ele>18.666666666666668</ele><time>2026-04-19T10:12:26Z</time></trkpt><trkpt lat="38.94194924604432" lon="-9.412230496809457"><ele>20.0</ele><time>2026-04-19T10:12:27Z</time></trkpt><trkpt lat="38.94209169972945" lon="-9.412109800935768"><ele>22.0</ele><time>2026-04-19T10:12:28Z</time></trkpt><trkpt lat="38.942241222151715" lon="-9.411991102469205"><ele>24.0</ele><time>2026-04-19T10:12:29Z</time></trkpt><trkpt lat="38.9423916128133" lon="-9.411888407761483"><ele>26.0</ele><time>2026-04-19T10:12:30Z</time></trkpt><trkpt lat="38.942548988656796" lon="-9.411828313108158"><ele>30.333333333333332</ele><time>2026-04-19T10:12:31Z</time></trkpt><trkpt lat="38.94272134555319" lon="-9.411793391845263"><ele>34.666666666666664</ele><time>2026-04-19T10:12:32Z</time></trkpt><trkpt lat="38.94289172244871" lon="-9.41179444985496"><ele>39.0</ele><time>2026-04-19T10:12:33Z</time></trkpt><trkpt lat="38.943063118252944" lon="-9.411818623450552"><ele>39.0</ele><time>2026-04-19T10:12:34Z</time></trkpt><trkpt lat="38.9432309395717" lon="-9.411839851505139"><ele>39.0</ele><time>2026-04-19T10:12:35Z</time></trkpt><trkpt lat="38.94341134531708" lon="-9.411853854961926"><ele>39.0</ele><time>2026-04-19T10:12:36Z</time></trkpt><trkpt lat="38.94355195966113" lon="-9.411886029109372"><ele>41.0</ele><time>2026-04-19T10:12:37Z</time></trkpt><trkpt lat="38.94366191964219" lon="-9.411885936783001"><ele>43.0</ele><time>2026-04-19T10:12:38Z</time></trkpt><trkpt lat="38.94375795857341" lon="-9.411830356644726"><ele>45.0</ele><time>2026-04-19T10:12:39Z</time></trkpt><trkpt lat="38.94389879636523" lon="-9.411850837862143"><ele>47.0</ele><time>2026-04-19T10:12:40Z</time></trkpt><trkpt lat="38.944051282133266" lon="-9.411865625950135"><ele>47.0</ele><time>2026-04-19T10:12:41Z</time></trkpt><trkpt lat="38.944199153916216" lon="-9.411928130437397"><ele>47.0</ele><time>2026-04-19T10:12:42Z</time></trkpt><trkpt lat="38.9443394112816" lon="-9.41202899762056"><ele>47.0</ele><time>2026-04-19T10:12:43Z</time></trkpt><trkpt lat="38.9444740362529" lon="-9.412163007883143"><ele>49.0</ele><time>2026-04-19T10:12:44Z</time></trkpt><trkpt lat="38.94460468435473" lon="-9.412327575103342"><ele>51.0</ele><time>2026-04-19T10:12:45Z</time></trkpt><trkpt lat="38.94470904782429" lon="-9.412526288526488"><ele>53.0</ele><time>2026-04-19T10:12:46Z</time></trkpt><trkpt lat="38.944763895912494" lon="-9.412743589973234"><ele>53.0</ele><time>2026-04-19T10:12:47Z</time></trkpt><trkpt lat="38.944785655145346" lon="-9.412965270195809"><ele>53.0</ele><time>2026-04-19T10:12:48Z</time></trkpt><trkpt lat="38.94478496339829" lon="-9.413170301809679"><ele>53.0</ele><time>2026-04-19T10:12:49Z</time></trkpt><trkpt lat="38.944786972463255" lon="-9.413354057122813"><ele>53.25</ele><time>2026-04-19T10:12:50Z</time></trkpt><trkpt lat="38.944826225773184" lon="-9.413510689628378"><ele>53.5</ele><time>2026-04-19T10:12:51Z</time></trkpt><trkpt lat="38.944890407896146" lon="-9.413645282385874"><ele>53.75</ele><time>2026-04-19T10:12:52Z</time></trkpt><trkpt lat="38.94499783045196" lon="-9.413747325100323"><ele>54.0</ele><time>2026-04-19T10:12:53Z</time></trkpt><trkpt lat="38.94511170805878" lon="-9.413826162625561"><ele>52.25</ele><time>2026-04-19T10:12:53.999Z</time></trkpt><trkpt lat="38.94521790144095" lon="-9.413844857309831"><ele>50.5</ele><time>2026-04-19T10:12:54.999Z</time></trkpt><trkpt lat="38.94533598933528" lon="-9.413862490985506"><ele>48.75</ele><time>2026-04-19T10:12:55.999Z</time></trkpt><trkpt lat="38.94549031713534" lon="-9.413884276332695"><ele>47.0</ele><time>2026-04-19T10:12:56.999Z</time></trkpt><trkpt lat="38.94565573341844" lon="-9.41391148362896"><ele>47.0</ele><time>2026-04-19T10:12:57.999Z</time></trkpt><trkpt lat="38.94582667901146" lon="-9.413937450486856"><ele>47.0</ele><time>2026-04-19T10:12:58.999Z</time></trkpt><trkpt lat="38.94598582672567" lon="-9.413961625231948"><ele>47.0</ele><time>2026-04-19T10:12:59.999Z</time></trkpt><trkpt lat="38.94611701101551" lon="-9.413982351236196"><ele>48.75</ele><time>2026-04-19T10:13:00.999Z</time></trkpt><trkpt lat="38.94623037277853" lon="-9.414005406822612"><ele>50.5</ele><time>2026-04-19T10:13:01.999Z</time></trkpt><trkpt lat="38.94633886572697" lon="-9.414041862823021"><ele>52.25</ele><time>2026-04-19T10:13:02.999Z</time></trkpt><trkpt lat="38.94647500068658" lon="-9.414103916804216"><ele>54.0</ele><time>2026-04-19T10:13:03.999Z</time></trkpt><trkpt lat="38.946622838758486" lon="-9.414206825098852"><ele>55.66666666666667</ele><time>2026-04-19T10:13:04.999Z</time></trkpt><trkpt lat="38.946778998406714" lon="-9.414325088806404"><ele>57.333333333333336</ele><time>2026-04-19T10:13:05.999Z</time></trkpt><trkpt lat="38.946943289864265" lon="-9.414433961318002"><ele>59.0</ele><time>2026-04-19T10:13:06.999Z</time></trkpt><trkpt lat="38.94711401611816" lon="-9.414544975005867"><ele>59.0</ele><time>2026-04-19T10:13:07.999Z</time></trkpt><trkpt lat="38.94729450742376" lon="-9.414615228746756"><ele>59.0</ele><time>2026-04-19T10:13:08.999Z</time></trkpt><trkpt lat="38.947478521317336" lon="-9.414636223162796"><ele>59.0</ele><time>2026-04-19T10:13:09.999Z</time></trkpt><trkpt lat="38.94767293369367" lon="-9.414627097647369"><ele>57.66666666666667</ele><time>2026-04-19T10:13:10.999Z</time></trkpt><trkpt lat="38.947880404594144" lon="-9.414601327560975"><ele>56.33333333333333</ele><time>2026-04-19T10:13:11.999Z</time></trkpt><trkpt lat="38.94807302573255" lon="-9.414560249459061"><ele>55.0</ele><time>2026-04-19T10:13:12.999Z</time></trkpt><trkpt lat="38.948223395670425" lon="-9.414516969419639"><ele>55.0</ele><time>2026-04-19T10:13:13.999Z</time></trkpt><trkpt lat="38.948327762389674" lon="-9.414430149233478"><ele>55.0</ele><time>2026-04-19T10:13:14.999Z</time></trkpt><trkpt lat="38.948423929039706" lon="-9.414337050223802"><ele>55.0</ele><time>2026-04-19T10:13:15.999Z</time></trkpt><trkpt lat="38.94848056599444" lon="-9.414193486283606"><ele>55.0</ele><time>2026-04-19T10:13:16.999Z</time></trkpt><trkpt lat="38.94854375520391" lon="-9.4140123457406"><ele>56.25</ele><time>2026-04-19T10:13:17.999Z</time></trkpt><trkpt lat="38.948614100670476" lon="-9.41387078969183"><ele>57.5</ele><time>2026-04-19T10:13:18.999Z</time></trkpt><trkpt lat="38.94870284285138" lon="-9.413767741124662"><ele>58.75</ele><time>2026-04-19T10:13:19.999Z</time></trkpt><trkpt lat="38.948780637264655" lon="-9.413725375851529"><ele>60.0</ele><time>2026-04-19T10:13:20.999Z</time></trkpt><trkpt lat="38.948925611819995" lon="-9.413713057027417"><ele>60.0</ele><time>2026-04-19T10:13:21.999Z</time></trkpt><trkpt lat="38.94905490920327" lon="-9.413785048870595"><ele>60.0</ele><time>2026-04-19T10:13:22.999Z</time></trkpt><trkpt lat="38.94918088685079" lon="-9.413899856805878"><ele>60.0</ele><time>2026-04-19T10:13:23.999Z</time></trkpt><trkpt lat="38.949310519711176" lon="-9.414042800582608"><ele>57.33333333333333</ele><time>2026-04-19T10:13:24.999Z</time></trkpt><trkpt lat="38.94945641700591" lon="-9.414171917258493"><ele>54.666666666666664</ele><time>2026-04-19T10:13:25.999Z</time></trkpt><trkpt lat="38.94959688411013" lon="-9.414294866498768"><ele>52.0</ele><time>2026-04-19T10:13:26.999Z</time></trkpt><trkpt lat="38.94971983383663" lon="-9.41437032299791"><ele>52.0</ele><time>2026-04-19T10:13:27.999Z</time></trkpt><trkpt lat="38.94983302267477" lon="-9.414407327189018"><ele>52.0</ele><time>2026-04-19T10:13:28.999Z</time></trkpt><trkpt lat="38.94994342918151" lon="-9.414416403082353"><ele>52.0</ele><time>2026-04-19T10:13:29.999Z</time></trkpt><trkpt lat="38.95004944490385" lon="-9.414404867347594"><ele>52.0</ele><time>2026-04-19T10:13:30.999Z</time></trkpt><trkpt lat="38.95015604508034" lon="-9.414392216957014"><ele>52.0</ele><time>2026-04-19T10:13:31.999Z</time></trkpt><trkpt lat="38.95025355146665" lon="-9.414378361124006"><ele>51.0</ele><time>2026-04-19T10:13:32.999Z</time></trkpt><trkpt lat="38.950344741198" lon="-9.414360122410118"><ele>50.0</ele><time>2026-04-19T10:13:34Z</time></trkpt><trkpt lat="38.95044425586885" lon="-9.41433578171675"><ele>49.0</ele><time>2026-04-19T10:13:35Z</time></trkpt><trkpt lat="38.950548538110894" lon="-9.41430616884775"><ele>48.0</ele><time>2026-04-19T10:13:36Z</time></trkpt><trkpt lat="38.95063014617805" lon="-9.414257986567529"><ele>47.0</ele><time>2026-04-19T10:13:37Z</time></trkpt><trkpt lat="38.9506966065009" lon="-9.414194880101142"><ele>47.0</ele><time>2026-04-19T10:13:38Z</time></trkpt><trkpt lat="38.95075037510794" lon="-9.414124065905552"><ele>47.0</ele><time>2026-04-19T10:13:39Z</time></trkpt><trkpt lat="38.95080096075037" lon="-9.414041353138298"><ele>47.0</ele><time>2026-04-19T10:13:40Z</time></trkpt><trkpt lat="38.95084294881042" lon="-9.413938770453223"><ele>47.0</ele><time>2026-04-19T10:13:41Z</time></trkpt><trkpt lat="38.950877480561104" lon="-9.413823906402886"><ele>47.0</ele><time>2026-04-19T10:13:42Z</time></trkpt><trkpt lat="38.950917062418824" lon="-9.413706180104263"><ele>47.0</ele><time>2026-04-19T10:13:43Z</time></trkpt><trkpt lat="38.95095652692131" lon="-9.41358869097555"><ele>47.666666666666664</ele><time>2026-04-19T10:13:44Z</time></trkpt><trkpt lat="38.95100014431144" lon="-9.413472164338616"><ele>48.33333333333333</ele><time>2026-04-19T10:13:45Z</time></trkpt><trkpt lat="38.95105469973693" lon="-9.413382293342949"><ele>49.0</ele><time>2026-04-19T10:13:46Z</time></trkpt><trkpt lat="38.95109212744846" lon="-9.413289845057859"><ele>49.666666666666664</ele><time>2026-04-19T10:13:47Z</time></trkpt><trkpt lat="38.951138659270484" lon="-9.413204455896318"><ele>50.333333333333336</ele><time>2026-04-19T10:13:48Z</time></trkpt><trkpt lat="38.95121460032574" lon="-9.413138110397833"><ele>51.0</ele><time>2026-04-19T10:13:49Z</time></trkpt><trkpt lat="38.95131113526081" lon="-9.413107339124648"><ele>51.0</ele><time>2026-04-19T10:13:50Z</time></trkpt><trkpt lat="38.951406178781035" lon="-9.41310985053318"><ele>51.0</ele><time>2026-04-19T10:13:51Z</time></trkpt><trkpt lat="38.951498605950874" lon="-9.41314560320146"><ele>51.0</ele><time>2026-04-19T10:13:52Z</time></trkpt><trkpt lat="38.951611978914634" lon="-9.413223188497794"><ele>51.0</ele><time>2026-04-19T10:13:53Z</time></trkpt><trkpt lat="38.95173423777742" lon="-9.413332573224574"><ele>52.66666666666667</ele><time>2026-04-19T10:13:54Z</time></trkpt><trkpt lat="38.95188165950167" lon="-9.41342892313423"><ele>54.333333333333336</ele><time>2026-04-19T10:13:55Z</time></trkpt><trkpt lat="38.95204692706457" lon="-9.41353918280913"><ele>56.0</ele><time>2026-04-19T10:13:56Z</time></trkpt><trkpt lat="38.952218301259606" lon="-9.41365412953848"><ele>56.0</ele><time>2026-04-19T10:13:57Z</time></trkpt><trkpt lat="38.95240119463444" lon="-9.413776251518573"><ele>56.0</ele><time>2026-04-19T10:13:58Z</time></trkpt><trkpt lat="38.95258775521111" lon="-9.413901137838065"><ele>56.0</ele><time>2026-04-19T10:13:59Z</time></trkpt><trkpt lat="38.95277110945207" lon="-9.414007977290572"><ele>53.25</ele><time>2026-04-19T10:14:00Z</time></trkpt><trkpt lat="38.95292518006016" lon="-9.414061096177388"><ele>50.5</ele><time>2026-04-19T10:14:01Z</time></trkpt><trkpt lat="38.953063232959494" lon="-9.414070446099377"><ele>47.75</ele><time>2026-04-19T10:14:02Z</time></trkpt><trkpt lat="38.953201229371345" lon="-9.414049913469144"><ele>45.0</ele><time>2026-04-19T10:14:03Z</time></trkpt><trkpt lat="38.9533350818314" lon="-9.413988712637453"><ele>44.25</ele><time>2026-04-19T10:14:04Z</time></trkpt><trkpt lat="38.95346203963797" lon="-9.413915613656796"><ele>43.5</ele><time>2026-04-19T10:14:05Z</time></trkpt><trkpt lat="38.95359396850886" lon="-9.413835617331868"><ele>42.75</ele><time>2026-04-19T10:14:06Z</time></trkpt><trkpt lat="38.95371966045037" lon="-9.413766564954665"><ele>42.0</ele><time>2026-04-19T10:14:07Z</time></trkpt><trkpt lat="38.953839025835556" lon="-9.413729628528891"><ele>43.2</ele><time>2026-04-19T10:14:08Z</time></trkpt><trkpt lat="38.9539410046664" lon="-9.41368980751196"><ele>44.400000000000006</ele><time>2026-04-19T10:14:09Z</time></trkpt><trkpt lat="38.954048959706114" lon="-9.413692330772754"><ele>45.599999999999994</ele><time>2026-04-19T10:14:10Z</time></trkpt><trkpt lat="38.95414493848121" lon="-9.41370650134735"><ele>46.8</ele><time>2026-04-19T10:14:11Z</time></trkpt><trkpt lat="38.95424579255334" lon="-9.413745105342901"><ele>48.0</ele><time>2026-04-19T10:14:12Z</time></trkpt><trkpt lat="38.95432672417074" lon="-9.413785701222093"><ele>48.333333333333336</ele><time>2026-04-19T10:14:13Z</time></trkpt><trkpt lat="38.95440710843428" lon="-9.413821729999906"><ele>48.66666666666667</ele><time>2026-04-19T10:14:14Z</time></trkpt><trkpt lat="38.95448151535896" lon="-9.413848529276148"><ele>49.0</ele><time>2026-04-19T10:14:15Z</time></trkpt><trkpt lat="38.954555538487945" lon="-9.41387461464677"><ele>49.333333333333336</ele><time>2026-04-19T10:14:16Z</time></trkpt><trkpt lat="38.954635622210766" lon="-9.413903406004493"><ele>49.66666666666667</ele><time>2026-04-19T10:14:17Z</time></trkpt><trkpt lat="38.95471418638161" lon="-9.413924043625522"><ele>50.0</ele><time>2026-04-19T10:14:18Z</time></trkpt><trkpt lat="38.95478571944806" lon="-9.413945166282291"><ele>48.833333333333336</ele><time>2026-04-19T10:14:19Z</time></trkpt><trkpt lat="38.95485618030617" lon="-9.413967808688717"><ele>47.66666666666667</ele><time>2026-04-19T10:14:20Z</time></trkpt><trkpt lat="38.95492522253243" lon="-9.41399166067775"><ele>46.5</ele><time>2026-04-19T10:14:21Z</time></trkpt><trkpt lat="38.95500070634248" lon="-9.414013367475915"><ele>45.333333333333336</ele><time>2026-04-19T10:14:22Z</time></trkpt><trkpt lat="38.95508638224345" lon="-9.414042493582468"><ele>44.16666666666667</ele><time>2026-04-19T10:14:23Z</time></trkpt><trkpt lat="38.955162347086734" lon="-9.41406216922112"><ele>43.0</ele><time>2026-04-19T10:14:24Z</time></trkpt><trkpt lat="38.955239809103645" lon="-9.414084515242626"><ele>43.0</ele><time>2026-04-19T10:14:25Z</time></trkpt><trkpt lat="38.955331179451804" lon="-9.414117177476866"><ele>43.0</ele><time>2026-04-19T10:14:26Z</time></trkpt><trkpt lat="38.95543421647287" lon="-9.414155265819762"><ele>43.0</ele><time>2026-04-19T10:14:27Z</time></trkpt><trkpt lat="38.955567626373245" lon="-9.414194952106874"><ele>43.0</ele><time>2026-04-19T10:14:28Z</time></trkpt><trkpt lat="38.95572666957973" lon="-9.414248899114963"><ele>44.8</ele><time>2026-04-19T10:14:29Z</time></trkpt><trkpt lat="38.9558731201401" lon="-9.414282155732932"><ele>46.599999999999994</ele><time>2026-04-19T10:14:30Z</time></trkpt><trkpt lat="38.955975678084975" lon="-9.414306398526788"><ele>48.400000000000006</ele><time>2026-04-19T10:14:31Z</time></trkpt><trkpt lat="38.95605907341237" lon="-9.414331591671639"><ele>50.2</ele><time>2026-04-19T10:14:32Z</time></trkpt><trkpt lat="38.95613060043631" lon="-9.414357923608463"><ele>52.0</ele><time>2026-04-19T10:14:33Z</time></trkpt><trkpt lat="38.95619837300346" lon="-9.414379690877011"><ele>51.99999999999999</ele><time>2026-04-19T10:14:34Z</time></trkpt><trkpt lat="38.95626155122662" lon="-9.414397841839476"><ele>52.0</ele><time>2026-04-19T10:14:35Z</time></trkpt><trkpt lat="38.95634033664506" lon="-9.41442371569145"><ele>52.0</ele><time>2026-04-19T10:14:36Z</time></trkpt><trkpt lat="38.95640529100723" lon="-9.414439365656579"><ele>52.0</ele><time>2026-04-19T10:14:37Z</time></trkpt><trkpt lat="38.95649101625339" lon="-9.414469067827003"><ele>51.99999999999999</ele><time>2026-04-19T10:14:38Z</time></trkpt><trkpt lat="38.956598098818084" lon="-9.414500982231178"><ele>52.0</ele><time>2026-04-19T10:14:39Z</time></trkpt><trkpt lat="38.956690392178174" lon="-9.414531580612653"><ele>52.33333333333333</ele><time>2026-04-19T10:14:40Z</time></trkpt><trkpt lat="38.956761166719815" lon="-9.414555255310503"><ele>52.666666666666664</ele><time>2026-04-19T10:14:41Z</time></trkpt><trkpt lat="38.95685924865266" lon="-9.41458653881641"><ele>53.0</ele><time>2026-04-19T10:14:43Z</time></trkpt><trkpt lat="38.95693407757043" lon="-9.414609941351262"><ele>53.33333333333333</ele><time>2026-04-19T10:14:45Z</time></trkpt><trkpt lat="38.957009621839234" lon="-9.414633233402656"><ele>53.666666666666664</ele><time>2026-04-19T10:14:47Z</time></trkpt><trkpt lat="38.95707298359797" lon="-9.414654215860084"><ele>54.0</ele><time>2026-04-19T10:14:47.999Z</time></trkpt><trkpt lat="38.9571628311916" lon="-9.414678193211275"><ele>49.6</ele><time>2026-04-19T10:14:48.999Z</time></trkpt><trkpt lat="38.957278178044774" lon="-9.414687312359943"><ele>45.2</ele><time>2026-04-19T10:14:49.999Z</time></trkpt><trkpt lat="38.95739243059435" lon="-9.414725205651408"><ele>40.800000000000004</ele><time>2026-04-19T10:14:50.999Z</time></trkpt><trkpt lat="38.957483684130544" lon="-9.414729404272478"><ele>36.400000000000006</ele><time>2026-04-19T10:14:51.999Z</time></trkpt><trkpt lat="38.95757673054943" lon="-9.414730769203365"><ele>32.0</ele><time>2026-04-19T10:14:53.999Z</time></trkpt><trkpt lat="38.957651254460664" lon="-9.41473442580764"><ele>31.6</ele><time>2026-04-19T10:14:55.999Z</time></trkpt><trkpt lat="38.95771956329011" lon="-9.414708986938901"><ele>31.200000000000003</ele><time>2026-04-19T10:15:12.999Z</time></trkpt><trkpt lat="38.95778681849937" lon="-9.414724403264845"><ele>30.8</ele><time>2026-04-19T10:15:16.999Z</time></trkpt><trkpt lat="38.957907959529784" lon="-9.414698782803763"><ele>30.4</ele><time>2026-04-19T10:15:58Z</time></trkpt><trkpt lat="38.95799288900326" lon="-9.414685357544704"><ele>30.0</ele><time>2026-04-19T10:15:59Z</time></trkpt><trkpt lat="38.958097915041904" lon="-9.414669986206201"><ele>32.333333333333336</ele><time>2026-04-19T10:16:01Z</time></trkpt><trkpt lat="38.958170906229995" lon="-9.414642987711204"><ele>34.666666666666664</ele><time>2026-04-19T10:16:03Z</time></trkpt><trkpt lat="38.958237534182416" lon="-9.414621953239866"><ele>37.0</ele><time>2026-04-19T10:16:07Z</time></trkpt><trkpt lat="38.958307591788746" lon="-9.414621287422811"><ele>39.33333333333333</ele><time>2026-04-19T10:16:10Z</time></trkpt><trkpt lat="38.95839415855186" lon="-9.41458802967371"><ele>41.666666666666664</ele><time>2026-04-19T10:16:13Z</time></trkpt><trkpt lat="38.95847211310517" lon="-9.414571402683512"><ele>44.0</ele><time>2026-04-19T10:16:15Z</time></trkpt><trkpt lat="38.95853896852397" lon="-9.41455714302704"><ele>45.0</ele><time>2026-04-19T10:16:17Z</time></trkpt><trkpt lat="38.95857082949978" lon="-9.414690866003527"><ele>46.0</ele><time>2026-04-19T10:16:26Z</time></trkpt><trkpt lat="38.95865407037083" lon="-9.414694402864951"><ele>47.0</ele><time>2026-04-19T10:21:42.999Z</time></trkpt><trkpt lat="38.958571649751235" lon="-9.4146835340984"><ele>48.0</ele><time>2026-04-19T10:21:49.999Z</time></trkpt><trkpt lat="38.95849224752619" lon="-9.414675208255705"><ele>49.00000000000001</ele><time>2026-04-19T10:22:03Z</time></trkpt><trkpt lat="38.958412492482886" lon="-9.414663361783738"><ele>50.0</ele><time>2026-04-19T10:22:40.999Z</time></trkpt><trkpt lat="38.958345466759575" lon="-9.41462806237769"><ele>50.00000000000001</ele><time>2026-04-19T10:23:36.999Z</time></trkpt><trkpt lat="38.95825922165279" lon="-9.414639794447615"><ele>50.0</ele><time>2026-04-19T10:23:38.999Z</time></trkpt><trkpt lat="38.9581965996435" lon="-9.414659280639775"><ele>50.0</ele><time>2026-04-19T10:23:39.999Z</time></trkpt><trkpt lat="38.95812957525241" lon="-9.41468931030603"><ele>50.0</ele><time>2026-04-19T10:23:40.999Z</time></trkpt><trkpt lat="38.95805236118334" lon="-9.414697558333833"><ele>50.00000000000001</ele><time>2026-04-19T10:23:41.999Z</time></trkpt><trkpt lat="38.95797250294626" lon="-9.41470584439977"><ele>50.0</ele><time>2026-04-19T10:23:42.999Z</time></trkpt><trkpt lat="38.95786412279833" lon="-9.414729026195822"><ele>45.5</ele><time>2026-04-19T10:23:43.999Z</time></trkpt><trkpt lat="38.9577287417401" lon="-9.414752500900796"><ele>41.0</ele><time>2026-04-19T10:23:44.999Z</time></trkpt><trkpt lat="38.95758413718118" lon="-9.414763864803165"><ele>36.5</ele><time>2026-04-19T10:23:45.999Z</time></trkpt><trkpt lat="38.9574436301903" lon="-9.414771350722816"><ele>32.0</ele><time>2026-04-19T10:23:46.999Z</time></trkpt><trkpt lat="38.95733319807172" lon="-9.414759167717"><ele>32.0</ele><time>2026-04-19T10:23:47.999Z</time></trkpt><trkpt lat="38.95721973544676" lon="-9.414738729901421"><ele>32.0</ele><time>2026-04-19T10:23:48.999Z</time></trkpt><trkpt lat="38.95710983157229" lon="-9.414708674179103"><ele>32.0</ele><time>2026-04-19T10:23:49.999Z</time></trkpt><trkpt lat="38.95699694231524" lon="-9.414662342165768"><ele>32.0</ele><time>2026-04-19T10:23:50.999Z</time></trkpt><trkpt lat="38.95688391096819" lon="-9.414621740919275"><ele>36.0</ele><time>2026-04-19T10:23:51.999Z</time></trkpt><trkpt lat="38.95677025876743" lon="-9.414587685552487"><ele>40.0</ele><time>2026-04-19T10:23:52.999Z</time></trkpt><trkpt lat="38.95666846228892" lon="-9.414554825138765"><ele>44.0</ele><time>2026-04-19T10:23:53.999Z</time></trkpt><trkpt lat="38.95656901919788" lon="-9.414524393710922"><ele>48.0</ele><time>2026-04-19T10:23:54.999Z</time></trkpt><trkpt lat="38.95647243279074" lon="-9.414497322295604"><ele>52.0</ele><time>2026-04-19T10:23:55.999Z</time></trkpt><trkpt lat="38.95638415372027" lon="-9.414466680644948"><ele>51.99999999999999</ele><time>2026-04-19T10:23:56.999Z</time></trkpt><trkpt lat="38.95630258219153" lon="-9.414441607780253"><ele>52.0</ele><time>2026-04-19T10:23:57.999Z</time></trkpt><trkpt lat="38.9562200673922" lon="-9.414418627522041"><ele>52.0</ele><time>2026-04-19T10:23:58.999Z</time></trkpt><trkpt lat="38.956130294853814" lon="-9.414386898243286"><ele>52.0</ele><time>2026-04-19T10:23:59.999Z</time></trkpt><trkpt lat="38.95604036516568" lon="-9.414357047635802"><ele>51.99999999999999</ele><time>2026-04-19T10:24:00.999Z</time></trkpt><trkpt lat="38.955956723173784" lon="-9.414326979926054"><ele>52.0</ele><time>2026-04-19T10:24:01.999Z</time></trkpt><trkpt lat="38.95587866742733" lon="-9.414301245071067"><ele>50.714285714285715</ele><time>2026-04-19T10:24:03Z</time></trkpt><trkpt lat="38.955800570423335" lon="-9.414293611771622"><ele>49.42857142857143</ele><time>2026-04-19T10:24:04Z</time></trkpt><trkpt lat="38.95572892751207" lon="-9.414258497742345"><ele>48.142857142857146</ele><time>2026-04-19T10:24:05Z</time></trkpt><trkpt lat="38.95566582749166" lon="-9.414233229287406"><ele>46.85714285714286</ele><time>2026-04-19T10:24:06Z</time></trkpt><trkpt lat="38.95559246322326" lon="-9.414215960301807"><ele>45.57142857142857</ele><time>2026-04-19T10:24:07Z</time></trkpt><trkpt lat="38.95552747025053" lon="-9.414201623092014"><ele>44.28571428571429</ele><time>2026-04-19T10:24:08Z</time></trkpt><trkpt lat="38.9554631810296" lon="-9.414181557133793"><ele>43.0</ele><time>2026-04-19T10:24:09Z</time></trkpt><trkpt lat="38.95539988873547" lon="-9.414164842500254"><ele>43.0</ele><time>2026-04-19T10:24:10Z</time></trkpt><trkpt lat="38.955326565462926" lon="-9.414149217746633"><ele>43.0</ele><time>2026-04-19T10:24:12Z</time></trkpt><trkpt lat="38.95529778206759" lon="-9.41423004944371"><ele>43.0</ele><time>2026-04-19T10:24:14Z</time></trkpt><trkpt lat="38.95529449353153" lon="-9.414314631767892"><ele>43.0</ele><time>2026-04-19T10:24:15Z</time></trkpt><trkpt lat="38.95528324273856" lon="-9.414448144919271"><ele>43.0</ele><time>2026-04-19T10:24:17Z</time></trkpt><trkpt lat="38.95525507973605" lon="-9.414579947039467"><ele>43.0</ele><time>2026-04-19T10:24:19Z</time></trkpt><trkpt lat="38.95518569277477" lon="-9.414709967723617"><ele>41.0</ele><time>2026-04-19T10:24:21Z</time></trkpt><trkpt lat="38.9551299399845" lon="-9.414754425622721"><ele>39.0</ele><time>2026-04-19T10:24:22Z</time></trkpt><trkpt lat="38.95501356268591" lon="-9.414806843378711"><ele>37.0</ele><time>2026-04-19T10:24:24Z</time></trkpt><trkpt lat="38.95490181079965" lon="-9.414838799038106"><ele>35.0</ele><time>2026-04-19T10:24:26Z</time></trkpt><trkpt lat="38.95483127882729" lon="-9.414917526246798"><ele>33.0</ele><time>2026-04-19T10:24:28Z</time></trkpt><trkpt lat="38.95484729246489" lon="-9.415003457750391"><ele>33.0</ele><time>2026-04-19T10:24:29Z</time></trkpt><trkpt lat="38.95491618765391" lon="-9.415045651621375"><ele>33.0</ele><time>2026-04-19T10:24:30Z</time></trkpt><trkpt lat="38.95495873764871" lon="-9.41512304481879"><ele>33.0</ele><time>2026-04-19T10:24:31Z</time></trkpt><trkpt lat="38.954986223818295" lon="-9.415200907597594"><ele>33.0</ele><time>2026-04-19T10:24:32Z</time></trkpt><trkpt lat="38.95502368507702" lon="-9.415276357587093"><ele>33.0</ele><time>2026-04-19T10:24:33Z</time></trkpt><trkpt lat="38.95506799429973" lon="-9.415360160168893"><ele>33.0</ele><time>2026-04-19T10:24:34Z</time></trkpt><trkpt lat="38.95511000115872" lon="-9.415440891869775"><ele>33.0</ele><time>2026-04-19T10:24:35Z</time></trkpt><trkpt lat="38.955144959959355" lon="-9.415518043959466"><ele>28.666666666666668</ele><time>2026-04-19T10:24:36Z</time></trkpt><trkpt lat="38.95519306728684" lon="-9.415573698991706"><ele>24.333333333333332</ele><time>2026-04-19T10:24:36.999Z</time></trkpt><trkpt lat="38.95527974103865" lon="-9.415615649907407"><ele>20.0</ele><time>2026-04-19T10:24:38.999Z</time></trkpt><trkpt lat="38.9553338113695" lon="-9.415672110089874"><ele>15.666666666666668</ele><time>2026-04-19T10:24:42.999Z</time></trkpt><trkpt lat="38.955280685312474" lon="-9.415742425761065"><ele>11.333333333333334</ele><time>2026-04-19T10:24:56.999Z</time></trkpt><trkpt lat="38.955295529930424" lon="-9.415826099975272"><ele>7.0</ele><time>2026-04-19T10:24:58.999Z</time></trkpt><trkpt lat="38.955368713565875" lon="-9.415873828238686"><ele>7.000000000000001</ele><time>2026-04-19T10:26:12Z</time></trkpt><trkpt lat="38.95532591222662" lon="-9.415814207394323"><ele>7.0</ele><time>2026-04-19T10:48:00Z</time></trkpt><trkpt lat="38.955260282913486" lon="-9.415799694623779"><ele>7.0</ele><time>2026-04-19T10:50:33Z</time></trkpt><trkpt lat="38.955181485071826" lon="-9.415755665502727"><ele>7.0</ele><time>2026-04-19T10:50:36Z</time></trkpt><trkpt lat="38.955158450512606" lon="-9.415639139141808"><ele>7.000000000000001</ele><time>2026-04-19T10:50:38Z</time></trkpt><trkpt lat="38.955132419873316" lon="-9.415533605269147"><ele>7.0</ele><time>2026-04-19T10:50:40Z</time></trkpt><trkpt lat="38.95510612777355" lon="-9.415429352766633"><ele>10.666666666666668</ele><time>2026-04-19T10:50:42Z</time></trkpt><trkpt lat="38.9550592329123" lon="-9.41533864673802"><ele>14.333333333333332</ele><time>2026-04-19T10:50:48Z</time></trkpt><trkpt lat="38.95502147727891" lon="-9.41527029129909"><ele>18.0</ele><time>2026-04-19T10:50:50Z</time></trkpt><trkpt lat="38.95497591467376" lon="-9.415187801464286"><ele>21.666666666666664</ele><time>2026-04-19T10:50:52Z</time></trkpt><trkpt lat="38.954931648682404" lon="-9.415095185147443"><ele>25.333333333333332</ele><time>2026-04-19T10:50:54Z</time></trkpt><trkpt lat="38.954865728603096" lon="-9.414984513925086"><ele>29.0</ele><time>2026-04-19T10:50:56Z</time></trkpt><trkpt lat="38.954829085769795" lon="-9.41491482974371"><ele>29.0</ele><time>2026-04-19T10:50:57Z</time></trkpt><trkpt lat="38.9548530163109" lon="-9.414770176554029"><ele>29.0</ele><time>2026-04-19T10:50:59Z</time></trkpt><trkpt lat="38.954969141561286" lon="-9.414768329655708"><ele>29.0</ele><time>2026-04-19T10:51:00Z</time></trkpt><trkpt lat="38.95506398293215" lon="-9.414740941436678"><ele>29.0</ele><time>2026-04-19T10:51:01Z</time></trkpt><trkpt lat="38.955152421362875" lon="-9.414703041421019"><ele>29.0</ele><time>2026-04-19T10:51:02Z</time></trkpt><trkpt lat="38.955214901390676" lon="-9.41461212741379"><ele>31.333333333333332</ele><time>2026-04-19T10:51:03Z</time></trkpt><trkpt lat="38.9552416328958" lon="-9.414506374102322"><ele>33.666666666666664</ele><time>2026-04-19T10:51:04Z</time></trkpt><trkpt lat="38.955257871346305" lon="-9.414393600694389"><ele>36.0</ele><time>2026-04-19T10:51:05Z</time></trkpt><trkpt lat="38.95526838359794" lon="-9.414307107510885"><ele>38.333333333333336</ele><time>2026-04-19T10:51:06Z</time></trkpt><trkpt lat="38.955274723916" lon="-9.414208890374821"><ele>40.66666666666667</ele><time>2026-04-19T10:51:08Z</time></trkpt><trkpt lat="38.955249795378435" lon="-9.414106407975874"><ele>43.0</ele><time>2026-04-19T10:51:23Z</time></trkpt><trkpt lat="38.95509918131371" lon="-9.414078024666615"><ele>43.0</ele><time>2026-04-19T10:51:25Z</time></trkpt><trkpt lat="38.95503104918692" lon="-9.414037021448582"><ele>43.0</ele><time>2026-04-19T10:51:26Z</time></trkpt><trkpt lat="38.95492236103506" lon="-9.414022677351841"><ele>43.0</ele><time>2026-04-19T10:51:28Z</time></trkpt><trkpt lat="38.95483263595876" lon="-9.413994354819675"><ele>43.0</ele><time>2026-04-19T10:51:30Z</time></trkpt><trkpt lat="38.95472257349526" lon="-9.413959612593628"><ele>43.0</ele><time>2026-04-19T10:51:32Z</time></trkpt><trkpt lat="38.95465128056517" lon="-9.413924510599397"><ele>43.0</ele><time>2026-04-19T10:51:33Z</time></trkpt><trkpt lat="38.95455640731088" lon="-9.413898225251936"><ele>43.0</ele><time>2026-04-19T10:51:34Z</time></trkpt><trkpt lat="38.9544357328451" lon="-9.413863929533925"><ele>43.0</ele><time>2026-04-19T10:51:35Z</time></trkpt><trkpt lat="38.95431522904422" lon="-9.413820636307708"><ele>43.0</ele><time>2026-04-19T10:51:36Z</time></trkpt><trkpt lat="38.954183896880565" lon="-9.413785933650848"><ele>42.75</ele><time>2026-04-19T10:51:37Z</time></trkpt><trkpt lat="38.95404749811511" lon="-9.413747947802216"><ele>42.5</ele><time>2026-04-19T10:51:38Z</time></trkpt><trkpt lat="38.953916789666756" lon="-9.413754147214059"><ele>42.25</ele><time>2026-04-19T10:51:39Z</time></trkpt><trkpt lat="38.953794475645395" lon="-9.413747565230262"><ele>42.0</ele><time>2026-04-19T10:51:40Z</time></trkpt><trkpt lat="38.953691257488906" lon="-9.413826672477072"><ele>42.0</ele><time>2026-04-19T10:51:41Z</time></trkpt><trkpt lat="38.95357746413402" lon="-9.413891933197053"><ele>42.0</ele><time>2026-04-19T10:51:42Z</time></trkpt><trkpt lat="38.95346012375736" lon="-9.413951726860564"><ele>42.0</ele><time>2026-04-19T10:51:43Z</time></trkpt><trkpt lat="38.9533545220585" lon="-9.414022698973518"><ele>42.0</ele><time>2026-04-19T10:51:44Z</time></trkpt><trkpt lat="38.95325762627368" lon="-9.414084444203793"><ele>42.75</ele><time>2026-04-19T10:51:45Z</time></trkpt><trkpt lat="38.953139474484914" lon="-9.414121899775358"><ele>43.5</ele><time>2026-04-19T10:51:46Z</time></trkpt><trkpt lat="38.953009687990274" lon="-9.414136982711794"><ele>44.25</ele><time>2026-04-19T10:51:47Z</time></trkpt><trkpt lat="38.95288174469383" lon="-9.414125901157414"><ele>45.0</ele><time>2026-04-19T10:51:48Z</time></trkpt><trkpt lat="38.9527579499711" lon="-9.414080335405197"><ele>45.0</ele><time>2026-04-19T10:51:49Z</time></trkpt><trkpt lat="38.9526354387039" lon="-9.414010632719966"><ele>45.0</ele><time>2026-04-19T10:51:50Z</time></trkpt><trkpt lat="38.95252943635106" lon="-9.413917303460599"><ele>45.0</ele><time>2026-04-19T10:51:51Z</time></trkpt><trkpt lat="38.95244025830637" lon="-9.413847800966053"><ele>45.0</ele><time>2026-04-19T10:51:52Z</time></trkpt><trkpt lat="38.95235902902285" lon="-9.413779755327225"><ele>46.833333333333336</ele><time>2026-04-19T10:51:53Z</time></trkpt><trkpt lat="38.95228553707714" lon="-9.41373104924852"><ele>48.66666666666667</ele><time>2026-04-19T10:51:54Z</time></trkpt><trkpt lat="38.952204743680376" lon="-9.413692223367542"><ele>50.5</ele><time>2026-04-19T10:51:55Z</time></trkpt><trkpt lat="38.9521336573103" lon="-9.413654183145482"><ele>52.333333333333336</ele><time>2026-04-19T10:51:56Z</time></trkpt><trkpt lat="38.95207519773718" lon="-9.413599188866975"><ele>54.16666666666667</ele><time>2026-04-19T10:51:57Z</time></trkpt><trkpt lat="38.952019370268715" lon="-9.413552823849036"><ele>56.0</ele><time>2026-04-19T10:51:58Z</time></trkpt><trkpt lat="38.95190429455238" lon="-9.41348019190565"><ele>56.0</ele><time>2026-04-19T10:52:00Z</time></trkpt><trkpt lat="38.95184470784986" lon="-9.413435877534189"><ele>55.99999999999999</ele><time>2026-04-19T10:52:01Z</time></trkpt><trkpt lat="38.95171585690505" lon="-9.413353494610448"><ele>55.99999999999999</ele><time>2026-04-19T10:52:03Z</time></trkpt><trkpt lat="38.95163553544247" lon="-9.413295404800127"><ele>56.0</ele><time>2026-04-19T10:52:04Z</time></trkpt><trkpt lat="38.95155217481524" lon="-9.41326056158824"><ele>56.0</ele><time>2026-04-19T10:52:05Z</time></trkpt><trkpt lat="38.95145713164393" lon="-9.413211729691264"><ele>55.0</ele><time>2026-04-19T10:52:06Z</time></trkpt><trkpt lat="38.95136348944118" lon="-9.413193326983174"><ele>53.99999999999999</ele><time>2026-04-19T10:52:07Z</time></trkpt><trkpt lat="38.95126192065827" lon="-9.413205766789451"><ele>53.0</ele><time>2026-04-19T10:52:08Z</time></trkpt><trkpt lat="38.95115171814782" lon="-9.413236667178674"><ele>52.0</ele><time>2026-04-19T10:52:09Z</time></trkpt><trkpt lat="38.95105785088408" lon="-9.413339874231553"><ele>51.0</ele><time>2026-04-19T10:52:10Z</time></trkpt><trkpt lat="38.95101955063025" lon="-9.413518509427744"><ele>51.0</ele><time>2026-04-19T10:52:11Z</time></trkpt><trkpt lat="38.9509425932551" lon="-9.413686147351886"><ele>51.0</ele><time>2026-04-19T10:52:12Z</time></trkpt><trkpt lat="38.950893829808" lon="-9.41388175980457"><ele>51.0</ele><time>2026-04-19T10:52:13Z</time></trkpt><trkpt lat="38.950843896246546" lon="-9.41405566602895"><ele>50.0</ele><time>2026-04-19T10:52:14Z</time></trkpt><trkpt lat="38.9507869145431" lon="-9.414196919746924"><ele>49.0</ele><time>2026-04-19T10:52:15Z</time></trkpt><trkpt lat="38.950697246648744" lon="-9.414307799657834"><ele>48.0</ele><time>2026-04-19T10:52:16Z</time></trkpt><trkpt lat="38.950570292235085" lon="-9.414390324689974"><ele>47.0</ele><time>2026-04-19T10:52:17Z</time></trkpt><trkpt lat="38.9504189685604" lon="-9.41443290566959"><ele>47.0</ele><time>2026-04-19T10:52:18Z</time></trkpt><trkpt lat="38.95025491734192" lon="-9.414450817005811"><ele>47.0</ele><time>2026-04-19T10:52:19Z</time></trkpt><trkpt lat="38.950086590878634" lon="-9.414468237921435"><ele>47.0</ele><time>2026-04-19T10:52:20Z</time></trkpt><trkpt lat="38.949940071318146" lon="-9.414475492770125"><ele>48.666666666666664</ele><time>2026-04-19T10:52:21Z</time></trkpt><trkpt lat="38.949798212012475" lon="-9.41446433004292"><ele>50.33333333333333</ele><time>2026-04-19T10:52:22Z</time></trkpt><trkpt lat="38.9496503246629" lon="-9.414405913223668"><ele>52.0</ele><time>2026-04-19T10:52:23Z</time></trkpt><trkpt lat="38.949498020745935" lon="-9.41429193490226"><ele>52.0</ele><time>2026-04-19T10:52:24Z</time></trkpt><trkpt lat="38.94934395086188" lon="-9.414143126817326"><ele>52.0</ele><time>2026-04-19T10:52:25Z</time></trkpt><trkpt lat="38.94919740884703" lon="-9.41399087097472"><ele>52.0</ele><time>2026-04-19T10:52:26Z</time></trkpt><trkpt lat="38.94906121868868" lon="-9.413888247856347"><ele>51.0</ele><time>2026-04-19T10:52:27Z</time></trkpt><trkpt lat="38.94894652968577" lon="-9.413812120561253"><ele>50.0</ele><time>2026-04-19T10:52:28Z</time></trkpt><trkpt lat="38.948828557679384" lon="-9.413785697313864"><ele>49.0</ele><time>2026-04-19T10:52:29Z</time></trkpt><trkpt lat="38.94872061650943" lon="-9.413818602020134"><ele>48.0</ele><time>2026-04-19T10:52:30Z</time></trkpt><trkpt lat="38.948633068830205" lon="-9.41389583045017"><ele>48.0</ele><time>2026-04-19T10:52:31Z</time></trkpt><trkpt lat="38.948576547987656" lon="-9.414025353231024"><ele>48.0</ele><time>2026-04-19T10:52:32Z</time></trkpt><trkpt lat="38.94851645613422" lon="-9.414195532248327"><ele>48.0</ele><time>2026-04-19T10:52:33Z</time></trkpt><trkpt lat="38.94843937437994" lon="-9.414356858891942"><ele>48.0</ele><time>2026-04-19T10:52:34Z</time></trkpt><trkpt lat="38.94835627637797" lon="-9.414487226311056"><ele>49.75</ele><time>2026-04-19T10:52:35Z</time></trkpt><trkpt lat="38.94824554126907" lon="-9.414572668385464"><ele>51.5</ele><time>2026-04-19T10:52:36Z</time></trkpt><trkpt lat="38.948109051558795" lon="-9.414629120886632"><ele>53.25</ele><time>2026-04-19T10:52:37Z</time></trkpt><trkpt lat="38.94796012258362" lon="-9.414665861657749"><ele>55.0</ele><time>2026-04-19T10:52:38Z</time></trkpt><trkpt lat="38.94779230410022" lon="-9.414681079343547"><ele>56.0</ele><time>2026-04-19T10:52:39Z</time></trkpt><trkpt lat="38.947631674069946" lon="-9.414697442641002"><ele>57.0</ele><time>2026-04-19T10:52:40Z</time></trkpt><trkpt lat="38.94749799072335" lon="-9.414700967310402"><ele>58.0</ele><time>2026-04-19T10:52:41Z</time></trkpt><trkpt lat="38.94737798080571" lon="-9.414684589868191"><ele>59.0</ele><time>2026-04-19T10:52:42Z</time></trkpt><trkpt lat="38.94725612312875" lon="-9.414650560063848"><ele>59.0</ele><time>2026-04-19T10:52:43Z</time></trkpt><trkpt lat="38.94711644578149" lon="-9.414603003394356"><ele>59.0</ele><time>2026-04-19T10:52:44Z</time></trkpt><trkpt lat="38.94696254926492" lon="-9.414523242001147"><ele>59.0</ele><time>2026-04-19T10:52:45Z</time></trkpt><trkpt lat="38.9468087091133" lon="-9.414399919564318"><ele>57.333333333333336</ele><time>2026-04-19T10:52:46Z</time></trkpt><trkpt lat="38.94665877392416" lon="-9.414267494292009"><ele>55.66666666666667</ele><time>2026-04-19T10:52:47Z</time></trkpt><trkpt lat="38.94654322760475" lon="-9.414162845583006"><ele>54.0</ele><time>2026-04-19T10:52:48Z</time></trkpt><trkpt lat="38.9464278222635" lon="-9.414091470456277"><ele>54.0</ele><time>2026-04-19T10:52:49Z</time></trkpt><trkpt lat="38.94629023649123" lon="-9.414064142738932"><ele>54.0</ele><time>2026-04-19T10:52:50Z</time></trkpt><trkpt lat="38.946141108416874" lon="-9.41402977008441"><ele>54.0</ele><time>2026-04-19T10:52:51Z</time></trkpt><trkpt lat="38.94599678034412" lon="-9.414006267840257"><ele>54.0</ele><time>2026-04-19T10:52:52Z</time></trkpt><trkpt lat="38.945866320444296" lon="-9.413976436275167"><ele>52.25</ele><time>2026-04-19T10:52:53Z</time></trkpt><trkpt lat="38.94574883728006" lon="-9.413949269105638"><ele>50.5</ele><time>2026-04-19T10:52:54Z</time></trkpt><trkpt lat="38.945635062203536" lon="-9.413934269820661"><ele>48.75</ele><time>2026-04-19T10:52:55Z</time></trkpt><trkpt lat="38.94552080369493" lon="-9.413918375871704"><ele>47.0</ele><time>2026-04-19T10:52:56Z</time></trkpt><trkpt lat="38.94541362027028" lon="-9.41390773802256"><ele>47.0</ele><time>2026-04-19T10:52:57Z</time></trkpt><trkpt lat="38.9453082908916" lon="-9.413895541611966"><ele>47.0</ele><time>2026-04-19T10:52:58Z</time></trkpt><trkpt lat="38.94521608574973" lon="-9.413875754379031"><ele>47.0</ele><time>2026-04-19T10:52:59Z</time></trkpt><trkpt lat="38.94512294055265" lon="-9.413853649554273"><ele>47.0</ele><time>2026-04-19T10:53:00Z</time></trkpt><trkpt lat="38.94501789667914" lon="-9.413815579275909"><ele>47.0</ele><time>2026-04-19T10:53:01Z</time></trkpt><trkpt lat="38.94490658663838" lon="-9.413748533713449"><ele>48.75</ele><time>2026-04-19T10:53:02Z</time></trkpt><trkpt lat="38.944813527458074" lon="-9.41365115963981"><ele>50.5</ele><time>2026-04-19T10:53:03Z</time></trkpt><trkpt lat="38.944753239566396" lon="-9.413534601005804"><ele>52.25</ele><time>2026-04-19T10:53:04Z</time></trkpt><trkpt lat="38.94470841225639" lon="-9.413397366116826"><ele>54.0</ele><time>2026-04-19T10:53:05Z</time></trkpt><trkpt lat="38.94468996838216" lon="-9.413241445249886"><ele>54.0</ele><time>2026-04-19T10:53:06Z</time></trkpt><trkpt lat="38.944687091775954" lon="-9.413084308081963"><ele>54.00000000000001</ele><time>2026-04-19T10:53:07Z</time></trkpt><trkpt lat="38.94469284582385" lon="-9.412949378907264"><ele>54.00000000000001</ele><time>2026-04-19T10:53:08Z</time></trkpt><trkpt lat="38.94469582858185" lon="-9.412825149335003"><ele>54.0</ele><time>2026-04-19T10:53:09Z</time></trkpt><trkpt lat="38.944679909135175" lon="-9.412704703101872"><ele>54.0</ele><time>2026-04-19T10:53:10Z</time></trkpt><trkpt lat="38.94465637671175" lon="-9.412586118511067"><ele>53.800000000000004</ele><time>2026-04-19T10:53:11Z</time></trkpt><trkpt lat="38.94459981337184" lon="-9.41248436400597"><ele>53.60000000000001</ele><time>2026-04-19T10:53:12Z</time></trkpt><trkpt lat="38.944542527697564" lon="-9.412381201737112"><ele>53.4</ele><time>2026-04-19T10:53:13Z</time></trkpt><trkpt lat="38.94447086873525" lon="-9.412276835843802"><ele>53.2</ele><time>2026-04-19T10:53:14Z</time></trkpt><trkpt lat="38.944383275578055" lon="-9.412183966309033"><ele>53.0</ele><time>2026-04-19T10:53:15Z</time></trkpt><trkpt lat="38.944290746224496" lon="-9.412100300980269"><ele>51.8</ele><time>2026-04-19T10:53:16Z</time></trkpt><trkpt lat="38.9442040789663" lon="-9.41203323774111"><ele>50.599999999999994</ele><time>2026-04-19T10:53:17Z</time></trkpt><trkpt lat="38.94412567314749" lon="-9.411965521448877"><ele>49.400000000000006</ele><time>2026-04-19T10:53:18Z</time></trkpt><trkpt lat="38.94403850056758" lon="-9.411930766956887"><ele>48.2</ele><time>2026-04-19T10:53:19Z</time></trkpt><trkpt lat="38.943948572073865" lon="-9.411901247589155"><ele>47.0</ele><time>2026-04-19T10:53:20Z</time></trkpt><trkpt lat="38.94385373334453" lon="-9.411887283299365"><ele>47.0</ele><time>2026-04-19T10:53:21Z</time></trkpt><trkpt lat="38.94375883740758" lon="-9.411876753755397"><ele>47.0</ele><time>2026-04-19T10:53:22Z</time></trkpt><trkpt lat="38.9436700215918" lon="-9.41188785383324"><ele>47.0</ele><time>2026-04-19T10:53:23Z</time></trkpt><trkpt lat="38.94358440196683" lon="-9.41191739467136"><ele>47.0</ele><time>2026-04-19T10:53:24Z</time></trkpt><trkpt lat="38.94350476168087" lon="-9.411935983735162"><ele>47.0</ele><time>2026-04-19T10:53:25Z</time></trkpt><trkpt lat="38.94342634821151" lon="-9.41191205741064"><ele>47.0</ele><time>2026-04-19T10:53:26Z</time></trkpt><trkpt lat="38.94334867013611" lon="-9.4118942376974"><ele>45.4</ele><time>2026-04-19T10:53:27Z</time></trkpt><trkpt lat="38.94326742441637" lon="-9.411889639551452"><ele>43.800000000000004</ele><time>2026-04-19T10:53:28Z</time></trkpt><trkpt lat="38.94320218618388" lon="-9.411889074767595"><ele>42.2</ele><time>2026-04-19T10:53:29Z</time></trkpt><trkpt lat="38.943101197299974" lon="-9.411899697514354"><ele>40.6</ele><time>2026-04-19T10:53:31Z</time></trkpt><trkpt lat="38.9429917941758" lon="-9.41186675535892"><ele>39.0</ele><time>2026-04-19T10:53:33Z</time></trkpt><trkpt lat="38.94286974834832" lon="-9.41185828936811"><ele>39.0</ele><time>2026-04-19T10:53:35Z</time></trkpt><trkpt lat="38.942805035492654" lon="-9.41187240688443"><ele>39.0</ele><time>2026-04-19T10:53:36Z</time></trkpt><trkpt lat="38.942694473896054" lon="-9.411868431478508"><ele>39.0</ele><time>2026-04-19T10:53:38Z</time></trkpt><trkpt lat="38.94257636313393" lon="-9.411870821820544"><ele>39.0</ele><time>2026-04-19T10:53:40Z</time></trkpt><trkpt lat="38.94244983323057" lon="-9.411899369709523"><ele>39.0</ele><time>2026-04-19T10:53:42Z</time></trkpt><trkpt lat="38.94238893920784" lon="-9.41193292563839"><ele>36.833333333333336</ele><time>2026-04-19T10:53:43Z</time></trkpt><trkpt lat="38.94232430015733" lon="-9.411969872353815"><ele>34.666666666666664</ele><time>2026-04-19T10:53:44Z</time></trkpt><trkpt lat="38.94226299184487" lon="-9.411996416091515"><ele>32.5</ele><time>2026-04-19T10:53:45Z</time></trkpt><trkpt lat="38.94220111192428" lon="-9.412044803995776"><ele>30.333333333333332</ele><time>2026-04-19T10:53:46Z</time></trkpt><trkpt lat="38.94211461150037" lon="-9.412035310177577"><ele>28.166666666666664</ele><time>2026-04-19T10:53:47Z</time></trkpt><trkpt lat="38.94205511701605" lon="-9.412169214088921"><ele>26.0</ele><time>2026-04-19T10:53:48Z</time></trkpt><trkpt lat="38.941986152346296" lon="-9.412226022692249"><ele>24.999999999999996</ele><time>2026-04-19T10:53:49Z</time></trkpt><trkpt lat="38.941916998599986" lon="-9.412265609333865"><ele>24.0</ele><time>2026-04-19T10:53:50Z</time></trkpt><trkpt lat="38.94185118075735" lon="-9.41231876377958"><ele>23.0</ele><time>2026-04-19T10:53:51Z</time></trkpt><trkpt lat="38.9417856412514" lon="-9.412378993198113"><ele>22.0</ele><time>2026-04-19T10:53:52Z</time></trkpt><trkpt lat="38.94172300675675" lon="-9.412428935359369"><ele>21.0</ele><time>2026-04-19T10:53:53Z</time></trkpt><trkpt lat="38.94166339810539" lon="-9.412481739562397"><ele>20.0</ele><time>2026-04-19T10:53:54Z</time></trkpt><trkpt lat="38.941602855775294" lon="-9.412528971635302"><ele>19.428571428571427</ele><time>2026-04-19T10:53:55Z</time></trkpt><trkpt lat="38.94153986046286" lon="-9.412580246340445"><ele>18.857142857142858</ele><time>2026-04-19T10:53:56Z</time></trkpt><trkpt lat="38.94147607336975" lon="-9.412632493395591"><ele>18.285714285714285</ele><time>2026-04-19T10:53:57Z</time></trkpt><trkpt lat="38.94141773390482" lon="-9.412684773574158"><ele>17.714285714285715</ele><time>2026-04-19T10:53:58Z</time></trkpt><trkpt lat="38.94135260236705" lon="-9.41273145713366"><ele>17.142857142857142</ele><time>2026-04-19T10:53:59Z</time></trkpt><trkpt lat="38.941291309408655" lon="-9.412777167066436"><ele>16.57142857142857</ele><time>2026-04-19T10:54:00Z</time></trkpt><trkpt lat="38.94122590676878" lon="-9.412830056255393"><ele>16.0</ele><time>2026-04-19T10:54:01Z</time></trkpt><trkpt lat="38.94115668314534" lon="-9.41289321235384"><ele>15.999999999999998</ele><time>2026-04-19T10:54:02Z</time></trkpt><trkpt lat="38.941082290721624" lon="-9.412949252377567"><ele>16.0</ele><time>2026-04-19T10:54:03Z</time></trkpt><trkpt lat="38.94100695040538" lon="-9.412994450365288"><ele>16.0</ele><time>2026-04-19T10:54:04Z</time></trkpt><trkpt lat="38.94092980523169" lon="-9.413016866066826"><ele>16.0</ele><time>2026-04-19T10:54:05Z</time></trkpt><trkpt lat="38.940850243522995" lon="-9.41300243093414"><ele>15.999999999999998</ele><time>2026-04-19T10:54:06Z</time></trkpt><trkpt lat="38.94077993742071" lon="-9.412969894981542"><ele>16.0</ele><time>2026-04-19T10:54:07Z</time></trkpt><trkpt lat="38.94071057141352" lon="-9.412934896090846"><ele>15.600000000000001</ele><time>2026-04-19T10:54:08Z</time></trkpt><trkpt lat="38.94059247674893" lon="-9.412880464214709"><ele>15.200000000000001</ele><time>2026-04-19T10:54:10Z</time></trkpt><trkpt lat="38.940499879899676" lon="-9.41278967089243"><ele>14.799999999999999</ele><time>2026-04-19T10:54:12Z</time></trkpt><trkpt lat="38.94044128505621" lon="-9.412723242866269"><ele>14.399999999999999</ele><time>2026-04-19T10:54:13Z</time></trkpt><trkpt lat="38.940380857069286" lon="-9.412616610700747"><ele>14.0</ele><time>2026-04-19T10:54:14Z</time></trkpt><trkpt lat="38.940301503833716" lon="-9.412471755396677"><ele>14.0</ele><time>2026-04-19T10:54:15Z</time></trkpt><trkpt lat="38.940207509408474" lon="-9.412296494397994"><ele>14.0</ele><time>2026-04-19T10:54:16Z</time></trkpt><trkpt lat="38.940108021821736" lon="-9.412112951997523"><ele>14.0</ele><time>2026-04-19T10:54:17Z</time></trkpt><trkpt lat="38.93999613006428" lon="-9.411911068770149"><ele>13.333333333333334</ele><time>2026-04-19T10:54:18Z</time></trkpt><trkpt lat="38.93989700869251" lon="-9.411728930990026"><ele>12.666666666666668</ele><time>2026-04-19T10:54:19Z</time></trkpt><trkpt lat="38.939809633214594" lon="-9.411566666803308"><ele>12.0</ele><time>2026-04-19T10:54:20Z</time></trkpt><trkpt lat="38.93972203904759" lon="-9.41140222826002"><ele>13.25</ele><time>2026-04-19T10:54:21Z</time></trkpt><trkpt lat="38.93964387883489" lon="-9.411255499899394"><ele>14.5</ele><time>2026-04-19T10:54:22Z</time></trkpt><trkpt lat="38.93957277673395" lon="-9.41112063224502"><ele>15.75</ele><time>2026-04-19T10:54:23Z</time></trkpt><trkpt lat="38.9395063326028" lon="-9.410993979962488"><ele>17.0</ele><time>2026-04-19T10:54:24Z</time></trkpt><trkpt lat="38.93944735774465" lon="-9.410889997086214"><ele>17.0</ele><time>2026-04-19T10:54:25Z</time></trkpt><trkpt lat="38.93937657865424" lon="-9.41078833820279"><ele>17.0</ele><time>2026-04-19T10:54:26Z</time></trkpt><trkpt lat="38.93930623032585" lon="-9.410713475991194"><ele>17.0</ele><time>2026-04-19T10:54:27Z</time></trkpt><trkpt lat="38.93924212630099" lon="-9.410640901718521"><ele>17.0</ele><time>2026-04-19T10:54:28Z</time></trkpt><trkpt lat="38.939187765481" lon="-9.410571377211204"><ele>17.0</ele><time>2026-04-19T10:54:29Z</time></trkpt><trkpt lat="38.93913889796106" lon="-9.410499955721864"><ele>17.0</ele><time>2026-04-19T10:54:30Z</time></trkpt><trkpt lat="38.93912579410643" lon="-9.410381279154846"><ele>16.5</ele><time>2026-04-19T10:54:31Z</time></trkpt><trkpt lat="38.9391549977536" lon="-9.410226573948485"><ele>16.0</ele><time>2026-04-19T10:54:33Z</time></trkpt><trkpt lat="38.939228638095756" lon="-9.410205093710251"><ele>15.5</ele><time>2026-04-19T10:54:34Z</time></trkpt><trkpt lat="38.93929608966071" lon="-9.410210051280739"><ele>15.0</ele><time>2026-04-19T10:54:35Z</time></trkpt><trkpt lat="38.939361748230866" lon="-9.410215623063037"><ele>14.500000000000002</ele><time>2026-04-19T10:54:36Z</time></trkpt><trkpt lat="38.93941900997084" lon="-9.41027953634509"><ele>14.0</ele><time>2026-04-19T10:54:37Z</time></trkpt><trkpt lat="38.93950862725955" lon="-9.41021315875553"><ele>14.0</ele><time>2026-04-19T10:54:38Z</time></trkpt><trkpt lat="38.93963499954756" lon="-9.410023326463689"><ele>14.0</ele><time>2026-04-19T10:54:40Z</time></trkpt><trkpt lat="38.939564859867524" lon="-9.409542532035392"><ele>12.500000000000002</ele><time>2026-04-19T10:54:41Z</time></trkpt><trkpt lat="38.93961673490551" lon="-9.409447992346514"><ele>11.0</ele><time>2026-04-19T10:54:42Z</time></trkpt><trkpt lat="38.939652279580436" lon="-9.40936336201167"><ele>9.5</ele><time>2026-04-19T10:54:43Z</time></trkpt><trkpt lat="38.939731777957235" lon="-9.409302022968038"><ele>8.0</ele><time>2026-04-19T10:54:44Z</time></trkpt><trkpt lat="38.93981657939576" lon="-9.409266416612148"><ele>6.5</ele><time>2026-04-19T10:54:45Z</time></trkpt><trkpt lat="38.93987817864333" lon="-9.409231927787019"><ele>5.0</ele><time>2026-04-19T10:54:46Z</time></trkpt><trkpt lat="38.939962011060125" lon="-9.409158870351163"><ele>5.0</ele><time>2026-04-19T10:54:48Z</time></trkpt><trkpt lat="38.939981396547154" lon="-9.40907738998507"><ele>5.0</ele><time>2026-04-19T10:54:52Z</time></trkpt><trkpt lat="38.93992464268305" lon="-9.40901871047306"><ele>5.0</ele><time>2026-04-19T10:54:56Z</time></trkpt><trkpt lat="38.93988408041939" lon="-9.4089294774645"><ele>5.0</ele><time>2026-04-19T10:54:58Z</time></trkpt><trkpt lat="38.93985428522145" lon="-9.408835137333305"><ele>5.0</ele><time>2026-04-19T10:55:05Z</time></trkpt><trkpt lat="38.939881316631094" lon="-9.408924557004198"><ele>5.0</ele><time>2026-04-19T10:55:14Z</time></trkpt><trkpt lat="38.93984166287333" lon="-9.408835616039877"><ele>5.0</ele><time>2026-04-19T10:55:16Z</time></trkpt><trkpt lat="38.939818734048934" lon="-9.408937050680127"><ele>5.0</ele><time>2026-04-19T10:55:19Z</time></trkpt><trkpt lat="38.93979139497119" lon="-9.408855271367145"><ele>5.0</ele><time>2026-04-19T10:55:33Z</time></trkpt><trkpt lat="38.93985121569784" lon="-9.4088019833637"><ele>5.0</ele><time>2026-04-19T10:55:40Z</time></trkpt><trkpt lat="38.939902266819146" lon="-9.408856938103424"><ele>5.0</ele><time>2026-04-19T10:55:46Z</time></trkpt><trkpt lat="38.9399771403224" lon="-9.408925916647592"><ele>5.0</ele><time>2026-04-19T10:55:48Z</time></trkpt><trkpt lat="38.940004250616624" lon="-9.409016235274946"><ele>5.0</ele><time>2026-04-19T10:55:50Z</time></trkpt><trkpt lat="38.93994084709252" lon="-9.408974514259961"><ele>5.0</ele><time>2026-04-19T10:55:52Z</time></trkpt><trkpt lat="38.940025740628926" lon="-9.409046026930614"><ele>5.0</ele><time>2026-04-19T10:55:55Z</time></trkpt><trkpt lat="38.93996279362028" lon="-9.409040320396608"><ele>5.0</ele><time>2026-04-19T10:56:01Z</time></trkpt><trkpt lat="38.9399310595291" lon="-9.408946483614832"><ele>5.0</ele><time>2026-04-19T10:56:03Z</time></trkpt><trkpt lat="38.939885723090555" lon="-9.409007315954169"><ele>5.0</ele><time>2026-04-19T10:56:16Z</time></trkpt><trkpt lat="38.939917607855016" lon="-9.408933274653647"><ele>5.0</ele><time>2026-04-19T10:56:57Z</time></trkpt><trkpt lat="38.93997058433761" lon="-9.408996818795597"><ele>5.0</ele><time>2026-04-19T10:57:06Z</time></trkpt><trkpt lat="38.93995026343187" lon="-9.40890291734151"><ele>5.0</ele><time>2026-04-19T10:57:11Z</time></trkpt><trkpt lat="38.939881267179274" lon="-9.40883127015795"><ele>5.0</ele><time>2026-04-19T10:57:17Z</time></trkpt><trkpt lat="38.93992763224085" lon="-9.408913139452526"><ele>5.0</ele><time>2026-04-19T10:57:20Z</time></trkpt><trkpt lat="38.93991321434648" lon="-9.409006891034863"><ele>5.0</ele><time>2026-04-19T10:57:22Z</time></trkpt><trkpt lat="38.939841911892614" lon="-9.40896668921681"><ele>5.0</ele><time>2026-04-19T10:57:28Z</time></trkpt><trkpt lat="38.93988142893547" lon="-9.409047502965073"><ele>5.0</ele><time>2026-04-19T10:57:43Z</time></trkpt><trkpt lat="38.93984715962463" lon="-9.409129365209242"><ele>5.0</ele><time>2026-04-19T10:57:45Z</time></trkpt><trkpt lat="38.9398551676187" lon="-9.409048256576236"><ele>5.0</ele><time>2026-04-19T10:57:54Z</time></trkpt><trkpt lat="38.93982643443661" lon="-9.409124587728254"><ele>5.0</ele><time>2026-04-19T11:00:47Z</time></trkpt><trkpt lat="38.93978882093842" lon="-9.409257519535206"><ele>5.0</ele><time>2026-04-19T11:00:49Z</time></trkpt><trkpt lat="38.93973133216922" lon="-9.409321186358738"><ele>5.0</ele><time>2026-04-19T11:00:50Z</time></trkpt><trkpt lat="38.939688385617366" lon="-9.409388874152429"><ele>5.0</ele><time>2026-04-19T11:00:51Z</time></trkpt><trkpt lat="38.939604898869156" lon="-9.40942232779111"><ele>5.0</ele><time>2026-04-19T11:00:52Z</time></trkpt><trkpt lat="38.93954538200679" lon="-9.409495316430979"><ele>5.0</ele><time>2026-04-19T11:00:53Z</time></trkpt><trkpt lat="38.939509290093966" lon="-9.409585810918232"><ele>5.0</ele><time>2026-04-19T11:00:54Z</time></trkpt><trkpt lat="38.939434226134416" lon="-9.409731920903948"><ele>5.0</ele><time>2026-04-19T11:00:56Z</time></trkpt><trkpt lat="38.93940548590476" lon="-9.409805533137904"><ele>5.0</ele><time>2026-04-19T11:00:57Z</time></trkpt><trkpt lat="38.93937888033651" lon="-9.409971860177166"><ele>5.666666666666667</ele><time>2026-04-19T11:00:59Z</time></trkpt><trkpt lat="38.93932021755502" lon="-9.410049051573997"><ele>6.333333333333334</ele><time>2026-04-19T11:01:00Z</time></trkpt><trkpt lat="38.93925274741248" lon="-9.410085307841738"><ele>7.0</ele><time>2026-04-19T11:01:01Z</time></trkpt><trkpt lat="38.939212559724865" lon="-9.410151007676037"><ele>7.666666666666667</ele><time>2026-04-19T11:01:02Z</time></trkpt><trkpt lat="38.93925229206609" lon="-9.410274995037874"><ele>8.333333333333334</ele><time>2026-04-19T11:01:03Z</time></trkpt><trkpt lat="38.939197087952586" lon="-9.410360767236355"><ele>9.0</ele><time>2026-04-19T11:01:05Z</time></trkpt><trkpt lat="38.939182530598195" lon="-9.410445816950638"><ele>8.6</ele><time>2026-04-19T11:01:06Z</time></trkpt><trkpt lat="38.93920680378405" lon="-9.41053289266097"><ele>8.2</ele><time>2026-04-19T11:01:07Z</time></trkpt><trkpt lat="38.93924340272669" lon="-9.410641363535102"><ele>7.799999999999999</ele><time>2026-04-19T11:01:08Z</time></trkpt><trkpt lat="38.93932830512409" lon="-9.410708628883961"><ele>7.3999999999999995</ele><time>2026-04-19T11:01:09Z</time></trkpt><trkpt lat="38.93940883639506" lon="-9.410791180836895"><ele>7.0</ele><time>2026-04-19T11:01:10Z</time></trkpt><trkpt lat="38.93947826131701" lon="-9.410894857909163"><ele>8.25</ele><time>2026-04-19T11:01:11Z</time></trkpt><trkpt lat="38.93955177222045" lon="-9.410993658747454"><ele>9.5</ele><time>2026-04-19T11:01:12Z</time></trkpt><trkpt lat="38.939621231948465" lon="-9.411131948590869"><ele>10.75</ele><time>2026-04-19T11:01:13Z</time></trkpt><trkpt lat="38.93970452796413" lon="-9.411268881152631"><ele>12.0</ele><time>2026-04-19T11:01:14Z</time></trkpt><trkpt lat="38.939793256592694" lon="-9.41142389997009"><ele>12.0</ele><time>2026-04-19T11:01:15Z</time></trkpt><trkpt lat="38.9398835249589" lon="-9.411575358624393"><ele>12.0</ele><time>2026-04-19T11:01:16Z</time></trkpt><trkpt lat="38.939974441519624" lon="-9.41173333669398"><ele>12.0</ele><time>2026-04-19T11:01:17Z</time></trkpt><trkpt lat="38.94006212548625" lon="-9.411892048228616"><ele>12.5</ele><time>2026-04-19T11:01:18Z</time></trkpt><trkpt lat="38.940149106222016" lon="-9.412040196999563"><ele>13.0</ele><time>2026-04-19T11:01:19Z</time></trkpt><trkpt lat="38.940206821136016" lon="-9.412182128364416"><ele>13.5</ele><time>2026-04-19T11:01:20Z</time></trkpt><trkpt lat="38.940267875043176" lon="-9.412295968843235"><ele>14.0</ele><time>2026-04-19T11:01:21Z</time></trkpt><trkpt lat="38.94032918710697" lon="-9.412389708786083"><ele>14.0</ele><time>2026-04-19T11:01:22Z</time></trkpt><trkpt lat="38.94038484098404" lon="-9.41250612343223"><ele>14.0</ele><time>2026-04-19T11:01:23Z</time></trkpt><trkpt lat="38.94044743562318" lon="-9.412631659472122"><ele>14.0</ele><time>2026-04-19T11:01:24Z</time></trkpt><trkpt lat="38.94051537061202" lon="-9.412756110998549"><ele>14.0</ele><time>2026-04-19T11:01:25Z</time></trkpt><trkpt lat="38.940605771724314" lon="-9.412858435251158"><ele>14.0</ele><time>2026-04-19T11:01:26Z</time></trkpt><trkpt lat="38.94074009222868" lon="-9.412910156788028"><ele>14.0</ele><time>2026-04-19T11:01:27Z</time></trkpt><trkpt lat="38.94087625853783" lon="-9.412944655700963"><ele>14.0</ele><time>2026-04-19T11:01:28Z</time></trkpt><trkpt lat="38.940982978543325" lon="-9.412950860895755"><ele>14.0</ele><time>2026-04-19T11:01:29Z</time></trkpt><trkpt lat="38.94107584318522" lon="-9.412908171158875"><ele>14.5</ele><time>2026-04-19T11:01:30Z</time></trkpt><trkpt lat="38.94115785278625" lon="-9.412817359020332"><ele>15.0</ele><time>2026-04-19T11:01:31Z</time></trkpt><trkpt lat="38.941266189967045" lon="-9.412733059094824"><ele>15.5</ele><time>2026-04-19T11:01:32Z</time></trkpt><trkpt lat="38.94138086689164" lon="-9.412657372246015"><ele>16.0</ele><time>2026-04-19T11:01:33Z</time></trkpt><trkpt lat="38.94150211975968" lon="-9.412561578877957"><ele>16.0</ele><time>2026-04-19T11:01:34Z</time></trkpt><trkpt lat="38.941626674139364" lon="-9.412460967708093"><ele>16.0</ele><time>2026-04-19T11:01:35Z</time></trkpt><trkpt lat="38.94175831626029" lon="-9.412357054159951"><ele>16.0</ele><time>2026-04-19T11:01:36Z</time></trkpt><trkpt lat="38.94189626231658" lon="-9.41224741968132"><ele>19.333333333333332</ele><time>2026-04-19T11:01:37Z</time></trkpt><trkpt lat="38.942031631233796" lon="-9.41213803420088"><ele>22.666666666666664</ele><time>2026-04-19T11:01:38Z</time></trkpt><trkpt lat="38.94217831595881" lon="-9.412017534619133"><ele>26.0</ele><time>2026-04-19T11:01:39Z</time></trkpt><trkpt lat="38.94232251410432" lon="-9.411909297511258"><ele>26.0</ele><time>2026-04-19T11:01:40Z</time></trkpt><trkpt lat="38.94246656780868" lon="-9.411836579268854"><ele>26.0</ele><time>2026-04-19T11:01:41Z</time></trkpt><trkpt lat="38.94262254171531" lon="-9.411791183417131"><ele>26.0</ele><time>2026-04-19T11:01:42Z</time></trkpt><trkpt lat="38.942783662899" lon="-9.411787572789345"><ele>29.25</ele><time>2026-04-19T11:01:43Z</time></trkpt><trkpt lat="38.942942000258235" lon="-9.411819198413374"><ele>32.5</ele><time>2026-04-19T11:01:44Z</time></trkpt><trkpt lat="38.94308248242713" lon="-9.41183033413635"><ele>35.75</ele><time>2026-04-19T11:01:45Z</time></trkpt><trkpt lat="38.94322403160864" lon="-9.411837314775108"><ele>39.0</ele><time>2026-04-19T11:01:46Z</time></trkpt><trkpt lat="38.94334928371155" lon="-9.41184040063671"><ele>40.6</ele><time>2026-04-19T11:01:47Z</time></trkpt><trkpt lat="38.94345406682429" lon="-9.411846459266231"><ele>42.2</ele><time>2026-04-19T11:01:48Z</time></trkpt><trkpt lat="38.943541330914705" lon="-9.411866674953215"><ele>43.800000000000004</ele><time>2026-04-19T11:01:49Z</time></trkpt><trkpt lat="38.943606020888986" lon="-9.41189371905961"><ele>45.4</ele><time>2026-04-19T11:01:50Z</time></trkpt><trkpt lat="38.943687551372406" lon="-9.411837960804245"><ele>47.0</ele><time>2026-04-19T11:01:52Z</time></trkpt><trkpt lat="38.943473876518226" lon="-9.411821949603269"><ele>45.0</ele><time>2026-04-19T11:01:56Z</time></trkpt><trkpt lat="38.94335427190111" lon="-9.411800781862915"><ele>43.0</ele><time>2026-04-19T11:01:57Z</time></trkpt><trkpt lat="38.94324433572605" lon="-9.411779691741062"><ele>41.0</ele><time>2026-04-19T11:01:58Z</time></trkpt><trkpt lat="38.94311834542618" lon="-9.411732515680407"><ele>39.0</ele><time>2026-04-19T11:01:59Z</time></trkpt><trkpt lat="38.943013996948864" lon="-9.411643592726184"><ele>39.0</ele><time>2026-04-19T11:02:00Z</time></trkpt><trkpt lat="38.942965033418794" lon="-9.411511722242759"><ele>39.0</ele><time>2026-04-19T11:02:01Z</time></trkpt><trkpt lat="38.94296402493888" lon="-9.411371511038105"><ele>39.0</ele><time>2026-04-19T11:02:02Z</time></trkpt><trkpt lat="38.94298978727561" lon="-9.411238297895265"><ele>39.0</ele><time>2026-04-19T11:02:03Z</time></trkpt><trkpt lat="38.943032495480644" lon="-9.411121688734905"><ele>39.0</ele><time>2026-04-19T11:02:04Z</time></trkpt><trkpt lat="38.94313212583486" lon="-9.411006851525755"><ele>37.666666666666664</ele><time>2026-04-19T11:02:05Z</time></trkpt><trkpt lat="38.94322962822533" lon="-9.410890714305571"><ele>36.33333333333333</ele><time>2026-04-19T11:02:06Z</time></trkpt><trkpt lat="38.94335756326384" lon="-9.410743219033874"><ele>35.0</ele><time>2026-04-19T11:02:07Z</time></trkpt><trkpt lat="38.94347100532155" lon="-9.410607716284556"><ele>35.75</ele><time>2026-04-19T11:02:08Z</time></trkpt><trkpt lat="38.943575967375196" lon="-9.410471592919066"><ele>36.5</ele><time>2026-04-19T11:02:09Z</time></trkpt><trkpt lat="38.94364252232908" lon="-9.410308158790235"><ele>37.25</ele><time>2026-04-19T11:02:10Z</time></trkpt><trkpt lat="38.94370444940341" lon="-9.410142994643087"><ele>38.0</ele><time>2026-04-19T11:02:11Z</time></trkpt><trkpt lat="38.94376132477633" lon="-9.410000559290578"><ele>38.0</ele><time>2026-04-19T11:02:12Z</time></trkpt><trkpt lat="38.94381824822266" lon="-9.409887267900451"><ele>38.0</ele><time>2026-04-19T11:02:13Z</time></trkpt><trkpt lat="38.943903119539236" lon="-9.40978218737102"><ele>38.0</ele><time>2026-04-19T11:02:14Z</time></trkpt><trkpt lat="38.94399817423285" lon="-9.409727817675192"><ele>38.0</ele><time>2026-04-19T11:02:15Z</time></trkpt><trkpt lat="38.94409899068733" lon="-9.409705331435925"><ele>38.0</ele><time>2026-04-19T11:02:16Z</time></trkpt><trkpt lat="38.94419259394956" lon="-9.40970162530568"><ele>39.666666666666664</ele><time>2026-04-19T11:02:17Z</time></trkpt><trkpt lat="38.94427341992137" lon="-9.40969745394522"><ele>41.33333333333333</ele><time>2026-04-19T11:02:18Z</time></trkpt><trkpt lat="38.94435189454392" lon="-9.409668044126642"><ele>43.0</ele><time>2026-04-19T11:02:19Z</time></trkpt><trkpt lat="38.94440050234082" lon="-9.409564701707051"><ele>44.666666666666664</ele><time>2026-04-19T11:02:20Z</time></trkpt><trkpt lat="38.944405560143316" lon="-9.409456144720325"><ele>46.333333333333336</ele><time>2026-04-19T11:02:21Z</time></trkpt><trkpt lat="38.944405328779716" lon="-9.40935377229272"><ele>48.0</ele><time>2026-04-19T11:02:22Z</time></trkpt><trkpt lat="38.94438852379234" lon="-9.409258278527354"><ele>48.0</ele><time>2026-04-19T11:02:23Z</time></trkpt><trkpt lat="38.94437381136988" lon="-9.409156722958842"><ele>48.0</ele><time>2026-04-19T11:02:24Z</time></trkpt><trkpt lat="38.944361544247506" lon="-9.40905343115582"><ele>48.0</ele><time>2026-04-19T11:02:25Z</time></trkpt><trkpt lat="38.94436420840252" lon="-9.408948116805501"><ele>48.0</ele><time>2026-04-19T11:02:26Z</time></trkpt><trkpt lat="38.94436590990661" lon="-9.408854725157681"><ele>48.0</ele><time>2026-04-19T11:02:27Z</time></trkpt><trkpt lat="38.9443852638624" lon="-9.408757386360515"><ele>48.0</ele><time>2026-04-19T11:02:28Z</time></trkpt><trkpt lat="38.94441996383532" lon="-9.408649699308329"><ele>44.8</ele><time>2026-04-19T11:02:29Z</time></trkpt><trkpt lat="38.94447277865221" lon="-9.408548444454956"><ele>41.599999999999994</ele><time>2026-04-19T11:02:30Z</time></trkpt><trkpt lat="38.944534781255975" lon="-9.408453379748392"><ele>38.400000000000006</ele><time>2026-04-19T11:02:31Z</time></trkpt><trkpt lat="38.944591035769875" lon="-9.408369559843969"><ele>35.2</ele><time>2026-04-19T11:02:32Z</time></trkpt><trkpt lat="38.94465211355403" lon="-9.408288796140504"><ele>32.0</ele><time>2026-04-19T11:02:33Z</time></trkpt><trkpt lat="38.9447275353989" lon="-9.408204246352076"><ele>31.999999999999996</ele><time>2026-04-19T11:02:34Z</time></trkpt><trkpt lat="38.94481406409168" lon="-9.408140560187553"><ele>32.0</ele><time>2026-04-19T11:02:35Z</time></trkpt><trkpt lat="38.94490360510765" lon="-9.408098548429013"><ele>32.0</ele><time>2026-04-19T11:02:36Z</time></trkpt><trkpt lat="38.94497883252773" lon="-9.40805586118727"><ele>32.0</ele><time>2026-04-19T11:02:37Z</time></trkpt><trkpt lat="38.94504886233002" lon="-9.408007486466339"><ele>31.999999999999996</ele><time>2026-04-19T11:02:38Z</time></trkpt><trkpt lat="38.945117657660376" lon="-9.407950004714419"><ele>32.0</ele><time>2026-04-19T11:02:39Z</time></trkpt><trkpt lat="38.945156540713334" lon="-9.407875265717019"><ele>29.5</ele><time>2026-04-19T11:02:40Z</time></trkpt><trkpt lat="38.94510337649571" lon="-9.407753133675529"><ele>27.0</ele><time>2026-04-19T11:02:42Z</time></trkpt><trkpt lat="38.94507264104666" lon="-9.407582483130044"><ele>24.5</ele><time>2026-04-19T11:02:44Z</time></trkpt><trkpt lat="38.94502963765355" lon="-9.407487872117793"><ele>22.0</ele><time>2026-04-19T11:02:45Z</time></trkpt><trkpt lat="38.94494749024504" lon="-9.407340475298788"><ele>22.0</ele><time>2026-04-19T11:02:46Z</time></trkpt><trkpt lat="38.94484515112792" lon="-9.407216156641779"><ele>22.0</ele><time>2026-04-19T11:02:47Z</time></trkpt><trkpt lat="38.94472258019546" lon="-9.407120141145596"><ele>22.0</ele><time>2026-04-19T11:02:48Z</time></trkpt><trkpt lat="38.94463901415574" lon="-9.407070536205847"><ele>22.0</ele><time>2026-04-19T11:02:49Z</time></trkpt><trkpt lat="38.94456791935414" lon="-9.407031730369324"><ele>21.400000000000002</ele><time>2026-04-19T11:02:50Z</time></trkpt><trkpt lat="38.94449783808846" lon="-9.406994526007727"><ele>20.8</ele><time>2026-04-19T11:02:51Z</time></trkpt><trkpt lat="38.94443329002107" lon="-9.406965311720057"><ele>20.2</ele><time>2026-04-19T11:02:53Z</time></trkpt><trkpt lat="38.94449884322647" lon="-9.406833455476141"><ele>19.6</ele><time>2026-04-19T11:02:55Z</time></trkpt><trkpt lat="38.944538092943475" lon="-9.406690862724028"><ele>19.0</ele><time>2026-04-19T11:02:56Z</time></trkpt><trkpt lat="38.94451817818659" lon="-9.40650988736142"><ele>19.0</ele><time>2026-04-19T11:02:57Z</time></trkpt><trkpt lat="38.94451103841637" lon="-9.406342384763493"><ele>19.0</ele><time>2026-04-19T11:02:58Z</time></trkpt><trkpt lat="38.94449705919479" lon="-9.406165071696957"><ele>19.0</ele><time>2026-04-19T11:02:59Z</time></trkpt><trkpt lat="38.944484629515266" lon="-9.405967043804411"><ele>19.0</ele><time>2026-04-19T11:03:00Z</time></trkpt><trkpt lat="38.94447551566847" lon="-9.405773412504548"><ele>17.0</ele><time>2026-04-19T11:03:01Z</time></trkpt><trkpt lat="38.94448657682104" lon="-9.405586175077516"><ele>15.0</ele><time>2026-04-19T11:03:02Z</time></trkpt><trkpt lat="38.94448937083782" lon="-9.405410263135204"><ele>13.0</ele><time>2026-04-19T11:03:03Z</time></trkpt><trkpt lat="38.94450825881901" lon="-9.40524211980986"><ele>11.0</ele><time>2026-04-19T11:03:04Z</time></trkpt><trkpt lat="38.94452348081266" lon="-9.405069524696454"><ele>9.75</ele><time>2026-04-19T11:03:05Z</time></trkpt><trkpt lat="38.94454410229247" lon="-9.404923172148246"><ele>8.5</ele><time>2026-04-19T11:03:06Z</time></trkpt><trkpt lat="38.94455318762185" lon="-9.404757604158576"><ele>7.25</ele><time>2026-04-19T11:03:07Z</time></trkpt><trkpt lat="38.9445328334082" lon="-9.404576139376791"><ele>6.0</ele><time>2026-04-19T11:03:08Z</time></trkpt><trkpt lat="38.944518695225895" lon="-9.40439454130637"><ele>6.0</ele><time>2026-04-19T11:03:09Z</time></trkpt><trkpt lat="38.94448467869751" lon="-9.404194429276421"><ele>6.0</ele><time>2026-04-19T11:03:10Z</time></trkpt><trkpt lat="38.94444084381116" lon="-9.404006008356612"><ele>6.0</ele><time>2026-04-19T11:03:11Z</time></trkpt><trkpt lat="38.944397575832255" lon="-9.403839990241439"><ele>6.0</ele><time>2026-04-19T11:03:12Z</time></trkpt><trkpt lat="38.94436039279047" lon="-9.403665345136398"><ele>5.75</ele><time>2026-04-19T11:03:13Z</time></trkpt><trkpt lat="38.94430887180784" lon="-9.403490562558718"><ele>5.5</ele><time>2026-04-19T11:03:14Z</time></trkpt><trkpt lat="38.94426832352382" lon="-9.403336208082331"><ele>5.25</ele><time>2026-04-19T11:03:15Z</time></trkpt><trkpt lat="38.94422587938782" lon="-9.40317123872219"><ele>5.0</ele><time>2026-04-19T11:03:16Z</time></trkpt><trkpt lat="38.94420133382908" lon="-9.40301297498507"><ele>5.25</ele><time>2026-04-19T11:03:17Z</time></trkpt><trkpt lat="38.94419693299231" lon="-9.402865735321093"><ele>5.5</ele><time>2026-04-19T11:03:18Z</time></trkpt><trkpt lat="38.94421095255315" lon="-9.402718328772995"><ele>5.75</ele><time>2026-04-19T11:03:19Z</time></trkpt><trkpt lat="38.94423383550896" lon="-9.402570768389419"><ele>6.0</ele><time>2026-04-19T11:03:20Z</time></trkpt><trkpt lat="38.9442891445342" lon="-9.402446861549159"><ele>6.0</ele><time>2026-04-19T11:03:21Z</time></trkpt><trkpt lat="38.944372434870274" lon="-9.402353287540986"><ele>6.0</ele><time>2026-04-19T11:03:22Z</time></trkpt><trkpt lat="38.9444758458542" lon="-9.402269693270668"><ele>6.0</ele><time>2026-04-19T11:03:23Z</time></trkpt><trkpt lat="38.94458578164976" lon="-9.402187263372284"><ele>6.0</ele><time>2026-04-19T11:03:24Z</time></trkpt><trkpt lat="38.94470041898523" lon="-9.402104565573"><ele>5.75</ele><time>2026-04-19T11:03:25Z</time></trkpt><trkpt lat="38.9448176503924" lon="-9.40203760618536"><ele>5.5</ele><time>2026-04-19T11:03:26Z</time></trkpt><trkpt lat="38.94494224533575" lon="-9.40196401838573"><ele>5.25</ele><time>2026-04-19T11:03:27Z</time></trkpt><trkpt lat="38.945066102575915" lon="-9.401891524373369"><ele>5.0</ele><time>2026-04-19T11:03:28Z</time></trkpt><trkpt lat="38.9451983163876" lon="-9.40182037439423"><ele>5.5</ele><time>2026-04-19T11:03:29Z</time></trkpt><trkpt lat="38.94532921675282" lon="-9.401743991188816"><ele>6.0</ele><time>2026-04-19T11:03:30Z</time></trkpt><trkpt lat="38.94546759859934" lon="-9.401669580864723"><ele>6.5</ele><time>2026-04-19T11:03:31Z</time></trkpt><trkpt lat="38.94560857606244" lon="-9.401596621685622"><ele>7.0</ele><time>2026-04-19T11:03:32Z</time></trkpt><trkpt lat="38.94574617195085" lon="-9.401526622113828"><ele>7.0</ele><time>2026-04-19T11:03:33Z</time></trkpt><trkpt lat="38.945887228078874" lon="-9.401458547176587"><ele>7.0</ele><time>2026-04-19T11:03:34Z</time></trkpt><trkpt lat="38.94602264418473" lon="-9.401391275934255"><ele>7.0</ele><time>2026-04-19T11:03:35Z</time></trkpt><trkpt lat="38.94614168988353" lon="-9.401316217111855"><ele>7.0</ele><time>2026-04-19T11:03:36Z</time></trkpt><trkpt lat="38.94625797953379" lon="-9.401267348610176"><ele>7.0</ele><time>2026-04-19T11:03:37Z</time></trkpt><trkpt lat="38.94635695160659" lon="-9.401221062696566"><ele>6.999999999999999</ele><time>2026-04-19T11:03:38Z</time></trkpt><trkpt lat="38.94645660783118" lon="-9.401184050391667"><ele>6.999999999999999</ele><time>2026-04-19T11:03:39Z</time></trkpt><trkpt lat="38.946557544703566" lon="-9.401161094121782"><ele>7.0</ele><time>2026-04-19T11:03:40Z</time></trkpt><trkpt lat="38.946666152366525" lon="-9.401126364123032"><ele>7.0</ele><time>2026-04-19T11:03:41Z</time></trkpt><trkpt lat="38.94676719220878" lon="-9.401061886853062"><ele>7.8</ele><time>2026-04-19T11:03:42Z</time></trkpt><trkpt lat="38.94685178562006" lon="-9.400977617476295"><ele>8.6</ele><time>2026-04-19T11:03:43Z</time></trkpt><trkpt lat="38.94693002808677" lon="-9.400883710164925"><ele>9.4</ele><time>2026-04-19T11:03:44Z</time></trkpt><trkpt lat="38.947017241125714" lon="-9.40078976801995"><ele>10.200000000000001</ele><time>2026-04-19T11:03:45Z</time></trkpt><trkpt lat="38.947103855723235" lon="-9.400688362374932"><ele>11.0</ele><time>2026-04-19T11:03:46Z</time></trkpt><trkpt lat="38.94719765085204" lon="-9.40059697728663"><ele>11.0</ele><time>2026-04-19T11:03:47Z</time></trkpt><trkpt lat="38.94730145739048" lon="-9.400523536607425"><ele>11.0</ele><time>2026-04-19T11:03:48Z</time></trkpt><trkpt lat="38.94738272994746" lon="-9.400453867608173"><ele>11.0</ele><time>2026-04-19T11:03:49Z</time></trkpt><trkpt lat="38.94745997931466" lon="-9.400423759052115"><ele>11.0</ele><time>2026-04-19T11:03:50Z</time></trkpt><trkpt lat="38.94752254834163" lon="-9.400400109511201"><ele>11.0</ele><time>2026-04-19T11:03:51Z</time></trkpt><trkpt lat="38.94759294206472" lon="-9.400430872811924"><ele>11.0</ele><time>2026-04-19T11:03:52Z</time></trkpt><trkpt lat="38.94763196245975" lon="-9.40050654917647"><ele>12.5</ele><time>2026-04-19T11:03:53Z</time></trkpt><trkpt lat="38.94767966809349" lon="-9.40055984943746"><ele>14.0</ele><time>2026-04-19T11:03:54Z</time></trkpt><trkpt lat="38.94773360310312" lon="-9.40064563299769"><ele>15.5</ele><time>2026-04-19T11:03:55Z</time></trkpt><trkpt lat="38.94780134139993" lon="-9.400720125438038"><ele>17.0</ele><time>2026-04-19T11:03:56Z</time></trkpt><trkpt lat="38.947864018033044" lon="-9.400767548892988"><ele>18.5</ele><time>2026-04-19T11:03:57Z</time></trkpt><trkpt lat="38.947925557829194" lon="-9.400807676117488"><ele>20.0</ele><time>2026-04-19T11:03:58Z</time></trkpt><trkpt lat="38.947988449568506" lon="-9.400878421266755"><ele>20.0</ele><time>2026-04-19T11:03:59Z</time></trkpt><trkpt lat="38.94815721516893" lon="-9.400768021125115"><ele>20.0</ele><time>2026-04-19T11:04:00Z</time></trkpt><trkpt lat="38.94823789079706" lon="-9.400836230321136"><ele>20.0</ele><time>2026-04-19T11:04:01Z</time></trkpt><trkpt lat="38.948322224873664" lon="-9.400906280908458"><ele>20.0</ele><time>2026-04-19T11:04:02Z</time></trkpt><trkpt lat="38.948404027198016" lon="-9.400974966550216"><ele>27.25</ele><time>2026-04-19T11:04:03Z</time></trkpt><trkpt lat="38.948483462666445" lon="-9.401041664252125"><ele>34.5</ele><time>2026-04-19T11:04:04Z</time></trkpt><trkpt lat="38.94854710237391" lon="-9.401095099096617"><ele>41.75</ele><time>2026-04-19T11:04:05Z</time></trkpt><trkpt lat="38.94844678482332" lon="-9.40090160571277"><ele>49.0</ele><time>2026-04-19T11:04:09Z</time></trkpt><trkpt lat="38.948387993215356" lon="-9.400771827705197"><ele>44.5</ele><time>2026-04-19T11:04:10Z</time></trkpt><trkpt lat="38.94836840328833" lon="-9.400605193037109"><ele>40.0</ele><time>2026-04-19T11:04:11Z</time></trkpt><trkpt lat="38.94836219505264" lon="-9.400449459946758"><ele>35.5</ele><time>2026-04-19T11:04:12Z</time></trkpt><trkpt lat="38.9483705909525" lon="-9.40029195817277"><ele>31.0</ele><time>2026-04-19T11:04:13Z</time></trkpt><trkpt lat="38.94837656377984" lon="-9.400160803818528"><ele>31.0</ele><time>2026-04-19T11:04:14Z</time></trkpt><trkpt lat="38.948447815577225" lon="-9.400065850416937"><ele>31.0</ele><time>2026-04-19T11:04:15Z</time></trkpt><trkpt lat="38.948495812964296" lon="-9.399968239155609"><ele>31.0</ele><time>2026-04-19T11:04:16Z</time></trkpt><trkpt lat="38.9486889090466" lon="-9.399879263324518"><ele>31.0</ele><time>2026-04-19T11:04:17Z</time></trkpt><trkpt lat="38.948826051296905" lon="-9.39979479779167"><ele>31.0</ele><time>2026-04-19T11:04:18Z</time></trkpt><trkpt lat="38.9490199524001" lon="-9.399712570297881"><ele>31.0</ele><time>2026-04-19T11:04:19Z</time></trkpt><trkpt lat="38.94920817503345" lon="-9.399644865344847"><ele>31.0</ele><time>2026-04-19T11:04:20Z</time></trkpt><trkpt lat="38.949413814555236" lon="-9.399577259182793"><ele>29.0</ele><time>2026-04-19T11:04:21Z</time></trkpt><trkpt lat="38.94957938189033" lon="-9.39948927796595"><ele>27.0</ele><time>2026-04-19T11:04:22Z</time></trkpt><trkpt lat="38.949693071050945" lon="-9.399345700679836"><ele>25.0</ele><time>2026-04-19T11:04:23Z</time></trkpt><trkpt lat="38.94981246770503" lon="-9.399210407361537"><ele>25.0</ele><time>2026-04-19T11:04:24Z</time></trkpt><trkpt lat="38.949891721053866" lon="-9.399090811380193"><ele>25.0</ele><time>2026-04-19T11:04:25Z</time></trkpt><trkpt lat="38.949921784191154" lon="-9.398990012338956"><ele>25.0</ele><time>2026-04-19T11:04:26Z</time></trkpt><trkpt lat="38.949900449985975" lon="-9.398844757022912"><ele>25.0</ele><time>2026-04-19T11:04:27Z</time></trkpt><trkpt lat="38.94992893183542" lon="-9.39869237227818"><ele>25.0</ele><time>2026-04-19T11:04:28Z</time></trkpt><trkpt lat="38.9499896660625" lon="-9.39849587609275"><ele>32.66666666666667</ele><time>2026-04-19T11:04:29Z</time></trkpt><trkpt lat="38.95004515167971" lon="-9.398289103911084"><ele>40.333333333333336</ele><time>2026-04-19T11:04:30Z</time></trkpt><trkpt lat="38.95009167269603" lon="-9.39802286858106"><ele>48.0</ele><time>2026-04-19T11:04:31Z</time></trkpt><trkpt lat="38.95013287919346" lon="-9.397800509981712"><ele>48.0</ele><time>2026-04-19T11:04:32Z</time></trkpt><trkpt lat="38.950173770634805" lon="-9.397599253991665"><ele>48.0</ele><time>2026-04-19T11:04:33Z</time></trkpt><trkpt lat="38.95021545592874" lon="-9.3974036794009"><ele>48.0</ele><time>2026-04-19T11:04:34Z</time></trkpt><trkpt lat="38.95025407360551" lon="-9.397231088170741"><ele>43.0</ele><time>2026-04-19T11:04:35Z</time></trkpt><trkpt lat="38.950288314172745" lon="-9.397089755783812"><ele>38.0</ele><time>2026-04-19T11:04:36Z</time></trkpt><trkpt lat="38.950349080194925" lon="-9.39697852532233"><ele>33.0</ele><time>2026-04-19T11:04:37Z</time></trkpt><trkpt lat="38.950398398885724" lon="-9.396866349055209"><ele>28.0</ele><time>2026-04-19T11:04:38Z</time></trkpt><trkpt lat="38.95044701773353" lon="-9.396755764505807"><ele>23.0</ele><time>2026-04-19T11:04:39Z</time></trkpt><trkpt lat="38.95049892737644" lon="-9.396637694965484"><ele>23.0</ele><time>2026-04-19T11:04:40Z</time></trkpt><trkpt lat="38.950452703968914" lon="-9.39646822535445"><ele>23.0</ele><time>2026-04-19T11:04:41Z</time></trkpt><trkpt lat="38.950450391255195" lon="-9.396359336199561"><ele>23.0</ele><time>2026-04-19T11:04:42Z</time></trkpt><trkpt lat="38.95044213477753" lon="-9.39626632463184"><ele>23.0</ele><time>2026-04-19T11:04:43Z</time></trkpt><trkpt lat="38.950437989233514" lon="-9.39615611422374"><ele>23.0</ele><time>2026-04-19T11:04:44Z</time></trkpt><trkpt lat="38.95043622996881" lon="-9.396021876633528"><ele>22.833333333333336</ele><time>2026-04-19T11:04:45Z</time></trkpt><trkpt lat="38.95042839462042" lon="-9.395921142649375"><ele>22.666666666666668</ele><time>2026-04-19T11:04:46Z</time></trkpt><trkpt lat="38.950419692205955" lon="-9.39582493615771"><ele>22.5</ele><time>2026-04-19T11:04:47Z</time></trkpt><trkpt lat="38.95041182188408" lon="-9.395740156095002"><ele>22.333333333333332</ele><time>2026-04-19T11:04:48Z</time></trkpt><trkpt lat="38.95041233814966" lon="-9.395654636577609"><ele>22.166666666666664</ele><time>2026-04-19T11:04:49Z</time></trkpt><trkpt lat="38.95036979254313" lon="-9.39551017673212"><ele>22.0</ele><time>2026-04-19T11:04:51Z</time></trkpt><trkpt lat="38.950285197498175" lon="-9.395466874540087"><ele>24.333333333333332</ele><time>2026-04-19T11:04:52Z</time></trkpt><trkpt lat="38.95025470116368" lon="-9.395381849998568"><ele>26.666666666666664</ele><time>2026-04-19T11:04:53Z</time></trkpt><trkpt lat="38.9502304283478" lon="-9.395294189210938"><ele>29.0</ele><time>2026-04-19T11:04:54Z</time></trkpt><trkpt lat="38.950205415651915" lon="-9.395198184575642"><ele>31.333333333333332</ele><time>2026-04-19T11:04:55Z</time></trkpt><trkpt lat="38.95016973328687" lon="-9.395078897465261"><ele>33.666666666666664</ele><time>2026-04-19T11:04:56Z</time></trkpt><trkpt lat="38.950118449412514" lon="-9.394972414095703"><ele>36.0</ele><time>2026-04-19T11:04:57Z</time></trkpt><trkpt lat="38.95008767285062" lon="-9.394869501640596"><ele>36.0</ele><time>2026-04-19T11:04:58Z</time></trkpt><trkpt lat="38.950057445696494" lon="-9.394763425899932"><ele>36.0</ele><time>2026-04-19T11:04:59Z</time></trkpt><trkpt lat="38.95003198686227" lon="-9.394672700871595"><ele>36.0</ele><time>2026-04-19T11:05:00Z</time></trkpt><trkpt lat="38.94999257776831" lon="-9.394592713424803"><ele>36.0</ele><time>2026-04-19T11:05:02Z</time></trkpt><trkpt lat="38.94985771102384" lon="-9.394661258426899"><ele>36.0</ele><time>2026-04-19T11:05:04Z</time></trkpt><trkpt lat="38.94976294187893" lon="-9.394704115477566"><ele>30.8</ele><time>2026-04-19T11:05:05Z</time></trkpt><trkpt lat="38.949690411153064" lon="-9.394736311136917"><ele>25.6</ele><time>2026-04-19T11:05:06Z</time></trkpt><trkpt lat="38.94966926299387" lon="-9.394532293316356"><ele>20.4</ele><time>2026-04-19T11:05:10Z</time></trkpt><trkpt lat="38.9496624033104" lon="-9.394444853175296"><ele>15.2</ele><time>2026-04-19T11:05:11Z</time></trkpt><trkpt lat="38.949655205970565" lon="-9.394353006213723"><ele>10.0</ele><time>2026-04-19T11:05:12Z</time></trkpt><trkpt lat="38.94962448206184" lon="-9.39424886420348"><ele>10.0</ele><time>2026-04-19T11:05:13Z</time></trkpt><trkpt lat="38.94958271603562" lon="-9.394101703752401"><ele>10.0</ele><time>2026-04-19T11:05:14Z</time></trkpt><trkpt lat="38.9495320973563" lon="-9.393971748357902"><ele>10.0</ele><time>2026-04-19T11:05:15Z</time></trkpt><trkpt lat="38.94944855342951" lon="-9.393851951642873"><ele>10.0</ele><time>2026-04-19T11:05:16Z</time></trkpt><trkpt lat="38.94936620201403" lon="-9.39374223217555"><ele>9.25</ele><time>2026-04-19T11:05:17Z</time></trkpt><trkpt lat="38.94928919005454" lon="-9.393637235948894"><ele>8.5</ele><time>2026-04-19T11:05:18Z</time></trkpt><trkpt lat="38.949208732026136" lon="-9.393540420279027"><ele>7.75</ele><time>2026-04-19T11:05:19Z</time></trkpt><trkpt lat="38.949119149572006" lon="-9.393420891409303"><ele>7.0</ele><time>2026-04-19T11:05:20Z</time></trkpt><trkpt lat="38.94903674525223" lon="-9.393284030321194"><ele>6.75</ele><time>2026-04-19T11:05:21Z</time></trkpt><trkpt lat="38.94895793871453" lon="-9.393158669183014"><ele>6.5</ele><time>2026-04-19T11:05:22Z</time></trkpt><trkpt lat="38.94888559625208" lon="-9.393030017429087"><ele>6.25</ele><time>2026-04-19T11:05:23Z</time></trkpt><trkpt lat="38.94880958925501" lon="-9.392873632280045"><ele>6.0</ele><time>2026-04-19T11:05:24Z</time></trkpt><trkpt lat="38.94873241532685" lon="-9.392726881087862"><ele>6.0</ele><time>2026-04-19T11:05:25Z</time></trkpt><trkpt lat="38.9486471860335" lon="-9.392600644768207"><ele>6.0</ele><time>2026-04-19T11:05:26Z</time></trkpt><trkpt lat="38.94858366900696" lon="-9.392470816856067"><ele>6.0</ele><time>2026-04-19T11:05:27Z</time></trkpt><trkpt lat="38.94854617235465" lon="-9.392354540126272"><ele>6.0</ele><time>2026-04-19T11:05:28Z</time></trkpt><trkpt lat="38.948475714006925" lon="-9.39222608644359"><ele>6.6</ele><time>2026-04-19T11:05:29Z</time></trkpt><trkpt lat="38.94842167604747" lon="-9.392103303209563"><ele>7.199999999999999</ele><time>2026-04-19T11:05:30Z</time></trkpt><trkpt lat="38.94835683468649" lon="-9.391986895613298"><ele>7.800000000000001</ele><time>2026-04-19T11:05:31Z</time></trkpt><trkpt lat="38.94829122798779" lon="-9.391884747285852"><ele>8.4</ele><time>2026-04-19T11:05:32Z</time></trkpt><trkpt lat="38.94823591732104" lon="-9.391749602340434"><ele>9.0</ele><time>2026-04-19T11:05:33Z</time></trkpt><trkpt lat="38.94818840576833" lon="-9.391645975151423"><ele>9.0</ele><time>2026-04-19T11:05:34Z</time></trkpt><trkpt lat="38.94814246521426" lon="-9.39155376624047"><ele>9.0</ele><time>2026-04-19T11:05:35Z</time></trkpt><trkpt lat="38.9480952194659" lon="-9.391418112904837"><ele>9.0</ele><time>2026-04-19T11:05:36Z</time></trkpt><trkpt lat="38.948075228236014" lon="-9.391247372000167"><ele>9.0</ele><time>2026-04-19T11:05:37Z</time></trkpt><trkpt lat="38.948060525801054" lon="-9.391100214122726"><ele>10.4</ele><time>2026-04-19T11:05:38Z</time></trkpt><trkpt lat="38.948040461739794" lon="-9.39096976305277"><ele>11.8</ele><time>2026-04-19T11:05:39Z</time></trkpt><trkpt lat="38.94800237385731" lon="-9.390839266821184"><ele>13.200000000000001</ele><time>2026-04-19T11:05:40Z</time></trkpt><trkpt lat="38.94795069607426" lon="-9.39072009912209"><ele>14.600000000000001</ele><time>2026-04-19T11:05:41Z</time></trkpt><trkpt lat="38.94789215575455" lon="-9.390613573708459"><ele>16.0</ele><time>2026-04-19T11:05:42Z</time></trkpt><trkpt lat="38.947804481926866" lon="-9.390533875606923"><ele>16.0</ele><time>2026-04-19T11:05:43Z</time></trkpt><trkpt lat="38.94772192763546" lon="-9.390511659440476"><ele>16.0</ele><time>2026-04-19T11:05:44Z</time></trkpt><trkpt lat="38.947627274353295" lon="-9.390512562968917"><ele>16.0</ele><time>2026-04-19T11:05:45Z</time></trkpt><trkpt lat="38.947524335193116" lon="-9.39052086709044"><ele>16.0</ele><time>2026-04-19T11:05:46Z</time></trkpt><trkpt lat="38.94741905467271" lon="-9.390548088304545"><ele>16.0</ele><time>2026-04-19T11:05:47Z</time></trkpt><trkpt lat="38.94733882938279" lon="-9.390603947633043"><ele>14.0</ele><time>2026-04-19T11:05:48Z</time></trkpt><trkpt lat="38.947272295527554" lon="-9.390705768133692"><ele>12.000000000000002</ele><time>2026-04-19T11:05:49Z</time></trkpt><trkpt lat="38.94720769264286" lon="-9.39081270574719"><ele>10.0</ele><time>2026-04-19T11:05:50Z</time></trkpt><trkpt lat="38.94713663563754" lon="-9.39092729768182"><ele>8.0</ele><time>2026-04-19T11:05:51Z</time></trkpt><trkpt lat="38.947042770316926" lon="-9.391029780482784"><ele>6.0</ele><time>2026-04-19T11:05:52Z</time></trkpt><trkpt lat="38.94694530885821" lon="-9.391120673542352"><ele>6.0</ele><time>2026-04-19T11:05:53Z</time></trkpt><trkpt lat="38.94684722080713" lon="-9.39120682093383"><ele>6.0</ele><time>2026-04-19T11:05:54Z</time></trkpt><trkpt lat="38.946734172154024" lon="-9.391247416675526"><ele>6.0</ele><time>2026-04-19T11:05:55Z</time></trkpt><trkpt lat="38.94659520540822" lon="-9.391255032123487"><ele>6.0</ele><time>2026-04-19T11:05:56Z</time></trkpt><trkpt lat="38.94647940165347" lon="-9.391247079263144"><ele>6.0</ele><time>2026-04-19T11:05:57Z</time></trkpt><trkpt lat="38.94636473532782" lon="-9.391236079764749"><ele>6.0</ele><time>2026-04-19T11:05:58Z</time></trkpt><trkpt lat="38.94625393029996" lon="-9.39122855493875"><ele>6.0</ele><time>2026-04-19T11:05:59Z</time></trkpt><trkpt lat="38.94614111976588" lon="-9.391222624549288"><ele>6.0</ele><time>2026-04-19T11:06:00Z</time></trkpt><trkpt lat="38.94603327358736" lon="-9.391224484847276"><ele>6.0</ele><time>2026-04-19T11:06:01Z</time></trkpt><trkpt lat="38.94593436258121" lon="-9.39121248960318"><ele>6.0</ele><time>2026-04-19T11:06:02Z</time></trkpt><trkpt lat="38.94583816306874" lon="-9.391227087093078"><ele>6.0</ele><time>2026-04-19T11:06:03Z</time></trkpt><trkpt lat="38.94575923622109" lon="-9.391214676571062"><ele>6.0</ele><time>2026-04-19T11:06:04Z</time></trkpt><trkpt lat="38.9456959220364" lon="-9.391189150675643"><ele>6.0</ele><time>2026-04-19T11:06:05Z</time></trkpt><trkpt lat="38.94562429635376" lon="-9.391198267309939"><ele>6.0</ele><time>2026-04-19T11:06:06Z</time></trkpt><trkpt lat="38.94554928809433" lon="-9.39118668895305"><ele>6.0</ele><time>2026-04-19T11:06:07Z</time></trkpt><trkpt lat="38.94547849496035" lon="-9.391182583945898"><ele>6.0</ele><time>2026-04-19T11:06:08Z</time></trkpt><trkpt lat="38.94540966098855" lon="-9.39116689685147"><ele>6.0</ele><time>2026-04-19T11:06:09Z</time></trkpt><trkpt lat="38.94528503607552" lon="-9.391157651430985"><ele>6.0</ele><time>2026-04-19T11:06:11Z</time></trkpt><trkpt lat="38.945176718967446" lon="-9.391197575346972"><ele>6.0</ele><time>2026-04-19T11:06:13Z</time></trkpt><trkpt lat="38.94504430997026" lon="-9.391240925771992"><ele>6.0</ele><time>2026-04-19T11:06:15Z</time></trkpt><trkpt lat="38.9449529243855" lon="-9.39120307105104"><ele>6.333333333333333</ele><time>2026-04-19T11:06:16Z</time></trkpt><trkpt lat="38.944871165881075" lon="-9.391184468600114"><ele>6.666666666666666</ele><time>2026-04-19T11:06:17Z</time></trkpt><trkpt lat="38.94478993556575" lon="-9.391154569789643"><ele>7.0</ele><time>2026-04-19T11:06:18Z</time></trkpt><trkpt lat="38.944710235258285" lon="-9.391117440086745"><ele>7.333333333333333</ele><time>2026-04-19T11:06:19Z</time></trkpt><trkpt lat="38.94463092405026" lon="-9.391091495990814"><ele>7.666666666666666</ele><time>2026-04-19T11:06:20Z</time></trkpt><trkpt lat="38.94455752432659" lon="-9.391083490549034"><ele>8.0</ele><time>2026-04-19T11:06:21Z</time></trkpt><trkpt lat="38.94446720140594" lon="-9.39109420585518"><ele>8.0</ele><time>2026-04-19T11:06:22Z</time></trkpt><trkpt lat="38.94437036729545" lon="-9.391094474546026"><ele>8.0</ele><time>2026-04-19T11:06:23Z</time></trkpt><trkpt lat="38.94426444142174" lon="-9.391107077551164"><ele>8.0</ele><time>2026-04-19T11:06:24Z</time></trkpt><trkpt lat="38.944158687476055" lon="-9.391093650435954"><ele>8.0</ele><time>2026-04-19T11:06:25Z</time></trkpt><trkpt lat="38.94405421166644" lon="-9.391086183210941"><ele>8.0</ele><time>2026-04-19T11:06:26Z</time></trkpt><trkpt lat="38.94395026214772" lon="-9.391058787567035"><ele>8.0</ele><time>2026-04-19T11:06:27Z</time></trkpt><trkpt lat="38.943840632359766" lon="-9.39101063814088"><ele>8.0</ele><time>2026-04-19T11:06:28Z</time></trkpt><trkpt lat="38.94372727422581" lon="-9.390974455093037"><ele>8.0</ele><time>2026-04-19T11:06:29Z</time></trkpt><trkpt lat="38.94362235431774" lon="-9.390919157821601"><ele>8.0</ele><time>2026-04-19T11:06:30Z</time></trkpt><trkpt lat="38.943510856977774" lon="-9.39090698560968"><ele>8.0</ele><time>2026-04-19T11:06:31Z</time></trkpt><trkpt lat="38.943399479062414" lon="-9.390908724472718"><ele>8.0</ele><time>2026-04-19T11:06:32Z</time></trkpt><trkpt lat="38.94329298552144" lon="-9.390912579840826"><ele>8.0</ele><time>2026-04-19T11:06:33Z</time></trkpt><trkpt lat="38.943207333517236" lon="-9.390883385612279"><ele>8.0</ele><time>2026-04-19T11:06:34Z</time></trkpt><trkpt lat="38.943133963066806" lon="-9.390851511960602"><ele>8.0</ele><time>2026-04-19T11:06:35Z</time></trkpt><trkpt lat="38.94304519638348" lon="-9.390863860215523"><ele>8.0</ele><time>2026-04-19T11:06:36Z</time></trkpt><trkpt lat="38.94293856129928" lon="-9.39085581300431"><ele>8.0</ele><time>2026-04-19T11:06:37Z</time></trkpt><trkpt lat="38.942826263513645" lon="-9.390856947359433"><ele>8.0</ele><time>2026-04-19T11:06:38Z</time></trkpt><trkpt lat="38.94272629781577" lon="-9.39084105585985"><ele>8.0</ele><time>2026-04-19T11:06:39Z</time></trkpt><trkpt lat="38.94263268559564" lon="-9.390816660382246"><ele>8.0</ele><time>2026-04-19T11:06:40Z</time></trkpt><trkpt lat="38.9425477807261" lon="-9.39081474713829"><ele>8.200000000000001</ele><time>2026-04-19T11:06:41Z</time></trkpt><trkpt lat="38.94245649937222" lon="-9.390833973544233"><ele>8.4</ele><time>2026-04-19T11:06:42Z</time></trkpt><trkpt lat="38.94238330397718" lon="-9.390867128577185"><ele>8.600000000000001</ele><time>2026-04-19T11:06:43Z</time></trkpt><trkpt lat="38.94230236864358" lon="-9.390880396938853"><ele>8.8</ele><time>2026-04-19T11:06:44Z</time></trkpt><trkpt lat="38.94216439744454" lon="-9.390829706700993"><ele>9.0</ele><time>2026-04-19T11:06:46Z</time></trkpt><trkpt lat="38.9420845959962" lon="-9.390814016674371"><ele>9.0</ele><time>2026-04-19T11:06:47Z</time></trkpt><trkpt lat="38.941993268898344" lon="-9.390773205801525"><ele>9.0</ele><time>2026-04-19T11:06:48Z</time></trkpt><trkpt lat="38.941910052846005" lon="-9.390714201539932"><ele>9.0</ele><time>2026-04-19T11:06:49Z</time></trkpt><trkpt lat="38.94184368512141" lon="-9.390673197867889"><ele>9.0</ele><time>2026-04-19T11:06:50Z</time></trkpt><trkpt lat="38.941754242923714" lon="-9.39065663380024"><ele>9.0</ele><time>2026-04-19T11:06:51Z</time></trkpt><trkpt lat="38.94165620802189" lon="-9.390657303310661"><ele>9.4</ele><time>2026-04-19T11:06:52Z</time></trkpt><trkpt lat="38.94156319552994" lon="-9.390661305462157"><ele>9.8</ele><time>2026-04-19T11:06:53Z</time></trkpt><trkpt lat="38.941468979923535" lon="-9.390665967048047"><ele>10.200000000000001</ele><time>2026-04-19T11:06:54Z</time></trkpt><trkpt lat="38.94137233450977" lon="-9.390643614173111"><ele>10.600000000000001</ele><time>2026-04-19T11:06:55Z</time></trkpt><trkpt lat="38.94127850424468" lon="-9.390593111086442"><ele>11.0</ele><time>2026-04-19T11:06:56Z</time></trkpt><trkpt lat="38.94118953137746" lon="-9.390513553812067"><ele>11.4</ele><time>2026-04-19T11:06:57Z</time></trkpt><trkpt lat="38.941094406530574" lon="-9.390467194559234"><ele>11.8</ele><time>2026-04-19T11:06:58Z</time></trkpt><trkpt lat="38.94098032986424" lon="-9.390410454563469"><ele>12.200000000000001</ele><time>2026-04-19T11:06:59Z</time></trkpt><trkpt lat="38.9408904855453" lon="-9.390363976241867"><ele>12.600000000000001</ele><time>2026-04-19T11:07:00Z</time></trkpt><trkpt lat="38.940809413821796" lon="-9.390328990838366"><ele>13.0</ele><time>2026-04-19T11:07:01Z</time></trkpt><trkpt lat="38.94072797607808" lon="-9.390337950010892"><ele>12.999999999999998</ele><time>2026-04-19T11:07:02Z</time></trkpt><trkpt lat="38.94063930432417" lon="-9.390340611582495"><ele>13.0</ele><time>2026-04-19T11:07:03Z</time></trkpt><trkpt lat="38.94055775832208" lon="-9.390325325895184"><ele>13.0</ele><time>2026-04-19T11:07:04Z</time></trkpt><trkpt lat="38.94049716591093" lon="-9.39025494738066"><ele>13.0</ele><time>2026-04-19T11:07:05Z</time></trkpt><trkpt lat="38.94044557400141" lon="-9.390171592101824"><ele>12.999999999999998</ele><time>2026-04-19T11:07:06Z</time></trkpt><trkpt lat="38.94035679229351" lon="-9.390126247032246"><ele>13.0</ele><time>2026-04-19T11:07:07Z</time></trkpt><trkpt lat="38.94026543775068" lon="-9.390082949820117"><ele>13.0</ele><time>2026-04-19T11:07:08Z</time></trkpt><trkpt lat="38.940167399110884" lon="-9.390045790350051"><ele>13.0</ele><time>2026-04-19T11:07:09Z</time></trkpt><trkpt lat="38.9400727006014" lon="-9.39000709281988"><ele>13.0</ele><time>2026-04-19T11:07:10Z</time></trkpt><trkpt lat="38.93997759013669" lon="-9.390021318589989"><ele>13.0</ele><time>2026-04-19T11:07:11Z</time></trkpt><trkpt lat="38.93988430134868" lon="-9.39007489689922"><ele>13.0</ele><time>2026-04-19T11:07:12Z</time></trkpt><trkpt lat="38.93979578841689" lon="-9.390108561485421"><ele>12.8</ele><time>2026-04-19T11:07:13Z</time></trkpt><trkpt lat="38.939702873355166" lon="-9.390181522722347"><ele>12.600000000000001</ele><time>2026-04-19T11:07:14Z</time></trkpt><trkpt lat="38.93961236744544" lon="-9.39027188375985"><ele>12.399999999999999</ele><time>2026-04-19T11:07:15Z</time></trkpt><trkpt lat="38.93953549319378" lon="-9.390355507769934"><ele>12.2</ele><time>2026-04-19T11:07:16Z</time></trkpt><trkpt lat="38.939456474767304" lon="-9.390421174642793"><ele>12.0</ele><time>2026-04-19T11:07:17Z</time></trkpt><trkpt lat="38.939359490477564" lon="-9.390468032299381"><ele>12.0</ele><time>2026-04-19T11:07:18Z</time></trkpt><trkpt lat="38.93927857216806" lon="-9.390530084813586"><ele>12.0</ele><time>2026-04-19T11:07:19Z</time></trkpt><trkpt lat="38.939185227313594" lon="-9.390596078828215"><ele>12.0</ele><time>2026-04-19T11:07:20Z</time></trkpt><trkpt lat="38.93907991719271" lon="-9.39067044497052"><ele>12.0</ele><time>2026-04-19T11:07:21Z</time></trkpt><trkpt lat="38.93896703358247" lon="-9.390733093097875"><ele>12.0</ele><time>2026-04-19T11:07:22Z</time></trkpt><trkpt lat="38.93887520201814" lon="-9.390780829311046"><ele>12.0</ele><time>2026-04-19T11:07:23Z</time></trkpt><trkpt lat="38.938781191516526" lon="-9.390812060467267"><ele>12.0</ele><time>2026-04-19T11:07:24Z</time></trkpt><trkpt lat="38.93869819317802" lon="-9.390900051418061"><ele>12.0</ele><time>2026-04-19T11:07:25Z</time></trkpt><trkpt lat="38.93861980496309" lon="-9.390973747917466"><ele>12.0</ele><time>2026-04-19T11:07:26Z</time></trkpt><trkpt lat="38.9385522411611" lon="-9.39106992549663"><ele>12.0</ele><time>2026-04-19T11:07:27Z</time></trkpt><trkpt lat="38.938496593030415" lon="-9.391203202668242"><ele>12.0</ele><time>2026-04-19T11:07:28Z</time></trkpt><trkpt lat="38.93841699951142" lon="-9.391326858883332"><ele>12.0</ele><time>2026-04-19T11:07:29Z</time></trkpt><trkpt lat="38.93833427119294" lon="-9.391439696334633"><ele>12.0</ele><time>2026-04-19T11:07:30Z</time></trkpt><trkpt lat="38.93823862114907" lon="-9.391533791459679"><ele>12.0</ele><time>2026-04-19T11:07:31Z</time></trkpt><trkpt lat="38.93812709268484" lon="-9.391626769939545"><ele>12.5</ele><time>2026-04-19T11:07:32Z</time></trkpt><trkpt lat="38.93801312796633" lon="-9.391711313202714"><ele>13.0</ele><time>2026-04-19T11:07:33Z</time></trkpt><trkpt lat="38.93790765762238" lon="-9.391781214315296"><ele>13.5</ele><time>2026-04-19T11:07:34Z</time></trkpt><trkpt lat="38.93780109684653" lon="-9.391848463173407"><ele>14.0</ele><time>2026-04-19T11:07:35Z</time></trkpt><trkpt lat="38.93771814954914" lon="-9.391934237917015"><ele>14.000000000000002</ele><time>2026-04-19T11:07:36Z</time></trkpt><trkpt lat="38.93765069733037" lon="-9.392055429087844"><ele>14.0</ele><time>2026-04-19T11:07:37Z</time></trkpt><trkpt lat="38.937595831752155" lon="-9.392168163128952"><ele>14.0</ele><time>2026-04-19T11:07:38Z</time></trkpt><trkpt lat="38.9375666447196" lon="-9.392245791215942"><ele>14.0</ele><time>2026-04-19T11:07:39Z</time></trkpt><trkpt lat="38.93759701847967" lon="-9.392319131142498"><ele>14.000000000000002</ele><time>2026-04-19T11:07:40Z</time></trkpt><trkpt lat="38.937599148191545" lon="-9.39240438492575"><ele>14.0</ele><time>2026-04-19T11:07:41Z</time></trkpt><trkpt lat="38.93766260905039" lon="-9.392506313449664"><ele>14.799999999999999</ele><time>2026-04-19T11:07:42Z</time></trkpt><trkpt lat="38.937620668892784" lon="-9.39258293148329"><ele>15.599999999999998</ele><time>2026-04-19T11:07:43Z</time></trkpt><trkpt lat="38.93755608816558" lon="-9.392661237424141"><ele>16.4</ele><time>2026-04-19T11:07:44Z</time></trkpt><trkpt lat="38.93745839734021" lon="-9.392737116570114"><ele>17.2</ele><time>2026-04-19T11:07:45Z</time></trkpt><trkpt lat="38.93735245270545" lon="-9.39280298703012"><ele>18.0</ele><time>2026-04-19T11:07:46Z</time></trkpt><trkpt lat="38.93724500975921" lon="-9.392863593896838"><ele>18.0</ele><time>2026-04-19T11:07:47Z</time></trkpt><trkpt lat="38.93715410670468" lon="-9.392930640259546"><ele>18.0</ele><time>2026-04-19T11:07:48Z</time></trkpt><trkpt lat="38.93706751619995" lon="-9.392974125498986"><ele>18.0</ele><time>2026-04-19T11:07:49Z</time></trkpt><trkpt lat="38.93697611606029" lon="-9.392988890219303"><ele>18.0</ele><time>2026-04-19T11:07:50Z</time></trkpt><trkpt lat="38.93688598129042" lon="-9.39301820098939"><ele>18.0</ele><time>2026-04-19T11:07:51Z</time></trkpt><trkpt lat="38.93679686222622" lon="-9.39305363667748"><ele>18.833333333333332</ele><time>2026-04-19T11:07:52Z</time></trkpt><trkpt lat="38.93671927460995" lon="-9.393115922311273"><ele>19.666666666666668</ele><time>2026-04-19T11:07:53Z</time></trkpt><trkpt lat="38.93664865334003" lon="-9.393162960856682"><ele>20.5</ele><time>2026-04-19T11:07:54Z</time></trkpt><trkpt lat="38.936578449479555" lon="-9.393171240627156"><ele>21.333333333333336</ele><time>2026-04-19T11:07:55Z</time></trkpt><trkpt lat="38.93648952869173" lon="-9.393152082675005"><ele>22.166666666666668</ele><time>2026-04-19T11:07:56Z</time></trkpt><trkpt lat="38.9363873862485" lon="-9.393137132905922"><ele>23.0</ele><time>2026-04-19T11:07:57Z</time></trkpt><trkpt lat="38.93627772072144" lon="-9.393115436500368"><ele>23.0</ele><time>2026-04-19T11:07:58Z</time></trkpt><trkpt lat="38.93617724075131" lon="-9.393089290235373"><ele>23.0</ele><time>2026-04-19T11:07:59Z</time></trkpt><trkpt lat="38.93611085185013" lon="-9.3930406115747"><ele>23.0</ele><time>2026-04-19T11:08:00Z</time></trkpt><trkpt lat="38.93603999326015" lon="-9.392975090894716"><ele>23.0</ele><time>2026-04-19T11:08:01Z</time></trkpt><trkpt lat="38.935968448042225" lon="-9.392917347719145"><ele>23.0</ele><time>2026-04-19T11:08:02Z</time></trkpt><trkpt lat="38.93589800217785" lon="-9.392826476022716"><ele>19.75</ele><time>2026-04-19T11:08:03Z</time></trkpt><trkpt lat="38.935844346385295" lon="-9.392722467855238"><ele>16.5</ele><time>2026-04-19T11:08:04Z</time></trkpt><trkpt lat="38.93574926959067" lon="-9.392633205596395"><ele>13.25</ele><time>2026-04-19T11:08:05Z</time></trkpt><trkpt lat="38.935639022094925" lon="-9.39256911955694"><ele>10.0</ele><time>2026-04-19T11:08:06Z</time></trkpt><trkpt lat="38.93552972390315" lon="-9.392522530860083"><ele>10.0</ele><time>2026-04-19T11:08:07Z</time></trkpt><trkpt lat="38.935433652324214" lon="-9.392453130062083"><ele>10.0</ele><time>2026-04-19T11:08:08Z</time></trkpt><trkpt lat="38.93534728493417" lon="-9.392345451723942"><ele>10.0</ele><time>2026-04-19T11:08:09Z</time></trkpt><trkpt lat="38.935265526351955" lon="-9.392257641574838"><ele>10.0</ele><time>2026-04-19T11:08:10Z</time></trkpt><trkpt lat="38.93521496499493" lon="-9.392137950582555"><ele>10.0</ele><time>2026-04-19T11:08:11Z</time></trkpt><trkpt lat="38.93519898636856" lon="-9.392009753385933"><ele>10.25</ele><time>2026-04-19T11:08:12Z</time></trkpt><trkpt lat="38.93521466883773" lon="-9.391858987782133"><ele>10.5</ele><time>2026-04-19T11:08:13Z</time></trkpt><trkpt lat="38.935271332381696" lon="-9.391713067348661"><ele>10.75</ele><time>2026-04-19T11:08:14Z</time></trkpt><trkpt lat="38.935332623250936" lon="-9.391550538174307"><ele>11.0</ele><time>2026-04-19T11:08:15Z</time></trkpt><trkpt lat="38.93540614439635" lon="-9.391404306821835"><ele>11.25</ele><time>2026-04-19T11:08:16Z</time></trkpt><trkpt lat="38.93546855107054" lon="-9.391243218598934"><ele>11.5</ele><time>2026-04-19T11:08:17Z</time></trkpt><trkpt lat="38.93552050490919" lon="-9.391094504596788"><ele>11.75</ele><time>2026-04-19T11:08:18Z</time></trkpt><trkpt lat="38.935564994994024" lon="-9.390953089655985"><ele>12.0</ele><time>2026-04-19T11:08:19Z</time></trkpt><trkpt lat="38.9356092567001" lon="-9.390815003453714"><ele>12.0</ele><time>2026-04-19T11:08:20Z</time></trkpt><trkpt lat="38.93565428610805" lon="-9.390670633382975"><ele>12.0</ele><time>2026-04-19T11:08:21Z</time></trkpt><trkpt lat="38.935689867401265" lon="-9.390508832981176"><ele>12.0</ele><time>2026-04-19T11:08:22Z</time></trkpt><trkpt lat="38.93572751357908" lon="-9.390355585360123"><ele>12.0</ele><time>2026-04-19T11:08:23Z</time></trkpt><trkpt lat="38.935772608184315" lon="-9.390199518446442"><ele>12.0</ele><time>2026-04-19T11:08:24Z</time></trkpt><trkpt lat="38.9358164359178" lon="-9.390029030450483"><ele>12.0</ele><time>2026-04-19T11:08:25Z</time></trkpt><trkpt lat="38.93585579265648" lon="-9.3898647866678"><ele>12.0</ele><time>2026-04-19T11:08:26Z</time></trkpt><trkpt lat="38.93588922293209" lon="-9.389712870264663"><ele>12.0</ele><time>2026-04-19T11:08:27Z</time></trkpt><trkpt lat="38.93593992995061" lon="-9.389573363269893"><ele>13.2</ele><time>2026-04-19T11:08:28Z</time></trkpt><trkpt lat="38.935990501663376" lon="-9.389441963386354"><ele>14.399999999999999</ele><time>2026-04-19T11:08:29Z</time></trkpt><trkpt lat="38.93605155780298" lon="-9.389308432210841"><ele>15.600000000000001</ele><time>2026-04-19T11:08:30Z</time></trkpt><trkpt lat="38.93609118164876" lon="-9.389203386845677"><ele>16.8</ele><time>2026-04-19T11:08:31Z</time></trkpt><trkpt lat="38.93612198423683" lon="-9.389104815147471"><ele>18.0</ele><time>2026-04-19T11:08:32Z</time></trkpt><trkpt lat="38.93615867770334" lon="-9.389004840276153"><ele>18.0</ele><time>2026-04-19T11:08:33Z</time></trkpt><trkpt lat="38.93619020599753" lon="-9.388896066689572"><ele>18.0</ele><time>2026-04-19T11:08:34Z</time></trkpt><trkpt lat="38.93618633392806" lon="-9.388762756548244"><ele>18.0</ele><time>2026-04-19T11:08:35Z</time></trkpt><trkpt lat="38.93617273529699" lon="-9.388622758535266"><ele>18.0</ele><time>2026-04-19T11:08:36Z</time></trkpt><trkpt lat="38.93615933970466" lon="-9.388520074695219"><ele>18.0</ele><time>2026-04-19T11:08:37Z</time></trkpt><trkpt lat="38.936129518106654" lon="-9.388440877431748"><ele>18.166666666666668</ele><time>2026-04-19T11:08:38Z</time></trkpt><trkpt lat="38.9360583225079" lon="-9.388426203153788"><ele>18.333333333333332</ele><time>2026-04-19T11:08:39Z</time></trkpt><trkpt lat="38.93597348701102" lon="-9.388457636537511"><ele>18.5</ele><time>2026-04-19T11:08:40Z</time></trkpt><trkpt lat="38.93590220109613" lon="-9.388411869051797"><ele>18.666666666666664</ele><time>2026-04-19T11:08:41Z</time></trkpt><trkpt lat="38.93588626915053" lon="-9.388305232306044"><ele>18.833333333333332</ele><time>2026-04-19T11:08:42Z</time></trkpt><trkpt lat="38.9359236007788" lon="-9.38823302842996"><ele>19.0</ele><time>2026-04-19T11:08:43Z</time></trkpt><trkpt lat="38.93599655724833" lon="-9.388190772006197"><ele>19.0</ele><time>2026-04-19T11:08:44Z</time></trkpt><trkpt lat="38.93598072768847" lon="-9.388053039541687"><ele>19.0</ele><time>2026-04-19T11:08:46Z</time></trkpt><trkpt lat="38.93591310822312" lon="-9.387972641185533"><ele>19.0</ele><time>2026-04-19T11:08:47Z</time></trkpt><trkpt lat="38.93584143616277" lon="-9.387852594552916"><ele>19.0</ele><time>2026-04-19T11:08:48Z</time></trkpt><trkpt lat="38.93577777603076" lon="-9.38772651546596"><ele>19.0</ele><time>2026-04-19T11:08:49Z</time></trkpt><trkpt lat="38.93572231136399" lon="-9.387594074636421"><ele>17.5</ele><time>2026-04-19T11:08:50Z</time></trkpt><trkpt lat="38.935661683522326" lon="-9.38744506150963"><ele>16.0</ele><time>2026-04-19T11:08:51Z</time></trkpt><trkpt lat="38.935630580141456" lon="-9.387275668890265"><ele>14.5</ele><time>2026-04-19T11:08:52Z</time></trkpt><trkpt lat="38.93561040159138" lon="-9.387134298083858"><ele>13.0</ele><time>2026-04-19T11:08:53Z</time></trkpt><trkpt lat="38.93558301050287" lon="-9.387004407769181"><ele>13.0</ele><time>2026-04-19T11:08:54Z</time></trkpt><trkpt lat="38.93553888465779" lon="-9.386867445439277"><ele>13.0</ele><time>2026-04-19T11:08:55Z</time></trkpt><trkpt lat="38.93548162392435" lon="-9.386707536124575"><ele>13.0</ele><time>2026-04-19T11:08:56Z</time></trkpt><trkpt lat="38.93542203855539" lon="-9.38655092770835"><ele>13.0</ele><time>2026-04-19T11:08:57Z</time></trkpt><trkpt lat="38.935353955069424" lon="-9.386399551307733"><ele>13.5</ele><time>2026-04-19T11:08:58Z</time></trkpt><trkpt lat="38.93528585276094" lon="-9.386237745835535"><ele>14.0</ele><time>2026-04-19T11:08:59Z</time></trkpt><trkpt lat="38.93521823795028" lon="-9.38607990580613"><ele>14.5</ele><time>2026-04-19T11:09:00Z</time></trkpt><trkpt lat="38.93516346172173" lon="-9.385940368733843"><ele>15.0</ele><time>2026-04-19T11:09:01Z</time></trkpt><trkpt lat="38.93511325409002" lon="-9.385813476587517"><ele>15.0</ele><time>2026-04-19T11:09:02Z</time></trkpt><trkpt lat="38.9350658077" lon="-9.385683087930564"><ele>15.0</ele><time>2026-04-19T11:09:03Z</time></trkpt><trkpt lat="38.93503018352531" lon="-9.385573746614124"><ele>15.0</ele><time>2026-04-19T11:09:04Z</time></trkpt><trkpt lat="38.93501581861695" lon="-9.385464957375898"><ele>15.0</ele><time>2026-04-19T11:09:05Z</time></trkpt><trkpt lat="38.93499227696116" lon="-9.385356396998029"><ele>15.0</ele><time>2026-04-19T11:09:06Z</time></trkpt><trkpt lat="38.934954097324066" lon="-9.385262162310031"><ele>14.0</ele><time>2026-04-19T11:09:07Z</time></trkpt><trkpt lat="38.934933029942215" lon="-9.3851564033462"><ele>13.0</ele><time>2026-04-19T11:09:08Z</time></trkpt><trkpt lat="38.934924834907456" lon="-9.385066777185333"><ele>12.0</ele><time>2026-04-19T11:09:09Z</time></trkpt><trkpt lat="38.93492585853659" lon="-9.384976087147958"><ele>11.0</ele><time>2026-04-19T11:09:10Z</time></trkpt><trkpt lat="38.93493291895131" lon="-9.384790938715101"><ele>10.0</ele><time>2026-04-19T11:09:12Z</time></trkpt><trkpt lat="38.93491271366422" lon="-9.38468417856262"><ele>10.5</ele><time>2026-04-19T11:09:13Z</time></trkpt><trkpt lat="38.93490385158443" lon="-9.38458983410019"><ele>11.0</ele><time>2026-04-19T11:09:14Z</time></trkpt><trkpt lat="38.934870347420556" lon="-9.38449227995986"><ele>11.5</ele><time>2026-04-19T11:09:15Z</time></trkpt><trkpt lat="38.934829139292866" lon="-9.384403023378988"><ele>12.0</ele><time>2026-04-19T11:09:16Z</time></trkpt><trkpt lat="38.93477497613161" lon="-9.384318850767556"><ele>12.499999999999998</ele><time>2026-04-19T11:09:17Z</time></trkpt><trkpt lat="38.93471647031772" lon="-9.384231023225485"><ele>13.0</ele><time>2026-04-19T11:09:18Z</time></trkpt><trkpt lat="38.93465741098314" lon="-9.3841646442816"><ele>12.999999999999998</ele><time>2026-04-19T11:09:19Z</time></trkpt><trkpt lat="38.934591645390555" lon="-9.384101996369814"><ele>13.0</ele><time>2026-04-19T11:09:20Z</time></trkpt><trkpt lat="38.934529467483415" lon="-9.384025323174912"><ele>13.0</ele><time>2026-04-19T11:09:21Z</time></trkpt><trkpt lat="38.93447857756749" lon="-9.383948040815747"><ele>13.0</ele><time>2026-04-19T11:09:22Z</time></trkpt><trkpt lat="38.93444615564471" lon="-9.383845967811826"><ele>12.999999999999998</ele><time>2026-04-19T11:09:23Z</time></trkpt><trkpt lat="38.93440467765499" lon="-9.383744630796555"><ele>13.0</ele><time>2026-04-19T11:09:24Z</time></trkpt><trkpt lat="38.93436485581892" lon="-9.38365701797169"><ele>12.833333333333332</ele><time>2026-04-19T11:09:25Z</time></trkpt><trkpt lat="38.93434062173831" lon="-9.383556811709871"><ele>12.666666666666666</ele><time>2026-04-19T11:09:26Z</time></trkpt><trkpt lat="38.93433030285188" lon="-9.383461897588388"><ele>12.5</ele><time>2026-04-19T11:09:27Z</time></trkpt><trkpt lat="38.93429944522834" lon="-9.383384680640411"><ele>12.333333333333332</ele><time>2026-04-19T11:09:28Z</time></trkpt><trkpt lat="38.934254310380446" lon="-9.383296588651492"><ele>12.166666666666666</ele><time>2026-04-19T11:09:29Z</time></trkpt><trkpt lat="38.93419736196864" lon="-9.383205645569726"><ele>12.0</ele><time>2026-04-19T11:09:30Z</time></trkpt><trkpt lat="38.93414867400688" lon="-9.383073539875108"><ele>12.6</ele><time>2026-04-19T11:09:31Z</time></trkpt><trkpt lat="38.93409830438659" lon="-9.382934391851567"><ele>13.2</ele><time>2026-04-19T11:09:32Z</time></trkpt><trkpt lat="38.93406615593208" lon="-9.382811850270507"><ele>13.8</ele><time>2026-04-19T11:09:33Z</time></trkpt><trkpt lat="38.93402526424994" lon="-9.382679564235447"><ele>14.4</ele><time>2026-04-19T11:09:34Z</time></trkpt><trkpt lat="38.93398387986035" lon="-9.382556451025163"><ele>15.0</ele><time>2026-04-19T11:09:35Z</time></trkpt><trkpt lat="38.93393510113826" lon="-9.382436498876784"><ele>15.0</ele><time>2026-04-19T11:09:36Z</time></trkpt><trkpt lat="38.9338930563535" lon="-9.38233865562021"><ele>15.0</ele><time>2026-04-19T11:09:37Z</time></trkpt><trkpt lat="38.93386853123988" lon="-9.382241579789799"><ele>15.0</ele><time>2026-04-19T11:09:38Z</time></trkpt><trkpt lat="38.93385361920292" lon="-9.382154371504159"><ele>15.0</ele><time>2026-04-19T11:09:39Z</time></trkpt><trkpt lat="38.93386074140416" lon="-9.382023161482488"><ele>15.0</ele><time>2026-04-19T11:09:41Z</time></trkpt><trkpt lat="38.9337510883658" lon="-9.381994728459532"><ele>14.6</ele><time>2026-04-19T11:09:43Z</time></trkpt><trkpt lat="38.93362297437254" lon="-9.382001661384214"><ele>14.2</ele><time>2026-04-19T11:09:45Z</time></trkpt><trkpt lat="38.93354948672785" lon="-9.382010015448742"><ele>13.8</ele><time>2026-04-19T11:09:46Z</time></trkpt><trkpt lat="38.933472998593146" lon="-9.382052925362952"><ele>13.4</ele><time>2026-04-19T11:09:47Z</time></trkpt><trkpt lat="38.93340268972526" lon="-9.38211958920735"><ele>13.0</ele><time>2026-04-19T11:09:48Z</time></trkpt><trkpt lat="38.93333549407991" lon="-9.38220632601275"><ele>13.0</ele><time>2026-04-19T11:09:49Z</time></trkpt><trkpt lat="38.933262296247186" lon="-9.382304647909852"><ele>13.0</ele><time>2026-04-19T11:09:50Z</time></trkpt><trkpt lat="38.93318604456903" lon="-9.3824004886133"><ele>13.0</ele><time>2026-04-19T11:09:51Z</time></trkpt><trkpt lat="38.93313550564114" lon="-9.382505919271422"><ele>13.0</ele><time>2026-04-19T11:09:52Z</time></trkpt><trkpt lat="38.933101466115964" lon="-9.382641758115358"><ele>13.0</ele><time>2026-04-19T11:09:53Z</time></trkpt><trkpt lat="38.93308231933897" lon="-9.38275664832753"><ele>13.0</ele><time>2026-04-19T11:09:54Z</time></trkpt><trkpt lat="38.933056410780516" lon="-9.382869861378051"><ele>13.0</ele><time>2026-04-19T11:09:55Z</time></trkpt><trkpt lat="38.93303344601267" lon="-9.382966710349217"><ele>13.0</ele><time>2026-04-19T11:09:56Z</time></trkpt><trkpt lat="38.93302276508322" lon="-9.383091422568157"><ele>13.0</ele><time>2026-04-19T11:09:57Z</time></trkpt><trkpt lat="38.93302365608911" lon="-9.38322868688685"><ele>13.0</ele><time>2026-04-19T11:09:58Z</time></trkpt><trkpt lat="38.93301918133521" lon="-9.383353010160445"><ele>13.4</ele><time>2026-04-19T11:09:59Z</time></trkpt><trkpt lat="38.93298012977076" lon="-9.383418098494426"><ele>13.8</ele><time>2026-04-19T11:10:02Z</time></trkpt><trkpt lat="38.93288468719534" lon="-9.383510533033212"><ele>14.2</ele><time>2026-04-19T11:10:11Z</time></trkpt><trkpt lat="38.93279933441268" lon="-9.383537333519643"><ele>14.6</ele><time>2026-04-19T11:10:12Z</time></trkpt><trkpt lat="38.93269496309091" lon="-9.383563222373672"><ele>15.0</ele><time>2026-04-19T11:10:13Z</time></trkpt><trkpt lat="38.93258290789929" lon="-9.383571694818382"><ele>14.5</ele><time>2026-04-19T11:10:14Z</time></trkpt><trkpt lat="38.932470859076425" lon="-9.383562535473125"><ele>14.0</ele><time>2026-04-19T11:10:15Z</time></trkpt><trkpt lat="38.9323964984242" lon="-9.38353696913434"><ele>13.5</ele><time>2026-04-19T11:10:16Z</time></trkpt><trkpt lat="38.93232528078623" lon="-9.383516437596327"><ele>13.0</ele><time>2026-04-19T11:10:17Z</time></trkpt><trkpt lat="38.93225817993936" lon="-9.383531342751409"><ele>12.5</ele><time>2026-04-19T11:10:18Z</time></trkpt><trkpt lat="38.93218305584714" lon="-9.383587385625608"><ele>12.0</ele><time>2026-04-19T11:10:19Z</time></trkpt><trkpt lat="38.93207775340097" lon="-9.383652925773449"><ele>12.0</ele><time>2026-04-19T11:10:20Z</time></trkpt><trkpt lat="38.931954701240436" lon="-9.38362827193275"><ele>12.0</ele><time>2026-04-19T11:10:21Z</time></trkpt><trkpt lat="38.93183149213744" lon="-9.383611205566474"><ele>12.0</ele><time>2026-04-19T11:10:22Z</time></trkpt><trkpt lat="38.93174004204412" lon="-9.383600134333346"><ele>12.0</ele><time>2026-04-19T11:10:23Z</time></trkpt><trkpt lat="38.9316532715491" lon="-9.383550595783541"><ele>12.0</ele><time>2026-04-19T11:10:24Z</time></trkpt><trkpt lat="38.93157348461628" lon="-9.383514896035946"><ele>12.166666666666666</ele><time>2026-04-19T11:10:25Z</time></trkpt><trkpt lat="38.931496333481846" lon="-9.383450461186941"><ele>12.333333333333332</ele><time>2026-04-19T11:10:26Z</time></trkpt><trkpt lat="38.9314327115365" lon="-9.383382652866912"><ele>12.5</ele><time>2026-04-19T11:10:27Z</time></trkpt><trkpt lat="38.931376697957795" lon="-9.383318760676842"><ele>12.666666666666666</ele><time>2026-04-19T11:10:28Z</time></trkpt><trkpt lat="38.93132234686346" lon="-9.383255266836056"><ele>12.833333333333332</ele><time>2026-04-19T11:10:29Z</time></trkpt><trkpt lat="38.93123505878894" lon="-9.38321723317848"><ele>13.0</ele><time>2026-04-19T11:10:47Z</time></trkpt><trkpt lat="38.93117052951246" lon="-9.383180653840352"><ele>13.0</ele><time>2026-04-19T11:10:49Z</time></trkpt><trkpt lat="38.931282055947975" lon="-9.38325963832683"><ele>13.0</ele><time>2026-04-19T11:10:54Z</time></trkpt><trkpt lat="38.93140272218582" lon="-9.383323029290828"><ele>13.0</ele><time>2026-04-19T11:10:56Z</time></trkpt><trkpt lat="38.931471765882016" lon="-9.383358412710933"><ele>13.0</ele><time>2026-04-19T11:10:57Z</time></trkpt><trkpt lat="38.93152555612619" lon="-9.38340670589009"><ele>13.0</ele><time>2026-04-19T11:10:58Z</time></trkpt><trkpt lat="38.93159668859941" lon="-9.383483728398247"><ele>13.0</ele><time>2026-04-19T11:10:59Z</time></trkpt><trkpt lat="38.931672933431315" lon="-9.383555639031504"><ele>13.0</ele><time>2026-04-19T11:11:00Z</time></trkpt><trkpt lat="38.93172815038813" lon="-9.38360409387408"><ele>13.0</ele><time>2026-04-19T11:11:01Z</time></trkpt><trkpt lat="38.9317874639852" lon="-9.383574950425004"><ele>13.0</ele><time>2026-04-19T11:11:03Z</time></trkpt><trkpt lat="38.931796039846546" lon="-9.383406166795048"><ele>13.0</ele><time>2026-04-19T11:11:05Z</time></trkpt><trkpt lat="38.93182371367374" lon="-9.38327898676655"><ele>12.8</ele><time>2026-04-19T11:11:07Z</time></trkpt><trkpt lat="38.93182637361748" lon="-9.383175246079864"><ele>12.600000000000001</ele><time>2026-04-19T11:11:08Z</time></trkpt><trkpt lat="38.93178659199731" lon="-9.383070072608641"><ele>12.399999999999999</ele><time>2026-04-19T11:11:09Z</time></trkpt><trkpt lat="38.93171974114377" lon="-9.382948340646152"><ele>12.2</ele><time>2026-04-19T11:11:11Z</time></trkpt><trkpt lat="38.93164489003603" lon="-9.38287714264769"><ele>12.0</ele><time>2026-04-19T11:11:12Z</time></trkpt><trkpt lat="38.93156686747455" lon="-9.382780967661095"><ele>13.0</ele><time>2026-04-19T11:11:13Z</time></trkpt><trkpt lat="38.93151142351684" lon="-9.382675485401135"><ele>14.0</ele><time>2026-04-19T11:11:14Z</time></trkpt><trkpt lat="38.931448349664606" lon="-9.382573214678718"><ele>15.0</ele><time>2026-04-19T11:11:15Z</time></trkpt><trkpt lat="38.93137915687477" lon="-9.382489455826896"><ele>16.0</ele><time>2026-04-19T11:11:16Z</time></trkpt><trkpt lat="38.93130431577987" lon="-9.382394625454761"><ele>17.0</ele><time>2026-04-19T11:11:17Z</time></trkpt><trkpt lat="38.9312336221283" lon="-9.382307206754454"><ele>17.0</ele><time>2026-04-19T11:11:18Z</time></trkpt><trkpt lat="38.931150616619185" lon="-9.38225090959176"><ele>17.0</ele><time>2026-04-19T11:11:19Z</time></trkpt><trkpt lat="38.93107221818491" lon="-9.382230882090653"><ele>17.0</ele><time>2026-04-19T11:11:20Z</time></trkpt><trkpt lat="38.930987426315355" lon="-9.382180185181344"><ele>17.0</ele><time>2026-04-19T11:11:21Z</time></trkpt><trkpt lat="38.93091361102923" lon="-9.382113291948812"><ele>17.0</ele><time>2026-04-19T11:11:22Z</time></trkpt><trkpt lat="38.93082070899394" lon="-9.382060905242133"><ele>18.0</ele><time>2026-04-19T11:11:23Z</time></trkpt><trkpt lat="38.93072616061032" lon="-9.382021808218468"><ele>19.0</ele><time>2026-04-19T11:11:24Z</time></trkpt><trkpt lat="38.93063947027479" lon="-9.382019238534458"><ele>20.0</ele><time>2026-04-19T11:11:25Z</time></trkpt><trkpt lat="38.93055530875586" lon="-9.381981935525395"><ele>21.0</ele><time>2026-04-19T11:11:26Z</time></trkpt><trkpt lat="38.9304645274575" lon="-9.381947717942452"><ele>22.0</ele><time>2026-04-19T11:11:27Z</time></trkpt><trkpt lat="38.93039236795206" lon="-9.381915799491166"><ele>23.0</ele><time>2026-04-19T11:11:28Z</time></trkpt><trkpt lat="38.93031299245341" lon="-9.381891275431192"><ele>23.0</ele><time>2026-04-19T11:11:29Z</time></trkpt><trkpt lat="38.9302174967919" lon="-9.381855209368844"><ele>23.0</ele><time>2026-04-19T11:11:30Z</time></trkpt><trkpt lat="38.93011556069493" lon="-9.381824228879287"><ele>23.0</ele><time>2026-04-19T11:11:31Z</time></trkpt><trkpt lat="38.93001360691134" lon="-9.38178765735255"><ele>23.0</ele><time>2026-04-19T11:11:32Z</time></trkpt><trkpt lat="38.92992109615985" lon="-9.381736925946285"><ele>23.0</ele><time>2026-04-19T11:11:33Z</time></trkpt><trkpt lat="38.929839754164114" lon="-9.381669677102845"><ele>22.0</ele><time>2026-04-19T11:11:34Z</time></trkpt><trkpt lat="38.92974522768094" lon="-9.381603895422218"><ele>21.0</ele><time>2026-04-19T11:11:35Z</time></trkpt><trkpt lat="38.929655191788385" lon="-9.381546541849588"><ele>20.0</ele><time>2026-04-19T11:11:36Z</time></trkpt><trkpt lat="38.92953716653846" lon="-9.381484332152706"><ele>19.0</ele><time>2026-04-19T11:11:37Z</time></trkpt><trkpt lat="38.92944002448094" lon="-9.381420586518786"><ele>18.0</ele><time>2026-04-19T11:11:38Z</time></trkpt><trkpt lat="38.92935219408228" lon="-9.381370718085767"><ele>17.6</ele><time>2026-04-19T11:11:39Z</time></trkpt><trkpt lat="38.92925971480727" lon="-9.38130341947124"><ele>17.200000000000003</ele><time>2026-04-19T11:11:40Z</time></trkpt><trkpt lat="38.92916880357067" lon="-9.3812373301654"><ele>16.8</ele><time>2026-04-19T11:11:41Z</time></trkpt><trkpt lat="38.92907716451453" lon="-9.38116785956847"><ele>16.400000000000002</ele><time>2026-04-19T11:11:42Z</time></trkpt><trkpt lat="38.92898999287738" lon="-9.381081010153476"><ele>16.0</ele><time>2026-04-19T11:11:43Z</time></trkpt><trkpt lat="38.92892181803746" lon="-9.380964207406803"><ele>16.0</ele><time>2026-04-19T11:11:44Z</time></trkpt><trkpt lat="38.928882477748616" lon="-9.380823805536668"><ele>16.0</ele><time>2026-04-19T11:11:45Z</time></trkpt><trkpt lat="38.9288292961932" lon="-9.38070254310091"><ele>16.0</ele><time>2026-04-19T11:11:46Z</time></trkpt><trkpt lat="38.92875280845284" lon="-9.380620387208996"><ele>16.0</ele><time>2026-04-19T11:11:47Z</time></trkpt><trkpt lat="38.928681485766276" lon="-9.380510505002935"><ele>16.0</ele><time>2026-04-19T11:11:48Z</time></trkpt><trkpt lat="38.92863620007992" lon="-9.380363403805125"><ele>16.5</ele><time>2026-04-19T11:11:49Z</time></trkpt><trkpt lat="38.92859147703765" lon="-9.380198683273488"><ele>17.0</ele><time>2026-04-19T11:11:50Z</time></trkpt><trkpt lat="38.928543902717664" lon="-9.380046175981816"><ele>17.5</ele><time>2026-04-19T11:11:51Z</time></trkpt><trkpt lat="38.92852084180768" lon="-9.379855175622875"><ele>18.0</ele><time>2026-04-19T11:11:52Z</time></trkpt><trkpt lat="38.92849642933055" lon="-9.379704272987633"><ele>18.2</ele><time>2026-04-19T11:11:53Z</time></trkpt><trkpt lat="38.92848013400013" lon="-9.379563968520653"><ele>18.4</ele><time>2026-04-19T11:11:54Z</time></trkpt><trkpt lat="38.92848094689604" lon="-9.379421915497147"><ele>18.599999999999998</ele><time>2026-04-19T11:11:55Z</time></trkpt><trkpt lat="38.92851701886179" lon="-9.379274584893698"><ele>18.8</ele><time>2026-04-19T11:11:56Z</time></trkpt><trkpt lat="38.928537385487886" lon="-9.379150617143901"><ele>19.0</ele><time>2026-04-19T11:11:57Z</time></trkpt><trkpt lat="38.92857209677021" lon="-9.379007303293957"><ele>19.0</ele><time>2026-04-19T11:11:58Z</time></trkpt><trkpt lat="38.92863300317319" lon="-9.378892199429341"><ele>19.0</ele><time>2026-04-19T11:11:59Z</time></trkpt><trkpt lat="38.928689988845875" lon="-9.378781427954566"><ele>19.0</ele><time>2026-04-19T11:12:00Z</time></trkpt><trkpt lat="38.928728005816254" lon="-9.378682901250528"><ele>19.0</ele><time>2026-04-19T11:12:01Z</time></trkpt><trkpt lat="38.9287494128432" lon="-9.378566842900648"><ele>19.0</ele><time>2026-04-19T11:12:02Z</time></trkpt><trkpt lat="38.92875884562863" lon="-9.37846162389697"><ele>18.4</ele><time>2026-04-19T11:12:03Z</time></trkpt><trkpt lat="38.92871670638699" lon="-9.378360200447775"><ele>17.799999999999997</ele><time>2026-04-19T11:12:04Z</time></trkpt><trkpt lat="38.92865661671261" lon="-9.378259541856004"><ele>17.200000000000003</ele><time>2026-04-19T11:12:05Z</time></trkpt><trkpt lat="38.928628990811184" lon="-9.378149115491093"><ele>16.6</ele><time>2026-04-19T11:12:06Z</time></trkpt><trkpt lat="38.92861842534224" lon="-9.378018041466962"><ele>16.0</ele><time>2026-04-19T11:12:07Z</time></trkpt><trkpt lat="38.92859801911868" lon="-9.377886051807776"><ele>15.833333333333332</ele><time>2026-04-19T11:12:08Z</time></trkpt><trkpt lat="38.92861935538129" lon="-9.37777641972706"><ele>15.666666666666666</ele><time>2026-04-19T11:12:09Z</time></trkpt><trkpt lat="38.92864382927626" lon="-9.377646036308022"><ele>15.5</ele><time>2026-04-19T11:12:10Z</time></trkpt><trkpt lat="38.92872777837216" lon="-9.377570965398274"><ele>15.333333333333332</ele><time>2026-04-19T11:12:11Z</time></trkpt><trkpt lat="38.928771295904035" lon="-9.377498197194214"><ele>15.166666666666666</ele><time>2026-04-19T11:12:13Z</time></trkpt><trkpt lat="38.92872632348123" lon="-9.377434374900435"><ele>15.0</ele><time>2026-04-19T11:12:16Z</time></trkpt><trkpt lat="38.92868381332699" lon="-9.377370401653502"><ele>15.0</ele><time>2026-04-19T11:12:18Z</time></trkpt><trkpt lat="38.9286469994913" lon="-9.377285469678892"><ele>15.0</ele><time>2026-04-19T11:12:22Z</time></trkpt><trkpt lat="38.92859148748787" lon="-9.37719015856043"><ele>15.0</ele><time>2026-04-19T11:12:28Z</time></trkpt><trkpt lat="38.92852238644457" lon="-9.377180000292995"><ele>15.0</ele><time>2026-04-19T11:12:30Z</time></trkpt><trkpt lat="38.92844760120452" lon="-9.37716402217772"><ele>15.0</ele><time>2026-04-19T11:12:32Z</time></trkpt><trkpt lat="38.92839410277434" lon="-9.377086592679293"><ele>15.0</ele><time>2026-04-19T11:12:34Z</time></trkpt><trkpt lat="38.92836052129254" lon="-9.376981550491887"><ele>15.5</ele><time>2026-04-19T11:12:36Z</time></trkpt><trkpt lat="38.928328618255925" lon="-9.376905505261043"><ele>16.0</ele><time>2026-04-19T11:12:39Z</time></trkpt><trkpt lat="38.92830312219178" lon="-9.376824800839305"><ele>16.5</ele><time>2026-04-19T11:12:41Z</time></trkpt><trkpt lat="38.92826711942883" lon="-9.37674740884348"><ele>17.0</ele><time>2026-04-19T11:12:44Z</time></trkpt><trkpt lat="38.92820844039018" lon="-9.376710284971312"><ele>17.5</ele><time>2026-04-19T11:12:46Z</time></trkpt><trkpt lat="38.928128677455746" lon="-9.37665574186147"><ele>18.0</ele><time>2026-04-19T11:12:48Z</time></trkpt><trkpt lat="38.92805204211225" lon="-9.37659285811115"><ele>18.0</ele><time>2026-04-19T11:12:50Z</time></trkpt><trkpt lat="38.92797187612349" lon="-9.376565168302383"><ele>18.0</ele><time>2026-04-19T11:12:52Z</time></trkpt><trkpt lat="38.92790267643446" lon="-9.37648788402353"><ele>18.0</ele><time>2026-04-19T11:12:55Z</time></trkpt><trkpt lat="38.927812474516855" lon="-9.376421509474076"><ele>18.0</ele><time>2026-04-19T11:12:57Z</time></trkpt><trkpt lat="38.92774037645971" lon="-9.376375651448035"><ele>18.0</ele><time>2026-04-19T11:12:59Z</time></trkpt><trkpt lat="38.92766724193608" lon="-9.376330255545799"><ele>18.0</ele><time>2026-04-19T11:13:01Z</time></trkpt><trkpt lat="38.92756792917516" lon="-9.376359003504945"><ele>18.2</ele><time>2026-04-19T11:13:03Z</time></trkpt><trkpt lat="38.92747645863643" lon="-9.376369575861329"><ele>18.4</ele><time>2026-04-19T11:13:05Z</time></trkpt><trkpt lat="38.92739936921184" lon="-9.376347576345239"><ele>18.599999999999998</ele><time>2026-04-19T11:13:08Z</time></trkpt><trkpt lat="38.92730217684202" lon="-9.376379205479978"><ele>18.8</ele><time>2026-04-19T11:13:10Z</time></trkpt><trkpt lat="38.92719845779791" lon="-9.376387039667213"><ele>19.0</ele><time>2026-04-19T11:13:12Z</time></trkpt><trkpt lat="38.927118540464534" lon="-9.376373046047297"><ele>19.0</ele><time>2026-04-19T11:13:14Z</time></trkpt><trkpt lat="38.92704340924855" lon="-9.376357387508593"><ele>19.0</ele><time>2026-04-19T11:13:16Z</time></trkpt><trkpt lat="38.92694493214342" lon="-9.376362678932411"><ele>19.0</ele><time>2026-04-19T11:13:18Z</time></trkpt><trkpt lat="38.92684544137567" lon="-9.376352483705611"><ele>19.0</ele><time>2026-04-19T11:13:20Z</time></trkpt><trkpt lat="38.92677304134454" lon="-9.376287733845166"><ele>19.0</ele><time>2026-04-19T11:13:23Z</time></trkpt><trkpt lat="38.92672019865623" lon="-9.376231096342169"><ele>19.0</ele><time>2026-04-19T11:13:25Z</time></trkpt><trkpt lat="38.926654730736054" lon="-9.376281240505628"><ele>18.8</ele><time>2026-04-19T11:13:27Z</time></trkpt><trkpt lat="38.92658337924021" lon="-9.376295568371011"><ele>18.599999999999998</ele><time>2026-04-19T11:13:28Z</time></trkpt><trkpt lat="38.92649415707937" lon="-9.376352076405457"><ele>18.4</ele><time>2026-04-19T11:13:30Z</time></trkpt><trkpt lat="38.92646374831861" lon="-9.37643418957484"><ele>18.2</ele><time>2026-04-19T11:13:32Z</time></trkpt><trkpt lat="38.92637724862767" lon="-9.376557989237407"><ele>18.0</ele><time>2026-04-19T11:13:34Z</time></trkpt><trkpt lat="38.92631167901882" lon="-9.376668768890239"><ele>18.166666666666668</ele><time>2026-04-19T11:13:36Z</time></trkpt><trkpt lat="38.92621930288226" lon="-9.376756340893985"><ele>18.333333333333332</ele><time>2026-04-19T11:13:38Z</time></trkpt><trkpt lat="38.92612590289695" lon="-9.376797633214059"><ele>18.5</ele><time>2026-04-19T11:13:40Z</time></trkpt><trkpt lat="38.926071939556294" lon="-9.376855271493929"><ele>18.666666666666664</ele><time>2026-04-19T11:13:42Z</time></trkpt><trkpt lat="38.926011615609106" lon="-9.376892838428713"><ele>18.833333333333332</ele><time>2026-04-19T11:13:44Z</time></trkpt><trkpt lat="38.925937782769964" lon="-9.37692197124677"><ele>19.0</ele><time>2026-04-19T11:13:48Z</time></trkpt><trkpt lat="38.92588084905195" lon="-9.376969061617087"><ele>19.0</ele><time>2026-04-19T11:13:51Z</time></trkpt><trkpt lat="38.92581725013781" lon="-9.37702505477497"><ele>19.0</ele><time>2026-04-19T11:13:55Z</time></trkpt><trkpt lat="38.92576991766497" lon="-9.377091960172665"><ele>19.0</ele><time>2026-04-19T11:13:59Z</time></trkpt><trkpt lat="38.92571182320625" lon="-9.377170581234271"><ele>19.0</ele><time>2026-04-19T11:14:09Z</time></trkpt><trkpt lat="38.92565626633238" lon="-9.377210663815392"><ele>19.0</ele><time>2026-04-19T11:14:13Z</time></trkpt><trkpt lat="38.92559526697482" lon="-9.377273277877107"><ele>19.0</ele><time>2026-04-19T11:14:18Z</time></trkpt><trkpt lat="38.92554547061641" lon="-9.377328435082244"><ele>19.0</ele><time>2026-04-19T11:14:21Z</time></trkpt><trkpt lat="38.92547035636127" lon="-9.377390330670805"><ele>19.5</ele><time>2026-04-19T11:14:24Z</time></trkpt><trkpt lat="38.92539906985708" lon="-9.377450897926552"><ele>20.0</ele><time>2026-04-19T11:14:27Z</time></trkpt><trkpt lat="38.925323867208604" lon="-9.377493057559175"><ele>20.5</ele><time>2026-04-19T11:14:31Z</time></trkpt><trkpt lat="38.92526148747876" lon="-9.377530429574405"><ele>21.0</ele><time>2026-04-19T11:14:34Z</time></trkpt><trkpt lat="38.925197203016886" lon="-9.37756831263384"><ele>21.5</ele><time>2026-04-19T11:14:36Z</time></trkpt><trkpt lat="38.92513319020789" lon="-9.377607056839347"><ele>22.0</ele><time>2026-04-19T11:14:39Z</time></trkpt><trkpt lat="38.925054408646425" lon="-9.377659492597157"><ele>22.0</ele><time>2026-04-19T11:14:42Z</time></trkpt><trkpt lat="38.92497270008173" lon="-9.37769984969044"><ele>22.0</ele><time>2026-04-19T11:14:45Z</time></trkpt><trkpt lat="38.92489627096299" lon="-9.377741042703997"><ele>22.0</ele><time>2026-04-19T11:14:47Z</time></trkpt><trkpt lat="38.924799444305066" lon="-9.377747331055765"><ele>22.0</ele><time>2026-04-19T11:14:49Z</time></trkpt><trkpt lat="38.924696468356956" lon="-9.377777569549853"><ele>22.0</ele><time>2026-04-19T11:14:51Z</time></trkpt><trkpt lat="38.924615258442344" lon="-9.377796804837834"><ele>22.0</ele><time>2026-04-19T11:14:53Z</time></trkpt><trkpt lat="38.924535442384425" lon="-9.377790841492674"><ele>22.0</ele><time>2026-04-19T11:14:55Z</time></trkpt><trkpt lat="38.92445498068556" lon="-9.377849958187177"><ele>22.0</ele><time>2026-04-19T11:14:57Z</time></trkpt><trkpt lat="38.92439967534244" lon="-9.377910049159391"><ele>22.0</ele><time>2026-04-19T11:14:59Z</time></trkpt><trkpt lat="38.924313730634196" lon="-9.37793170563751"><ele>22.0</ele><time>2026-04-19T11:15:01Z</time></trkpt><trkpt lat="38.9242160779581" lon="-9.37793932153422"><ele>22.0</ele><time>2026-04-19T11:15:03Z</time></trkpt><trkpt lat="38.92410976153507" lon="-9.377960662803"><ele>21.666666666666664</ele><time>2026-04-19T11:15:05Z</time></trkpt><trkpt lat="38.92399826000395" lon="-9.3779668791677"><ele>21.333333333333332</ele><time>2026-04-19T11:15:07Z</time></trkpt><trkpt lat="38.92391387626807" lon="-9.37790723885036"><ele>21.0</ele><time>2026-04-19T11:15:09Z</time></trkpt><trkpt lat="38.923847102264865" lon="-9.377914308635393"><ele>20.666666666666668</ele><time>2026-04-19T11:15:11Z</time></trkpt><trkpt lat="38.923779661925316" lon="-9.377901010488692"><ele>20.333333333333336</ele><time>2026-04-19T11:15:12Z</time></trkpt><trkpt lat="38.92369615319692" lon="-9.37788600714454"><ele>20.0</ele><time>2026-04-19T11:15:15Z</time></trkpt><trkpt lat="38.923619749647365" lon="-9.377830740260729"><ele>20.0</ele><time>2026-04-19T11:15:23Z</time></trkpt><trkpt lat="38.923522028163724" lon="-9.377802533233774"><ele>20.0</ele><time>2026-04-19T11:15:25Z</time></trkpt><trkpt lat="38.9234050919951" lon="-9.377772626883253"><ele>20.0</ele><time>2026-04-19T11:15:27Z</time></trkpt><trkpt lat="38.92330897848363" lon="-9.377768857918298"><ele>20.0</ele><time>2026-04-19T11:15:29Z</time></trkpt><trkpt lat="38.92322166075874" lon="-9.377746498031255"><ele>20.0</ele><time>2026-04-19T11:15:31Z</time></trkpt><trkpt lat="38.92314694296658" lon="-9.377741118427483"><ele>19.666666666666668</ele><time>2026-04-19T11:15:33Z</time></trkpt><trkpt lat="38.92306310002433" lon="-9.377713767113528"><ele>19.333333333333336</ele><time>2026-04-19T11:15:35Z</time></trkpt><trkpt lat="38.92299781873541" lon="-9.37765086668435"><ele>19.0</ele><time>2026-04-19T11:15:37Z</time></trkpt><trkpt lat="38.922927777162634" lon="-9.377605169667618"><ele>18.666666666666668</ele><time>2026-04-19T11:15:39Z</time></trkpt><trkpt lat="38.92284537821609" lon="-9.377585164944625"><ele>18.333333333333332</ele><time>2026-04-19T11:15:41Z</time></trkpt><trkpt lat="38.922754214012606" lon="-9.377539248606377"><ele>18.0</ele><time>2026-04-19T11:15:43Z</time></trkpt><trkpt lat="38.92266400893246" lon="-9.377494367353254"><ele>18.0</ele><time>2026-04-19T11:15:45Z</time></trkpt><trkpt lat="38.92257161855618" lon="-9.377408497578253"><ele>18.0</ele><time>2026-04-19T11:15:47Z</time></trkpt><trkpt lat="38.92248172007821" lon="-9.377327518419346"><ele>18.0</ele><time>2026-04-19T11:15:49Z</time></trkpt><trkpt lat="38.92237256991194" lon="-9.377320689986536"><ele>18.0</ele><time>2026-04-19T11:15:51Z</time></trkpt><trkpt lat="38.9222703014424" lon="-9.377259559373119"><ele>18.0</ele><time>2026-04-19T11:15:53Z</time></trkpt><trkpt lat="38.922176641910376" lon="-9.377203392476641"><ele>18.333333333333332</ele><time>2026-04-19T11:15:55Z</time></trkpt><trkpt lat="38.9221102310937" lon="-9.377142524775682"><ele>18.666666666666668</ele><time>2026-04-19T11:15:56.999Z</time></trkpt><trkpt lat="38.92205922567772" lon="-9.377054998755145"><ele>19.0</ele><time>2026-04-19T11:18:30.999Z</time></trkpt><trkpt lat="38.922000190476844" lon="-9.377003015707212"><ele>19.333333333333336</ele><time>2026-04-19T11:18:33.999Z</time></trkpt><trkpt lat="38.921932114076704" lon="-9.376964821145474"><ele>19.666666666666668</ele><time>2026-04-19T11:18:38.999Z</time></trkpt><trkpt lat="38.92185929794324" lon="-9.376900201652806"><ele>20.0</ele><time>2026-04-19T11:18:42.999Z</time></trkpt><trkpt lat="38.921796220646705" lon="-9.37681844415393"><ele>20.0</ele><time>2026-04-19T11:18:45.999Z</time></trkpt><trkpt lat="38.921731183813925" lon="-9.376795239165341"><ele>20.0</ele><time>2026-04-19T11:18:48.999Z</time></trkpt><trkpt lat="38.92179415974454" lon="-9.37682322199133"><ele>20.0</ele><time>2026-04-19T11:19:37.999Z</time></trkpt><trkpt lat="38.92185303601768" lon="-9.376876522889717"><ele>20.0</ele><time>2026-04-19T11:19:41.999Z</time></trkpt><trkpt lat="38.921913823166335" lon="-9.376939943316376"><ele>20.0</ele><time>2026-04-19T11:19:45.999Z</time></trkpt><trkpt lat="38.9219761877397" lon="-9.376992801995256"><ele>20.0</ele><time>2026-04-19T11:19:49.999Z</time></trkpt><trkpt lat="38.922037454050646" lon="-9.377041529049382"><ele>20.0</ele><time>2026-04-19T11:19:52.999Z</time></trkpt><trkpt lat="38.92199132058368" lon="-9.376985261391274"><ele>20.0</ele><time>2026-04-19T11:20:23.999Z</time></trkpt><trkpt lat="38.92192758208707" lon="-9.376967791358984"><ele>20.0</ele><time>2026-04-19T11:20:29.999Z</time></trkpt><trkpt lat="38.92189419670402" lon="-9.376890046903553"><ele>20.0</ele><time>2026-04-19T11:20:33.999Z</time></trkpt><trkpt lat="38.921831483746814" lon="-9.37690526339557"><ele>20.0</ele><time>2026-04-19T11:21:32.999Z</time></trkpt><trkpt lat="38.921798706699356" lon="-9.37683565665132"><ele>20.0</ele><time>2026-04-19T11:21:39.999Z</time></trkpt><trkpt lat="38.92175616655869" lon="-9.376769703894778"><ele>20.0</ele><time>2026-04-19T11:21:52.999Z</time></trkpt><trkpt lat="38.92169569068877" lon="-9.376726785392549"><ele>20.0</ele><time>2026-04-19T11:21:57.999Z</time></trkpt><trkpt lat="38.921619707338465" lon="-9.376733541821041"><ele>20.166666666666668</ele><time>2026-04-19T11:22:00.999Z</time></trkpt><trkpt lat="38.921515632528504" lon="-9.376734328808393"><ele>20.333333333333336</ele><time>2026-04-19T11:22:03.999Z</time></trkpt><trkpt lat="38.92146586539539" lon="-9.376670345188048"><ele>20.5</ele><time>2026-04-19T11:22:05.999Z</time></trkpt><trkpt lat="38.92139567060857" lon="-9.376597126771738"><ele>20.666666666666668</ele><time>2026-04-19T11:22:07.999Z</time></trkpt><trkpt lat="38.92135142287993" lon="-9.376509735576475"><ele>20.833333333333332</ele><time>2026-04-19T11:22:15.999Z</time></trkpt><trkpt lat="38.92129531475847" lon="-9.37646347077641"><ele>21.0</ele><time>2026-04-19T11:22:17.999Z</time></trkpt><trkpt lat="38.921219271256554" lon="-9.376434078885719"><ele>21.0</ele><time>2026-04-19T11:22:19.999Z</time></trkpt><trkpt lat="38.921137083893434" lon="-9.37638979245414"><ele>21.0</ele><time>2026-04-19T11:22:21.999Z</time></trkpt><trkpt lat="38.92107893844144" lon="-9.376304644467977"><ele>21.0</ele><time>2026-04-19T11:22:23.999Z</time></trkpt><trkpt lat="38.92103104208808" lon="-9.376202664799724"><ele>21.0</ele><time>2026-04-19T11:22:25.999Z</time></trkpt><trkpt lat="38.92098196974438" lon="-9.376141343658041"><ele>21.0</ele><time>2026-04-19T11:22:32.999Z</time></trkpt><trkpt lat="38.92092055569106" lon="-9.376075335352782"><ele>21.0</ele><time>2026-04-19T11:22:35.999Z</time></trkpt><trkpt lat="38.92086382709855" lon="-9.376017392527698"><ele>21.5</ele><time>2026-04-19T11:22:37.999Z</time></trkpt><trkpt lat="38.920804533528916" lon="-9.375966897841586"><ele>22.0</ele><time>2026-04-19T11:22:39.999Z</time></trkpt><trkpt lat="38.920724398843106" lon="-9.375911982449004"><ele>22.5</ele><time>2026-04-19T11:22:42.999Z</time></trkpt><trkpt lat="38.92068166827305" lon="-9.375821063293458"><ele>23.0</ele><time>2026-04-19T11:22:44.999Z</time></trkpt><trkpt lat="38.9206353028489" lon="-9.375742318127879"><ele>23.5</ele><time>2026-04-19T11:22:46.999Z</time></trkpt><trkpt lat="38.92056549112665" lon="-9.375679449385077"><ele>24.0</ele><time>2026-04-19T11:22:48.999Z</time></trkpt><trkpt lat="38.92056454564794" lon="-9.375577720442648"><ele>23.166666666666668</ele><time>2026-04-19T11:22:50.999Z</time></trkpt><trkpt lat="38.92059936736347" lon="-9.375450546959547"><ele>22.333333333333332</ele><time>2026-04-19T11:22:52.999Z</time></trkpt><trkpt lat="38.92059647847881" lon="-9.375358760077578"><ele>21.5</ele><time>2026-04-19T11:22:55.999Z</time></trkpt><trkpt lat="38.920595528935806" lon="-9.375275192121924"><ele>20.666666666666664</ele><time>2026-04-19T11:22:57.999Z</time></trkpt><trkpt lat="38.920592528818226" lon="-9.375179105244683"><ele>19.833333333333332</ele><time>2026-04-19T11:23:00.999Z</time></trkpt><trkpt lat="38.920565813829015" lon="-9.375095817164668"><ele>19.0</ele><time>2026-04-19T11:23:04.999Z</time></trkpt><trkpt lat="38.9205389404813" lon="-9.37499587020005"><ele>19.0</ele><time>2026-04-19T11:23:08.999Z</time></trkpt><trkpt lat="38.92051066695095" lon="-9.374921629995564"><ele>19.0</ele><time>2026-04-19T11:23:12.999Z</time></trkpt><trkpt lat="38.920479373566046" lon="-9.374835268997007"><ele>19.0</ele><time>2026-04-19T11:23:15.999Z</time></trkpt><trkpt lat="38.920454967916974" lon="-9.374741868846536"><ele>19.0</ele><time>2026-04-19T11:23:20.999Z</time></trkpt><trkpt lat="38.92043524951494" lon="-9.374663526684724"><ele>19.0</ele><time>2026-04-19T11:23:23.999Z</time></trkpt><trkpt lat="38.92041722320387" lon="-9.374563321720418"><ele>19.0</ele><time>2026-04-19T11:23:27.999Z</time></trkpt><trkpt lat="38.92041016234938" lon="-9.37446910329458"><ele>19.0</ele><time>2026-04-19T11:23:30.999Z</time></trkpt><trkpt lat="38.92039864074419" lon="-9.374348557065158"><ele>19.666666666666664</ele><time>2026-04-19T11:23:33.999Z</time></trkpt><trkpt lat="38.920377996036386" lon="-9.374270200330669"><ele>20.333333333333332</ele><time>2026-04-19T11:23:36.999Z</time></trkpt><trkpt lat="38.92033386271811" lon="-9.374171575898718"><ele>21.0</ele><time>2026-04-19T11:23:40.999Z</time></trkpt><trkpt lat="38.920324183607775" lon="-9.374073604216132"><ele>21.666666666666668</ele><time>2026-04-19T11:23:43.999Z</time></trkpt><trkpt lat="38.92032044643398" lon="-9.373982488133398"><ele>22.333333333333336</ele><time>2026-04-19T11:23:45.999Z</time></trkpt><trkpt lat="38.9202978968119" lon="-9.373877905027712"><ele>23.0</ele><time>2026-04-19T11:23:49.999Z</time></trkpt><trkpt lat="38.92035685405765" lon="-9.373761319911631"><ele>23.333333333333336</ele><time>2026-04-19T11:23:53.999Z</time></trkpt><trkpt lat="38.92041524093633" lon="-9.373697826217466"><ele>23.666666666666668</ele><time>2026-04-19T11:23:55.999Z</time></trkpt><trkpt lat="38.920439531705185" lon="-9.37362147454331"><ele>24.0</ele><time>2026-04-19T11:23:57.999Z</time></trkpt><trkpt lat="38.92041381596723" lon="-9.37352971790166"><ele>24.333333333333336</ele><time>2026-04-19T11:23:59.999Z</time></trkpt><trkpt lat="38.92035581068564" lon="-9.373440383013957"><ele>24.666666666666668</ele><time>2026-04-19T11:24:02.999Z</time></trkpt><trkpt lat="38.920337192489846" lon="-9.373336959422712"><ele>25.0</ele><time>2026-04-19T11:24:04.999Z</time></trkpt><trkpt lat="38.920334029869984" lon="-9.373253522301887"><ele>25.000000000000004</ele><time>2026-04-19T11:24:05.999Z</time></trkpt><trkpt lat="38.920326375763636" lon="-9.37316712998847"><ele>25.0</ele><time>2026-04-19T11:24:06.999Z</time></trkpt><trkpt lat="38.920314822853776" lon="-9.373085011627305"><ele>25.0</ele><time>2026-04-19T11:24:07.999Z</time></trkpt><trkpt lat="38.920265847845535" lon="-9.372935941923696"><ele>25.0</ele><time>2026-04-19T11:24:09.999Z</time></trkpt><trkpt lat="38.9202262044505" lon="-9.372869545579917"><ele>25.000000000000004</ele><time>2026-04-19T11:24:10.999Z</time></trkpt><trkpt lat="38.920151287824304" lon="-9.372767264380904"><ele>25.0</ele><time>2026-04-19T11:24:12.999Z</time></trkpt><trkpt lat="38.92008355460051" lon="-9.3726856930369"><ele>24.666666666666668</ele><time>2026-04-19T11:24:14.999Z</time></trkpt><trkpt lat="38.92002444874331" lon="-9.372652844419054"><ele>24.333333333333336</ele><time>2026-04-19T11:25:10.999Z</time></trkpt><trkpt lat="38.91997903168775" lon="-9.372568393855937"><ele>24.0</ele><time>2026-04-19T11:25:42.999Z</time></trkpt><trkpt lat="38.919905322560346" lon="-9.37249927396598"><ele>23.666666666666668</ele><time>2026-04-19T11:25:44.999Z</time></trkpt><trkpt lat="38.919806209072604" lon="-9.372469237153547"><ele>23.333333333333336</ele><time>2026-04-19T11:25:47.999Z</time></trkpt><trkpt lat="38.91974599344312" lon="-9.372403282995128"><ele>23.0</ele><time>2026-04-19T11:25:49.999Z</time></trkpt><trkpt lat="38.919654010555526" lon="-9.37239117069748"><ele>23.0</ele><time>2026-04-19T11:25:51.999Z</time></trkpt><trkpt lat="38.919589241510664" lon="-9.372372822954263"><ele>23.0</ele><time>2026-04-19T11:25:53.999Z</time></trkpt><trkpt lat="38.91952074179976" lon="-9.372358738981186"><ele>23.0</ele><time>2026-04-19T11:25:55.999Z</time></trkpt><trkpt lat="38.91934167271751" lon="-9.372375924275884"><ele>23.0</ele><time>2026-04-19T11:26:33.999Z</time></trkpt><trkpt lat="38.919283277215904" lon="-9.372417180301914"><ele>23.0</ele><time>2026-04-19T11:26:34.999Z</time></trkpt><trkpt lat="38.91921535070475" lon="-9.372454547998156"><ele>23.599999999999998</ele><time>2026-04-19T11:26:35.999Z</time></trkpt><trkpt lat="38.91911609099926" lon="-9.372537390929594"><ele>24.2</ele><time>2026-04-19T11:26:37.999Z</time></trkpt><trkpt lat="38.91905138605711" lon="-9.37259330195538"><ele>24.8</ele><time>2026-04-19T11:26:38.999Z</time></trkpt><trkpt lat="38.91896801418976" lon="-9.372694781477712"><ele>25.4</ele><time>2026-04-19T11:26:40.999Z</time></trkpt><trkpt lat="38.918916008062865" lon="-9.372762568905808"><ele>26.0</ele><time>2026-04-19T11:26:41.999Z</time></trkpt><trkpt lat="38.91885413706152" lon="-9.37286755263584"><ele>25.999999999999996</ele><time>2026-04-19T11:26:43.999Z</time></trkpt><trkpt lat="38.91879866186661" lon="-9.372907690414365"><ele>26.0</ele><time>2026-04-19T11:26:51.999Z</time></trkpt><trkpt lat="38.918745698295965" lon="-9.37295698377723"><ele>26.0</ele><time>2026-04-19T11:26:55.999Z</time></trkpt><trkpt lat="38.918679714115285" lon="-9.37302278922698"><ele>26.0</ele><time>2026-04-19T11:26:57.999Z</time></trkpt><trkpt lat="38.91859597092401" lon="-9.373080525206772"><ele>25.999999999999996</ele><time>2026-04-19T11:26:59.999Z</time></trkpt><trkpt lat="38.91852271748254" lon="-9.373114143784264"><ele>26.0</ele><time>2026-04-19T11:27:01.999Z</time></trkpt><trkpt lat="38.91842849172933" lon="-9.373142794518843"><ele>25.8</ele><time>2026-04-19T11:27:03.999Z</time></trkpt><trkpt lat="38.918307787562895" lon="-9.373147109271448"><ele>25.6</ele><time>2026-04-19T11:27:05.999Z</time></trkpt><trkpt lat="38.91818079565638" lon="-9.373141882926117"><ele>25.4</ele><time>2026-04-19T11:27:07.999Z</time></trkpt><trkpt lat="38.91811767289181" lon="-9.373129167679098"><ele>25.2</ele><time>2026-04-19T11:27:08.999Z</time></trkpt><trkpt lat="38.91800797267335" lon="-9.373102111863803"><ele>25.0</ele><time>2026-04-19T11:27:10.999Z</time></trkpt><trkpt lat="38.91789451425533" lon="-9.373073314602026"><ele>25.000000000000004</ele><time>2026-04-19T11:27:12.999Z</time></trkpt><trkpt lat="38.91783057186156" lon="-9.373062521723428"><ele>25.0</ele><time>2026-04-19T11:27:13.999Z</time></trkpt><trkpt lat="38.91771745892121" lon="-9.373000349554824"><ele>25.0</ele><time>2026-04-19T11:27:15.999Z</time></trkpt><trkpt lat="38.91767698530526" lon="-9.372913895840615"><ele>25.0</ele><time>2026-04-19T11:27:16.999Z</time></trkpt><trkpt lat="38.91762961869178" lon="-9.372837821295057"><ele>25.000000000000004</ele><time>2026-04-19T11:27:17.999Z</time></trkpt><trkpt lat="38.91757011715706" lon="-9.372793396548627"><ele>25.0</ele><time>2026-04-19T11:27:18.999Z</time></trkpt><trkpt lat="38.91750059075082" lon="-9.372722293664419"><ele>24.333333333333336</ele><time>2026-04-19T11:27:19.999Z</time></trkpt><trkpt lat="38.91741272618558" lon="-9.372689614541986"><ele>23.666666666666668</ele><time>2026-04-19T11:27:20.999Z</time></trkpt><trkpt lat="38.91734294518197" lon="-9.372685238787815"><ele>23.0</ele><time>2026-04-19T11:27:21.999Z</time></trkpt><trkpt lat="38.917269220805046" lon="-9.372688457787127"><ele>22.333333333333336</ele><time>2026-04-19T11:27:22.999Z</time></trkpt><trkpt lat="38.91714542842702" lon="-9.372714636017792"><ele>21.666666666666668</ele><time>2026-04-19T11:27:24.999Z</time></trkpt><trkpt lat="38.91708128961338" lon="-9.372726037012514"><ele>21.0</ele><time>2026-04-19T11:27:25.999Z</time></trkpt><trkpt lat="38.91700743856514" lon="-9.372729230690695"><ele>21.0</ele><time>2026-04-19T11:27:26.999Z</time></trkpt><trkpt lat="38.91695038759073" lon="-9.372693718974002"><ele>21.0</ele><time>2026-04-19T11:27:27.999Z</time></trkpt><trkpt lat="38.9168676582142" lon="-9.3726480129774"><ele>21.0</ele><time>2026-04-19T11:27:29.999Z</time></trkpt><trkpt lat="38.91680336822147" lon="-9.372598595296777"><ele>21.0</ele><time>2026-04-19T11:27:31.999Z</time></trkpt><trkpt lat="38.91674278752969" lon="-9.372555242332785"><ele>21.0</ele><time>2026-04-19T11:27:33.999Z</time></trkpt><trkpt lat="38.916678125119915" lon="-9.372513304475149"><ele>21.0</ele><time>2026-04-19T11:27:35.999Z</time></trkpt><trkpt lat="38.91660933095491" lon="-9.372487619064387"><ele>21.0</ele><time>2026-04-19T11:27:37.999Z</time></trkpt><trkpt lat="38.9165569297431" lon="-9.372432180562372"><ele>21.166666666666668</ele><time>2026-04-19T11:27:39.999Z</time></trkpt><trkpt lat="38.91648164468902" lon="-9.372443174954629"><ele>21.333333333333332</ele><time>2026-04-19T11:27:41.999Z</time></trkpt><trkpt lat="38.9163981139722" lon="-9.37244366137115"><ele>21.5</ele><time>2026-04-19T11:27:43.999Z</time></trkpt><trkpt lat="38.916328288162916" lon="-9.372423605597884"><ele>21.666666666666664</ele><time>2026-04-19T11:27:45.999Z</time></trkpt><trkpt lat="38.916216292398346" lon="-9.372426822774587"><ele>21.833333333333332</ele><time>2026-04-19T11:27:47.999Z</time></trkpt><trkpt lat="38.91614905585919" lon="-9.372443818881086"><ele>22.0</ele><time>2026-04-19T11:27:49.999Z</time></trkpt><trkpt lat="38.91606163474533" lon="-9.372492366355308"><ele>22.0</ele><time>2026-04-19T11:27:51.999Z</time></trkpt><trkpt lat="38.91600296090416" lon="-9.372530337188028"><ele>22.0</ele><time>2026-04-19T11:27:52.999Z</time></trkpt><trkpt lat="38.91591024507889" lon="-9.37255004357573"><ele>22.0</ele><time>2026-04-19T11:27:54.999Z</time></trkpt><trkpt lat="38.91581282197812" lon="-9.372577589920988"><ele>22.0</ele><time>2026-04-19T11:27:56.999Z</time></trkpt><trkpt lat="38.91575338267854" lon="-9.37260978675906"><ele>22.0</ele><time>2026-04-19T11:27:57.999Z</time></trkpt><trkpt lat="38.91565353475218" lon="-9.372675609098913"><ele>22.0</ele><time>2026-04-19T11:27:59.999Z</time></trkpt><trkpt lat="38.915574699791556" lon="-9.372717433540933"><ele>22.5</ele><time>2026-04-19T11:28:01.999Z</time></trkpt><trkpt lat="38.91549585122396" lon="-9.372770125971325"><ele>23.0</ele><time>2026-04-19T11:28:03.999Z</time></trkpt><trkpt lat="38.91542157446329" lon="-9.372799395762076"><ele>23.5</ele><time>2026-04-19T11:28:05.999Z</time></trkpt><trkpt lat="38.91535432152809" lon="-9.37282812623528"><ele>24.0</ele><time>2026-04-19T11:28:06.999Z</time></trkpt><trkpt lat="38.91528522031098" lon="-9.372844562765115"><ele>24.500000000000004</ele><time>2026-04-19T11:28:07.999Z</time></trkpt><trkpt lat="38.91521444207466" lon="-9.372855256359628"><ele>25.0</ele><time>2026-04-19T11:28:09.999Z</time></trkpt><trkpt lat="38.91512887838959" lon="-9.372910639670746"><ele>25.0</ele><time>2026-04-19T11:28:13.999Z</time></trkpt><trkpt lat="38.91507541441011" lon="-9.37296666892299"><ele>25.0</ele><time>2026-04-19T11:28:14.999Z</time></trkpt><trkpt lat="38.914997108554665" lon="-9.373091531843391"><ele>25.0</ele><time>2026-04-19T11:28:16.999Z</time></trkpt><trkpt lat="38.91495987648006" lon="-9.37316761983683"><ele>25.0</ele><time>2026-04-19T11:28:17.999Z</time></trkpt><trkpt lat="38.914914240247974" lon="-9.373242210023815"><ele>25.0</ele><time>2026-04-19T11:28:18.999Z</time></trkpt><trkpt lat="38.91484716123438" lon="-9.373374765099229"><ele>25.833333333333336</ele><time>2026-04-19T11:28:20.999Z</time></trkpt><trkpt lat="38.914773879347436" lon="-9.373469039104952"><ele>26.666666666666668</ele><time>2026-04-19T11:28:22.999Z</time></trkpt><trkpt lat="38.914733095846785" lon="-9.373584126188588"><ele>27.5</ele><time>2026-04-19T11:28:24.999Z</time></trkpt><trkpt lat="38.91469329993015" lon="-9.373674146436503"><ele>28.333333333333336</ele><time>2026-04-19T11:28:31.999Z</time></trkpt><trkpt lat="38.91463189662566" lon="-9.373705055976716"><ele>29.166666666666668</ele><time>2026-04-19T11:28:35.999Z</time></trkpt><trkpt lat="38.91455546726048" lon="-9.373751593419202"><ele>30.0</ele><time>2026-04-19T11:28:41.999Z</time></trkpt><trkpt lat="38.914450407353634" lon="-9.374018583866961"><ele>32.666666666666664</ele><time>2026-04-19T11:28:49Z</time></trkpt><trkpt lat="38.91437946456085" lon="-9.374093590037889"><ele>35.333333333333336</ele><time>2026-04-19T11:28:51Z</time></trkpt><trkpt lat="38.91433955152917" lon="-9.374193656943135"><ele>38.0</ele><time>2026-04-19T11:28:53Z</time></trkpt><trkpt lat="38.91434299232473" lon="-9.374305376172488"><ele>40.66666666666667</ele><time>2026-04-19T11:28:55Z</time></trkpt><trkpt lat="38.914316639056054" lon="-9.374380318602006"><ele>43.333333333333336</ele><time>2026-04-19T11:29:00.001Z</time></trkpt><trkpt lat="38.9142876286482" lon="-9.37445826415894"><ele>46.0</ele><time>2026-04-19T11:29:03Z</time></trkpt><trkpt lat="38.914253905707206" lon="-9.374539509655639"><ele>43.833333333333336</ele><time>2026-04-19T11:29:06Z</time></trkpt><trkpt lat="38.91421331894326" lon="-9.374637770324806"><ele>41.66666666666667</ele><time>2026-04-19T11:29:09Z</time></trkpt><trkpt lat="38.91416985162083" lon="-9.374719532926868"><ele>39.5</ele><time>2026-04-19T11:29:11Z</time></trkpt><trkpt lat="38.91411463135682" lon="-9.374840132892176"><ele>37.333333333333336</ele><time>2026-04-19T11:29:13Z</time></trkpt><trkpt lat="38.914093209832636" lon="-9.374931836461302"><ele>35.166666666666664</ele><time>2026-04-19T11:29:15Z</time></trkpt><trkpt lat="38.91405387517243" lon="-9.375016193091124"><ele>33.0</ele><time>2026-04-19T11:29:18Z</time></trkpt><trkpt lat="38.914027185552044" lon="-9.375100139446838"><ele>33.0</ele><time>2026-04-19T11:29:21Z</time></trkpt><trkpt lat="38.914021587946436" lon="-9.375181609973417"><ele>33.0</ele><time>2026-04-19T11:29:23Z</time></trkpt><trkpt lat="38.914003863781936" lon="-9.375260918971934"><ele>33.0</ele><time>2026-04-19T11:29:25Z</time></trkpt><trkpt lat="38.91395248094797" lon="-9.375329109999539"><ele>33.0</ele><time>2026-04-19T11:29:27Z</time></trkpt><trkpt lat="38.913899342185125" lon="-9.375428917294242"><ele>33.0</ele><time>2026-04-19T11:29:29Z</time></trkpt><trkpt lat="38.91385293925435" lon="-9.375511523238162"><ele>33.0</ele><time>2026-04-19T11:29:31Z</time></trkpt><trkpt lat="38.913784736035865" lon="-9.375591898420438"><ele>31.5</ele><time>2026-04-19T11:29:33Z</time></trkpt><trkpt lat="38.91372495247774" lon="-9.375635096635824"><ele>30.0</ele><time>2026-04-19T11:29:34Z</time></trkpt><trkpt lat="38.91365858065081" lon="-9.375701302991581"><ele>28.5</ele><time>2026-04-19T11:29:36Z</time></trkpt><trkpt lat="38.91356855062637" lon="-9.375764149135115"><ele>27.0</ele><time>2026-04-19T11:29:38Z</time></trkpt><trkpt lat="38.91348646394312" lon="-9.37583975665389"><ele>25.5</ele><time>2026-04-19T11:29:40Z</time></trkpt><trkpt lat="38.91339935018696" lon="-9.375874574708007"><ele>24.0</ele><time>2026-04-19T11:29:42Z</time></trkpt><trkpt lat="38.913330706595254" lon="-9.375857661199284"><ele>24.0</ele><time>2026-04-19T11:29:50Z</time></trkpt><trkpt lat="38.91329442551686" lon="-9.375767728328366"><ele>24.0</ele><time>2026-04-19T11:29:57Z</time></trkpt><trkpt lat="38.913236330019465" lon="-9.37568102337951"><ele>24.0</ele><time>2026-04-19T11:30:00.001Z</time></trkpt><trkpt lat="38.91317757872755" lon="-9.375639551744422"><ele>24.0</ele><time>2026-04-19T11:30:09.001Z</time></trkpt><trkpt lat="38.91312532181911" lon="-9.375589140222909"><ele>24.0</ele><time>2026-04-19T11:30:15.001Z</time></trkpt><trkpt lat="38.913054421973136" lon="-9.375560724586196"><ele>24.0</ele><time>2026-04-19T11:30:17.001Z</time></trkpt><trkpt lat="38.912987034887024" lon="-9.375479750401368"><ele>23.799999999999997</ele><time>2026-04-19T11:30:19.001Z</time></trkpt><trkpt lat="38.91294908282627" lon="-9.375370466283497"><ele>23.599999999999998</ele><time>2026-04-19T11:30:21.001Z</time></trkpt><trkpt lat="38.912902800502785" lon="-9.375249555724446"><ele>23.4</ele><time>2026-04-19T11:30:23.001Z</time></trkpt><trkpt lat="38.91289235958721" lon="-9.37510636376747"><ele>23.2</ele><time>2026-04-19T11:30:25.001Z</time></trkpt><trkpt lat="38.91287780582124" lon="-9.3749821988239"><ele>23.0</ele><time>2026-04-19T11:30:27.001Z</time></trkpt><trkpt lat="38.91283717721002" lon="-9.374874134783173"><ele>23.0</ele><time>2026-04-19T11:30:29.001Z</time></trkpt><trkpt lat="38.912786871363956" lon="-9.374717363321674"><ele>23.0</ele><time>2026-04-19T11:30:31.001Z</time></trkpt><trkpt lat="38.91278121340583" lon="-9.374625295093097"><ele>23.0</ele><time>2026-04-19T11:30:32.001Z</time></trkpt><trkpt lat="38.91277460304912" lon="-9.374532770561752"><ele>23.0</ele><time>2026-04-19T11:30:33.001Z</time></trkpt><trkpt lat="38.912771400903" lon="-9.374390948595408"><ele>23.0</ele><time>2026-04-19T11:30:35.001Z</time></trkpt><trkpt lat="38.91276168082436" lon="-9.374282524630775"><ele>23.333333333333336</ele><time>2026-04-19T11:30:37.001Z</time></trkpt><trkpt lat="38.91277377365627" lon="-9.374175288216202"><ele>23.666666666666668</ele><time>2026-04-19T11:30:39.001Z</time></trkpt><trkpt lat="38.9127701425916" lon="-9.374067112538185"><ele>24.0</ele><time>2026-04-19T11:30:41.001Z</time></trkpt><trkpt lat="38.912755201748546" lon="-9.373976106813501"><ele>24.333333333333336</ele><time>2026-04-19T11:30:43.001Z</time></trkpt><trkpt lat="38.912755894889976" lon="-9.373877600177003"><ele>24.666666666666668</ele><time>2026-04-19T11:30:45.001Z</time></trkpt><trkpt lat="38.91272193005593" lon="-9.373778725435361"><ele>25.0</ele><time>2026-04-19T11:30:47.001Z</time></trkpt><trkpt lat="38.91269468212614" lon="-9.373689678925656"><ele>25.8</ele><time>2026-04-19T11:30:49.001Z</time></trkpt><trkpt lat="38.91270456794306" lon="-9.373573536986871"><ele>26.6</ele><time>2026-04-19T11:30:51.001Z</time></trkpt><trkpt lat="38.912693264424846" lon="-9.373459455365936"><ele>27.4</ele><time>2026-04-19T11:30:53.001Z</time></trkpt><trkpt lat="38.912691907677505" lon="-9.373337475442955"><ele>28.2</ele><time>2026-04-19T11:30:55.001Z</time></trkpt><trkpt lat="38.91269789654486" lon="-9.373171915201983"><ele>29.0</ele><time>2026-04-19T11:30:57.001Z</time></trkpt><trkpt lat="38.91268167314412" lon="-9.373072574864851"><ele>29.799999999999997</ele><time>2026-04-19T11:30:58.001Z</time></trkpt><trkpt lat="38.91266236986133" lon="-9.372991858036375"><ele>30.599999999999998</ele><time>2026-04-19T11:30:59.001Z</time></trkpt><trkpt lat="38.91265448206993" lon="-9.3728994227305"><ele>31.4</ele><time>2026-04-19T11:31:00.001Z</time></trkpt><trkpt lat="38.91264665797526" lon="-9.372757300511383"><ele>32.199999999999996</ele><time>2026-04-19T11:31:02.001Z</time></trkpt><trkpt lat="38.912632306788986" lon="-9.372618434828889"><ele>33.0</ele><time>2026-04-19T11:31:04.001Z</time></trkpt><trkpt lat="38.91259840944393" lon="-9.372502401389884"><ele>33.0</ele><time>2026-04-19T11:31:07.001Z</time></trkpt><trkpt lat="38.91261933113898" lon="-9.372424775246179"><ele>33.0</ele><time>2026-04-19T11:31:08.001Z</time></trkpt><trkpt lat="38.912624498510624" lon="-9.372343401147182"><ele>33.0</ele><time>2026-04-19T11:31:09.001Z</time></trkpt><trkpt lat="38.912635000151674" lon="-9.372253317116117"><ele>33.0</ele><time>2026-04-19T11:31:10.001Z</time></trkpt><trkpt lat="38.91264475848269" lon="-9.372168778024507"><ele>33.0</ele><time>2026-04-19T11:31:11.001Z</time></trkpt><trkpt lat="38.91265313196626" lon="-9.372036480977757"><ele>33.0</ele><time>2026-04-19T11:31:13.001Z</time></trkpt><trkpt lat="38.91264630294334" lon="-9.371894781569974"><ele>32.833333333333336</ele><time>2026-04-19T11:31:15.001Z</time></trkpt><trkpt lat="38.91263051101022" lon="-9.371783988252668"><ele>32.666666666666664</ele><time>2026-04-19T11:31:16.001Z</time></trkpt><trkpt lat="38.91263534097012" lon="-9.37165814527631"><ele>32.5</ele><time>2026-04-19T11:31:17.001Z</time></trkpt><trkpt lat="38.91261806693873" lon="-9.37154863734423"><ele>32.33333333333333</ele><time>2026-04-19T11:31:18.001Z</time></trkpt><trkpt lat="38.91259012215981" lon="-9.371430586909213"><ele>32.166666666666664</ele><time>2026-04-19T11:31:19.001Z</time></trkpt><trkpt lat="38.91256379333992" lon="-9.371352700046327"><ele>32.0</ele><time>2026-04-19T11:31:20.001Z</time></trkpt><trkpt lat="38.91254385133206" lon="-9.371195726046547"><ele>31.999999999999996</ele><time>2026-04-19T11:31:22.001Z</time></trkpt><trkpt lat="38.912541969887904" lon="-9.371110968941588"><ele>32.0</ele><time>2026-04-19T11:31:23.001Z</time></trkpt><trkpt lat="38.91254808311532" lon="-9.370974250142163"><ele>32.0</ele><time>2026-04-19T11:31:25.001Z</time></trkpt><trkpt lat="38.91258275372423" lon="-9.370832918029308"><ele>32.0</ele><time>2026-04-19T11:31:27.001Z</time></trkpt><trkpt lat="38.912561560053106" lon="-9.370753791997677"><ele>31.999999999999996</ele><time>2026-04-19T11:31:28.001Z</time></trkpt><trkpt lat="38.912539236168435" lon="-9.370656088122473"><ele>32.0</ele><time>2026-04-19T11:31:29.001Z</time></trkpt><trkpt lat="38.91250682231145" lon="-9.370527009404013"><ele>30.833333333333332</ele><time>2026-04-19T11:31:30.001Z</time></trkpt><trkpt lat="38.91248224917721" lon="-9.370418720498808"><ele>29.666666666666664</ele><time>2026-04-19T11:31:31.001Z</time></trkpt><trkpt lat="38.91247179241055" lon="-9.370324039072035"><ele>28.5</ele><time>2026-04-19T11:31:32.001Z</time></trkpt><trkpt lat="38.91246810433622" lon="-9.370225736155081"><ele>27.333333333333336</ele><time>2026-04-19T11:31:33.001Z</time></trkpt><trkpt lat="38.91248258308096" lon="-9.37008305096694"><ele>26.166666666666668</ele><time>2026-04-19T11:31:35.001Z</time></trkpt><trkpt lat="38.912501929838776" lon="-9.369967941505227"><ele>25.0</ele><time>2026-04-19T11:31:37.001Z</time></trkpt><trkpt lat="38.91245289280686" lon="-9.369848190099798"><ele>25.000000000000004</ele><time>2026-04-19T11:31:39.001Z</time></trkpt><trkpt lat="38.912401308237264" lon="-9.369799325886621"><ele>25.0</ele><time>2026-04-19T11:31:40.001Z</time></trkpt><trkpt lat="38.91230852447992" lon="-9.369724735666706"><ele>25.0</ele><time>2026-04-19T11:31:42.001Z</time></trkpt><trkpt lat="38.912238727348054" lon="-9.369620089181048"><ele>25.0</ele><time>2026-04-19T11:31:44.001Z</time></trkpt><trkpt lat="38.912205111152474" lon="-9.36953277778516"><ele>25.000000000000004</ele><time>2026-04-19T11:31:46.001Z</time></trkpt><trkpt lat="38.91212159818062" lon="-9.369523698282231"><ele>25.0</ele><time>2026-04-19T11:31:49.001Z</time></trkpt><trkpt lat="38.91206130126163" lon="-9.369551807827456"><ele>25.000000000000004</ele><time>2026-04-19T11:31:51.001Z</time></trkpt><trkpt lat="38.91198416190215" lon="-9.36956231448479"><ele>25.0</ele><time>2026-04-19T11:31:52.001Z</time></trkpt><trkpt lat="38.91192127167089" lon="-9.369571653808485"><ele>25.0</ele><time>2026-04-19T11:31:53.001Z</time></trkpt><trkpt lat="38.911852497707855" lon="-9.369568425916027"><ele>25.0</ele><time>2026-04-19T11:31:54.001Z</time></trkpt><trkpt lat="38.9117720081978" lon="-9.369597764008658"><ele>25.000000000000004</ele><time>2026-04-19T11:31:55.001Z</time></trkpt><trkpt lat="38.91166807041523" lon="-9.369619845960528"><ele>25.0</ele><time>2026-04-19T11:31:56.001Z</time></trkpt><trkpt lat="38.911572909604125" lon="-9.369646765349573"><ele>25.166666666666668</ele><time>2026-04-19T11:31:57.001Z</time></trkpt><trkpt lat="38.911479583949294" lon="-9.36966535921373"><ele>25.333333333333336</ele><time>2026-04-19T11:31:58.001Z</time></trkpt><trkpt lat="38.91138740242599" lon="-9.369676800692318"><ele>25.5</ele><time>2026-04-19T11:31:59.001Z</time></trkpt><trkpt lat="38.91130903625366" lon="-9.369713193290098"><ele>25.666666666666664</ele><time>2026-04-19T11:32:00.001Z</time></trkpt><trkpt lat="38.91122811716717" lon="-9.369751686899413"><ele>25.833333333333332</ele><time>2026-04-19T11:32:01.001Z</time></trkpt><trkpt lat="38.9111527465186" lon="-9.369763538342955"><ele>26.0</ele><time>2026-04-19T11:32:02.001Z</time></trkpt><trkpt lat="38.911069143832925" lon="-9.369794082591062"><ele>26.4</ele><time>2026-04-19T11:32:03.001Z</time></trkpt><trkpt lat="38.91099573985486" lon="-9.369829476665577"><ele>26.8</ele><time>2026-04-19T11:32:04.001Z</time></trkpt><trkpt lat="38.91081092782754" lon="-9.369892601058282"><ele>27.199999999999996</ele><time>2026-04-19T11:32:28.001Z</time></trkpt><trkpt lat="38.91074376394431" lon="-9.369883004037836"><ele>27.599999999999998</ele><time>2026-04-19T11:32:29.001Z</time></trkpt><trkpt lat="38.9106353923497" lon="-9.369846779668672"><ele>28.0</ele><time>2026-04-19T11:32:31.001Z</time></trkpt><trkpt lat="38.91053365625618" lon="-9.36985727843095"><ele>28.000000000000004</ele><time>2026-04-19T11:32:33.001Z</time></trkpt><trkpt lat="38.91047227938861" lon="-9.369887735796558"><ele>28.0</ele><time>2026-04-19T11:32:34.001Z</time></trkpt><trkpt lat="38.91041005090459" lon="-9.369927025075702"><ele>28.0</ele><time>2026-04-19T11:32:35.001Z</time></trkpt><trkpt lat="38.91029273070741" lon="-9.369994603747795"><ele>28.0</ele><time>2026-04-19T11:32:37.001Z</time></trkpt><trkpt lat="38.910221137542926" lon="-9.370042359790059"><ele>28.000000000000004</ele><time>2026-04-19T11:32:38.001Z</time></trkpt><trkpt lat="38.91016417581155" lon="-9.370093746247685"><ele>28.0</ele><time>2026-04-19T11:32:39.001Z</time></trkpt><trkpt lat="38.9100585423867" lon="-9.37019746684084"><ele>27.599999999999998</ele><time>2026-04-19T11:32:41.001Z</time></trkpt><trkpt lat="38.90993447157904" lon="-9.370234058805067"><ele>27.199999999999996</ele><time>2026-04-19T11:32:43.001Z</time></trkpt><trkpt lat="38.909874573864535" lon="-9.370198382173639"><ele>26.8</ele><time>2026-04-19T11:32:44.001Z</time></trkpt><trkpt lat="38.90976297842935" lon="-9.370253066115303"><ele>26.4</ele><time>2026-04-19T11:32:46.001Z</time></trkpt><trkpt lat="38.90967361496758" lon="-9.370269226136024"><ele>26.0</ele><time>2026-04-19T11:32:48.001Z</time></trkpt><trkpt lat="38.90958012438174" lon="-9.370315477065285"><ele>25.999999999999996</ele><time>2026-04-19T11:32:52.001Z</time></trkpt><trkpt lat="38.90948683218655" lon="-9.370300271847945"><ele>26.0</ele><time>2026-04-19T11:32:54.001Z</time></trkpt><trkpt lat="38.909406672593306" lon="-9.370308276514129"><ele>26.0</ele><time>2026-04-19T11:32:57.001Z</time></trkpt><trkpt lat="38.90933916626232" lon="-9.37031353087984"><ele>26.0</ele><time>2026-04-19T11:33:01.001Z</time></trkpt><trkpt lat="38.90927061134181" lon="-9.370275745091773"><ele>25.999999999999996</ele><time>2026-04-19T11:33:04.001Z</time></trkpt><trkpt lat="38.9091947836036" lon="-9.370266553496835"><ele>26.0</ele><time>2026-04-19T11:33:06.001Z</time></trkpt><trkpt lat="38.909122370831156" lon="-9.370303697619633"><ele>24.8</ele><time>2026-04-19T11:33:08.001Z</time></trkpt><trkpt lat="38.9090220662232" lon="-9.370351985889185"><ele>23.6</ele><time>2026-04-19T11:33:10.001Z</time></trkpt><trkpt lat="38.90889639851693" lon="-9.370360085217728"><ele>22.4</ele><time>2026-04-19T11:33:12.001Z</time></trkpt><trkpt lat="38.90882799832539" lon="-9.370334474361846"><ele>21.2</ele><time>2026-04-19T11:33:13.001Z</time></trkpt><trkpt lat="38.90872195491487" lon="-9.370236558196112"><ele>20.0</ele><time>2026-04-19T11:33:15.001Z</time></trkpt><trkpt lat="38.9086655809571" lon="-9.370193965273403"><ele>20.0</ele><time>2026-04-19T11:33:16.001Z</time></trkpt><trkpt lat="38.90855179936526" lon="-9.370164632191669"><ele>20.0</ele><time>2026-04-19T11:33:18.001Z</time></trkpt><trkpt lat="38.90846853588154" lon="-9.370110148471348"><ele>20.0</ele><time>2026-04-19T11:33:20.001Z</time></trkpt><trkpt lat="38.90840439821812" lon="-9.370056419994077"><ele>20.0</ele><time>2026-04-19T11:33:24.001Z</time></trkpt><trkpt lat="38.90834131532596" lon="-9.369997907416638"><ele>20.0</ele><time>2026-04-19T11:33:27.001Z</time></trkpt><trkpt lat="38.90827717714352" lon="-9.369964973469887"><ele>20.0</ele><time>2026-04-19T11:33:30.001Z</time></trkpt><trkpt lat="38.908210312400584" lon="-9.369970304842116"><ele>20.333333333333336</ele><time>2026-04-19T11:33:34.001Z</time></trkpt><trkpt lat="38.90813902448454" lon="-9.369960106884278"><ele>20.666666666666668</ele><time>2026-04-19T11:33:37.001Z</time></trkpt><trkpt lat="38.90807910114367" lon="-9.369930935214047"><ele>21.0</ele><time>2026-04-19T11:33:40.001Z</time></trkpt><trkpt lat="38.90801339576884" lon="-9.369915411556411"><ele>21.333333333333332</ele><time>2026-04-19T11:33:42.001Z</time></trkpt><trkpt lat="38.90792693201771" lon="-9.369890493536301"><ele>21.666666666666664</ele><time>2026-04-19T11:33:44.001Z</time></trkpt><trkpt lat="38.90783591667149" lon="-9.369883385133832"><ele>22.0</ele><time>2026-04-19T11:33:46.001Z</time></trkpt><trkpt lat="38.907724211678" lon="-9.369880390868653"><ele>22.0</ele><time>2026-04-19T11:33:48.001Z</time></trkpt><trkpt lat="38.90762309714676" lon="-9.36986193579379"><ele>22.0</ele><time>2026-04-19T11:33:50.001Z</time></trkpt><trkpt lat="38.9074963707536" lon="-9.369833597806677"><ele>22.0</ele><time>2026-04-19T11:33:52.001Z</time></trkpt><trkpt lat="38.907378894401226" lon="-9.369853370187164"><ele>22.0</ele><time>2026-04-19T11:33:54.001Z</time></trkpt><trkpt lat="38.907247720145826" lon="-9.369868182244911"><ele>22.200000000000003</ele><time>2026-04-19T11:33:56.001Z</time></trkpt><trkpt lat="38.90718821100874" lon="-9.369897010657507"><ele>22.4</ele><time>2026-04-19T11:33:57.001Z</time></trkpt><trkpt lat="38.90707459752871" lon="-9.36994097634865"><ele>22.6</ele><time>2026-04-19T11:33:59.001Z</time></trkpt><trkpt lat="38.906958089777106" lon="-9.369959940679403"><ele>22.799999999999997</ele><time>2026-04-19T11:34:01.001Z</time></trkpt><trkpt lat="38.906894824871536" lon="-9.369971938728359"><ele>23.0</ele><time>2026-04-19T11:34:02.001Z</time></trkpt><trkpt lat="38.90678276122012" lon="-9.369990637428785"><ele>23.833333333333336</ele><time>2026-04-19T11:34:04.001Z</time></trkpt><trkpt lat="38.90667996207891" lon="-9.370040837834205"><ele>24.666666666666668</ele><time>2026-04-19T11:34:06.001Z</time></trkpt><trkpt lat="38.90661279330769" lon="-9.370045370385688"><ele>25.5</ele><time>2026-04-19T11:34:08.001Z</time></trkpt><trkpt lat="38.90653327964518" lon="-9.370035676906195"><ele>26.333333333333336</ele><time>2026-04-19T11:34:10.001Z</time></trkpt><trkpt lat="38.9064641773493" lon="-9.370034079769596"><ele>27.166666666666668</ele><time>2026-04-19T11:34:11.001Z</time></trkpt><trkpt lat="38.90634169639054" lon="-9.370045706078976"><ele>28.0</ele><time>2026-04-19T11:34:13.001Z</time></trkpt><trkpt lat="38.90623368173198" lon="-9.370058577470045"><ele>28.0</ele><time>2026-04-19T11:34:15.001Z</time></trkpt><trkpt lat="38.90617005520121" lon="-9.370059641942733"><ele>27.999999999999996</ele><time>2026-04-19T11:34:16.001Z</time></trkpt><trkpt lat="38.90606099241728" lon="-9.37004360331957"><ele>27.999999999999996</ele><time>2026-04-19T11:34:18.001Z</time></trkpt><trkpt lat="38.90596413081118" lon="-9.370019059591185"><ele>28.0</ele><time>2026-04-19T11:34:20.001Z</time></trkpt><trkpt lat="38.905881928347796" lon="-9.36996840063046"><ele>28.0</ele><time>2026-04-19T11:34:22.001Z</time></trkpt><trkpt lat="38.90580571492231" lon="-9.369850215128187"><ele>27.4</ele><time>2026-04-19T11:34:24.001Z</time></trkpt><trkpt lat="38.90575751880149" lon="-9.369742940423126"><ele>26.799999999999997</ele><time>2026-04-19T11:34:26.001Z</time></trkpt><trkpt lat="38.90571167021531" lon="-9.369613553550675"><ele>26.2</ele><time>2026-04-19T11:34:28.001Z</time></trkpt><trkpt lat="38.90563666627186" lon="-9.369552371860378"><ele>25.6</ele><time>2026-04-19T11:34:30.001Z</time></trkpt><trkpt lat="38.90557294728552" lon="-9.369441014262991"><ele>25.0</ele><time>2026-04-19T11:34:32.001Z</time></trkpt><trkpt lat="38.90552852093813" lon="-9.369314858032888"><ele>24.4</ele><time>2026-04-19T11:34:34.001Z</time></trkpt><trkpt lat="38.90544827786623" lon="-9.36923264118278"><ele>23.8</ele><time>2026-04-19T11:34:36.001Z</time></trkpt><trkpt lat="38.90536129817743" lon="-9.369189076783524"><ele>23.200000000000003</ele><time>2026-04-19T11:34:38.001Z</time></trkpt><trkpt lat="38.90530711838712" lon="-9.369034515103973"><ele>22.6</ele><time>2026-04-19T11:34:40.001Z</time></trkpt><trkpt lat="38.90524794044046" lon="-9.368914760796685"><ele>22.0</ele><time>2026-04-19T11:34:42.001Z</time></trkpt><trkpt lat="38.90516267852793" lon="-9.36879209068063"><ele>21.400000000000002</ele><time>2026-04-19T11:34:44.001Z</time></trkpt><trkpt lat="38.90511038782393" lon="-9.368731288885401"><ele>20.8</ele><time>2026-04-19T11:34:45.001Z</time></trkpt><trkpt lat="38.90505957550414" lon="-9.368675351271728"><ele>20.2</ele><time>2026-04-19T11:34:46.001Z</time></trkpt><trkpt lat="38.904977242659555" lon="-9.36857251086737"><ele>19.6</ele><time>2026-04-19T11:34:48.001Z</time></trkpt><trkpt lat="38.90488451935912" lon="-9.3684409131201"><ele>19.0</ele><time>2026-04-19T11:34:50.001Z</time></trkpt><trkpt lat="38.904841730799795" lon="-9.368364120517834"><ele>19.0</ele><time>2026-04-19T11:34:51.001Z</time></trkpt><trkpt lat="38.904791852258654" lon="-9.368291195218221"><ele>19.0</ele><time>2026-04-19T11:34:52.001Z</time></trkpt><trkpt lat="38.90473911901914" lon="-9.368222216539511"><ele>19.0</ele><time>2026-04-19T11:34:53.001Z</time></trkpt><trkpt lat="38.90468403488956" lon="-9.368160658484321"><ele>19.0</ele><time>2026-04-19T11:34:54.001Z</time></trkpt><trkpt lat="38.904623281887325" lon="-9.368094505153898"><ele>19.0</ele><time>2026-04-19T11:34:55.001Z</time></trkpt><trkpt lat="38.904575151509526" lon="-9.36803253370685"><ele>19.0</ele><time>2026-04-19T11:34:56.001Z</time></trkpt><trkpt lat="38.904524071639635" lon="-9.367933317012401"><ele>20.0</ele><time>2026-04-19T11:34:58.001Z</time></trkpt><trkpt lat="38.904481461131425" lon="-9.367835614577432"><ele>21.0</ele><time>2026-04-19T11:35:00.001Z</time></trkpt><trkpt lat="38.90443615171417" lon="-9.367767752452982"><ele>22.0</ele><time>2026-04-19T11:35:02.001Z</time></trkpt><trkpt lat="38.9043574405016" lon="-9.367634475394276"><ele>23.0</ele><time>2026-04-19T11:35:04.001Z</time></trkpt><trkpt lat="38.90431272359859" lon="-9.36752814839912"><ele>24.0</ele><time>2026-04-19T11:35:05.001Z</time></trkpt><trkpt lat="38.90428276426131" lon="-9.367392639369287"><ele>24.0</ele><time>2026-04-19T11:35:06.001Z</time></trkpt><trkpt lat="38.90427043597192" lon="-9.367264777682234"><ele>24.0</ele><time>2026-04-19T11:35:07.001Z</time></trkpt><trkpt lat="38.904275323564065" lon="-9.367117811625544"><ele>24.0</ele><time>2026-04-19T11:35:08.001Z</time></trkpt><trkpt lat="38.904279647975116" lon="-9.367000501361815"><ele>24.0</ele><time>2026-04-19T11:35:09.001Z</time></trkpt><trkpt lat="38.90428180190865" lon="-9.366910083132566"><ele>24.0</ele><time>2026-04-19T11:35:10.001Z</time></trkpt><trkpt lat="38.90430644563866" lon="-9.366820658080538"><ele>24.0</ele><time>2026-04-19T11:35:11.001Z</time></trkpt><trkpt lat="38.904333255363774" lon="-9.366728590874198"><ele>24.0</ele><time>2026-04-19T11:35:12.001Z</time></trkpt><trkpt lat="38.90435323219558" lon="-9.366619802783484"><ele>24.0</ele><time>2026-04-19T11:35:13.001Z</time></trkpt><trkpt lat="38.904361074347015" lon="-9.366511131564485"><ele>24.0</ele><time>2026-04-19T11:35:14.001Z</time></trkpt><trkpt lat="38.904403876353605" lon="-9.366421859913308"><ele>24.0</ele><time>2026-04-19T11:35:15.001Z</time></trkpt><trkpt lat="38.90447628754338" lon="-9.366341866053522"><ele>24.0</ele><time>2026-04-19T11:35:16.001Z</time></trkpt><trkpt lat="38.90456772869534" lon="-9.366262125700231"><ele>24.166666666666668</ele><time>2026-04-19T11:35:17.001Z</time></trkpt><trkpt lat="38.90463720911691" lon="-9.366167542630254"><ele>24.333333333333336</ele><time>2026-04-19T11:35:18.001Z</time></trkpt><trkpt lat="38.90468747966649" lon="-9.36609553977436"><ele>24.5</ele><time>2026-04-19T11:35:19.001Z</time></trkpt><trkpt lat="38.90472131889013" lon="-9.366010685718141"><ele>24.666666666666668</ele><time>2026-04-19T11:35:20.001Z</time></trkpt><trkpt lat="38.90476312179987" lon="-9.365937150194009"><ele>24.833333333333336</ele><time>2026-04-19T11:35:21.001Z</time></trkpt><trkpt lat="38.90480788002458" lon="-9.365835530628292"><ele>25.0</ele><time>2026-04-19T11:35:22.001Z</time></trkpt><trkpt lat="38.90485882378643" lon="-9.365758288747598"><ele>25.0</ele><time>2026-04-19T11:35:23.001Z</time></trkpt><trkpt lat="38.904921730083664" lon="-9.365686730366109"><ele>25.0</ele><time>2026-04-19T11:35:24.001Z</time></trkpt><trkpt lat="38.90497581010928" lon="-9.36559424108826"><ele>25.0</ele><time>2026-04-19T11:35:25.001Z</time></trkpt><trkpt lat="38.90504563171911" lon="-9.365501804944435"><ele>25.0</ele><time>2026-04-19T11:35:26.001Z</time></trkpt><trkpt lat="38.90510788103952" lon="-9.36539682231073"><ele>25.0</ele><time>2026-04-19T11:35:27.001Z</time></trkpt><trkpt lat="38.905165989113314" lon="-9.365291732585527"><ele>26.500000000000004</ele><time>2026-04-19T11:35:28.001Z</time></trkpt><trkpt lat="38.905216568913325" lon="-9.365188793712012"><ele>28.0</ele><time>2026-04-19T11:35:29.001Z</time></trkpt><trkpt lat="38.90525151628859" lon="-9.365093636024067"><ele>29.5</ele><time>2026-04-19T11:35:30.001Z</time></trkpt><trkpt lat="38.90528886756369" lon="-9.365000647525067"><ele>31.0</ele><time>2026-04-19T11:35:31.001Z</time></trkpt><trkpt lat="38.90532110949837" lon="-9.364893631818981"><ele>32.5</ele><time>2026-04-19T11:35:32.001Z</time></trkpt><trkpt lat="38.90534554928084" lon="-9.36479424687231"><ele>34.0</ele><time>2026-04-19T11:35:33.001Z</time></trkpt><trkpt lat="38.905367893779335" lon="-9.364697069573063"><ele>33.8</ele><time>2026-04-19T11:35:34.001Z</time></trkpt><trkpt lat="38.90539042336363" lon="-9.364582617880549"><ele>33.599999999999994</ele><time>2026-04-19T11:35:35.001Z</time></trkpt><trkpt lat="38.90540041484587" lon="-9.364464336841543"><ele>33.4</ele><time>2026-04-19T11:35:36.001Z</time></trkpt><trkpt lat="38.90540512120601" lon="-9.364349526549942"><ele>33.199999999999996</ele><time>2026-04-19T11:35:37.001Z</time></trkpt><trkpt lat="38.905407854430514" lon="-9.364238651109702"><ele>33.0</ele><time>2026-04-19T11:35:38.001Z</time></trkpt><trkpt lat="38.90541470408746" lon="-9.364110725987043"><ele>33.0</ele><time>2026-04-19T11:35:39.001Z</time></trkpt><trkpt lat="38.90542082160416" lon="-9.363979956144963"><ele>33.0</ele><time>2026-04-19T11:35:40.001Z</time></trkpt><trkpt lat="38.90543102725148" lon="-9.36384541242351"><ele>33.0</ele><time>2026-04-19T11:35:41.001Z</time></trkpt><trkpt lat="38.905418460324405" lon="-9.363708879452098"><ele>33.0</ele><time>2026-04-19T11:35:42.001Z</time></trkpt><trkpt lat="38.90542488677102" lon="-9.363582858174215"><ele>33.0</ele><time>2026-04-19T11:35:43.001Z</time></trkpt><trkpt lat="38.90543424179587" lon="-9.363490602048099"><ele>32.199999999999996</ele><time>2026-04-19T11:35:44.001Z</time></trkpt><trkpt lat="38.90544683694252" lon="-9.363380351604269"><ele>31.4</ele><time>2026-04-19T11:35:45.001Z</time></trkpt><trkpt lat="38.90547178067334" lon="-9.363263462594235"><ele>30.599999999999998</ele><time>2026-04-19T11:35:46.001Z</time></trkpt><trkpt lat="38.90549865481018" lon="-9.363134352061413"><ele>29.799999999999997</ele><time>2026-04-19T11:35:47.001Z</time></trkpt><trkpt lat="38.90554408241294" lon="-9.363025555007969"><ele>29.0</ele><time>2026-04-19T11:35:48.001Z</time></trkpt><trkpt lat="38.90559435666625" lon="-9.362926192238435"><ele>28.833333333333332</ele><time>2026-04-19T11:35:49.001Z</time></trkpt><trkpt lat="38.905635463700776" lon="-9.36283755277193"><ele>28.666666666666664</ele><time>2026-04-19T11:35:50.001Z</time></trkpt><trkpt lat="38.90566008192995" lon="-9.362747437556298"><ele>28.5</ele><time>2026-04-19T11:35:51.001Z</time></trkpt><trkpt lat="38.90568121177222" lon="-9.362643236291126"><ele>28.333333333333336</ele><time>2026-04-19T11:35:52.001Z</time></trkpt><trkpt lat="38.90570642377867" lon="-9.362544411163238"><ele>28.166666666666668</ele><time>2026-04-19T11:35:53.001Z</time></trkpt><trkpt lat="38.90571721172421" lon="-9.362436895134783"><ele>28.0</ele><time>2026-04-19T11:35:54.001Z</time></trkpt><trkpt lat="38.905734956758664" lon="-9.362332122624775"><ele>28.000000000000004</ele><time>2026-04-19T11:35:55.001Z</time></trkpt><trkpt lat="38.905730654183365" lon="-9.362231782621802"><ele>28.0</ele><time>2026-04-19T11:35:56.001Z</time></trkpt><trkpt lat="38.90572421525329" lon="-9.362128282708612"><ele>28.0</ele><time>2026-04-19T11:35:57.001Z</time></trkpt><trkpt lat="38.905707632662775" lon="-9.36202093223051"><ele>28.0</ele><time>2026-04-19T11:35:58.001Z</time></trkpt><trkpt lat="38.90569554167035" lon="-9.36190082740393"><ele>28.000000000000004</ele><time>2026-04-19T11:35:59.001Z</time></trkpt><trkpt lat="38.905676859837016" lon="-9.361790289144524"><ele>28.0</ele><time>2026-04-19T11:36:00.001Z</time></trkpt><trkpt lat="38.90565371593956" lon="-9.361671055682653"><ele>28.0</ele><time>2026-04-19T11:36:01.001Z</time></trkpt><trkpt lat="38.90564068165027" lon="-9.361577436570437"><ele>27.999999999999996</ele><time>2026-04-19T11:36:02.001Z</time></trkpt><trkpt lat="38.90563138227813" lon="-9.361476170101017"><ele>27.999999999999996</ele><time>2026-04-19T11:36:03.001Z</time></trkpt><trkpt lat="38.90562788430974" lon="-9.361354302783377"><ele>28.0</ele><time>2026-04-19T11:36:04.001Z</time></trkpt><trkpt lat="38.90560926928565" lon="-9.361210499394259"><ele>28.0</ele><time>2026-04-19T11:36:05.001Z</time></trkpt><trkpt lat="38.9055737276999" lon="-9.361097645779358"><ele>28.0</ele><time>2026-04-19T11:36:06.001Z</time></trkpt><trkpt lat="38.905531088611404" lon="-9.361007011534987"><ele>27.999999999999996</ele><time>2026-04-19T11:36:07.001Z</time></trkpt><trkpt lat="38.90545453322118" lon="-9.360926654662832"><ele>27.999999999999996</ele><time>2026-04-19T11:36:08.001Z</time></trkpt><trkpt lat="38.905369539067216" lon="-9.360874233090916"><ele>28.0</ele><time>2026-04-19T11:36:09.001Z</time></trkpt><trkpt lat="38.90527199684886" lon="-9.360855191157045"><ele>28.0</ele><time>2026-04-19T11:36:10.001Z</time></trkpt><trkpt lat="38.90515502173982" lon="-9.360840927195767"><ele>27.0</ele><time>2026-04-19T11:36:11.001Z</time></trkpt><trkpt lat="38.90502817647595" lon="-9.360848473610238"><ele>26.0</ele><time>2026-04-19T11:36:12.001Z</time></trkpt><trkpt lat="38.90491776224472" lon="-9.36084890091014"><ele>25.0</ele><time>2026-04-19T11:36:13.001Z</time></trkpt><trkpt lat="38.90479370990949" lon="-9.360834758491128"><ele>24.0</ele><time>2026-04-19T11:36:14.001Z</time></trkpt><trkpt lat="38.90466270208762" lon="-9.360846265583314"><ele>24.0</ele><time>2026-04-19T11:36:15.001Z</time></trkpt><trkpt lat="38.90454726334402" lon="-9.360868761673967"><ele>24.0</ele><time>2026-04-19T11:36:16.001Z</time></trkpt><trkpt lat="38.904466912960245" lon="-9.360895565638856"><ele>24.0</ele><time>2026-04-19T11:36:17.001Z</time></trkpt><trkpt lat="38.90439963937828" lon="-9.36091567321993"><ele>24.0</ele><time>2026-04-19T11:36:18.001Z</time></trkpt><trkpt lat="38.90427561559168" lon="-9.360937069630292"><ele>24.0</ele><time>2026-04-19T11:36:20.001Z</time></trkpt><trkpt lat="38.90415492049074" lon="-9.360975897172516"><ele>24.0</ele><time>2026-04-19T11:36:22.001Z</time></trkpt><trkpt lat="38.904068603901095" lon="-9.360975889196157"><ele>24.0</ele><time>2026-04-19T11:36:23.001Z</time></trkpt><trkpt lat="38.903987466481205" lon="-9.360989915569595"><ele>24.0</ele><time>2026-04-19T11:36:24.001Z</time></trkpt><trkpt lat="38.903920148759546" lon="-9.361008862974357"><ele>24.0</ele><time>2026-04-19T11:36:25.001Z</time></trkpt><trkpt lat="38.903847551798684" lon="-9.36104823706897"><ele>24.0</ele><time>2026-04-19T11:36:27.001Z</time></trkpt><trkpt lat="38.90384023151045" lon="-9.360952508383233"><ele>24.0</ele><time>2026-04-19T11:36:40.001Z</time></trkpt><trkpt lat="38.90378426453164" lon="-9.360903739525192"><ele>24.0</ele><time>2026-04-19T11:36:43.001Z</time></trkpt><trkpt lat="38.903729052358656" lon="-9.360849762443856"><ele>24.0</ele><time>2026-04-19T11:36:46.001Z</time></trkpt><trkpt lat="38.903666917541585" lon="-9.3608109315419"><ele>24.0</ele><time>2026-04-19T11:36:48.001Z</time></trkpt><trkpt lat="38.90358743296656" lon="-9.360779329509874"><ele>24.0</ele><time>2026-04-19T11:36:50.001Z</time></trkpt><trkpt lat="38.90350603194456" lon="-9.360805792358628"><ele>24.0</ele><time>2026-04-19T11:36:52.001Z</time></trkpt><trkpt lat="38.90343809906024" lon="-9.360826873291142"><ele>24.0</ele><time>2026-04-19T11:36:55.001Z</time></trkpt><trkpt lat="38.9033663719454" lon="-9.36085237601675"><ele>24.0</ele><time>2026-04-19T11:37:17.001Z</time></trkpt><trkpt lat="38.903232717935204" lon="-9.360895605347235"><ele>24.0</ele><time>2026-04-19T11:37:19.001Z</time></trkpt><trkpt lat="38.903145736405214" lon="-9.36095255885509"><ele>24.0</ele><time>2026-04-19T11:37:20.001Z</time></trkpt><trkpt lat="38.90303690695812" lon="-9.361002479573513"><ele>24.0</ele><time>2026-04-19T11:37:21.001Z</time></trkpt><trkpt lat="38.90291458628407" lon="-9.361070937225746"><ele>24.0</ele><time>2026-04-19T11:37:22.001Z</time></trkpt><trkpt lat="38.90277977680604" lon="-9.361106817632878"><ele>24.0</ele><time>2026-04-19T11:37:23.001Z</time></trkpt><trkpt lat="38.902660682953496" lon="-9.361158006093374"><ele>24.0</ele><time>2026-04-19T11:37:24.001Z</time></trkpt><trkpt lat="38.90251686950642" lon="-9.361220973887194"><ele>24.0</ele><time>2026-04-19T11:37:25.001Z</time></trkpt><trkpt lat="38.90240448487525" lon="-9.36125505441368"><ele>24.6</ele><time>2026-04-19T11:37:26.001Z</time></trkpt><trkpt lat="38.90230148299695" lon="-9.36129386965998"><ele>25.2</ele><time>2026-04-19T11:37:27.001Z</time></trkpt><trkpt lat="38.902210102070995" lon="-9.36133727388108"><ele>25.800000000000004</ele><time>2026-04-19T11:37:28.001Z</time></trkpt><trkpt lat="38.90211077728438" lon="-9.361366732561635"><ele>26.400000000000002</ele><time>2026-04-19T11:37:29.001Z</time></trkpt><trkpt lat="38.902032707522" lon="-9.361397727029374"><ele>27.0</ele><time>2026-04-19T11:37:30.001Z</time></trkpt><trkpt lat="38.901904231486206" lon="-9.361463279084337"><ele>27.200000000000003</ele><time>2026-04-19T11:37:32.001Z</time></trkpt><trkpt lat="38.90180140794252" lon="-9.361493288651834"><ele>27.400000000000002</ele><time>2026-04-19T11:37:33.001Z</time></trkpt><trkpt lat="38.90169605927564" lon="-9.361536963350902"><ele>27.599999999999998</ele><time>2026-04-19T11:37:34.001Z</time></trkpt><trkpt lat="38.901604153554466" lon="-9.361562145801882"><ele>27.799999999999997</ele><time>2026-04-19T11:37:35.001Z</time></trkpt><trkpt lat="38.901513717725855" lon="-9.361589957312471"><ele>28.0</ele><time>2026-04-19T11:37:36.001Z</time></trkpt><trkpt lat="38.90141816796858" lon="-9.361623737356974"><ele>28.0</ele><time>2026-04-19T11:37:37.001Z</time></trkpt><trkpt lat="38.90132352771882" lon="-9.361650455462257"><ele>27.999999999999996</ele><time>2026-04-19T11:37:38.001Z</time></trkpt><trkpt lat="38.901236552815796" lon="-9.361678799287224"><ele>27.999999999999996</ele><time>2026-04-19T11:37:39.001Z</time></trkpt><trkpt lat="38.901154266016825" lon="-9.36172130081676"><ele>28.0</ele><time>2026-04-19T11:37:40.001Z</time></trkpt><trkpt lat="38.90106982541732" lon="-9.361724965940574"><ele>28.0</ele><time>2026-04-19T11:37:41.001Z</time></trkpt><trkpt lat="38.90098120928289" lon="-9.361743722715135"><ele>27.500000000000004</ele><time>2026-04-19T11:37:42.001Z</time></trkpt><trkpt lat="38.900893472706144" lon="-9.36172797564233"><ele>27.0</ele><time>2026-04-19T11:37:43.001Z</time></trkpt><trkpt lat="38.90081212130981" lon="-9.361702075591246"><ele>26.5</ele><time>2026-04-19T11:37:44.001Z</time></trkpt><trkpt lat="38.90073233328452" lon="-9.361654855208041"><ele>26.0</ele><time>2026-04-19T11:37:45.001Z</time></trkpt><trkpt lat="38.90066196252283" lon="-9.361589557822768"><ele>25.500000000000004</ele><time>2026-04-19T11:37:46.001Z</time></trkpt><trkpt lat="38.90063050022046" lon="-9.36146753449848"><ele>25.0</ele><time>2026-04-19T11:37:47.001Z</time></trkpt><trkpt lat="38.90067423265675" lon="-9.36132059528399"><ele>25.0</ele><time>2026-04-19T11:37:48.001Z</time></trkpt><trkpt lat="38.90052205145294" lon="-9.36127045773449"><ele>25.0</ele><time>2026-04-19T11:37:49.001Z</time></trkpt><trkpt lat="38.90049989718308" lon="-9.361154296318693"><ele>25.0</ele><time>2026-04-19T11:37:50.001Z</time></trkpt><trkpt lat="38.90048401534353" lon="-9.361040010558833"><ele>25.0</ele><time>2026-04-19T11:37:51.001Z</time></trkpt><trkpt lat="38.90047837767321" lon="-9.360949581942972"><ele>25.0</ele><time>2026-04-19T11:37:52.001Z</time></trkpt><trkpt lat="38.90049222459073" lon="-9.360817826843558"><ele>25.0</ele><time>2026-04-19T11:37:54.001Z</time></trkpt><trkpt lat="38.90050148698067" lon="-9.360647267768327"><ele>25.0</ele><time>2026-04-19T11:38:11.001Z</time></trkpt><trkpt lat="38.90051326895407" lon="-9.36051291538717"><ele>25.0</ele><time>2026-04-19T11:38:12.001Z</time></trkpt><trkpt lat="38.9005397510117" lon="-9.360398099173539"><ele>25.0</ele><time>2026-04-19T11:38:13.001Z</time></trkpt><trkpt lat="38.90056538360426" lon="-9.360276223982376"><ele>25.0</ele><time>2026-04-19T11:38:14.001Z</time></trkpt><trkpt lat="38.90055465490439" lon="-9.360153029693173"><ele>25.6</ele><time>2026-04-19T11:38:15.001Z</time></trkpt><trkpt lat="38.900590911313266" lon="-9.360054614589608"><ele>26.2</ele><time>2026-04-19T11:38:16.001Z</time></trkpt><trkpt lat="38.900607573722354" lon="-9.359927492327554"><ele>26.799999999999997</ele><time>2026-04-19T11:38:17.001Z</time></trkpt><trkpt lat="38.90060678666279" lon="-9.359794126907207"><ele>27.4</ele><time>2026-04-19T11:38:18.001Z</time></trkpt><trkpt lat="38.90060365917078" lon="-9.359665291027266"><ele>28.0</ele><time>2026-04-19T11:38:19.001Z</time></trkpt><trkpt lat="38.90060241454737" lon="-9.359553830909814"><ele>28.2</ele><time>2026-04-19T11:38:20.001Z</time></trkpt><trkpt lat="38.90059959575806" lon="-9.359420596432185"><ele>28.4</ele><time>2026-04-19T11:38:21.001Z</time></trkpt><trkpt lat="38.90057870801288" lon="-9.359287927382088"><ele>28.599999999999998</ele><time>2026-04-19T11:38:22.001Z</time></trkpt><trkpt lat="38.90053320647114" lon="-9.359163246503623"><ele>28.799999999999997</ele><time>2026-04-19T11:38:23.001Z</time></trkpt><trkpt lat="38.900502007789" lon="-9.359042000671288"><ele>29.0</ele><time>2026-04-19T11:38:24.001Z</time></trkpt><trkpt lat="38.90048202593228" lon="-9.358922079307085"><ele>28.666666666666664</ele><time>2026-04-19T11:38:25.001Z</time></trkpt><trkpt lat="38.90046446332363" lon="-9.358789575098601"><ele>28.333333333333332</ele><time>2026-04-19T11:38:26.001Z</time></trkpt><trkpt lat="38.90046406847122" lon="-9.358656859256559"><ele>28.0</ele><time>2026-04-19T11:38:27.001Z</time></trkpt><trkpt lat="38.9004880212499" lon="-9.358536190326395"><ele>27.666666666666664</ele><time>2026-04-19T11:38:28.001Z</time></trkpt><trkpt lat="38.90049268240558" lon="-9.358442865953903"><ele>27.333333333333332</ele><time>2026-04-19T11:38:29.001Z</time></trkpt><trkpt lat="38.90047928453232" lon="-9.358356327584497"><ele>27.0</ele><time>2026-04-19T11:38:30.001Z</time></trkpt><trkpt lat="38.900517322437295" lon="-9.358224422884597"><ele>27.0</ele><time>2026-04-19T11:38:32.001Z</time></trkpt><trkpt lat="38.90058885013086" lon="-9.358168161395803"><ele>27.000000000000004</ele><time>2026-04-19T11:38:34.001Z</time></trkpt><trkpt lat="38.900522113651256" lon="-9.358238389744649"><ele>27.000000000000004</ele><time>2026-04-19T11:38:55.001Z</time></trkpt><trkpt lat="38.90048621820281" lon="-9.358305723651567"><ele>27.0</ele><time>2026-04-19T11:38:56.001Z</time></trkpt><trkpt lat="38.900473504890265" lon="-9.35847362606704"><ele>27.0</ele><time>2026-04-19T11:38:58.001Z</time></trkpt><trkpt lat="38.90048604272511" lon="-9.358585249876588"><ele>27.0</ele><time>2026-04-19T11:38:59.001Z</time></trkpt><trkpt lat="38.90048821166214" lon="-9.35872290071609"><ele>27.0</ele><time>2026-04-19T11:39:00.001Z</time></trkpt><trkpt lat="38.90047915777924" lon="-9.3588579346824"><ele>27.0</ele><time>2026-04-19T11:39:01.001Z</time></trkpt><trkpt lat="38.90047882522042" lon="-9.359009703121446"><ele>27.0</ele><time>2026-04-19T11:39:02.001Z</time></trkpt><trkpt lat="38.900518422277955" lon="-9.35917612431884"><ele>27.200000000000003</ele><time>2026-04-19T11:39:03.001Z</time></trkpt><trkpt lat="38.90055180295297" lon="-9.359311825329506"><ele>27.400000000000002</ele><time>2026-04-19T11:39:04.001Z</time></trkpt><trkpt lat="38.900592635885126" lon="-9.359445512466335"><ele>27.599999999999998</ele><time>2026-04-19T11:39:05.001Z</time></trkpt><trkpt lat="38.9006131767045" lon="-9.35957155334508"><ele>27.799999999999997</ele><time>2026-04-19T11:39:06.001Z</time></trkpt><trkpt lat="38.90061629060347" lon="-9.359716530585398"><ele>28.0</ele><time>2026-04-19T11:39:07.001Z</time></trkpt><trkpt lat="38.90060972289338" lon="-9.359866807797431"><ele>28.0</ele><time>2026-04-19T11:39:08.001Z</time></trkpt><trkpt lat="38.90061470494752" lon="-9.3600396902531"><ele>28.0</ele><time>2026-04-19T11:39:09.001Z</time></trkpt><trkpt lat="38.90059299029097" lon="-9.360223251200395"><ele>28.0</ele><time>2026-04-19T11:39:10.001Z</time></trkpt><trkpt lat="38.90055651154666" lon="-9.360389834444089"><ele>28.0</ele><time>2026-04-19T11:39:11.001Z</time></trkpt><trkpt lat="38.90054170044602" lon="-9.360560823394087"><ele>27.4</ele><time>2026-04-19T11:39:12.001Z</time></trkpt><trkpt lat="38.90052461778752" lon="-9.360723392023612"><ele>26.799999999999997</ele><time>2026-04-19T11:39:13.001Z</time></trkpt><trkpt lat="38.90051583749654" lon="-9.360859160131175"><ele>26.2</ele><time>2026-04-19T11:39:14.001Z</time></trkpt><trkpt lat="38.90051504439565" lon="-9.36097530613597"><ele>25.6</ele><time>2026-04-19T11:39:15.001Z</time></trkpt><trkpt lat="38.90052011488898" lon="-9.361096571623865"><ele>25.0</ele><time>2026-04-19T11:39:16.001Z</time></trkpt><trkpt lat="38.900519817240216" lon="-9.361207770600053"><ele>25.0</ele><time>2026-04-19T11:39:17.001Z</time></trkpt><trkpt lat="38.90054820542706" lon="-9.361324954263115"><ele>25.0</ele><time>2026-04-19T11:39:18.001Z</time></trkpt><trkpt lat="38.9005946356765" lon="-9.36143061965031"><ele>25.0</ele><time>2026-04-19T11:39:19.001Z</time></trkpt><trkpt lat="38.90045768643643" lon="-9.361643566691795"><ele>25.0</ele><time>2026-04-19T11:39:20.001Z</time></trkpt><trkpt lat="38.900505238418276" lon="-9.36173820499796"><ele>24.75</ele><time>2026-04-19T11:39:21.001Z</time></trkpt><trkpt lat="38.90055125519519" lon="-9.361809672714166"><ele>24.5</ele><time>2026-04-19T11:39:22.001Z</time></trkpt><trkpt lat="38.90060686357136" lon="-9.361871203933756"><ele>24.25</ele><time>2026-04-19T11:39:23.001Z</time></trkpt><trkpt lat="38.90072901627143" lon="-9.361614608350182"><ele>24.0</ele><time>2026-04-19T11:39:27.001Z</time></trkpt><trkpt lat="38.90080378721188" lon="-9.361701303999364"><ele>24.0</ele><time>2026-04-19T11:40:23.001Z</time></trkpt><trkpt lat="38.90088654003417" lon="-9.361742892662043"><ele>24.0</ele><time>2026-04-19T11:40:24.001Z</time></trkpt><trkpt lat="38.90097643687851" lon="-9.361762060525477"><ele>24.0</ele><time>2026-04-19T11:40:25.001Z</time></trkpt><trkpt lat="38.90106555454069" lon="-9.361702087286165"><ele>24.0</ele><time>2026-04-19T11:40:26.001Z</time></trkpt><trkpt lat="38.901157135333136" lon="-9.361677135212698"><ele>24.0</ele><time>2026-04-19T11:40:27.001Z</time></trkpt><trkpt lat="38.901272447464436" lon="-9.361641670000978"><ele>25.0</ele><time>2026-04-19T11:40:28.001Z</time></trkpt><trkpt lat="38.90140034386365" lon="-9.361604375425559"><ele>26.0</ele><time>2026-04-19T11:40:29.001Z</time></trkpt><trkpt lat="38.901526377029" lon="-9.361552076527278"><ele>27.0</ele><time>2026-04-19T11:40:30.001Z</time></trkpt><trkpt lat="38.901664430638064" lon="-9.361470870520112"><ele>28.0</ele><time>2026-04-19T11:40:31.001Z</time></trkpt><trkpt lat="38.90184394509778" lon="-9.361472576395123"><ele>27.666666666666668</ele><time>2026-04-19T11:40:32.001Z</time></trkpt><trkpt lat="38.90201349703126" lon="-9.361381036549139"><ele>27.333333333333336</ele><time>2026-04-19T11:40:33.001Z</time></trkpt><trkpt lat="38.902203180413075" lon="-9.361306532322317"><ele>27.0</ele><time>2026-04-19T11:40:34.001Z</time></trkpt><trkpt lat="38.9024016526243" lon="-9.361232533281694"><ele>26.0</ele><time>2026-04-19T11:40:35.001Z</time></trkpt><trkpt lat="38.90259954186892" lon="-9.36115758706775"><ele>25.0</ele><time>2026-04-19T11:40:36.001Z</time></trkpt><trkpt lat="38.90276473976479" lon="-9.361090679148262"><ele>24.0</ele><time>2026-04-19T11:40:37.001Z</time></trkpt><trkpt lat="38.902913630208495" lon="-9.361026365872226"><ele>24.0</ele><time>2026-04-19T11:40:38.001Z</time></trkpt><trkpt lat="38.903043160006966" lon="-9.360967086234988"><ele>24.0</ele><time>2026-04-19T11:40:39.001Z</time></trkpt><trkpt lat="38.90316740264254" lon="-9.360906297937971"><ele>24.0</ele><time>2026-04-19T11:40:40.001Z</time></trkpt><trkpt lat="38.90328993082044" lon="-9.360841780049734"><ele>24.0</ele><time>2026-04-19T11:40:41.001Z</time></trkpt><trkpt lat="38.90341702484429" lon="-9.360772280581587"><ele>24.0</ele><time>2026-04-19T11:40:42.001Z</time></trkpt><trkpt lat="38.903541583874926" lon="-9.36072106796485"><ele>24.0</ele><time>2026-04-19T11:40:43.001Z</time></trkpt><trkpt lat="38.90362645358207" lon="-9.360667276181474"><ele>24.0</ele><time>2026-04-19T11:40:44.001Z</time></trkpt><trkpt lat="38.903732354559864" lon="-9.360622025644643"><ele>24.0</ele><time>2026-04-19T11:40:45.001Z</time></trkpt><trkpt lat="38.90372409054445" lon="-9.360523246404995"><ele>24.0</ele><time>2026-04-19T11:40:48.001Z</time></trkpt><trkpt lat="38.90371196115394" lon="-9.360438706804617"><ele>24.75</ele><time>2026-04-19T11:40:49.001Z</time></trkpt><trkpt lat="38.90368748533264" lon="-9.360295557617716"><ele>25.5</ele><time>2026-04-19T11:40:50.001Z</time></trkpt><trkpt lat="38.903650884927956" lon="-9.360116175347441"><ele>26.25</ele><time>2026-04-19T11:40:51.001Z</time></trkpt><trkpt lat="38.90360322385939" lon="-9.359970918813453"><ele>27.0</ele><time>2026-04-19T11:40:52.001Z</time></trkpt><trkpt lat="38.903535871087904" lon="-9.35987581726083"><ele>27.0</ele><time>2026-04-19T11:40:53.001Z</time></trkpt><trkpt lat="38.903513624834375" lon="-9.359782964133643"><ele>27.0</ele><time>2026-04-19T11:40:54.001Z</time></trkpt><trkpt lat="38.90348105004719" lon="-9.359708629147155"><ele>27.0</ele><time>2026-04-19T11:40:55.001Z</time></trkpt><trkpt lat="38.90341495223708" lon="-9.359627828167621"><ele>27.0</ele><time>2026-04-19T11:40:57.001Z</time></trkpt><trkpt lat="38.903356094607375" lon="-9.359748843747939"><ele>27.0</ele><time>2026-04-19T11:40:59.001Z</time></trkpt><trkpt lat="38.903271709058195" lon="-9.359779880292468"><ele>27.0</ele><time>2026-04-19T11:41:00.001Z</time></trkpt><trkpt lat="38.90312848757105" lon="-9.359823309361277"><ele>28.0</ele><time>2026-04-19T11:41:01.001Z</time></trkpt><trkpt lat="38.90297768834021" lon="-9.359864425888299"><ele>29.0</ele><time>2026-04-19T11:41:02.001Z</time></trkpt><trkpt lat="38.90282957764834" lon="-9.359904651641154"><ele>30.0</ele><time>2026-04-19T11:41:03.001Z</time></trkpt><trkpt lat="38.90263123556179" lon="-9.359928490962167"><ele>31.75</ele><time>2026-04-19T11:41:04.001Z</time></trkpt><trkpt lat="38.90241752342883" lon="-9.359925320721413"><ele>33.5</ele><time>2026-04-19T11:41:05.001Z</time></trkpt><trkpt lat="38.902347481278646" lon="-9.3599112617406"><ele>35.25</ele><time>2026-04-19T11:41:06.001Z</time></trkpt><trkpt lat="38.90221574227312" lon="-9.359865787537828"><ele>37.0</ele><time>2026-04-19T11:41:08.001Z</time></trkpt><trkpt lat="38.902129577356234" lon="-9.359807645211669"><ele>37.0</ele><time>2026-04-19T11:41:09.001Z</time></trkpt><trkpt lat="38.90203312519171" lon="-9.359733093508243"><ele>37.0</ele><time>2026-04-19T11:41:10.001Z</time></trkpt><trkpt lat="38.90191935515219" lon="-9.359654657556204"><ele>37.0</ele><time>2026-04-19T11:41:11.001Z</time></trkpt><trkpt lat="38.90180675321703" lon="-9.359568723617155"><ele>37.0</ele><time>2026-04-19T11:41:12.001Z</time></trkpt><trkpt lat="38.90172094334418" lon="-9.359491362851152"><ele>38.6</ele><time>2026-04-19T11:41:13.001Z</time></trkpt><trkpt lat="38.90166052792629" lon="-9.35938624522564"><ele>40.2</ele><time>2026-04-19T11:41:14.001Z</time></trkpt><trkpt lat="38.901614788979906" lon="-9.359257179425116"><ele>41.8</ele><time>2026-04-19T11:41:15.001Z</time></trkpt><trkpt lat="38.90157613102878" lon="-9.359121508727945"><ele>43.4</ele><time>2026-04-19T11:41:16.001Z</time></trkpt><trkpt lat="38.90155533747419" lon="-9.358971495984083"><ele>45.0</ele><time>2026-04-19T11:41:17.001Z</time></trkpt><trkpt lat="38.90154480775095" lon="-9.358817988087113"><ele>45.4</ele><time>2026-04-19T11:41:18.001Z</time></trkpt><trkpt lat="38.90155695302657" lon="-9.358685181853094"><ele>45.8</ele><time>2026-04-19T11:41:19.001Z</time></trkpt><trkpt lat="38.90158255801345" lon="-9.358569598550039"><ele>46.2</ele><time>2026-04-19T11:41:20.001Z</time></trkpt><trkpt lat="38.901615440397514" lon="-9.358464224002116"><ele>46.6</ele><time>2026-04-19T11:41:21.001Z</time></trkpt><trkpt lat="38.901637913066246" lon="-9.3583469100723"><ele>47.0</ele><time>2026-04-19T11:41:22.001Z</time></trkpt><trkpt lat="38.90164828748092" lon="-9.358210836700602"><ele>47.0</ele><time>2026-04-19T11:41:23.001Z</time></trkpt><trkpt lat="38.901651432056006" lon="-9.358037821809996"><ele>47.0</ele><time>2026-04-19T11:41:24.001Z</time></trkpt><trkpt lat="38.901684150073244" lon="-9.357840199065798"><ele>47.0</ele><time>2026-04-19T11:41:25.001Z</time></trkpt><trkpt lat="38.90172661568058" lon="-9.35762331308886"><ele>55.33333333333333</ele><time>2026-04-19T11:41:26.001Z</time></trkpt><trkpt lat="38.90177656469359" lon="-9.357389348812086"><ele>63.666666666666664</ele><time>2026-04-19T11:41:27.001Z</time></trkpt><trkpt lat="38.901835659728356" lon="-9.3571709421536"><ele>72.0</ele><time>2026-04-19T11:41:28.001Z</time></trkpt><trkpt lat="38.901908079382125" lon="-9.356944739869036"><ele>72.0</ele><time>2026-04-19T11:41:29.001Z</time></trkpt><trkpt lat="38.90197195172534" lon="-9.35673888533314"><ele>72.0</ele><time>2026-04-19T11:41:30.001Z</time></trkpt><trkpt lat="38.90202384312632" lon="-9.356526278950497"><ele>72.0</ele><time>2026-04-19T11:41:31.001Z</time></trkpt><trkpt lat="38.9020647798808" lon="-9.35633635261683"><ele>68.0</ele><time>2026-04-19T11:41:32Z</time></trkpt><trkpt lat="38.90209777149564" lon="-9.356138690838405"><ele>64.0</ele><time>2026-04-19T11:41:33Z</time></trkpt><trkpt lat="38.90212634055434" lon="-9.355922697939265"><ele>60.0</ele><time>2026-04-19T11:41:34Z</time></trkpt><trkpt lat="38.90216204914296" lon="-9.35570149805532"><ele>57.66666666666667</ele><time>2026-04-19T11:41:35Z</time></trkpt><trkpt lat="38.902186871105215" lon="-9.355485661870905"><ele>55.333333333333336</ele><time>2026-04-19T11:41:36Z</time></trkpt><trkpt lat="38.902210624463414" lon="-9.355298577361241"><ele>53.0</ele><time>2026-04-19T11:41:37Z</time></trkpt><trkpt lat="38.90223057159428" lon="-9.355117685983341"><ele>53.0</ele><time>2026-04-19T11:41:38.001Z</time></trkpt><trkpt lat="38.90224892587215" lon="-9.354931850628073"><ele>53.0</ele><time>2026-04-19T11:41:39.001Z</time></trkpt><trkpt lat="38.90226520504873" lon="-9.354748135959717"><ele>53.0</ele><time>2026-04-19T11:41:40.001Z</time></trkpt><trkpt lat="38.90227545685359" lon="-9.354578142987092"><ele>53.0</ele><time>2026-04-19T11:41:41.001Z</time></trkpt><trkpt lat="38.90228546446115" lon="-9.354399367149757"><ele>52.66666666666667</ele><time>2026-04-19T11:41:42.001Z</time></trkpt><trkpt lat="38.902303769372224" lon="-9.354216883848087"><ele>52.33333333333333</ele><time>2026-04-19T11:41:43.001Z</time></trkpt><trkpt lat="38.9023149075413" lon="-9.354020828800907"><ele>52.0</ele><time>2026-04-19T11:41:44.001Z</time></trkpt><trkpt lat="38.902314290570025" lon="-9.353820959738957"><ele>50.75</ele><time>2026-04-19T11:41:45.001Z</time></trkpt><trkpt lat="38.90229482166571" lon="-9.353626633194253"><ele>49.5</ele><time>2026-04-19T11:41:46.001Z</time></trkpt><trkpt lat="38.902266039010975" lon="-9.353440778113612"><ele>48.25</ele><time>2026-04-19T11:41:47.001Z</time></trkpt><trkpt lat="38.9022358434494" lon="-9.353269297154606"><ele>47.0</ele><time>2026-04-19T11:41:48.001Z</time></trkpt><trkpt lat="38.90225334665387" lon="-9.353105541222765"><ele>47.25</ele><time>2026-04-19T11:41:49.001Z</time></trkpt><trkpt lat="38.902282112000876" lon="-9.352953769768098"><ele>47.5</ele><time>2026-04-19T11:41:50.001Z</time></trkpt><trkpt lat="38.90231436450729" lon="-9.352812868795656"><ele>47.75</ele><time>2026-04-19T11:41:51.001Z</time></trkpt><trkpt lat="38.90231731808591" lon="-9.352677514017836"><ele>48.0</ele><time>2026-04-19T11:41:52.001Z</time></trkpt><trkpt lat="38.90224448906902" lon="-9.352558857207177"><ele>48.0</ele><time>2026-04-19T11:41:53.001Z</time></trkpt><trkpt lat="38.90215812871236" lon="-9.35243545287664"><ele>48.0</ele><time>2026-04-19T11:41:54.001Z</time></trkpt><trkpt lat="38.90206524346105" lon="-9.352286197380678"><ele>48.0</ele><time>2026-04-19T11:41:55.001Z</time></trkpt><trkpt lat="38.90198596011124" lon="-9.352114800319416"><ele>48.0</ele><time>2026-04-19T11:41:56.001Z</time></trkpt><trkpt lat="38.901894186336094" lon="-9.35194248769605"><ele>43.333333333333336</ele><time>2026-04-19T11:41:57.001Z</time></trkpt><trkpt lat="38.90182331595568" lon="-9.351765315225864"><ele>38.66666666666667</ele><time>2026-04-19T11:41:58.001Z</time></trkpt><trkpt lat="38.90176611301157" lon="-9.35158760755273"><ele>34.0</ele><time>2026-04-19T11:41:59.001Z</time></trkpt><trkpt lat="38.90171330385449" lon="-9.351398306484496"><ele>35.66666666666667</ele><time>2026-04-19T11:42:00.001Z</time></trkpt><trkpt lat="38.90164534972111" lon="-9.351201119828573"><ele>37.333333333333336</ele><time>2026-04-19T11:42:01.001Z</time></trkpt><trkpt lat="38.90157139446997" lon="-9.350973804518379"><ele>39.0</ele><time>2026-04-19T11:42:02Z</time></trkpt><trkpt lat="38.90148925811844" lon="-9.350734237034757"><ele>40.666666666666664</ele><time>2026-04-19T11:42:03Z</time></trkpt><trkpt lat="38.901407227780794" lon="-9.35049058296971"><ele>42.33333333333333</ele><time>2026-04-19T11:42:04Z</time></trkpt><trkpt lat="38.901331324060784" lon="-9.350277192729175"><ele>44.0</ele><time>2026-04-19T11:42:05Z</time></trkpt><trkpt lat="38.9012648979912" lon="-9.35008144425292"><ele>44.0</ele><time>2026-04-19T11:42:06Z</time></trkpt><trkpt lat="38.90119295096803" lon="-9.349901424974242"><ele>44.0</ele><time>2026-04-19T11:42:07Z</time></trkpt><trkpt lat="38.90109134858902" lon="-9.349738861130843"><ele>44.0</ele><time>2026-04-19T11:42:08Z</time></trkpt><trkpt lat="38.90099204319019" lon="-9.349571701641063"><ele>40.0</ele><time>2026-04-19T11:42:09Z</time></trkpt><trkpt lat="38.900894075975536" lon="-9.349412607958651"><ele>36.0</ele><time>2026-04-19T11:42:10Z</time></trkpt><trkpt lat="38.900795103602" lon="-9.349255186673897"><ele>32.0</ele><time>2026-04-19T11:42:11Z</time></trkpt><trkpt lat="38.90069606862187" lon="-9.349099483635399"><ele>32.0</ele><time>2026-04-19T11:42:12Z</time></trkpt><trkpt lat="38.90061152005385" lon="-9.34893482065093"><ele>32.0</ele><time>2026-04-19T11:42:13Z</time></trkpt><trkpt lat="38.90051085947112" lon="-9.348786038206741"><ele>32.0</ele><time>2026-04-19T11:42:14Z</time></trkpt><trkpt lat="38.90041752525452" lon="-9.34863491661044"><ele>38.33333333333333</ele><time>2026-04-19T11:42:15Z</time></trkpt><trkpt lat="38.900321045928294" lon="-9.348491721299736"><ele>44.666666666666664</ele><time>2026-04-19T11:42:16Z</time></trkpt><trkpt lat="38.900202897942734" lon="-9.34836009732502"><ele>51.0</ele><time>2026-04-19T11:42:17Z</time></trkpt><trkpt lat="38.90009543299154" lon="-9.34822182977565"><ele>50.0</ele><time>2026-04-19T11:42:18Z</time></trkpt><trkpt lat="38.89998770533647" lon="-9.348089460338263"><ele>49.0</ele><time>2026-04-19T11:42:19Z</time></trkpt><trkpt lat="38.899897452714285" lon="-9.347954040379308"><ele>48.0</ele><time>2026-04-19T11:42:20Z</time></trkpt><trkpt lat="38.89979632450361" lon="-9.347834893499082"><ele>47.0</ele><time>2026-04-19T11:42:21Z</time></trkpt><trkpt lat="38.89969607752593" lon="-9.34771259046225"><ele>47.0</ele><time>2026-04-19T11:42:22Z</time></trkpt><trkpt lat="38.8995864124209" lon="-9.347578785592388"><ele>47.0</ele><time>2026-04-19T11:42:23Z</time></trkpt><trkpt lat="38.899459765086554" lon="-9.34744929101487"><ele>47.0</ele><time>2026-04-19T11:42:24Z</time></trkpt><trkpt lat="38.899336264334785" lon="-9.34729905082538"><ele>47.33333333333333</ele><time>2026-04-19T11:42:25Z</time></trkpt><trkpt lat="38.89920909868082" lon="-9.347125692434156"><ele>47.666666666666664</ele><time>2026-04-19T11:42:26Z</time></trkpt><trkpt lat="38.899057622588806" lon="-9.34695533918476"><ele>48.0</ele><time>2026-04-19T11:42:27Z</time></trkpt><trkpt lat="38.89888883154587" lon="-9.346791987993116"><ele>48.0</ele><time>2026-04-19T11:42:28Z</time></trkpt><trkpt lat="38.89871560341781" lon="-9.346627796821895"><ele>48.0</ele><time>2026-04-19T11:42:29Z</time></trkpt><trkpt lat="38.89855874787396" lon="-9.346498722204542"><ele>48.0</ele><time>2026-04-19T11:42:30Z</time></trkpt><trkpt lat="38.898408910988486" lon="-9.346396881565653"><ele>47.666666666666664</ele><time>2026-04-19T11:42:31Z</time></trkpt><trkpt lat="38.89824696153686" lon="-9.346309577585192"><ele>47.33333333333333</ele><time>2026-04-19T11:42:32Z</time></trkpt><trkpt lat="38.89806213213816" lon="-9.346239291474363"><ele>47.0</ele><time>2026-04-19T11:42:33Z</time></trkpt><trkpt lat="38.89785341169069" lon="-9.346188332988884"><ele>47.0</ele><time>2026-04-19T11:42:34Z</time></trkpt><trkpt lat="38.897663457804846" lon="-9.346153965943492"><ele>47.0</ele><time>2026-04-19T11:42:35Z</time></trkpt><trkpt lat="38.89747794695445" lon="-9.346114852334315"><ele>47.0</ele><time>2026-04-19T11:42:36Z</time></trkpt><trkpt lat="38.897321170278765" lon="-9.346080486945478"><ele>46.0</ele><time>2026-04-19T11:42:37Z</time></trkpt><trkpt lat="38.89717484977796" lon="-9.346047758839427"><ele>45.0</ele><time>2026-04-19T11:42:38Z</time></trkpt><trkpt lat="38.89702686976776" lon="-9.346015683381163"><ele>44.0</ele><time>2026-04-19T11:42:39Z</time></trkpt><trkpt lat="38.89688370853148" lon="-9.345984636465486"><ele>43.0</ele><time>2026-04-19T11:42:40Z</time></trkpt><trkpt lat="38.8967334805496" lon="-9.345952232520311"><ele>42.25</ele><time>2026-04-19T11:42:41Z</time></trkpt><trkpt lat="38.89660770205907" lon="-9.345925359738054"><ele>41.5</ele><time>2026-04-19T11:42:42Z</time></trkpt><trkpt lat="38.89648881010535" lon="-9.34590346424776"><ele>40.75</ele><time>2026-04-19T11:42:43Z</time></trkpt><trkpt lat="38.896343680254574" lon="-9.345888620500785"><ele>40.0</ele><time>2026-04-19T11:42:44Z</time></trkpt><trkpt lat="38.89614500853227" lon="-9.345877761276945"><ele>40.0</ele><time>2026-04-19T11:42:45Z</time></trkpt><trkpt lat="38.89595913359152" lon="-9.345862138545447"><ele>40.0</ele><time>2026-04-19T11:42:46Z</time></trkpt><trkpt lat="38.895783544703704" lon="-9.345836527379227"><ele>40.0</ele><time>2026-04-19T11:42:47Z</time></trkpt><trkpt lat="38.89561735537811" lon="-9.3457841881097"><ele>40.0</ele><time>2026-04-19T11:42:48Z</time></trkpt><trkpt lat="38.895468927257774" lon="-9.345724657105714"><ele>40.0</ele><time>2026-04-19T11:42:49Z</time></trkpt><trkpt lat="38.895327440905376" lon="-9.34566069992006"><ele>40.0</ele><time>2026-04-19T11:42:50Z</time></trkpt><trkpt lat="38.895191117001" lon="-9.345595349477586"><ele>42.75</ele><time>2026-04-19T11:42:51Z</time></trkpt><trkpt lat="38.89506521639417" lon="-9.345537839728037"><ele>45.5</ele><time>2026-04-19T11:42:52Z</time></trkpt><trkpt lat="38.89492577628897" lon="-9.345490943071436"><ele>48.25</ele><time>2026-04-19T11:42:53Z</time></trkpt><trkpt lat="38.89477594755711" lon="-9.345455887116854"><ele>51.0</ele><time>2026-04-19T11:42:54Z</time></trkpt><trkpt lat="38.89459413218547" lon="-9.345415474876422"><ele>51.0</ele><time>2026-04-19T11:42:55Z</time></trkpt><trkpt lat="38.89443419672208" lon="-9.345377122731234"><ele>51.0</ele><time>2026-04-19T11:42:56Z</time></trkpt><trkpt lat="38.894270431986975" lon="-9.34533791758671"><ele>51.0</ele><time>2026-04-19T11:42:57Z</time></trkpt><trkpt lat="38.89410917856307" lon="-9.345303535072091"><ele>48.666666666666664</ele><time>2026-04-19T11:42:58Z</time></trkpt><trkpt lat="38.89394972080537" lon="-9.345273660347388"><ele>46.33333333333333</ele><time>2026-04-19T11:42:59Z</time></trkpt><trkpt lat="38.89378092340537" lon="-9.34524366109743"><ele>44.0</ele><time>2026-04-19T11:43:00Z</time></trkpt><trkpt lat="38.8936110092322" lon="-9.345214357404695"><ele>44.0</ele><time>2026-04-19T11:43:01Z</time></trkpt><trkpt lat="38.893439496284245" lon="-9.345184777971323"><ele>44.0</ele><time>2026-04-19T11:43:02Z</time></trkpt><trkpt lat="38.893274155177735" lon="-9.345156446217205"><ele>44.0</ele><time>2026-04-19T11:43:03Z</time></trkpt><trkpt lat="38.893105820396826" lon="-9.34512833236001"><ele>44.666666666666664</ele><time>2026-04-19T11:43:04Z</time></trkpt><trkpt lat="38.89293560580578" lon="-9.345104628652003"><ele>45.333333333333336</ele><time>2026-04-19T11:43:05Z</time></trkpt><trkpt lat="38.89276924226575" lon="-9.345088050966549"><ele>46.0</ele><time>2026-04-19T11:43:06Z</time></trkpt><trkpt lat="38.89261553950396" lon="-9.345074610904414"><ele>45.5</ele><time>2026-04-19T11:43:07Z</time></trkpt><trkpt lat="38.89246280074926" lon="-9.34505448804221"><ele>45.0</ele><time>2026-04-19T11:43:08Z</time></trkpt><trkpt lat="38.89232190652005" lon="-9.345023502441135"><ele>44.5</ele><time>2026-04-19T11:43:09Z</time></trkpt><trkpt lat="38.892192549942486" lon="-9.344963065056135"><ele>44.0</ele><time>2026-04-19T11:43:10Z</time></trkpt><trkpt lat="38.89205226747842" lon="-9.344897555225554"><ele>44.0</ele><time>2026-04-19T11:43:11Z</time></trkpt><trkpt lat="38.891905057682884" lon="-9.34486939217546"><ele>44.0</ele><time>2026-04-19T11:43:12Z</time></trkpt><trkpt lat="38.891758535520566" lon="-9.34485673666688"><ele>44.0</ele><time>2026-04-19T11:43:13Z</time></trkpt><trkpt lat="38.89161765090808" lon="-9.344880620986673"><ele>44.0</ele><time>2026-04-19T11:43:14Z</time></trkpt><trkpt lat="38.8914795580469" lon="-9.344912373894395"><ele>43.666666666666664</ele><time>2026-04-19T11:43:15Z</time></trkpt><trkpt lat="38.89133783006528" lon="-9.344949297049553"><ele>43.333333333333336</ele><time>2026-04-19T11:43:16Z</time></trkpt><trkpt lat="38.89118602214631" lon="-9.344980924646968"><ele>43.0</ele><time>2026-04-19T11:43:17Z</time></trkpt><trkpt lat="38.89103129535626" lon="-9.344948827315042"><ele>42.0</ele><time>2026-04-19T11:43:18Z</time></trkpt><trkpt lat="38.89088571103301" lon="-9.344901029022378"><ele>41.0</ele><time>2026-04-19T11:43:19Z</time></trkpt><trkpt lat="38.89074554803569" lon="-9.344828924513614"><ele>40.0</ele><time>2026-04-19T11:43:20Z</time></trkpt><trkpt lat="38.89061175287845" lon="-9.344746160075568"><ele>46.0</ele><time>2026-04-19T11:43:21Z</time></trkpt><trkpt lat="38.89048050374759" lon="-9.344632792548419"><ele>52.0</ele><time>2026-04-19T11:43:22Z</time></trkpt><trkpt lat="38.890361385541794" lon="-9.344486936904739"><ele>58.0</ele><time>2026-04-19T11:43:23Z</time></trkpt><trkpt lat="38.89024490361653" lon="-9.344329364102386"><ele>58.0</ele><time>2026-04-19T11:43:24Z</time></trkpt><trkpt lat="38.890137383624854" lon="-9.344150070809283"><ele>58.0</ele><time>2026-04-19T11:43:25Z</time></trkpt><trkpt lat="38.89003073582461" lon="-9.343991721672289"><ele>58.0</ele><time>2026-04-19T11:43:26Z</time></trkpt><trkpt lat="38.88992982959233" lon="-9.343859091092972"><ele>58.0</ele><time>2026-04-19T11:43:27Z</time></trkpt><trkpt lat="38.889827862257185" lon="-9.34373584495032"><ele>58.0</ele><time>2026-04-19T11:43:28Z</time></trkpt><trkpt lat="38.88971583272349" lon="-9.343608265900741"><ele>58.0</ele><time>2026-04-19T11:43:29Z</time></trkpt><trkpt lat="38.889605449798026" lon="-9.343473325314726"><ele>58.0</ele><time>2026-04-19T11:43:30Z</time></trkpt><trkpt lat="38.88949273249332" lon="-9.34332941405283"><ele>58.0</ele><time>2026-04-19T11:43:31Z</time></trkpt><trkpt lat="38.88939924998353" lon="-9.343172108593533"><ele>58.0</ele><time>2026-04-19T11:43:32Z</time></trkpt><trkpt lat="38.88932807664277" lon="-9.342984607679417"><ele>58.0</ele><time>2026-04-19T11:43:33Z</time></trkpt><trkpt lat="38.88929135776199" lon="-9.342764417552939"><ele>56.0</ele><time>2026-04-19T11:43:34Z</time></trkpt><trkpt lat="38.88923850848627" lon="-9.342545780697025"><ele>54.0</ele><time>2026-04-19T11:43:35Z</time></trkpt><trkpt lat="38.88920667304396" lon="-9.342334169722582"><ele>52.0</ele><time>2026-04-19T11:43:36Z</time></trkpt><trkpt lat="38.889174424724686" lon="-9.342116777248274"><ele>52.0</ele><time>2026-04-19T11:43:37Z</time></trkpt><trkpt lat="38.889137362407304" lon="-9.341933357677759"><ele>52.0</ele><time>2026-04-19T11:43:38Z</time></trkpt><trkpt lat="38.889064689099364" lon="-9.34178371312349"><ele>52.0</ele><time>2026-04-19T11:43:39Z</time></trkpt><trkpt lat="38.888976760297595" lon="-9.341649433025847"><ele>52.0</ele><time>2026-04-19T11:43:40Z</time></trkpt><trkpt lat="38.888865654279" lon="-9.34148606455495"><ele>55.0</ele><time>2026-04-19T11:43:41Z</time></trkpt><trkpt lat="38.888742421731045" lon="-9.341304865370907"><ele>58.0</ele><time>2026-04-19T11:43:42Z</time></trkpt><trkpt lat="38.88861122614141" lon="-9.341115613166856"><ele>61.0</ele><time>2026-04-19T11:43:43Z</time></trkpt><trkpt lat="38.88847429628206" lon="-9.340916356208472"><ele>55.666666666666664</ele><time>2026-04-19T11:43:44Z</time></trkpt><trkpt lat="38.88834003458275" lon="-9.340699664811996"><ele>50.33333333333333</ele><time>2026-04-19T11:43:45Z</time></trkpt><trkpt lat="38.88822635144909" lon="-9.340514836335704"><ele>45.0</ele><time>2026-04-19T11:43:46Z</time></trkpt><trkpt lat="38.888135564279374" lon="-9.340339399282788"><ele>45.0</ele><time>2026-04-19T11:43:47Z</time></trkpt><trkpt lat="38.88803975146552" lon="-9.340173037477419"><ele>45.0</ele><time>2026-04-19T11:43:48Z</time></trkpt><trkpt lat="38.887954870023755" lon="-9.340005508819987"><ele>45.0</ele><time>2026-04-19T11:43:49Z</time></trkpt><trkpt lat="38.88787775531109" lon="-9.339838125104931"><ele>45.333333333333336</ele><time>2026-04-19T11:43:50Z</time></trkpt><trkpt lat="38.88779453669465" lon="-9.339664345724062"><ele>45.66666666666667</ele><time>2026-04-19T11:43:51Z</time></trkpt><trkpt lat="38.887709799199385" lon="-9.33946345027579"><ele>46.0</ele><time>2026-04-19T11:43:52Z</time></trkpt><trkpt lat="38.88763696463878" lon="-9.339252808457301"><ele>44.66666666666667</ele><time>2026-04-19T11:43:53Z</time></trkpt><trkpt lat="38.887560955340355" lon="-9.339044268446951"><ele>43.333333333333336</ele><time>2026-04-19T11:43:54Z</time></trkpt><trkpt lat="38.88748630560559" lon="-9.338835725845867"><ele>42.0</ele><time>2026-04-19T11:43:55Z</time></trkpt><trkpt lat="38.887418014073596" lon="-9.338650668842806"><ele>42.0</ele><time>2026-04-19T11:43:56Z</time></trkpt><trkpt lat="38.88735070244479" lon="-9.338466522480948"><ele>42.0</ele><time>2026-04-19T11:43:57Z</time></trkpt><trkpt lat="38.88728684014488" lon="-9.338256439331191"><ele>42.0</ele><time>2026-04-19T11:43:58Z</time></trkpt><trkpt lat="38.887235306127536" lon="-9.338031056784924"><ele>43.666666666666664</ele><time>2026-04-19T11:43:59Z</time></trkpt><trkpt lat="38.88719869396496" lon="-9.337809079139674"><ele>45.33333333333333</ele><time>2026-04-19T11:44:00Z</time></trkpt><trkpt lat="38.88716638394876" lon="-9.337598658560802"><ele>47.0</ele><time>2026-04-19T11:44:01Z</time></trkpt><trkpt lat="38.887136581087645" lon="-9.337391801226774"><ele>50.0</ele><time>2026-04-19T11:44:02Z</time></trkpt><trkpt lat="38.88710446041616" lon="-9.33719480031429"><ele>53.0</ele><time>2026-04-19T11:44:03Z</time></trkpt><trkpt lat="38.887078583341804" lon="-9.33699029343668"><ele>56.0</ele><time>2026-04-19T11:44:04Z</time></trkpt><trkpt lat="38.88705887047735" lon="-9.336790186982363"><ele>56.0</ele><time>2026-04-19T11:44:05Z</time></trkpt><trkpt lat="38.887035167817366" lon="-9.336575880651457"><ele>56.0</ele><time>2026-04-19T11:44:06Z</time></trkpt><trkpt lat="38.887019293937165" lon="-9.336366982172832"><ele>56.0</ele><time>2026-04-19T11:44:07Z</time></trkpt><trkpt lat="38.88699073254956" lon="-9.336157035367458"><ele>59.0</ele><time>2026-04-19T11:44:08Z</time></trkpt><trkpt lat="38.886960297013175" lon="-9.33594740958167"><ele>62.0</ele><time>2026-04-19T11:44:09Z</time></trkpt><trkpt lat="38.88689760780501" lon="-9.335753690037954"><ele>65.0</ele><time>2026-04-19T11:44:10Z</time></trkpt><trkpt lat="38.88683219930568" lon="-9.335558208258053"><ele>67.0</ele><time>2026-04-19T11:44:11Z</time></trkpt><trkpt lat="38.88678246292938" lon="-9.335359834581766"><ele>69.0</ele><time>2026-04-19T11:44:12Z</time></trkpt><trkpt lat="38.88671501294775" lon="-9.335180958323598"><ele>71.0</ele><time>2026-04-19T11:44:13Z</time></trkpt><trkpt lat="38.88665841951031" lon="-9.335022059598463"><ele>66.75</ele><time>2026-04-19T11:44:14Z</time></trkpt><trkpt lat="38.886610304692056" lon="-9.334873699728362"><ele>62.5</ele><time>2026-04-19T11:44:15Z</time></trkpt><trkpt lat="38.886560263387636" lon="-9.334720212767477"><ele>58.25</ele><time>2026-04-19T11:44:16Z</time></trkpt><trkpt lat="38.88651882549074" lon="-9.334582426965325"><ele>54.0</ele><time>2026-04-19T11:44:17Z</time></trkpt><trkpt lat="38.886481708287846" lon="-9.334451530724866"><ele>54.0</ele><time>2026-04-19T11:44:18Z</time></trkpt><trkpt lat="38.88645601187724" lon="-9.334300512465479"><ele>54.0</ele><time>2026-04-19T11:44:19Z</time></trkpt><trkpt lat="38.88643537594632" lon="-9.334158032013292"><ele>54.0</ele><time>2026-04-19T11:44:20Z</time></trkpt><trkpt lat="38.88642882100673" lon="-9.334024219308459"><ele>54.0</ele><time>2026-04-19T11:44:21Z</time></trkpt><trkpt lat="38.8864248300351" lon="-9.333876055278505"><ele>54.0</ele><time>2026-04-19T11:44:22Z</time></trkpt><trkpt lat="38.88642099676316" lon="-9.333719124055671"><ele>54.0</ele><time>2026-04-19T11:44:23Z</time></trkpt><trkpt lat="38.88642308129526" lon="-9.333549483837492"><ele>54.0</ele><time>2026-04-19T11:44:24Z</time></trkpt><trkpt lat="38.88647034661221" lon="-9.333384908382138"><ele>54.0</ele><time>2026-04-19T11:44:25Z</time></trkpt><trkpt lat="38.886505003028745" lon="-9.33320114396342"><ele>53.0</ele><time>2026-04-19T11:44:26Z</time></trkpt><trkpt lat="38.886572667670855" lon="-9.333037495358203"><ele>52.0</ele><time>2026-04-19T11:44:27Z</time></trkpt><trkpt lat="38.88663157437895" lon="-9.332877088916442"><ele>51.0</ele><time>2026-04-19T11:44:28Z</time></trkpt><trkpt lat="38.88668041433898" lon="-9.332737054633888"><ele>50.0</ele><time>2026-04-19T11:44:29Z</time></trkpt><trkpt lat="38.88674165391362" lon="-9.332594686595051"><ele>49.66666666666667</ele><time>2026-04-19T11:44:30Z</time></trkpt><trkpt lat="38.88681582691111" lon="-9.332439920212758"><ele>49.33333333333333</ele><time>2026-04-19T11:44:31Z</time></trkpt><trkpt lat="38.88691149710082" lon="-9.332286409999352"><ele>49.0</ele><time>2026-04-19T11:44:32Z</time></trkpt><trkpt lat="38.88701686045783" lon="-9.33213685386301"><ele>49.0</ele><time>2026-04-19T11:44:33Z</time></trkpt><trkpt lat="38.887106528231556" lon="-9.33200504385824"><ele>49.0</ele><time>2026-04-19T11:44:34Z</time></trkpt><trkpt lat="38.887193297100545" lon="-9.331878519122187"><ele>49.0</ele><time>2026-04-19T11:44:35Z</time></trkpt><trkpt lat="38.887292609067785" lon="-9.331764651810285"><ele>49.0</ele><time>2026-04-19T11:44:36Z</time></trkpt><trkpt lat="38.88741052670969" lon="-9.331720877100501"><ele>49.0</ele><time>2026-04-19T11:44:37Z</time></trkpt><trkpt lat="38.88753514039496" lon="-9.331714280136936"><ele>49.0</ele><time>2026-04-19T11:44:38Z</time></trkpt><trkpt lat="38.88767935501893" lon="-9.331710729501642"><ele>49.0</ele><time>2026-04-19T11:44:39Z</time></trkpt><trkpt lat="38.88782912592517" lon="-9.331677832695645"><ele>49.0</ele><time>2026-04-19T11:44:40Z</time></trkpt><trkpt lat="38.88797561833642" lon="-9.331640031895532"><ele>48.0</ele><time>2026-04-19T11:44:41Z</time></trkpt><trkpt lat="38.88810719615595" lon="-9.33155557691286"><ele>47.0</ele><time>2026-04-19T11:44:42Z</time></trkpt><trkpt lat="38.88824422365749" lon="-9.331448079382351"><ele>46.0</ele><time>2026-04-19T11:44:43Z</time></trkpt><trkpt lat="38.888373595331245" lon="-9.33134163652233"><ele>50.333333333333336</ele><time>2026-04-19T11:44:44Z</time></trkpt><trkpt lat="38.888504422701416" lon="-9.33122250926501"><ele>54.66666666666667</ele><time>2026-04-19T11:44:45Z</time></trkpt><trkpt lat="38.88861840180823" lon="-9.331084118362595"><ele>59.0</ele><time>2026-04-19T11:44:46Z</time></trkpt><trkpt lat="38.88868709475894" lon="-9.330926201035"><ele>59.0</ele><time>2026-04-19T11:44:47Z</time></trkpt><trkpt lat="38.888743854144884" lon="-9.330801633064542"><ele>59.00000000000001</ele><time>2026-04-19T11:44:48Z</time></trkpt><trkpt lat="38.88878553202368" lon="-9.330671512176924"><ele>59.00000000000001</ele><time>2026-04-19T11:44:49Z</time></trkpt><trkpt lat="38.888756913679636" lon="-9.330574277614934"><ele>59.0</ele><time>2026-04-19T11:44:50Z</time></trkpt><trkpt lat="38.888713065437976" lon="-9.33046077564946"><ele>59.0</ele><time>2026-04-19T11:44:51Z</time></trkpt><trkpt lat="38.88870482969806" lon="-9.330327369710302"><ele>57.6</ele><time>2026-04-19T11:44:52Z</time></trkpt><trkpt lat="38.88872934532835" lon="-9.330172050077193"><ele>56.2</ele><time>2026-04-19T11:44:53Z</time></trkpt><trkpt lat="38.88873224099695" lon="-9.33002170603054"><ele>54.800000000000004</ele><time>2026-04-19T11:44:54Z</time></trkpt><trkpt lat="38.88876824142313" lon="-9.329933941583537"><ele>53.400000000000006</ele><time>2026-04-19T11:44:55Z</time></trkpt><trkpt lat="38.88878898757291" lon="-9.329834391712494"><ele>52.0</ele><time>2026-04-19T11:44:56Z</time></trkpt><trkpt lat="38.88877479182852" lon="-9.329742827942946"><ele>51.8</ele><time>2026-04-19T11:44:57Z</time></trkpt><trkpt lat="38.88876373796044" lon="-9.329645282072722"><ele>51.6</ele><time>2026-04-19T11:44:58Z</time></trkpt><trkpt lat="38.888754857192595" lon="-9.329511525218331"><ele>51.4</ele><time>2026-04-19T11:44:59Z</time></trkpt><trkpt lat="38.88876244242039" lon="-9.329386458161782"><ele>51.199999999999996</ele><time>2026-04-19T11:45:00Z</time></trkpt><trkpt lat="38.88878106531927" lon="-9.329274407844677"><ele>51.0</ele><time>2026-04-19T11:45:01Z</time></trkpt><trkpt lat="38.88882527542761" lon="-9.329172620166627"><ele>51.0</ele><time>2026-04-19T11:45:02Z</time></trkpt><trkpt lat="38.888864250556985" lon="-9.329083512193018"><ele>51.0</ele><time>2026-04-19T11:45:03Z</time></trkpt><trkpt lat="38.88891265590748" lon="-9.329030061457535"><ele>51.0</ele><time>2026-04-19T11:45:04Z</time></trkpt><trkpt lat="38.88896797222953" lon="-9.328968044269665"><ele>51.0</ele><time>2026-04-19T11:45:05Z</time></trkpt><trkpt lat="38.8889727892866" lon="-9.328859578875006"><ele>51.0</ele><time>2026-04-19T11:45:06Z</time></trkpt><trkpt lat="38.88898232756776" lon="-9.32877747261984"><ele>51.0</ele><time>2026-04-19T11:45:07Z</time></trkpt><trkpt lat="38.88895148179971" lon="-9.328686040388149"><ele>51.0</ele><time>2026-04-19T11:45:09Z</time></trkpt><trkpt lat="38.888848655035645" lon="-9.328636102320635"><ele>51.199999999999996</ele><time>2026-04-19T11:45:15Z</time></trkpt><trkpt lat="38.888819968289944" lon="-9.328530314749845"><ele>51.4</ele><time>2026-04-19T11:45:17Z</time></trkpt><trkpt lat="38.88881122320468" lon="-9.32838661837742"><ele>51.6</ele><time>2026-04-19T11:45:20Z</time></trkpt><trkpt lat="38.888809577003975" lon="-9.328274642267516"><ele>51.8</ele><time>2026-04-19T11:45:21Z</time></trkpt><trkpt lat="38.888826589127746" lon="-9.328170808283977"><ele>52.0</ele><time>2026-04-19T11:45:22Z</time></trkpt><trkpt lat="38.8888327917216" lon="-9.328029412136013"><ele>53.33333333333333</ele><time>2026-04-19T11:45:23Z</time></trkpt><trkpt lat="38.88882604504138" lon="-9.327926716007841"><ele>54.666666666666664</ele><time>2026-04-19T11:45:24Z</time></trkpt><trkpt lat="38.888787090880406" lon="-9.327856529902382"><ele>56.0</ele><time>2026-04-19T11:45:25Z</time></trkpt><trkpt lat="38.88877761531488" lon="-9.327747603780798"><ele>57.33333333333333</ele><time>2026-04-19T11:45:26Z</time></trkpt><trkpt lat="38.888720429588076" lon="-9.32765791876986"><ele>58.666666666666664</ele><time>2026-04-19T11:45:27Z</time></trkpt><trkpt lat="38.88864126155719" lon="-9.327562918265176"><ele>60.0</ele><time>2026-04-19T11:45:28Z</time></trkpt><trkpt lat="38.88858730335295" lon="-9.327472044840972"><ele>60.0</ele><time>2026-04-19T11:45:29Z</time></trkpt><trkpt lat="38.88852743188172" lon="-9.327366854741047"><ele>60.0</ele><time>2026-04-19T11:45:30Z</time></trkpt><trkpt lat="38.888513709179485" lon="-9.327235945272209"><ele>60.0</ele><time>2026-04-19T11:45:31Z</time></trkpt><trkpt lat="38.88849506520637" lon="-9.327114013601536"><ele>60.0</ele><time>2026-04-19T11:45:32Z</time></trkpt><trkpt lat="38.888481910553196" lon="-9.326977752634516"><ele>60.0</ele><time>2026-04-19T11:45:33Z</time></trkpt><trkpt lat="38.88845969430946" lon="-9.32680229323727"><ele>59.0</ele><time>2026-04-19T11:45:34Z</time></trkpt><trkpt lat="38.88844081284434" lon="-9.326610780913978"><ele>58.0</ele><time>2026-04-19T11:45:35Z</time></trkpt><trkpt lat="38.888426740220886" lon="-9.326470411866442"><ele>57.0</ele><time>2026-04-19T11:45:36Z</time></trkpt><trkpt lat="38.888422274328" lon="-9.326351536063315"><ele>56.0</ele><time>2026-04-19T11:45:37Z</time></trkpt><trkpt lat="38.88842430893212" lon="-9.326250124527483"><ele>55.0</ele><time>2026-04-19T11:45:38Z</time></trkpt><trkpt lat="38.88842485808195" lon="-9.326132269558851"><ele>55.0</ele><time>2026-04-19T11:45:39Z</time></trkpt><trkpt lat="38.88841440779434" lon="-9.326035702006699"><ele>55.0</ele><time>2026-04-19T11:45:40Z</time></trkpt><trkpt lat="38.88840716858228" lon="-9.325903125879364"><ele>55.0</ele><time>2026-04-19T11:45:42Z</time></trkpt><trkpt lat="38.88839990456697" lon="-9.325740210391764"><ele>55.0</ele><time>2026-04-19T11:45:44Z</time></trkpt><trkpt lat="38.88840924576338" lon="-9.325640904707242"><ele>55.0</ele><time>2026-04-19T11:45:45Z</time></trkpt><trkpt lat="38.88842215121" lon="-9.325514177932044"><ele>55.0</ele><time>2026-04-19T11:45:46Z</time></trkpt><trkpt lat="38.88842485434443" lon="-9.32537983499421"><ele>55.0</ele><time>2026-04-19T11:45:47Z</time></trkpt><trkpt lat="38.88845167529745" lon="-9.325238766822581"><ele>55.0</ele><time>2026-04-19T11:45:48Z</time></trkpt><trkpt lat="38.88849128024337" lon="-9.325085082130437"><ele>55.0</ele><time>2026-04-19T11:45:49Z</time></trkpt><trkpt lat="38.88855351810589" lon="-9.324930520213181"><ele>58.25</ele><time>2026-04-19T11:45:50Z</time></trkpt><trkpt lat="38.88862728536585" lon="-9.324768238788788"><ele>61.5</ele><time>2026-04-19T11:45:51Z</time></trkpt><trkpt lat="38.888639819505784" lon="-9.324580011560489"><ele>64.75</ele><time>2026-04-19T11:45:52Z</time></trkpt><trkpt lat="38.888656077502844" lon="-9.324410687456902"><ele>68.0</ele><time>2026-04-19T11:45:53Z</time></trkpt><trkpt lat="38.88867288672409" lon="-9.324271667158984"><ele>68.0</ele><time>2026-04-19T11:45:54Z</time></trkpt><trkpt lat="38.888705640886386" lon="-9.324147268076796"><ele>68.0</ele><time>2026-04-19T11:45:55Z</time></trkpt><trkpt lat="38.8887305602287" lon="-9.324034891040698"><ele>68.0</ele><time>2026-04-19T11:45:56Z</time></trkpt><trkpt lat="38.888803997986145" lon="-9.323931366507576"><ele>68.0</ele><time>2026-04-19T11:45:57Z</time></trkpt><trkpt lat="38.88889566790242" lon="-9.323848405563147"><ele>68.0</ele><time>2026-04-19T11:45:58Z</time></trkpt><trkpt lat="38.888959885652596" lon="-9.32377325571742"><ele>66.0</ele><time>2026-04-19T11:45:59Z</time></trkpt><trkpt lat="38.888953985897835" lon="-9.323610611209943"><ele>64.0</ele><time>2026-04-19T11:46:00Z</time></trkpt><trkpt lat="38.88900469248055" lon="-9.323458013618868"><ele>62.0</ele><time>2026-04-19T11:46:01Z</time></trkpt><trkpt lat="38.889052308450424" lon="-9.323322977389754"><ele>60.0</ele><time>2026-04-19T11:46:02Z</time></trkpt><trkpt lat="38.889116490394954" lon="-9.323194376848992"><ele>60.0</ele><time>2026-04-19T11:46:03Z</time></trkpt><trkpt lat="38.88915772969287" lon="-9.32305471684454"><ele>60.0</ele><time>2026-04-19T11:46:04Z</time></trkpt><trkpt lat="38.88920481127986" lon="-9.322912119904062"><ele>60.0</ele><time>2026-04-19T11:46:05Z</time></trkpt><trkpt lat="38.88923779609029" lon="-9.322769840720914"><ele>60.0</ele><time>2026-04-19T11:46:06Z</time></trkpt><trkpt lat="38.889262744247624" lon="-9.32265443560028"><ele>60.0</ele><time>2026-04-19T11:46:07Z</time></trkpt><trkpt lat="38.889267139356306" lon="-9.322535993787515"><ele>59.6</ele><time>2026-04-19T11:46:08Z</time></trkpt><trkpt lat="38.889253513331454" lon="-9.32239612361388"><ele>59.2</ele><time>2026-04-19T11:46:09Z</time></trkpt><trkpt lat="38.8891586913385" lon="-9.322318458689217"><ele>58.8</ele><time>2026-04-19T11:46:10Z</time></trkpt><trkpt lat="38.889119258890396" lon="-9.322232424135048"><ele>58.4</ele><time>2026-04-19T11:46:11Z</time></trkpt><trkpt lat="38.88908160256748" lon="-9.322111309390204"><ele>58.0</ele><time>2026-04-19T11:46:12Z</time></trkpt><trkpt lat="38.88904215382255" lon="-9.321940931763953"><ele>58.0</ele><time>2026-04-19T11:46:13Z</time></trkpt><trkpt lat="38.88897804977403" lon="-9.321756596993104"><ele>58.0</ele><time>2026-04-19T11:46:14Z</time></trkpt><trkpt lat="38.88892284544131" lon="-9.321533916347017"><ele>58.0</ele><time>2026-04-19T11:46:15Z</time></trkpt><trkpt lat="38.888868366640246" lon="-9.321322858531609"><ele>62.0</ele><time>2026-04-19T11:46:16Z</time></trkpt><trkpt lat="38.88881101418964" lon="-9.321152340605545"><ele>66.0</ele><time>2026-04-19T11:46:17Z</time></trkpt><trkpt lat="38.88872517641709" lon="-9.320971507108997"><ele>70.0</ele><time>2026-04-19T11:46:18Z</time></trkpt><trkpt lat="38.88863050799598" lon="-9.320799571164804"><ele>70.0</ele><time>2026-04-19T11:46:19Z</time></trkpt><trkpt lat="38.88854430020472" lon="-9.320644391150097"><ele>70.0</ele><time>2026-04-19T11:46:20Z</time></trkpt><trkpt lat="38.888457898811446" lon="-9.320488862635544"><ele>70.0</ele><time>2026-04-19T11:46:21Z</time></trkpt><trkpt lat="38.888378197704604" lon="-9.320347753028528"><ele>70.0</ele><time>2026-04-19T11:46:22Z</time></trkpt><trkpt lat="38.888280646956964" lon="-9.32019784587855"><ele>71.33333333333333</ele><time>2026-04-19T11:46:23Z</time></trkpt><trkpt lat="38.88816230748463" lon="-9.320053601322376"><ele>72.66666666666667</ele><time>2026-04-19T11:46:24Z</time></trkpt><trkpt lat="38.888035290555315" lon="-9.319896045440487"><ele>74.0</ele><time>2026-04-19T11:46:25Z</time></trkpt><trkpt lat="38.88790821393009" lon="-9.319727896995838"><ele>74.0</ele><time>2026-04-19T11:46:26Z</time></trkpt><trkpt lat="38.887818030207356" lon="-9.319531277599436"><ele>74.0</ele><time>2026-04-19T11:46:27Z</time></trkpt><trkpt lat="38.88773055416544" lon="-9.319355610427255"><ele>74.0</ele><time>2026-04-19T11:46:28Z</time></trkpt><trkpt lat="38.88765217267601" lon="-9.3191987814407"><ele>71.2</ele><time>2026-04-19T11:46:29Z</time></trkpt><trkpt lat="38.88757834828225" lon="-9.319073247719066"><ele>68.4</ele><time>2026-04-19T11:46:30Z</time></trkpt><trkpt lat="38.88751760244826" lon="-9.318945386335024"><ele>65.6</ele><time>2026-04-19T11:46:31Z</time></trkpt><trkpt lat="38.887453877888866" lon="-9.318840697539846"><ele>62.8</ele><time>2026-04-19T11:46:32Z</time></trkpt><trkpt lat="38.887425909967575" lon="-9.318730286607515"><ele>60.0</ele><time>2026-04-19T11:46:33Z</time></trkpt><trkpt lat="38.88739888877257" lon="-9.318630835211716"><ele>60.0</ele><time>2026-04-19T11:46:34Z</time></trkpt><trkpt lat="38.887372900338065" lon="-9.318521571296333"><ele>60.0</ele><time>2026-04-19T11:46:35Z</time></trkpt><trkpt lat="38.88730964011187" lon="-9.318448725894841"><ele>60.0</ele><time>2026-04-19T11:46:36Z</time></trkpt><trkpt lat="38.88724430603104" lon="-9.318384715449982"><ele>60.0</ele><time>2026-04-19T11:46:37Z</time></trkpt><trkpt lat="38.88716726043604" lon="-9.318282248939022"><ele>60.0</ele><time>2026-04-19T11:46:38Z</time></trkpt><trkpt lat="38.887102010907775" lon="-9.318154009417011"><ele>62.5</ele><time>2026-04-19T11:46:39Z</time></trkpt><trkpt lat="38.88702993543483" lon="-9.318028285498068"><ele>65.0</ele><time>2026-04-19T11:46:40Z</time></trkpt><trkpt lat="38.88696873532951" lon="-9.317896823360918"><ele>67.5</ele><time>2026-04-19T11:46:41Z</time></trkpt><trkpt lat="38.88691672895312" lon="-9.317763144515057"><ele>70.0</ele><time>2026-04-19T11:46:42Z</time></trkpt><trkpt lat="38.88687518219296" lon="-9.3176393600325"><ele>70.0</ele><time>2026-04-19T11:46:43Z</time></trkpt><trkpt lat="38.886840988072045" lon="-9.317539292980817"><ele>70.0</ele><time>2026-04-19T11:46:44Z</time></trkpt><trkpt lat="38.88680338052046" lon="-9.317419546206956"><ele>70.0</ele><time>2026-04-19T11:46:45Z</time></trkpt><trkpt lat="38.88675499345807" lon="-9.317293937347536"><ele>70.0</ele><time>2026-04-19T11:46:46Z</time></trkpt><trkpt lat="38.88670028660333" lon="-9.317157379027135"><ele>70.0</ele><time>2026-04-19T11:46:47Z</time></trkpt><trkpt lat="38.88665484719385" lon="-9.317013513074423"><ele>69.0</ele><time>2026-04-19T11:46:48Z</time></trkpt><trkpt lat="38.88660055575397" lon="-9.31686689211713"><ele>68.0</ele><time>2026-04-19T11:46:49Z</time></trkpt><trkpt lat="38.88655356384817" lon="-9.316744267646703"><ele>67.0</ele><time>2026-04-19T11:46:50Z</time></trkpt><trkpt lat="38.8865267650659" lon="-9.316637644922231"><ele>66.0</ele><time>2026-04-19T11:46:51Z</time></trkpt><trkpt lat="38.88648827281612" lon="-9.316540243709367"><ele>65.0</ele><time>2026-04-19T11:46:52Z</time></trkpt><trkpt lat="38.88640888978609" lon="-9.316415324667764"><ele>66.5</ele><time>2026-04-19T11:46:53Z</time></trkpt><trkpt lat="38.88632034458832" lon="-9.316279451739687"><ele>68.0</ele><time>2026-04-19T11:46:54Z</time></trkpt><trkpt lat="38.886219648780916" lon="-9.316142235220639"><ele>69.5</ele><time>2026-04-19T11:46:55Z</time></trkpt><trkpt lat="38.88612132198162" lon="-9.316025160730817"><ele>71.0</ele><time>2026-04-19T11:46:56Z</time></trkpt><trkpt lat="38.88601531623422" lon="-9.315909238430407"><ele>68.33333333333334</ele><time>2026-04-19T11:46:57Z</time></trkpt><trkpt lat="38.88589736451088" lon="-9.315775209623961"><ele>65.66666666666667</ele><time>2026-04-19T11:46:58Z</time></trkpt><trkpt lat="38.885781348362954" lon="-9.315641424553908"><ele>63.0</ele><time>2026-04-19T11:46:59Z</time></trkpt><trkpt lat="38.88566487316328" lon="-9.315502199602761"><ele>63.0</ele><time>2026-04-19T11:47:00Z</time></trkpt><trkpt lat="38.885567850995315" lon="-9.315382973017423"><ele>63.0</ele><time>2026-04-19T11:47:01Z</time></trkpt><trkpt lat="38.885477862073806" lon="-9.31527138537183"><ele>63.0</ele><time>2026-04-19T11:47:02Z</time></trkpt><trkpt lat="38.885400790254515" lon="-9.315164247463734"><ele>63.0</ele><time>2026-04-19T11:47:03Z</time></trkpt><trkpt lat="38.88531492184911" lon="-9.315052926021771"><ele>63.0</ele><time>2026-04-19T11:47:04Z</time></trkpt><trkpt lat="38.88521900222807" lon="-9.314951547635546"><ele>63.0</ele><time>2026-04-19T11:47:05Z</time></trkpt><trkpt lat="38.88511803081538" lon="-9.314845768062082"><ele>63.0</ele><time>2026-04-19T11:47:06Z</time></trkpt><trkpt lat="38.885027895712085" lon="-9.314740120533529"><ele>63.0</ele><time>2026-04-19T11:47:07Z</time></trkpt><trkpt lat="38.88492281402928" lon="-9.314663425467202"><ele>63.5</ele><time>2026-04-19T11:47:08Z</time></trkpt><trkpt lat="38.88481044741242" lon="-9.314599469734647"><ele>64.0</ele><time>2026-04-19T11:47:09Z</time></trkpt><trkpt lat="38.88468636256898" lon="-9.314551499550939"><ele>64.5</ele><time>2026-04-19T11:47:10Z</time></trkpt><trkpt lat="38.88455526978941" lon="-9.314520208958767"><ele>65.0</ele><time>2026-04-19T11:47:11Z</time></trkpt><trkpt lat="38.884434222506805" lon="-9.314488239051446"><ele>65.0</ele><time>2026-04-19T11:47:12Z</time></trkpt><trkpt lat="38.884339392946075" lon="-9.314441353351627"><ele>65.0</ele><time>2026-04-19T11:47:13Z</time></trkpt><trkpt lat="38.88423031577338" lon="-9.314382127225624"><ele>65.0</ele><time>2026-04-19T11:47:14Z</time></trkpt><trkpt lat="38.884104448772256" lon="-9.314269122269733"><ele>65.0</ele><time>2026-04-19T11:47:16Z</time></trkpt><trkpt lat="38.884010048365134" lon="-9.314201828595587"><ele>64.4</ele><time>2026-04-19T11:47:17Z</time></trkpt><trkpt lat="38.883962806101366" lon="-9.314048007042592"><ele>63.8</ele><time>2026-04-19T11:47:18Z</time></trkpt><trkpt lat="38.883898619562174" lon="-9.313977670273017"><ele>63.2</ele><time>2026-04-19T11:47:19Z</time></trkpt><trkpt lat="38.88382397481475" lon="-9.313903965611935"><ele>62.6</ele><time>2026-04-19T11:47:20Z</time></trkpt><trkpt lat="38.88374044267399" lon="-9.313851541027299"><ele>62.0</ele><time>2026-04-19T11:47:21Z</time></trkpt><trkpt lat="38.88367635132636" lon="-9.313752594866054"><ele>63.2</ele><time>2026-04-19T11:47:22Z</time></trkpt><trkpt lat="38.88362992143438" lon="-9.31364595894982"><ele>64.4</ele><time>2026-04-19T11:47:23Z</time></trkpt><trkpt lat="38.88360434444761" lon="-9.313523197604534"><ele>65.6</ele><time>2026-04-19T11:47:24Z</time></trkpt><trkpt lat="38.8835854557304" lon="-9.313369738179409"><ele>66.8</ele><time>2026-04-19T11:47:25Z</time></trkpt><trkpt lat="38.88356002285441" lon="-9.313225152872429"><ele>68.0</ele><time>2026-04-19T11:47:26Z</time></trkpt><trkpt lat="38.88354065023193" lon="-9.313079567372652"><ele>69.5</ele><time>2026-04-19T11:47:27Z</time></trkpt><trkpt lat="38.88352227560982" lon="-9.312922427445967"><ele>71.0</ele><time>2026-04-19T11:47:28Z</time></trkpt><trkpt lat="38.88351318508049" lon="-9.312766981727739"><ele>72.5</ele><time>2026-04-19T11:47:29Z</time></trkpt><trkpt lat="38.88350478427587" lon="-9.31259708475608"><ele>74.0</ele><time>2026-04-19T11:47:30Z</time></trkpt><trkpt lat="38.883500846425584" lon="-9.312423223489755"><ele>74.0</ele><time>2026-04-19T11:47:31Z</time></trkpt><trkpt lat="38.88349534423855" lon="-9.31224129560534"><ele>74.0</ele><time>2026-04-19T11:47:32Z</time></trkpt><trkpt lat="38.883471953122466" lon="-9.312059224885319"><ele>74.0</ele><time>2026-04-19T11:47:33Z</time></trkpt><trkpt lat="38.88341476452372" lon="-9.31186681061369"><ele>74.0</ele><time>2026-04-19T11:47:34Z</time></trkpt><trkpt lat="38.883355548017434" lon="-9.311680878225065"><ele>73.0</ele><time>2026-04-19T11:47:35Z</time></trkpt><trkpt lat="38.883289642994335" lon="-9.311491590948641"><ele>72.0</ele><time>2026-04-19T11:47:36Z</time></trkpt><trkpt lat="38.88325490471735" lon="-9.311295965712874"><ele>71.0</ele><time>2026-04-19T11:47:37Z</time></trkpt><trkpt lat="38.88321351501178" lon="-9.311107617584385"><ele>71.0</ele><time>2026-04-19T11:47:38Z</time></trkpt><trkpt lat="38.8831816906649" lon="-9.310937508580967"><ele>71.0</ele><time>2026-04-19T11:47:39Z</time></trkpt><trkpt lat="38.883154127617544" lon="-9.310774668939311"><ele>71.0</ele><time>2026-04-19T11:47:40Z</time></trkpt><trkpt lat="38.88310461754922" lon="-9.310627975299836"><ele>71.0</ele><time>2026-04-19T11:47:41Z</time></trkpt><trkpt lat="38.88304951740115" lon="-9.310482230814229"><ele>73.5</ele><time>2026-04-19T11:47:42Z</time></trkpt><trkpt lat="38.88299696767017" lon="-9.310330623232185"><ele>76.0</ele><time>2026-04-19T11:47:43Z</time></trkpt><trkpt lat="38.88291472917574" lon="-9.310189718498837"><ele>78.5</ele><time>2026-04-19T11:47:44Z</time></trkpt><trkpt lat="38.882813587001486" lon="-9.31005844238726"><ele>81.0</ele><time>2026-04-19T11:47:45Z</time></trkpt><trkpt lat="38.88270495347522" lon="-9.309923784034535"><ele>78.66666666666667</ele><time>2026-04-19T11:47:46Z</time></trkpt><trkpt lat="38.88259323311877" lon="-9.3097852482938"><ele>76.33333333333334</ele><time>2026-04-19T11:47:47Z</time></trkpt><trkpt lat="38.882480528945905" lon="-9.309643232745254"><ele>74.0</ele><time>2026-04-19T11:47:48Z</time></trkpt><trkpt lat="38.88237803131077" lon="-9.309477244853035"><ele>74.0</ele><time>2026-04-19T11:47:49Z</time></trkpt><trkpt lat="38.88229274710541" lon="-9.3093148100905"><ele>74.0</ele><time>2026-04-19T11:47:50Z</time></trkpt><trkpt lat="38.88223027586521" lon="-9.309171101782415"><ele>74.0</ele><time>2026-04-19T11:47:51Z</time></trkpt><trkpt lat="38.88218208319784" lon="-9.309046838906706"><ele>74.0</ele><time>2026-04-19T11:47:52Z</time></trkpt><trkpt lat="38.882141898671264" lon="-9.308945078192929"><ele>74.60000000000001</ele><time>2026-04-19T11:47:53Z</time></trkpt><trkpt lat="38.882089142806684" lon="-9.308854732147664"><ele>75.2</ele><time>2026-04-19T11:47:54Z</time></trkpt><trkpt lat="38.881991008426276" lon="-9.308780602881274"><ele>75.80000000000001</ele><time>2026-04-19T11:47:55Z</time></trkpt><trkpt lat="38.88187935488405" lon="-9.308735414025895"><ele>76.4</ele><time>2026-04-19T11:47:56Z</time></trkpt><trkpt lat="38.881791182272266" lon="-9.308628346274038"><ele>77.0</ele><time>2026-04-19T11:47:57Z</time></trkpt><trkpt lat="38.88173113288981" lon="-9.308517664404807"><ele>75.6</ele><time>2026-04-19T11:47:58Z</time></trkpt><trkpt lat="38.88167428592925" lon="-9.308416994677735"><ele>74.2</ele><time>2026-04-19T11:47:59Z</time></trkpt><trkpt lat="38.8816124503557" lon="-9.308323716612751"><ele>72.8</ele><time>2026-04-19T11:48:00Z</time></trkpt><trkpt lat="38.881542473872045" lon="-9.308252254712519"><ele>71.4</ele><time>2026-04-19T11:48:01Z</time></trkpt><trkpt lat="38.8814520156641" lon="-9.308228846959791"><ele>70.0</ele><time>2026-04-19T11:48:02Z</time></trkpt><trkpt lat="38.88134783329451" lon="-9.308216122994907"><ele>70.0</ele><time>2026-04-19T11:48:03Z</time></trkpt><trkpt lat="38.881237638476414" lon="-9.308219159356499"><ele>70.0</ele><time>2026-04-19T11:48:04Z</time></trkpt><trkpt lat="38.8811280590937" lon="-9.308195467314018"><ele>70.0</ele><time>2026-04-19T11:48:05Z</time></trkpt><trkpt lat="38.88102451866519" lon="-9.308138651975437"><ele>70.0</ele><time>2026-04-19T11:48:06Z</time></trkpt><trkpt lat="38.88092548994223" lon="-9.308071080808649"><ele>70.0</ele><time>2026-04-19T11:48:07Z</time></trkpt><trkpt lat="38.8808231344138" lon="-9.30799086098709"><ele>71.8</ele><time>2026-04-19T11:48:08Z</time></trkpt><trkpt lat="38.880712928882026" lon="-9.307921120484723"><ele>73.6</ele><time>2026-04-19T11:48:09Z</time></trkpt><trkpt lat="38.8806293694331" lon="-9.307863578428114"><ele>75.4</ele><time>2026-04-19T11:48:10Z</time></trkpt><trkpt lat="38.880559723475265" lon="-9.30781573803157"><ele>77.2</ele><time>2026-04-19T11:48:11Z</time></trkpt><trkpt lat="38.88046508319268" lon="-9.307784240629404"><ele>79.0</ele><time>2026-04-19T11:48:12Z</time></trkpt><trkpt lat="38.88036491264844" lon="-9.307773154859914"><ele>79.0</ele><time>2026-04-19T11:48:13Z</time></trkpt><trkpt lat="38.88026124604041" lon="-9.307743851548741"><ele>79.0</ele><time>2026-04-19T11:48:14Z</time></trkpt><trkpt lat="38.88018933461589" lon="-9.307715675098772"><ele>79.0</ele><time>2026-04-19T11:48:15Z</time></trkpt><trkpt lat="38.880129941317634" lon="-9.307650247416678"><ele>79.0</ele><time>2026-04-19T11:48:16Z</time></trkpt><trkpt lat="38.88008004711796" lon="-9.307547344643615"><ele>79.0</ele><time>2026-04-19T11:48:17Z</time></trkpt><trkpt lat="38.8800369014462" lon="-9.307400479572502"><ele>82.25</ele><time>2026-04-19T11:48:18Z</time></trkpt><trkpt lat="38.87998912121715" lon="-9.307239855770236"><ele>85.5</ele><time>2026-04-19T11:48:19Z</time></trkpt><trkpt lat="38.87994400122694" lon="-9.307061480316705"><ele>88.75</ele><time>2026-04-19T11:48:20Z</time></trkpt><trkpt lat="38.879882075807245" lon="-9.306879363635531"><ele>92.0</ele><time>2026-04-19T11:48:21Z</time></trkpt><trkpt lat="38.8798014440796" lon="-9.306718218721594"><ele>92.0</ele><time>2026-04-19T11:48:22Z</time></trkpt><trkpt lat="38.87971630011649" lon="-9.306555582656422"><ele>92.0</ele><time>2026-04-19T11:48:23Z</time></trkpt><trkpt lat="38.879645186157724" lon="-9.306433239556606"><ele>92.0</ele><time>2026-04-19T11:48:24Z</time></trkpt><trkpt lat="38.87958360002589" lon="-9.306335827317316"><ele>92.0</ele><time>2026-04-19T11:48:25Z</time></trkpt><trkpt lat="38.87950859254833" lon="-9.306274175548632"><ele>90.83333333333334</ele><time>2026-04-19T11:48:26Z</time></trkpt><trkpt lat="38.87949405351607" lon="-9.306131425009102"><ele>89.66666666666667</ele><time>2026-04-19T11:48:28Z</time></trkpt><trkpt lat="38.879511265981854" lon="-9.306044488039836"><ele>88.5</ele><time>2026-04-19T11:48:29Z</time></trkpt><trkpt lat="38.879480723264294" lon="-9.305953477552409"><ele>87.33333333333333</ele><time>2026-04-19T11:48:30Z</time></trkpt><trkpt lat="38.8794498274211" lon="-9.30586636491387"><ele>86.16666666666666</ele><time>2026-04-19T11:48:31Z</time></trkpt><trkpt lat="38.879434441579825" lon="-9.305745588353881"><ele>85.0</ele><time>2026-04-19T11:48:32Z</time></trkpt><trkpt lat="38.87942407368262" lon="-9.305640038486498"><ele>84.4</ele><time>2026-04-19T11:48:33Z</time></trkpt><trkpt lat="38.87940472710953" lon="-9.305528701787532"><ele>83.8</ele><time>2026-04-19T11:48:34Z</time></trkpt><trkpt lat="38.879390123920636" lon="-9.305387081728124"><ele>83.19999999999999</ele><time>2026-04-19T11:48:35Z</time></trkpt><trkpt lat="38.87936767772346" lon="-9.30523483382523"><ele>82.6</ele><time>2026-04-19T11:48:36Z</time></trkpt><trkpt lat="38.87935871325493" lon="-9.30509245584268"><ele>82.0</ele><time>2026-04-19T11:48:37Z</time></trkpt><trkpt lat="38.87935892453405" lon="-9.304983177665111"><ele>82.0</ele><time>2026-04-19T11:48:38Z</time></trkpt><trkpt lat="38.879354033985656" lon="-9.304860551451414"><ele>82.0</ele><time>2026-04-19T11:48:40Z</time></trkpt><trkpt lat="38.87935522494641" lon="-9.304731249796669"><ele>82.0</ele><time>2026-04-19T11:48:42Z</time></trkpt><trkpt lat="38.8793530484504" lon="-9.304623317331334"><ele>82.0</ele><time>2026-04-19T11:48:44Z</time></trkpt><trkpt lat="38.87933180438065" lon="-9.30451096821257"><ele>82.0</ele><time>2026-04-19T11:48:46Z</time></trkpt><trkpt lat="38.87933870624583" lon="-9.304408021469687"><ele>82.19999999999999</ele><time>2026-04-19T11:48:47Z</time></trkpt><trkpt lat="38.879350961900954" lon="-9.304271649445827"><ele>82.4</ele><time>2026-04-19T11:48:48Z</time></trkpt><trkpt lat="38.879384970421754" lon="-9.30413503244785"><ele>82.6</ele><time>2026-04-19T11:48:49Z</time></trkpt><trkpt lat="38.879462547113995" lon="-9.304014469646999"><ele>82.80000000000001</ele><time>2026-04-19T11:48:50Z</time></trkpt><trkpt lat="38.87952665691227" lon="-9.303923773731464"><ele>83.0</ele><time>2026-04-19T11:48:51Z</time></trkpt><trkpt lat="38.87957705257546" lon="-9.3038298065348"><ele>83.0</ele><time>2026-04-19T11:48:52Z</time></trkpt><trkpt lat="38.879611900342105" lon="-9.303713367739206"><ele>83.0</ele><time>2026-04-19T11:48:53Z</time></trkpt><trkpt lat="38.879620438208065" lon="-9.303593258686888"><ele>83.0</ele><time>2026-04-19T11:48:54Z</time></trkpt><trkpt lat="38.879602594284904" lon="-9.303450751484649"><ele>83.0</ele><time>2026-04-19T11:48:55Z</time></trkpt><trkpt lat="38.87959590524894" lon="-9.303299104459876"><ele>83.0</ele><time>2026-04-19T11:48:56Z</time></trkpt><trkpt lat="38.879560315013535" lon="-9.303157802366826"><ele>83.25</ele><time>2026-04-19T11:48:57Z</time></trkpt><trkpt lat="38.879513479078945" lon="-9.302997305564505"><ele>83.5</ele><time>2026-04-19T11:48:58Z</time></trkpt><trkpt lat="38.879467009174114" lon="-9.302857706481097"><ele>83.75</ele><time>2026-04-19T11:48:59Z</time></trkpt><trkpt lat="38.8794182295471" lon="-9.302727166802637"><ele>84.0</ele><time>2026-04-19T11:49:00Z</time></trkpt><trkpt lat="38.879397952688095" lon="-9.302560732110821"><ele>84.0</ele><time>2026-04-19T11:49:01Z</time></trkpt><trkpt lat="38.8793784201607" lon="-9.30241882171637"><ele>84.0</ele><time>2026-04-19T11:49:02Z</time></trkpt><trkpt lat="38.87937776480281" lon="-9.302261502429156"><ele>84.0</ele><time>2026-04-19T11:49:03Z</time></trkpt><trkpt lat="38.87942485050514" lon="-9.302093548119531"><ele>84.0</ele><time>2026-04-19T11:49:04Z</time></trkpt><trkpt lat="38.87948530596327" lon="-9.301938110134001"><ele>85.75</ele><time>2026-04-19T11:49:05Z</time></trkpt><trkpt lat="38.87956268134239" lon="-9.30181675507472"><ele>87.5</ele><time>2026-04-19T11:49:06Z</time></trkpt><trkpt lat="38.87965717953828" lon="-9.301722364974202"><ele>89.25</ele><time>2026-04-19T11:49:07Z</time></trkpt><trkpt lat="38.87974169669846" lon="-9.30162722704604"><ele>91.0</ele><time>2026-04-19T11:49:08Z</time></trkpt><trkpt lat="38.87981206153453" lon="-9.301521742190076"><ele>95.75</ele><time>2026-04-19T11:49:09Z</time></trkpt><trkpt lat="38.879882340051346" lon="-9.30140899558878"><ele>100.5</ele><time>2026-04-19T11:49:10Z</time></trkpt><trkpt lat="38.87993611562567" lon="-9.301270441079202"><ele>105.25</ele><time>2026-04-19T11:49:11Z</time></trkpt><trkpt lat="38.88000446806581" lon="-9.30113748959602"><ele>110.0</ele><time>2026-04-19T11:49:12Z</time></trkpt><trkpt lat="38.88007494687565" lon="-9.300996493531954"><ele>108.25</ele><time>2026-04-19T11:49:13Z</time></trkpt><trkpt lat="38.88014855268316" lon="-9.300848764624657"><ele>106.5</ele><time>2026-04-19T11:49:14Z</time></trkpt><trkpt lat="38.88022702917425" lon="-9.30069151945376"><ele>104.75</ele><time>2026-04-19T11:49:15Z</time></trkpt><trkpt lat="38.88031570805505" lon="-9.300533243615634"><ele>103.0</ele><time>2026-04-19T11:49:16Z</time></trkpt><trkpt lat="38.88040646997385" lon="-9.30039057037365"><ele>103.0</ele><time>2026-04-19T11:49:17Z</time></trkpt><trkpt lat="38.88048460593757" lon="-9.300264285774277"><ele>103.0</ele><time>2026-04-19T11:49:18Z</time></trkpt><trkpt lat="38.88055051431728" lon="-9.300156425160898"><ele>103.0</ele><time>2026-04-19T11:49:19Z</time></trkpt><trkpt lat="38.88061092995407" lon="-9.300053481927801"><ele>103.0</ele><time>2026-04-19T11:49:20Z</time></trkpt><trkpt lat="38.88066051079337" lon="-9.299947742787873"><ele>103.0</ele><time>2026-04-19T11:49:21Z</time></trkpt><trkpt lat="38.8806860518163" lon="-9.299852637862353"><ele>103.0</ele><time>2026-04-19T11:49:22Z</time></trkpt><trkpt lat="38.88062147891141" lon="-9.299799338022224"><ele>103.0</ele><time>2026-04-19T11:49:24Z</time></trkpt><trkpt lat="38.88063848949099" lon="-9.299895533427232"><ele>103.0</ele><time>2026-04-19T11:49:27Z</time></trkpt><trkpt lat="38.880533415019414" lon="-9.299996709544942"><ele>103.0</ele><time>2026-04-19T11:49:28Z</time></trkpt><trkpt lat="38.88045852168677" lon="-9.300071505066496"><ele>103.0</ele><time>2026-04-19T11:49:29Z</time></trkpt><trkpt lat="38.88035181421883" lon="-9.300151127984229"><ele>103.0</ele><time>2026-04-19T11:49:30Z</time></trkpt><trkpt lat="38.88023802832913" lon="-9.30022786185689"><ele>103.0</ele><time>2026-04-19T11:49:31Z</time></trkpt><trkpt lat="38.88010841554" lon="-9.300313948178978"><ele>103.0</ele><time>2026-04-19T11:49:32Z</time></trkpt><trkpt lat="38.879968594693835" lon="-9.300400172833482"><ele>103.0</ele><time>2026-04-19T11:49:33Z</time></trkpt><trkpt lat="38.87982979109758" lon="-9.300494281321184"><ele>105.33333333333334</ele><time>2026-04-19T11:49:34Z</time></trkpt><trkpt lat="38.8796835543946" lon="-9.300589231090322"><ele>107.66666666666666</ele><time>2026-04-19T11:49:35Z</time></trkpt><trkpt lat="38.87952964957048" lon="-9.300684692408458"><ele>110.0</ele><time>2026-04-19T11:49:36Z</time></trkpt><trkpt lat="38.87940623316951" lon="-9.300764097564794"><ele>110.0</ele><time>2026-04-19T11:49:37Z</time></trkpt><trkpt lat="38.879291104145885" lon="-9.300816512067177"><ele>110.0</ele><time>2026-04-19T11:49:38Z</time></trkpt><trkpt lat="38.879169034164136" lon="-9.300840722388152"><ele>110.0</ele><time>2026-04-19T11:49:39Z</time></trkpt><trkpt lat="38.87903026107351" lon="-9.300811305381723"><ele>110.0</ele><time>2026-04-19T11:49:40Z</time></trkpt><trkpt lat="38.87889109172205" lon="-9.300733918707374"><ele>116.33333333333333</ele><time>2026-04-19T11:49:41Z</time></trkpt><trkpt lat="38.87874285377177" lon="-9.30063469455414"><ele>122.66666666666666</ele><time>2026-04-19T11:49:42Z</time></trkpt><trkpt lat="38.87858290093297" lon="-9.300535954221553"><ele>129.0</ele><time>2026-04-19T11:49:43Z</time></trkpt><trkpt lat="38.87841619360439" lon="-9.300430671086263"><ele>135.0</ele><time>2026-04-19T11:49:44Z</time></trkpt><trkpt lat="38.87824762822183" lon="-9.300324088703602"><ele>141.0</ele><time>2026-04-19T11:49:45Z</time></trkpt><trkpt lat="38.87807940218023" lon="-9.300228418469107"><ele>147.0</ele><time>2026-04-19T11:49:46Z</time></trkpt><trkpt lat="38.877905304005964" lon="-9.300123517718735"><ele>147.0</ele><time>2026-04-19T11:49:47Z</time></trkpt><trkpt lat="38.87772567827338" lon="-9.300008642846073"><ele>147.0</ele><time>2026-04-19T11:49:48Z</time></trkpt><trkpt lat="38.877541011670715" lon="-9.299899727952537"><ele>147.0</ele><time>2026-04-19T11:49:49Z</time></trkpt><trkpt lat="38.877350869336375" lon="-9.299800554418944"><ele>147.66666666666666</ele><time>2026-04-19T11:49:50Z</time></trkpt><trkpt lat="38.87718032765114" lon="-9.299765563627018"><ele>148.33333333333331</ele><time>2026-04-19T11:49:51Z</time></trkpt><trkpt lat="38.87701130091083" lon="-9.299729566394582"><ele>149.0</ele><time>2026-04-19T11:49:52Z</time></trkpt><trkpt lat="38.876835027274275" lon="-9.299687611608586"><ele>154.0</ele><time>2026-04-19T11:49:53Z</time></trkpt><trkpt lat="38.87664789253559" lon="-9.29966963361599"><ele>159.0</ele><time>2026-04-19T11:49:54Z</time></trkpt><trkpt lat="38.87645354169687" lon="-9.299642429474806"><ele>164.0</ele><time>2026-04-19T11:49:55Z</time></trkpt><trkpt lat="38.87625532531633" lon="-9.299606665003896"><ele>164.0</ele><time>2026-04-19T11:49:56Z</time></trkpt><trkpt lat="38.8760607739791" lon="-9.299559914957117"><ele>164.0</ele><time>2026-04-19T11:49:57Z</time></trkpt><trkpt lat="38.87590548730236" lon="-9.29951881304018"><ele>164.0</ele><time>2026-04-19T11:49:58Z</time></trkpt><trkpt lat="38.87576319450834" lon="-9.299482729430611"><ele>164.0</ele><time>2026-04-19T11:49:59Z</time></trkpt><trkpt lat="38.87563511329152" lon="-9.299450281287934"><ele>164.0</ele><time>2026-04-19T11:50:00Z</time></trkpt><trkpt lat="38.87551313071391" lon="-9.299418107949526"><ele>164.0</ele><time>2026-04-19T11:50:01Z</time></trkpt><trkpt lat="38.875378568421105" lon="-9.299383332648741"><ele>164.0</ele><time>2026-04-19T11:50:02Z</time></trkpt><trkpt lat="38.87524142209286" lon="-9.299333232660507"><ele>163.5</ele><time>2026-04-19T11:50:03Z</time></trkpt><trkpt lat="38.875096854479544" lon="-9.299256201225525"><ele>163.0</ele><time>2026-04-19T11:50:04Z</time></trkpt><trkpt lat="38.87494390206817" lon="-9.299227466765066"><ele>162.5</ele><time>2026-04-19T11:50:05Z</time></trkpt><trkpt lat="38.87481316057301" lon="-9.29921948597398"><ele>162.0</ele><time>2026-04-19T11:50:06Z</time></trkpt><trkpt lat="38.874690176770685" lon="-9.299222604512698"><ele>162.0</ele><time>2026-04-19T11:50:07Z</time></trkpt><trkpt lat="38.874585510626986" lon="-9.299214007457907"><ele>162.0</ele><time>2026-04-19T11:50:08Z</time></trkpt><trkpt lat="38.874483567582516" lon="-9.299235984791451"><ele>162.0</ele><time>2026-04-19T11:50:09Z</time></trkpt><trkpt lat="38.874408938669" lon="-9.299246764205133"><ele>162.0</ele><time>2026-04-19T11:50:10Z</time></trkpt><trkpt lat="38.87441017079262" lon="-9.299056791465004"><ele>162.0</ele><time>2026-04-19T11:50:13Z</time></trkpt><trkpt lat="38.874479298505165" lon="-9.29896023153003"><ele>162.5</ele><time>2026-04-19T11:50:14Z</time></trkpt><trkpt lat="38.874539153503186" lon="-9.298842588071187"><ele>163.0</ele><time>2026-04-19T11:50:15Z</time></trkpt><trkpt lat="38.87460336901162" lon="-9.298704471211922"><ele>163.5</ele><time>2026-04-19T11:50:16Z</time></trkpt><trkpt lat="38.87468398973455" lon="-9.298552757493601"><ele>164.0</ele><time>2026-04-19T11:50:17Z</time></trkpt><trkpt lat="38.87477224972445" lon="-9.298395918806369"><ele>164.0</ele><time>2026-04-19T11:50:18Z</time></trkpt><trkpt lat="38.87487913389064" lon="-9.298222213420951"><ele>164.0</ele><time>2026-04-19T11:50:19Z</time></trkpt><trkpt lat="38.87498740936426" lon="-9.298047026431568"><ele>164.0</ele><time>2026-04-19T11:50:20Z</time></trkpt><trkpt lat="38.87511429404126" lon="-9.297860409129276"><ele>164.33333333333331</ele><time>2026-04-19T11:50:21Z</time></trkpt><trkpt lat="38.87526141232782" lon="-9.297650330360641"><ele>164.66666666666666</ele><time>2026-04-19T11:50:22Z</time></trkpt><trkpt lat="38.87540202658235" lon="-9.29743829356847"><ele>165.0</ele><time>2026-04-19T11:50:23Z</time></trkpt><trkpt lat="38.87554751070578" lon="-9.297220696720814"><ele>165.33333333333334</ele><time>2026-04-19T11:50:24Z</time></trkpt><trkpt lat="38.875662075354626" lon="-9.29699351015552"><ele>165.66666666666669</ele><time>2026-04-19T11:50:25Z</time></trkpt><trkpt lat="38.87579297902639" lon="-9.2967453978639"><ele>166.0</ele><time>2026-04-19T11:50:26Z</time></trkpt><trkpt lat="38.87591343324113" lon="-9.296498049234577"><ele>169.0</ele><time>2026-04-19T11:50:27Z</time></trkpt><trkpt lat="38.876024329903345" lon="-9.296223268804598"><ele>172.0</ele><time>2026-04-19T11:50:28Z</time></trkpt><trkpt lat="38.876117454112126" lon="-9.295947383603709"><ele>172.0</ele><time>2026-04-19T11:50:29Z</time></trkpt><trkpt lat="38.876217451280425" lon="-9.295677847626283"><ele>172.0</ele><time>2026-04-19T11:50:30Z</time></trkpt><trkpt lat="38.876328693146505" lon="-9.295408881843573"><ele>172.66666666666669</ele><time>2026-04-19T11:50:31Z</time></trkpt><trkpt lat="38.876454960552245" lon="-9.295190602391814"><ele>173.33333333333334</ele><time>2026-04-19T11:50:32Z</time></trkpt><trkpt lat="38.87656904010578" lon="-9.29499187579271"><ele>174.0</ele><time>2026-04-19T11:50:33Z</time></trkpt><trkpt lat="38.876698601721415" lon="-9.294799815791878"><ele>176.33333333333334</ele><time>2026-04-19T11:50:34Z</time></trkpt><trkpt lat="38.8768450865445" lon="-9.29460985595861"><ele>178.66666666666669</ele><time>2026-04-19T11:50:35Z</time></trkpt><trkpt lat="38.87698110072322" lon="-9.294453252886711"><ele>181.0</ele><time>2026-04-19T11:50:36Z</time></trkpt><trkpt lat="38.87711281786636" lon="-9.294317269542105"><ele>181.0</ele><time>2026-04-19T11:50:37Z</time></trkpt><trkpt lat="38.87723454581039" lon="-9.29419908464259"><ele>181.0</ele><time>2026-04-19T11:50:38Z</time></trkpt><trkpt lat="38.877337335500705" lon="-9.294095514984981"><ele>181.0</ele><time>2026-04-19T11:50:39Z</time></trkpt><trkpt lat="38.87742899855226" lon="-9.2939924504702"><ele>181.0</ele><time>2026-04-19T11:50:40Z</time></trkpt><trkpt lat="38.877510424560136" lon="-9.293908867141205"><ele>181.0</ele><time>2026-04-19T11:50:41Z</time></trkpt><trkpt lat="38.87760961894033" lon="-9.293823961168227"><ele>181.0</ele><time>2026-04-19T11:50:42Z</time></trkpt><trkpt lat="38.87769444262897" lon="-9.293726524170129"><ele>181.0</ele><time>2026-04-19T11:50:43Z</time></trkpt><trkpt lat="38.877786703486684" lon="-9.2936242407612"><ele>181.0</ele><time>2026-04-19T11:50:44Z</time></trkpt><trkpt lat="38.8778717071583" lon="-9.293528350451101"><ele>181.0</ele><time>2026-04-19T11:50:45Z</time></trkpt><trkpt lat="38.87797057034502" lon="-9.293418380646871"><ele>181.0</ele><time>2026-04-19T11:50:46Z</time></trkpt><trkpt lat="38.87808796048235" lon="-9.293304320689208"><ele>181.0</ele><time>2026-04-19T11:50:47Z</time></trkpt><trkpt lat="38.87819789120345" lon="-9.293182779116657"><ele>181.0</ele><time>2026-04-19T11:50:48Z</time></trkpt><trkpt lat="38.87830200548664" lon="-9.293075129750918"><ele>180.0</ele><time>2026-04-19T11:50:49Z</time></trkpt><trkpt lat="38.87838022377723" lon="-9.292966524959008"><ele>179.0</ele><time>2026-04-19T11:50:50Z</time></trkpt><trkpt lat="38.878464411906336" lon="-9.292870196953729"><ele>178.0</ele><time>2026-04-19T11:50:51Z</time></trkpt><trkpt lat="38.87856613515446" lon="-9.292789513484376"><ele>177.0</ele><time>2026-04-19T11:50:52Z</time></trkpt><trkpt lat="38.87866153048184" lon="-9.292724674295599"><ele>177.0</ele><time>2026-04-19T11:50:53Z</time></trkpt><trkpt lat="38.87875804334165" lon="-9.292658952723482"><ele>177.0</ele><time>2026-04-19T11:50:54Z</time></trkpt><trkpt lat="38.87886450401028" lon="-9.292598311041166"><ele>177.0</ele><time>2026-04-19T11:50:55Z</time></trkpt><trkpt lat="38.87892466037642" lon="-9.292566764346349"><ele>177.0</ele><time>2026-04-19T11:50:56Z</time></trkpt><trkpt lat="38.87899164711392" lon="-9.292609455232547"><ele>177.0</ele><time>2026-04-19T11:50:58Z</time></trkpt><trkpt lat="38.8789018208309" lon="-9.292466417159693"><ele>177.0</ele><time>2026-04-19T11:50:59Z</time></trkpt><trkpt lat="38.878843390373504" lon="-9.292340120993233"><ele>177.0</ele><time>2026-04-19T11:51:00Z</time></trkpt><trkpt lat="38.878790840970844" lon="-9.292221949388976"><ele>177.0</ele><time>2026-04-19T11:51:01Z</time></trkpt><trkpt lat="38.87872218170997" lon="-9.29212001251198"><ele>177.0</ele><time>2026-04-19T11:51:02Z</time></trkpt><trkpt lat="38.8786483499742" lon="-9.292063699354232"><ele>177.0</ele><time>2026-04-19T11:51:03Z</time></trkpt><trkpt lat="38.878561577279605" lon="-9.292034831045012"><ele>176.6</ele><time>2026-04-19T11:51:04Z</time></trkpt><trkpt lat="38.87847792340918" lon="-9.29200695452087"><ele>176.2</ele><time>2026-04-19T11:51:05Z</time></trkpt><trkpt lat="38.878383836743915" lon="-9.29199104585449"><ele>175.8</ele><time>2026-04-19T11:51:06Z</time></trkpt><trkpt lat="38.87829873179407" lon="-9.291946095773735"><ele>175.4</ele><time>2026-04-19T11:51:07Z</time></trkpt><trkpt lat="38.87823293026484" lon="-9.291862801300931"><ele>175.0</ele><time>2026-04-19T11:51:08Z</time></trkpt><trkpt lat="38.878181477484965" lon="-9.291754319548586"><ele>175.0</ele><time>2026-04-19T11:51:09Z</time></trkpt><trkpt lat="38.87815520274724" lon="-9.291623246079155"><ele>175.0</ele><time>2026-04-19T11:51:10Z</time></trkpt><trkpt lat="38.87813958990623" lon="-9.291466807125289"><ele>175.0</ele><time>2026-04-19T11:51:11Z</time></trkpt><trkpt lat="38.87812466178315" lon="-9.291308416309496"><ele>175.0</ele><time>2026-04-19T11:51:12Z</time></trkpt><trkpt lat="38.87811376945039" lon="-9.291133887709496"><ele>175.5</ele><time>2026-04-19T11:51:13Z</time></trkpt><trkpt lat="38.87811110232512" lon="-9.290951528948577"><ele>176.0</ele><time>2026-04-19T11:51:14Z</time></trkpt><trkpt lat="38.878123596941606" lon="-9.290780798880125"><ele>176.5</ele><time>2026-04-19T11:51:15Z</time></trkpt><trkpt lat="38.878160569232854" lon="-9.290628335760346"><ele>177.0</ele><time>2026-04-19T11:51:16Z</time></trkpt><trkpt lat="38.87822483169736" lon="-9.290474874589782"><ele>177.0</ele><time>2026-04-19T11:51:17Z</time></trkpt><trkpt lat="38.87826962379158" lon="-9.29029119197186"><ele>177.0</ele><time>2026-04-19T11:51:18Z</time></trkpt><trkpt lat="38.878314786517265" lon="-9.290120648794867"><ele>177.0</ele><time>2026-04-19T11:51:19Z</time></trkpt><trkpt lat="38.878404721846486" lon="-9.290012193837851"><ele>177.0</ele><time>2026-04-19T11:51:20Z</time></trkpt><trkpt lat="38.87852953611136" lon="-9.289909075043775"><ele>177.0</ele><time>2026-04-19T11:51:21Z</time></trkpt><trkpt lat="38.87867373973459" lon="-9.289794307755951"><ele>177.0</ele><time>2026-04-19T11:51:22Z</time></trkpt><trkpt lat="38.87877891766964" lon="-9.28961723154439"><ele>177.0</ele><time>2026-04-19T11:51:23Z</time></trkpt><trkpt lat="38.878910096289175" lon="-9.28945077972954"><ele>178.0</ele><time>2026-04-19T11:51:24Z</time></trkpt><trkpt lat="38.87901783631104" lon="-9.289248215553854"><ele>179.0</ele><time>2026-04-19T11:51:25Z</time></trkpt><trkpt lat="38.87914065358191" lon="-9.289046817841061"><ele>180.0</ele><time>2026-04-19T11:51:26Z</time></trkpt><trkpt lat="38.87928565774436" lon="-9.288859165495456"><ele>180.33333333333334</ele><time>2026-04-19T11:51:27Z</time></trkpt><trkpt lat="38.87941145566429" lon="-9.288692597430973"><ele>180.66666666666669</ele><time>2026-04-19T11:51:28Z</time></trkpt><trkpt lat="38.87952619923617" lon="-9.288546763499873"><ele>181.0</ele><time>2026-04-19T11:51:29Z</time></trkpt><trkpt lat="38.879588869957715" lon="-9.288390488172023"><ele>181.0</ele><time>2026-04-19T11:51:30Z</time></trkpt><trkpt lat="38.87961344034491" lon="-9.28825680927086"><ele>181.0</ele><time>2026-04-19T11:51:31Z</time></trkpt><trkpt lat="38.87961050405386" lon="-9.288119255276834"><ele>181.0</ele><time>2026-04-19T11:51:32Z</time></trkpt><trkpt lat="38.87961137831649" lon="-9.287938366694277"><ele>181.0</ele><time>2026-04-19T11:51:33Z</time></trkpt><trkpt lat="38.87961385294175" lon="-9.287743542384671"><ele>181.4</ele><time>2026-04-19T11:51:34Z</time></trkpt><trkpt lat="38.87961984457428" lon="-9.287550871736157"><ele>181.8</ele><time>2026-04-19T11:51:35Z</time></trkpt><trkpt lat="38.879618833186186" lon="-9.287392445324848"><ele>182.20000000000002</ele><time>2026-04-19T11:51:36Z</time></trkpt><trkpt lat="38.87959158522075" lon="-9.287273327120706"><ele>182.60000000000002</ele><time>2026-04-19T11:51:37Z</time></trkpt><trkpt lat="38.87955175218338" lon="-9.287186873745087"><ele>183.0</ele><time>2026-04-19T11:51:38Z</time></trkpt><trkpt lat="38.87946513817196" lon="-9.28715777683747"><ele>184.25</ele><time>2026-04-19T11:51:39Z</time></trkpt><trkpt lat="38.879384371888044" lon="-9.287051796609173"><ele>185.5</ele><time>2026-04-19T11:51:40Z</time></trkpt><trkpt lat="38.87931870721715" lon="-9.286899021841645"><ele>186.75</ele><time>2026-04-19T11:51:41Z</time></trkpt><trkpt lat="38.87922787485999" lon="-9.286745284991934"><ele>188.0</ele><time>2026-04-19T11:51:42Z</time></trkpt><trkpt lat="38.879145760122064" lon="-9.286574642016532"><ele>189.33333333333331</ele><time>2026-04-19T11:51:43Z</time></trkpt><trkpt lat="38.87906633672597" lon="-9.286386737405072"><ele>190.66666666666666</ele><time>2026-04-19T11:51:44Z</time></trkpt><trkpt lat="38.87897894624758" lon="-9.286211057318994"><ele>192.0</ele><time>2026-04-19T11:51:45Z</time></trkpt><trkpt lat="38.87888107835473" lon="-9.28602406271297"><ele>192.0</ele><time>2026-04-19T11:51:46Z</time></trkpt><trkpt lat="38.878783622156334" lon="-9.285825925164394"><ele>192.0</ele><time>2026-04-19T11:51:47Z</time></trkpt><trkpt lat="38.87867089534776" lon="-9.285635323128899"><ele>192.0</ele><time>2026-04-19T11:51:48Z</time></trkpt><trkpt lat="38.878584117343216" lon="-9.28542984344219"><ele>194.0</ele><time>2026-04-19T11:51:49Z</time></trkpt><trkpt lat="38.87848238473085" lon="-9.285234545868587"><ele>196.0</ele><time>2026-04-19T11:51:50Z</time></trkpt><trkpt lat="38.878375536872575" lon="-9.285026902593932"><ele>198.0</ele><time>2026-04-19T11:51:51Z</time></trkpt><trkpt lat="38.87825125409357" lon="-9.284826713158312"><ele>198.66666666666669</ele><time>2026-04-19T11:51:52Z</time></trkpt><trkpt lat="38.87813993573527" lon="-9.284613899716893"><ele>199.33333333333334</ele><time>2026-04-19T11:51:53Z</time></trkpt><trkpt lat="38.878049457373145" lon="-9.284431360384183"><ele>200.0</ele><time>2026-04-19T11:51:54Z</time></trkpt><trkpt lat="38.877999838311204" lon="-9.28428120093907"><ele>200.0</ele><time>2026-04-19T11:51:55Z</time></trkpt><trkpt lat="38.877964693056086" lon="-9.284154233793654"><ele>200.0</ele><time>2026-04-19T11:51:56Z</time></trkpt><trkpt lat="38.877958085116745" lon="-9.284018791575201"><ele>200.0</ele><time>2026-04-19T11:51:57Z</time></trkpt><trkpt lat="38.87799259021333" lon="-9.28384614765255"><ele>200.0</ele><time>2026-04-19T11:51:58Z</time></trkpt><trkpt lat="38.87807727594928" lon="-9.28365693493749"><ele>200.33333333333334</ele><time>2026-04-19T11:51:59Z</time></trkpt><trkpt lat="38.87816378168634" lon="-9.283462226548883"><ele>200.66666666666669</ele><time>2026-04-19T11:52:00Z</time></trkpt><trkpt lat="38.8782492410244" lon="-9.283256964792075"><ele>201.0</ele><time>2026-04-19T11:52:01Z</time></trkpt><trkpt lat="38.878331169682674" lon="-9.2830454479693"><ele>201.75</ele><time>2026-04-19T11:52:02Z</time></trkpt><trkpt lat="38.87839626306233" lon="-9.28284132170643"><ele>202.5</ele><time>2026-04-19T11:52:03Z</time></trkpt><trkpt lat="38.87842676368956" lon="-9.282659754481116"><ele>203.25</ele><time>2026-04-19T11:52:04Z</time></trkpt><trkpt lat="38.878443541360156" lon="-9.28249474028563"><ele>204.0</ele><time>2026-04-19T11:52:05Z</time></trkpt><trkpt lat="38.87843109167112" lon="-9.282342483880505"><ele>204.5</ele><time>2026-04-19T11:52:06Z</time></trkpt><trkpt lat="38.87839160490067" lon="-9.282176080530789"><ele>205.0</ele><time>2026-04-19T11:52:07Z</time></trkpt><trkpt lat="38.87838109592488" lon="-9.282016005495574"><ele>205.5</ele><time>2026-04-19T11:52:08Z</time></trkpt><trkpt lat="38.87838494336684" lon="-9.28186944658108"><ele>206.0</ele><time>2026-04-19T11:52:09Z</time></trkpt><trkpt lat="38.87839682378028" lon="-9.281722823116636"><ele>206.0</ele><time>2026-04-19T11:52:10Z</time></trkpt><trkpt lat="38.87840744487214" lon="-9.281562502180751"><ele>206.0</ele><time>2026-04-19T11:52:11Z</time></trkpt><trkpt lat="38.878413594947745" lon="-9.281421147111155"><ele>206.0</ele><time>2026-04-19T11:52:12Z</time></trkpt><trkpt lat="38.87839599310169" lon="-9.281306921061798"><ele>206.0</ele><time>2026-04-19T11:52:13Z</time></trkpt><trkpt lat="38.87840172563886" lon="-9.281190175701143"><ele>206.0</ele><time>2026-04-19T11:52:14Z</time></trkpt><trkpt lat="38.878423761908515" lon="-9.281071383226376"><ele>207.25</ele><time>2026-04-19T11:52:15Z</time></trkpt><trkpt lat="38.87843483313019" lon="-9.280945885918014"><ele>208.5</ele><time>2026-04-19T11:52:16Z</time></trkpt><trkpt lat="38.878497294139294" lon="-9.280816513225364"><ele>209.75</ele><time>2026-04-19T11:52:17Z</time></trkpt><trkpt lat="38.878587438573746" lon="-9.280677397578502"><ele>211.0</ele><time>2026-04-19T11:52:18Z</time></trkpt><trkpt lat="38.878619230741776" lon="-9.280537067905055"><ele>212.0</ele><time>2026-04-19T11:52:19Z</time></trkpt><trkpt lat="38.87864228423203" lon="-9.28043087016949"><ele>213.0</ele><time>2026-04-19T11:52:20Z</time></trkpt><trkpt lat="38.87865671914516" lon="-9.28032704367821"><ele>214.00000000000003</ele><time>2026-04-19T11:52:21Z</time></trkpt><trkpt lat="38.87865416195639" lon="-9.28019599661455"><ele>215.0</ele><time>2026-04-19T11:52:22Z</time></trkpt><trkpt lat="38.87864820818921" lon="-9.280074542351949"><ele>216.0</ele><time>2026-04-19T11:52:23Z</time></trkpt><trkpt lat="38.87864909648002" lon="-9.279923239074137"><ele>216.0</ele><time>2026-04-19T11:52:24Z</time></trkpt><trkpt lat="38.87863778825277" lon="-9.279802751625121"><ele>216.00000000000003</ele><time>2026-04-19T11:52:25Z</time></trkpt><trkpt lat="38.878667787045195" lon="-9.279668747946651"><ele>216.00000000000003</ele><time>2026-04-19T11:52:26Z</time></trkpt><trkpt lat="38.8786982444038" lon="-9.27956625593396"><ele>216.0</ele><time>2026-04-19T11:52:27Z</time></trkpt><trkpt lat="38.87880210203771" lon="-9.279489562739112"><ele>216.0</ele><time>2026-04-19T11:52:29Z</time></trkpt><trkpt lat="38.87887346772691" lon="-9.279505876910404"><ele>216.20000000000002</ele><time>2026-04-19T11:52:30Z</time></trkpt><trkpt lat="38.8789477235835" lon="-9.279502370767725"><ele>216.40000000000003</ele><time>2026-04-19T11:52:32Z</time></trkpt><trkpt lat="38.87891993739992" lon="-9.279388913644702"><ele>216.6</ele><time>2026-04-19T11:52:33Z</time></trkpt><trkpt lat="38.87894479672894" lon="-9.279293069458934"><ele>216.8</ele><time>2026-04-19T11:52:34Z</time></trkpt><trkpt lat="38.87902417405551" lon="-9.27917185035763"><ele>217.0</ele><time>2026-04-19T11:52:35Z</time></trkpt><trkpt lat="38.879109566694936" lon="-9.27905258012641"><ele>217.0</ele><time>2026-04-19T11:52:36Z</time></trkpt><trkpt lat="38.879201949606426" lon="-9.278910580375236"><ele>217.0</ele><time>2026-04-19T11:52:37Z</time></trkpt><trkpt lat="38.87929427230596" lon="-9.278763928442578"><ele>217.0</ele><time>2026-04-19T11:52:38Z</time></trkpt><trkpt lat="38.879345123881244" lon="-9.278650098179723"><ele>217.0</ele><time>2026-04-19T11:52:39Z</time></trkpt><trkpt lat="38.87937486304035" lon="-9.278575483171629"><ele>217.0</ele><time>2026-04-19T11:52:40Z</time></trkpt><trkpt lat="38.87942891444715" lon="-9.27848532565397"><ele>217.0</ele><time>2026-04-19T11:52:42Z</time></trkpt><trkpt lat="38.87943589530415" lon="-9.27837542197387"><ele>217.0</ele><time>2026-04-19T11:52:44Z</time></trkpt><trkpt lat="38.87929972468203" lon="-9.278251636541476"><ele>217.0</ele><time>2026-04-19T11:52:45Z</time></trkpt><trkpt lat="38.879242539595175" lon="-9.2781236206462"><ele>217.33333333333331</ele><time>2026-04-19T11:52:46Z</time></trkpt><trkpt lat="38.879189179544234" lon="-9.278011607891402"><ele>217.66666666666666</ele><time>2026-04-19T11:52:47Z</time></trkpt><trkpt lat="38.87916026721079" lon="-9.277925116984324"><ele>218.0</ele><time>2026-04-19T11:52:48Z</time></trkpt><trkpt lat="38.87908619376718" lon="-9.277903554975962"><ele>218.33333333333331</ele><time>2026-04-19T11:52:50Z</time></trkpt><trkpt lat="38.879022135647126" lon="-9.277941926553916"><ele>218.66666666666666</ele><time>2026-04-19T11:52:57Z</time></trkpt><trkpt lat="38.87894363767183" lon="-9.277948103061723"><ele>219.0</ele><time>2026-04-19T11:53:03Z</time></trkpt><trkpt lat="38.87886546337233" lon="-9.27794795568151"><ele>219.0</ele><time>2026-04-19T11:53:13Z</time></trkpt><trkpt lat="38.87878534288213" lon="-9.277956595831567"><ele>219.0</ele><time>2026-04-19T11:53:16Z</time></trkpt><trkpt lat="38.87871226620615" lon="-9.277965496460014"><ele>219.0</ele><time>2026-04-19T11:53:18Z</time></trkpt><trkpt lat="38.87862011572474" lon="-9.277964405376931"><ele>219.0</ele><time>2026-04-19T11:53:20Z</time></trkpt><trkpt lat="38.87854323513418" lon="-9.278055188202883"><ele>219.0</ele><time>2026-04-19T11:53:22Z</time></trkpt><trkpt lat="38.87850046944083" lon="-9.27814486833824"><ele>219.0</ele><time>2026-04-19T11:53:23Z</time></trkpt><trkpt lat="38.87845817363662" lon="-9.278245213730527"><ele>218.83333333333334</ele><time>2026-04-19T11:53:24Z</time></trkpt><trkpt lat="38.878395478390274" lon="-9.278359308784538"><ele>218.66666666666669</ele><time>2026-04-19T11:53:26Z</time></trkpt><trkpt lat="38.878279088235246" lon="-9.278335360728738"><ele>218.5</ele><time>2026-04-19T11:53:29Z</time></trkpt><trkpt lat="38.87833538845043" lon="-9.278381926783593"><ele>218.33333333333334</ele><time>2026-04-19T11:55:27Z</time></trkpt><trkpt lat="38.87827482965287" lon="-9.278404755260787"><ele>218.16666666666669</ele><time>2026-04-19T12:00:41.998Z</time></trkpt><trkpt lat="38.87824272115366" lon="-9.278479928500994"><ele>218.0</ele><time>2026-04-19T12:00:44.998Z</time></trkpt><trkpt lat="38.878197148283945" lon="-9.278542729274074"><ele>218.0</ele><time>2026-04-19T12:00:47.998Z</time></trkpt><trkpt lat="38.87820922935009" lon="-9.278456786192859"><ele>218.0</ele><time>2026-04-19T12:00:51.998Z</time></trkpt><trkpt lat="38.87825374210242" lon="-9.278374239990251"><ele>218.0</ele><time>2026-04-19T12:00:55.998Z</time></trkpt><trkpt lat="38.87829968420712" lon="-9.278312968715783"><ele>218.0</ele><time>2026-04-19T12:00:58.999Z</time></trkpt><trkpt lat="38.87835925186674" lon="-9.27827554675136"><ele>218.0</ele><time>2026-04-19T12:01:00.999Z</time></trkpt><trkpt lat="38.878420387947244" lon="-9.278255156377261"><ele>218.0</ele><time>2026-04-19T12:01:02.999Z</time></trkpt><trkpt lat="38.87851233431604" lon="-9.278256942988191"><ele>218.0</ele><time>2026-04-19T12:01:04.999Z</time></trkpt><trkpt lat="38.87846934129119" lon="-9.27819147517745"><ele>218.0</ele><time>2026-04-19T12:01:37.999Z</time></trkpt><trkpt lat="38.87839204525093" lon="-9.278202553528835"><ele>218.0</ele><time>2026-04-19T12:01:40.999Z</time></trkpt><trkpt lat="38.87835503078773" lon="-9.278281225062734"><ele>218.0</ele><time>2026-04-19T12:01:44.999Z</time></trkpt><trkpt lat="38.8782937838392" lon="-9.278444247112345"><ele>218.0</ele><time>2026-04-19T12:01:46.999Z</time></trkpt><trkpt lat="38.87828383178401" lon="-9.278354722671915"><ele>218.0</ele><time>2026-04-19T12:02:10.999Z</time></trkpt><trkpt lat="38.878304828254976" lon="-9.278198669819956"><ele>218.00000000000003</ele><time>2026-04-19T12:02:40.999Z</time></trkpt><trkpt lat="38.878318232206304" lon="-9.278117085105556"><ele>218.0</ele><time>2026-04-19T12:02:44.999Z</time></trkpt><trkpt lat="38.87829885495248" lon="-9.278199724624235"><ele>218.0</ele><time>2026-04-19T12:02:59.999Z</time></trkpt><trkpt lat="38.878297773500925" lon="-9.278290635404616"><ele>218.0</ele><time>2026-04-19T12:03:47Z</time></trkpt><trkpt lat="38.87840479363392" lon="-9.278293370720947"><ele>218.00000000000003</ele><time>2026-04-19T12:05:30Z</time></trkpt><trkpt lat="38.87840367194035" lon="-9.278205303625851"><ele>218.0</ele><time>2026-04-19T12:05:34Z</time></trkpt><trkpt lat="38.87841835970106" lon="-9.278078347192253"><ele>218.2</ele><time>2026-04-19T12:05:39Z</time></trkpt><trkpt lat="38.87840075145592" lon="-9.277991607041281"><ele>218.4</ele><time>2026-04-19T12:05:42Z</time></trkpt><trkpt lat="38.87840173642154" lon="-9.27790043122001"><ele>218.59999999999997</ele><time>2026-04-19T12:05:46Z</time></trkpt><trkpt lat="38.878449287838265" lon="-9.2777967722576"><ele>218.79999999999998</ele><time>2026-04-19T12:05:56Z</time></trkpt><trkpt lat="38.878507775268055" lon="-9.277665033202686"><ele>219.0</ele><time>2026-04-19T12:05:59Z</time></trkpt><trkpt lat="38.87851444429626" lon="-9.277789659608617"><ele>219.0</ele><time>2026-04-19T12:06:11Z</time></trkpt><trkpt lat="38.87849113112102" lon="-9.277935371128478"><ele>218.99999999999997</ele><time>2026-04-19T12:06:12Z</time></trkpt><trkpt lat="38.87846064761413" lon="-9.278076764320058"><ele>218.99999999999997</ele><time>2026-04-19T12:06:13Z</time></trkpt><trkpt lat="38.87841704572154" lon="-9.27824505243562"><ele>219.0</ele><time>2026-04-19T12:06:16Z</time></trkpt><trkpt lat="38.87838680093271" lon="-9.278316615198346"><ele>219.0</ele><time>2026-04-19T12:07:19Z</time></trkpt><trkpt lat="38.878322013142686" lon="-9.27828131127987"><ele>218.83333333333334</ele><time>2026-04-19T12:07:24Z</time></trkpt><trkpt lat="38.878260570882745" lon="-9.278311954385906"><ele>218.66666666666669</ele><time>2026-04-19T12:07:33Z</time></trkpt><trkpt lat="38.878174760775806" lon="-9.278311439750944"><ele>218.5</ele><time>2026-04-19T12:10:19.001Z</time></trkpt><trkpt lat="38.87809859030071" lon="-9.278274224357904"><ele>218.33333333333334</ele><time>2026-04-19T12:10:22.001Z</time></trkpt><trkpt lat="38.878006669396285" lon="-9.278245714793767"><ele>218.16666666666669</ele><time>2026-04-19T12:10:25.001Z</time></trkpt><trkpt lat="38.87809201542034" lon="-9.278247030899426"><ele>218.0</ele><time>2026-04-19T12:10:31.001Z</time></trkpt><trkpt lat="38.878179825560075" lon="-9.27827901850676"><ele>218.00000000000003</ele><time>2026-04-19T12:10:33.001Z</time></trkpt><trkpt lat="38.878251388559065" lon="-9.278307500416926"><ele>218.0</ele><time>2026-04-19T12:10:37.001Z</time></trkpt><trkpt lat="38.87834743340051" lon="-9.278316930198985"><ele>218.0</ele><time>2026-04-19T12:10:39.001Z</time></trkpt><trkpt lat="38.8783790896437" lon="-9.278440466049256"><ele>218.0</ele><time>2026-04-19T12:10:42.001Z</time></trkpt><trkpt lat="38.87834598820463" lon="-9.27851465682446"><ele>218.00000000000003</ele><time>2026-04-19T12:10:43.001Z</time></trkpt><trkpt lat="38.87831173901005" lon="-9.278602101102361"><ele>218.0</ele><time>2026-04-19T12:10:44.001Z</time></trkpt><trkpt lat="38.87829604822546" lon="-9.278713511380474"><ele>218.0</ele><time>2026-04-19T12:10:45.001Z</time></trkpt><trkpt lat="38.87827124288098" lon="-9.278832629171257"><ele>218.0</ele><time>2026-04-19T12:10:46.001Z</time></trkpt><trkpt lat="38.87824011193325" lon="-9.278980867155298"><ele>218.0</ele><time>2026-04-19T12:10:47.001Z</time></trkpt><trkpt lat="38.87820259070795" lon="-9.279133005087656"><ele>218.0</ele><time>2026-04-19T12:10:48.001Z</time></trkpt><trkpt lat="38.878152079169766" lon="-9.279297421115105"><ele>217.75</ele><time>2026-04-19T12:10:49.001Z</time></trkpt><trkpt lat="38.87808877274894" lon="-9.279448979588368"><ele>217.5</ele><time>2026-04-19T12:10:50.001Z</time></trkpt><trkpt lat="38.878003838553944" lon="-9.279615331603418"><ele>217.25</ele><time>2026-04-19T12:10:51.001Z</time></trkpt><trkpt lat="38.87791810508793" lon="-9.279771221951023"><ele>217.0</ele><time>2026-04-19T12:10:52.001Z</time></trkpt><trkpt lat="38.877841037044696" lon="-9.279913172875126"><ele>216.25</ele><time>2026-04-19T12:10:53.001Z</time></trkpt><trkpt lat="38.877764546759536" lon="-9.280048000302205"><ele>215.5</ele><time>2026-04-19T12:10:54.001Z</time></trkpt><trkpt lat="38.8776754141718" lon="-9.280166559653198"><ele>214.75</ele><time>2026-04-19T12:10:55.001Z</time></trkpt><trkpt lat="38.877591645249495" lon="-9.2802839979352"><ele>214.0</ele><time>2026-04-19T12:10:56.001Z</time></trkpt><trkpt lat="38.87750475425918" lon="-9.280401156456405"><ele>213.6</ele><time>2026-04-19T12:10:57.001Z</time></trkpt><trkpt lat="38.87742160189725" lon="-9.280502917503178"><ele>213.2</ele><time>2026-04-19T12:10:58.001Z</time></trkpt><trkpt lat="38.87734280191592" lon="-9.280589894800615"><ele>212.79999999999998</ele><time>2026-04-19T12:10:59.001Z</time></trkpt><trkpt lat="38.87727814336443" lon="-9.28069815460241"><ele>212.39999999999998</ele><time>2026-04-19T12:11:00.001Z</time></trkpt><trkpt lat="38.8772034647778" lon="-9.280787863893883"><ele>212.0</ele><time>2026-04-19T12:11:01Z</time></trkpt><trkpt lat="38.87712827503859" lon="-9.280877730221974"><ele>211.39999999999998</ele><time>2026-04-19T12:11:02Z</time></trkpt><trkpt lat="38.877052356577195" lon="-9.28096846752774"><ele>210.79999999999998</ele><time>2026-04-19T12:11:03Z</time></trkpt><trkpt lat="38.87696251529073" lon="-9.281047337555941"><ele>210.2</ele><time>2026-04-19T12:11:04Z</time></trkpt><trkpt lat="38.8768905173947" lon="-9.281143358057255"><ele>209.6</ele><time>2026-04-19T12:11:05Z</time></trkpt><trkpt lat="38.87681471624739" lon="-9.281234329237117"><ele>209.0</ele><time>2026-04-19T12:11:06Z</time></trkpt><trkpt lat="38.87673837844362" lon="-9.281341677272918"><ele>207.5</ele><time>2026-04-19T12:11:07Z</time></trkpt><trkpt lat="38.87665757016894" lon="-9.281436857097882"><ele>206.0</ele><time>2026-04-19T12:11:08Z</time></trkpt><trkpt lat="38.876580757070286" lon="-9.281541920194481"><ele>204.5</ele><time>2026-04-19T12:11:09Z</time></trkpt><trkpt lat="38.87652944111196" lon="-9.28167565299872"><ele>203.0</ele><time>2026-04-19T12:11:10Z</time></trkpt><trkpt lat="38.876511648506295" lon="-9.281826421214728"><ele>203.0</ele><time>2026-04-19T12:11:11Z</time></trkpt><trkpt lat="38.876497156337635" lon="-9.281993811268743"><ele>203.0</ele><time>2026-04-19T12:11:12Z</time></trkpt><trkpt lat="38.87646437118379" lon="-9.282168689554611"><ele>203.0</ele><time>2026-04-19T12:11:13Z</time></trkpt><trkpt lat="38.87643886048677" lon="-9.282343060407527"><ele>203.0</ele><time>2026-04-19T12:11:14Z</time></trkpt><trkpt lat="38.876383163917296" lon="-9.282517691646166"><ele>203.0</ele><time>2026-04-19T12:11:15Z</time></trkpt><trkpt lat="38.87631756962526" lon="-9.282681671305795"><ele>203.0</ele><time>2026-04-19T12:11:16Z</time></trkpt><trkpt lat="38.87624931748912" lon="-9.28283440794588"><ele>203.0</ele><time>2026-04-19T12:11:17Z</time></trkpt><trkpt lat="38.87619188822517" lon="-9.282972788757624"><ele>203.0</ele><time>2026-04-19T12:11:18Z</time></trkpt><trkpt lat="38.87613337708254" lon="-9.283119979098323"><ele>203.0</ele><time>2026-04-19T12:11:19Z</time></trkpt><trkpt lat="38.87605850992896" lon="-9.283275817271285"><ele>203.0</ele><time>2026-04-19T12:11:20Z</time></trkpt><trkpt lat="38.87598899307509" lon="-9.28341759357413"><ele>203.0</ele><time>2026-04-19T12:11:21Z</time></trkpt><trkpt lat="38.875913958744995" lon="-9.283563301992007"><ele>203.0</ele><time>2026-04-19T12:11:22Z</time></trkpt><trkpt lat="38.87583458002979" lon="-9.283724022055928"><ele>202.66666666666669</ele><time>2026-04-19T12:11:23Z</time></trkpt><trkpt lat="38.87571356104792" lon="-9.283876937117618"><ele>202.33333333333331</ele><time>2026-04-19T12:11:24Z</time></trkpt><trkpt lat="38.875572701238205" lon="-9.28402308897317"><ele>202.0</ele><time>2026-04-19T12:11:25Z</time></trkpt><trkpt lat="38.875415801221386" lon="-9.284145154717963"><ele>203.66666666666666</ele><time>2026-04-19T12:11:26Z</time></trkpt><trkpt lat="38.87525529668382" lon="-9.284234653242002"><ele>205.33333333333331</ele><time>2026-04-19T12:11:27Z</time></trkpt><trkpt lat="38.8751020696493" lon="-9.284290695742927"><ele>207.0</ele><time>2026-04-19T12:11:28Z</time></trkpt><trkpt lat="38.8749619230693" lon="-9.284333807525192"><ele>207.25</ele><time>2026-04-19T12:11:29Z</time></trkpt><trkpt lat="38.87482280846323" lon="-9.284367479783304"><ele>207.5</ele><time>2026-04-19T12:11:30Z</time></trkpt><trkpt lat="38.87469555159178" lon="-9.284388138743978"><ele>207.75</ele><time>2026-04-19T12:11:31Z</time></trkpt><trkpt lat="38.874583744830616" lon="-9.284432833483782"><ele>208.0</ele><time>2026-04-19T12:11:32Z</time></trkpt><trkpt lat="38.87446840638106" lon="-9.284457842831516"><ele>208.0</ele><time>2026-04-19T12:11:33Z</time></trkpt><trkpt lat="38.87435072211546" lon="-9.284483360828602"><ele>208.0</ele><time>2026-04-19T12:11:34Z</time></trkpt><trkpt lat="38.87422086667851" lon="-9.284513291349395"><ele>208.0</ele><time>2026-04-19T12:11:35Z</time></trkpt><trkpt lat="38.87408941109118" lon="-9.28455153056074"><ele>208.0</ele><time>2026-04-19T12:11:36Z</time></trkpt><trkpt lat="38.87395475559661" lon="-9.284604348764404"><ele>206.33333333333331</ele><time>2026-04-19T12:11:37Z</time></trkpt><trkpt lat="38.87382018195865" lon="-9.28466749680987"><ele>204.66666666666669</ele><time>2026-04-19T12:11:38Z</time></trkpt><trkpt lat="38.87366704052564" lon="-9.284708811363485"><ele>203.0</ele><time>2026-04-19T12:11:39Z</time></trkpt><trkpt lat="38.8735334874235" lon="-9.28480857867225"><ele>204.25</ele><time>2026-04-19T12:11:40Z</time></trkpt><trkpt lat="38.87341365731323" lon="-9.2849018086932"><ele>205.5</ele><time>2026-04-19T12:11:41Z</time></trkpt><trkpt lat="38.87329683091461" lon="-9.285006507711818"><ele>206.75</ele><time>2026-04-19T12:11:42Z</time></trkpt><trkpt lat="38.87320010858599" lon="-9.285154518951876"><ele>208.0</ele><time>2026-04-19T12:11:43Z</time></trkpt><trkpt lat="38.873089416507554" lon="-9.285276809607833"><ele>208.0</ele><time>2026-04-19T12:11:44Z</time></trkpt><trkpt lat="38.87298332578554" lon="-9.285399445262355"><ele>208.0</ele><time>2026-04-19T12:11:45Z</time></trkpt><trkpt lat="38.87287557649026" lon="-9.285518538764618"><ele>208.0</ele><time>2026-04-19T12:11:46Z</time></trkpt><trkpt lat="38.87276330582477" lon="-9.28563044875086"><ele>208.0</ele><time>2026-04-19T12:11:47Z</time></trkpt><trkpt lat="38.87264244170032" lon="-9.285716445299045"><ele>208.25</ele><time>2026-04-19T12:11:48Z</time></trkpt><trkpt lat="38.872525006465914" lon="-9.285807215366892"><ele>208.5</ele><time>2026-04-19T12:11:49Z</time></trkpt><trkpt lat="38.872399467784675" lon="-9.285894649988265"><ele>208.75</ele><time>2026-04-19T12:11:50Z</time></trkpt><trkpt lat="38.872265783142936" lon="-9.285971296730319"><ele>209.0</ele><time>2026-04-19T12:11:51Z</time></trkpt><trkpt lat="38.872133127786235" lon="-9.286025949121996"><ele>209.0</ele><time>2026-04-19T12:11:52Z</time></trkpt><trkpt lat="38.871994243229786" lon="-9.28606275957302"><ele>209.0</ele><time>2026-04-19T12:11:53Z</time></trkpt><trkpt lat="38.871853411169866" lon="-9.286091788483914"><ele>209.0</ele><time>2026-04-19T12:11:54Z</time></trkpt><trkpt lat="38.871724456699205" lon="-9.286110295358293"><ele>209.0</ele><time>2026-04-19T12:11:55Z</time></trkpt><trkpt lat="38.87159500467269" lon="-9.28614620219469"><ele>207.5</ele><time>2026-04-19T12:11:56Z</time></trkpt><trkpt lat="38.87146466730967" lon="-9.286185083024494"><ele>206.0</ele><time>2026-04-19T12:11:57Z</time></trkpt><trkpt lat="38.87132228114102" lon="-9.286214215229608"><ele>204.5</ele><time>2026-04-19T12:11:58Z</time></trkpt><trkpt lat="38.87118100634513" lon="-9.286241106349959"><ele>203.0</ele><time>2026-04-19T12:11:59Z</time></trkpt><trkpt lat="38.87104797559153" lon="-9.286280150586832"><ele>202.75</ele><time>2026-04-19T12:12:00Z</time></trkpt><trkpt lat="38.87092253213775" lon="-9.286312293308395"><ele>202.5</ele><time>2026-04-19T12:12:01Z</time></trkpt><trkpt lat="38.87078234157358" lon="-9.286356950335392"><ele>202.25</ele><time>2026-04-19T12:12:02Z</time></trkpt><trkpt lat="38.87065554921517" lon="-9.286425093465507"><ele>202.0</ele><time>2026-04-19T12:12:03Z</time></trkpt><trkpt lat="38.870504817266685" lon="-9.28650670923304"><ele>199.33333333333331</ele><time>2026-04-19T12:12:04Z</time></trkpt><trkpt lat="38.87037116894069" lon="-9.286607247670362"><ele>196.66666666666669</ele><time>2026-04-19T12:12:05Z</time></trkpt><trkpt lat="38.87024399716324" lon="-9.286726805670144"><ele>194.0</ele><time>2026-04-19T12:12:06Z</time></trkpt><trkpt lat="38.87013696608819" lon="-9.286881482062453"><ele>192.66666666666669</ele><time>2026-04-19T12:12:07Z</time></trkpt><trkpt lat="38.87001667709221" lon="-9.287027740511876"><ele>191.33333333333334</ele><time>2026-04-19T12:12:08.001Z</time></trkpt><trkpt lat="38.86991825701953" lon="-9.287201295821113"><ele>190.0</ele><time>2026-04-19T12:12:09.001Z</time></trkpt><trkpt lat="38.869832855990836" lon="-9.287393357342038"><ele>188.33333333333334</ele><time>2026-04-19T12:12:10.001Z</time></trkpt><trkpt lat="38.869780076260696" lon="-9.28760833584485"><ele>186.66666666666666</ele><time>2026-04-19T12:12:11.001Z</time></trkpt><trkpt lat="38.86973103217395" lon="-9.287820589786127"><ele>185.0</ele><time>2026-04-19T12:12:12.001Z</time></trkpt><trkpt lat="38.869702608418415" lon="-9.288033517209437"><ele>183.33333333333331</ele><time>2026-04-19T12:12:13.001Z</time></trkpt><trkpt lat="38.869689268973126" lon="-9.288254468170631"><ele>181.66666666666666</ele><time>2026-04-19T12:12:14.001Z</time></trkpt><trkpt lat="38.86968297095332" lon="-9.288481869009793"><ele>180.0</ele><time>2026-04-19T12:12:15.001Z</time></trkpt><trkpt lat="38.8696820400152" lon="-9.288705378119197"><ele>180.0</ele><time>2026-04-19T12:12:16.001Z</time></trkpt><trkpt lat="38.86967411737896" lon="-9.288921189094264"><ele>180.0</ele><time>2026-04-19T12:12:17.001Z</time></trkpt><trkpt lat="38.86968143448366" lon="-9.289138192032626"><ele>180.0</ele><time>2026-04-19T12:12:18.001Z</time></trkpt><trkpt lat="38.86968297002196" lon="-9.28934436418725"><ele>179.25</ele><time>2026-04-19T12:12:19.001Z</time></trkpt><trkpt lat="38.86968964775051" lon="-9.2895302136895"><ele>178.5</ele><time>2026-04-19T12:12:20.001Z</time></trkpt><trkpt lat="38.86969465291788" lon="-9.289704866061003"><ele>177.75</ele><time>2026-04-19T12:12:21.001Z</time></trkpt><trkpt lat="38.869699293914884" lon="-9.289894822838257"><ele>177.0</ele><time>2026-04-19T12:12:22.001Z</time></trkpt><trkpt lat="38.86969964689673" lon="-9.29008906587905"><ele>177.0</ele><time>2026-04-19T12:12:23.001Z</time></trkpt><trkpt lat="38.86970512941316" lon="-9.290277674554709"><ele>177.0</ele><time>2026-04-19T12:12:24.001Z</time></trkpt><trkpt lat="38.86971404474468" lon="-9.290471418500989"><ele>177.0</ele><time>2026-04-19T12:12:25.001Z</time></trkpt><trkpt lat="38.869713014497634" lon="-9.290641496848588"><ele>177.0</ele><time>2026-04-19T12:12:26.001Z</time></trkpt><trkpt lat="38.86968989605001" lon="-9.290812121156389"><ele>176.0</ele><time>2026-04-19T12:12:27.001Z</time></trkpt><trkpt lat="38.869637279130615" lon="-9.290981006432236"><ele>175.0</ele><time>2026-04-19T12:12:28.001Z</time></trkpt><trkpt lat="38.86954872020061" lon="-9.291133369696647"><ele>174.0</ele><time>2026-04-19T12:12:29.001Z</time></trkpt><trkpt lat="38.869437433830996" lon="-9.291265433018978"><ele>173.0</ele><time>2026-04-19T12:12:30.001Z</time></trkpt><trkpt lat="38.86928892721579" lon="-9.29133902150305"><ele>172.66666666666666</ele><time>2026-04-19T12:12:31.001Z</time></trkpt><trkpt lat="38.86914122075449" lon="-9.291409571545186"><ele>172.33333333333334</ele><time>2026-04-19T12:12:32.001Z</time></trkpt><trkpt lat="38.86898109087946" lon="-9.291441251578659"><ele>172.0</ele><time>2026-04-19T12:12:33.001Z</time></trkpt><trkpt lat="38.86881528180101" lon="-9.291456939676412"><ele>172.0</ele><time>2026-04-19T12:12:34.001Z</time></trkpt><trkpt lat="38.868640229527955" lon="-9.291467673500449"><ele>172.0</ele><time>2026-04-19T12:12:35.001Z</time></trkpt><trkpt lat="38.86846667157663" lon="-9.291490868613456"><ele>172.0</ele><time>2026-04-19T12:12:36.001Z</time></trkpt><trkpt lat="38.868291821549725" lon="-9.291509872609424"><ele>174.0</ele><time>2026-04-19T12:12:37.001Z</time></trkpt><trkpt lat="38.868128446529624" lon="-9.29156645809202"><ele>176.0</ele><time>2026-04-19T12:12:38.001Z</time></trkpt><trkpt lat="38.86797240826055" lon="-9.291614804611156"><ele>178.0</ele><time>2026-04-19T12:12:39.001Z</time></trkpt><trkpt lat="38.86781843045561" lon="-9.291669997335235"><ele>178.0</ele><time>2026-04-19T12:12:40.001Z</time></trkpt><trkpt lat="38.86766876053959" lon="-9.291731724829704"><ele>178.0</ele><time>2026-04-19T12:12:41.001Z</time></trkpt><trkpt lat="38.86752312791903" lon="-9.291813950611989"><ele>178.0</ele><time>2026-04-19T12:12:42.001Z</time></trkpt><trkpt lat="38.86738731910338" lon="-9.291912039373667"><ele>180.0</ele><time>2026-04-19T12:12:43.001Z</time></trkpt><trkpt lat="38.867250484958596" lon="-9.292022753550953"><ele>182.0</ele><time>2026-04-19T12:12:44.001Z</time></trkpt><trkpt lat="38.867122300143066" lon="-9.292135306979343"><ele>184.0</ele><time>2026-04-19T12:12:45.001Z</time></trkpt><trkpt lat="38.867006382992514" lon="-9.292245615630504"><ele>183.75</ele><time>2026-04-19T12:12:46.001Z</time></trkpt><trkpt lat="38.86689223153469" lon="-9.29236150302691"><ele>183.5</ele><time>2026-04-19T12:12:47.001Z</time></trkpt><trkpt lat="38.866787595088866" lon="-9.292478625451654"><ele>183.25</ele><time>2026-04-19T12:12:48.001Z</time></trkpt><trkpt lat="38.86669938312746" lon="-9.292586613455686"><ele>183.0</ele><time>2026-04-19T12:12:49.001Z</time></trkpt><trkpt lat="38.86663132274548" lon="-9.29268734767501"><ele>183.0</ele><time>2026-04-19T12:12:50.001Z</time></trkpt><trkpt lat="38.86658206381332" lon="-9.292765274916356"><ele>183.0</ele><time>2026-04-19T12:12:51.001Z</time></trkpt><trkpt lat="38.86653759807316" lon="-9.292842147720254"><ele>183.0</ele><time>2026-04-19T12:12:52.001Z</time></trkpt><trkpt lat="38.866491353432096" lon="-9.292925998005236"><ele>183.0</ele><time>2026-04-19T12:12:53.001Z</time></trkpt><trkpt lat="38.866453672066754" lon="-9.292998179821247"><ele>183.0</ele><time>2026-04-19T12:12:54.001Z</time></trkpt><trkpt lat="38.86641783629449" lon="-9.29306892044366"><ele>183.0</ele><time>2026-04-19T12:12:55.001Z</time></trkpt><trkpt lat="38.8663699928485" lon="-9.293164305993814"><ele>181.75</ele><time>2026-04-19T12:12:56.001Z</time></trkpt><trkpt lat="38.86631422218519" lon="-9.293282245069072"><ele>180.5</ele><time>2026-04-19T12:12:57.001Z</time></trkpt><trkpt lat="38.86625002298021" lon="-9.293421545104625"><ele>179.25</ele><time>2026-04-19T12:12:58.001Z</time></trkpt><trkpt lat="38.86618167260292" lon="-9.29357745899163"><ele>178.0</ele><time>2026-04-19T12:12:59.001Z</time></trkpt><trkpt lat="38.86610844644098" lon="-9.29374595418943"><ele>178.0</ele><time>2026-04-19T12:13:00.001Z</time></trkpt><trkpt lat="38.86603322879926" lon="-9.293919031753104"><ele>178.0</ele><time>2026-04-19T12:13:01.001Z</time></trkpt><trkpt lat="38.86595866073454" lon="-9.294090348513826"><ele>178.0</ele><time>2026-04-19T12:13:02.001Z</time></trkpt><trkpt lat="38.86588375678457" lon="-9.29426469214484"><ele>176.0</ele><time>2026-04-19T12:13:03.001Z</time></trkpt><trkpt lat="38.86580156263654" lon="-9.294456982284848"><ele>174.0</ele><time>2026-04-19T12:13:04.001Z</time></trkpt><trkpt lat="38.86570894019785" lon="-9.294641191324251"><ele>172.0</ele><time>2026-04-19T12:13:05.001Z</time></trkpt><trkpt lat="38.86562193806831" lon="-9.294834791526743"><ele>170.66666666666669</ele><time>2026-04-19T12:13:06.001Z</time></trkpt><trkpt lat="38.86555684328421" lon="-9.295037518071787"><ele>169.33333333333334</ele><time>2026-04-19T12:13:07.001Z</time></trkpt><trkpt lat="38.865465594303956" lon="-9.295216860100487"><ele>168.0</ele><time>2026-04-19T12:13:08.001Z</time></trkpt><trkpt lat="38.86538379244501" lon="-9.295411390342283"><ele>167.33333333333334</ele><time>2026-04-19T12:13:09.001Z</time></trkpt><trkpt lat="38.86531759212094" lon="-9.29561712028996"><ele>166.66666666666669</ele><time>2026-04-19T12:13:10.001Z</time></trkpt><trkpt lat="38.865240715708154" lon="-9.29580487911154"><ele>166.0</ele><time>2026-04-19T12:13:11.001Z</time></trkpt><trkpt lat="38.86516837712051" lon="-9.295986200281748"><ele>166.0</ele><time>2026-04-19T12:13:12.001Z</time></trkpt><trkpt lat="38.86509654265139" lon="-9.296171193752393"><ele>166.0</ele><time>2026-04-19T12:13:13Z</time></trkpt><trkpt lat="38.86503115377544" lon="-9.296368039426024"><ele>166.0</ele><time>2026-04-19T12:13:14Z</time></trkpt><trkpt lat="38.86498471737714" lon="-9.296567012146417"><ele>165.33333333333334</ele><time>2026-04-19T12:13:15Z</time></trkpt><trkpt lat="38.86495155997451" lon="-9.296773973758054"><ele>164.66666666666666</ele><time>2026-04-19T12:13:16Z</time></trkpt><trkpt lat="38.864924573686174" lon="-9.296965958943678"><ele>164.0</ele><time>2026-04-19T12:13:17Z</time></trkpt><trkpt lat="38.86490065759002" lon="-9.29714117844249"><ele>164.0</ele><time>2026-04-19T12:13:18Z</time></trkpt><trkpt lat="38.86488078465335" lon="-9.297317405036186"><ele>164.0</ele><time>2026-04-19T12:13:19Z</time></trkpt><trkpt lat="38.864861359281115" lon="-9.297489662534682"><ele>164.0</ele><time>2026-04-19T12:13:20Z</time></trkpt><trkpt lat="38.86484256765225" lon="-9.297656300599302"><ele>164.0</ele><time>2026-04-19T12:13:21Z</time></trkpt><trkpt lat="38.864824770667475" lon="-9.297814118323586"><ele>164.0</ele><time>2026-04-19T12:13:22Z</time></trkpt><trkpt lat="38.864808225582046" lon="-9.297960834566247"><ele>164.0</ele><time>2026-04-19T12:13:23Z</time></trkpt><trkpt lat="38.86479313082322" lon="-9.298094689314173"><ele>164.0</ele><time>2026-04-19T12:13:24Z</time></trkpt><trkpt lat="38.864781447263354" lon="-9.298198295643852"><ele>164.0</ele><time>2026-04-19T12:13:25Z</time></trkpt><trkpt lat="38.86477156613426" lon="-9.298285918127844"><ele>164.0</ele><time>2026-04-19T12:13:26Z</time></trkpt><trkpt lat="38.86474941841627" lon="-9.298396946031236"><ele>164.0</ele><time>2026-04-19T12:13:28Z</time></trkpt><trkpt lat="38.86473553020744" lon="-9.298477863565962"><ele>164.0</ele><time>2026-04-19T12:13:31Z</time></trkpt><trkpt lat="38.86473842066829" lon="-9.298579841025479"><ele>164.0</ele><time>2026-04-19T12:13:34Z</time></trkpt><trkpt lat="38.86470610770629" lon="-9.298728554991492"><ele>164.0</ele><time>2026-04-19T12:13:36Z</time></trkpt><trkpt lat="38.86471999212992" lon="-9.298818747223137"><ele>164.0</ele><time>2026-04-19T12:13:37Z</time></trkpt><trkpt lat="38.86475788971135" lon="-9.298903062456201"><ele>164.0</ele><time>2026-04-19T12:13:38Z</time></trkpt><trkpt lat="38.86480926126034" lon="-9.298985581507816"><ele>163.6</ele><time>2026-04-19T12:13:39Z</time></trkpt><trkpt lat="38.864842569070895" lon="-9.299080294715656"><ele>163.2</ele><time>2026-04-19T12:13:40Z</time></trkpt><trkpt lat="38.86484313716754" lon="-9.299178506080901"><ele>162.79999999999998</ele><time>2026-04-19T12:13:41Z</time></trkpt><trkpt lat="38.864833488325964" lon="-9.299290849478625"><ele>162.39999999999998</ele><time>2026-04-19T12:13:42Z</time></trkpt><trkpt lat="38.8647440159999" lon="-9.299377320258374"><ele>162.0</ele><time>2026-04-19T12:13:43Z</time></trkpt><trkpt lat="38.864653615573545" lon="-9.299486304193788"><ele>162.0</ele><time>2026-04-19T12:13:44Z</time></trkpt><trkpt lat="38.864579040861976" lon="-9.299604433321205"><ele>162.0</ele><time>2026-04-19T12:13:45Z</time></trkpt><trkpt lat="38.864505425761045" lon="-9.299722702308717"><ele>162.0</ele><time>2026-04-19T12:13:46Z</time></trkpt><trkpt lat="38.864451933397376" lon="-9.299873523569653"><ele>162.0</ele><time>2026-04-19T12:13:47Z</time></trkpt><trkpt lat="38.86437093044558" lon="-9.300002487735032"><ele>162.0</ele><time>2026-04-19T12:13:48Z</time></trkpt><trkpt lat="38.864292893074335" lon="-9.300131874920135"><ele>162.0</ele><time>2026-04-19T12:13:49Z</time></trkpt><trkpt lat="38.86422642302824" lon="-9.300293678701582"><ele>162.0</ele><time>2026-04-19T12:13:50Z</time></trkpt><trkpt lat="38.86417078080268" lon="-9.300468338617035"><ele>162.0</ele><time>2026-04-19T12:13:51Z</time></trkpt><trkpt lat="38.86412517604271" lon="-9.300664617161631"><ele>161.33333333333334</ele><time>2026-04-19T12:13:52Z</time></trkpt><trkpt lat="38.86409444726013" lon="-9.300881359412376"><ele>160.66666666666669</ele><time>2026-04-19T12:13:53Z</time></trkpt><trkpt lat="38.864079610474704" lon="-9.301117034095853"><ele>160.0</ele><time>2026-04-19T12:13:54Z</time></trkpt><trkpt lat="38.864075760374426" lon="-9.301356675053853"><ele>159.0</ele><time>2026-04-19T12:13:55Z</time></trkpt><trkpt lat="38.864076132630274" lon="-9.301609324171535"><ele>158.0</ele><time>2026-04-19T12:13:56Z</time></trkpt><trkpt lat="38.86407651780871" lon="-9.301870743122638"><ele>157.0</ele><time>2026-04-19T12:13:57Z</time></trkpt><trkpt lat="38.86407408546689" lon="-9.302139907535212"><ele>156.66666666666669</ele><time>2026-04-19T12:13:58Z</time></trkpt><trkpt lat="38.86405042963617" lon="-9.302404525107736"><ele>156.33333333333334</ele><time>2026-04-19T12:13:59Z</time></trkpt><trkpt lat="38.86403322791286" lon="-9.302663325692897"><ele>156.0</ele><time>2026-04-19T12:14:00Z</time></trkpt><trkpt lat="38.86399290669341" lon="-9.302924045608242"><ele>155.66666666666666</ele><time>2026-04-19T12:14:01Z</time></trkpt><trkpt lat="38.863941948605024" lon="-9.303189617974656"><ele>155.33333333333331</ele><time>2026-04-19T12:14:02Z</time></trkpt><trkpt lat="38.86388126360422" lon="-9.303451809064065"><ele>155.0</ele><time>2026-04-19T12:14:03Z</time></trkpt><trkpt lat="38.863812033066914" lon="-9.303685921787965"><ele>155.0</ele><time>2026-04-19T12:14:04Z</time></trkpt><trkpt lat="38.86372682288748" lon="-9.303898027615654"><ele>155.0</ele><time>2026-04-19T12:14:05Z</time></trkpt><trkpt lat="38.86362229674458" lon="-9.304099291351584"><ele>155.0</ele><time>2026-04-19T12:14:06Z</time></trkpt><trkpt lat="38.8635045144043" lon="-9.304301745816346"><ele>154.66666666666666</ele><time>2026-04-19T12:14:07Z</time></trkpt><trkpt lat="38.863375373428475" lon="-9.304495716624436"><ele>154.33333333333334</ele><time>2026-04-19T12:14:08Z</time></trkpt><trkpt lat="38.86326016710588" lon="-9.304706993662876"><ele>154.0</ele><time>2026-04-19T12:14:09Z</time></trkpt><trkpt lat="38.86313139101599" lon="-9.304917149429102"><ele>153.66666666666669</ele><time>2026-04-19T12:14:10Z</time></trkpt><trkpt lat="38.86300277560854" lon="-9.305127043075503"><ele>153.33333333333334</ele><time>2026-04-19T12:14:11Z</time></trkpt><trkpt lat="38.86287301522355" lon="-9.30533880528283"><ele>153.0</ele><time>2026-04-19T12:14:12Z</time></trkpt><trkpt lat="38.862740589833344" lon="-9.305555752144134"><ele>153.0</ele><time>2026-04-19T12:14:13Z</time></trkpt><trkpt lat="38.862610582366564" lon="-9.305768093479092"><ele>153.0</ele><time>2026-04-19T12:14:14Z</time></trkpt><trkpt lat="38.862474096304204" lon="-9.30598573701441"><ele>153.0</ele><time>2026-04-19T12:14:15Z</time></trkpt><trkpt lat="38.862336432558045" lon="-9.306201052285216"><ele>153.0</ele><time>2026-04-19T12:14:16Z</time></trkpt><trkpt lat="38.86218216676396" lon="-9.306402453778029"><ele>153.0</ele><time>2026-04-19T12:14:17Z</time></trkpt><trkpt lat="38.86203935269379" lon="-9.306610523891573"><ele>153.0</ele><time>2026-04-19T12:14:18Z</time></trkpt><trkpt lat="38.86188589572179" lon="-9.306803739647965"><ele>153.33333333333334</ele><time>2026-04-19T12:14:19Z</time></trkpt><trkpt lat="38.86172699365751" lon="-9.30698875238196"><ele>153.66666666666669</ele><time>2026-04-19T12:14:20Z</time></trkpt><trkpt lat="38.861566438156814" lon="-9.307171271811898"><ele>154.0</ele><time>2026-04-19T12:14:21Z</time></trkpt><trkpt lat="38.86140382614664" lon="-9.30735762626489"><ele>153.0</ele><time>2026-04-19T12:14:22Z</time></trkpt><trkpt lat="38.86124823333208" lon="-9.307537430477339"><ele>152.0</ele><time>2026-04-19T12:14:23Z</time></trkpt><trkpt lat="38.86110757951083" lon="-9.307694828691636"><ele>151.0</ele><time>2026-04-19T12:14:24Z</time></trkpt><trkpt lat="38.86099618559926" lon="-9.307830247842327"><ele>151.6</ele><time>2026-04-19T12:14:25Z</time></trkpt><trkpt lat="38.860922194552536" lon="-9.307966826332999"><ele>152.2</ele><time>2026-04-19T12:14:26Z</time></trkpt><trkpt lat="38.860875360829326" lon="-9.308075618763551"><ele>152.8</ele><time>2026-04-19T12:14:27Z</time></trkpt><trkpt lat="38.860859015067625" lon="-9.308189179410789"><ele>153.4</ele><time>2026-04-19T12:14:28Z</time></trkpt><trkpt lat="38.86083601662711" lon="-9.308313456043171"><ele>154.0</ele><time>2026-04-19T12:14:29.001Z</time></trkpt><trkpt lat="38.86092104509851" lon="-9.308428252902555"><ele>155.0</ele><time>2026-04-19T12:14:30.001Z</time></trkpt><trkpt lat="38.86100974556855" lon="-9.308550117776196"><ele>156.0</ele><time>2026-04-19T12:14:31.001Z</time></trkpt><trkpt lat="38.86111167999167" lon="-9.308685532519041"><ele>157.0</ele><time>2026-04-19T12:14:32.001Z</time></trkpt><trkpt lat="38.86121541612304" lon="-9.308829002682115"><ele>158.0</ele><time>2026-04-19T12:14:33.001Z</time></trkpt><trkpt lat="38.861330420974035" lon="-9.308968907687978"><ele>161.0</ele><time>2026-04-19T12:14:34.001Z</time></trkpt><trkpt lat="38.861442667823916" lon="-9.309111255484494"><ele>164.0</ele><time>2026-04-19T12:14:35.001Z</time></trkpt><trkpt lat="38.861561514388995" lon="-9.309252551906816"><ele>167.0</ele><time>2026-04-19T12:14:36.001Z</time></trkpt><trkpt lat="38.8616718340633" lon="-9.309399134032397"><ele>167.0</ele><time>2026-04-19T12:14:37.001Z</time></trkpt><trkpt lat="38.861761692784995" lon="-9.30951600836581"><ele>167.0</ele><time>2026-04-19T12:14:38.001Z</time></trkpt><trkpt lat="38.86181346701284" lon="-9.30962559896133"><ele>167.0</ele><time>2026-04-19T12:14:39.001Z</time></trkpt><trkpt lat="38.86182760934848" lon="-9.309768472647766"><ele>167.0</ele><time>2026-04-19T12:14:40.001Z</time></trkpt><trkpt lat="38.86180870251118" lon="-9.309940886001671"><ele>168.33333333333331</ele><time>2026-04-19T12:14:41.001Z</time></trkpt><trkpt lat="38.86176622863472" lon="-9.310116831383036"><ele>169.66666666666666</ele><time>2026-04-19T12:14:42.001Z</time></trkpt><trkpt lat="38.86170377419031" lon="-9.31030312220914"><ele>171.0</ele><time>2026-04-19T12:14:43.001Z</time></trkpt><trkpt lat="38.86160936545871" lon="-9.310477344220946"><ele>170.0</ele><time>2026-04-19T12:14:44.001Z</time></trkpt><trkpt lat="38.861486931126244" lon="-9.310637863165528"><ele>169.0</ele><time>2026-04-19T12:14:45.001Z</time></trkpt><trkpt lat="38.86134359450516" lon="-9.310782621245034"><ele>168.0</ele><time>2026-04-19T12:14:46.001Z</time></trkpt><trkpt lat="38.861191882531635" lon="-9.31091896871095"><ele>168.0</ele><time>2026-04-19T12:14:47.001Z</time></trkpt><trkpt lat="38.86102901447272" lon="-9.31105570662121"><ele>168.0</ele><time>2026-04-19T12:14:48.001Z</time></trkpt><trkpt lat="38.860898583650695" lon="-9.31120302198345"><ele>168.0</ele><time>2026-04-19T12:14:49.001Z</time></trkpt><trkpt lat="38.86080018560792" lon="-9.311367761515337"><ele>166.33333333333334</ele><time>2026-04-19T12:14:50.001Z</time></trkpt><trkpt lat="38.86073227178276" lon="-9.311551162841146"><ele>164.66666666666669</ele><time>2026-04-19T12:14:51.001Z</time></trkpt><trkpt lat="38.86073827173374" lon="-9.311755395239805"><ele>163.0</ele><time>2026-04-19T12:14:52.001Z</time></trkpt><trkpt lat="38.86073596165211" lon="-9.311971109793946"><ele>163.0</ele><time>2026-04-19T12:14:53.001Z</time></trkpt><trkpt lat="38.86073375889724" lon="-9.312203775652803"><ele>163.0</ele><time>2026-04-19T12:14:54.001Z</time></trkpt><trkpt lat="38.86071676339309" lon="-9.312441357115857"><ele>163.0</ele><time>2026-04-19T12:14:55.001Z</time></trkpt><trkpt lat="38.860731656416306" lon="-9.312686724308287"><ele>162.66666666666669</ele><time>2026-04-19T12:14:56.001Z</time></trkpt><trkpt lat="38.860730374270915" lon="-9.312935793491967"><ele>162.33333333333334</ele><time>2026-04-19T12:14:57.001Z</time></trkpt><trkpt lat="38.86072580313337" lon="-9.313193074260184"><ele>162.0</ele><time>2026-04-19T12:14:58.001Z</time></trkpt><trkpt lat="38.86070608205167" lon="-9.313448600459173"><ele>162.33333333333334</ele><time>2026-04-19T12:14:59.001Z</time></trkpt><trkpt lat="38.86067268456877" lon="-9.3137048274975"><ele>162.66666666666669</ele><time>2026-04-19T12:15:00.001Z</time></trkpt><trkpt lat="38.8606267382897" lon="-9.313966536878516"><ele>163.0</ele><time>2026-04-19T12:15:01.001Z</time></trkpt><trkpt lat="38.86057006689204" lon="-9.314219549483363"><ele>163.0</ele><time>2026-04-19T12:15:02.001Z</time></trkpt><trkpt lat="38.8605069203587" lon="-9.314482203876437"><ele>163.0</ele><time>2026-04-19T12:15:03.001Z</time></trkpt><trkpt lat="38.86043410466139" lon="-9.314742248178344"><ele>163.0</ele><time>2026-04-19T12:15:04.001Z</time></trkpt><trkpt lat="38.8603543693891" lon="-9.315007239582702"><ele>162.66666666666669</ele><time>2026-04-19T12:15:05.001Z</time></trkpt><trkpt lat="38.8602814217463" lon="-9.315276217445543"><ele>162.33333333333334</ele><time>2026-04-19T12:15:06.001Z</time></trkpt><trkpt lat="38.86020478468202" lon="-9.315542905302845"><ele>162.0</ele><time>2026-04-19T12:15:07.001Z</time></trkpt><trkpt lat="38.86013151928333" lon="-9.315785295249945"><ele>160.0</ele><time>2026-04-19T12:15:08.001Z</time></trkpt><trkpt lat="38.86007795128776" lon="-9.31598812449401"><ele>158.0</ele><time>2026-04-19T12:15:09.001Z</time></trkpt><trkpt lat="38.86005144874297" lon="-9.316191119129451"><ele>156.0</ele><time>2026-04-19T12:15:10.001Z</time></trkpt><trkpt lat="38.86006291461455" lon="-9.316391055631884"><ele>156.0</ele><time>2026-04-19T12:15:11.001Z</time></trkpt><trkpt lat="38.86008532346198" lon="-9.316607030018993"><ele>156.0</ele><time>2026-04-19T12:15:12.001Z</time></trkpt><trkpt lat="38.86012955778123" lon="-9.31683322074271"><ele>156.0</ele><time>2026-04-19T12:15:13Z</time></trkpt><trkpt lat="38.860236866717926" lon="-9.317039995824075"><ele>157.33333333333334</ele><time>2026-04-19T12:15:14Z</time></trkpt><trkpt lat="38.86032668608949" lon="-9.317247924775181"><ele>158.66666666666669</ele><time>2026-04-19T12:15:15Z</time></trkpt><trkpt lat="38.860413061293166" lon="-9.317470330672522"><ele>160.0</ele><time>2026-04-19T12:15:16Z</time></trkpt><trkpt lat="38.8605225215875" lon="-9.31768692156731"><ele>160.0</ele><time>2026-04-19T12:15:17Z</time></trkpt><trkpt lat="38.860622027261286" lon="-9.31790734213846"><ele>160.0</ele><time>2026-04-19T12:15:18Z</time></trkpt><trkpt lat="38.86071613604864" lon="-9.318131760618797"><ele>160.0</ele><time>2026-04-19T12:15:19Z</time></trkpt><trkpt lat="38.860808927507826" lon="-9.318363225827323"><ele>160.33333333333334</ele><time>2026-04-19T12:15:20Z</time></trkpt><trkpt lat="38.86089237293884" lon="-9.318586959938928"><ele>160.66666666666666</ele><time>2026-04-19T12:15:21Z</time></trkpt><trkpt lat="38.860964549091" lon="-9.318787135558381"><ele>161.0</ele><time>2026-04-19T12:15:22Z</time></trkpt><trkpt lat="38.86102565713661" lon="-9.318983254930325"><ele>164.0</ele><time>2026-04-19T12:15:23Z</time></trkpt><trkpt lat="38.861060933666074" lon="-9.319198201228932"><ele>167.0</ele><time>2026-04-19T12:15:24Z</time></trkpt><trkpt lat="38.86106444155269" lon="-9.319414660545185"><ele>170.0</ele><time>2026-04-19T12:15:25Z</time></trkpt><trkpt lat="38.861031991209224" lon="-9.319611053373"><ele>169.0</ele><time>2026-04-19T12:15:26Z</time></trkpt><trkpt lat="38.860967006313004" lon="-9.3198142344999"><ele>168.0</ele><time>2026-04-19T12:15:27Z</time></trkpt><trkpt lat="38.86086419369271" lon="-9.320016394130292"><ele>167.0</ele><time>2026-04-19T12:15:28Z</time></trkpt><trkpt lat="38.86075881905634" lon="-9.320210266505574"><ele>167.0</ele><time>2026-04-19T12:15:29Z</time></trkpt><trkpt lat="38.86066128023346" lon="-9.320407012436725"><ele>167.0</ele><time>2026-04-19T12:15:30Z</time></trkpt><trkpt lat="38.86057230102413" lon="-9.320611071257805"><ele>167.0</ele><time>2026-04-19T12:15:31Z</time></trkpt><trkpt lat="38.860495763058076" lon="-9.320831007269867"><ele>167.33333333333331</ele><time>2026-04-19T12:15:32Z</time></trkpt><trkpt lat="38.86042607384433" lon="-9.32105917331001"><ele>167.66666666666666</ele><time>2026-04-19T12:15:33Z</time></trkpt><trkpt lat="38.86035391467945" lon="-9.321265240716036"><ele>168.0</ele><time>2026-04-19T12:15:34Z</time></trkpt><trkpt lat="38.86029781287243" lon="-9.321433714087359"><ele>168.0</ele><time>2026-04-19T12:15:35Z</time></trkpt><trkpt lat="38.86025324866922" lon="-9.32157778979035"><ele>168.0</ele><time>2026-04-19T12:15:36Z</time></trkpt><trkpt lat="38.86020889022388" lon="-9.321671195760604"><ele>168.0</ele><time>2026-04-19T12:15:37Z</time></trkpt><trkpt lat="38.86017446642531" lon="-9.321773203478203"><ele>168.0</ele><time>2026-04-19T12:15:39Z</time></trkpt><trkpt lat="38.85998405005481" lon="-9.321595001272188"><ele>167.5</ele><time>2026-04-19T12:15:41Z</time></trkpt><trkpt lat="38.859886465804415" lon="-9.321508890094814"><ele>167.0</ele><time>2026-04-19T12:15:42Z</time></trkpt><trkpt lat="38.8597725539129" lon="-9.321448585383028"><ele>166.5</ele><time>2026-04-19T12:15:43Z</time></trkpt><trkpt lat="38.85965583528912" lon="-9.321474713807982"><ele>166.0</ele><time>2026-04-19T12:15:44Z</time></trkpt><trkpt lat="38.859533807580185" lon="-9.321479787500865"><ele>166.0</ele><time>2026-04-19T12:15:45Z</time></trkpt><trkpt lat="38.859405717461904" lon="-9.321486946011358"><ele>166.0</ele><time>2026-04-19T12:15:46Z</time></trkpt><trkpt lat="38.85926221151" lon="-9.321499906718344"><ele>166.0</ele><time>2026-04-19T12:15:47Z</time></trkpt><trkpt lat="38.859118029107464" lon="-9.321529295843282"><ele>166.0</ele><time>2026-04-19T12:15:48Z</time></trkpt><trkpt lat="38.85899856813622" lon="-9.321569941481354"><ele>164.66666666666669</ele><time>2026-04-19T12:15:49Z</time></trkpt><trkpt lat="38.85886607193121" lon="-9.32164545451116"><ele>163.33333333333334</ele><time>2026-04-19T12:15:50Z</time></trkpt><trkpt lat="38.85873264426287" lon="-9.321726152206892"><ele>162.0</ele><time>2026-04-19T12:15:51Z</time></trkpt><trkpt lat="38.85858653195494" lon="-9.32180252331022"><ele>160.33333333333334</ele><time>2026-04-19T12:15:52Z</time></trkpt><trkpt lat="38.858428540700864" lon="-9.321876969793085"><ele>158.66666666666669</ele><time>2026-04-19T12:15:53Z</time></trkpt><trkpt lat="38.85825513388267" lon="-9.32193444572916"><ele>157.0</ele><time>2026-04-19T12:15:54Z</time></trkpt><trkpt lat="38.85808460441365" lon="-9.32201106008115"><ele>157.0</ele><time>2026-04-19T12:15:55Z</time></trkpt><trkpt lat="38.857932560492614" lon="-9.322149435664599"><ele>157.0</ele><time>2026-04-19T12:15:56Z</time></trkpt><trkpt lat="38.857747527851586" lon="-9.322263394734703"><ele>157.0</ele><time>2026-04-19T12:15:57Z</time></trkpt><trkpt lat="38.85755865243379" lon="-9.322352999381668"><ele>156.66666666666669</ele><time>2026-04-19T12:15:58Z</time></trkpt><trkpt lat="38.85739479306008" lon="-9.322425769185633"><ele>156.33333333333334</ele><time>2026-04-19T12:15:59Z</time></trkpt><trkpt lat="38.857244457091305" lon="-9.322492749960071"><ele>156.0</ele><time>2026-04-19T12:16:00Z</time></trkpt><trkpt lat="38.85710982226332" lon="-9.322557319882627"><ele>156.0</ele><time>2026-04-19T12:16:01Z</time></trkpt><trkpt lat="38.85698158432269" lon="-9.322620981036248"><ele>156.0</ele><time>2026-04-19T12:16:02Z</time></trkpt><trkpt lat="38.856854620300446" lon="-9.32268333549597"><ele>156.0</ele><time>2026-04-19T12:16:03Z</time></trkpt><trkpt lat="38.85673682787467" lon="-9.322708675532974"><ele>156.0</ele><time>2026-04-19T12:16:04Z</time></trkpt><trkpt lat="38.856648741260436" lon="-9.322771957613092"><ele>155.5</ele><time>2026-04-19T12:16:05Z</time></trkpt><trkpt lat="38.85653567107688" lon="-9.32274836884659"><ele>155.0</ele><time>2026-04-19T12:16:06Z</time></trkpt><trkpt lat="38.85641046860148" lon="-9.32269863341025"><ele>154.5</ele><time>2026-04-19T12:16:07Z</time></trkpt><trkpt lat="38.85627381507362" lon="-9.322610267121174"><ele>154.0</ele><time>2026-04-19T12:16:08Z</time></trkpt><trkpt lat="38.856167767507365" lon="-9.322532266272868"><ele>154.0</ele><time>2026-04-19T12:16:09Z</time></trkpt><trkpt lat="38.85606099839862" lon="-9.322540895630931"><ele>154.0</ele><time>2026-04-19T12:16:10Z</time></trkpt><trkpt lat="38.85598489431546" lon="-9.322537899872724"><ele>154.0</ele><time>2026-04-19T12:16:11Z</time></trkpt><trkpt lat="38.85592759900711" lon="-9.322575348186904"><ele>154.0</ele><time>2026-04-19T12:16:13Z</time></trkpt><trkpt lat="38.85600961297887" lon="-9.322741462275488"><ele>154.0</ele><time>2026-04-19T12:16:15Z</time></trkpt><trkpt lat="38.85602534026357" lon="-9.32288526125045"><ele>154.0</ele><time>2026-04-19T12:16:16Z</time></trkpt><trkpt lat="38.85604790899038" lon="-9.323024705207331"><ele>154.0</ele><time>2026-04-19T12:16:17Z</time></trkpt><trkpt lat="38.85608244396021" lon="-9.323131738267161"><ele>154.0</ele><time>2026-04-19T12:16:18Z</time></trkpt><trkpt lat="38.85610589701693" lon="-9.323249164270676"><ele>154.0</ele><time>2026-04-19T12:16:20Z</time></trkpt><trkpt lat="38.855953213061476" lon="-9.323309115388192"><ele>153.0</ele><time>2026-04-19T12:16:22Z</time></trkpt><trkpt lat="38.85586040718078" lon="-9.323346690277049"><ele>152.0</ele><time>2026-04-19T12:16:23Z</time></trkpt><trkpt lat="38.855753952567404" lon="-9.32339197759669"><ele>151.0</ele><time>2026-04-19T12:16:24Z</time></trkpt><trkpt lat="38.855645844103805" lon="-9.323432989385289"><ele>150.0</ele><time>2026-04-19T12:16:25Z</time></trkpt><trkpt lat="38.855558702895536" lon="-9.323476063754086"><ele>149.0</ele><time>2026-04-19T12:16:26Z</time></trkpt><trkpt lat="38.85549216148816" lon="-9.32350964803052"><ele>149.0</ele><time>2026-04-19T12:16:27Z</time></trkpt><trkpt lat="38.85541997354385" lon="-9.32354747336696"><ele>149.0</ele><time>2026-04-19T12:16:29Z</time></trkpt><trkpt lat="38.855393909337124" lon="-9.323376811690078"><ele>149.0</ele><time>2026-04-19T12:16:30Z</time></trkpt><trkpt lat="38.85539261566572" lon="-9.323257499747934"><ele>149.0</ele><time>2026-04-19T12:16:31Z</time></trkpt><trkpt lat="38.855374508649575" lon="-9.323127096300212"><ele>149.0</ele><time>2026-04-19T12:16:32Z</time></trkpt><trkpt lat="38.85533714761684" lon="-9.322982534799205"><ele>149.0</ele><time>2026-04-19T12:16:33Z</time></trkpt><trkpt lat="38.85526513850131" lon="-9.322890745614036"><ele>149.0</ele><time>2026-04-19T12:16:34Z</time></trkpt><trkpt lat="38.85521721326836" lon="-9.322815658413665"><ele>149.0</ele><time>2026-04-19T12:16:35Z</time></trkpt><trkpt lat="38.8551316590994" lon="-9.322763711204697"><ele>149.0</ele><time>2026-04-19T12:16:37Z</time></trkpt><trkpt lat="38.855087099427074" lon="-9.322960284323676"><ele>149.0</ele><time>2026-04-19T12:16:39Z</time></trkpt><trkpt lat="38.85503392366208" lon="-9.323102587493048"><ele>147.33333333333331</ele><time>2026-04-19T12:16:40Z</time></trkpt><trkpt lat="38.85495581383755" lon="-9.323260845574952"><ele>145.66666666666666</ele><time>2026-04-19T12:16:41Z</time></trkpt><trkpt lat="38.854889423470595" lon="-9.323442000469878"><ele>144.0</ele><time>2026-04-19T12:16:42Z</time></trkpt><trkpt lat="38.854811776938135" lon="-9.32364862679688"><ele>144.0</ele><time>2026-04-19T12:16:43Z</time></trkpt><trkpt lat="38.854736528073246" lon="-9.32385652686592"><ele>144.0</ele><time>2026-04-19T12:16:44Z</time></trkpt><trkpt lat="38.85465948215481" lon="-9.324076838319906"><ele>144.0</ele><time>2026-04-19T12:16:45Z</time></trkpt><trkpt lat="38.854579418290236" lon="-9.32430622960591"><ele>144.66666666666666</ele><time>2026-04-19T12:16:46Z</time></trkpt><trkpt lat="38.85449082675294" lon="-9.324526693202332"><ele>145.33333333333331</ele><time>2026-04-19T12:16:47Z</time></trkpt><trkpt lat="38.85441221869672" lon="-9.324713225008708"><ele>146.0</ele><time>2026-04-19T12:16:48Z</time></trkpt><trkpt lat="38.85432154111576" lon="-9.324862593438167"><ele>145.5</ele><time>2026-04-19T12:16:49Z</time></trkpt><trkpt lat="38.85423160705715" lon="-9.32499246470221"><ele>145.0</ele><time>2026-04-19T12:16:50Z</time></trkpt><trkpt lat="38.85415580861241" lon="-9.32511961575129"><ele>144.5</ele><time>2026-04-19T12:16:51Z</time></trkpt><trkpt lat="38.85409314441806" lon="-9.325222598987"><ele>144.0</ele><time>2026-04-19T12:16:52Z</time></trkpt><trkpt lat="38.85402972131359" lon="-9.325314528914598"><ele>144.0</ele><time>2026-04-19T12:16:53Z</time></trkpt><trkpt lat="38.85397269574486" lon="-9.325394055129813"><ele>144.0</ele><time>2026-04-19T12:16:54Z</time></trkpt><trkpt lat="38.85391482704984" lon="-9.325444324472777"><ele>144.0</ele><time>2026-04-19T12:16:55Z</time></trkpt><trkpt lat="38.85381858752922" lon="-9.325474107494333"><ele>144.0</ele><time>2026-04-19T12:16:57Z</time></trkpt><trkpt lat="38.85369359788065" lon="-9.325295669061116"><ele>144.0</ele><time>2026-04-19T12:17:00.001Z</time></trkpt><trkpt lat="38.85364369454412" lon="-9.325179471591255"><ele>144.0</ele><time>2026-04-19T12:17:01.001Z</time></trkpt><trkpt lat="38.85357140519733" lon="-9.325041203841616"><ele>144.0</ele><time>2026-04-19T12:17:02.001Z</time></trkpt><trkpt lat="38.85348952170404" lon="-9.324900795244108"><ele>144.0</ele><time>2026-04-19T12:17:03.001Z</time></trkpt><trkpt lat="38.8533934166261" lon="-9.3247471000943"><ele>144.0</ele><time>2026-04-19T12:17:04.001Z</time></trkpt><trkpt lat="38.85326797482898" lon="-9.324596670652028"><ele>142.0</ele><time>2026-04-19T12:17:05.001Z</time></trkpt><trkpt lat="38.853121033900365" lon="-9.32449580282437"><ele>140.0</ele><time>2026-04-19T12:17:06.001Z</time></trkpt><trkpt lat="38.85295604474059" lon="-9.324391972358919"><ele>138.0</ele><time>2026-04-19T12:17:07.001Z</time></trkpt><trkpt lat="38.85277692073366" lon="-9.32429049414084"><ele>137.33333333333334</ele><time>2026-04-19T12:17:08.001Z</time></trkpt><trkpt lat="38.85259428726812" lon="-9.32418882057328"><ele>136.66666666666669</ele><time>2026-04-19T12:17:09.001Z</time></trkpt><trkpt lat="38.85241017616875" lon="-9.32408670273398"><ele>136.0</ele><time>2026-04-19T12:17:10.001Z</time></trkpt><trkpt lat="38.85221870483413" lon="-9.323982701846859"><ele>135.33333333333334</ele><time>2026-04-19T12:17:11.001Z</time></trkpt><trkpt lat="38.85201938132748" lon="-9.323874435983804"><ele>134.66666666666666</ele><time>2026-04-19T12:17:12.001Z</time></trkpt><trkpt lat="38.85181476140315" lon="-9.323766543565155"><ele>134.0</ele><time>2026-04-19T12:17:13.001Z</time></trkpt><trkpt lat="38.851623702979104" lon="-9.323652578884401"><ele>134.0</ele><time>2026-04-19T12:17:14.001Z</time></trkpt><trkpt lat="38.851438980657534" lon="-9.323592165202435"><ele>134.0</ele><time>2026-04-19T12:17:15.001Z</time></trkpt><trkpt lat="38.851249264065245" lon="-9.323496041776206"><ele>134.0</ele><time>2026-04-19T12:17:16.001Z</time></trkpt><trkpt lat="38.85104561075114" lon="-9.323414390508058"><ele>134.0</ele><time>2026-04-19T12:17:17.001Z</time></trkpt><trkpt lat="38.85086929191099" lon="-9.32333813630643"><ele>134.0</ele><time>2026-04-19T12:17:18.001Z</time></trkpt><trkpt lat="38.85071038910451" lon="-9.323259860258613"><ele>134.0</ele><time>2026-04-19T12:17:19Z</time></trkpt><trkpt lat="38.85054894791893" lon="-9.323157449107908"><ele>134.0</ele><time>2026-04-19T12:17:20Z</time></trkpt><trkpt lat="38.8503976091829" lon="-9.323023157700666"><ele>134.0</ele><time>2026-04-19T12:17:21Z</time></trkpt><trkpt lat="38.850249462907705" lon="-9.322861101913563"><ele>134.0</ele><time>2026-04-19T12:17:22Z</time></trkpt><trkpt lat="38.85009359748252" lon="-9.322677948240164"><ele>134.0</ele><time>2026-04-19T12:17:23Z</time></trkpt><trkpt lat="38.84994415736068" lon="-9.32247664738083"><ele>134.0</ele><time>2026-04-19T12:17:24Z</time></trkpt><trkpt lat="38.849793070046815" lon="-9.322258866758892"><ele>134.0</ele><time>2026-04-19T12:17:25Z</time></trkpt><trkpt lat="38.84964654136283" lon="-9.322026250130355"><ele>134.5</ele><time>2026-04-19T12:17:26Z</time></trkpt><trkpt lat="38.849495669578594" lon="-9.321797827890235"><ele>135.0</ele><time>2026-04-19T12:17:27Z</time></trkpt><trkpt lat="38.849334788096286" lon="-9.321565546935208"><ele>135.5</ele><time>2026-04-19T12:17:28Z</time></trkpt><trkpt lat="38.84918061270419" lon="-9.321333343879624"><ele>136.0</ele><time>2026-04-19T12:17:29Z</time></trkpt><trkpt lat="38.849037891174476" lon="-9.321099864432734"><ele>136.0</ele><time>2026-04-19T12:17:30Z</time></trkpt><trkpt lat="38.84891076115138" lon="-9.320876427278556"><ele>136.0</ele><time>2026-04-19T12:17:31Z</time></trkpt><trkpt lat="38.84879942595706" lon="-9.320626433299486"><ele>136.0</ele><time>2026-04-19T12:17:32Z</time></trkpt><trkpt lat="38.84869148963543" lon="-9.320371838313454"><ele>138.0</ele><time>2026-04-19T12:17:33Z</time></trkpt><trkpt lat="38.84859563016059" lon="-9.320103140075238"><ele>140.0</ele><time>2026-04-19T12:17:34Z</time></trkpt><trkpt lat="38.848507906964116" lon="-9.319841318879751"><ele>140.33333333333331</ele><time>2026-04-19T12:17:35Z</time></trkpt><trkpt lat="38.84843372400985" lon="-9.319625953758706"><ele>140.66666666666666</ele><time>2026-04-19T12:17:36Z</time></trkpt><trkpt lat="38.848360340180314" lon="-9.319433703538644"><ele>141.0</ele><time>2026-04-19T12:17:37Z</time></trkpt><trkpt lat="38.84826378451798" lon="-9.319297499583001"><ele>141.0</ele><time>2026-04-19T12:17:38Z</time></trkpt><trkpt lat="38.84815450892692" lon="-9.319207379961654"><ele>141.0</ele><time>2026-04-19T12:17:39Z</time></trkpt><trkpt lat="38.848011591516254" lon="-9.319129807868006"><ele>141.0</ele><time>2026-04-19T12:17:40Z</time></trkpt><trkpt lat="38.84784681884135" lon="-9.319062692493723"><ele>141.0</ele><time>2026-04-19T12:17:41Z</time></trkpt><trkpt lat="38.847671601023755" lon="-9.318994723145742"><ele>141.0</ele><time>2026-04-19T12:17:42Z</time></trkpt><trkpt lat="38.84748869073642" lon="-9.318914607965"><ele>141.0</ele><time>2026-04-19T12:17:43Z</time></trkpt><trkpt lat="38.847285941730085" lon="-9.318909105207242"><ele>144.33333333333334</ele><time>2026-04-19T12:17:44Z</time></trkpt><trkpt lat="38.84708047277064" lon="-9.31888763688839"><ele>147.66666666666669</ele><time>2026-04-19T12:17:45Z</time></trkpt><trkpt lat="38.84690552279722" lon="-9.31887262976778"><ele>151.0</ele><time>2026-04-19T12:17:46Z</time></trkpt><trkpt lat="38.84674589096819" lon="-9.318861433044736"><ele>151.0</ele><time>2026-04-19T12:17:47Z</time></trkpt><trkpt lat="38.84657800447624" lon="-9.318853911026476"><ele>151.0</ele><time>2026-04-19T12:17:48Z</time></trkpt><trkpt lat="38.84641939706318" lon="-9.31886706197398"><ele>151.0</ele><time>2026-04-19T12:17:49Z</time></trkpt><trkpt lat="38.84628154478694" lon="-9.318891366911012"><ele>149.75</ele><time>2026-04-19T12:17:50Z</time></trkpt><trkpt lat="38.846162403793286" lon="-9.318911098949432"><ele>148.5</ele><time>2026-04-19T12:17:51Z</time></trkpt><trkpt lat="38.84605970666613" lon="-9.318914241450056"><ele>147.25</ele><time>2026-04-19T12:17:52Z</time></trkpt><trkpt lat="38.84597532701519" lon="-9.31899580365223"><ele>146.0</ele><time>2026-04-19T12:17:53Z</time></trkpt><trkpt lat="38.84589240792637" lon="-9.319197976078392"><ele>146.0</ele><time>2026-04-19T12:17:54Z</time></trkpt><trkpt lat="38.84578713272826" lon="-9.31933150372779"><ele>146.0</ele><time>2026-04-19T12:17:55Z</time></trkpt><trkpt lat="38.845683168045916" lon="-9.319458760362917"><ele>146.0</ele><time>2026-04-19T12:17:56Z</time></trkpt><trkpt lat="38.84559639008726" lon="-9.319612154254319"><ele>146.0</ele><time>2026-04-19T12:17:57Z</time></trkpt><trkpt lat="38.8455245231893" lon="-9.319792771035296"><ele>146.0</ele><time>2026-04-19T12:17:58Z</time></trkpt><trkpt lat="38.84543682109653" lon="-9.31996662838991"><ele>146.0</ele><time>2026-04-19T12:17:59Z</time></trkpt><trkpt lat="38.845338695767595" lon="-9.320137920594629"><ele>146.0</ele><time>2026-04-19T12:18:00Z</time></trkpt><trkpt lat="38.84525322665226" lon="-9.320286435700321"><ele>146.0</ele><time>2026-04-19T12:18:01Z</time></trkpt><trkpt lat="38.84517213989842" lon="-9.32046199183014"><ele>146.0</ele><time>2026-04-19T12:18:02Z</time></trkpt><trkpt lat="38.845098929330156" lon="-9.3206708451882"><ele>146.0</ele><time>2026-04-19T12:18:03Z</time></trkpt><trkpt lat="38.84502759126363" lon="-9.32089997756089"><ele>145.66666666666666</ele><time>2026-04-19T12:18:04Z</time></trkpt><trkpt lat="38.844945108943634" lon="-9.32110158870442"><ele>145.33333333333334</ele><time>2026-04-19T12:18:05Z</time></trkpt><trkpt lat="38.84487134946935" lon="-9.32126139940105"><ele>145.0</ele><time>2026-04-19T12:18:06Z</time></trkpt><trkpt lat="38.844811545721946" lon="-9.321420535383993"><ele>145.0</ele><time>2026-04-19T12:18:07Z</time></trkpt><trkpt lat="38.84476916575643" lon="-9.321580135334754"><ele>145.0</ele><time>2026-04-19T12:18:08Z</time></trkpt><trkpt lat="38.8447441475286" lon="-9.321711270428953"><ele>145.0</ele><time>2026-04-19T12:18:09Z</time></trkpt><trkpt lat="38.844706236891724" lon="-9.321824514435185"><ele>145.0</ele><time>2026-04-19T12:18:10Z</time></trkpt><trkpt lat="38.8446767802502" lon="-9.32193483517533"><ele>145.0</ele><time>2026-04-19T12:18:11Z</time></trkpt><trkpt lat="38.84465021649766" lon="-9.322039097421055"><ele>145.0</ele><time>2026-04-19T12:18:12Z</time></trkpt><trkpt lat="38.844585142919485" lon="-9.322099791802676"><ele>145.0</ele><time>2026-04-19T12:18:13Z</time></trkpt><trkpt lat="38.84448145640336" lon="-9.322132215764189"><ele>145.0</ele><time>2026-04-19T12:18:14Z</time></trkpt><trkpt lat="38.844356884261046" lon="-9.322194619280998"><ele>145.0</ele><time>2026-04-19T12:18:15Z</time></trkpt><trkpt lat="38.84421738874578" lon="-9.322282432328715"><ele>145.33333333333334</ele><time>2026-04-19T12:18:16Z</time></trkpt><trkpt lat="38.84406877738335" lon="-9.322375503110806"><ele>145.66666666666666</ele><time>2026-04-19T12:18:17Z</time></trkpt><trkpt lat="38.8439167332591" lon="-9.322490645173142"><ele>146.0</ele><time>2026-04-19T12:18:18Z</time></trkpt><trkpt lat="38.84374976196672" lon="-9.32259678324803"><ele>146.0</ele><time>2026-04-19T12:18:19Z</time></trkpt><trkpt lat="38.84357929241994" lon="-9.32270506185092"><ele>146.0</ele><time>2026-04-19T12:18:20Z</time></trkpt><trkpt lat="38.843425289656295" lon="-9.322801256517346"><ele>146.0</ele><time>2026-04-19T12:18:21Z</time></trkpt><trkpt lat="38.84329240101318" lon="-9.322882549698955"><ele>145.75</ele><time>2026-04-19T12:18:22Z</time></trkpt><trkpt lat="38.843179549946996" lon="-9.322951200300261"><ele>145.5</ele><time>2026-04-19T12:18:23Z</time></trkpt><trkpt lat="38.84308628900417" lon="-9.323021704552538"><ele>145.25</ele><time>2026-04-19T12:18:24Z</time></trkpt><trkpt lat="38.84302177877718" lon="-9.323147490672925"><ele>145.0</ele><time>2026-04-19T12:18:25Z</time></trkpt><trkpt lat="38.842966518322996" lon="-9.323321718126065"><ele>145.0</ele><time>2026-04-19T12:18:26Z</time></trkpt><trkpt lat="38.84289549318708" lon="-9.323538140423278"><ele>145.0</ele><time>2026-04-19T12:18:27Z</time></trkpt><trkpt lat="38.84281945552023" lon="-9.323769836585559"><ele>145.0</ele><time>2026-04-19T12:18:28Z</time></trkpt><trkpt lat="38.84273726255385" lon="-9.324016782194677"><ele>144.0</ele><time>2026-04-19T12:18:29Z</time></trkpt><trkpt lat="38.84265279013268" lon="-9.324273817709297"><ele>143.0</ele><time>2026-04-19T12:18:30Z</time></trkpt><trkpt lat="38.842564639822456" lon="-9.324542044072079"><ele>142.0</ele><time>2026-04-19T12:18:31Z</time></trkpt><trkpt lat="38.84246173834465" lon="-9.324808744458847"><ele>141.0</ele><time>2026-04-19T12:18:32Z</time></trkpt><trkpt lat="38.8423678431994" lon="-9.325084810721162"><ele>140.0</ele><time>2026-04-19T12:18:33Z</time></trkpt><trkpt lat="38.84228935916717" lon="-9.325371871131065"><ele>138.0</ele><time>2026-04-19T12:18:34Z</time></trkpt><trkpt lat="38.84218246184218" lon="-9.325642462809215"><ele>136.0</ele><time>2026-04-19T12:18:35Z</time></trkpt><trkpt lat="38.84209504731741" lon="-9.325922604124868"><ele>136.0</ele><time>2026-04-19T12:18:36Z</time></trkpt><trkpt lat="38.842004753683284" lon="-9.326204836936117"><ele>136.0</ele><time>2026-04-19T12:18:37Z</time></trkpt><trkpt lat="38.841908613032984" lon="-9.32648947087457"><ele>136.5</ele><time>2026-04-19T12:18:38Z</time></trkpt><trkpt lat="38.841810933396964" lon="-9.326780071059813"><ele>137.0</ele><time>2026-04-19T12:18:39Z</time></trkpt><trkpt lat="38.841707303474834" lon="-9.327077279105895"><ele>136.5</ele><time>2026-04-19T12:18:40Z</time></trkpt><trkpt lat="38.84161145704584" lon="-9.32737218879132"><ele>136.0</ele><time>2026-04-19T12:18:41Z</time></trkpt><trkpt lat="38.84151658217933" lon="-9.327673214455253"><ele>136.0</ele><time>2026-04-19T12:18:42Z</time></trkpt><trkpt lat="38.84142126172549" lon="-9.32797001307655"><ele>136.0</ele><time>2026-04-19T12:18:43Z</time></trkpt><trkpt lat="38.84133159756001" lon="-9.32825475563113"><ele>136.33333333333334</ele><time>2026-04-19T12:18:44Z</time></trkpt><trkpt lat="38.84124911253188" lon="-9.328491256946936"><ele>136.66666666666666</ele><time>2026-04-19T12:18:45Z</time></trkpt><trkpt lat="38.841182058914185" lon="-9.328710193464937"><ele>137.0</ele><time>2026-04-19T12:18:46Z</time></trkpt><trkpt lat="38.84111918561716" lon="-9.328889790442714"><ele>136.79999999999998</ele><time>2026-04-19T12:18:47Z</time></trkpt><trkpt lat="38.841066884683585" lon="-9.32903614918135"><ele>136.6</ele><time>2026-04-19T12:18:48Z</time></trkpt><trkpt lat="38.841025753019665" lon="-9.32915125075885"><ele>136.39999999999998</ele><time>2026-04-19T12:18:49Z</time></trkpt><trkpt lat="38.84100190266669" lon="-9.32923983655339"><ele>136.2</ele><time>2026-04-19T12:18:50Z</time></trkpt><trkpt lat="38.84101727698315" lon="-9.329345204098335"><ele>136.0</ele><time>2026-04-19T12:18:52Z</time></trkpt><trkpt lat="38.84088721187648" lon="-9.329280412002305"><ele>136.75</ele><time>2026-04-19T12:18:54Z</time></trkpt><trkpt lat="38.840779248867186" lon="-9.329206640092877"><ele>137.5</ele><time>2026-04-19T12:18:55Z</time></trkpt><trkpt lat="38.8406543817117" lon="-9.32915231175847"><ele>138.25</ele><time>2026-04-19T12:18:56Z</time></trkpt><trkpt lat="38.840515906524594" lon="-9.329078608150775"><ele>139.0</ele><time>2026-04-19T12:18:57Z</time></trkpt><trkpt lat="38.840389395036915" lon="-9.328975248557416"><ele>138.66666666666669</ele><time>2026-04-19T12:18:58Z</time></trkpt><trkpt lat="38.840252015205905" lon="-9.32886006229989"><ele>138.33333333333334</ele><time>2026-04-19T12:18:59Z</time></trkpt><trkpt lat="38.84010801206775" lon="-9.328729606247633"><ele>138.0</ele><time>2026-04-19T12:19:00Z</time></trkpt><trkpt lat="38.83996557540698" lon="-9.328622161274465"><ele>138.0</ele><time>2026-04-19T12:19:01Z</time></trkpt><trkpt lat="38.83982150814633" lon="-9.328498843885491"><ele>138.0</ele><time>2026-04-19T12:19:02Z</time></trkpt><trkpt lat="38.839669593805006" lon="-9.328369607977145"><ele>138.0</ele><time>2026-04-19T12:19:03Z</time></trkpt><trkpt lat="38.839508557486" lon="-9.328238298194611"><ele>138.0</ele><time>2026-04-19T12:19:04Z</time></trkpt><trkpt lat="38.83935591438505" lon="-9.32812968564585"><ele>138.0</ele><time>2026-04-19T12:19:05Z</time></trkpt><trkpt lat="38.83919861389859" lon="-9.328057991194191"><ele>138.0</ele><time>2026-04-19T12:19:06Z</time></trkpt><trkpt lat="38.83903820282692" lon="-9.32804434507692"><ele>139.33333333333334</ele><time>2026-04-19T12:19:07Z</time></trkpt><trkpt lat="38.83885723595093" lon="-9.328050756246327"><ele>140.66666666666669</ele><time>2026-04-19T12:19:08Z</time></trkpt><trkpt lat="38.83866599036088" lon="-9.32805819541333"><ele>142.0</ele><time>2026-04-19T12:19:09Z</time></trkpt><trkpt lat="38.83847030869286" lon="-9.328065807147588"><ele>142.0</ele><time>2026-04-19T12:19:10Z</time></trkpt><trkpt lat="38.83827481908393" lon="-9.32807233958821"><ele>142.0</ele><time>2026-04-19T12:19:11Z</time></trkpt><trkpt lat="38.83806500486871" lon="-9.328077808058092"><ele>142.0</ele><time>2026-04-19T12:19:12Z</time></trkpt><trkpt lat="38.83785174505741" lon="-9.328072634736875"><ele>142.0</ele><time>2026-04-19T12:19:13Z</time></trkpt><trkpt lat="38.83763725028438" lon="-9.328026590805694"><ele>142.0</ele><time>2026-04-19T12:19:14Z</time></trkpt><trkpt lat="38.837418983823376" lon="-9.328002493193008"><ele>142.0</ele><time>2026-04-19T12:19:15Z</time></trkpt><trkpt lat="38.83720665426497" lon="-9.327926174718582"><ele>142.33333333333334</ele><time>2026-04-19T12:19:16Z</time></trkpt><trkpt lat="38.837008393980256" lon="-9.327896725415542"><ele>142.66666666666666</ele><time>2026-04-19T12:19:17Z</time></trkpt><trkpt lat="38.83682730632532" lon="-9.327844703843581"><ele>143.0</ele><time>2026-04-19T12:19:18Z</time></trkpt><trkpt lat="38.83663970383679" lon="-9.327822079969629"><ele>143.0</ele><time>2026-04-19T12:19:19Z</time></trkpt><trkpt lat="38.836460603768444" lon="-9.327786417944994"><ele>143.0</ele><time>2026-04-19T12:19:20Z</time></trkpt><trkpt lat="38.8362930502744" lon="-9.327707767842563"><ele>143.0</ele><time>2026-04-19T12:19:21Z</time></trkpt><trkpt lat="38.83611781094709" lon="-9.327601027445736"><ele>142.66666666666666</ele><time>2026-04-19T12:19:22Z</time></trkpt><trkpt lat="38.8359477361602" lon="-9.327475717293098"><ele>142.33333333333334</ele><time>2026-04-19T12:19:23Z</time></trkpt><trkpt lat="38.83577887111624" lon="-9.32731957542035"><ele>142.0</ele><time>2026-04-19T12:19:24Z</time></trkpt><trkpt lat="38.83562735330612" lon="-9.327179379927253"><ele>141.0</ele><time>2026-04-19T12:19:25Z</time></trkpt><trkpt lat="38.83545696686233" lon="-9.3270925298156"><ele>140.0</ele><time>2026-04-19T12:19:26Z</time></trkpt><trkpt lat="38.83529292398885" lon="-9.327025388725387"><ele>139.0</ele><time>2026-04-19T12:19:27Z</time></trkpt><trkpt lat="38.83511970117293" lon="-9.327016506176907"><ele>138.66666666666669</ele><time>2026-04-19T12:19:28Z</time></trkpt><trkpt lat="38.83491977800824" lon="-9.327013642212673"><ele>138.33333333333334</ele><time>2026-04-19T12:19:29Z</time></trkpt><trkpt lat="38.83471536891914" lon="-9.32701089995695"><ele>138.0</ele><time>2026-04-19T12:19:30Z</time></trkpt><trkpt lat="38.83450599847352" lon="-9.327008271046093"><ele>138.0</ele><time>2026-04-19T12:19:31Z</time></trkpt><trkpt lat="38.83432586065607" lon="-9.327005544846697"><ele>138.0</ele><time>2026-04-19T12:19:32Z</time></trkpt><trkpt lat="38.83415098478913" lon="-9.326990775394234"><ele>138.0</ele><time>2026-04-19T12:19:33Z</time></trkpt><trkpt lat="38.83398880346487" lon="-9.326936941746014"><ele>137.33333333333334</ele><time>2026-04-19T12:19:34Z</time></trkpt><trkpt lat="38.833824573485295" lon="-9.326867082080913"><ele>136.66666666666669</ele><time>2026-04-19T12:19:35Z</time></trkpt><trkpt lat="38.833654175290114" lon="-9.326767187087853"><ele>136.0</ele><time>2026-04-19T12:19:36Z</time></trkpt><trkpt lat="38.833483784582775" lon="-9.326652660175464"><ele>136.66666666666669</ele><time>2026-04-19T12:19:37Z</time></trkpt><trkpt lat="38.833304310648735" lon="-9.32653513085271"><ele>137.33333333333334</ele><time>2026-04-19T12:19:38Z</time></trkpt><trkpt lat="38.83311930164583" lon="-9.326421745550062"><ele>138.0</ele><time>2026-04-19T12:19:39Z</time></trkpt><trkpt lat="38.83293985825247" lon="-9.326309593310185"><ele>138.33333333333334</ele><time>2026-04-19T12:19:40Z</time></trkpt><trkpt lat="38.83278564531435" lon="-9.326214287826456"><ele>138.66666666666669</ele><time>2026-04-19T12:19:41Z</time></trkpt><trkpt lat="38.832643390090645" lon="-9.326128830936034"><ele>139.0</ele><time>2026-04-19T12:19:42Z</time></trkpt><trkpt lat="38.832508359755764" lon="-9.326045071948027"><ele>139.25</ele><time>2026-04-19T12:19:43Z</time></trkpt><trkpt lat="38.83239659063715" lon="-9.325973623177742"><ele>139.5</ele><time>2026-04-19T12:19:44Z</time></trkpt><trkpt lat="38.83230679006516" lon="-9.3258766303774"><ele>139.75</ele><time>2026-04-19T12:19:45Z</time></trkpt><trkpt lat="38.832246391456735" lon="-9.32572501018974"><ele>140.0</ele><time>2026-04-19T12:19:46Z</time></trkpt><trkpt lat="38.832230663947264" lon="-9.325560222788484"><ele>140.66666666666666</ele><time>2026-04-19T12:19:47Z</time></trkpt><trkpt lat="38.83222831007648" lon="-9.32536026490421"><ele>141.33333333333334</ele><time>2026-04-19T12:19:48Z</time></trkpt><trkpt lat="38.83222009418473" lon="-9.325136884998459"><ele>142.0</ele><time>2026-04-19T12:19:49Z</time></trkpt><trkpt lat="38.832230593775364" lon="-9.324900229836457"><ele>143.0</ele><time>2026-04-19T12:19:50Z</time></trkpt><trkpt lat="38.83223495930462" lon="-9.324663294340736"><ele>144.0</ele><time>2026-04-19T12:19:51Z</time></trkpt><trkpt lat="38.83222759396895" lon="-9.324424473258986"><ele>145.0</ele><time>2026-04-19T12:19:52Z</time></trkpt><trkpt lat="38.83221091518468" lon="-9.324173529892303"><ele>145.0</ele><time>2026-04-19T12:19:53Z</time></trkpt><trkpt lat="38.83215625039971" lon="-9.323920239251166"><ele>145.0</ele><time>2026-04-19T12:19:54Z</time></trkpt><trkpt lat="38.83211233889171" lon="-9.323666325706043"><ele>145.0</ele><time>2026-04-19T12:19:55Z</time></trkpt><trkpt lat="38.83208307456401" lon="-9.323420226026936"><ele>146.33333333333334</ele><time>2026-04-19T12:19:56Z</time></trkpt><trkpt lat="38.83204167519561" lon="-9.323213147759581"><ele>147.66666666666666</ele><time>2026-04-19T12:19:57Z</time></trkpt><trkpt lat="38.83201138901441" lon="-9.32301888539226"><ele>149.0</ele><time>2026-04-19T12:19:58Z</time></trkpt><trkpt lat="38.83196850273734" lon="-9.32285251763426"><ele>149.25</ele><time>2026-04-19T12:19:59Z</time></trkpt><trkpt lat="38.831924175849764" lon="-9.322703602321681"><ele>149.5</ele><time>2026-04-19T12:20:00Z</time></trkpt><trkpt lat="38.831854216827544" lon="-9.322595580609903"><ele>149.75</ele><time>2026-04-19T12:20:01Z</time></trkpt><trkpt lat="38.831747543072694" lon="-9.322508514056796"><ele>150.0</ele><time>2026-04-19T12:20:02Z</time></trkpt><trkpt lat="38.83160812557773" lon="-9.322407313098294"><ele>150.0</ele><time>2026-04-19T12:20:03Z</time></trkpt><trkpt lat="38.83146470240442" lon="-9.322301914561994"><ele>150.0</ele><time>2026-04-19T12:20:04Z</time></trkpt><trkpt lat="38.8313202716248" lon="-9.322206357922765"><ele>150.0</ele><time>2026-04-19T12:20:05Z</time></trkpt><trkpt lat="38.83117586241648" lon="-9.322163076753435"><ele>150.33333333333334</ele><time>2026-04-19T12:20:06Z</time></trkpt><trkpt lat="38.83100040441938" lon="-9.32213980881191"><ele>150.66666666666669</ele><time>2026-04-19T12:20:07Z</time></trkpt><trkpt lat="38.830824384630844" lon="-9.32211353492629"><ele>151.0</ele><time>2026-04-19T12:20:08Z</time></trkpt><trkpt lat="38.83065651105796" lon="-9.32209721336495"><ele>152.0</ele><time>2026-04-19T12:20:09Z</time></trkpt><trkpt lat="38.830517551269644" lon="-9.322094862505677"><ele>153.0</ele><time>2026-04-19T12:20:10Z</time></trkpt><trkpt lat="38.83039402099588" lon="-9.32212529029825"><ele>154.0</ele><time>2026-04-19T12:20:11Z</time></trkpt><trkpt lat="38.830273355403094" lon="-9.322177452035676"><ele>155.0</ele><time>2026-04-19T12:20:12Z</time></trkpt><trkpt lat="38.83013464952599" lon="-9.322273990529261"><ele>155.0</ele><time>2026-04-19T12:20:13Z</time></trkpt><trkpt lat="38.82997146712779" lon="-9.322380896339613"><ele>155.0</ele><time>2026-04-19T12:20:14Z</time></trkpt><trkpt lat="38.82979628501312" lon="-9.322486073085178"><ele>155.0</ele><time>2026-04-19T12:20:15Z</time></trkpt><trkpt lat="38.82961037998868" lon="-9.322597475188326"><ele>155.0</ele><time>2026-04-19T12:20:16Z</time></trkpt><trkpt lat="38.82942146938976" lon="-9.322722702208548"><ele>155.0</ele><time>2026-04-19T12:20:17Z</time></trkpt><trkpt lat="38.82923209804148" lon="-9.32286318637011"><ele>155.0</ele><time>2026-04-19T12:20:18Z</time></trkpt><trkpt lat="38.82904301730126" lon="-9.323015089130381"><ele>154.66666666666666</ele><time>2026-04-19T12:20:19Z</time></trkpt><trkpt lat="38.828854442927806" lon="-9.323167429690512"><ele>154.33333333333334</ele><time>2026-04-19T12:20:20Z</time></trkpt><trkpt lat="38.82865550576971" lon="-9.323303363608446"><ele>154.0</ele><time>2026-04-19T12:20:21Z</time></trkpt><trkpt lat="38.82846097383588" lon="-9.32347017716702"><ele>159.5</ele><time>2026-04-19T12:20:22.001Z</time></trkpt><trkpt lat="38.82826349096216" lon="-9.323634382905803"><ele>165.0</ele><time>2026-04-19T12:20:23.001Z</time></trkpt><trkpt lat="38.82806390877648" lon="-9.323797616512293"><ele>159.5</ele><time>2026-04-19T12:20:24.001Z</time></trkpt><trkpt lat="38.827865159270075" lon="-9.323964059914863"><ele>154.0</ele><time>2026-04-19T12:20:25.001Z</time></trkpt><trkpt lat="38.827660061951526" lon="-9.32412196031177"><ele>160.5</ele><time>2026-04-19T12:20:26.001Z</time></trkpt><trkpt lat="38.827451055298866" lon="-9.32426833195501"><ele>167.0</ele><time>2026-04-19T12:20:27.001Z</time></trkpt><trkpt lat="38.82723707702199" lon="-9.324403765919202"><ele>167.0</ele><time>2026-04-19T12:20:28.001Z</time></trkpt><trkpt lat="38.82703582141408" lon="-9.32452130804462"><ele>167.0</ele><time>2026-04-19T12:20:29.001Z</time></trkpt><trkpt lat="38.826868627485446" lon="-9.32463327772418"><ele>167.0</ele><time>2026-04-19T12:20:30.001Z</time></trkpt><trkpt lat="38.82671990189286" lon="-9.32474335638329"><ele>166.25</ele><time>2026-04-19T12:20:31.001Z</time></trkpt><trkpt lat="38.82658827992098" lon="-9.324830512375536"><ele>165.5</ele><time>2026-04-19T12:20:32.001Z</time></trkpt><trkpt lat="38.826461807109446" lon="-9.32488103178863"><ele>164.75</ele><time>2026-04-19T12:20:33.001Z</time></trkpt><trkpt lat="38.82634327022035" lon="-9.32491590408057"><ele>164.0</ele><time>2026-04-19T12:20:34.001Z</time></trkpt><trkpt lat="38.82620133902883" lon="-9.324903786977453"><ele>164.0</ele><time>2026-04-19T12:20:35.001Z</time></trkpt><trkpt lat="38.82605531487329" lon="-9.32486248537945"><ele>164.0</ele><time>2026-04-19T12:20:36.001Z</time></trkpt><trkpt lat="38.82592167138106" lon="-9.324828199931357"><ele>164.0</ele><time>2026-04-19T12:20:37.001Z</time></trkpt><trkpt lat="38.82580407384667" lon="-9.324801549549525"><ele>164.0</ele><time>2026-04-19T12:20:38.001Z</time></trkpt><trkpt lat="38.825708841002346" lon="-9.324765033070745"><ele>164.0</ele><time>2026-04-19T12:20:39.001Z</time></trkpt><trkpt lat="38.82561837437361" lon="-9.32471869744116"><ele>164.0</ele><time>2026-04-19T12:20:40.001Z</time></trkpt><trkpt lat="38.82551938099344" lon="-9.324645946633025"><ele>164.0</ele><time>2026-04-19T12:20:42.001Z</time></trkpt><trkpt lat="38.82557687408045" lon="-9.324856254910667"><ele>164.0</ele><time>2026-04-19T12:20:44.001Z</time></trkpt><trkpt lat="38.82555416616313" lon="-9.324954871125426"><ele>162.0</ele><time>2026-04-19T12:20:45.001Z</time></trkpt><trkpt lat="38.825519361550064" lon="-9.325039041610406"><ele>162.0</ele><time>2026-04-19T12:20:46.001Z</time></trkpt><trkpt lat="38.825460085989235" lon="-9.325110155872476"><ele>162.0</ele><time>2026-04-19T12:20:48.001Z</time></trkpt><trkpt lat="38.82543933328495" lon="-9.324965289736676"><ele>162.0</ele><time>2026-04-19T12:21:26.001Z</time></trkpt><trkpt lat="38.82538383842906" lon="-9.324913189189601"><ele>162.0</ele><time>2026-04-19T12:21:30.001Z</time></trkpt><trkpt lat="38.8254328517518" lon="-9.324970537918158"><ele>162.0</ele><time>2026-04-19T12:21:55.001Z</time></trkpt></trkseg></trk></gpx>